<?xml version="1.0" encoding="UTF-8" standalone="no" ?>
<gpx xmlns="http://www.topografix.com/GPX/1/1" xmlns:xsi="http://www.w3.org/2001/XMLSchema-instance" xsi:schemaLocation="http://www.topografix.com/GPX/1/1 http://www.topografix.com/GPX/1/1/gpx.xsd" version="1.1" creator="VisuGPX - https://www.visugpx.com">
  <metadata>
    <name>HRP2023-J03</name>
  </metadata>
  <trk>
    <name><![CDATA[HRP2023-J03]]></name>
    <extensions>
      <line xmlns="http://www.topografix.com/GPX/gpx_style/0/2">
        <color>0432ff</color>
        <width>4</width>
      </line>
    </extensions>
    <trkseg>
      <trkpt lat="42.47131" lon="2.66857">
        <ele>238.60000610352</ele>
        <time>2023-07-15T03:54:56.000Z</time>
      </trkpt>
      <trkpt lat="42.47137" lon="2.66861">
        <ele>237.80000305176</ele>
        <time>2023-07-15T03:55:07.000Z</time>
      </trkpt>
      <trkpt lat="42.4714" lon="2.66871">
        <ele>237.60000610352</ele>
        <time>2023-07-15T03:55:13.000Z</time>
      </trkpt>
      <trkpt lat="42.47141" lon="2.66879">
        <ele>237.39999389648</ele>
        <time>2023-07-15T03:55:20.000Z</time>
      </trkpt>
      <trkpt lat="42.47143" lon="2.66884">
        <ele>237.19999694824</ele>
        <time>2023-07-15T03:55:26.000Z</time>
      </trkpt>
      <trkpt lat="42.4736" lon="2.66883">
        <ele>227.80000305176</ele>
        <time>2023-07-15T03:57:24.000Z</time>
      </trkpt>
      <trkpt lat="42.4736" lon="2.66878">
        <ele>228</ele>
        <time>2023-07-15T03:57:28.000Z</time>
      </trkpt>
      <trkpt lat="42.47364" lon="2.66873">
        <ele>228.39999389648</ele>
        <time>2023-07-15T03:57:37.000Z</time>
      </trkpt>
      <trkpt lat="42.47359" lon="2.66867">
        <ele>228.60000610352</ele>
        <time>2023-07-15T03:57:55.000Z</time>
      </trkpt>
      <trkpt lat="42.47352" lon="2.6687">
        <ele>229</ele>
        <time>2023-07-15T03:58:01.000Z</time>
      </trkpt>
      <trkpt lat="42.47347" lon="2.66872">
        <ele>229</ele>
        <time>2023-07-15T03:58:04.000Z</time>
      </trkpt>
      <trkpt lat="42.47343" lon="2.66872">
        <ele>229.19999694824</ele>
        <time>2023-07-15T03:58:11.000Z</time>
      </trkpt>
      <trkpt lat="42.47346" lon="2.66868">
        <ele>229.39999389648</ele>
        <time>2023-07-15T03:58:17.000Z</time>
      </trkpt>
      <trkpt lat="42.47349" lon="2.66864">
        <ele>229.39999389648</ele>
        <time>2023-07-15T03:58:21.000Z</time>
      </trkpt>
      <trkpt lat="42.47355" lon="2.66854">
        <ele>230</ele>
        <time>2023-07-15T03:58:28.000Z</time>
      </trkpt>
      <trkpt lat="42.47361" lon="2.66846">
        <ele>230.39999389648</ele>
        <time>2023-07-15T03:58:34.000Z</time>
      </trkpt>
      <trkpt lat="42.47363" lon="2.66837">
        <ele>230.80000305176</ele>
        <time>2023-07-15T03:58:41.000Z</time>
      </trkpt>
      <trkpt lat="42.47366" lon="2.66827">
        <ele>231</ele>
        <time>2023-07-15T03:58:47.000Z</time>
      </trkpt>
      <trkpt lat="42.47371" lon="2.66814">
        <ele>231.39999389648</ele>
        <time>2023-07-15T03:58:55.000Z</time>
      </trkpt>
      <trkpt lat="42.47374" lon="2.66799">
        <ele>232</ele>
        <time>2023-07-15T03:59:04.000Z</time>
      </trkpt>
      <trkpt lat="42.47376" lon="2.66795">
        <ele>232.19999694824</ele>
        <time>2023-07-15T03:59:07.000Z</time>
      </trkpt>
      <trkpt lat="42.47377" lon="2.66782">
        <ele>232.60000610352</ele>
        <time>2023-07-15T03:59:14.000Z</time>
      </trkpt>
      <trkpt lat="42.47376" lon="2.66771">
        <ele>232.80000305176</ele>
        <time>2023-07-15T03:59:20.000Z</time>
      </trkpt>
      <trkpt lat="42.47377" lon="2.66757">
        <ele>233.19999694824</ele>
        <time>2023-07-15T03:59:26.000Z</time>
      </trkpt>
      <trkpt lat="42.47378" lon="2.66754">
        <ele>233.39999389648</ele>
        <time>2023-07-15T03:59:28.000Z</time>
      </trkpt>
      <trkpt lat="42.4738" lon="2.66747">
        <ele>233.60000610352</ele>
        <time>2023-07-15T03:59:35.000Z</time>
      </trkpt>
      <trkpt lat="42.47384" lon="2.66739">
        <ele>233.80000305176</ele>
        <time>2023-07-15T03:59:41.000Z</time>
      </trkpt>
      <trkpt lat="42.4739" lon="2.66726">
        <ele>234</ele>
        <time>2023-07-15T03:59:49.000Z</time>
      </trkpt>
      <trkpt lat="42.47398" lon="2.66707">
        <ele>234.19999694824</ele>
        <time>2023-07-15T04:00:00.000Z</time>
      </trkpt>
      <trkpt lat="42.47404" lon="2.66693">
        <ele>234.19999694824</ele>
        <time>2023-07-15T04:00:10.000Z</time>
      </trkpt>
      <trkpt lat="42.47408" lon="2.66685">
        <ele>234.19999694824</ele>
        <time>2023-07-15T04:00:15.000Z</time>
      </trkpt>
      <trkpt lat="42.47408" lon="2.66684">
        <ele>234.19999694824</ele>
        <time>2023-07-15T04:00:16.000Z</time>
      </trkpt>
      <trkpt lat="42.47414" lon="2.66663">
        <ele>234.19999694824</ele>
        <time>2023-07-15T04:00:27.000Z</time>
      </trkpt>
      <trkpt lat="42.47419" lon="2.6664">
        <ele>234.19999694824</ele>
        <time>2023-07-15T04:00:39.000Z</time>
      </trkpt>
      <trkpt lat="42.47425" lon="2.66628">
        <ele>234</ele>
        <time>2023-07-15T04:00:49.000Z</time>
      </trkpt>
      <trkpt lat="42.4743" lon="2.6661">
        <ele>233.80000305176</ele>
        <time>2023-07-15T04:01:01.000Z</time>
      </trkpt>
      <trkpt lat="42.47434" lon="2.66587">
        <ele>233.80000305176</ele>
        <time>2023-07-15T04:01:12.000Z</time>
      </trkpt>
      <trkpt lat="42.47441" lon="2.66564">
        <ele>233.60000610352</ele>
        <time>2023-07-15T04:01:24.000Z</time>
      </trkpt>
      <trkpt lat="42.47448" lon="2.66548">
        <ele>233.60000610352</ele>
        <time>2023-07-15T04:01:37.000Z</time>
      </trkpt>
      <trkpt lat="42.47443" lon="2.66539">
        <ele>233.39999389648</ele>
        <time>2023-07-15T04:01:46.000Z</time>
      </trkpt>
      <trkpt lat="42.47434" lon="2.6653">
        <ele>233.19999694824</ele>
        <time>2023-07-15T04:01:56.000Z</time>
      </trkpt>
      <trkpt lat="42.47419" lon="2.66501">
        <ele>233.19999694824</ele>
        <time>2023-07-15T04:02:15.000Z</time>
      </trkpt>
      <trkpt lat="42.47415" lon="2.66493">
        <ele>233.60000610352</ele>
        <time>2023-07-15T04:02:21.000Z</time>
      </trkpt>
      <trkpt lat="42.47415" lon="2.66492">
        <ele>233.60000610352</ele>
        <time>2023-07-15T04:02:22.000Z</time>
      </trkpt>
      <trkpt lat="42.47417" lon="2.66491">
        <ele>233.60000610352</ele>
        <time>2023-07-15T04:02:25.000Z</time>
      </trkpt>
      <trkpt lat="42.47418" lon="2.66485">
        <ele>233.60000610352</ele>
        <time>2023-07-15T04:02:29.000Z</time>
      </trkpt>
      <trkpt lat="42.47424" lon="2.66481">
        <ele>233.60000610352</ele>
        <time>2023-07-15T04:02:35.000Z</time>
      </trkpt>
      <trkpt lat="42.47435" lon="2.66474">
        <ele>232.60000610352</ele>
        <time>2023-07-15T04:02:45.000Z</time>
      </trkpt>
      <trkpt lat="42.4744" lon="2.66471">
        <ele>232</ele>
        <time>2023-07-15T04:02:50.000Z</time>
      </trkpt>
      <trkpt lat="42.47443" lon="2.66468">
        <ele>231.60000610352</ele>
        <time>2023-07-15T04:02:54.000Z</time>
      </trkpt>
      <trkpt lat="42.47449" lon="2.66464">
        <ele>231</ele>
        <time>2023-07-15T04:03:00.000Z</time>
      </trkpt>
      <trkpt lat="42.47458" lon="2.66459">
        <ele>230.39999389648</ele>
        <time>2023-07-15T04:03:07.000Z</time>
      </trkpt>
      <trkpt lat="42.47474" lon="2.66448">
        <ele>231.19999694824</ele>
        <time>2023-07-15T04:03:19.000Z</time>
      </trkpt>
      <trkpt lat="42.47475" lon="2.66447">
        <ele>231.19999694824</ele>
        <time>2023-07-15T04:03:20.000Z</time>
      </trkpt>
      <trkpt lat="42.47483" lon="2.66441">
        <ele>231.39999389648</ele>
        <time>2023-07-15T04:03:27.000Z</time>
      </trkpt>
      <trkpt lat="42.47489" lon="2.66432">
        <ele>231.39999389648</ele>
        <time>2023-07-15T04:03:35.000Z</time>
      </trkpt>
      <trkpt lat="42.47493" lon="2.66426">
        <ele>231.39999389648</ele>
        <time>2023-07-15T04:03:40.000Z</time>
      </trkpt>
      <trkpt lat="42.47502" lon="2.66416">
        <ele>231.39999389648</ele>
        <time>2023-07-15T04:03:48.000Z</time>
      </trkpt>
      <trkpt lat="42.4751" lon="2.66409">
        <ele>231.19999694824</ele>
        <time>2023-07-15T04:03:56.000Z</time>
      </trkpt>
      <trkpt lat="42.47522" lon="2.66399">
        <ele>231.19999694824</ele>
        <time>2023-07-15T04:04:05.000Z</time>
      </trkpt>
      <trkpt lat="42.47527" lon="2.66386">
        <ele>231</ele>
        <time>2023-07-15T04:04:13.000Z</time>
      </trkpt>
      <trkpt lat="42.47536" lon="2.66376">
        <ele>230.60000610352</ele>
        <time>2023-07-15T04:04:21.000Z</time>
      </trkpt>
      <trkpt lat="42.4754" lon="2.66376">
        <ele>230.60000610352</ele>
        <time>2023-07-15T04:04:27.000Z</time>
      </trkpt>
      <trkpt lat="42.47543" lon="2.66378">
        <ele>230.39999389648</ele>
        <time>2023-07-15T04:04:31.000Z</time>
      </trkpt>
      <trkpt lat="42.47544" lon="2.66381">
        <ele>230.39999389648</ele>
        <time>2023-07-15T04:04:34.000Z</time>
      </trkpt>
      <trkpt lat="42.47546" lon="2.66388">
        <ele>230.39999389648</ele>
        <time>2023-07-15T04:04:42.000Z</time>
      </trkpt>
      <trkpt lat="42.47545" lon="2.66389">
        <ele>230.39999389648</ele>
        <time>2023-07-15T04:04:51.000Z</time>
      </trkpt>
      <trkpt lat="42.47542" lon="2.66379">
        <ele>230</ele>
        <time>2023-07-15T04:04:58.000Z</time>
      </trkpt>
      <trkpt lat="42.47544" lon="2.66378">
        <ele>230</ele>
        <time>2023-07-15T04:04:59.000Z</time>
      </trkpt>
      <trkpt lat="42.47548" lon="2.66375">
        <ele>230.19999694824</ele>
        <time>2023-07-15T04:05:03.000Z</time>
      </trkpt>
      <trkpt lat="42.47559" lon="2.66364">
        <ele>230.39999389648</ele>
        <time>2023-07-15T04:05:11.000Z</time>
      </trkpt>
      <trkpt lat="42.47559" lon="2.66357">
        <ele>230.60000610352</ele>
        <time>2023-07-15T04:05:17.000Z</time>
      </trkpt>
      <trkpt lat="42.47559" lon="2.66346">
        <ele>230.80000305176</ele>
        <time>2023-07-15T04:05:23.000Z</time>
      </trkpt>
      <trkpt lat="42.47563" lon="2.66331">
        <ele>230.80000305176</ele>
        <time>2023-07-15T04:05:32.000Z</time>
      </trkpt>
      <trkpt lat="42.47565" lon="2.66325">
        <ele>231</ele>
        <time>2023-07-15T04:05:38.000Z</time>
      </trkpt>
      <trkpt lat="42.47566" lon="2.66319">
        <ele>232</ele>
        <time>2023-07-15T04:05:44.000Z</time>
      </trkpt>
      <trkpt lat="42.47567" lon="2.66316">
        <ele>232.39999389648</ele>
        <time>2023-07-15T04:05:47.000Z</time>
      </trkpt>
      <trkpt lat="42.47568" lon="2.66312">
        <ele>232.60000610352</ele>
        <time>2023-07-15T04:05:55.000Z</time>
      </trkpt>
      <trkpt lat="42.47569" lon="2.66311">
        <ele>232.80000305176</ele>
        <time>2023-07-15T04:06:03.000Z</time>
      </trkpt>
      <trkpt lat="42.47567" lon="2.66306">
        <ele>232.39999389648</ele>
        <time>2023-07-15T04:06:11.000Z</time>
      </trkpt>
      <trkpt lat="42.47565" lon="2.66299">
        <ele>232.80000305176</ele>
        <time>2023-07-15T04:06:18.000Z</time>
      </trkpt>
      <trkpt lat="42.47568" lon="2.66293">
        <ele>233</ele>
        <time>2023-07-15T04:06:24.000Z</time>
      </trkpt>
      <trkpt lat="42.4757" lon="2.66293">
        <ele>233.39999389648</ele>
        <time>2023-07-15T04:06:26.000Z</time>
      </trkpt>
      <trkpt lat="42.47571" lon="2.66294">
        <ele>235.19999694824</ele>
        <time>2023-07-15T04:06:34.000Z</time>
      </trkpt>
      <trkpt lat="42.47572" lon="2.66295">
        <ele>236.19999694824</ele>
        <time>2023-07-15T04:06:40.000Z</time>
      </trkpt>
      <trkpt lat="42.47572" lon="2.66295">
        <ele>236.39999389648</ele>
        <time>2023-07-15T04:06:41.000Z</time>
      </trkpt>
      <trkpt lat="42.47575" lon="2.66293">
        <ele>237.60000610352</ele>
        <time>2023-07-15T04:06:45.000Z</time>
      </trkpt>
      <trkpt lat="42.47577" lon="2.66291">
        <ele>238.60000610352</ele>
        <time>2023-07-15T04:06:50.000Z</time>
      </trkpt>
      <trkpt lat="42.4758" lon="2.66287">
        <ele>239.39999389648</ele>
        <time>2023-07-15T04:06:55.000Z</time>
      </trkpt>
      <trkpt lat="42.4758" lon="2.66287">
        <ele>239.60000610352</ele>
        <time>2023-07-15T04:06:56.000Z</time>
      </trkpt>
      <trkpt lat="42.47584" lon="2.66283">
        <ele>240.60000610352</ele>
        <time>2023-07-15T04:07:02.000Z</time>
      </trkpt>
      <trkpt lat="42.47585" lon="2.66283">
        <ele>240.60000610352</ele>
        <time>2023-07-15T04:07:03.000Z</time>
      </trkpt>
      <trkpt lat="42.47589" lon="2.6628">
        <ele>240.80000305176</ele>
        <time>2023-07-15T04:07:08.000Z</time>
      </trkpt>
      <trkpt lat="42.47594" lon="2.66277">
        <ele>241</ele>
        <time>2023-07-15T04:07:13.000Z</time>
      </trkpt>
      <trkpt lat="42.476" lon="2.66271">
        <ele>241.60000610352</ele>
        <time>2023-07-15T04:07:19.000Z</time>
      </trkpt>
      <trkpt lat="42.47602" lon="2.6627">
        <ele>241.60000610352</ele>
        <time>2023-07-15T04:07:20.000Z</time>
      </trkpt>
      <trkpt lat="42.47605" lon="2.66266">
        <ele>242.39999389648</ele>
        <time>2023-07-15T04:07:24.000Z</time>
      </trkpt>
      <trkpt lat="42.47607" lon="2.66263">
        <ele>242.60000610352</ele>
        <time>2023-07-15T04:07:26.000Z</time>
      </trkpt>
      <trkpt lat="42.47607" lon="2.66261">
        <ele>243</ele>
        <time>2023-07-15T04:07:29.000Z</time>
      </trkpt>
      <trkpt lat="42.47605" lon="2.6626">
        <ele>243.19999694824</ele>
        <time>2023-07-15T04:07:40.000Z</time>
      </trkpt>
      <trkpt lat="42.47604" lon="2.66258">
        <ele>243</ele>
        <time>2023-07-15T04:07:48.000Z</time>
      </trkpt>
      <trkpt lat="42.47602" lon="2.66253">
        <ele>243</ele>
        <time>2023-07-15T04:07:56.000Z</time>
      </trkpt>
      <trkpt lat="42.47605" lon="2.66247">
        <ele>243.39999389648</ele>
        <time>2023-07-15T04:08:02.000Z</time>
      </trkpt>
      <trkpt lat="42.47606" lon="2.66242">
        <ele>243.60000610352</ele>
        <time>2023-07-15T04:08:06.000Z</time>
      </trkpt>
      <trkpt lat="42.4761" lon="2.66239">
        <ele>244.39999389648</ele>
        <time>2023-07-15T04:08:10.000Z</time>
      </trkpt>
      <trkpt lat="42.47611" lon="2.66234">
        <ele>244.60000610352</ele>
        <time>2023-07-15T04:08:14.000Z</time>
      </trkpt>
      <trkpt lat="42.47612" lon="2.6623">
        <ele>244.80000305176</ele>
        <time>2023-07-15T04:08:16.000Z</time>
      </trkpt>
      <trkpt lat="42.47613" lon="2.66227">
        <ele>245</ele>
        <time>2023-07-15T04:08:18.000Z</time>
      </trkpt>
      <trkpt lat="42.4761" lon="2.66225">
        <ele>245.39999389648</ele>
        <time>2023-07-15T04:08:25.000Z</time>
      </trkpt>
      <trkpt lat="42.47607" lon="2.66219">
        <ele>245.39999389648</ele>
        <time>2023-07-15T04:08:38.000Z</time>
      </trkpt>
      <trkpt lat="42.47608" lon="2.66211">
        <ele>245.80000305176</ele>
        <time>2023-07-15T04:08:43.000Z</time>
      </trkpt>
      <trkpt lat="42.47609" lon="2.66201">
        <ele>246.60000610352</ele>
        <time>2023-07-15T04:08:48.000Z</time>
      </trkpt>
      <trkpt lat="42.47609" lon="2.66199">
        <ele>246.80000305176</ele>
        <time>2023-07-15T04:08:49.000Z</time>
      </trkpt>
      <trkpt lat="42.47609" lon="2.66189">
        <ele>247.39999389648</ele>
        <time>2023-07-15T04:08:53.000Z</time>
      </trkpt>
      <trkpt lat="42.47612" lon="2.66178">
        <ele>247.80000305176</ele>
        <time>2023-07-15T04:08:59.000Z</time>
      </trkpt>
      <trkpt lat="42.47612" lon="2.66175">
        <ele>248.19999694824</ele>
        <time>2023-07-15T04:09:02.000Z</time>
      </trkpt>
      <trkpt lat="42.47616" lon="2.66171">
        <ele>249</ele>
        <time>2023-07-15T04:09:07.000Z</time>
      </trkpt>
      <trkpt lat="42.47617" lon="2.66169">
        <ele>249</ele>
        <time>2023-07-15T04:09:09.000Z</time>
      </trkpt>
      <trkpt lat="42.47625" lon="2.66167">
        <ele>249.60000610352</ele>
        <time>2023-07-15T04:09:18.000Z</time>
      </trkpt>
      <trkpt lat="42.47631" lon="2.66161">
        <ele>250</ele>
        <time>2023-07-15T04:09:26.000Z</time>
      </trkpt>
      <trkpt lat="42.47638" lon="2.6615">
        <ele>250.80000305176</ele>
        <time>2023-07-15T04:09:34.000Z</time>
      </trkpt>
      <trkpt lat="42.47641" lon="2.66147">
        <ele>251</ele>
        <time>2023-07-15T04:09:36.000Z</time>
      </trkpt>
      <trkpt lat="42.47643" lon="2.66143">
        <ele>251.39999389648</ele>
        <time>2023-07-15T04:09:39.000Z</time>
      </trkpt>
      <trkpt lat="42.47646" lon="2.66138">
        <ele>252.19999694824</ele>
        <time>2023-07-15T04:09:43.000Z</time>
      </trkpt>
      <trkpt lat="42.47648" lon="2.66136">
        <ele>252.80000305176</ele>
        <time>2023-07-15T04:09:47.000Z</time>
      </trkpt>
      <trkpt lat="42.47649" lon="2.66134">
        <ele>253.19999694824</ele>
        <time>2023-07-15T04:09:51.000Z</time>
      </trkpt>
      <trkpt lat="42.47648" lon="2.66133">
        <ele>253.60000610352</ele>
        <time>2023-07-15T04:09:55.000Z</time>
      </trkpt>
      <trkpt lat="42.47647" lon="2.66134">
        <ele>253.80000305176</ele>
        <time>2023-07-15T04:10:03.000Z</time>
      </trkpt>
      <trkpt lat="42.47648" lon="2.66141">
        <ele>252.80000305176</ele>
        <time>2023-07-15T04:10:12.000Z</time>
      </trkpt>
      <trkpt lat="42.47646" lon="2.66148">
        <ele>252</ele>
        <time>2023-07-15T04:10:19.000Z</time>
      </trkpt>
      <trkpt lat="42.47645" lon="2.66151">
        <ele>251.80000305176</ele>
        <time>2023-07-15T04:10:22.000Z</time>
      </trkpt>
      <trkpt lat="42.47642" lon="2.66158">
        <ele>251</ele>
        <time>2023-07-15T04:10:29.000Z</time>
      </trkpt>
      <trkpt lat="42.47643" lon="2.66158">
        <ele>251</ele>
        <time>2023-07-15T04:10:30.000Z</time>
      </trkpt>
      <trkpt lat="42.47646" lon="2.66157">
        <ele>250.80000305176</ele>
        <time>2023-07-15T04:10:37.000Z</time>
      </trkpt>
      <trkpt lat="42.47639" lon="2.66167">
        <ele>250.60000610352</ele>
        <time>2023-07-15T04:10:45.000Z</time>
      </trkpt>
      <trkpt lat="42.47638" lon="2.6617">
        <ele>250.60000610352</ele>
        <time>2023-07-15T04:10:52.000Z</time>
      </trkpt>
      <trkpt lat="42.47638" lon="2.66181">
        <ele>251.19999694824</ele>
        <time>2023-07-15T04:11:02.000Z</time>
      </trkpt>
      <trkpt lat="42.4764" lon="2.66187">
        <ele>251.80000305176</ele>
        <time>2023-07-15T04:11:10.000Z</time>
      </trkpt>
      <trkpt lat="42.47636" lon="2.66186">
        <ele>251.80000305176</ele>
        <time>2023-07-15T04:11:16.000Z</time>
      </trkpt>
      <trkpt lat="42.47628" lon="2.66178">
        <ele>250.80000305176</ele>
        <time>2023-07-15T04:11:27.000Z</time>
      </trkpt>
      <trkpt lat="42.47624" lon="2.66177">
        <ele>250.19999694824</ele>
        <time>2023-07-15T04:11:35.000Z</time>
      </trkpt>
      <trkpt lat="42.47622" lon="2.66178">
        <ele>250</ele>
        <time>2023-07-15T04:11:38.000Z</time>
      </trkpt>
      <trkpt lat="42.47617" lon="2.66182">
        <ele>249.39999389648</ele>
        <time>2023-07-15T04:11:43.000Z</time>
      </trkpt>
      <trkpt lat="42.47613" lon="2.66187">
        <ele>249</ele>
        <time>2023-07-15T04:11:48.000Z</time>
      </trkpt>
      <trkpt lat="42.47611" lon="2.66189">
        <ele>248.60000610352</ele>
        <time>2023-07-15T04:11:51.000Z</time>
      </trkpt>
      <trkpt lat="42.4761" lon="2.66189">
        <ele>248.19999694824</ele>
        <time>2023-07-15T04:11:56.000Z</time>
      </trkpt>
      <trkpt lat="42.4761" lon="2.66187">
        <ele>248.19999694824</ele>
        <time>2023-07-15T04:11:58.000Z</time>
      </trkpt>
      <trkpt lat="42.47618" lon="2.66175">
        <ele>248.60000610352</ele>
        <time>2023-07-15T04:12:08.000Z</time>
      </trkpt>
      <trkpt lat="42.47627" lon="2.66171">
        <ele>249.60000610352</ele>
        <time>2023-07-15T04:12:18.000Z</time>
      </trkpt>
      <trkpt lat="42.4763" lon="2.66171">
        <ele>250</ele>
        <time>2023-07-15T04:12:22.000Z</time>
      </trkpt>
      <trkpt lat="42.47632" lon="2.6617">
        <ele>250.19999694824</ele>
        <time>2023-07-15T04:12:26.000Z</time>
      </trkpt>
      <trkpt lat="42.47636" lon="2.66166">
        <ele>250.39999389648</ele>
        <time>2023-07-15T04:12:34.000Z</time>
      </trkpt>
      <trkpt lat="42.47641" lon="2.66158">
        <ele>251</ele>
        <time>2023-07-15T04:12:42.000Z</time>
      </trkpt>
      <trkpt lat="42.47641" lon="2.66157">
        <ele>251.19999694824</ele>
        <time>2023-07-15T04:12:43.000Z</time>
      </trkpt>
      <trkpt lat="42.47645" lon="2.6615">
        <ele>252.19999694824</ele>
        <time>2023-07-15T04:12:50.000Z</time>
      </trkpt>
      <trkpt lat="42.47646" lon="2.66148">
        <ele>252.19999694824</ele>
        <time>2023-07-15T04:12:51.000Z</time>
      </trkpt>
      <trkpt lat="42.47653" lon="2.66144">
        <ele>253.39999389648</ele>
        <time>2023-07-15T04:12:57.000Z</time>
      </trkpt>
      <trkpt lat="42.47656" lon="2.6614">
        <ele>254</ele>
        <time>2023-07-15T04:13:01.000Z</time>
      </trkpt>
      <trkpt lat="42.47658" lon="2.66138">
        <ele>254.39999389648</ele>
        <time>2023-07-15T04:13:03.000Z</time>
      </trkpt>
      <trkpt lat="42.47664" lon="2.66132">
        <ele>255.39999389648</ele>
        <time>2023-07-15T04:13:09.000Z</time>
      </trkpt>
      <trkpt lat="42.47667" lon="2.66129">
        <ele>256.60000610352</ele>
        <time>2023-07-15T04:13:14.000Z</time>
      </trkpt>
      <trkpt lat="42.47671" lon="2.66125">
        <ele>257.60000610352</ele>
        <time>2023-07-15T04:13:19.000Z</time>
      </trkpt>
      <trkpt lat="42.47671" lon="2.66124">
        <ele>257.79998779297</ele>
        <time>2023-07-15T04:13:20.000Z</time>
      </trkpt>
      <trkpt lat="42.47675" lon="2.6612">
        <ele>258.79998779297</ele>
        <time>2023-07-15T04:13:24.000Z</time>
      </trkpt>
      <trkpt lat="42.47677" lon="2.66117">
        <ele>259.20001220703</ele>
        <time>2023-07-15T04:13:27.000Z</time>
      </trkpt>
      <trkpt lat="42.47679" lon="2.66116">
        <ele>259.79998779297</ele>
        <time>2023-07-15T04:13:29.000Z</time>
      </trkpt>
      <trkpt lat="42.47679" lon="2.66115">
        <ele>260.20001220703</ele>
        <time>2023-07-15T04:13:32.000Z</time>
      </trkpt>
      <trkpt lat="42.47677" lon="2.66111">
        <ele>260.39999389648</ele>
        <time>2023-07-15T04:13:34.000Z</time>
      </trkpt>
      <trkpt lat="42.47676" lon="2.66111">
        <ele>260.39999389648</ele>
        <time>2023-07-15T04:13:39.000Z</time>
      </trkpt>
      <trkpt lat="42.47675" lon="2.66108">
        <ele>260.39999389648</ele>
        <time>2023-07-15T04:13:46.000Z</time>
      </trkpt>
      <trkpt lat="42.47675" lon="2.66107">
        <ele>260.39999389648</ele>
        <time>2023-07-15T04:13:47.000Z</time>
      </trkpt>
      <trkpt lat="42.47671" lon="2.66101">
        <ele>260.39999389648</ele>
        <time>2023-07-15T04:13:53.000Z</time>
      </trkpt>
      <trkpt lat="42.47674" lon="2.66102">
        <ele>260.39999389648</ele>
        <time>2023-07-15T04:14:08.000Z</time>
      </trkpt>
      <trkpt lat="42.47675" lon="2.66112">
        <ele>260</ele>
        <time>2023-07-15T04:14:15.000Z</time>
      </trkpt>
      <trkpt lat="42.47672" lon="2.66116">
        <ele>259.39999389648</ele>
        <time>2023-07-15T04:14:19.000Z</time>
      </trkpt>
      <trkpt lat="42.47669" lon="2.66119">
        <ele>259</ele>
        <time>2023-07-15T04:14:21.000Z</time>
      </trkpt>
      <trkpt lat="42.47666" lon="2.66121">
        <ele>258.20001220703</ele>
        <time>2023-07-15T04:14:24.000Z</time>
      </trkpt>
      <trkpt lat="42.47662" lon="2.66124">
        <ele>257.39999389648</ele>
        <time>2023-07-15T04:14:28.000Z</time>
      </trkpt>
      <trkpt lat="42.47661" lon="2.66125">
        <ele>257.20001220703</ele>
        <time>2023-07-15T04:14:29.000Z</time>
      </trkpt>
      <trkpt lat="42.47657" lon="2.66127">
        <ele>256</ele>
        <time>2023-07-15T04:14:34.000Z</time>
      </trkpt>
      <trkpt lat="42.47655" lon="2.66129">
        <ele>255.80000305176</ele>
        <time>2023-07-15T04:14:36.000Z</time>
      </trkpt>
      <trkpt lat="42.47651" lon="2.66134">
        <ele>255</ele>
        <time>2023-07-15T04:14:41.000Z</time>
      </trkpt>
      <trkpt lat="42.47648" lon="2.66138">
        <ele>254.60000610352</ele>
        <time>2023-07-15T04:14:44.000Z</time>
      </trkpt>
      <trkpt lat="42.47646" lon="2.66141">
        <ele>254</ele>
        <time>2023-07-15T04:14:47.000Z</time>
      </trkpt>
      <trkpt lat="42.47642" lon="2.6615">
        <ele>253</ele>
        <time>2023-07-15T04:14:53.000Z</time>
      </trkpt>
      <trkpt lat="42.47641" lon="2.66153">
        <ele>252.80000305176</ele>
        <time>2023-07-15T04:14:54.000Z</time>
      </trkpt>
      <trkpt lat="42.47636" lon="2.66168">
        <ele>251.80000305176</ele>
        <time>2023-07-15T04:15:01.000Z</time>
      </trkpt>
      <trkpt lat="42.47636" lon="2.66169">
        <ele>251.80000305176</ele>
        <time>2023-07-15T04:15:02.000Z</time>
      </trkpt>
      <trkpt lat="42.47633" lon="2.66171">
        <ele>251.60000610352</ele>
        <time>2023-07-15T04:15:07.000Z</time>
      </trkpt>
      <trkpt lat="42.47632" lon="2.66172">
        <ele>251.60000610352</ele>
        <time>2023-07-15T04:15:08.000Z</time>
      </trkpt>
      <trkpt lat="42.47631" lon="2.66173">
        <ele>251.19999694824</ele>
        <time>2023-07-15T04:15:14.000Z</time>
      </trkpt>
      <trkpt lat="42.47631" lon="2.66171">
        <ele>251.19999694824</ele>
        <time>2023-07-15T04:15:25.000Z</time>
      </trkpt>
      <trkpt lat="42.47631" lon="2.66171">
        <ele>251.19999694824</ele>
        <time>2023-07-15T04:15:34.000Z</time>
      </trkpt>
      <trkpt lat="42.47632" lon="2.66171">
        <ele>251.19999694824</ele>
        <time>2023-07-15T04:15:45.000Z</time>
      </trkpt>
      <trkpt lat="42.47631" lon="2.66172">
        <ele>251.19999694824</ele>
        <time>2023-07-15T04:15:55.000Z</time>
      </trkpt>
      <trkpt lat="42.47629" lon="2.66172">
        <ele>251.19999694824</ele>
        <time>2023-07-15T04:16:06.000Z</time>
      </trkpt>
      <trkpt lat="42.47629" lon="2.66172">
        <ele>251</ele>
        <time>2023-07-15T04:16:19.000Z</time>
      </trkpt>
      <trkpt lat="42.47625" lon="2.66167">
        <ele>251</ele>
        <time>2023-07-15T04:16:31.000Z</time>
      </trkpt>
      <trkpt lat="42.47621" lon="2.66165">
        <ele>251</ele>
        <time>2023-07-15T04:16:42.000Z</time>
      </trkpt>
      <trkpt lat="42.47627" lon="2.66166">
        <ele>251</ele>
        <time>2023-07-15T04:16:50.000Z</time>
      </trkpt>
      <trkpt lat="42.47632" lon="2.66174">
        <ele>251</ele>
        <time>2023-07-15T04:17:02.000Z</time>
      </trkpt>
      <trkpt lat="42.4763" lon="2.66172">
        <ele>251</ele>
        <time>2023-07-15T04:17:10.000Z</time>
      </trkpt>
      <trkpt lat="42.4763" lon="2.66171">
        <ele>250.80000305176</ele>
        <time>2023-07-15T04:17:19.000Z</time>
      </trkpt>
      <trkpt lat="42.47629" lon="2.66171">
        <ele>250.80000305176</ele>
        <time>2023-07-15T04:17:20.000Z</time>
      </trkpt>
      <trkpt lat="42.47624" lon="2.66173">
        <ele>250.39999389648</ele>
        <time>2023-07-15T04:17:26.000Z</time>
      </trkpt>
      <trkpt lat="42.47616" lon="2.66183">
        <ele>249.80000305176</ele>
        <time>2023-07-15T04:17:33.000Z</time>
      </trkpt>
      <trkpt lat="42.47613" lon="2.66189">
        <ele>249.19999694824</ele>
        <time>2023-07-15T04:17:40.000Z</time>
      </trkpt>
      <trkpt lat="42.4761" lon="2.66189">
        <ele>248.80000305176</ele>
        <time>2023-07-15T04:17:44.000Z</time>
      </trkpt>
      <trkpt lat="42.47608" lon="2.66189">
        <ele>248.60000610352</ele>
        <time>2023-07-15T04:17:48.000Z</time>
      </trkpt>
      <trkpt lat="42.47609" lon="2.66189">
        <ele>248.60000610352</ele>
        <time>2023-07-15T04:17:54.000Z</time>
      </trkpt>
      <trkpt lat="42.47613" lon="2.66187">
        <ele>248.60000610352</ele>
        <time>2023-07-15T04:18:01.000Z</time>
      </trkpt>
      <trkpt lat="42.47616" lon="2.66182">
        <ele>249</ele>
        <time>2023-07-15T04:18:07.000Z</time>
      </trkpt>
      <trkpt lat="42.47623" lon="2.66174">
        <ele>249.80000305176</ele>
        <time>2023-07-15T04:18:14.000Z</time>
      </trkpt>
      <trkpt lat="42.47628" lon="2.66169">
        <ele>250.19999694824</ele>
        <time>2023-07-15T04:18:20.000Z</time>
      </trkpt>
      <trkpt lat="42.47629" lon="2.66164">
        <ele>250.60000610352</ele>
        <time>2023-07-15T04:18:25.000Z</time>
      </trkpt>
      <trkpt lat="42.47628" lon="2.66159">
        <ele>250.39999389648</ele>
        <time>2023-07-15T04:18:33.000Z</time>
      </trkpt>
      <trkpt lat="42.47631" lon="2.66157">
        <ele>250.19999694824</ele>
        <time>2023-07-15T04:18:41.000Z</time>
      </trkpt>
      <trkpt lat="42.47637" lon="2.66147">
        <ele>249.19999694824</ele>
        <time>2023-07-15T04:18:51.000Z</time>
      </trkpt>
      <trkpt lat="42.47636" lon="2.66139">
        <ele>248.60000610352</ele>
        <time>2023-07-15T04:18:56.000Z</time>
      </trkpt>
      <trkpt lat="42.47637" lon="2.66131">
        <ele>248.60000610352</ele>
        <time>2023-07-15T04:19:02.000Z</time>
      </trkpt>
      <trkpt lat="42.47635" lon="2.66119">
        <ele>248.80000305176</ele>
        <time>2023-07-15T04:19:11.000Z</time>
      </trkpt>
      <trkpt lat="42.47635" lon="2.66117">
        <ele>248.80000305176</ele>
        <time>2023-07-15T04:19:15.000Z</time>
      </trkpt>
      <trkpt lat="42.47637" lon="2.66115">
        <ele>248.80000305176</ele>
        <time>2023-07-15T04:19:18.000Z</time>
      </trkpt>
      <trkpt lat="42.47641" lon="2.66107">
        <ele>249.19999694824</ele>
        <time>2023-07-15T04:19:25.000Z</time>
      </trkpt>
      <trkpt lat="42.47642" lon="2.66103">
        <ele>249.60000610352</ele>
        <time>2023-07-15T04:19:29.000Z</time>
      </trkpt>
      <trkpt lat="42.47645" lon="2.66096">
        <ele>250.39999389648</ele>
        <time>2023-07-15T04:19:34.000Z</time>
      </trkpt>
      <trkpt lat="42.47647" lon="2.66092">
        <ele>250.80000305176</ele>
        <time>2023-07-15T04:19:37.000Z</time>
      </trkpt>
      <trkpt lat="42.47648" lon="2.66085">
        <ele>251.39999389648</ele>
        <time>2023-07-15T04:19:42.000Z</time>
      </trkpt>
      <trkpt lat="42.47647" lon="2.66082">
        <ele>251.80000305176</ele>
        <time>2023-07-15T04:19:44.000Z</time>
      </trkpt>
      <trkpt lat="42.47647" lon="2.66074">
        <ele>252.80000305176</ele>
        <time>2023-07-15T04:19:51.000Z</time>
      </trkpt>
      <trkpt lat="42.47647" lon="2.66073">
        <ele>253</ele>
        <time>2023-07-15T04:19:52.000Z</time>
      </trkpt>
      <trkpt lat="42.4765" lon="2.66061">
        <ele>253.80000305176</ele>
        <time>2023-07-15T04:20:01.000Z</time>
      </trkpt>
      <trkpt lat="42.47651" lon="2.66055">
        <ele>254.39999389648</ele>
        <time>2023-07-15T04:20:07.000Z</time>
      </trkpt>
      <trkpt lat="42.47653" lon="2.6604">
        <ele>254.39999389648</ele>
        <time>2023-07-15T04:20:19.000Z</time>
      </trkpt>
      <trkpt lat="42.47653" lon="2.66036">
        <ele>255</ele>
        <time>2023-07-15T04:20:22.000Z</time>
      </trkpt>
      <trkpt lat="42.47653" lon="2.66032">
        <ele>256</ele>
        <time>2023-07-15T04:20:27.000Z</time>
      </trkpt>
      <trkpt lat="42.47653" lon="2.66026">
        <ele>257.20001220703</ele>
        <time>2023-07-15T04:20:32.000Z</time>
      </trkpt>
      <trkpt lat="42.47653" lon="2.66022">
        <ele>257.79998779297</ele>
        <time>2023-07-15T04:20:35.000Z</time>
      </trkpt>
      <trkpt lat="42.47652" lon="2.66018">
        <ele>258.39999389648</ele>
        <time>2023-07-15T04:20:37.000Z</time>
      </trkpt>
      <trkpt lat="42.47653" lon="2.66013">
        <ele>259.20001220703</ele>
        <time>2023-07-15T04:20:41.000Z</time>
      </trkpt>
      <trkpt lat="42.47653" lon="2.66012">
        <ele>259.39999389648</ele>
        <time>2023-07-15T04:20:42.000Z</time>
      </trkpt>
      <trkpt lat="42.47655" lon="2.66008">
        <ele>260.39999389648</ele>
        <time>2023-07-15T04:20:47.000Z</time>
      </trkpt>
      <trkpt lat="42.47655" lon="2.66008">
        <ele>260.79998779297</ele>
        <time>2023-07-15T04:20:49.000Z</time>
      </trkpt>
      <trkpt lat="42.47654" lon="2.66005">
        <ele>261.39999389648</ele>
        <time>2023-07-15T04:20:55.000Z</time>
      </trkpt>
      <trkpt lat="42.47654" lon="2.66004">
        <ele>261.39999389648</ele>
        <time>2023-07-15T04:20:56.000Z</time>
      </trkpt>
      <trkpt lat="42.47652" lon="2.65998">
        <ele>262.60000610352</ele>
        <time>2023-07-15T04:21:03.000Z</time>
      </trkpt>
      <trkpt lat="42.47653" lon="2.65994">
        <ele>263.60000610352</ele>
        <time>2023-07-15T04:21:09.000Z</time>
      </trkpt>
      <trkpt lat="42.47653" lon="2.65991">
        <ele>264</ele>
        <time>2023-07-15T04:21:12.000Z</time>
      </trkpt>
      <trkpt lat="42.47654" lon="2.65989">
        <ele>264.79998779297</ele>
        <time>2023-07-15T04:21:15.000Z</time>
      </trkpt>
      <trkpt lat="42.47656" lon="2.65987">
        <ele>265.39999389648</ele>
        <time>2023-07-15T04:21:18.000Z</time>
      </trkpt>
      <trkpt lat="42.47659" lon="2.65985">
        <ele>265.79998779297</ele>
        <time>2023-07-15T04:21:21.000Z</time>
      </trkpt>
      <trkpt lat="42.47638" lon="2.65995">
        <ele>269.60000610352</ele>
        <time>2023-07-15T04:22:21.000Z</time>
      </trkpt>
      <trkpt lat="42.47635" lon="2.66004">
        <ele>270.20001220703</ele>
        <time>2023-07-15T04:22:27.000Z</time>
      </trkpt>
      <trkpt lat="42.47634" lon="2.66005">
        <ele>270.20001220703</ele>
        <time>2023-07-15T04:22:28.000Z</time>
      </trkpt>
      <trkpt lat="42.47632" lon="2.66017">
        <ele>271.20001220703</ele>
        <time>2023-07-15T04:22:37.000Z</time>
      </trkpt>
      <trkpt lat="42.47631" lon="2.66022">
        <ele>272.20001220703</ele>
        <time>2023-07-15T04:22:45.000Z</time>
      </trkpt>
      <trkpt lat="42.47631" lon="2.66022">
        <ele>272.39999389648</ele>
        <time>2023-07-15T04:22:46.000Z</time>
      </trkpt>
      <trkpt lat="42.47632" lon="2.66025">
        <ele>272.39999389648</ele>
        <time>2023-07-15T04:22:55.000Z</time>
      </trkpt>
      <trkpt lat="42.4763" lon="2.66027">
        <ele>273.39999389648</ele>
        <time>2023-07-15T04:23:03.000Z</time>
      </trkpt>
      <trkpt lat="42.47627" lon="2.6603">
        <ele>273.60000610352</ele>
        <time>2023-07-15T04:23:11.000Z</time>
      </trkpt>
      <trkpt lat="42.47626" lon="2.66035">
        <ele>274.60000610352</ele>
        <time>2023-07-15T04:23:19.000Z</time>
      </trkpt>
      <trkpt lat="42.47621" lon="2.66036">
        <ele>275</ele>
        <time>2023-07-15T04:23:27.000Z</time>
      </trkpt>
      <trkpt lat="42.47617" lon="2.66037">
        <ele>275.20001220703</ele>
        <time>2023-07-15T04:23:37.000Z</time>
      </trkpt>
      <trkpt lat="42.47616" lon="2.66038">
        <ele>275.60000610352</ele>
        <time>2023-07-15T04:23:39.000Z</time>
      </trkpt>
      <trkpt lat="42.4761" lon="2.66042">
        <ele>276.39999389648</ele>
        <time>2023-07-15T04:23:47.000Z</time>
      </trkpt>
      <trkpt lat="42.47604" lon="2.66052">
        <ele>276.60000610352</ele>
        <time>2023-07-15T04:23:55.000Z</time>
      </trkpt>
      <trkpt lat="42.47599" lon="2.66069">
        <ele>276.60000610352</ele>
        <time>2023-07-15T04:24:04.000Z</time>
      </trkpt>
      <trkpt lat="42.47598" lon="2.66071">
        <ele>276.79998779297</ele>
        <time>2023-07-15T04:24:06.000Z</time>
      </trkpt>
      <trkpt lat="42.47594" lon="2.66074">
        <ele>277.20001220703</ele>
        <time>2023-07-15T04:24:12.000Z</time>
      </trkpt>
      <trkpt lat="42.47594" lon="2.66073">
        <ele>277.60000610352</ele>
        <time>2023-07-15T04:24:19.000Z</time>
      </trkpt>
      <trkpt lat="42.47592" lon="2.66074">
        <ele>277.60000610352</ele>
        <time>2023-07-15T04:24:25.000Z</time>
      </trkpt>
      <trkpt lat="42.47589" lon="2.66077">
        <ele>277.79998779297</ele>
        <time>2023-07-15T04:24:28.000Z</time>
      </trkpt>
      <trkpt lat="42.47588" lon="2.66078">
        <ele>278.39999389648</ele>
        <time>2023-07-15T04:24:32.000Z</time>
      </trkpt>
      <trkpt lat="42.47584" lon="2.66075">
        <ele>278.39999389648</ele>
        <time>2023-07-15T04:24:38.000Z</time>
      </trkpt>
      <trkpt lat="42.47581" lon="2.66074">
        <ele>278.79998779297</ele>
        <time>2023-07-15T04:24:41.000Z</time>
      </trkpt>
      <trkpt lat="42.47574" lon="2.66071">
        <ele>279.39999389648</ele>
        <time>2023-07-15T04:24:47.000Z</time>
      </trkpt>
      <trkpt lat="42.47568" lon="2.66067">
        <ele>279.79998779297</ele>
        <time>2023-07-15T04:24:53.000Z</time>
      </trkpt>
      <trkpt lat="42.47565" lon="2.66062">
        <ele>280.20001220703</ele>
        <time>2023-07-15T04:24:57.000Z</time>
      </trkpt>
      <trkpt lat="42.47559" lon="2.66049">
        <ele>280.60000610352</ele>
        <time>2023-07-15T04:25:05.000Z</time>
      </trkpt>
      <trkpt lat="42.47557" lon="2.66046">
        <ele>280.79998779297</ele>
        <time>2023-07-15T04:25:08.000Z</time>
      </trkpt>
      <trkpt lat="42.47554" lon="2.66039">
        <ele>281.39999389648</ele>
        <time>2023-07-15T04:25:13.000Z</time>
      </trkpt>
      <trkpt lat="42.47552" lon="2.66035">
        <ele>281.79998779297</ele>
        <time>2023-07-15T04:25:17.000Z</time>
      </trkpt>
      <trkpt lat="42.47551" lon="2.66034">
        <ele>282.39999389648</ele>
        <time>2023-07-15T04:25:21.000Z</time>
      </trkpt>
      <trkpt lat="42.4755" lon="2.6603">
        <ele>283</ele>
        <time>2023-07-15T04:25:24.000Z</time>
      </trkpt>
      <trkpt lat="42.47549" lon="2.66027">
        <ele>283.39999389648</ele>
        <time>2023-07-15T04:25:27.000Z</time>
      </trkpt>
      <trkpt lat="42.47546" lon="2.66023">
        <ele>284</ele>
        <time>2023-07-15T04:25:31.000Z</time>
      </trkpt>
      <trkpt lat="42.47542" lon="2.66017">
        <ele>284.79998779297</ele>
        <time>2023-07-15T04:25:36.000Z</time>
      </trkpt>
      <trkpt lat="42.47541" lon="2.66014">
        <ele>285.20001220703</ele>
        <time>2023-07-15T04:25:40.000Z</time>
      </trkpt>
      <trkpt lat="42.47539" lon="2.66011">
        <ele>285.39999389648</ele>
        <time>2023-07-15T04:25:42.000Z</time>
      </trkpt>
      <trkpt lat="42.47534" lon="2.66004">
        <ele>286.20001220703</ele>
        <time>2023-07-15T04:25:49.000Z</time>
      </trkpt>
      <trkpt lat="42.47532" lon="2.66002">
        <ele>286.39999389648</ele>
        <time>2023-07-15T04:25:52.000Z</time>
      </trkpt>
      <trkpt lat="42.47529" lon="2.65998">
        <ele>287.20001220703</ele>
        <time>2023-07-15T04:25:57.000Z</time>
      </trkpt>
      <trkpt lat="42.47527" lon="2.65993">
        <ele>287.60000610352</ele>
        <time>2023-07-15T04:26:00.000Z</time>
      </trkpt>
      <trkpt lat="42.47524" lon="2.65982">
        <ele>288.39999389648</ele>
        <time>2023-07-15T04:26:08.000Z</time>
      </trkpt>
      <trkpt lat="42.47522" lon="2.65978">
        <ele>288.60000610352</ele>
        <time>2023-07-15T04:26:11.000Z</time>
      </trkpt>
      <trkpt lat="42.47519" lon="2.65973">
        <ele>289.39999389648</ele>
        <time>2023-07-15T04:26:16.000Z</time>
      </trkpt>
      <trkpt lat="42.47517" lon="2.65967">
        <ele>290</ele>
        <time>2023-07-15T04:26:20.000Z</time>
      </trkpt>
      <trkpt lat="42.47516" lon="2.65963">
        <ele>290.39999389648</ele>
        <time>2023-07-15T04:26:24.000Z</time>
      </trkpt>
      <trkpt lat="42.47514" lon="2.65959">
        <ele>291</ele>
        <time>2023-07-15T04:26:29.000Z</time>
      </trkpt>
      <trkpt lat="42.47512" lon="2.65957">
        <ele>291.39999389648</ele>
        <time>2023-07-15T04:26:33.000Z</time>
      </trkpt>
      <trkpt lat="42.47508" lon="2.65951">
        <ele>291.79998779297</ele>
        <time>2023-07-15T04:26:37.000Z</time>
      </trkpt>
      <trkpt lat="42.47504" lon="2.65945">
        <ele>292.60000610352</ele>
        <time>2023-07-15T04:26:43.000Z</time>
      </trkpt>
      <trkpt lat="42.47502" lon="2.65941">
        <ele>293</ele>
        <time>2023-07-15T04:26:46.000Z</time>
      </trkpt>
      <trkpt lat="42.475" lon="2.65937">
        <ele>293.60000610352</ele>
        <time>2023-07-15T04:26:51.000Z</time>
      </trkpt>
      <trkpt lat="42.47498" lon="2.65934">
        <ele>294</ele>
        <time>2023-07-15T04:26:54.000Z</time>
      </trkpt>
      <trkpt lat="42.47496" lon="2.65932">
        <ele>294.60000610352</ele>
        <time>2023-07-15T04:26:58.000Z</time>
      </trkpt>
      <trkpt lat="42.47494" lon="2.65931">
        <ele>295.60000610352</ele>
        <time>2023-07-15T04:27:03.000Z</time>
      </trkpt>
      <trkpt lat="42.47489" lon="2.65925">
        <ele>296.60000610352</ele>
        <time>2023-07-15T04:27:09.000Z</time>
      </trkpt>
      <trkpt lat="42.47487" lon="2.65924">
        <ele>297.20001220703</ele>
        <time>2023-07-15T04:27:11.000Z</time>
      </trkpt>
      <trkpt lat="42.47483" lon="2.65922">
        <ele>297.79998779297</ele>
        <time>2023-07-15T04:27:15.000Z</time>
      </trkpt>
      <trkpt lat="42.47481" lon="2.65921">
        <ele>298</ele>
        <time>2023-07-15T04:27:17.000Z</time>
      </trkpt>
      <trkpt lat="42.47477" lon="2.65922">
        <ele>299</ele>
        <time>2023-07-15T04:27:22.000Z</time>
      </trkpt>
      <trkpt lat="42.47473" lon="2.65919">
        <ele>299.39999389648</ele>
        <time>2023-07-15T04:27:26.000Z</time>
      </trkpt>
      <trkpt lat="42.47471" lon="2.65918">
        <ele>299.79998779297</ele>
        <time>2023-07-15T04:27:33.000Z</time>
      </trkpt>
      <trkpt lat="42.47475" lon="2.65921">
        <ele>299.60000610352</ele>
        <time>2023-07-15T04:27:42.000Z</time>
      </trkpt>
      <trkpt lat="42.47475" lon="2.65921">
        <ele>299.39999389648</ele>
        <time>2023-07-15T04:27:47.000Z</time>
      </trkpt>
      <trkpt lat="42.47474" lon="2.65919">
        <ele>299.20001220703</ele>
        <time>2023-07-15T04:27:55.000Z</time>
      </trkpt>
      <trkpt lat="42.47471" lon="2.65916">
        <ele>299</ele>
        <time>2023-07-15T04:28:07.000Z</time>
      </trkpt>
      <trkpt lat="42.47471" lon="2.65919">
        <ele>299</ele>
        <time>2023-07-15T04:28:16.000Z</time>
      </trkpt>
      <trkpt lat="42.47474" lon="2.65921">
        <ele>298.79998779297</ele>
        <time>2023-07-15T04:28:28.000Z</time>
      </trkpt>
      <trkpt lat="42.47473" lon="2.6592">
        <ele>298.60000610352</ele>
        <time>2023-07-15T04:28:35.000Z</time>
      </trkpt>
      <trkpt lat="42.47472" lon="2.65915">
        <ele>298.60000610352</ele>
        <time>2023-07-15T04:28:41.000Z</time>
      </trkpt>
      <trkpt lat="42.47473" lon="2.65917">
        <ele>298.39999389648</ele>
        <time>2023-07-15T04:28:46.000Z</time>
      </trkpt>
      <trkpt lat="42.47476" lon="2.65924">
        <ele>298</ele>
        <time>2023-07-15T04:28:54.000Z</time>
      </trkpt>
      <trkpt lat="42.47478" lon="2.65925">
        <ele>297.79998779297</ele>
        <time>2023-07-15T04:28:56.000Z</time>
      </trkpt>
      <trkpt lat="42.47483" lon="2.65926">
        <ele>297</ele>
        <time>2023-07-15T04:29:01.000Z</time>
      </trkpt>
      <trkpt lat="42.47483" lon="2.65926">
        <ele>296.60000610352</ele>
        <time>2023-07-15T04:29:02.000Z</time>
      </trkpt>
      <trkpt lat="42.47489" lon="2.65929">
        <ele>295.39999389648</ele>
        <time>2023-07-15T04:29:08.000Z</time>
      </trkpt>
      <trkpt lat="42.47492" lon="2.65931">
        <ele>295</ele>
        <time>2023-07-15T04:29:10.000Z</time>
      </trkpt>
      <trkpt lat="42.47497" lon="2.65935">
        <ele>294.39999389648</ele>
        <time>2023-07-15T04:29:13.000Z</time>
      </trkpt>
      <trkpt lat="42.47499" lon="2.65935">
        <ele>293.39999389648</ele>
        <time>2023-07-15T04:29:17.000Z</time>
      </trkpt>
      <trkpt lat="42.475" lon="2.65935">
        <ele>293.20001220703</ele>
        <time>2023-07-15T04:29:18.000Z</time>
      </trkpt>
      <trkpt lat="42.47505" lon="2.6594">
        <ele>292.39999389648</ele>
        <time>2023-07-15T04:29:24.000Z</time>
      </trkpt>
      <trkpt lat="42.47506" lon="2.65941">
        <ele>292.20001220703</ele>
        <time>2023-07-15T04:29:25.000Z</time>
      </trkpt>
      <trkpt lat="42.47511" lon="2.65948">
        <ele>291.20001220703</ele>
        <time>2023-07-15T04:29:31.000Z</time>
      </trkpt>
      <trkpt lat="42.4751" lon="2.65949">
        <ele>290.79998779297</ele>
        <time>2023-07-15T04:29:33.000Z</time>
      </trkpt>
      <trkpt lat="42.47512" lon="2.65955">
        <ele>290</ele>
        <time>2023-07-15T04:29:39.000Z</time>
      </trkpt>
      <trkpt lat="42.47513" lon="2.6596">
        <ele>289.60000610352</ele>
        <time>2023-07-15T04:29:42.000Z</time>
      </trkpt>
      <trkpt lat="42.47515" lon="2.6597">
        <ele>289</ele>
        <time>2023-07-15T04:29:48.000Z</time>
      </trkpt>
      <trkpt lat="42.47516" lon="2.65971">
        <ele>288.79998779297</ele>
        <time>2023-07-15T04:29:49.000Z</time>
      </trkpt>
      <trkpt lat="42.47521" lon="2.65983">
        <ele>287.79998779297</ele>
        <time>2023-07-15T04:29:57.000Z</time>
      </trkpt>
      <trkpt lat="42.47527" lon="2.65992">
        <ele>286.79998779297</ele>
        <time>2023-07-15T04:30:07.000Z</time>
      </trkpt>
      <trkpt lat="42.47533" lon="2.65999">
        <ele>285.79998779297</ele>
        <time>2023-07-15T04:30:15.000Z</time>
      </trkpt>
      <trkpt lat="42.47534" lon="2.66">
        <ele>285.60000610352</ele>
        <time>2023-07-15T04:30:16.000Z</time>
      </trkpt>
      <trkpt lat="42.47539" lon="2.6601">
        <ele>284.60000610352</ele>
        <time>2023-07-15T04:30:25.000Z</time>
      </trkpt>
      <trkpt lat="42.47539" lon="2.6601">
        <ele>284.60000610352</ele>
        <time>2023-07-15T04:30:26.000Z</time>
      </trkpt>
      <trkpt lat="42.47539" lon="2.66017">
        <ele>283.60000610352</ele>
        <time>2023-07-15T04:30:34.000Z</time>
      </trkpt>
      <trkpt lat="42.47542" lon="2.66027">
        <ele>282.60000610352</ele>
        <time>2023-07-15T04:30:42.000Z</time>
      </trkpt>
      <trkpt lat="42.47544" lon="2.6603">
        <ele>282.39999389648</ele>
        <time>2023-07-15T04:30:44.000Z</time>
      </trkpt>
      <trkpt lat="42.47549" lon="2.66036">
        <ele>281.39999389648</ele>
        <time>2023-07-15T04:30:50.000Z</time>
      </trkpt>
      <trkpt lat="42.47553" lon="2.66038">
        <ele>280.20001220703</ele>
        <time>2023-07-15T04:30:56.000Z</time>
      </trkpt>
      <trkpt lat="42.47555" lon="2.66041">
        <ele>279.79998779297</ele>
        <time>2023-07-15T04:30:59.000Z</time>
      </trkpt>
      <trkpt lat="42.47559" lon="2.66048">
        <ele>279.20001220703</ele>
        <time>2023-07-15T04:31:04.000Z</time>
      </trkpt>
      <trkpt lat="42.4756" lon="2.66051">
        <ele>279</ele>
        <time>2023-07-15T04:31:06.000Z</time>
      </trkpt>
      <trkpt lat="42.47564" lon="2.66061">
        <ele>278.20001220703</ele>
        <time>2023-07-15T04:31:13.000Z</time>
      </trkpt>
      <trkpt lat="42.47565" lon="2.66062">
        <ele>278.20001220703</ele>
        <time>2023-07-15T04:31:14.000Z</time>
      </trkpt>
      <trkpt lat="42.47573" lon="2.66069">
        <ele>277.20001220703</ele>
        <time>2023-07-15T04:31:22.000Z</time>
      </trkpt>
      <trkpt lat="42.47576" lon="2.66071">
        <ele>277</ele>
        <time>2023-07-15T04:31:24.000Z</time>
      </trkpt>
      <trkpt lat="42.47586" lon="2.66075">
        <ele>276.20001220703</ele>
        <time>2023-07-15T04:31:31.000Z</time>
      </trkpt>
      <trkpt lat="42.47588" lon="2.66076">
        <ele>276</ele>
        <time>2023-07-15T04:31:33.000Z</time>
      </trkpt>
      <trkpt lat="42.47593" lon="2.66075">
        <ele>274.79998779297</ele>
        <time>2023-07-15T04:31:40.000Z</time>
      </trkpt>
      <trkpt lat="42.47593" lon="2.66073">
        <ele>274.60000610352</ele>
        <time>2023-07-15T04:31:41.000Z</time>
      </trkpt>
      <trkpt lat="42.47592" lon="2.6607">
        <ele>275.20001220703</ele>
        <time>2023-07-15T04:31:47.000Z</time>
      </trkpt>
      <trkpt lat="42.47593" lon="2.66068">
        <ele>275.79998779297</ele>
        <time>2023-07-15T04:31:51.000Z</time>
      </trkpt>
      <trkpt lat="42.47593" lon="2.66066">
        <ele>276</ele>
        <time>2023-07-15T04:31:54.000Z</time>
      </trkpt>
      <trkpt lat="42.47593" lon="2.66063">
        <ele>277</ele>
        <time>2023-07-15T04:32:01.000Z</time>
      </trkpt>
      <trkpt lat="42.47595" lon="2.66057">
        <ele>278</ele>
        <time>2023-07-15T04:32:08.000Z</time>
      </trkpt>
      <trkpt lat="42.47595" lon="2.66056">
        <ele>278.20001220703</ele>
        <time>2023-07-15T04:32:09.000Z</time>
      </trkpt>
      <trkpt lat="42.47596" lon="2.66053">
        <ele>279.20001220703</ele>
        <time>2023-07-15T04:32:15.000Z</time>
      </trkpt>
      <trkpt lat="42.47595" lon="2.66053">
        <ele>279.39999389648</ele>
        <time>2023-07-15T04:32:17.000Z</time>
      </trkpt>
      <trkpt lat="42.47593" lon="2.66054">
        <ele>280.20001220703</ele>
        <time>2023-07-15T04:32:24.000Z</time>
      </trkpt>
      <trkpt lat="42.47592" lon="2.66055">
        <ele>280.20001220703</ele>
        <time>2023-07-15T04:32:25.000Z</time>
      </trkpt>
      <trkpt lat="42.47591" lon="2.66057">
        <ele>280.39999389648</ele>
        <time>2023-07-15T04:32:32.000Z</time>
      </trkpt>
      <trkpt lat="42.47586" lon="2.66056">
        <ele>280</ele>
        <time>2023-07-15T04:32:40.000Z</time>
      </trkpt>
      <trkpt lat="42.4759" lon="2.66051">
        <ele>281</ele>
        <time>2023-07-15T04:32:47.000Z</time>
      </trkpt>
      <trkpt lat="42.47591" lon="2.66049">
        <ele>281.20001220703</ele>
        <time>2023-07-15T04:32:48.000Z</time>
      </trkpt>
      <trkpt lat="42.47592" lon="2.66045">
        <ele>282.39999389648</ele>
        <time>2023-07-15T04:32:54.000Z</time>
      </trkpt>
      <trkpt lat="42.47593" lon="2.66042">
        <ele>283</ele>
        <time>2023-07-15T04:32:57.000Z</time>
      </trkpt>
      <trkpt lat="42.47593" lon="2.6604">
        <ele>283.39999389648</ele>
        <time>2023-07-15T04:33:00.000Z</time>
      </trkpt>
      <trkpt lat="42.47595" lon="2.66035">
        <ele>284</ele>
        <time>2023-07-15T04:33:06.000Z</time>
      </trkpt>
      <trkpt lat="42.47595" lon="2.66033">
        <ele>284.39999389648</ele>
        <time>2023-07-15T04:33:09.000Z</time>
      </trkpt>
      <trkpt lat="42.47597" lon="2.6603">
        <ele>285.20001220703</ele>
        <time>2023-07-15T04:33:15.000Z</time>
      </trkpt>
      <trkpt lat="42.47597" lon="2.66027">
        <ele>285.60000610352</ele>
        <time>2023-07-15T04:33:18.000Z</time>
      </trkpt>
      <trkpt lat="42.47599" lon="2.66021">
        <ele>286.20001220703</ele>
        <time>2023-07-15T04:33:24.000Z</time>
      </trkpt>
      <trkpt lat="42.476" lon="2.66019">
        <ele>286.60000610352</ele>
        <time>2023-07-15T04:33:27.000Z</time>
      </trkpt>
      <trkpt lat="42.476" lon="2.66014">
        <ele>287.39999389648</ele>
        <time>2023-07-15T04:33:33.000Z</time>
      </trkpt>
      <trkpt lat="42.476" lon="2.66015">
        <ele>287.79998779297</ele>
        <time>2023-07-15T04:33:36.000Z</time>
      </trkpt>
      <trkpt lat="42.47599" lon="2.66018">
        <ele>288.20001220703</ele>
        <time>2023-07-15T04:33:40.000Z</time>
      </trkpt>
      <trkpt lat="42.47596" lon="2.6602">
        <ele>288.79998779297</ele>
        <time>2023-07-15T04:33:45.000Z</time>
      </trkpt>
      <trkpt lat="42.47592" lon="2.6602">
        <ele>289.20001220703</ele>
        <time>2023-07-15T04:33:48.000Z</time>
      </trkpt>
      <trkpt lat="42.47588" lon="2.66019">
        <ele>289.79998779297</ele>
        <time>2023-07-15T04:33:52.000Z</time>
      </trkpt>
      <trkpt lat="42.47587" lon="2.66017">
        <ele>290.39999389648</ele>
        <time>2023-07-15T04:33:56.000Z</time>
      </trkpt>
      <trkpt lat="42.47589" lon="2.66013">
        <ele>291</ele>
        <time>2023-07-15T04:34:00.000Z</time>
      </trkpt>
      <trkpt lat="42.47591" lon="2.6601">
        <ele>292</ele>
        <time>2023-07-15T04:34:05.000Z</time>
      </trkpt>
      <trkpt lat="42.47592" lon="2.66009">
        <ele>292</ele>
        <time>2023-07-15T04:34:06.000Z</time>
      </trkpt>
      <trkpt lat="42.47592" lon="2.66003">
        <ele>293</ele>
        <time>2023-07-15T04:34:12.000Z</time>
      </trkpt>
      <trkpt lat="42.47591" lon="2.66002">
        <ele>293.20001220703</ele>
        <time>2023-07-15T04:34:13.000Z</time>
      </trkpt>
      <trkpt lat="42.4759" lon="2.66004">
        <ele>293.79998779297</ele>
        <time>2023-07-15T04:34:19.000Z</time>
      </trkpt>
      <trkpt lat="42.47589" lon="2.66006">
        <ele>294.20001220703</ele>
        <time>2023-07-15T04:34:21.000Z</time>
      </trkpt>
      <trkpt lat="42.47585" lon="2.66011">
        <ele>294.79998779297</ele>
        <time>2023-07-15T04:34:27.000Z</time>
      </trkpt>
      <trkpt lat="42.47581" lon="2.66011">
        <ele>295.20001220703</ele>
        <time>2023-07-15T04:34:32.000Z</time>
      </trkpt>
      <trkpt lat="42.4758" lon="2.66009">
        <ele>295.39999389648</ele>
        <time>2023-07-15T04:34:34.000Z</time>
      </trkpt>
      <trkpt lat="42.4758" lon="2.66004">
        <ele>296.39999389648</ele>
        <time>2023-07-15T04:34:41.000Z</time>
      </trkpt>
      <trkpt lat="42.47581" lon="2.66002">
        <ele>296.79998779297</ele>
        <time>2023-07-15T04:34:43.000Z</time>
      </trkpt>
      <trkpt lat="42.47583" lon="2.66">
        <ele>297.39999389648</ele>
        <time>2023-07-15T04:34:47.000Z</time>
      </trkpt>
      <trkpt lat="42.47584" lon="2.65998">
        <ele>297.79998779297</ele>
        <time>2023-07-15T04:34:50.000Z</time>
      </trkpt>
      <trkpt lat="42.47586" lon="2.65991">
        <ele>298.60000610352</ele>
        <time>2023-07-15T04:34:56.000Z</time>
      </trkpt>
      <trkpt lat="42.47586" lon="2.65988">
        <ele>299.39999389648</ele>
        <time>2023-07-15T04:35:01.000Z</time>
      </trkpt>
      <trkpt lat="42.47586" lon="2.65987">
        <ele>299.79998779297</ele>
        <time>2023-07-15T04:35:03.000Z</time>
      </trkpt>
      <trkpt lat="42.47585" lon="2.65985">
        <ele>301</ele>
        <time>2023-07-15T04:35:09.000Z</time>
      </trkpt>
      <trkpt lat="42.47586" lon="2.65985">
        <ele>301.20001220703</ele>
        <time>2023-07-15T04:35:10.000Z</time>
      </trkpt>
      <trkpt lat="42.47586" lon="2.65981">
        <ele>302</ele>
        <time>2023-07-15T04:35:16.000Z</time>
      </trkpt>
      <trkpt lat="42.47586" lon="2.65978">
        <ele>302.39999389648</ele>
        <time>2023-07-15T04:35:20.000Z</time>
      </trkpt>
      <trkpt lat="42.47586" lon="2.6597">
        <ele>303</ele>
        <time>2023-07-15T04:35:25.000Z</time>
      </trkpt>
      <trkpt lat="42.47586" lon="2.65967">
        <ele>303.39999389648</ele>
        <time>2023-07-15T04:35:27.000Z</time>
      </trkpt>
      <trkpt lat="42.47585" lon="2.65965">
        <ele>304.20001220703</ele>
        <time>2023-07-15T04:35:31.000Z</time>
      </trkpt>
      <trkpt lat="42.47585" lon="2.65964">
        <ele>304.79998779297</ele>
        <time>2023-07-15T04:35:35.000Z</time>
      </trkpt>
      <trkpt lat="42.47586" lon="2.65962">
        <ele>305.20001220703</ele>
        <time>2023-07-15T04:35:38.000Z</time>
      </trkpt>
      <trkpt lat="42.47587" lon="2.65961">
        <ele>306</ele>
        <time>2023-07-15T04:35:42.000Z</time>
      </trkpt>
      <trkpt lat="42.47587" lon="2.6596">
        <ele>306.20001220703</ele>
        <time>2023-07-15T04:35:44.000Z</time>
      </trkpt>
      <trkpt lat="42.47589" lon="2.65955">
        <ele>307.39999389648</ele>
        <time>2023-07-15T04:35:51.000Z</time>
      </trkpt>
      <trkpt lat="42.4759" lon="2.65948">
        <ele>308.39999389648</ele>
        <time>2023-07-15T04:35:58.000Z</time>
      </trkpt>
      <trkpt lat="42.4759" lon="2.65947">
        <ele>308.39999389648</ele>
        <time>2023-07-15T04:35:59.000Z</time>
      </trkpt>
      <trkpt lat="42.47591" lon="2.6594">
        <ele>309.39999389648</ele>
        <time>2023-07-15T04:36:07.000Z</time>
      </trkpt>
      <trkpt lat="42.47591" lon="2.65934">
        <ele>310.60000610352</ele>
        <time>2023-07-15T04:36:14.000Z</time>
      </trkpt>
      <trkpt lat="42.47592" lon="2.65933">
        <ele>310.79998779297</ele>
        <time>2023-07-15T04:36:15.000Z</time>
      </trkpt>
      <trkpt lat="42.47593" lon="2.65928">
        <ele>311.60000610352</ele>
        <time>2023-07-15T04:36:22.000Z</time>
      </trkpt>
      <trkpt lat="42.47593" lon="2.65927">
        <ele>311.79998779297</ele>
        <time>2023-07-15T04:36:24.000Z</time>
      </trkpt>
      <trkpt lat="42.47597" lon="2.65923">
        <ele>312.79998779297</ele>
        <time>2023-07-15T04:36:31.000Z</time>
      </trkpt>
      <trkpt lat="42.47599" lon="2.65918">
        <ele>313.79998779297</ele>
        <time>2023-07-15T04:36:38.000Z</time>
      </trkpt>
      <trkpt lat="42.47602" lon="2.65908">
        <ele>315</ele>
        <time>2023-07-15T04:36:47.000Z</time>
      </trkpt>
      <trkpt lat="42.47603" lon="2.65902">
        <ele>316</ele>
        <time>2023-07-15T04:36:54.000Z</time>
      </trkpt>
      <trkpt lat="42.47605" lon="2.65893">
        <ele>317</ele>
        <time>2023-07-15T04:37:00.000Z</time>
      </trkpt>
      <trkpt lat="42.47605" lon="2.65892">
        <ele>317.39999389648</ele>
        <time>2023-07-15T04:37:02.000Z</time>
      </trkpt>
      <trkpt lat="42.47605" lon="2.65887">
        <ele>318.20001220703</ele>
        <time>2023-07-15T04:37:08.000Z</time>
      </trkpt>
      <trkpt lat="42.47605" lon="2.65886">
        <ele>318.20001220703</ele>
        <time>2023-07-15T04:37:09.000Z</time>
      </trkpt>
      <trkpt lat="42.47606" lon="2.65879">
        <ele>319.20001220703</ele>
        <time>2023-07-15T04:37:16.000Z</time>
      </trkpt>
      <trkpt lat="42.47605" lon="2.65874">
        <ele>320.39999389648</ele>
        <time>2023-07-15T04:37:23.000Z</time>
      </trkpt>
      <trkpt lat="42.47604" lon="2.65869">
        <ele>321.39999389648</ele>
        <time>2023-07-15T04:37:28.000Z</time>
      </trkpt>
      <trkpt lat="42.47605" lon="2.65868">
        <ele>321.79998779297</ele>
        <time>2023-07-15T04:37:30.000Z</time>
      </trkpt>
      <trkpt lat="42.47605" lon="2.65866">
        <ele>322.39999389648</ele>
        <time>2023-07-15T04:37:34.000Z</time>
      </trkpt>
      <trkpt lat="42.47606" lon="2.65863">
        <ele>323.39999389648</ele>
        <time>2023-07-15T04:37:38.000Z</time>
      </trkpt>
      <trkpt lat="42.47606" lon="2.65863">
        <ele>323.60000610352</ele>
        <time>2023-07-15T04:37:39.000Z</time>
      </trkpt>
      <trkpt lat="42.47605" lon="2.65857">
        <ele>324.60000610352</ele>
        <time>2023-07-15T04:37:45.000Z</time>
      </trkpt>
      <trkpt lat="42.47605" lon="2.65857">
        <ele>324.79998779297</ele>
        <time>2023-07-15T04:37:46.000Z</time>
      </trkpt>
      <trkpt lat="42.47604" lon="2.65854">
        <ele>325.60000610352</ele>
        <time>2023-07-15T04:37:52.000Z</time>
      </trkpt>
      <trkpt lat="42.47604" lon="2.65853">
        <ele>325.79998779297</ele>
        <time>2023-07-15T04:37:53.000Z</time>
      </trkpt>
      <trkpt lat="42.47604" lon="2.65846">
        <ele>326.79998779297</ele>
        <time>2023-07-15T04:38:00.000Z</time>
      </trkpt>
      <trkpt lat="42.47606" lon="2.65841">
        <ele>328</ele>
        <time>2023-07-15T04:38:07.000Z</time>
      </trkpt>
      <trkpt lat="42.47608" lon="2.65837">
        <ele>329.20001220703</ele>
        <time>2023-07-15T04:38:15.000Z</time>
      </trkpt>
      <trkpt lat="42.47609" lon="2.65835">
        <ele>329.60000610352</ele>
        <time>2023-07-15T04:38:17.000Z</time>
      </trkpt>
      <trkpt lat="42.47612" lon="2.65832">
        <ele>330.39999389648</ele>
        <time>2023-07-15T04:38:22.000Z</time>
      </trkpt>
      <trkpt lat="42.47612" lon="2.6583">
        <ele>330.60000610352</ele>
        <time>2023-07-15T04:38:24.000Z</time>
      </trkpt>
      <trkpt lat="42.47613" lon="2.65828">
        <ele>331.39999389648</ele>
        <time>2023-07-15T04:38:28.000Z</time>
      </trkpt>
      <trkpt lat="42.47614" lon="2.65824">
        <ele>332.20001220703</ele>
        <time>2023-07-15T04:38:33.000Z</time>
      </trkpt>
      <trkpt lat="42.47614" lon="2.65824">
        <ele>332.60000610352</ele>
        <time>2023-07-15T04:38:35.000Z</time>
      </trkpt>
      <trkpt lat="42.47617" lon="2.65822">
        <ele>333.39999389648</ele>
        <time>2023-07-15T04:38:40.000Z</time>
      </trkpt>
      <trkpt lat="42.47617" lon="2.65822">
        <ele>333.60000610352</ele>
        <time>2023-07-15T04:38:41.000Z</time>
      </trkpt>
      <trkpt lat="42.47621" lon="2.65823">
        <ele>334.60000610352</ele>
        <time>2023-07-15T04:38:48.000Z</time>
      </trkpt>
      <trkpt lat="42.47622" lon="2.65822">
        <ele>334.79998779297</ele>
        <time>2023-07-15T04:38:49.000Z</time>
      </trkpt>
      <trkpt lat="42.47624" lon="2.65819">
        <ele>335.79998779297</ele>
        <time>2023-07-15T04:38:54.000Z</time>
      </trkpt>
      <trkpt lat="42.47626" lon="2.65818">
        <ele>337</ele>
        <time>2023-07-15T04:39:01.000Z</time>
      </trkpt>
      <trkpt lat="42.47626" lon="2.65817">
        <ele>337</ele>
        <time>2023-07-15T04:39:02.000Z</time>
      </trkpt>
      <trkpt lat="42.47628" lon="2.65812">
        <ele>338</ele>
        <time>2023-07-15T04:39:08.000Z</time>
      </trkpt>
      <trkpt lat="42.47628" lon="2.65811">
        <ele>338.20001220703</ele>
        <time>2023-07-15T04:39:09.000Z</time>
      </trkpt>
      <trkpt lat="42.47632" lon="2.65803">
        <ele>339.20001220703</ele>
        <time>2023-07-15T04:39:15.000Z</time>
      </trkpt>
      <trkpt lat="42.47633" lon="2.65802">
        <ele>339.39999389648</ele>
        <time>2023-07-15T04:39:16.000Z</time>
      </trkpt>
      <trkpt lat="42.47634" lon="2.65801">
        <ele>340.20001220703</ele>
        <time>2023-07-15T04:39:21.000Z</time>
      </trkpt>
      <trkpt lat="42.47635" lon="2.658">
        <ele>340.60000610352</ele>
        <time>2023-07-15T04:39:24.000Z</time>
      </trkpt>
      <trkpt lat="42.47639" lon="2.65798">
        <ele>341.39999389648</ele>
        <time>2023-07-15T04:39:28.000Z</time>
      </trkpt>
      <trkpt lat="42.47641" lon="2.65796">
        <ele>341.79998779297</ele>
        <time>2023-07-15T04:39:32.000Z</time>
      </trkpt>
      <trkpt lat="42.47645" lon="2.65795">
        <ele>342.39999389648</ele>
        <time>2023-07-15T04:39:36.000Z</time>
      </trkpt>
      <trkpt lat="42.47646" lon="2.65795">
        <ele>342.79998779297</ele>
        <time>2023-07-15T04:39:40.000Z</time>
      </trkpt>
      <trkpt lat="42.47646" lon="2.65794">
        <ele>343.39999389648</ele>
        <time>2023-07-15T04:39:45.000Z</time>
      </trkpt>
      <trkpt lat="42.47648" lon="2.65792">
        <ele>344.20001220703</ele>
        <time>2023-07-15T04:39:49.000Z</time>
      </trkpt>
      <trkpt lat="42.47651" lon="2.6579">
        <ele>344.60000610352</ele>
        <time>2023-07-15T04:39:52.000Z</time>
      </trkpt>
      <trkpt lat="42.47655" lon="2.65788">
        <ele>345.20001220703</ele>
        <time>2023-07-15T04:39:57.000Z</time>
      </trkpt>
      <trkpt lat="42.47656" lon="2.65786">
        <ele>345.60000610352</ele>
        <time>2023-07-15T04:40:00.000Z</time>
      </trkpt>
      <trkpt lat="42.47657" lon="2.6578">
        <ele>346</ele>
        <time>2023-07-15T04:40:05.000Z</time>
      </trkpt>
      <trkpt lat="42.47657" lon="2.65773">
        <ele>346.60000610352</ele>
        <time>2023-07-15T04:40:11.000Z</time>
      </trkpt>
      <trkpt lat="42.47657" lon="2.65772">
        <ele>346.79998779297</ele>
        <time>2023-07-15T04:40:12.000Z</time>
      </trkpt>
      <trkpt lat="42.47657" lon="2.65766">
        <ele>347.79998779297</ele>
        <time>2023-07-15T04:40:19.000Z</time>
      </trkpt>
      <trkpt lat="42.47657" lon="2.65766">
        <ele>348</ele>
        <time>2023-07-15T04:40:21.000Z</time>
      </trkpt>
      <trkpt lat="42.47655" lon="2.65765">
        <ele>348.79998779297</ele>
        <time>2023-07-15T04:40:26.000Z</time>
      </trkpt>
      <trkpt lat="42.47654" lon="2.65763">
        <ele>349</ele>
        <time>2023-07-15T04:40:28.000Z</time>
      </trkpt>
      <trkpt lat="42.47653" lon="2.6576">
        <ele>349.79998779297</ele>
        <time>2023-07-15T04:40:34.000Z</time>
      </trkpt>
      <trkpt lat="42.47652" lon="2.65758">
        <ele>350.39999389648</ele>
        <time>2023-07-15T04:40:37.000Z</time>
      </trkpt>
      <trkpt lat="42.47653" lon="2.65758">
        <ele>351</ele>
        <time>2023-07-15T04:40:40.000Z</time>
      </trkpt>
      <trkpt lat="42.47651" lon="2.65754">
        <ele>351.39999389648</ele>
        <time>2023-07-15T04:40:43.000Z</time>
      </trkpt>
      <trkpt lat="42.4765" lon="2.6575">
        <ele>352</ele>
        <time>2023-07-15T04:40:46.000Z</time>
      </trkpt>
      <trkpt lat="42.47649" lon="2.65748">
        <ele>352.60000610352</ele>
        <time>2023-07-15T04:40:49.000Z</time>
      </trkpt>
      <trkpt lat="42.47649" lon="2.65746">
        <ele>353</ele>
        <time>2023-07-15T04:40:52.000Z</time>
      </trkpt>
      <trkpt lat="42.47649" lon="2.65742">
        <ele>353.79998779297</ele>
        <time>2023-07-15T04:40:56.000Z</time>
      </trkpt>
      <trkpt lat="42.47648" lon="2.6574">
        <ele>354.20001220703</ele>
        <time>2023-07-15T04:40:59.000Z</time>
      </trkpt>
      <trkpt lat="42.47648" lon="2.65734">
        <ele>354.79998779297</ele>
        <time>2023-07-15T04:41:05.000Z</time>
      </trkpt>
      <trkpt lat="42.47648" lon="2.65728">
        <ele>355.39999389648</ele>
        <time>2023-07-15T04:41:10.000Z</time>
      </trkpt>
      <trkpt lat="42.47649" lon="2.65726">
        <ele>355.60000610352</ele>
        <time>2023-07-15T04:41:12.000Z</time>
      </trkpt>
      <trkpt lat="42.47648" lon="2.65721">
        <ele>356.39999389648</ele>
        <time>2023-07-15T04:41:19.000Z</time>
      </trkpt>
      <trkpt lat="42.47648" lon="2.6572">
        <ele>356.60000610352</ele>
        <time>2023-07-15T04:41:20.000Z</time>
      </trkpt>
      <trkpt lat="42.47648" lon="2.65715">
        <ele>357.39999389648</ele>
        <time>2023-07-15T04:41:28.000Z</time>
      </trkpt>
      <trkpt lat="42.47646" lon="2.65707">
        <ele>358.39999389648</ele>
        <time>2023-07-15T04:41:36.000Z</time>
      </trkpt>
      <trkpt lat="42.47646" lon="2.65705">
        <ele>358.60000610352</ele>
        <time>2023-07-15T04:41:38.000Z</time>
      </trkpt>
      <trkpt lat="42.47645" lon="2.65695">
        <ele>359.39999389648</ele>
        <time>2023-07-15T04:41:45.000Z</time>
      </trkpt>
      <trkpt lat="42.47646" lon="2.65694">
        <ele>359.60000610352</ele>
        <time>2023-07-15T04:41:46.000Z</time>
      </trkpt>
      <trkpt lat="42.47647" lon="2.65692">
        <ele>360.20001220703</ele>
        <time>2023-07-15T04:41:52.000Z</time>
      </trkpt>
      <trkpt lat="42.47648" lon="2.6569">
        <ele>360.60000610352</ele>
        <time>2023-07-15T04:41:55.000Z</time>
      </trkpt>
      <trkpt lat="42.47648" lon="2.65682">
        <ele>361.39999389648</ele>
        <time>2023-07-15T04:42:01.000Z</time>
      </trkpt>
      <trkpt lat="42.47649" lon="2.65678">
        <ele>361.79998779297</ele>
        <time>2023-07-15T04:42:04.000Z</time>
      </trkpt>
      <trkpt lat="42.4765" lon="2.65672">
        <ele>362.79998779297</ele>
        <time>2023-07-15T04:42:11.000Z</time>
      </trkpt>
      <trkpt lat="42.4765" lon="2.65671">
        <ele>363</ele>
        <time>2023-07-15T04:42:12.000Z</time>
      </trkpt>
      <trkpt lat="42.4765" lon="2.65664">
        <ele>363.60000610352</ele>
        <time>2023-07-15T04:42:18.000Z</time>
      </trkpt>
      <trkpt lat="42.4765" lon="2.65662">
        <ele>364</ele>
        <time>2023-07-15T04:42:20.000Z</time>
      </trkpt>
      <trkpt lat="42.47649" lon="2.65653">
        <ele>365.20001220703</ele>
        <time>2023-07-15T04:42:27.000Z</time>
      </trkpt>
      <trkpt lat="42.47652" lon="2.65649">
        <ele>366.20001220703</ele>
        <time>2023-07-15T04:42:34.000Z</time>
      </trkpt>
      <trkpt lat="42.47653" lon="2.65642">
        <ele>367.20001220703</ele>
        <time>2023-07-15T04:42:42.000Z</time>
      </trkpt>
      <trkpt lat="42.47653" lon="2.65641">
        <ele>367.39999389648</ele>
        <time>2023-07-15T04:42:44.000Z</time>
      </trkpt>
      <trkpt lat="42.47654" lon="2.65638">
        <ele>368.39999389648</ele>
        <time>2023-07-15T04:42:49.000Z</time>
      </trkpt>
      <trkpt lat="42.47654" lon="2.65635">
        <ele>368.60000610352</ele>
        <time>2023-07-15T04:42:51.000Z</time>
      </trkpt>
      <trkpt lat="42.47654" lon="2.65629">
        <ele>369.60000610352</ele>
        <time>2023-07-15T04:42:58.000Z</time>
      </trkpt>
      <trkpt lat="42.47654" lon="2.65627">
        <ele>369.79998779297</ele>
        <time>2023-07-15T04:42:59.000Z</time>
      </trkpt>
      <trkpt lat="42.47653" lon="2.65623">
        <ele>370.60000610352</ele>
        <time>2023-07-15T04:43:05.000Z</time>
      </trkpt>
      <trkpt lat="42.47655" lon="2.65617">
        <ele>371.79998779297</ele>
        <time>2023-07-15T04:43:12.000Z</time>
      </trkpt>
      <trkpt lat="42.47656" lon="2.65614">
        <ele>373</ele>
        <time>2023-07-15T04:43:19.000Z</time>
      </trkpt>
      <trkpt lat="42.47656" lon="2.65614">
        <ele>373</ele>
        <time>2023-07-15T04:43:20.000Z</time>
      </trkpt>
      <trkpt lat="42.47656" lon="2.65611">
        <ele>374</ele>
        <time>2023-07-15T04:43:25.000Z</time>
      </trkpt>
      <trkpt lat="42.47656" lon="2.65608">
        <ele>374.39999389648</ele>
        <time>2023-07-15T04:43:28.000Z</time>
      </trkpt>
      <trkpt lat="42.47657" lon="2.65605">
        <ele>375</ele>
        <time>2023-07-15T04:43:32.000Z</time>
      </trkpt>
      <trkpt lat="42.47657" lon="2.65603">
        <ele>375.60000610352</ele>
        <time>2023-07-15T04:43:36.000Z</time>
      </trkpt>
      <trkpt lat="42.47658" lon="2.65602">
        <ele>376.20001220703</ele>
        <time>2023-07-15T04:43:40.000Z</time>
      </trkpt>
      <trkpt lat="42.47659" lon="2.65599">
        <ele>376.39999389648</ele>
        <time>2023-07-15T04:43:43.000Z</time>
      </trkpt>
      <trkpt lat="42.4766" lon="2.65596">
        <ele>377.20001220703</ele>
        <time>2023-07-15T04:43:48.000Z</time>
      </trkpt>
      <trkpt lat="42.4766" lon="2.65596">
        <ele>377.60000610352</ele>
        <time>2023-07-15T04:43:50.000Z</time>
      </trkpt>
      <trkpt lat="42.4766" lon="2.65593">
        <ele>378.20001220703</ele>
        <time>2023-07-15T04:43:54.000Z</time>
      </trkpt>
      <trkpt lat="42.47659" lon="2.6559">
        <ele>379.20001220703</ele>
        <time>2023-07-15T04:44:00.000Z</time>
      </trkpt>
      <trkpt lat="42.47659" lon="2.65589">
        <ele>379.39999389648</ele>
        <time>2023-07-15T04:44:01.000Z</time>
      </trkpt>
      <trkpt lat="42.47659" lon="2.65584">
        <ele>380.39999389648</ele>
        <time>2023-07-15T04:44:08.000Z</time>
      </trkpt>
      <trkpt lat="42.47659" lon="2.6558">
        <ele>381.39999389648</ele>
        <time>2023-07-15T04:44:14.000Z</time>
      </trkpt>
      <trkpt lat="42.47659" lon="2.6558">
        <ele>381.60000610352</ele>
        <time>2023-07-15T04:44:15.000Z</time>
      </trkpt>
      <trkpt lat="42.4766" lon="2.65574">
        <ele>382.60000610352</ele>
        <time>2023-07-15T04:44:21.000Z</time>
      </trkpt>
      <trkpt lat="42.4766" lon="2.65574">
        <ele>382.60000610352</ele>
        <time>2023-07-15T04:44:22.000Z</time>
      </trkpt>
      <trkpt lat="42.4766" lon="2.65571">
        <ele>383.20001220703</ele>
        <time>2023-07-15T04:44:27.000Z</time>
      </trkpt>
      <trkpt lat="42.4766" lon="2.65569">
        <ele>383.79998779297</ele>
        <time>2023-07-15T04:44:30.000Z</time>
      </trkpt>
      <trkpt lat="42.4766" lon="2.65564">
        <ele>384.60000610352</ele>
        <time>2023-07-15T04:44:35.000Z</time>
      </trkpt>
      <trkpt lat="42.47661" lon="2.65562">
        <ele>384.79998779297</ele>
        <time>2023-07-15T04:44:37.000Z</time>
      </trkpt>
      <trkpt lat="42.47662" lon="2.65558">
        <ele>385.39999389648</ele>
        <time>2023-07-15T04:44:42.000Z</time>
      </trkpt>
      <trkpt lat="42.47662" lon="2.65555">
        <ele>386</ele>
        <time>2023-07-15T04:44:47.000Z</time>
      </trkpt>
      <trkpt lat="42.47662" lon="2.65555">
        <ele>386.39999389648</ele>
        <time>2023-07-15T04:44:50.000Z</time>
      </trkpt>
      <trkpt lat="42.47663" lon="2.6555">
        <ele>387.20001220703</ele>
        <time>2023-07-15T04:44:56.000Z</time>
      </trkpt>
      <trkpt lat="42.47665" lon="2.65545">
        <ele>388</ele>
        <time>2023-07-15T04:45:03.000Z</time>
      </trkpt>
      <trkpt lat="42.47666" lon="2.65545">
        <ele>388.20001220703</ele>
        <time>2023-07-15T04:45:04.000Z</time>
      </trkpt>
      <trkpt lat="42.47668" lon="2.65545">
        <ele>389.39999389648</ele>
        <time>2023-07-15T04:45:11.000Z</time>
      </trkpt>
      <trkpt lat="42.47671" lon="2.65542">
        <ele>390.39999389648</ele>
        <time>2023-07-15T04:45:17.000Z</time>
      </trkpt>
      <trkpt lat="42.47672" lon="2.65542">
        <ele>390.79998779297</ele>
        <time>2023-07-15T04:45:19.000Z</time>
      </trkpt>
      <trkpt lat="42.47672" lon="2.65539">
        <ele>391.60000610352</ele>
        <time>2023-07-15T04:45:24.000Z</time>
      </trkpt>
      <trkpt lat="42.47673" lon="2.65538">
        <ele>391.79998779297</ele>
        <time>2023-07-15T04:45:26.000Z</time>
      </trkpt>
      <trkpt lat="42.47674" lon="2.65532">
        <ele>392.60000610352</ele>
        <time>2023-07-15T04:45:32.000Z</time>
      </trkpt>
      <trkpt lat="42.47675" lon="2.65531">
        <ele>393.20001220703</ele>
        <time>2023-07-15T04:45:35.000Z</time>
      </trkpt>
      <trkpt lat="42.47677" lon="2.6553">
        <ele>393.60000610352</ele>
        <time>2023-07-15T04:45:39.000Z</time>
      </trkpt>
      <trkpt lat="42.47677" lon="2.6553">
        <ele>394</ele>
        <time>2023-07-15T04:45:41.000Z</time>
      </trkpt>
      <trkpt lat="42.47679" lon="2.65527">
        <ele>394.60000610352</ele>
        <time>2023-07-15T04:45:46.000Z</time>
      </trkpt>
      <trkpt lat="42.47679" lon="2.65526">
        <ele>394.79998779297</ele>
        <time>2023-07-15T04:45:49.000Z</time>
      </trkpt>
      <trkpt lat="42.47679" lon="2.65526">
        <ele>394.79998779297</ele>
        <time>2023-07-15T04:45:58.000Z</time>
      </trkpt>
      <trkpt lat="42.47681" lon="2.65523">
        <ele>394.60000610352</ele>
        <time>2023-07-15T04:46:07.000Z</time>
      </trkpt>
      <trkpt lat="42.4768" lon="2.65522">
        <ele>395</ele>
        <time>2023-07-15T04:46:20.000Z</time>
      </trkpt>
      <trkpt lat="42.47681" lon="2.6552">
        <ele>395.79998779297</ele>
        <time>2023-07-15T04:46:25.000Z</time>
      </trkpt>
      <trkpt lat="42.47681" lon="2.65518">
        <ele>396.39999389648</ele>
        <time>2023-07-15T04:46:28.000Z</time>
      </trkpt>
      <trkpt lat="42.47681" lon="2.65518">
        <ele>396.79998779297</ele>
        <time>2023-07-15T04:46:31.000Z</time>
      </trkpt>
      <trkpt lat="42.47682" lon="2.65514">
        <ele>398</ele>
        <time>2023-07-15T04:46:36.000Z</time>
      </trkpt>
      <trkpt lat="42.47683" lon="2.65514">
        <ele>398.39999389648</ele>
        <time>2023-07-15T04:46:38.000Z</time>
      </trkpt>
      <trkpt lat="42.47684" lon="2.65512">
        <ele>399</ele>
        <time>2023-07-15T04:46:41.000Z</time>
      </trkpt>
      <trkpt lat="42.47686" lon="2.65508">
        <ele>399.79998779297</ele>
        <time>2023-07-15T04:46:47.000Z</time>
      </trkpt>
      <trkpt lat="42.47686" lon="2.65508">
        <ele>400.20001220703</ele>
        <time>2023-07-15T04:46:49.000Z</time>
      </trkpt>
      <trkpt lat="42.47689" lon="2.65505">
        <ele>401</ele>
        <time>2023-07-15T04:46:55.000Z</time>
      </trkpt>
      <trkpt lat="42.47689" lon="2.65504">
        <ele>401.20001220703</ele>
        <time>2023-07-15T04:46:56.000Z</time>
      </trkpt>
      <trkpt lat="42.47692" lon="2.65498">
        <ele>402.20001220703</ele>
        <time>2023-07-15T04:47:03.000Z</time>
      </trkpt>
      <trkpt lat="42.47693" lon="2.65497">
        <ele>403.39999389648</ele>
        <time>2023-07-15T04:47:09.000Z</time>
      </trkpt>
      <trkpt lat="42.47695" lon="2.65495">
        <ele>403.79998779297</ele>
        <time>2023-07-15T04:47:12.000Z</time>
      </trkpt>
      <trkpt lat="42.47697" lon="2.65491">
        <ele>404.60000610352</ele>
        <time>2023-07-15T04:47:16.000Z</time>
      </trkpt>
      <trkpt lat="42.47696" lon="2.65489">
        <ele>405</ele>
        <time>2023-07-15T04:47:20.000Z</time>
      </trkpt>
      <trkpt lat="42.47696" lon="2.65487">
        <ele>405.60000610352</ele>
        <time>2023-07-15T04:47:24.000Z</time>
      </trkpt>
      <trkpt lat="42.47697" lon="2.65486">
        <ele>405.79998779297</ele>
        <time>2023-07-15T04:47:26.000Z</time>
      </trkpt>
      <trkpt lat="42.47699" lon="2.65485">
        <ele>406.60000610352</ele>
        <time>2023-07-15T04:47:31.000Z</time>
      </trkpt>
      <trkpt lat="42.47699" lon="2.65485">
        <ele>406.79998779297</ele>
        <time>2023-07-15T04:47:32.000Z</time>
      </trkpt>
      <trkpt lat="42.47702" lon="2.65477">
        <ele>407.60000610352</ele>
        <time>2023-07-15T04:47:39.000Z</time>
      </trkpt>
      <trkpt lat="42.47703" lon="2.65477">
        <ele>407.79998779297</ele>
        <time>2023-07-15T04:47:40.000Z</time>
      </trkpt>
      <trkpt lat="42.47701" lon="2.65473">
        <ele>408.60000610352</ele>
        <time>2023-07-15T04:47:47.000Z</time>
      </trkpt>
      <trkpt lat="42.47701" lon="2.65474">
        <ele>408.79998779297</ele>
        <time>2023-07-15T04:47:48.000Z</time>
      </trkpt>
      <trkpt lat="42.47703" lon="2.65469">
        <ele>410</ele>
        <time>2023-07-15T04:47:55.000Z</time>
      </trkpt>
      <trkpt lat="42.47706" lon="2.65463">
        <ele>411.20001220703</ele>
        <time>2023-07-15T04:48:02.000Z</time>
      </trkpt>
      <trkpt lat="42.47706" lon="2.65462">
        <ele>411.39999389648</ele>
        <time>2023-07-15T04:48:04.000Z</time>
      </trkpt>
      <trkpt lat="42.47706" lon="2.65458">
        <ele>412.20001220703</ele>
        <time>2023-07-15T04:48:08.000Z</time>
      </trkpt>
      <trkpt lat="42.47706" lon="2.65454">
        <ele>413</ele>
        <time>2023-07-15T04:48:13.000Z</time>
      </trkpt>
      <trkpt lat="42.47706" lon="2.65453">
        <ele>413.20001220703</ele>
        <time>2023-07-15T04:48:15.000Z</time>
      </trkpt>
      <trkpt lat="42.4771" lon="2.65451">
        <ele>414.39999389648</ele>
        <time>2023-07-15T04:48:22.000Z</time>
      </trkpt>
      <trkpt lat="42.4771" lon="2.65451">
        <ele>414.60000610352</ele>
        <time>2023-07-15T04:48:23.000Z</time>
      </trkpt>
      <trkpt lat="42.47713" lon="2.65452">
        <ele>415.39999389648</ele>
        <time>2023-07-15T04:48:29.000Z</time>
      </trkpt>
      <trkpt lat="42.47714" lon="2.65451">
        <ele>416</ele>
        <time>2023-07-15T04:48:32.000Z</time>
      </trkpt>
      <trkpt lat="42.47717" lon="2.65451">
        <ele>416.60000610352</ele>
        <time>2023-07-15T04:48:37.000Z</time>
      </trkpt>
      <trkpt lat="42.47717" lon="2.65452">
        <ele>416.79998779297</ele>
        <time>2023-07-15T04:48:39.000Z</time>
      </trkpt>
      <trkpt lat="42.47721" lon="2.6545">
        <ele>417.79998779297</ele>
        <time>2023-07-15T04:48:46.000Z</time>
      </trkpt>
      <trkpt lat="42.47721" lon="2.65449">
        <ele>418</ele>
        <time>2023-07-15T04:48:48.000Z</time>
      </trkpt>
      <trkpt lat="42.47719" lon="2.65446">
        <ele>418.79998779297</ele>
        <time>2023-07-15T04:48:53.000Z</time>
      </trkpt>
      <trkpt lat="42.4772" lon="2.65443">
        <ele>419.20001220703</ele>
        <time>2023-07-15T04:48:56.000Z</time>
      </trkpt>
      <trkpt lat="42.47722" lon="2.65442">
        <ele>419.79998779297</ele>
        <time>2023-07-15T04:49:00.000Z</time>
      </trkpt>
      <trkpt lat="42.47722" lon="2.65441">
        <ele>420.20001220703</ele>
        <time>2023-07-15T04:49:03.000Z</time>
      </trkpt>
      <trkpt lat="42.47724" lon="2.6544">
        <ele>421</ele>
        <time>2023-07-15T04:49:08.000Z</time>
      </trkpt>
      <trkpt lat="42.47725" lon="2.65439">
        <ele>421.39999389648</ele>
        <time>2023-07-15T04:49:11.000Z</time>
      </trkpt>
      <trkpt lat="42.47725" lon="2.65436">
        <ele>422</ele>
        <time>2023-07-15T04:49:17.000Z</time>
      </trkpt>
      <trkpt lat="42.47724" lon="2.65435">
        <ele>422</ele>
        <time>2023-07-15T04:49:20.000Z</time>
      </trkpt>
      <trkpt lat="42.47724" lon="2.65438">
        <ele>422</ele>
        <time>2023-07-15T04:49:27.000Z</time>
      </trkpt>
      <trkpt lat="42.47728" lon="2.65443">
        <ele>422.20001220703</ele>
        <time>2023-07-15T04:49:36.000Z</time>
      </trkpt>
      <trkpt lat="42.47729" lon="2.65436">
        <ele>422.79998779297</ele>
        <time>2023-07-15T04:49:43.000Z</time>
      </trkpt>
      <trkpt lat="42.47729" lon="2.65434">
        <ele>423</ele>
        <time>2023-07-15T04:49:45.000Z</time>
      </trkpt>
      <trkpt lat="42.47726" lon="2.65431">
        <ele>423.60000610352</ele>
        <time>2023-07-15T04:49:51.000Z</time>
      </trkpt>
      <trkpt lat="42.47726" lon="2.65431">
        <ele>424</ele>
        <time>2023-07-15T04:49:54.000Z</time>
      </trkpt>
      <trkpt lat="42.47725" lon="2.65426">
        <ele>425</ele>
        <time>2023-07-15T04:50:00.000Z</time>
      </trkpt>
      <trkpt lat="42.47725" lon="2.65426">
        <ele>425.20001220703</ele>
        <time>2023-07-15T04:50:01.000Z</time>
      </trkpt>
      <trkpt lat="42.47723" lon="2.65422">
        <ele>426.39999389648</ele>
        <time>2023-07-15T04:50:07.000Z</time>
      </trkpt>
      <trkpt lat="42.47723" lon="2.65422">
        <ele>426.60000610352</ele>
        <time>2023-07-15T04:50:08.000Z</time>
      </trkpt>
      <trkpt lat="42.4772" lon="2.65416">
        <ele>427.60000610352</ele>
        <time>2023-07-15T04:50:15.000Z</time>
      </trkpt>
      <trkpt lat="42.4772" lon="2.65415">
        <ele>427.79998779297</ele>
        <time>2023-07-15T04:50:16.000Z</time>
      </trkpt>
      <trkpt lat="42.47717" lon="2.65412">
        <ele>428.60000610352</ele>
        <time>2023-07-15T04:50:21.000Z</time>
      </trkpt>
      <trkpt lat="42.47716" lon="2.65411">
        <ele>428.79998779297</ele>
        <time>2023-07-15T04:50:23.000Z</time>
      </trkpt>
      <trkpt lat="42.47714" lon="2.65413">
        <ele>429.79998779297</ele>
        <time>2023-07-15T04:50:28.000Z</time>
      </trkpt>
      <trkpt lat="42.47713" lon="2.65411">
        <ele>430</ele>
        <time>2023-07-15T04:50:31.000Z</time>
      </trkpt>
      <trkpt lat="42.47712" lon="2.65407">
        <ele>430.79998779297</ele>
        <time>2023-07-15T04:50:37.000Z</time>
      </trkpt>
      <trkpt lat="42.47713" lon="2.65404">
        <ele>431.39999389648</ele>
        <time>2023-07-15T04:50:41.000Z</time>
      </trkpt>
      <trkpt lat="42.47713" lon="2.65402">
        <ele>431.79998779297</ele>
        <time>2023-07-15T04:50:44.000Z</time>
      </trkpt>
      <trkpt lat="42.47713" lon="2.65399">
        <ele>432.39999389648</ele>
        <time>2023-07-15T04:50:48.000Z</time>
      </trkpt>
      <trkpt lat="42.47713" lon="2.65398">
        <ele>433</ele>
        <time>2023-07-15T04:50:51.000Z</time>
      </trkpt>
      <trkpt lat="42.47713" lon="2.65398">
        <ele>433.79998779297</ele>
        <time>2023-07-15T04:50:56.000Z</time>
      </trkpt>
      <trkpt lat="42.47713" lon="2.65397">
        <ele>434</ele>
        <time>2023-07-15T04:50:57.000Z</time>
      </trkpt>
      <trkpt lat="42.47711" lon="2.65391">
        <ele>435.20001220703</ele>
        <time>2023-07-15T04:51:03.000Z</time>
      </trkpt>
      <trkpt lat="42.47711" lon="2.65387">
        <ele>436.20001220703</ele>
        <time>2023-07-15T04:51:09.000Z</time>
      </trkpt>
      <trkpt lat="42.47711" lon="2.65388">
        <ele>436.20001220703</ele>
        <time>2023-07-15T04:51:10.000Z</time>
      </trkpt>
      <trkpt lat="42.47714" lon="2.65387">
        <ele>437.20001220703</ele>
        <time>2023-07-15T04:51:16.000Z</time>
      </trkpt>
      <trkpt lat="42.47715" lon="2.65386">
        <ele>438</ele>
        <time>2023-07-15T04:51:20.000Z</time>
      </trkpt>
      <trkpt lat="42.47715" lon="2.65385">
        <ele>438.39999389648</ele>
        <time>2023-07-15T04:51:22.000Z</time>
      </trkpt>
      <trkpt lat="42.47715" lon="2.65381">
        <ele>439.39999389648</ele>
        <time>2023-07-15T04:51:28.000Z</time>
      </trkpt>
      <trkpt lat="42.47714" lon="2.65378">
        <ele>440.20001220703</ele>
        <time>2023-07-15T04:51:34.000Z</time>
      </trkpt>
      <trkpt lat="42.47714" lon="2.65377">
        <ele>440.39999389648</ele>
        <time>2023-07-15T04:51:35.000Z</time>
      </trkpt>
      <trkpt lat="42.47713" lon="2.65372">
        <ele>441.39999389648</ele>
        <time>2023-07-15T04:51:43.000Z</time>
      </trkpt>
      <trkpt lat="42.4771" lon="2.65367">
        <ele>442.39999389648</ele>
        <time>2023-07-15T04:51:50.000Z</time>
      </trkpt>
      <trkpt lat="42.4771" lon="2.65366">
        <ele>442.60000610352</ele>
        <time>2023-07-15T04:51:51.000Z</time>
      </trkpt>
      <trkpt lat="42.4771" lon="2.65361">
        <ele>443.39999389648</ele>
        <time>2023-07-15T04:51:57.000Z</time>
      </trkpt>
      <trkpt lat="42.4771" lon="2.65359">
        <ele>443.60000610352</ele>
        <time>2023-07-15T04:51:59.000Z</time>
      </trkpt>
      <trkpt lat="42.47713" lon="2.65356">
        <ele>444.79998779297</ele>
        <time>2023-07-15T04:52:05.000Z</time>
      </trkpt>
      <trkpt lat="42.47714" lon="2.65355">
        <ele>444.79998779297</ele>
        <time>2023-07-15T04:52:06.000Z</time>
      </trkpt>
      <trkpt lat="42.47718" lon="2.65357">
        <ele>445.79998779297</ele>
        <time>2023-07-15T04:52:12.000Z</time>
      </trkpt>
      <trkpt lat="42.47723" lon="2.65362">
        <ele>446.79998779297</ele>
        <time>2023-07-15T04:52:19.000Z</time>
      </trkpt>
      <trkpt lat="42.47723" lon="2.65362">
        <ele>446.79998779297</ele>
        <time>2023-07-15T04:52:20.000Z</time>
      </trkpt>
      <trkpt lat="42.47729" lon="2.65356">
        <ele>448.79998779297</ele>
        <time>2023-07-15T04:52:35.000Z</time>
      </trkpt>
      <trkpt lat="42.4773" lon="2.65355">
        <ele>449</ele>
        <time>2023-07-15T04:52:37.000Z</time>
      </trkpt>
      <trkpt lat="42.47732" lon="2.65355">
        <ele>450</ele>
        <time>2023-07-15T04:52:44.000Z</time>
      </trkpt>
      <trkpt lat="42.47732" lon="2.65355">
        <ele>450.20001220703</ele>
        <time>2023-07-15T04:52:45.000Z</time>
      </trkpt>
      <trkpt lat="42.47735" lon="2.65352">
        <ele>451</ele>
        <time>2023-07-15T04:52:52.000Z</time>
      </trkpt>
      <trkpt lat="42.47739" lon="2.65347">
        <ele>452</ele>
        <time>2023-07-15T04:53:01.000Z</time>
      </trkpt>
      <trkpt lat="42.47741" lon="2.65345">
        <ele>452.39999389648</ele>
        <time>2023-07-15T04:53:03.000Z</time>
      </trkpt>
      <trkpt lat="42.47745" lon="2.6534">
        <ele>453.39999389648</ele>
        <time>2023-07-15T04:53:11.000Z</time>
      </trkpt>
      <trkpt lat="42.47748" lon="2.65337">
        <ele>454.39999389648</ele>
        <time>2023-07-15T04:53:17.000Z</time>
      </trkpt>
      <trkpt lat="42.47749" lon="2.65337">
        <ele>454.60000610352</ele>
        <time>2023-07-15T04:53:18.000Z</time>
      </trkpt>
      <trkpt lat="42.47752" lon="2.65333">
        <ele>455.60000610352</ele>
        <time>2023-07-15T04:53:24.000Z</time>
      </trkpt>
      <trkpt lat="42.47752" lon="2.65333">
        <ele>455.79998779297</ele>
        <time>2023-07-15T04:53:25.000Z</time>
      </trkpt>
      <trkpt lat="42.47754" lon="2.65331">
        <ele>456.60000610352</ele>
        <time>2023-07-15T04:53:31.000Z</time>
      </trkpt>
      <trkpt lat="42.47754" lon="2.6533">
        <ele>457</ele>
        <time>2023-07-15T04:53:33.000Z</time>
      </trkpt>
      <trkpt lat="42.47753" lon="2.65328">
        <ele>457.79998779297</ele>
        <time>2023-07-15T04:53:37.000Z</time>
      </trkpt>
      <trkpt lat="42.47752" lon="2.65328">
        <ele>458.20001220703</ele>
        <time>2023-07-15T04:53:40.000Z</time>
      </trkpt>
      <trkpt lat="42.4775" lon="2.65323">
        <ele>459.79998779297</ele>
        <time>2023-07-15T04:53:48.000Z</time>
      </trkpt>
      <trkpt lat="42.4775" lon="2.65322">
        <ele>459.79998779297</ele>
        <time>2023-07-15T04:53:49.000Z</time>
      </trkpt>
      <trkpt lat="42.47747" lon="2.65324">
        <ele>461</ele>
        <time>2023-07-15T04:53:58.000Z</time>
      </trkpt>
      <trkpt lat="42.47742" lon="2.65323">
        <ele>461.60000610352</ele>
        <time>2023-07-15T04:54:05.000Z</time>
      </trkpt>
      <trkpt lat="42.47739" lon="2.6532">
        <ele>462</ele>
        <time>2023-07-15T04:54:11.000Z</time>
      </trkpt>
      <trkpt lat="42.47738" lon="2.65319">
        <ele>462.20001220703</ele>
        <time>2023-07-15T04:54:13.000Z</time>
      </trkpt>
      <trkpt lat="42.47735" lon="2.65315">
        <ele>463.20001220703</ele>
        <time>2023-07-15T04:54:19.000Z</time>
      </trkpt>
      <trkpt lat="42.47732" lon="2.65312">
        <ele>463.60000610352</ele>
        <time>2023-07-15T04:54:22.000Z</time>
      </trkpt>
      <trkpt lat="42.47731" lon="2.65309">
        <ele>464.20001220703</ele>
        <time>2023-07-15T04:54:26.000Z</time>
      </trkpt>
      <trkpt lat="42.4773" lon="2.65307">
        <ele>464.60000610352</ele>
        <time>2023-07-15T04:54:30.000Z</time>
      </trkpt>
      <trkpt lat="42.4773" lon="2.65303">
        <ele>465.20001220703</ele>
        <time>2023-07-15T04:54:34.000Z</time>
      </trkpt>
      <trkpt lat="42.4773" lon="2.65301">
        <ele>465.79998779297</ele>
        <time>2023-07-15T04:54:38.000Z</time>
      </trkpt>
      <trkpt lat="42.47729" lon="2.65299">
        <ele>466.39999389648</ele>
        <time>2023-07-15T04:54:42.000Z</time>
      </trkpt>
      <trkpt lat="42.47728" lon="2.65298">
        <ele>466.79998779297</ele>
        <time>2023-07-15T04:54:46.000Z</time>
      </trkpt>
      <trkpt lat="42.47727" lon="2.65294">
        <ele>467.60000610352</ele>
        <time>2023-07-15T04:54:49.000Z</time>
      </trkpt>
      <trkpt lat="42.47726" lon="2.6529">
        <ele>468.39999389648</ele>
        <time>2023-07-15T04:54:53.000Z</time>
      </trkpt>
      <trkpt lat="42.47726" lon="2.65288">
        <ele>468.60000610352</ele>
        <time>2023-07-15T04:54:55.000Z</time>
      </trkpt>
      <trkpt lat="42.47726" lon="2.65283">
        <ele>469.60000610352</ele>
        <time>2023-07-15T04:55:02.000Z</time>
      </trkpt>
      <trkpt lat="42.47725" lon="2.65283">
        <ele>469.60000610352</ele>
        <time>2023-07-15T04:55:03.000Z</time>
      </trkpt>
      <trkpt lat="42.47724" lon="2.65278">
        <ele>470.39999389648</ele>
        <time>2023-07-15T04:55:09.000Z</time>
      </trkpt>
      <trkpt lat="42.47723" lon="2.65277">
        <ele>470.60000610352</ele>
        <time>2023-07-15T04:55:11.000Z</time>
      </trkpt>
      <trkpt lat="42.47722" lon="2.65274">
        <ele>471.39999389648</ele>
        <time>2023-07-15T04:55:17.000Z</time>
      </trkpt>
      <trkpt lat="42.47722" lon="2.65273">
        <ele>471.60000610352</ele>
        <time>2023-07-15T04:55:19.000Z</time>
      </trkpt>
      <trkpt lat="42.47721" lon="2.6527">
        <ele>472.20001220703</ele>
        <time>2023-07-15T04:55:23.000Z</time>
      </trkpt>
      <trkpt lat="42.4772" lon="2.65267">
        <ele>472.79998779297</ele>
        <time>2023-07-15T04:55:27.000Z</time>
      </trkpt>
      <trkpt lat="42.47719" lon="2.65262">
        <ele>473.39999389648</ele>
        <time>2023-07-15T04:55:32.000Z</time>
      </trkpt>
      <trkpt lat="42.47718" lon="2.6526">
        <ele>473.79998779297</ele>
        <time>2023-07-15T04:55:35.000Z</time>
      </trkpt>
      <trkpt lat="42.47716" lon="2.65257">
        <ele>474.39999389648</ele>
        <time>2023-07-15T04:55:39.000Z</time>
      </trkpt>
      <trkpt lat="42.47715" lon="2.65254">
        <ele>475</ele>
        <time>2023-07-15T04:55:43.000Z</time>
      </trkpt>
      <trkpt lat="42.47714" lon="2.65252">
        <ele>476</ele>
        <time>2023-07-15T04:55:49.000Z</time>
      </trkpt>
      <trkpt lat="42.47712" lon="2.65253">
        <ele>477</ele>
        <time>2023-07-15T04:55:55.000Z</time>
      </trkpt>
      <trkpt lat="42.47711" lon="2.65253">
        <ele>478</ele>
        <time>2023-07-15T04:55:59.000Z</time>
      </trkpt>
      <trkpt lat="42.4771" lon="2.65252">
        <ele>478.20001220703</ele>
        <time>2023-07-15T04:56:00.000Z</time>
      </trkpt>
      <trkpt lat="42.47709" lon="2.65248">
        <ele>479.20001220703</ele>
        <time>2023-07-15T04:56:07.000Z</time>
      </trkpt>
      <trkpt lat="42.4771" lon="2.65249">
        <ele>480</ele>
        <time>2023-07-15T04:56:15.000Z</time>
      </trkpt>
      <trkpt lat="42.47708" lon="2.65247">
        <ele>480</ele>
        <time>2023-07-15T04:56:22.000Z</time>
      </trkpt>
      <trkpt lat="42.47705" lon="2.65244">
        <ele>480.39999389648</ele>
        <time>2023-07-15T04:56:28.000Z</time>
      </trkpt>
      <trkpt lat="42.47704" lon="2.65244">
        <ele>480.60000610352</ele>
        <time>2023-07-15T04:56:30.000Z</time>
      </trkpt>
      <trkpt lat="42.47703" lon="2.65243">
        <ele>481.39999389648</ele>
        <time>2023-07-15T04:56:35.000Z</time>
      </trkpt>
      <trkpt lat="42.47703" lon="2.65243">
        <ele>481.60000610352</ele>
        <time>2023-07-15T04:56:36.000Z</time>
      </trkpt>
      <trkpt lat="42.47703" lon="2.65238">
        <ele>481.60000610352</ele>
        <time>2023-07-15T04:56:44.000Z</time>
      </trkpt>
      <trkpt lat="42.47703" lon="2.65242">
        <ele>481.60000610352</ele>
        <time>2023-07-15T04:56:55.000Z</time>
      </trkpt>
      <trkpt lat="42.47704" lon="2.65241">
        <ele>481.39999389648</ele>
        <time>2023-07-15T04:57:02.000Z</time>
      </trkpt>
      <trkpt lat="42.47702" lon="2.6524">
        <ele>482</ele>
        <time>2023-07-15T04:57:07.000Z</time>
      </trkpt>
      <trkpt lat="42.47701" lon="2.6524">
        <ele>482.60000610352</ele>
        <time>2023-07-15T04:57:09.000Z</time>
      </trkpt>
      <trkpt lat="42.477" lon="2.65237">
        <ele>483.60000610352</ele>
        <time>2023-07-15T04:57:14.000Z</time>
      </trkpt>
      <trkpt lat="42.477" lon="2.65236">
        <ele>483.60000610352</ele>
        <time>2023-07-15T04:57:15.000Z</time>
      </trkpt>
      <trkpt lat="42.47701" lon="2.65231">
        <ele>484.79998779297</ele>
        <time>2023-07-15T04:57:21.000Z</time>
      </trkpt>
      <trkpt lat="42.47701" lon="2.6523">
        <ele>485</ele>
        <time>2023-07-15T04:57:22.000Z</time>
      </trkpt>
      <trkpt lat="42.47701" lon="2.65225">
        <ele>486</ele>
        <time>2023-07-15T04:57:30.000Z</time>
      </trkpt>
      <trkpt lat="42.47701" lon="2.65224">
        <ele>486.20001220703</ele>
        <time>2023-07-15T04:57:31.000Z</time>
      </trkpt>
      <trkpt lat="42.47704" lon="2.6522">
        <ele>487</ele>
        <time>2023-07-15T04:57:39.000Z</time>
      </trkpt>
      <trkpt lat="42.47704" lon="2.65219">
        <ele>487</ele>
        <time>2023-07-15T04:57:40.000Z</time>
      </trkpt>
      <trkpt lat="42.47706" lon="2.65215">
        <ele>488</ele>
        <time>2023-07-15T04:57:46.000Z</time>
      </trkpt>
      <trkpt lat="42.47706" lon="2.65214">
        <ele>488.20001220703</ele>
        <time>2023-07-15T04:57:47.000Z</time>
      </trkpt>
      <trkpt lat="42.47705" lon="2.65209">
        <ele>489.20001220703</ele>
        <time>2023-07-15T04:57:55.000Z</time>
      </trkpt>
      <trkpt lat="42.47701" lon="2.65203">
        <ele>490.20001220703</ele>
        <time>2023-07-15T04:58:02.000Z</time>
      </trkpt>
      <trkpt lat="42.477" lon="2.652">
        <ele>490.79998779297</ele>
        <time>2023-07-15T04:58:09.000Z</time>
      </trkpt>
      <trkpt lat="42.47701" lon="2.65201">
        <ele>491</ele>
        <time>2023-07-15T04:58:18.000Z</time>
      </trkpt>
      <trkpt lat="42.47698" lon="2.65194">
        <ele>491.20001220703</ele>
        <time>2023-07-15T04:58:25.000Z</time>
      </trkpt>
      <trkpt lat="42.47698" lon="2.65192">
        <ele>491.39999389648</ele>
        <time>2023-07-15T04:58:27.000Z</time>
      </trkpt>
      <trkpt lat="42.47698" lon="2.65189">
        <ele>491.79998779297</ele>
        <time>2023-07-15T04:58:32.000Z</time>
      </trkpt>
      <trkpt lat="42.47699" lon="2.65187">
        <ele>492.39999389648</ele>
        <time>2023-07-15T04:58:35.000Z</time>
      </trkpt>
      <trkpt lat="42.47702" lon="2.65183">
        <ele>493.39999389648</ele>
        <time>2023-07-15T04:58:40.000Z</time>
      </trkpt>
      <trkpt lat="42.47703" lon="2.65177">
        <ele>494.39999389648</ele>
        <time>2023-07-15T04:58:47.000Z</time>
      </trkpt>
      <trkpt lat="42.47704" lon="2.65173">
        <ele>495.39999389648</ele>
        <time>2023-07-15T04:58:53.000Z</time>
      </trkpt>
      <trkpt lat="42.47704" lon="2.65172">
        <ele>495.60000610352</ele>
        <time>2023-07-15T04:58:55.000Z</time>
      </trkpt>
      <trkpt lat="42.47705" lon="2.65167">
        <ele>496.60000610352</ele>
        <time>2023-07-15T04:59:02.000Z</time>
      </trkpt>
      <trkpt lat="42.47706" lon="2.65166">
        <ele>496.79998779297</ele>
        <time>2023-07-15T04:59:04.000Z</time>
      </trkpt>
      <trkpt lat="42.47706" lon="2.65161">
        <ele>497.60000610352</ele>
        <time>2023-07-15T04:59:08.000Z</time>
      </trkpt>
      <trkpt lat="42.47706" lon="2.65161">
        <ele>497.79998779297</ele>
        <time>2023-07-15T04:59:09.000Z</time>
      </trkpt>
      <trkpt lat="42.47708" lon="2.65155">
        <ele>498.20001220703</ele>
        <time>2023-07-15T04:59:16.000Z</time>
      </trkpt>
      <trkpt lat="42.47706" lon="2.6515">
        <ele>499</ele>
        <time>2023-07-15T04:59:21.000Z</time>
      </trkpt>
      <trkpt lat="42.47706" lon="2.65148">
        <ele>499.20001220703</ele>
        <time>2023-07-15T04:59:23.000Z</time>
      </trkpt>
      <trkpt lat="42.47706" lon="2.65142">
        <ele>500</ele>
        <time>2023-07-15T04:59:30.000Z</time>
      </trkpt>
      <trkpt lat="42.47706" lon="2.6514">
        <ele>500.20001220703</ele>
        <time>2023-07-15T04:59:33.000Z</time>
      </trkpt>
      <trkpt lat="42.47706" lon="2.65129">
        <ele>500.79998779297</ele>
        <time>2023-07-15T04:59:41.000Z</time>
      </trkpt>
      <trkpt lat="42.47706" lon="2.65127">
        <ele>501</ele>
        <time>2023-07-15T04:59:44.000Z</time>
      </trkpt>
      <trkpt lat="42.47705" lon="2.65123">
        <ele>501.79998779297</ele>
        <time>2023-07-15T04:59:49.000Z</time>
      </trkpt>
      <trkpt lat="42.47704" lon="2.65122">
        <ele>502.20001220703</ele>
        <time>2023-07-15T04:59:51.000Z</time>
      </trkpt>
      <trkpt lat="42.47704" lon="2.65115">
        <ele>503.20001220703</ele>
        <time>2023-07-15T04:59:58.000Z</time>
      </trkpt>
      <trkpt lat="42.47706" lon="2.65108">
        <ele>504.39999389648</ele>
        <time>2023-07-15T05:00:06.000Z</time>
      </trkpt>
      <trkpt lat="42.47706" lon="2.65107">
        <ele>504.39999389648</ele>
        <time>2023-07-15T05:00:07.000Z</time>
      </trkpt>
      <trkpt lat="42.47706" lon="2.65104">
        <ele>505.39999389648</ele>
        <time>2023-07-15T05:00:12.000Z</time>
      </trkpt>
      <trkpt lat="42.47706" lon="2.65101">
        <ele>505.60000610352</ele>
        <time>2023-07-15T05:00:14.000Z</time>
      </trkpt>
      <trkpt lat="42.47706" lon="2.65096">
        <ele>506.39999389648</ele>
        <time>2023-07-15T05:00:20.000Z</time>
      </trkpt>
      <trkpt lat="42.47706" lon="2.65096">
        <ele>506.39999389648</ele>
        <time>2023-07-15T05:00:21.000Z</time>
      </trkpt>
      <trkpt lat="42.47707" lon="2.65089">
        <ele>507.39999389648</ele>
        <time>2023-07-15T05:00:29.000Z</time>
      </trkpt>
      <trkpt lat="42.47707" lon="2.65088">
        <ele>507.60000610352</ele>
        <time>2023-07-15T05:00:30.000Z</time>
      </trkpt>
      <trkpt lat="42.47709" lon="2.65082">
        <ele>508.20001220703</ele>
        <time>2023-07-15T05:00:35.000Z</time>
      </trkpt>
      <trkpt lat="42.47709" lon="2.65081">
        <ele>508.60000610352</ele>
        <time>2023-07-15T05:00:39.000Z</time>
      </trkpt>
      <trkpt lat="42.4771" lon="2.65079">
        <ele>509</ele>
        <time>2023-07-15T05:00:42.000Z</time>
      </trkpt>
      <trkpt lat="42.47712" lon="2.65076">
        <ele>509.79998779297</ele>
        <time>2023-07-15T05:00:47.000Z</time>
      </trkpt>
      <trkpt lat="42.47713" lon="2.65074">
        <ele>510</ele>
        <time>2023-07-15T05:00:49.000Z</time>
      </trkpt>
      <trkpt lat="42.47713" lon="2.65072">
        <ele>510.79998779297</ele>
        <time>2023-07-15T05:00:53.000Z</time>
      </trkpt>
      <trkpt lat="42.47713" lon="2.65071">
        <ele>511.20001220703</ele>
        <time>2023-07-15T05:00:56.000Z</time>
      </trkpt>
      <trkpt lat="42.47716" lon="2.65071">
        <ele>511.79998779297</ele>
        <time>2023-07-15T05:01:01.000Z</time>
      </trkpt>
      <trkpt lat="42.47718" lon="2.65069">
        <ele>512.20001220703</ele>
        <time>2023-07-15T05:01:04.000Z</time>
      </trkpt>
      <trkpt lat="42.47718" lon="2.65066">
        <ele>513</ele>
        <time>2023-07-15T05:01:09.000Z</time>
      </trkpt>
      <trkpt lat="42.47718" lon="2.65065">
        <ele>513.20001220703</ele>
        <time>2023-07-15T05:01:12.000Z</time>
      </trkpt>
      <trkpt lat="42.4772" lon="2.6506">
        <ele>513.59997558594</ele>
        <time>2023-07-15T05:01:19.000Z</time>
      </trkpt>
      <trkpt lat="42.4772" lon="2.65055">
        <ele>513.59997558594</ele>
        <time>2023-07-15T05:01:24.000Z</time>
      </trkpt>
      <trkpt lat="42.47721" lon="2.65051">
        <ele>514</ele>
        <time>2023-07-15T05:01:30.000Z</time>
      </trkpt>
      <trkpt lat="42.47722" lon="2.65051">
        <ele>514.20001220703</ele>
        <time>2023-07-15T05:01:32.000Z</time>
      </trkpt>
      <trkpt lat="42.47722" lon="2.65052">
        <ele>514.40002441406</ele>
        <time>2023-07-15T05:01:39.000Z</time>
      </trkpt>
      <trkpt lat="42.47722" lon="2.65054">
        <ele>514.40002441406</ele>
        <time>2023-07-15T05:01:49.000Z</time>
      </trkpt>
      <trkpt lat="42.47722" lon="2.65056">
        <ele>514.40002441406</ele>
        <time>2023-07-15T05:01:56.000Z</time>
      </trkpt>
      <trkpt lat="42.47724" lon="2.65051">
        <ele>514.40002441406</ele>
        <time>2023-07-15T05:02:01.000Z</time>
      </trkpt>
      <trkpt lat="42.4772" lon="2.65057">
        <ele>514.20001220703</ele>
        <time>2023-07-15T05:02:07.000Z</time>
      </trkpt>
      <trkpt lat="42.47714" lon="2.6506">
        <ele>513.59997558594</ele>
        <time>2023-07-15T05:02:14.000Z</time>
      </trkpt>
      <trkpt lat="42.47707" lon="2.6506">
        <ele>512.79998779297</ele>
        <time>2023-07-15T05:02:22.000Z</time>
      </trkpt>
      <trkpt lat="42.47706" lon="2.65062">
        <ele>511.79998779297</ele>
        <time>2023-07-15T05:02:30.000Z</time>
      </trkpt>
      <trkpt lat="42.47706" lon="2.65062">
        <ele>511.79998779297</ele>
        <time>2023-07-15T05:02:31.000Z</time>
      </trkpt>
      <trkpt lat="42.47706" lon="2.65063">
        <ele>511.60000610352</ele>
        <time>2023-07-15T05:02:41.000Z</time>
      </trkpt>
      <trkpt lat="42.47707" lon="2.65061">
        <ele>511.60000610352</ele>
        <time>2023-07-15T05:02:51.000Z</time>
      </trkpt>
      <trkpt lat="42.4771" lon="2.65058">
        <ele>512.20001220703</ele>
        <time>2023-07-15T05:02:58.000Z</time>
      </trkpt>
      <trkpt lat="42.47714" lon="2.65056">
        <ele>512.79998779297</ele>
        <time>2023-07-15T05:03:02.000Z</time>
      </trkpt>
      <trkpt lat="42.47716" lon="2.65055">
        <ele>513.20001220703</ele>
        <time>2023-07-15T05:03:05.000Z</time>
      </trkpt>
      <trkpt lat="42.47718" lon="2.65053">
        <ele>513.59997558594</ele>
        <time>2023-07-15T05:03:11.000Z</time>
      </trkpt>
      <trkpt lat="42.47719" lon="2.6505">
        <ele>513.79998779297</ele>
        <time>2023-07-15T05:03:17.000Z</time>
      </trkpt>
      <trkpt lat="42.47719" lon="2.6505">
        <ele>514</ele>
        <time>2023-07-15T05:03:18.000Z</time>
      </trkpt>
      <trkpt lat="42.4772" lon="2.65047">
        <ele>514.79998779297</ele>
        <time>2023-07-15T05:03:26.000Z</time>
      </trkpt>
      <trkpt lat="42.47719" lon="2.65041">
        <ele>514.79998779297</ele>
        <time>2023-07-15T05:03:36.000Z</time>
      </trkpt>
      <trkpt lat="42.47719" lon="2.65039">
        <ele>514.79998779297</ele>
        <time>2023-07-15T05:03:37.000Z</time>
      </trkpt>
      <trkpt lat="42.47722" lon="2.65032">
        <ele>515</ele>
        <time>2023-07-15T05:03:42.000Z</time>
      </trkpt>
      <trkpt lat="42.47725" lon="2.65028">
        <ele>515.40002441406</ele>
        <time>2023-07-15T05:03:48.000Z</time>
      </trkpt>
      <trkpt lat="42.47725" lon="2.65026">
        <ele>515.79998779297</ele>
        <time>2023-07-15T05:03:52.000Z</time>
      </trkpt>
      <trkpt lat="42.47726" lon="2.65026">
        <ele>516.40002441406</ele>
        <time>2023-07-15T05:03:56.000Z</time>
      </trkpt>
      <trkpt lat="42.47727" lon="2.65023">
        <ele>516.79998779297</ele>
        <time>2023-07-15T05:04:02.000Z</time>
      </trkpt>
      <trkpt lat="42.47728" lon="2.6502">
        <ele>517</ele>
        <time>2023-07-15T05:04:04.000Z</time>
      </trkpt>
      <trkpt lat="42.47728" lon="2.65019">
        <ele>517.79998779297</ele>
        <time>2023-07-15T05:04:11.000Z</time>
      </trkpt>
      <trkpt lat="42.47726" lon="2.65017">
        <ele>517.79998779297</ele>
        <time>2023-07-15T05:04:22.000Z</time>
      </trkpt>
      <trkpt lat="42.47724" lon="2.65017">
        <ele>517.79998779297</ele>
        <time>2023-07-15T05:04:33.000Z</time>
      </trkpt>
      <trkpt lat="42.47725" lon="2.65018">
        <ele>517.79998779297</ele>
        <time>2023-07-15T05:04:40.000Z</time>
      </trkpt>
      <trkpt lat="42.47726" lon="2.65014">
        <ele>518</ele>
        <time>2023-07-15T05:04:46.000Z</time>
      </trkpt>
      <trkpt lat="42.47726" lon="2.65007">
        <ele>519</ele>
        <time>2023-07-15T05:04:51.000Z</time>
      </trkpt>
      <trkpt lat="42.47726" lon="2.65003">
        <ele>519.40002441406</ele>
        <time>2023-07-15T05:04:54.000Z</time>
      </trkpt>
      <trkpt lat="42.47727" lon="2.64999">
        <ele>520</ele>
        <time>2023-07-15T05:04:58.000Z</time>
      </trkpt>
      <trkpt lat="42.47727" lon="2.64998">
        <ele>520.79998779297</ele>
        <time>2023-07-15T05:05:03.000Z</time>
      </trkpt>
      <trkpt lat="42.47728" lon="2.64996">
        <ele>521.20001220703</ele>
        <time>2023-07-15T05:05:05.000Z</time>
      </trkpt>
      <trkpt lat="42.47728" lon="2.64989">
        <ele>522.20001220703</ele>
        <time>2023-07-15T05:05:11.000Z</time>
      </trkpt>
      <trkpt lat="42.47728" lon="2.64988">
        <ele>522.20001220703</ele>
        <time>2023-07-15T05:05:12.000Z</time>
      </trkpt>
      <trkpt lat="42.47727" lon="2.64987">
        <ele>523.20001220703</ele>
        <time>2023-07-15T05:05:17.000Z</time>
      </trkpt>
      <trkpt lat="42.47727" lon="2.64986">
        <ele>523.40002441406</ele>
        <time>2023-07-15T05:05:18.000Z</time>
      </trkpt>
      <trkpt lat="42.47728" lon="2.64985">
        <ele>524.20001220703</ele>
        <time>2023-07-15T05:05:23.000Z</time>
      </trkpt>
      <trkpt lat="42.47729" lon="2.6498">
        <ele>524.20001220703</ele>
        <time>2023-07-15T05:05:31.000Z</time>
      </trkpt>
      <trkpt lat="42.47731" lon="2.64979">
        <ele>524.20001220703</ele>
        <time>2023-07-15T05:05:41.000Z</time>
      </trkpt>
      <trkpt lat="42.47732" lon="2.64978">
        <ele>524.59997558594</ele>
        <time>2023-07-15T05:05:43.000Z</time>
      </trkpt>
      <trkpt lat="42.47731" lon="2.64977">
        <ele>525.59997558594</ele>
        <time>2023-07-15T05:05:49.000Z</time>
      </trkpt>
      <trkpt lat="42.47732" lon="2.64971">
        <ele>526.59997558594</ele>
        <time>2023-07-15T05:05:55.000Z</time>
      </trkpt>
      <trkpt lat="42.47732" lon="2.64968">
        <ele>527</ele>
        <time>2023-07-15T05:05:57.000Z</time>
      </trkpt>
      <trkpt lat="42.47731" lon="2.64969">
        <ele>527.79998779297</ele>
        <time>2023-07-15T05:06:01.000Z</time>
      </trkpt>
      <trkpt lat="42.47729" lon="2.64968">
        <ele>528.40002441406</ele>
        <time>2023-07-15T05:06:04.000Z</time>
      </trkpt>
      <trkpt lat="42.47727" lon="2.64967">
        <ele>529</ele>
        <time>2023-07-15T05:06:07.000Z</time>
      </trkpt>
      <trkpt lat="42.47728" lon="2.64964">
        <ele>529.59997558594</ele>
        <time>2023-07-15T05:06:11.000Z</time>
      </trkpt>
      <trkpt lat="42.47728" lon="2.64962">
        <ele>530</ele>
        <time>2023-07-15T05:06:13.000Z</time>
      </trkpt>
      <trkpt lat="42.47729" lon="2.64958">
        <ele>530.79998779297</ele>
        <time>2023-07-15T05:06:18.000Z</time>
      </trkpt>
      <trkpt lat="42.4773" lon="2.64957">
        <ele>531</ele>
        <time>2023-07-15T05:06:19.000Z</time>
      </trkpt>
      <trkpt lat="42.4773" lon="2.64952">
        <ele>532.20001220703</ele>
        <time>2023-07-15T05:06:26.000Z</time>
      </trkpt>
      <trkpt lat="42.4773" lon="2.64946">
        <ele>533.20001220703</ele>
        <time>2023-07-15T05:06:34.000Z</time>
      </trkpt>
      <trkpt lat="42.47731" lon="2.64943">
        <ele>534.40002441406</ele>
        <time>2023-07-15T05:06:41.000Z</time>
      </trkpt>
      <trkpt lat="42.47734" lon="2.64939">
        <ele>535.40002441406</ele>
        <time>2023-07-15T05:06:49.000Z</time>
      </trkpt>
      <trkpt lat="42.47734" lon="2.64937">
        <ele>535.79998779297</ele>
        <time>2023-07-15T05:06:52.000Z</time>
      </trkpt>
      <trkpt lat="42.47735" lon="2.64934">
        <ele>536.40002441406</ele>
        <time>2023-07-15T05:06:57.000Z</time>
      </trkpt>
      <trkpt lat="42.47735" lon="2.64932">
        <ele>536.79998779297</ele>
        <time>2023-07-15T05:07:00.000Z</time>
      </trkpt>
      <trkpt lat="42.47735" lon="2.64924">
        <ele>537.59997558594</ele>
        <time>2023-07-15T05:07:07.000Z</time>
      </trkpt>
      <trkpt lat="42.47735" lon="2.64916">
        <ele>538.59997558594</ele>
        <time>2023-07-15T05:07:14.000Z</time>
      </trkpt>
      <trkpt lat="42.47736" lon="2.64915">
        <ele>538.79998779297</ele>
        <time>2023-07-15T05:07:15.000Z</time>
      </trkpt>
      <trkpt lat="42.47737" lon="2.64909">
        <ele>539.59997558594</ele>
        <time>2023-07-15T05:07:22.000Z</time>
      </trkpt>
      <trkpt lat="42.47737" lon="2.64909">
        <ele>539.79998779297</ele>
        <time>2023-07-15T05:07:23.000Z</time>
      </trkpt>
      <trkpt lat="42.47737" lon="2.64906">
        <ele>540.79998779297</ele>
        <time>2023-07-15T05:07:30.000Z</time>
      </trkpt>
      <trkpt lat="42.47737" lon="2.64905">
        <ele>540.79998779297</ele>
        <time>2023-07-15T05:07:32.000Z</time>
      </trkpt>
      <trkpt lat="42.47741" lon="2.64899">
        <ele>542</ele>
        <time>2023-07-15T05:07:38.000Z</time>
      </trkpt>
      <trkpt lat="42.47741" lon="2.64898">
        <ele>542.20001220703</ele>
        <time>2023-07-15T05:07:40.000Z</time>
      </trkpt>
      <trkpt lat="42.47742" lon="2.64895">
        <ele>543</ele>
        <time>2023-07-15T05:07:46.000Z</time>
      </trkpt>
      <trkpt lat="42.47742" lon="2.64894">
        <ele>543.20001220703</ele>
        <time>2023-07-15T05:07:48.000Z</time>
      </trkpt>
      <trkpt lat="42.47744" lon="2.64894">
        <ele>544</ele>
        <time>2023-07-15T05:07:54.000Z</time>
      </trkpt>
      <trkpt lat="42.47746" lon="2.64891">
        <ele>544.59997558594</ele>
        <time>2023-07-15T05:07:57.000Z</time>
      </trkpt>
      <trkpt lat="42.47747" lon="2.64889">
        <ele>545.20001220703</ele>
        <time>2023-07-15T05:08:00.000Z</time>
      </trkpt>
      <trkpt lat="42.47749" lon="2.64887">
        <ele>545.59997558594</ele>
        <time>2023-07-15T05:08:03.000Z</time>
      </trkpt>
      <trkpt lat="42.47749" lon="2.64886">
        <ele>546.20001220703</ele>
        <time>2023-07-15T05:08:06.000Z</time>
      </trkpt>
      <trkpt lat="42.4775" lon="2.64886">
        <ele>547</ele>
        <time>2023-07-15T05:08:11.000Z</time>
      </trkpt>
      <trkpt lat="42.47752" lon="2.64885">
        <ele>547.20001220703</ele>
        <time>2023-07-15T05:08:13.000Z</time>
      </trkpt>
      <trkpt lat="42.47755" lon="2.64881">
        <ele>548.20001220703</ele>
        <time>2023-07-15T05:08:19.000Z</time>
      </trkpt>
      <trkpt lat="42.47758" lon="2.6488">
        <ele>549.40002441406</ele>
        <time>2023-07-15T05:08:26.000Z</time>
      </trkpt>
      <trkpt lat="42.47758" lon="2.64879">
        <ele>549.79998779297</ele>
        <time>2023-07-15T05:08:34.000Z</time>
      </trkpt>
      <trkpt lat="42.47759" lon="2.64881">
        <ele>550</ele>
        <time>2023-07-15T05:08:44.000Z</time>
      </trkpt>
      <trkpt lat="42.47761" lon="2.64883">
        <ele>550</ele>
        <time>2023-07-15T05:08:54.000Z</time>
      </trkpt>
      <trkpt lat="42.47761" lon="2.64876">
        <ele>550.20001220703</ele>
        <time>2023-07-15T05:09:01.000Z</time>
      </trkpt>
      <trkpt lat="42.47761" lon="2.64875">
        <ele>550.40002441406</ele>
        <time>2023-07-15T05:09:03.000Z</time>
      </trkpt>
      <trkpt lat="42.47764" lon="2.6487">
        <ele>551.40002441406</ele>
        <time>2023-07-15T05:09:09.000Z</time>
      </trkpt>
      <trkpt lat="42.47764" lon="2.64869">
        <ele>551.40002441406</ele>
        <time>2023-07-15T05:09:10.000Z</time>
      </trkpt>
      <trkpt lat="42.47766" lon="2.64863">
        <ele>552.59997558594</ele>
        <time>2023-07-15T05:09:16.000Z</time>
      </trkpt>
      <trkpt lat="42.47767" lon="2.64862">
        <ele>553</ele>
        <time>2023-07-15T05:09:18.000Z</time>
      </trkpt>
      <trkpt lat="42.47768" lon="2.6486">
        <ele>553.59997558594</ele>
        <time>2023-07-15T05:09:23.000Z</time>
      </trkpt>
      <trkpt lat="42.47769" lon="2.64856">
        <ele>554.40002441406</ele>
        <time>2023-07-15T05:09:28.000Z</time>
      </trkpt>
      <trkpt lat="42.4777" lon="2.64855">
        <ele>554.79998779297</ele>
        <time>2023-07-15T05:09:31.000Z</time>
      </trkpt>
      <trkpt lat="42.47773" lon="2.64856">
        <ele>555.59997558594</ele>
        <time>2023-07-15T05:09:37.000Z</time>
      </trkpt>
      <trkpt lat="42.47774" lon="2.64856">
        <ele>556</ele>
        <time>2023-07-15T05:09:39.000Z</time>
      </trkpt>
      <trkpt lat="42.47777" lon="2.64854">
        <ele>556.79998779297</ele>
        <time>2023-07-15T05:09:45.000Z</time>
      </trkpt>
      <trkpt lat="42.47779" lon="2.64853">
        <ele>557</ele>
        <time>2023-07-15T05:09:47.000Z</time>
      </trkpt>
      <trkpt lat="42.47782" lon="2.64847">
        <ele>558</ele>
        <time>2023-07-15T05:09:53.000Z</time>
      </trkpt>
      <trkpt lat="42.47783" lon="2.64845">
        <ele>558</ele>
        <time>2023-07-15T05:09:55.000Z</time>
      </trkpt>
      <trkpt lat="42.47784" lon="2.64841">
        <ele>558.40002441406</ele>
        <time>2023-07-15T05:10:00.000Z</time>
      </trkpt>
      <trkpt lat="42.47788" lon="2.64838">
        <ele>559.20001220703</ele>
        <time>2023-07-15T05:10:07.000Z</time>
      </trkpt>
      <trkpt lat="42.47788" lon="2.64837">
        <ele>559.59997558594</ele>
        <time>2023-07-15T05:10:09.000Z</time>
      </trkpt>
      <trkpt lat="42.47789" lon="2.64834">
        <ele>560.40002441406</ele>
        <time>2023-07-15T05:10:14.000Z</time>
      </trkpt>
      <trkpt lat="42.4779" lon="2.64832">
        <ele>560.59997558594</ele>
        <time>2023-07-15T05:10:16.000Z</time>
      </trkpt>
      <trkpt lat="42.47793" lon="2.64829">
        <ele>561.59997558594</ele>
        <time>2023-07-15T05:10:21.000Z</time>
      </trkpt>
      <trkpt lat="42.47794" lon="2.64829">
        <ele>562.59997558594</ele>
        <time>2023-07-15T05:10:26.000Z</time>
      </trkpt>
      <trkpt lat="42.47795" lon="2.64823">
        <ele>563.59997558594</ele>
        <time>2023-07-15T05:10:33.000Z</time>
      </trkpt>
      <trkpt lat="42.47795" lon="2.64823">
        <ele>563.79998779297</ele>
        <time>2023-07-15T05:10:34.000Z</time>
      </trkpt>
      <trkpt lat="42.47796" lon="2.64822">
        <ele>564.20001220703</ele>
        <time>2023-07-15T05:10:41.000Z</time>
      </trkpt>
      <trkpt lat="42.47793" lon="2.64822">
        <ele>564.20001220703</ele>
        <time>2023-07-15T05:10:49.000Z</time>
      </trkpt>
      <trkpt lat="42.47796" lon="2.64818">
        <ele>564.40002441406</ele>
        <time>2023-07-15T05:10:56.000Z</time>
      </trkpt>
      <trkpt lat="42.47798" lon="2.64822">
        <ele>564.20001220703</ele>
        <time>2023-07-15T05:11:04.000Z</time>
      </trkpt>
      <trkpt lat="42.47802" lon="2.64816">
        <ele>564.79998779297</ele>
        <time>2023-07-15T05:11:12.000Z</time>
      </trkpt>
      <trkpt lat="42.47802" lon="2.64815">
        <ele>565</ele>
        <time>2023-07-15T05:11:13.000Z</time>
      </trkpt>
      <trkpt lat="42.47803" lon="2.64811">
        <ele>565.79998779297</ele>
        <time>2023-07-15T05:11:19.000Z</time>
      </trkpt>
      <trkpt lat="42.47803" lon="2.6481">
        <ele>566</ele>
        <time>2023-07-15T05:11:21.000Z</time>
      </trkpt>
      <trkpt lat="42.47805" lon="2.64806">
        <ele>566.79998779297</ele>
        <time>2023-07-15T05:11:26.000Z</time>
      </trkpt>
      <trkpt lat="42.47808" lon="2.64806">
        <ele>567.40002441406</ele>
        <time>2023-07-15T05:11:30.000Z</time>
      </trkpt>
      <trkpt lat="42.47811" lon="2.64804">
        <ele>568</ele>
        <time>2023-07-15T05:11:34.000Z</time>
      </trkpt>
      <trkpt lat="42.47815" lon="2.64801">
        <ele>568.79998779297</ele>
        <time>2023-07-15T05:11:40.000Z</time>
      </trkpt>
      <trkpt lat="42.47815" lon="2.648">
        <ele>569</ele>
        <time>2023-07-15T05:11:42.000Z</time>
      </trkpt>
      <trkpt lat="42.47819" lon="2.64796">
        <ele>570</ele>
        <time>2023-07-15T05:11:49.000Z</time>
      </trkpt>
      <trkpt lat="42.47819" lon="2.64797">
        <ele>570</ele>
        <time>2023-07-15T05:11:50.000Z</time>
      </trkpt>
      <trkpt lat="42.47819" lon="2.64796">
        <ele>571.20001220703</ele>
        <time>2023-07-15T05:11:57.000Z</time>
      </trkpt>
      <trkpt lat="42.47822" lon="2.64792">
        <ele>572.20001220703</ele>
        <time>2023-07-15T05:12:03.000Z</time>
      </trkpt>
      <trkpt lat="42.47823" lon="2.64791">
        <ele>572.40002441406</ele>
        <time>2023-07-15T05:12:04.000Z</time>
      </trkpt>
      <trkpt lat="42.47825" lon="2.64787">
        <ele>573.40002441406</ele>
        <time>2023-07-15T05:12:11.000Z</time>
      </trkpt>
      <trkpt lat="42.47826" lon="2.64783">
        <ele>574.59997558594</ele>
        <time>2023-07-15T05:12:18.000Z</time>
      </trkpt>
      <trkpt lat="42.47828" lon="2.64783">
        <ele>575</ele>
        <time>2023-07-15T05:12:21.000Z</time>
      </trkpt>
      <trkpt lat="42.47831" lon="2.64782">
        <ele>575.59997558594</ele>
        <time>2023-07-15T05:12:25.000Z</time>
      </trkpt>
      <trkpt lat="42.47832" lon="2.64781">
        <ele>576</ele>
        <time>2023-07-15T05:12:29.000Z</time>
      </trkpt>
      <trkpt lat="42.47835" lon="2.64782">
        <ele>576.79998779297</ele>
        <time>2023-07-15T05:12:35.000Z</time>
      </trkpt>
      <trkpt lat="42.47836" lon="2.64781">
        <ele>577</ele>
        <time>2023-07-15T05:12:37.000Z</time>
      </trkpt>
      <trkpt lat="42.47836" lon="2.64778">
        <ele>577.79998779297</ele>
        <time>2023-07-15T05:12:42.000Z</time>
      </trkpt>
      <trkpt lat="42.47837" lon="2.64777">
        <ele>577.79998779297</ele>
        <time>2023-07-15T05:12:43.000Z</time>
      </trkpt>
      <trkpt lat="42.47839" lon="2.64775">
        <ele>578.79998779297</ele>
        <time>2023-07-15T05:12:50.000Z</time>
      </trkpt>
      <trkpt lat="42.47839" lon="2.64775">
        <ele>579</ele>
        <time>2023-07-15T05:12:51.000Z</time>
      </trkpt>
      <trkpt lat="42.47839" lon="2.64773">
        <ele>579.79998779297</ele>
        <time>2023-07-15T05:12:56.000Z</time>
      </trkpt>
      <trkpt lat="42.47839" lon="2.64769">
        <ele>580.20001220703</ele>
        <time>2023-07-15T05:12:59.000Z</time>
      </trkpt>
      <trkpt lat="42.47839" lon="2.64764">
        <ele>581</ele>
        <time>2023-07-15T05:13:04.000Z</time>
      </trkpt>
      <trkpt lat="42.47839" lon="2.64761">
        <ele>581.40002441406</ele>
        <time>2023-07-15T05:13:07.000Z</time>
      </trkpt>
      <trkpt lat="42.4784" lon="2.64757">
        <ele>582</ele>
        <time>2023-07-15T05:13:12.000Z</time>
      </trkpt>
      <trkpt lat="42.4784" lon="2.64754">
        <ele>582.40002441406</ele>
        <time>2023-07-15T05:13:16.000Z</time>
      </trkpt>
      <trkpt lat="42.47841" lon="2.64753">
        <ele>583.20001220703</ele>
        <time>2023-07-15T05:13:21.000Z</time>
      </trkpt>
      <trkpt lat="42.47842" lon="2.64751">
        <ele>583.40002441406</ele>
        <time>2023-07-15T05:13:25.000Z</time>
      </trkpt>
      <trkpt lat="42.47843" lon="2.64749">
        <ele>584.20001220703</ele>
        <time>2023-07-15T05:13:29.000Z</time>
      </trkpt>
      <trkpt lat="42.47843" lon="2.64746">
        <ele>584.59997558594</ele>
        <time>2023-07-15T05:13:33.000Z</time>
      </trkpt>
      <trkpt lat="42.47844" lon="2.64743">
        <ele>585.20001220703</ele>
        <time>2023-07-15T05:13:37.000Z</time>
      </trkpt>
      <trkpt lat="42.47843" lon="2.64741">
        <ele>585.59997558594</ele>
        <time>2023-07-15T05:13:42.000Z</time>
      </trkpt>
      <trkpt lat="42.47845" lon="2.64741">
        <ele>586.40002441406</ele>
        <time>2023-07-15T05:13:49.000Z</time>
      </trkpt>
      <trkpt lat="42.47846" lon="2.64741">
        <ele>586.59997558594</ele>
        <time>2023-07-15T05:13:50.000Z</time>
      </trkpt>
      <trkpt lat="42.4785" lon="2.6474">
        <ele>587.40002441406</ele>
        <time>2023-07-15T05:13:56.000Z</time>
      </trkpt>
      <trkpt lat="42.47853" lon="2.64737">
        <ele>588.40002441406</ele>
        <time>2023-07-15T05:14:02.000Z</time>
      </trkpt>
      <trkpt lat="42.47855" lon="2.64736">
        <ele>589</ele>
        <time>2023-07-15T05:14:05.000Z</time>
      </trkpt>
      <trkpt lat="42.47856" lon="2.64737">
        <ele>589.59997558594</ele>
        <time>2023-07-15T05:14:09.000Z</time>
      </trkpt>
      <trkpt lat="42.47859" lon="2.64739">
        <ele>590</ele>
        <time>2023-07-15T05:14:12.000Z</time>
      </trkpt>
      <trkpt lat="42.47861" lon="2.64738">
        <ele>590.59997558594</ele>
        <time>2023-07-15T05:14:16.000Z</time>
      </trkpt>
      <trkpt lat="42.47864" lon="2.64737">
        <ele>591</ele>
        <time>2023-07-15T05:14:19.000Z</time>
      </trkpt>
      <trkpt lat="42.47871" lon="2.64732">
        <ele>591.40002441406</ele>
        <time>2023-07-15T05:14:27.000Z</time>
      </trkpt>
      <trkpt lat="42.47872" lon="2.6473">
        <ele>591.59997558594</ele>
        <time>2023-07-15T05:14:29.000Z</time>
      </trkpt>
      <trkpt lat="42.47876" lon="2.64725">
        <ele>592.20001220703</ele>
        <time>2023-07-15T05:14:36.000Z</time>
      </trkpt>
      <trkpt lat="42.47876" lon="2.64725">
        <ele>592.59997558594</ele>
        <time>2023-07-15T05:14:38.000Z</time>
      </trkpt>
      <trkpt lat="42.47881" lon="2.64721">
        <ele>593.40002441406</ele>
        <time>2023-07-15T05:14:45.000Z</time>
      </trkpt>
      <trkpt lat="42.47882" lon="2.64719">
        <ele>593.79998779297</ele>
        <time>2023-07-15T05:14:47.000Z</time>
      </trkpt>
      <trkpt lat="42.47885" lon="2.64716">
        <ele>594.40002441406</ele>
        <time>2023-07-15T05:14:54.000Z</time>
      </trkpt>
      <trkpt lat="42.47888" lon="2.64712">
        <ele>594.79998779297</ele>
        <time>2023-07-15T05:14:59.000Z</time>
      </trkpt>
      <trkpt lat="42.4789" lon="2.64711">
        <ele>595.40002441406</ele>
        <time>2023-07-15T05:15:03.000Z</time>
      </trkpt>
      <trkpt lat="42.4789" lon="2.6471">
        <ele>595.79998779297</ele>
        <time>2023-07-15T05:15:08.000Z</time>
      </trkpt>
      <trkpt lat="42.47891" lon="2.64708">
        <ele>596.59997558594</ele>
        <time>2023-07-15T05:15:12.000Z</time>
      </trkpt>
      <trkpt lat="42.47893" lon="2.64705">
        <ele>597</ele>
        <time>2023-07-15T05:15:15.000Z</time>
      </trkpt>
      <trkpt lat="42.47896" lon="2.64702">
        <ele>598</ele>
        <time>2023-07-15T05:15:21.000Z</time>
      </trkpt>
      <trkpt lat="42.47896" lon="2.64702">
        <ele>598</ele>
        <time>2023-07-15T05:15:22.000Z</time>
      </trkpt>
      <trkpt lat="42.47901" lon="2.64696">
        <ele>599</ele>
        <time>2023-07-15T05:15:30.000Z</time>
      </trkpt>
      <trkpt lat="42.47902" lon="2.64695">
        <ele>599.20001220703</ele>
        <time>2023-07-15T05:15:31.000Z</time>
      </trkpt>
      <trkpt lat="42.47903" lon="2.64691">
        <ele>600.20001220703</ele>
        <time>2023-07-15T05:15:39.000Z</time>
      </trkpt>
      <trkpt lat="42.47906" lon="2.64689">
        <ele>601.20001220703</ele>
        <time>2023-07-15T05:15:46.000Z</time>
      </trkpt>
      <trkpt lat="42.47907" lon="2.64689">
        <ele>601.79998779297</ele>
        <time>2023-07-15T05:15:48.000Z</time>
      </trkpt>
      <trkpt lat="42.47911" lon="2.64688">
        <ele>602.40002441406</ele>
        <time>2023-07-15T05:15:53.000Z</time>
      </trkpt>
      <trkpt lat="42.47913" lon="2.64686">
        <ele>602.79998779297</ele>
        <time>2023-07-15T05:15:57.000Z</time>
      </trkpt>
      <trkpt lat="42.47913" lon="2.64684">
        <ele>603.40002441406</ele>
        <time>2023-07-15T05:16:02.000Z</time>
      </trkpt>
      <trkpt lat="42.47913" lon="2.64684">
        <ele>603.79998779297</ele>
        <time>2023-07-15T05:16:04.000Z</time>
      </trkpt>
      <trkpt lat="42.47919" lon="2.64683">
        <ele>604.59997558594</ele>
        <time>2023-07-15T05:16:10.000Z</time>
      </trkpt>
      <trkpt lat="42.47921" lon="2.64682">
        <ele>604.79998779297</ele>
        <time>2023-07-15T05:16:11.000Z</time>
      </trkpt>
      <trkpt lat="42.47925" lon="2.64679">
        <ele>605.59997558594</ele>
        <time>2023-07-15T05:16:17.000Z</time>
      </trkpt>
      <trkpt lat="42.47925" lon="2.64678">
        <ele>606</ele>
        <time>2023-07-15T05:16:19.000Z</time>
      </trkpt>
      <trkpt lat="42.47925" lon="2.64677">
        <ele>606.79998779297</ele>
        <time>2023-07-15T05:16:24.000Z</time>
      </trkpt>
      <trkpt lat="42.47926" lon="2.64677">
        <ele>607</ele>
        <time>2023-07-15T05:16:26.000Z</time>
      </trkpt>
      <trkpt lat="42.47927" lon="2.64672">
        <ele>607.79998779297</ele>
        <time>2023-07-15T05:16:31.000Z</time>
      </trkpt>
      <trkpt lat="42.47929" lon="2.64669">
        <ele>608.59997558594</ele>
        <time>2023-07-15T05:16:35.000Z</time>
      </trkpt>
      <trkpt lat="42.4793" lon="2.64667">
        <ele>609</ele>
        <time>2023-07-15T05:16:37.000Z</time>
      </trkpt>
      <trkpt lat="42.4793" lon="2.64668">
        <ele>610</ele>
        <time>2023-07-15T05:16:43.000Z</time>
      </trkpt>
      <trkpt lat="42.47931" lon="2.64668">
        <ele>610.20001220703</ele>
        <time>2023-07-15T05:16:44.000Z</time>
      </trkpt>
      <trkpt lat="42.47933" lon="2.64667">
        <ele>611</ele>
        <time>2023-07-15T05:16:49.000Z</time>
      </trkpt>
      <trkpt lat="42.47934" lon="2.64666">
        <ele>611.40002441406</ele>
        <time>2023-07-15T05:16:52.000Z</time>
      </trkpt>
      <trkpt lat="42.4794" lon="2.64664">
        <ele>612.20001220703</ele>
        <time>2023-07-15T05:16:58.000Z</time>
      </trkpt>
      <trkpt lat="42.4794" lon="2.64665">
        <ele>612.20001220703</ele>
        <time>2023-07-15T05:16:59.000Z</time>
      </trkpt>
      <trkpt lat="42.47943" lon="2.64662">
        <ele>613.40002441406</ele>
        <time>2023-07-15T05:17:06.000Z</time>
      </trkpt>
      <trkpt lat="42.47944" lon="2.64662">
        <ele>613.59997558594</ele>
        <time>2023-07-15T05:17:08.000Z</time>
      </trkpt>
      <trkpt lat="42.47948" lon="2.6466">
        <ele>614.40002441406</ele>
        <time>2023-07-15T05:17:15.000Z</time>
      </trkpt>
      <trkpt lat="42.47949" lon="2.64659">
        <ele>614.59997558594</ele>
        <time>2023-07-15T05:17:16.000Z</time>
      </trkpt>
      <trkpt lat="42.47951" lon="2.64657">
        <ele>615.59997558594</ele>
        <time>2023-07-15T05:17:23.000Z</time>
      </trkpt>
      <trkpt lat="42.47952" lon="2.64657">
        <ele>615.79998779297</ele>
        <time>2023-07-15T05:17:24.000Z</time>
      </trkpt>
      <trkpt lat="42.47954" lon="2.64651">
        <ele>616.59997558594</ele>
        <time>2023-07-15T05:17:31.000Z</time>
      </trkpt>
      <trkpt lat="42.47954" lon="2.64651">
        <ele>616.79998779297</ele>
        <time>2023-07-15T05:17:32.000Z</time>
      </trkpt>
      <trkpt lat="42.47957" lon="2.64644">
        <ele>617.59997558594</ele>
        <time>2023-07-15T05:17:40.000Z</time>
      </trkpt>
      <trkpt lat="42.47958" lon="2.64642">
        <ele>618</ele>
        <time>2023-07-15T05:17:42.000Z</time>
      </trkpt>
      <trkpt lat="42.4796" lon="2.64638">
        <ele>618.79998779297</ele>
        <time>2023-07-15T05:17:49.000Z</time>
      </trkpt>
      <trkpt lat="42.47961" lon="2.64637">
        <ele>619.20001220703</ele>
        <time>2023-07-15T05:17:51.000Z</time>
      </trkpt>
      <trkpt lat="42.47964" lon="2.64634">
        <ele>619.79998779297</ele>
        <time>2023-07-15T05:17:56.000Z</time>
      </trkpt>
      <trkpt lat="42.47965" lon="2.64631">
        <ele>620</ele>
        <time>2023-07-15T05:17:59.000Z</time>
      </trkpt>
      <trkpt lat="42.47966" lon="2.64622">
        <ele>620.59997558594</ele>
        <time>2023-07-15T05:18:06.000Z</time>
      </trkpt>
      <trkpt lat="42.47967" lon="2.6462">
        <ele>620.79998779297</ele>
        <time>2023-07-15T05:18:08.000Z</time>
      </trkpt>
      <trkpt lat="42.47968" lon="2.64615">
        <ele>621.59997558594</ele>
        <time>2023-07-15T05:18:15.000Z</time>
      </trkpt>
      <trkpt lat="42.47969" lon="2.64614">
        <ele>622</ele>
        <time>2023-07-15T05:18:18.000Z</time>
      </trkpt>
      <trkpt lat="42.4797" lon="2.64611">
        <ele>623</ele>
        <time>2023-07-15T05:18:24.000Z</time>
      </trkpt>
      <trkpt lat="42.47971" lon="2.64611">
        <ele>623.20001220703</ele>
        <time>2023-07-15T05:18:25.000Z</time>
      </trkpt>
      <trkpt lat="42.47975" lon="2.64602">
        <ele>623.79998779297</ele>
        <time>2023-07-15T05:18:34.000Z</time>
      </trkpt>
      <trkpt lat="42.47974" lon="2.64598">
        <ele>624.20001220703</ele>
        <time>2023-07-15T05:18:37.000Z</time>
      </trkpt>
      <trkpt lat="42.47975" lon="2.64596">
        <ele>624.20001220703</ele>
        <time>2023-07-15T05:18:40.000Z</time>
      </trkpt>
      <trkpt lat="42.47974" lon="2.64596">
        <ele>624.59997558594</ele>
        <time>2023-07-15T05:18:48.000Z</time>
      </trkpt>
      <trkpt lat="42.47975" lon="2.64592">
        <ele>624.59997558594</ele>
        <time>2023-07-15T05:18:58.000Z</time>
      </trkpt>
      <trkpt lat="42.47975" lon="2.64596">
        <ele>624.59997558594</ele>
        <time>2023-07-15T05:19:06.000Z</time>
      </trkpt>
      <trkpt lat="42.4798" lon="2.64589">
        <ele>625</ele>
        <time>2023-07-15T05:19:15.000Z</time>
      </trkpt>
      <trkpt lat="42.47981" lon="2.64587">
        <ele>625.20001220703</ele>
        <time>2023-07-15T05:19:17.000Z</time>
      </trkpt>
      <trkpt lat="42.47983" lon="2.64582">
        <ele>625.79998779297</ele>
        <time>2023-07-15T05:19:23.000Z</time>
      </trkpt>
      <trkpt lat="42.47984" lon="2.64582">
        <ele>626.20001220703</ele>
        <time>2023-07-15T05:19:27.000Z</time>
      </trkpt>
      <trkpt lat="42.47987" lon="2.64579">
        <ele>627</ele>
        <time>2023-07-15T05:19:30.000Z</time>
      </trkpt>
      <trkpt lat="42.47989" lon="2.64577">
        <ele>627.40002441406</ele>
        <time>2023-07-15T05:19:34.000Z</time>
      </trkpt>
      <trkpt lat="42.4799" lon="2.64572">
        <ele>627.79998779297</ele>
        <time>2023-07-15T05:19:39.000Z</time>
      </trkpt>
      <trkpt lat="42.47993" lon="2.64564">
        <ele>628.59997558594</ele>
        <time>2023-07-15T05:19:47.000Z</time>
      </trkpt>
      <trkpt lat="42.47997" lon="2.64558">
        <ele>629.59997558594</ele>
        <time>2023-07-15T05:19:55.000Z</time>
      </trkpt>
      <trkpt lat="42.47997" lon="2.64558">
        <ele>629.79998779297</ele>
        <time>2023-07-15T05:19:56.000Z</time>
      </trkpt>
      <trkpt lat="42.47999" lon="2.64554">
        <ele>630.59997558594</ele>
        <time>2023-07-15T05:20:04.000Z</time>
      </trkpt>
      <trkpt lat="42.47999" lon="2.64553">
        <ele>630.79998779297</ele>
        <time>2023-07-15T05:20:05.000Z</time>
      </trkpt>
      <trkpt lat="42.48002" lon="2.64546">
        <ele>632</ele>
        <time>2023-07-15T05:20:12.000Z</time>
      </trkpt>
      <trkpt lat="42.48003" lon="2.64544">
        <ele>632.20001220703</ele>
        <time>2023-07-15T05:20:14.000Z</time>
      </trkpt>
      <trkpt lat="42.48006" lon="2.64543">
        <ele>633</ele>
        <time>2023-07-15T05:20:19.000Z</time>
      </trkpt>
      <trkpt lat="42.48008" lon="2.64544">
        <ele>633.79998779297</ele>
        <time>2023-07-15T05:20:23.000Z</time>
      </trkpt>
      <trkpt lat="42.48009" lon="2.64543">
        <ele>634</ele>
        <time>2023-07-15T05:20:26.000Z</time>
      </trkpt>
      <trkpt lat="42.48014" lon="2.64538">
        <ele>635</ele>
        <time>2023-07-15T05:20:32.000Z</time>
      </trkpt>
      <trkpt lat="42.48015" lon="2.64537">
        <ele>635.20001220703</ele>
        <time>2023-07-15T05:20:34.000Z</time>
      </trkpt>
      <trkpt lat="42.48019" lon="2.64534">
        <ele>636</ele>
        <time>2023-07-15T05:20:40.000Z</time>
      </trkpt>
      <trkpt lat="42.48019" lon="2.64534">
        <ele>636.20001220703</ele>
        <time>2023-07-15T05:20:41.000Z</time>
      </trkpt>
      <trkpt lat="42.48021" lon="2.64533">
        <ele>637.20001220703</ele>
        <time>2023-07-15T05:20:49.000Z</time>
      </trkpt>
      <trkpt lat="42.48021" lon="2.64533">
        <ele>637.40002441406</ele>
        <time>2023-07-15T05:20:50.000Z</time>
      </trkpt>
      <trkpt lat="42.48025" lon="2.64533">
        <ele>638.40002441406</ele>
        <time>2023-07-15T05:20:56.000Z</time>
      </trkpt>
      <trkpt lat="42.48028" lon="2.64532">
        <ele>638.79998779297</ele>
        <time>2023-07-15T05:20:59.000Z</time>
      </trkpt>
      <trkpt lat="42.48027" lon="2.64529">
        <ele>639.20001220703</ele>
        <time>2023-07-15T05:21:04.000Z</time>
      </trkpt>
      <trkpt lat="42.48028" lon="2.64528">
        <ele>639.59997558594</ele>
        <time>2023-07-15T05:21:05.000Z</time>
      </trkpt>
      <trkpt lat="42.48028" lon="2.64527">
        <ele>639.79998779297</ele>
        <time>2023-07-15T05:21:07.000Z</time>
      </trkpt>
      <trkpt lat="42.4803" lon="2.64524">
        <ele>640.59997558594</ele>
        <time>2023-07-15T05:21:12.000Z</time>
      </trkpt>
      <trkpt lat="42.48032" lon="2.64521">
        <ele>641.20001220703</ele>
        <time>2023-07-15T05:21:16.000Z</time>
      </trkpt>
      <trkpt lat="42.48032" lon="2.64521">
        <ele>641.59997558594</ele>
        <time>2023-07-15T05:21:19.000Z</time>
      </trkpt>
      <trkpt lat="42.48034" lon="2.64518">
        <ele>642.40002441406</ele>
        <time>2023-07-15T05:21:24.000Z</time>
      </trkpt>
      <trkpt lat="42.48036" lon="2.64516">
        <ele>642.79998779297</ele>
        <time>2023-07-15T05:21:27.000Z</time>
      </trkpt>
      <trkpt lat="42.48038" lon="2.64515">
        <ele>643.79998779297</ele>
        <time>2023-07-15T05:21:34.000Z</time>
      </trkpt>
      <trkpt lat="42.4804" lon="2.64511">
        <ele>644.79998779297</ele>
        <time>2023-07-15T05:21:42.000Z</time>
      </trkpt>
      <trkpt lat="42.4804" lon="2.64509">
        <ele>645</ele>
        <time>2023-07-15T05:21:44.000Z</time>
      </trkpt>
      <trkpt lat="42.4804" lon="2.64508">
        <ele>645.20001220703</ele>
        <time>2023-07-15T05:21:51.000Z</time>
      </trkpt>
      <trkpt lat="42.48041" lon="2.64509">
        <ele>645.20001220703</ele>
        <time>2023-07-15T05:22:00.000Z</time>
      </trkpt>
      <trkpt lat="42.48041" lon="2.64507">
        <ele>645.20001220703</ele>
        <time>2023-07-15T05:22:07.000Z</time>
      </trkpt>
      <trkpt lat="42.48041" lon="2.64507">
        <ele>645.79998779297</ele>
        <time>2023-07-15T05:22:10.000Z</time>
      </trkpt>
      <trkpt lat="42.48041" lon="2.64504">
        <ele>646.20001220703</ele>
        <time>2023-07-15T05:22:14.000Z</time>
      </trkpt>
      <trkpt lat="42.48041" lon="2.64501">
        <ele>647</ele>
        <time>2023-07-15T05:22:19.000Z</time>
      </trkpt>
      <trkpt lat="42.48041" lon="2.645">
        <ele>647.59997558594</ele>
        <time>2023-07-15T05:22:21.000Z</time>
      </trkpt>
      <trkpt lat="42.48042" lon="2.64497">
        <ele>648.20001220703</ele>
        <time>2023-07-15T05:22:24.000Z</time>
      </trkpt>
      <trkpt lat="42.48043" lon="2.64495">
        <ele>649</ele>
        <time>2023-07-15T05:22:29.000Z</time>
      </trkpt>
      <trkpt lat="42.48043" lon="2.64492">
        <ele>649.20001220703</ele>
        <time>2023-07-15T05:22:31.000Z</time>
      </trkpt>
      <trkpt lat="42.48045" lon="2.64489">
        <ele>650.20001220703</ele>
        <time>2023-07-15T05:22:37.000Z</time>
      </trkpt>
      <trkpt lat="42.48046" lon="2.64488">
        <ele>650.40002441406</ele>
        <time>2023-07-15T05:22:38.000Z</time>
      </trkpt>
      <trkpt lat="42.48048" lon="2.64487">
        <ele>651.20001220703</ele>
        <time>2023-07-15T05:22:44.000Z</time>
      </trkpt>
      <trkpt lat="42.48049" lon="2.64486">
        <ele>651.59997558594</ele>
        <time>2023-07-15T05:22:46.000Z</time>
      </trkpt>
      <trkpt lat="42.48049" lon="2.64486">
        <ele>652.40002441406</ele>
        <time>2023-07-15T05:22:51.000Z</time>
      </trkpt>
      <trkpt lat="42.4805" lon="2.64485">
        <ele>652.59997558594</ele>
        <time>2023-07-15T05:22:53.000Z</time>
      </trkpt>
      <trkpt lat="42.48053" lon="2.64483">
        <ele>653.40002441406</ele>
        <time>2023-07-15T05:22:58.000Z</time>
      </trkpt>
      <trkpt lat="42.48055" lon="2.64481">
        <ele>654.20001220703</ele>
        <time>2023-07-15T05:23:02.000Z</time>
      </trkpt>
      <trkpt lat="42.48055" lon="2.6448">
        <ele>654.59997558594</ele>
        <time>2023-07-15T05:23:04.000Z</time>
      </trkpt>
      <trkpt lat="42.48054" lon="2.64479">
        <ele>654.59997558594</ele>
        <time>2023-07-15T05:23:08.000Z</time>
      </trkpt>
      <trkpt lat="42.48053" lon="2.64478">
        <ele>654.40002441406</ele>
        <time>2023-07-15T05:23:17.000Z</time>
      </trkpt>
      <trkpt lat="42.48056" lon="2.64475">
        <ele>654.59997558594</ele>
        <time>2023-07-15T05:23:26.000Z</time>
      </trkpt>
      <trkpt lat="42.48058" lon="2.64474">
        <ele>655.20001220703</ele>
        <time>2023-07-15T05:23:33.000Z</time>
      </trkpt>
      <trkpt lat="42.48058" lon="2.64474">
        <ele>655.59997558594</ele>
        <time>2023-07-15T05:23:35.000Z</time>
      </trkpt>
      <trkpt lat="42.48057" lon="2.64472">
        <ele>656.79998779297</ele>
        <time>2023-07-15T05:23:41.000Z</time>
      </trkpt>
      <trkpt lat="42.48057" lon="2.6447">
        <ele>656.79998779297</ele>
        <time>2023-07-15T05:23:42.000Z</time>
      </trkpt>
      <trkpt lat="42.4806" lon="2.64465">
        <ele>658</ele>
        <time>2023-07-15T05:23:49.000Z</time>
      </trkpt>
      <trkpt lat="42.48061" lon="2.64466">
        <ele>658.20001220703</ele>
        <time>2023-07-15T05:23:51.000Z</time>
      </trkpt>
      <trkpt lat="42.48065" lon="2.64464">
        <ele>659</ele>
        <time>2023-07-15T05:23:57.000Z</time>
      </trkpt>
      <trkpt lat="42.48065" lon="2.64463">
        <ele>659.20001220703</ele>
        <time>2023-07-15T05:23:59.000Z</time>
      </trkpt>
      <trkpt lat="42.48067" lon="2.64463">
        <ele>660</ele>
        <time>2023-07-15T05:24:03.000Z</time>
      </trkpt>
      <trkpt lat="42.48069" lon="2.64462">
        <ele>660.40002441406</ele>
        <time>2023-07-15T05:24:06.000Z</time>
      </trkpt>
      <trkpt lat="42.48073" lon="2.64461">
        <ele>661</ele>
        <time>2023-07-15T05:24:10.000Z</time>
      </trkpt>
      <trkpt lat="42.48074" lon="2.6446">
        <ele>661.59997558594</ele>
        <time>2023-07-15T05:24:13.000Z</time>
      </trkpt>
      <trkpt lat="42.48075" lon="2.64458">
        <ele>662</ele>
        <time>2023-07-15T05:24:16.000Z</time>
      </trkpt>
      <trkpt lat="42.48076" lon="2.64458">
        <ele>662.40002441406</ele>
        <time>2023-07-15T05:24:18.000Z</time>
      </trkpt>
      <trkpt lat="42.4808" lon="2.64457">
        <ele>663.20001220703</ele>
        <time>2023-07-15T05:24:24.000Z</time>
      </trkpt>
      <trkpt lat="42.4808" lon="2.64456">
        <ele>664.20001220703</ele>
        <time>2023-07-15T05:24:30.000Z</time>
      </trkpt>
      <trkpt lat="42.4808" lon="2.64456">
        <ele>664.40002441406</ele>
        <time>2023-07-15T05:24:31.000Z</time>
      </trkpt>
      <trkpt lat="42.48082" lon="2.64454">
        <ele>665.40002441406</ele>
        <time>2023-07-15T05:24:38.000Z</time>
      </trkpt>
      <trkpt lat="42.48082" lon="2.64454">
        <ele>665.40002441406</ele>
        <time>2023-07-15T05:24:39.000Z</time>
      </trkpt>
      <trkpt lat="42.48084" lon="2.64452">
        <ele>666.20001220703</ele>
        <time>2023-07-15T05:24:47.000Z</time>
      </trkpt>
      <trkpt lat="42.48083" lon="2.64451">
        <ele>666.59997558594</ele>
        <time>2023-07-15T05:24:50.000Z</time>
      </trkpt>
      <trkpt lat="42.48083" lon="2.64448">
        <ele>667</ele>
        <time>2023-07-15T05:24:54.000Z</time>
      </trkpt>
      <trkpt lat="42.48082" lon="2.64449">
        <ele>667.79998779297</ele>
        <time>2023-07-15T05:25:02.000Z</time>
      </trkpt>
      <trkpt lat="42.48083" lon="2.64449">
        <ele>667.79998779297</ele>
        <time>2023-07-15T05:25:03.000Z</time>
      </trkpt>
      <trkpt lat="42.48086" lon="2.64448">
        <ele>668.79998779297</ele>
        <time>2023-07-15T05:25:10.000Z</time>
      </trkpt>
      <trkpt lat="42.48087" lon="2.64447">
        <ele>669</ele>
        <time>2023-07-15T05:25:20.000Z</time>
      </trkpt>
      <trkpt lat="42.48089" lon="2.64445">
        <ele>669.20001220703</ele>
        <time>2023-07-15T05:25:28.000Z</time>
      </trkpt>
      <trkpt lat="42.48088" lon="2.64444">
        <ele>669.20001220703</ele>
        <time>2023-07-15T05:25:37.000Z</time>
      </trkpt>
      <trkpt lat="42.48089" lon="2.64442">
        <ele>669</ele>
        <time>2023-07-15T05:25:45.000Z</time>
      </trkpt>
      <trkpt lat="42.4809" lon="2.64439">
        <ele>670</ele>
        <time>2023-07-15T05:25:50.000Z</time>
      </trkpt>
      <trkpt lat="42.48091" lon="2.64437">
        <ele>670.40002441406</ele>
        <time>2023-07-15T05:25:53.000Z</time>
      </trkpt>
      <trkpt lat="42.48092" lon="2.64436">
        <ele>671.20001220703</ele>
        <time>2023-07-15T05:25:58.000Z</time>
      </trkpt>
      <trkpt lat="42.48093" lon="2.64434">
        <ele>672.40002441406</ele>
        <time>2023-07-15T05:26:03.000Z</time>
      </trkpt>
      <trkpt lat="42.48093" lon="2.64434">
        <ele>672.59997558594</ele>
        <time>2023-07-15T05:26:04.000Z</time>
      </trkpt>
      <trkpt lat="42.48094" lon="2.64431">
        <ele>673.40002441406</ele>
        <time>2023-07-15T05:26:11.000Z</time>
      </trkpt>
      <trkpt lat="42.48094" lon="2.64431">
        <ele>673.59997558594</ele>
        <time>2023-07-15T05:26:12.000Z</time>
      </trkpt>
      <trkpt lat="42.48094" lon="2.64429">
        <ele>674.59997558594</ele>
        <time>2023-07-15T05:26:19.000Z</time>
      </trkpt>
      <trkpt lat="42.48092" lon="2.6443">
        <ele>674.79998779297</ele>
        <time>2023-07-15T05:26:27.000Z</time>
      </trkpt>
      <trkpt lat="42.48093" lon="2.64424">
        <ele>675.40002441406</ele>
        <time>2023-07-15T05:26:36.000Z</time>
      </trkpt>
      <trkpt lat="42.48094" lon="2.64421">
        <ele>675.79998779297</ele>
        <time>2023-07-15T05:26:39.000Z</time>
      </trkpt>
      <trkpt lat="42.48095" lon="2.64418">
        <ele>676.59997558594</ele>
        <time>2023-07-15T05:26:44.000Z</time>
      </trkpt>
      <trkpt lat="42.48096" lon="2.64417">
        <ele>676.79998779297</ele>
        <time>2023-07-15T05:26:46.000Z</time>
      </trkpt>
      <trkpt lat="42.48098" lon="2.64414">
        <ele>677.79998779297</ele>
        <time>2023-07-15T05:26:52.000Z</time>
      </trkpt>
      <trkpt lat="42.48102" lon="2.64413">
        <ele>679</ele>
        <time>2023-07-15T05:26:59.000Z</time>
      </trkpt>
      <trkpt lat="42.48103" lon="2.64413">
        <ele>679.20001220703</ele>
        <time>2023-07-15T05:27:00.000Z</time>
      </trkpt>
      <trkpt lat="42.48105" lon="2.64414">
        <ele>680.20001220703</ele>
        <time>2023-07-15T05:27:07.000Z</time>
      </trkpt>
      <trkpt lat="42.48109" lon="2.64418">
        <ele>681.20001220703</ele>
        <time>2023-07-15T05:27:15.000Z</time>
      </trkpt>
      <trkpt lat="42.48109" lon="2.64418">
        <ele>681.40002441406</ele>
        <time>2023-07-15T05:27:16.000Z</time>
      </trkpt>
      <trkpt lat="42.48112" lon="2.6442">
        <ele>682.20001220703</ele>
        <time>2023-07-15T05:27:24.000Z</time>
      </trkpt>
      <trkpt lat="42.48112" lon="2.6442">
        <ele>682.59997558594</ele>
        <time>2023-07-15T05:27:26.000Z</time>
      </trkpt>
      <trkpt lat="42.48113" lon="2.6442">
        <ele>683.40002441406</ele>
        <time>2023-07-15T05:27:29.000Z</time>
      </trkpt>
      <trkpt lat="42.48116" lon="2.64419">
        <ele>684.40002441406</ele>
        <time>2023-07-15T05:27:36.000Z</time>
      </trkpt>
      <trkpt lat="42.48116" lon="2.64419">
        <ele>684.40002441406</ele>
        <time>2023-07-15T05:27:37.000Z</time>
      </trkpt>
      <trkpt lat="42.48118" lon="2.64418">
        <ele>685.59997558594</ele>
        <time>2023-07-15T05:27:44.000Z</time>
      </trkpt>
      <trkpt lat="42.4812" lon="2.64412">
        <ele>686.59997558594</ele>
        <time>2023-07-15T05:27:52.000Z</time>
      </trkpt>
      <trkpt lat="42.48123" lon="2.64411">
        <ele>687.59997558594</ele>
        <time>2023-07-15T05:28:01.000Z</time>
      </trkpt>
      <trkpt lat="42.48124" lon="2.64413">
        <ele>687.40002441406</ele>
        <time>2023-07-15T05:28:10.000Z</time>
      </trkpt>
      <trkpt lat="42.48123" lon="2.64414">
        <ele>687.40002441406</ele>
        <time>2023-07-15T05:28:20.000Z</time>
      </trkpt>
      <trkpt lat="42.48121" lon="2.6441">
        <ele>687.59997558594</ele>
        <time>2023-07-15T05:28:26.000Z</time>
      </trkpt>
      <trkpt lat="42.4812" lon="2.6441">
        <ele>687.59997558594</ele>
        <time>2023-07-15T05:28:29.000Z</time>
      </trkpt>
      <trkpt lat="42.4812" lon="2.644">
        <ele>688</ele>
        <time>2023-07-15T05:28:36.000Z</time>
      </trkpt>
      <trkpt lat="42.48122" lon="2.64391">
        <ele>688.20001220703</ele>
        <time>2023-07-15T05:28:44.000Z</time>
      </trkpt>
      <trkpt lat="42.48122" lon="2.64385">
        <ele>688.59997558594</ele>
        <time>2023-07-15T05:28:52.000Z</time>
      </trkpt>
      <trkpt lat="42.48119" lon="2.64383">
        <ele>688.59997558594</ele>
        <time>2023-07-15T05:29:01.000Z</time>
      </trkpt>
      <trkpt lat="42.48122" lon="2.64385">
        <ele>688.59997558594</ele>
        <time>2023-07-15T05:29:11.000Z</time>
      </trkpt>
      <trkpt lat="42.48121" lon="2.64394">
        <ele>688.40002441406</ele>
        <time>2023-07-15T05:29:19.000Z</time>
      </trkpt>
      <trkpt lat="42.48119" lon="2.64401">
        <ele>688.20001220703</ele>
        <time>2023-07-15T05:29:25.000Z</time>
      </trkpt>
      <trkpt lat="42.48118" lon="2.64405">
        <ele>688</ele>
        <time>2023-07-15T05:29:30.000Z</time>
      </trkpt>
      <trkpt lat="42.4812" lon="2.64407">
        <ele>687.79998779297</ele>
        <time>2023-07-15T05:29:38.000Z</time>
      </trkpt>
      <trkpt lat="42.48124" lon="2.64408">
        <ele>688.79998779297</ele>
        <time>2023-07-15T05:29:45.000Z</time>
      </trkpt>
      <trkpt lat="42.48126" lon="2.64408">
        <ele>690</ele>
        <time>2023-07-15T05:29:50.000Z</time>
      </trkpt>
      <trkpt lat="42.48126" lon="2.64406">
        <ele>690.40002441406</ele>
        <time>2023-07-15T05:29:54.000Z</time>
      </trkpt>
      <trkpt lat="42.48127" lon="2.64405">
        <ele>691</ele>
        <time>2023-07-15T05:29:57.000Z</time>
      </trkpt>
      <trkpt lat="42.48128" lon="2.64406">
        <ele>692</ele>
        <time>2023-07-15T05:30:04.000Z</time>
      </trkpt>
      <trkpt lat="42.48125" lon="2.64402">
        <ele>692.20001220703</ele>
        <time>2023-07-15T05:30:14.000Z</time>
      </trkpt>
      <trkpt lat="42.48128" lon="2.64401">
        <ele>692.20001220703</ele>
        <time>2023-07-15T05:30:21.000Z</time>
      </trkpt>
      <trkpt lat="42.4813" lon="2.64402">
        <ele>692.59997558594</ele>
        <time>2023-07-15T05:30:29.000Z</time>
      </trkpt>
      <trkpt lat="42.48131" lon="2.644">
        <ele>693.20001220703</ele>
        <time>2023-07-15T05:30:33.000Z</time>
      </trkpt>
      <trkpt lat="42.48133" lon="2.64398">
        <ele>694.20001220703</ele>
        <time>2023-07-15T05:30:37.000Z</time>
      </trkpt>
      <trkpt lat="42.48134" lon="2.64398">
        <ele>694.40002441406</ele>
        <time>2023-07-15T05:30:38.000Z</time>
      </trkpt>
      <trkpt lat="42.48138" lon="2.64393">
        <ele>695.20001220703</ele>
        <time>2023-07-15T05:30:46.000Z</time>
      </trkpt>
      <trkpt lat="42.48138" lon="2.64392">
        <ele>695.40002441406</ele>
        <time>2023-07-15T05:30:47.000Z</time>
      </trkpt>
      <trkpt lat="42.48142" lon="2.64383">
        <ele>696.20001220703</ele>
        <time>2023-07-15T05:30:54.000Z</time>
      </trkpt>
      <trkpt lat="42.48142" lon="2.64379">
        <ele>696.40002441406</ele>
        <time>2023-07-15T05:30:59.000Z</time>
      </trkpt>
      <trkpt lat="42.48142" lon="2.6438">
        <ele>696.40002441406</ele>
        <time>2023-07-15T05:31:00.000Z</time>
      </trkpt>
      <trkpt lat="42.48143" lon="2.64377">
        <ele>696.40002441406</ele>
        <time>2023-07-15T05:31:02.000Z</time>
      </trkpt>
      <trkpt lat="42.48151" lon="2.64367">
        <ele>696.79998779297</ele>
        <time>2023-07-15T05:31:11.000Z</time>
      </trkpt>
      <trkpt lat="42.48158" lon="2.6436">
        <ele>697.20001220703</ele>
        <time>2023-07-15T05:31:19.000Z</time>
      </trkpt>
      <trkpt lat="42.4816" lon="2.64355">
        <ele>697.40002441406</ele>
        <time>2023-07-15T05:31:24.000Z</time>
      </trkpt>
      <trkpt lat="42.48161" lon="2.64348">
        <ele>697.59997558594</ele>
        <time>2023-07-15T05:31:28.000Z</time>
      </trkpt>
      <trkpt lat="42.48168" lon="2.64338">
        <ele>698.40002441406</ele>
        <time>2023-07-15T05:31:37.000Z</time>
      </trkpt>
      <trkpt lat="42.48171" lon="2.64332">
        <ele>698.59997558594</ele>
        <time>2023-07-15T05:31:41.000Z</time>
      </trkpt>
      <trkpt lat="42.48173" lon="2.64326">
        <ele>699</ele>
        <time>2023-07-15T05:31:46.000Z</time>
      </trkpt>
      <trkpt lat="42.4818" lon="2.64316">
        <ele>699.40002441406</ele>
        <time>2023-07-15T05:31:54.000Z</time>
      </trkpt>
      <trkpt lat="42.48185" lon="2.64313">
        <ele>699.59997558594</ele>
        <time>2023-07-15T05:31:59.000Z</time>
      </trkpt>
      <trkpt lat="42.48189" lon="2.64312">
        <ele>699.59997558594</ele>
        <time>2023-07-15T05:32:02.000Z</time>
      </trkpt>
      <trkpt lat="42.48196" lon="2.6431">
        <ele>700</ele>
        <time>2023-07-15T05:32:09.000Z</time>
      </trkpt>
      <trkpt lat="42.48195" lon="2.6431">
        <ele>700.79998779297</ele>
        <time>2023-07-15T05:32:14.000Z</time>
      </trkpt>
      <trkpt lat="42.48195" lon="2.64309">
        <ele>700.79998779297</ele>
        <time>2023-07-15T05:32:15.000Z</time>
      </trkpt>
      <trkpt lat="42.48194" lon="2.64308">
        <ele>700.79998779297</ele>
        <time>2023-07-15T05:32:20.000Z</time>
      </trkpt>
      <trkpt lat="42.48195" lon="2.64308">
        <ele>700.79998779297</ele>
        <time>2023-07-15T05:32:23.000Z</time>
      </trkpt>
      <trkpt lat="42.48196" lon="2.64307">
        <ele>700.79998779297</ele>
        <time>2023-07-15T05:32:33.000Z</time>
      </trkpt>
      <trkpt lat="42.48201" lon="2.64304">
        <ele>701</ele>
        <time>2023-07-15T05:32:42.000Z</time>
      </trkpt>
      <trkpt lat="42.48208" lon="2.64293">
        <ele>701.79998779297</ele>
        <time>2023-07-15T05:32:50.000Z</time>
      </trkpt>
      <trkpt lat="42.48207" lon="2.64284">
        <ele>702.59997558594</ele>
        <time>2023-07-15T05:32:58.000Z</time>
      </trkpt>
      <trkpt lat="42.48208" lon="2.64278">
        <ele>703</ele>
        <time>2023-07-15T05:33:01.000Z</time>
      </trkpt>
      <trkpt lat="42.48208" lon="2.64273">
        <ele>703.40002441406</ele>
        <time>2023-07-15T05:33:04.000Z</time>
      </trkpt>
      <trkpt lat="42.4821" lon="2.6426">
        <ele>704.20001220703</ele>
        <time>2023-07-15T05:33:11.000Z</time>
      </trkpt>
      <trkpt lat="42.48212" lon="2.6425">
        <ele>705</ele>
        <time>2023-07-15T05:33:18.000Z</time>
      </trkpt>
      <trkpt lat="42.48213" lon="2.64246">
        <ele>705.20001220703</ele>
        <time>2023-07-15T05:33:20.000Z</time>
      </trkpt>
      <trkpt lat="42.48217" lon="2.64239">
        <ele>705.59997558594</ele>
        <time>2023-07-15T05:33:24.000Z</time>
      </trkpt>
      <trkpt lat="42.48221" lon="2.64231">
        <ele>706.20001220703</ele>
        <time>2023-07-15T05:33:30.000Z</time>
      </trkpt>
      <trkpt lat="42.48221" lon="2.6423">
        <ele>706.20001220703</ele>
        <time>2023-07-15T05:33:31.000Z</time>
      </trkpt>
      <trkpt lat="42.48225" lon="2.6422">
        <ele>706.79998779297</ele>
        <time>2023-07-15T05:33:37.000Z</time>
      </trkpt>
      <trkpt lat="42.48227" lon="2.64215">
        <ele>707.20001220703</ele>
        <time>2023-07-15T05:33:42.000Z</time>
      </trkpt>
      <trkpt lat="42.48229" lon="2.64212">
        <ele>707.40002441406</ele>
        <time>2023-07-15T05:33:45.000Z</time>
      </trkpt>
      <trkpt lat="42.48233" lon="2.64207">
        <ele>707.79998779297</ele>
        <time>2023-07-15T05:33:54.000Z</time>
      </trkpt>
      <trkpt lat="42.4824" lon="2.642">
        <ele>708.40002441406</ele>
        <time>2023-07-15T05:34:00.000Z</time>
      </trkpt>
      <trkpt lat="42.48241" lon="2.64198">
        <ele>708.59997558594</ele>
        <time>2023-07-15T05:34:02.000Z</time>
      </trkpt>
      <trkpt lat="42.48251" lon="2.6419">
        <ele>709.40002441406</ele>
        <time>2023-07-15T05:34:10.000Z</time>
      </trkpt>
      <trkpt lat="42.48251" lon="2.64188">
        <ele>710</ele>
        <time>2023-07-15T05:34:15.000Z</time>
      </trkpt>
      <trkpt lat="42.48251" lon="2.64188">
        <ele>710</ele>
        <time>2023-07-15T05:34:16.000Z</time>
      </trkpt>
      <trkpt lat="42.48253" lon="2.64186">
        <ele>710</ele>
        <time>2023-07-15T05:34:19.000Z</time>
      </trkpt>
      <trkpt lat="42.48254" lon="2.64186">
        <ele>710</ele>
        <time>2023-07-15T05:34:22.000Z</time>
      </trkpt>
      <trkpt lat="42.48255" lon="2.64187">
        <ele>710.20001220703</ele>
        <time>2023-07-15T05:34:23.000Z</time>
      </trkpt>
      <trkpt lat="42.48255" lon="2.64185">
        <ele>710.20001220703</ele>
        <time>2023-07-15T05:34:31.000Z</time>
      </trkpt>
      <trkpt lat="42.48261" lon="2.64182">
        <ele>710.40002441406</ele>
        <time>2023-07-15T05:34:37.000Z</time>
      </trkpt>
      <trkpt lat="42.48262" lon="2.64181">
        <ele>710.59997558594</ele>
        <time>2023-07-15T05:34:38.000Z</time>
      </trkpt>
      <trkpt lat="42.48269" lon="2.64176">
        <ele>711.20001220703</ele>
        <time>2023-07-15T05:34:44.000Z</time>
      </trkpt>
      <trkpt lat="42.48272" lon="2.64174">
        <ele>711.59997558594</ele>
        <time>2023-07-15T05:34:47.000Z</time>
      </trkpt>
      <trkpt lat="42.48279" lon="2.6417">
        <ele>712.20001220703</ele>
        <time>2023-07-15T05:34:53.000Z</time>
      </trkpt>
      <trkpt lat="42.48281" lon="2.64168">
        <ele>712.59997558594</ele>
        <time>2023-07-15T05:34:57.000Z</time>
      </trkpt>
      <trkpt lat="42.48283" lon="2.64166">
        <ele>712.79998779297</ele>
        <time>2023-07-15T05:34:59.000Z</time>
      </trkpt>
      <trkpt lat="42.48292" lon="2.64158">
        <ele>713.59997558594</ele>
        <time>2023-07-15T05:35:05.000Z</time>
      </trkpt>
      <trkpt lat="42.48293" lon="2.64157">
        <ele>713.59997558594</ele>
        <time>2023-07-15T05:35:06.000Z</time>
      </trkpt>
      <trkpt lat="42.48297" lon="2.64152">
        <ele>714.20001220703</ele>
        <time>2023-07-15T05:35:11.000Z</time>
      </trkpt>
      <trkpt lat="42.48301" lon="2.64147">
        <ele>714.79998779297</ele>
        <time>2023-07-15T05:35:15.000Z</time>
      </trkpt>
      <trkpt lat="42.48303" lon="2.64145">
        <ele>715</ele>
        <time>2023-07-15T05:35:17.000Z</time>
      </trkpt>
      <trkpt lat="42.48308" lon="2.64137">
        <ele>715.79998779297</ele>
        <time>2023-07-15T05:35:23.000Z</time>
      </trkpt>
      <trkpt lat="42.48309" lon="2.64135">
        <ele>715.79998779297</ele>
        <time>2023-07-15T05:35:24.000Z</time>
      </trkpt>
      <trkpt lat="42.48314" lon="2.6413">
        <ele>716.79998779297</ele>
        <time>2023-07-15T05:35:30.000Z</time>
      </trkpt>
      <trkpt lat="42.48316" lon="2.64127">
        <ele>717</ele>
        <time>2023-07-15T05:35:32.000Z</time>
      </trkpt>
      <trkpt lat="42.4832" lon="2.64118">
        <ele>718</ele>
        <time>2023-07-15T05:35:38.000Z</time>
      </trkpt>
      <trkpt lat="42.48325" lon="2.64108">
        <ele>718.79998779297</ele>
        <time>2023-07-15T05:35:46.000Z</time>
      </trkpt>
      <trkpt lat="42.48326" lon="2.64105">
        <ele>719</ele>
        <time>2023-07-15T05:35:48.000Z</time>
      </trkpt>
      <trkpt lat="42.48334" lon="2.64097">
        <ele>719.79998779297</ele>
        <time>2023-07-15T05:35:55.000Z</time>
      </trkpt>
      <trkpt lat="42.48338" lon="2.64094">
        <ele>720</ele>
        <time>2023-07-15T05:35:58.000Z</time>
      </trkpt>
      <trkpt lat="42.48343" lon="2.64092">
        <ele>720.40002441406</ele>
        <time>2023-07-15T05:36:03.000Z</time>
      </trkpt>
      <trkpt lat="42.48352" lon="2.64085">
        <ele>721</ele>
        <time>2023-07-15T05:36:11.000Z</time>
      </trkpt>
      <trkpt lat="42.48362" lon="2.64083">
        <ele>721.59997558594</ele>
        <time>2023-07-15T05:36:18.000Z</time>
      </trkpt>
      <trkpt lat="42.48374" lon="2.64087">
        <ele>722</ele>
        <time>2023-07-15T05:36:28.000Z</time>
      </trkpt>
      <trkpt lat="42.48383" lon="2.64095">
        <ele>722.40002441406</ele>
        <time>2023-07-15T05:36:35.000Z</time>
      </trkpt>
      <trkpt lat="42.48392" lon="2.64103">
        <ele>722.79998779297</ele>
        <time>2023-07-15T05:36:44.000Z</time>
      </trkpt>
      <trkpt lat="42.48398" lon="2.64106">
        <ele>723</ele>
        <time>2023-07-15T05:36:48.000Z</time>
      </trkpt>
      <trkpt lat="42.48401" lon="2.64106">
        <ele>723.40002441406</ele>
        <time>2023-07-15T05:36:51.000Z</time>
      </trkpt>
      <trkpt lat="42.48411" lon="2.64107">
        <ele>724.20001220703</ele>
        <time>2023-07-15T05:36:58.000Z</time>
      </trkpt>
      <trkpt lat="42.48413" lon="2.64107">
        <ele>724.20001220703</ele>
        <time>2023-07-15T05:36:59.000Z</time>
      </trkpt>
      <trkpt lat="42.48422" lon="2.64106">
        <ele>725.20001220703</ele>
        <time>2023-07-15T05:37:06.000Z</time>
      </trkpt>
      <trkpt lat="42.48424" lon="2.64105">
        <ele>725.20001220703</ele>
        <time>2023-07-15T05:37:07.000Z</time>
      </trkpt>
      <trkpt lat="42.48432" lon="2.641">
        <ele>725.79998779297</ele>
        <time>2023-07-15T05:37:14.000Z</time>
      </trkpt>
      <trkpt lat="42.48437" lon="2.64099">
        <ele>726.20001220703</ele>
        <time>2023-07-15T05:37:18.000Z</time>
      </trkpt>
      <trkpt lat="42.48444" lon="2.64097">
        <ele>726.79998779297</ele>
        <time>2023-07-15T05:37:24.000Z</time>
      </trkpt>
      <trkpt lat="42.48453" lon="2.64093">
        <ele>727.40002441406</ele>
        <time>2023-07-15T05:37:31.000Z</time>
      </trkpt>
      <trkpt lat="42.48463" lon="2.64086">
        <ele>728.40002441406</ele>
        <time>2023-07-15T05:37:40.000Z</time>
      </trkpt>
      <trkpt lat="42.48464" lon="2.64085">
        <ele>728.59997558594</ele>
        <time>2023-07-15T05:37:41.000Z</time>
      </trkpt>
      <trkpt lat="42.48472" lon="2.64078">
        <ele>729.20001220703</ele>
        <time>2023-07-15T05:37:48.000Z</time>
      </trkpt>
      <trkpt lat="42.48475" lon="2.64077">
        <ele>729.59997558594</ele>
        <time>2023-07-15T05:37:50.000Z</time>
      </trkpt>
      <trkpt lat="42.48483" lon="2.64073">
        <ele>730.20001220703</ele>
        <time>2023-07-15T05:37:57.000Z</time>
      </trkpt>
      <trkpt lat="42.48488" lon="2.64072">
        <ele>730.59997558594</ele>
        <time>2023-07-15T05:38:00.000Z</time>
      </trkpt>
      <trkpt lat="42.48492" lon="2.6407">
        <ele>731</ele>
        <time>2023-07-15T05:38:05.000Z</time>
      </trkpt>
      <trkpt lat="42.48501" lon="2.64068">
        <ele>731.59997558594</ele>
        <time>2023-07-15T05:38:11.000Z</time>
      </trkpt>
      <trkpt lat="42.48503" lon="2.64067">
        <ele>731.59997558594</ele>
        <time>2023-07-15T05:38:12.000Z</time>
      </trkpt>
      <trkpt lat="42.48512" lon="2.64062">
        <ele>732.40002441406</ele>
        <time>2023-07-15T05:38:20.000Z</time>
      </trkpt>
      <trkpt lat="42.48513" lon="2.64062">
        <ele>732.59997558594</ele>
        <time>2023-07-15T05:38:21.000Z</time>
      </trkpt>
      <trkpt lat="42.48525" lon="2.6406">
        <ele>733.20001220703</ele>
        <time>2023-07-15T05:38:28.000Z</time>
      </trkpt>
      <trkpt lat="42.48533" lon="2.64056">
        <ele>733.79998779297</ele>
        <time>2023-07-15T05:38:34.000Z</time>
      </trkpt>
      <trkpt lat="42.48535" lon="2.64055">
        <ele>733.79998779297</ele>
        <time>2023-07-15T05:38:36.000Z</time>
      </trkpt>
      <trkpt lat="42.48543" lon="2.64051">
        <ele>734.20001220703</ele>
        <time>2023-07-15T05:38:42.000Z</time>
      </trkpt>
      <trkpt lat="42.4855" lon="2.64046">
        <ele>734.79998779297</ele>
        <time>2023-07-15T05:38:48.000Z</time>
      </trkpt>
      <trkpt lat="42.48552" lon="2.64045">
        <ele>735</ele>
        <time>2023-07-15T05:38:50.000Z</time>
      </trkpt>
      <trkpt lat="42.48563" lon="2.64044">
        <ele>735.59997558594</ele>
        <time>2023-07-15T05:38:59.000Z</time>
      </trkpt>
      <trkpt lat="42.48567" lon="2.64042">
        <ele>736</ele>
        <time>2023-07-15T05:39:02.000Z</time>
      </trkpt>
      <trkpt lat="42.48573" lon="2.64039">
        <ele>736.20001220703</ele>
        <time>2023-07-15T05:39:06.000Z</time>
      </trkpt>
      <trkpt lat="42.48581" lon="2.64034">
        <ele>737</ele>
        <time>2023-07-15T05:39:14.000Z</time>
      </trkpt>
      <trkpt lat="42.4859" lon="2.64029">
        <ele>737.59997558594</ele>
        <time>2023-07-15T05:39:21.000Z</time>
      </trkpt>
      <trkpt lat="42.48595" lon="2.64024">
        <ele>738.20001220703</ele>
        <time>2023-07-15T05:39:25.000Z</time>
      </trkpt>
      <trkpt lat="42.486" lon="2.6402">
        <ele>738.40002441406</ele>
        <time>2023-07-15T05:39:29.000Z</time>
      </trkpt>
      <trkpt lat="42.48609" lon="2.64018">
        <ele>739</ele>
        <time>2023-07-15T05:39:36.000Z</time>
      </trkpt>
      <trkpt lat="42.48609" lon="2.64021">
        <ele>739.20001220703</ele>
        <time>2023-07-15T05:39:42.000Z</time>
      </trkpt>
      <trkpt lat="42.48609" lon="2.64022">
        <ele>739.20001220703</ele>
        <time>2023-07-15T05:39:43.000Z</time>
      </trkpt>
      <trkpt lat="42.48607" lon="2.64023">
        <ele>739.20001220703</ele>
        <time>2023-07-15T05:39:52.000Z</time>
      </trkpt>
      <trkpt lat="42.48613" lon="2.64019">
        <ele>739.40002441406</ele>
        <time>2023-07-15T05:39:58.000Z</time>
      </trkpt>
      <trkpt lat="42.48621" lon="2.6401">
        <ele>740</ele>
        <time>2023-07-15T05:40:05.000Z</time>
      </trkpt>
      <trkpt lat="42.48623" lon="2.6401">
        <ele>740.20001220703</ele>
        <time>2023-07-15T05:40:07.000Z</time>
      </trkpt>
      <trkpt lat="42.4863" lon="2.64004">
        <ele>740.79998779297</ele>
        <time>2023-07-15T05:40:14.000Z</time>
      </trkpt>
      <trkpt lat="42.48636" lon="2.64">
        <ele>741.20001220703</ele>
        <time>2023-07-15T05:40:19.000Z</time>
      </trkpt>
      <trkpt lat="42.48639" lon="2.63998">
        <ele>741.59997558594</ele>
        <time>2023-07-15T05:40:22.000Z</time>
      </trkpt>
      <trkpt lat="42.48644" lon="2.63993">
        <ele>742.20001220703</ele>
        <time>2023-07-15T05:40:29.000Z</time>
      </trkpt>
      <trkpt lat="42.48649" lon="2.63984">
        <ele>742.40002441406</ele>
        <time>2023-07-15T05:40:33.000Z</time>
      </trkpt>
      <trkpt lat="42.48651" lon="2.63983">
        <ele>742.40002441406</ele>
        <time>2023-07-15T05:40:34.000Z</time>
      </trkpt>
      <trkpt lat="42.48657" lon="2.63977">
        <ele>743</ele>
        <time>2023-07-15T05:40:40.000Z</time>
      </trkpt>
      <trkpt lat="42.48663" lon="2.6397">
        <ele>743.40002441406</ele>
        <time>2023-07-15T05:40:46.000Z</time>
      </trkpt>
      <trkpt lat="42.48664" lon="2.63968">
        <ele>743.40002441406</ele>
        <time>2023-07-15T05:40:47.000Z</time>
      </trkpt>
      <trkpt lat="42.48672" lon="2.63955">
        <ele>744.40002441406</ele>
        <time>2023-07-15T05:40:57.000Z</time>
      </trkpt>
      <trkpt lat="42.48678" lon="2.63943">
        <ele>745</ele>
        <time>2023-07-15T05:41:05.000Z</time>
      </trkpt>
      <trkpt lat="42.48681" lon="2.63939">
        <ele>745.40002441406</ele>
        <time>2023-07-15T05:41:08.000Z</time>
      </trkpt>
      <trkpt lat="42.48684" lon="2.63934">
        <ele>746</ele>
        <time>2023-07-15T05:41:13.000Z</time>
      </trkpt>
      <trkpt lat="42.48691" lon="2.63925">
        <ele>746.40002441406</ele>
        <time>2023-07-15T05:41:19.000Z</time>
      </trkpt>
      <trkpt lat="42.48692" lon="2.63923">
        <ele>746.59997558594</ele>
        <time>2023-07-15T05:41:20.000Z</time>
      </trkpt>
      <trkpt lat="42.48699" lon="2.63912">
        <ele>747.20001220703</ele>
        <time>2023-07-15T05:41:27.000Z</time>
      </trkpt>
      <trkpt lat="42.48701" lon="2.63908">
        <ele>747.59997558594</ele>
        <time>2023-07-15T05:41:31.000Z</time>
      </trkpt>
      <trkpt lat="42.48704" lon="2.63904">
        <ele>747.59997558594</ele>
        <time>2023-07-15T05:41:34.000Z</time>
      </trkpt>
      <trkpt lat="42.48712" lon="2.63893">
        <ele>748</ele>
        <time>2023-07-15T05:41:42.000Z</time>
      </trkpt>
      <trkpt lat="42.48718" lon="2.63881">
        <ele>748.40002441406</ele>
        <time>2023-07-15T05:41:49.000Z</time>
      </trkpt>
      <trkpt lat="42.48719" lon="2.63878">
        <ele>748.59997558594</ele>
        <time>2023-07-15T05:41:51.000Z</time>
      </trkpt>
      <trkpt lat="42.48721" lon="2.63872">
        <ele>749.20001220703</ele>
        <time>2023-07-15T05:41:56.000Z</time>
      </trkpt>
      <trkpt lat="42.48725" lon="2.63862">
        <ele>749.59997558594</ele>
        <time>2023-07-15T05:42:01.000Z</time>
      </trkpt>
      <trkpt lat="42.48726" lon="2.63858">
        <ele>750</ele>
        <time>2023-07-15T05:42:03.000Z</time>
      </trkpt>
      <trkpt lat="42.48729" lon="2.63849">
        <ele>750.59997558594</ele>
        <time>2023-07-15T05:42:09.000Z</time>
      </trkpt>
      <trkpt lat="42.48731" lon="2.63846">
        <ele>751</ele>
        <time>2023-07-15T05:42:12.000Z</time>
      </trkpt>
      <trkpt lat="42.48734" lon="2.63834">
        <ele>751.59997558594</ele>
        <time>2023-07-15T05:42:19.000Z</time>
      </trkpt>
      <trkpt lat="42.48735" lon="2.63832">
        <ele>751.79998779297</ele>
        <time>2023-07-15T05:42:20.000Z</time>
      </trkpt>
      <trkpt lat="42.48741" lon="2.63816">
        <ele>752.40002441406</ele>
        <time>2023-07-15T05:42:28.000Z</time>
      </trkpt>
      <trkpt lat="42.48743" lon="2.6381">
        <ele>752.79998779297</ele>
        <time>2023-07-15T05:42:32.000Z</time>
      </trkpt>
      <trkpt lat="42.48747" lon="2.63799">
        <ele>753</ele>
        <time>2023-07-15T05:42:38.000Z</time>
      </trkpt>
      <trkpt lat="42.48748" lon="2.63789">
        <ele>753.40002441406</ele>
        <time>2023-07-15T05:42:45.000Z</time>
      </trkpt>
      <trkpt lat="42.48748" lon="2.63778">
        <ele>753.79998779297</ele>
        <time>2023-07-15T05:42:51.000Z</time>
      </trkpt>
      <trkpt lat="42.48748" lon="2.63775">
        <ele>753.79998779297</ele>
        <time>2023-07-15T05:42:53.000Z</time>
      </trkpt>
      <trkpt lat="42.4875" lon="2.63764">
        <ele>754.20001220703</ele>
        <time>2023-07-15T05:43:00.000Z</time>
      </trkpt>
      <trkpt lat="42.48753" lon="2.63749">
        <ele>754.59997558594</ele>
        <time>2023-07-15T05:43:07.000Z</time>
      </trkpt>
      <trkpt lat="42.48754" lon="2.63746">
        <ele>754.79998779297</ele>
        <time>2023-07-15T05:43:11.000Z</time>
      </trkpt>
      <trkpt lat="42.48756" lon="2.6374">
        <ele>755.20001220703</ele>
        <time>2023-07-15T05:43:15.000Z</time>
      </trkpt>
      <trkpt lat="42.48761" lon="2.63729">
        <ele>755.79998779297</ele>
        <time>2023-07-15T05:43:21.000Z</time>
      </trkpt>
      <trkpt lat="42.48762" lon="2.63727">
        <ele>755.79998779297</ele>
        <time>2023-07-15T05:43:22.000Z</time>
      </trkpt>
      <trkpt lat="42.48768" lon="2.63716">
        <ele>756.40002441406</ele>
        <time>2023-07-15T05:43:29.000Z</time>
      </trkpt>
      <trkpt lat="42.48772" lon="2.63709">
        <ele>757</ele>
        <time>2023-07-15T05:43:34.000Z</time>
      </trkpt>
      <trkpt lat="42.48774" lon="2.63706">
        <ele>757.20001220703</ele>
        <time>2023-07-15T05:43:37.000Z</time>
      </trkpt>
      <trkpt lat="42.4878" lon="2.63696">
        <ele>757.79998779297</ele>
        <time>2023-07-15T05:43:44.000Z</time>
      </trkpt>
      <trkpt lat="42.48781" lon="2.63693">
        <ele>758</ele>
        <time>2023-07-15T05:43:46.000Z</time>
      </trkpt>
      <trkpt lat="42.48785" lon="2.63687">
        <ele>758.59997558594</ele>
        <time>2023-07-15T05:43:51.000Z</time>
      </trkpt>
      <trkpt lat="42.48791" lon="2.63679">
        <ele>759</ele>
        <time>2023-07-15T05:43:57.000Z</time>
      </trkpt>
      <trkpt lat="42.48792" lon="2.63678">
        <ele>759</ele>
        <time>2023-07-15T05:43:58.000Z</time>
      </trkpt>
      <trkpt lat="42.48797" lon="2.6367">
        <ele>759.79998779297</ele>
        <time>2023-07-15T05:44:05.000Z</time>
      </trkpt>
      <trkpt lat="42.48801" lon="2.63667">
        <ele>760</ele>
        <time>2023-07-15T05:44:10.000Z</time>
      </trkpt>
      <trkpt lat="42.48801" lon="2.63666">
        <ele>760.20001220703</ele>
        <time>2023-07-15T05:44:12.000Z</time>
      </trkpt>
      <trkpt lat="42.48801" lon="2.63667">
        <ele>760.40002441406</ele>
        <time>2023-07-15T05:44:17.000Z</time>
      </trkpt>
      <trkpt lat="42.48802" lon="2.63666">
        <ele>760.40002441406</ele>
        <time>2023-07-15T05:44:19.000Z</time>
      </trkpt>
      <trkpt lat="42.48802" lon="2.63664">
        <ele>760.20001220703</ele>
        <time>2023-07-15T05:44:21.000Z</time>
      </trkpt>
      <trkpt lat="42.48806" lon="2.63653">
        <ele>760.59997558594</ele>
        <time>2023-07-15T05:44:27.000Z</time>
      </trkpt>
      <trkpt lat="42.4881" lon="2.63648">
        <ele>760.59997558594</ele>
        <time>2023-07-15T05:44:32.000Z</time>
      </trkpt>
      <trkpt lat="42.48818" lon="2.63644">
        <ele>761</ele>
        <time>2023-07-15T05:44:39.000Z</time>
      </trkpt>
      <trkpt lat="42.4882" lon="2.63643">
        <ele>761.20001220703</ele>
        <time>2023-07-15T05:44:40.000Z</time>
      </trkpt>
      <trkpt lat="42.48824" lon="2.63638">
        <ele>761.79998779297</ele>
        <time>2023-07-15T05:44:45.000Z</time>
      </trkpt>
      <trkpt lat="42.48829" lon="2.63635">
        <ele>762.20001220703</ele>
        <time>2023-07-15T05:44:48.000Z</time>
      </trkpt>
      <trkpt lat="42.48834" lon="2.63633">
        <ele>762.59997558594</ele>
        <time>2023-07-15T05:44:51.000Z</time>
      </trkpt>
      <trkpt lat="42.48835" lon="2.63634">
        <ele>763.40002441406</ele>
        <time>2023-07-15T05:44:54.000Z</time>
      </trkpt>
      <trkpt lat="42.48836" lon="2.63634">
        <ele>763.59997558594</ele>
        <time>2023-07-15T05:44:56.000Z</time>
      </trkpt>
      <trkpt lat="42.48843" lon="2.63632">
        <ele>764.59997558594</ele>
        <time>2023-07-15T05:45:02.000Z</time>
      </trkpt>
      <trkpt lat="42.48843" lon="2.63632">
        <ele>764.59997558594</ele>
        <time>2023-07-15T05:45:03.000Z</time>
      </trkpt>
      <trkpt lat="42.4885" lon="2.63625">
        <ele>765.59997558594</ele>
        <time>2023-07-15T05:45:10.000Z</time>
      </trkpt>
      <trkpt lat="42.48854" lon="2.63621">
        <ele>766.59997558594</ele>
        <time>2023-07-15T05:45:15.000Z</time>
      </trkpt>
      <trkpt lat="42.48859" lon="2.63621">
        <ele>767.40002441406</ele>
        <time>2023-07-15T05:45:19.000Z</time>
      </trkpt>
      <trkpt lat="42.48863" lon="2.6362">
        <ele>767.59997558594</ele>
        <time>2023-07-15T05:45:21.000Z</time>
      </trkpt>
      <trkpt lat="42.48868" lon="2.6362">
        <ele>768.79998779297</ele>
        <time>2023-07-15T05:45:27.000Z</time>
      </trkpt>
      <trkpt lat="42.48876" lon="2.63618">
        <ele>770</ele>
        <time>2023-07-15T05:45:34.000Z</time>
      </trkpt>
      <trkpt lat="42.48877" lon="2.63617">
        <ele>770.20001220703</ele>
        <time>2023-07-15T05:45:36.000Z</time>
      </trkpt>
      <trkpt lat="42.48881" lon="2.63616">
        <ele>770.79998779297</ele>
        <time>2023-07-15T05:45:42.000Z</time>
      </trkpt>
      <trkpt lat="42.48881" lon="2.63616">
        <ele>771</ele>
        <time>2023-07-15T05:45:43.000Z</time>
      </trkpt>
      <trkpt lat="42.48888" lon="2.63618">
        <ele>771.79998779297</ele>
        <time>2023-07-15T05:45:49.000Z</time>
      </trkpt>
      <trkpt lat="42.48892" lon="2.63621">
        <ele>772</ele>
        <time>2023-07-15T05:45:54.000Z</time>
      </trkpt>
      <trkpt lat="42.48894" lon="2.63622">
        <ele>772.40002441406</ele>
        <time>2023-07-15T05:45:57.000Z</time>
      </trkpt>
      <trkpt lat="42.48902" lon="2.63627">
        <ele>772.59997558594</ele>
        <time>2023-07-15T05:46:04.000Z</time>
      </trkpt>
      <trkpt lat="42.48908" lon="2.63629">
        <ele>773</ele>
        <time>2023-07-15T05:46:09.000Z</time>
      </trkpt>
      <trkpt lat="42.48911" lon="2.6363">
        <ele>773.40002441406</ele>
        <time>2023-07-15T05:46:12.000Z</time>
      </trkpt>
      <trkpt lat="42.48921" lon="2.63632">
        <ele>774.20001220703</ele>
        <time>2023-07-15T05:46:21.000Z</time>
      </trkpt>
      <trkpt lat="42.48931" lon="2.63633">
        <ele>775</ele>
        <time>2023-07-15T05:46:30.000Z</time>
      </trkpt>
      <trkpt lat="42.48934" lon="2.63633">
        <ele>775.20001220703</ele>
        <time>2023-07-15T05:46:32.000Z</time>
      </trkpt>
      <trkpt lat="42.48941" lon="2.63632">
        <ele>775.59997558594</ele>
        <time>2023-07-15T05:46:36.000Z</time>
      </trkpt>
      <trkpt lat="42.48945" lon="2.63629">
        <ele>776.20001220703</ele>
        <time>2023-07-15T05:46:41.000Z</time>
      </trkpt>
      <trkpt lat="42.4895" lon="2.63625">
        <ele>777</ele>
        <time>2023-07-15T05:46:46.000Z</time>
      </trkpt>
      <trkpt lat="42.4895" lon="2.63623">
        <ele>777.40002441406</ele>
        <time>2023-07-15T05:46:48.000Z</time>
      </trkpt>
      <trkpt lat="42.48955" lon="2.63619">
        <ele>778</ele>
        <time>2023-07-15T05:46:52.000Z</time>
      </trkpt>
      <trkpt lat="42.48957" lon="2.63616">
        <ele>778.40002441406</ele>
        <time>2023-07-15T05:46:56.000Z</time>
      </trkpt>
      <trkpt lat="42.48961" lon="2.63615">
        <ele>779</ele>
        <time>2023-07-15T05:47:00.000Z</time>
      </trkpt>
      <trkpt lat="42.48966" lon="2.63613">
        <ele>779.59997558594</ele>
        <time>2023-07-15T05:47:04.000Z</time>
      </trkpt>
      <trkpt lat="42.48973" lon="2.63611">
        <ele>780.59997558594</ele>
        <time>2023-07-15T05:47:09.000Z</time>
      </trkpt>
      <trkpt lat="42.48974" lon="2.6361">
        <ele>780.79998779297</ele>
        <time>2023-07-15T05:47:10.000Z</time>
      </trkpt>
      <trkpt lat="42.4898" lon="2.6361">
        <ele>781.40002441406</ele>
        <time>2023-07-15T05:47:16.000Z</time>
      </trkpt>
      <trkpt lat="42.48983" lon="2.6361">
        <ele>781.79998779297</ele>
        <time>2023-07-15T05:47:19.000Z</time>
      </trkpt>
      <trkpt lat="42.48988" lon="2.63608">
        <ele>782.79998779297</ele>
        <time>2023-07-15T05:47:24.000Z</time>
      </trkpt>
      <trkpt lat="42.4899" lon="2.63608">
        <ele>783</ele>
        <time>2023-07-15T05:47:26.000Z</time>
      </trkpt>
      <trkpt lat="42.48999" lon="2.63609">
        <ele>783.59997558594</ele>
        <time>2023-07-15T05:47:33.000Z</time>
      </trkpt>
      <trkpt lat="42.49005" lon="2.63608">
        <ele>784</ele>
        <time>2023-07-15T05:47:37.000Z</time>
      </trkpt>
      <trkpt lat="42.49012" lon="2.63605">
        <ele>784.79998779297</ele>
        <time>2023-07-15T05:47:42.000Z</time>
      </trkpt>
      <trkpt lat="42.49016" lon="2.63603">
        <ele>785.20001220703</ele>
        <time>2023-07-15T05:47:46.000Z</time>
      </trkpt>
      <trkpt lat="42.49022" lon="2.63601">
        <ele>786</ele>
        <time>2023-07-15T05:47:52.000Z</time>
      </trkpt>
      <trkpt lat="42.49024" lon="2.63599">
        <ele>786.40002441406</ele>
        <time>2023-07-15T05:47:54.000Z</time>
      </trkpt>
      <trkpt lat="42.49029" lon="2.63598">
        <ele>787</ele>
        <time>2023-07-15T05:47:59.000Z</time>
      </trkpt>
      <trkpt lat="42.49032" lon="2.63597">
        <ele>787.40002441406</ele>
        <time>2023-07-15T05:48:02.000Z</time>
      </trkpt>
      <trkpt lat="42.49038" lon="2.63593">
        <ele>788.20001220703</ele>
        <time>2023-07-15T05:48:09.000Z</time>
      </trkpt>
      <trkpt lat="42.4904" lon="2.63592">
        <ele>788.40002441406</ele>
        <time>2023-07-15T05:48:11.000Z</time>
      </trkpt>
      <trkpt lat="42.49048" lon="2.63591">
        <ele>789.20001220703</ele>
        <time>2023-07-15T05:48:17.000Z</time>
      </trkpt>
      <trkpt lat="42.49049" lon="2.63591">
        <ele>789.40002441406</ele>
        <time>2023-07-15T05:48:18.000Z</time>
      </trkpt>
      <trkpt lat="42.49058" lon="2.63592">
        <ele>790.40002441406</ele>
        <time>2023-07-15T05:48:25.000Z</time>
      </trkpt>
      <trkpt lat="42.49059" lon="2.63592">
        <ele>790.59997558594</ele>
        <time>2023-07-15T05:48:27.000Z</time>
      </trkpt>
      <trkpt lat="42.49067" lon="2.6359">
        <ele>791.40002441406</ele>
        <time>2023-07-15T05:48:34.000Z</time>
      </trkpt>
      <trkpt lat="42.49068" lon="2.63589">
        <ele>791.59997558594</ele>
        <time>2023-07-15T05:48:35.000Z</time>
      </trkpt>
      <trkpt lat="42.49074" lon="2.63586">
        <ele>792.59997558594</ele>
        <time>2023-07-15T05:48:42.000Z</time>
      </trkpt>
      <trkpt lat="42.49075" lon="2.63585">
        <ele>792.79998779297</ele>
        <time>2023-07-15T05:48:43.000Z</time>
      </trkpt>
      <trkpt lat="42.49081" lon="2.63582">
        <ele>793.79998779297</ele>
        <time>2023-07-15T05:48:49.000Z</time>
      </trkpt>
      <trkpt lat="42.49081" lon="2.63581">
        <ele>793.79998779297</ele>
        <time>2023-07-15T05:48:50.000Z</time>
      </trkpt>
      <trkpt lat="42.49086" lon="2.63579">
        <ele>794.79998779297</ele>
        <time>2023-07-15T05:48:56.000Z</time>
      </trkpt>
      <trkpt lat="42.49088" lon="2.63578">
        <ele>795</ele>
        <time>2023-07-15T05:48:58.000Z</time>
      </trkpt>
      <trkpt lat="42.49093" lon="2.63575">
        <ele>796</ele>
        <time>2023-07-15T05:49:03.000Z</time>
      </trkpt>
      <trkpt lat="42.49096" lon="2.63573">
        <ele>796.20001220703</ele>
        <time>2023-07-15T05:49:05.000Z</time>
      </trkpt>
      <trkpt lat="42.49102" lon="2.63569">
        <ele>797</ele>
        <time>2023-07-15T05:49:11.000Z</time>
      </trkpt>
      <trkpt lat="42.49104" lon="2.6357">
        <ele>797.20001220703</ele>
        <time>2023-07-15T05:49:13.000Z</time>
      </trkpt>
      <trkpt lat="42.49112" lon="2.63571">
        <ele>798.20001220703</ele>
        <time>2023-07-15T05:49:20.000Z</time>
      </trkpt>
      <trkpt lat="42.49119" lon="2.63568">
        <ele>799</ele>
        <time>2023-07-15T05:49:27.000Z</time>
      </trkpt>
      <trkpt lat="42.4912" lon="2.63567">
        <ele>799.20001220703</ele>
        <time>2023-07-15T05:49:29.000Z</time>
      </trkpt>
      <trkpt lat="42.49127" lon="2.63565">
        <ele>799.79998779297</ele>
        <time>2023-07-15T05:49:34.000Z</time>
      </trkpt>
      <trkpt lat="42.49132" lon="2.63564">
        <ele>800.20001220703</ele>
        <time>2023-07-15T05:49:38.000Z</time>
      </trkpt>
      <trkpt lat="42.49136" lon="2.63563">
        <ele>800.59997558594</ele>
        <time>2023-07-15T05:49:41.000Z</time>
      </trkpt>
      <trkpt lat="42.49143" lon="2.63563">
        <ele>801.40002441406</ele>
        <time>2023-07-15T05:49:47.000Z</time>
      </trkpt>
      <trkpt lat="42.49145" lon="2.63563">
        <ele>801.59997558594</ele>
        <time>2023-07-15T05:49:49.000Z</time>
      </trkpt>
      <trkpt lat="42.49154" lon="2.63562">
        <ele>802.40002441406</ele>
        <time>2023-07-15T05:49:56.000Z</time>
      </trkpt>
      <trkpt lat="42.49156" lon="2.63561">
        <ele>802.59997558594</ele>
        <time>2023-07-15T05:49:58.000Z</time>
      </trkpt>
      <trkpt lat="42.49162" lon="2.63558">
        <ele>803.59997558594</ele>
        <time>2023-07-15T05:50:05.000Z</time>
      </trkpt>
      <trkpt lat="42.49163" lon="2.63558">
        <ele>803.79998779297</ele>
        <time>2023-07-15T05:50:06.000Z</time>
      </trkpt>
      <trkpt lat="42.49172" lon="2.63554">
        <ele>804.40002441406</ele>
        <time>2023-07-15T05:50:13.000Z</time>
      </trkpt>
      <trkpt lat="42.49174" lon="2.63553">
        <ele>804.59997558594</ele>
        <time>2023-07-15T05:50:14.000Z</time>
      </trkpt>
      <trkpt lat="42.49179" lon="2.63547">
        <ele>805.40002441406</ele>
        <time>2023-07-15T05:50:20.000Z</time>
      </trkpt>
      <trkpt lat="42.49181" lon="2.63545">
        <ele>805.59997558594</ele>
        <time>2023-07-15T05:50:23.000Z</time>
      </trkpt>
      <trkpt lat="42.49184" lon="2.63543">
        <ele>806.20001220703</ele>
        <time>2023-07-15T05:50:26.000Z</time>
      </trkpt>
      <trkpt lat="42.4919" lon="2.63541">
        <ele>806.40002441406</ele>
        <time>2023-07-15T05:50:31.000Z</time>
      </trkpt>
      <trkpt lat="42.49192" lon="2.63543">
        <ele>806.79998779297</ele>
        <time>2023-07-15T05:50:33.000Z</time>
      </trkpt>
      <trkpt lat="42.49193" lon="2.63548">
        <ele>807.40002441406</ele>
        <time>2023-07-15T05:50:37.000Z</time>
      </trkpt>
      <trkpt lat="42.49191" lon="2.63553">
        <ele>808</ele>
        <time>2023-07-15T05:50:40.000Z</time>
      </trkpt>
      <trkpt lat="42.49187" lon="2.6356">
        <ele>808.59997558594</ele>
        <time>2023-07-15T05:50:44.000Z</time>
      </trkpt>
      <trkpt lat="42.49186" lon="2.6356">
        <ele>809</ele>
        <time>2023-07-15T05:50:47.000Z</time>
      </trkpt>
      <trkpt lat="42.49186" lon="2.6356">
        <ele>809</ele>
        <time>2023-07-15T05:50:51.000Z</time>
      </trkpt>
      <trkpt lat="42.49187" lon="2.63564">
        <ele>809.20001220703</ele>
        <time>2023-07-15T05:51:01.000Z</time>
      </trkpt>
      <trkpt lat="42.49192" lon="2.63559">
        <ele>809</ele>
        <time>2023-07-15T05:51:09.000Z</time>
      </trkpt>
      <trkpt lat="42.49193" lon="2.63544">
        <ele>808</ele>
        <time>2023-07-15T05:51:17.000Z</time>
      </trkpt>
      <trkpt lat="42.49193" lon="2.63541">
        <ele>807.79998779297</ele>
        <time>2023-07-15T05:51:18.000Z</time>
      </trkpt>
      <trkpt lat="42.49197" lon="2.63527">
        <ele>807.59997558594</ele>
        <time>2023-07-15T05:51:25.000Z</time>
      </trkpt>
      <trkpt lat="42.49201" lon="2.6352">
        <ele>807.79998779297</ele>
        <time>2023-07-15T05:51:31.000Z</time>
      </trkpt>
      <trkpt lat="42.49211" lon="2.63516">
        <ele>808.40002441406</ele>
        <time>2023-07-15T05:51:39.000Z</time>
      </trkpt>
      <trkpt lat="42.4922" lon="2.63511">
        <ele>808.79998779297</ele>
        <time>2023-07-15T05:51:46.000Z</time>
      </trkpt>
      <trkpt lat="42.49223" lon="2.63509">
        <ele>809</ele>
        <time>2023-07-15T05:51:48.000Z</time>
      </trkpt>
      <trkpt lat="42.4923" lon="2.63504">
        <ele>809.40002441406</ele>
        <time>2023-07-15T05:51:55.000Z</time>
      </trkpt>
      <trkpt lat="42.49235" lon="2.63501">
        <ele>809.79998779297</ele>
        <time>2023-07-15T05:52:00.000Z</time>
      </trkpt>
      <trkpt lat="42.49238" lon="2.63499">
        <ele>810</ele>
        <time>2023-07-15T05:52:02.000Z</time>
      </trkpt>
      <trkpt lat="42.49249" lon="2.6349">
        <ele>810.79998779297</ele>
        <time>2023-07-15T05:52:12.000Z</time>
      </trkpt>
      <trkpt lat="42.49251" lon="2.63487">
        <ele>811</ele>
        <time>2023-07-15T05:52:15.000Z</time>
      </trkpt>
      <trkpt lat="42.49257" lon="2.63481">
        <ele>811.20001220703</ele>
        <time>2023-07-15T05:52:20.000Z</time>
      </trkpt>
      <trkpt lat="42.49267" lon="2.63473">
        <ele>811.79998779297</ele>
        <time>2023-07-15T05:52:29.000Z</time>
      </trkpt>
      <trkpt lat="42.49269" lon="2.63472">
        <ele>812</ele>
        <time>2023-07-15T05:52:31.000Z</time>
      </trkpt>
      <trkpt lat="42.49279" lon="2.63465">
        <ele>812.40002441406</ele>
        <time>2023-07-15T05:52:38.000Z</time>
      </trkpt>
      <trkpt lat="42.49287" lon="2.63459">
        <ele>812.79998779297</ele>
        <time>2023-07-15T05:52:45.000Z</time>
      </trkpt>
      <trkpt lat="42.49292" lon="2.63455">
        <ele>813</ele>
        <time>2023-07-15T05:52:49.000Z</time>
      </trkpt>
      <trkpt lat="42.49296" lon="2.63449">
        <ele>813.59997558594</ele>
        <time>2023-07-15T05:52:55.000Z</time>
      </trkpt>
      <trkpt lat="42.49303" lon="2.63439">
        <ele>814</ele>
        <time>2023-07-15T05:53:02.000Z</time>
      </trkpt>
      <trkpt lat="42.49314" lon="2.63439">
        <ele>814.59997558594</ele>
        <time>2023-07-15T05:53:10.000Z</time>
      </trkpt>
      <trkpt lat="42.49311" lon="2.63448">
        <ele>815</ele>
        <time>2023-07-15T05:53:17.000Z</time>
      </trkpt>
      <trkpt lat="42.49306" lon="2.63451">
        <ele>816.20001220703</ele>
        <time>2023-07-15T05:53:22.000Z</time>
      </trkpt>
      <trkpt lat="42.49305" lon="2.63452">
        <ele>816.40002441406</ele>
        <time>2023-07-15T05:53:23.000Z</time>
      </trkpt>
      <trkpt lat="42.49296" lon="2.63461">
        <ele>817.20001220703</ele>
        <time>2023-07-15T05:53:31.000Z</time>
      </trkpt>
      <trkpt lat="42.49295" lon="2.63463">
        <ele>817.20001220703</ele>
        <time>2023-07-15T05:53:32.000Z</time>
      </trkpt>
      <trkpt lat="42.49289" lon="2.63473">
        <ele>818.20001220703</ele>
        <time>2023-07-15T05:53:39.000Z</time>
      </trkpt>
      <trkpt lat="42.49288" lon="2.63476">
        <ele>818.20001220703</ele>
        <time>2023-07-15T05:53:40.000Z</time>
      </trkpt>
      <trkpt lat="42.49282" lon="2.63483">
        <ele>819.20001220703</ele>
        <time>2023-07-15T05:53:46.000Z</time>
      </trkpt>
      <trkpt lat="42.4928" lon="2.63486">
        <ele>819.40002441406</ele>
        <time>2023-07-15T05:53:49.000Z</time>
      </trkpt>
      <trkpt lat="42.49272" lon="2.63494">
        <ele>820.20001220703</ele>
        <time>2023-07-15T05:53:56.000Z</time>
      </trkpt>
      <trkpt lat="42.49271" lon="2.63495">
        <ele>820.40002441406</ele>
        <time>2023-07-15T05:53:57.000Z</time>
      </trkpt>
      <trkpt lat="42.49263" lon="2.63503">
        <ele>821.40002441406</ele>
        <time>2023-07-15T05:54:05.000Z</time>
      </trkpt>
      <trkpt lat="42.49264" lon="2.63504">
        <ele>821.40002441406</ele>
        <time>2023-07-15T05:54:06.000Z</time>
      </trkpt>
      <trkpt lat="42.49259" lon="2.63512">
        <ele>822.20001220703</ele>
        <time>2023-07-15T05:54:12.000Z</time>
      </trkpt>
      <trkpt lat="42.49258" lon="2.63514">
        <ele>822.59997558594</ele>
        <time>2023-07-15T05:54:14.000Z</time>
      </trkpt>
      <trkpt lat="42.49254" lon="2.63524">
        <ele>823.79998779297</ele>
        <time>2023-07-15T05:54:21.000Z</time>
      </trkpt>
      <trkpt lat="42.49243" lon="2.63533">
        <ele>824.79998779297</ele>
        <time>2023-07-15T05:54:30.000Z</time>
      </trkpt>
      <trkpt lat="42.49238" lon="2.63542">
        <ele>825.79998779297</ele>
        <time>2023-07-15T05:54:38.000Z</time>
      </trkpt>
      <trkpt lat="42.49237" lon="2.63544">
        <ele>825.79998779297</ele>
        <time>2023-07-15T05:54:39.000Z</time>
      </trkpt>
      <trkpt lat="42.49234" lon="2.63555">
        <ele>827</ele>
        <time>2023-07-15T05:54:47.000Z</time>
      </trkpt>
      <trkpt lat="42.49234" lon="2.63557">
        <ele>827</ele>
        <time>2023-07-15T05:54:48.000Z</time>
      </trkpt>
      <trkpt lat="42.4923" lon="2.6357">
        <ele>828</ele>
        <time>2023-07-15T05:54:56.000Z</time>
      </trkpt>
      <trkpt lat="42.49229" lon="2.63572">
        <ele>828.20001220703</ele>
        <time>2023-07-15T05:54:57.000Z</time>
      </trkpt>
      <trkpt lat="42.49227" lon="2.63588">
        <ele>829.20001220703</ele>
        <time>2023-07-15T05:55:06.000Z</time>
      </trkpt>
      <trkpt lat="42.49221" lon="2.63599">
        <ele>830</ele>
        <time>2023-07-15T05:55:14.000Z</time>
      </trkpt>
      <trkpt lat="42.4922" lon="2.63602">
        <ele>830.20001220703</ele>
        <time>2023-07-15T05:55:16.000Z</time>
      </trkpt>
      <trkpt lat="42.49214" lon="2.63613">
        <ele>831.40002441406</ele>
        <time>2023-07-15T05:55:23.000Z</time>
      </trkpt>
      <trkpt lat="42.49213" lon="2.63621">
        <ele>832.59997558594</ele>
        <time>2023-07-15T05:55:30.000Z</time>
      </trkpt>
      <trkpt lat="42.49211" lon="2.63626">
        <ele>833</ele>
        <time>2023-07-15T05:55:33.000Z</time>
      </trkpt>
      <trkpt lat="42.49208" lon="2.63631">
        <ele>833.59997558594</ele>
        <time>2023-07-15T05:55:37.000Z</time>
      </trkpt>
      <trkpt lat="42.49203" lon="2.63637">
        <ele>834.40002441406</ele>
        <time>2023-07-15T05:55:42.000Z</time>
      </trkpt>
      <trkpt lat="42.49202" lon="2.63638">
        <ele>834.59997558594</ele>
        <time>2023-07-15T05:55:43.000Z</time>
      </trkpt>
      <trkpt lat="42.49195" lon="2.63641">
        <ele>835.59997558594</ele>
        <time>2023-07-15T05:55:50.000Z</time>
      </trkpt>
      <trkpt lat="42.49195" lon="2.63641">
        <ele>835.79998779297</ele>
        <time>2023-07-15T05:55:51.000Z</time>
      </trkpt>
      <trkpt lat="42.49186" lon="2.63645">
        <ele>838</ele>
        <time>2023-07-15T05:56:04.000Z</time>
      </trkpt>
      <trkpt lat="42.49185" lon="2.63645">
        <ele>838.20001220703</ele>
        <time>2023-07-15T05:56:05.000Z</time>
      </trkpt>
      <trkpt lat="42.49178" lon="2.6365">
        <ele>839.20001220703</ele>
        <time>2023-07-15T05:56:13.000Z</time>
      </trkpt>
      <trkpt lat="42.49175" lon="2.63652">
        <ele>839.40002441406</ele>
        <time>2023-07-15T05:56:15.000Z</time>
      </trkpt>
      <trkpt lat="42.49167" lon="2.63661">
        <ele>840.20001220703</ele>
        <time>2023-07-15T05:56:22.000Z</time>
      </trkpt>
      <trkpt lat="42.49165" lon="2.63663">
        <ele>840.40002441406</ele>
        <time>2023-07-15T05:56:23.000Z</time>
      </trkpt>
      <trkpt lat="42.49159" lon="2.63671">
        <ele>841.40002441406</ele>
        <time>2023-07-15T05:56:30.000Z</time>
      </trkpt>
      <trkpt lat="42.4916" lon="2.63673">
        <ele>841.79998779297</ele>
        <time>2023-07-15T05:56:32.000Z</time>
      </trkpt>
      <trkpt lat="42.49161" lon="2.63674">
        <ele>842</ele>
        <time>2023-07-15T05:56:33.000Z</time>
      </trkpt>
      <trkpt lat="42.49164" lon="2.63675">
        <ele>842.40002441406</ele>
        <time>2023-07-15T05:56:36.000Z</time>
      </trkpt>
      <trkpt lat="42.49166" lon="2.63675">
        <ele>842.79998779297</ele>
        <time>2023-07-15T05:56:38.000Z</time>
      </trkpt>
      <trkpt lat="42.4917" lon="2.63672">
        <ele>843.40002441406</ele>
        <time>2023-07-15T05:56:42.000Z</time>
      </trkpt>
      <trkpt lat="42.49174" lon="2.6367">
        <ele>844.20001220703</ele>
        <time>2023-07-15T05:56:47.000Z</time>
      </trkpt>
      <trkpt lat="42.49176" lon="2.6367">
        <ele>844.59997558594</ele>
        <time>2023-07-15T05:56:49.000Z</time>
      </trkpt>
      <trkpt lat="42.49184" lon="2.63673">
        <ele>845.59997558594</ele>
        <time>2023-07-15T05:56:55.000Z</time>
      </trkpt>
      <trkpt lat="42.49191" lon="2.63674">
        <ele>846.59997558594</ele>
        <time>2023-07-15T05:57:02.000Z</time>
      </trkpt>
      <trkpt lat="42.49201" lon="2.63674">
        <ele>847.79998779297</ele>
        <time>2023-07-15T05:57:10.000Z</time>
      </trkpt>
      <trkpt lat="42.49202" lon="2.63674">
        <ele>848</ele>
        <time>2023-07-15T05:57:11.000Z</time>
      </trkpt>
      <trkpt lat="42.49207" lon="2.63676">
        <ele>848.79998779297</ele>
        <time>2023-07-15T05:57:17.000Z</time>
      </trkpt>
      <trkpt lat="42.49208" lon="2.63676">
        <ele>848.79998779297</ele>
        <time>2023-07-15T05:57:18.000Z</time>
      </trkpt>
      <trkpt lat="42.49216" lon="2.63676">
        <ele>850</ele>
        <time>2023-07-15T05:57:25.000Z</time>
      </trkpt>
      <trkpt lat="42.49223" lon="2.63672">
        <ele>851</ele>
        <time>2023-07-15T05:57:31.000Z</time>
      </trkpt>
      <trkpt lat="42.49225" lon="2.6367">
        <ele>851.20001220703</ele>
        <time>2023-07-15T05:57:33.000Z</time>
      </trkpt>
      <trkpt lat="42.49229" lon="2.63667">
        <ele>852</ele>
        <time>2023-07-15T05:57:38.000Z</time>
      </trkpt>
      <trkpt lat="42.49231" lon="2.63664">
        <ele>852.59997558594</ele>
        <time>2023-07-15T05:57:42.000Z</time>
      </trkpt>
      <trkpt lat="42.49233" lon="2.63662">
        <ele>853</ele>
        <time>2023-07-15T05:57:44.000Z</time>
      </trkpt>
      <trkpt lat="42.4924" lon="2.63652">
        <ele>853.79998779297</ele>
        <time>2023-07-15T05:57:51.000Z</time>
      </trkpt>
      <trkpt lat="42.49241" lon="2.63649">
        <ele>854.20001220703</ele>
        <time>2023-07-15T05:57:54.000Z</time>
      </trkpt>
      <trkpt lat="42.49244" lon="2.63642">
        <ele>854.79998779297</ele>
        <time>2023-07-15T05:57:58.000Z</time>
      </trkpt>
      <trkpt lat="42.49245" lon="2.63641">
        <ele>855.40002441406</ele>
        <time>2023-07-15T05:58:01.000Z</time>
      </trkpt>
      <trkpt lat="42.49247" lon="2.63639">
        <ele>855.40002441406</ele>
        <time>2023-07-15T05:58:03.000Z</time>
      </trkpt>
      <trkpt lat="42.49255" lon="2.63634">
        <ele>856</ele>
        <time>2023-07-15T05:58:11.000Z</time>
      </trkpt>
      <trkpt lat="42.49258" lon="2.63633">
        <ele>856.59997558594</ele>
        <time>2023-07-15T05:58:15.000Z</time>
      </trkpt>
      <trkpt lat="42.49261" lon="2.63631">
        <ele>857.20001220703</ele>
        <time>2023-07-15T05:58:18.000Z</time>
      </trkpt>
      <trkpt lat="42.49263" lon="2.6363">
        <ele>857.59997558594</ele>
        <time>2023-07-15T05:58:20.000Z</time>
      </trkpt>
      <trkpt lat="42.49268" lon="2.63625">
        <ele>858</ele>
        <time>2023-07-15T05:58:25.000Z</time>
      </trkpt>
      <trkpt lat="42.49277" lon="2.6362">
        <ele>858.59997558594</ele>
        <time>2023-07-15T05:58:32.000Z</time>
      </trkpt>
      <trkpt lat="42.49285" lon="2.63614">
        <ele>859.59997558594</ele>
        <time>2023-07-15T05:58:40.000Z</time>
      </trkpt>
      <trkpt lat="42.49296" lon="2.63609">
        <ele>860.79998779297</ele>
        <time>2023-07-15T05:58:49.000Z</time>
      </trkpt>
      <trkpt lat="42.49303" lon="2.63606">
        <ele>862</ele>
        <time>2023-07-15T05:58:55.000Z</time>
      </trkpt>
      <trkpt lat="42.49304" lon="2.63604">
        <ele>862</ele>
        <time>2023-07-15T05:58:57.000Z</time>
      </trkpt>
      <trkpt lat="42.49311" lon="2.63599">
        <ele>862.79998779297</ele>
        <time>2023-07-15T05:59:03.000Z</time>
      </trkpt>
      <trkpt lat="42.49312" lon="2.63598">
        <ele>863</ele>
        <time>2023-07-15T05:59:04.000Z</time>
      </trkpt>
      <trkpt lat="42.49318" lon="2.63594">
        <ele>864</ele>
        <time>2023-07-15T05:59:10.000Z</time>
      </trkpt>
      <trkpt lat="42.49321" lon="2.63594">
        <ele>864</ele>
        <time>2023-07-15T05:59:12.000Z</time>
      </trkpt>
      <trkpt lat="42.49331" lon="2.63595">
        <ele>864.79998779297</ele>
        <time>2023-07-15T05:59:19.000Z</time>
      </trkpt>
      <trkpt lat="42.49334" lon="2.63595">
        <ele>865.20001220703</ele>
        <time>2023-07-15T05:59:22.000Z</time>
      </trkpt>
      <trkpt lat="42.49339" lon="2.63597">
        <ele>865.59997558594</ele>
        <time>2023-07-15T05:59:27.000Z</time>
      </trkpt>
      <trkpt lat="42.49343" lon="2.63598">
        <ele>866.20001220703</ele>
        <time>2023-07-15T05:59:30.000Z</time>
      </trkpt>
      <trkpt lat="42.49349" lon="2.63598">
        <ele>866.79998779297</ele>
        <time>2023-07-15T05:59:34.000Z</time>
      </trkpt>
      <trkpt lat="42.49351" lon="2.63599">
        <ele>867.20001220703</ele>
        <time>2023-07-15T05:59:36.000Z</time>
      </trkpt>
      <trkpt lat="42.49358" lon="2.63598">
        <ele>867.79998779297</ele>
        <time>2023-07-15T05:59:42.000Z</time>
      </trkpt>
      <trkpt lat="42.49364" lon="2.63599">
        <ele>868.40002441406</ele>
        <time>2023-07-15T05:59:47.000Z</time>
      </trkpt>
      <trkpt lat="42.49367" lon="2.63599">
        <ele>868.59997558594</ele>
        <time>2023-07-15T05:59:50.000Z</time>
      </trkpt>
      <trkpt lat="42.49374" lon="2.63601">
        <ele>869.40002441406</ele>
        <time>2023-07-15T05:59:56.000Z</time>
      </trkpt>
      <trkpt lat="42.49375" lon="2.63602">
        <ele>869.59997558594</ele>
        <time>2023-07-15T05:59:58.000Z</time>
      </trkpt>
      <trkpt lat="42.49384" lon="2.63604">
        <ele>870.59997558594</ele>
        <time>2023-07-15T06:00:05.000Z</time>
      </trkpt>
      <trkpt lat="42.49385" lon="2.63604">
        <ele>870.59997558594</ele>
        <time>2023-07-15T06:00:07.000Z</time>
      </trkpt>
      <trkpt lat="42.49391" lon="2.63603">
        <ele>871.59997558594</ele>
        <time>2023-07-15T06:00:14.000Z</time>
      </trkpt>
      <trkpt lat="42.49392" lon="2.63603">
        <ele>871.79998779297</ele>
        <time>2023-07-15T06:00:16.000Z</time>
      </trkpt>
      <trkpt lat="42.494" lon="2.63598">
        <ele>872.20001220703</ele>
        <time>2023-07-15T06:00:24.000Z</time>
      </trkpt>
      <trkpt lat="42.49407" lon="2.63594">
        <ele>872.59997558594</ele>
        <time>2023-07-15T06:00:30.000Z</time>
      </trkpt>
      <trkpt lat="42.49407" lon="2.63594">
        <ele>872.59997558594</ele>
        <time>2023-07-15T06:00:31.000Z</time>
      </trkpt>
      <trkpt lat="42.49407" lon="2.63594">
        <ele>872.79998779297</ele>
        <time>2023-07-15T06:00:34.000Z</time>
      </trkpt>
      <trkpt lat="42.49404" lon="2.63595">
        <ele>873</ele>
        <time>2023-07-15T06:00:37.000Z</time>
      </trkpt>
      <trkpt lat="42.49404" lon="2.63605">
        <ele>872.40002441406</ele>
        <time>2023-07-15T06:00:45.000Z</time>
      </trkpt>
      <trkpt lat="42.49409" lon="2.63614">
        <ele>871.59997558594</ele>
        <time>2023-07-15T06:00:52.000Z</time>
      </trkpt>
      <trkpt lat="42.4941" lon="2.63614">
        <ele>871.40002441406</ele>
        <time>2023-07-15T06:00:53.000Z</time>
      </trkpt>
      <trkpt lat="42.49411" lon="2.63615">
        <ele>871.20001220703</ele>
        <time>2023-07-15T06:00:58.000Z</time>
      </trkpt>
      <trkpt lat="42.4941" lon="2.63615">
        <ele>871.20001220703</ele>
        <time>2023-07-15T06:01:00.000Z</time>
      </trkpt>
      <trkpt lat="42.49406" lon="2.63619">
        <ele>871.20001220703</ele>
        <time>2023-07-15T06:01:07.000Z</time>
      </trkpt>
      <trkpt lat="42.49402" lon="2.63622">
        <ele>870.79998779297</ele>
        <time>2023-07-15T06:01:13.000Z</time>
      </trkpt>
      <trkpt lat="42.49402" lon="2.63621">
        <ele>870.79998779297</ele>
        <time>2023-07-15T06:01:14.000Z</time>
      </trkpt>
      <trkpt lat="42.49401" lon="2.6362">
        <ele>870.79998779297</ele>
        <time>2023-07-15T06:01:16.000Z</time>
      </trkpt>
      <trkpt lat="42.49398" lon="2.63616">
        <ele>871.20001220703</ele>
        <time>2023-07-15T06:01:20.000Z</time>
      </trkpt>
      <trkpt lat="42.49398" lon="2.63616">
        <ele>872</ele>
        <time>2023-07-15T06:01:27.000Z</time>
      </trkpt>
      <trkpt lat="42.49396" lon="2.63613">
        <ele>871.79998779297</ele>
        <time>2023-07-15T06:01:36.000Z</time>
      </trkpt>
      <trkpt lat="42.494" lon="2.63616">
        <ele>872</ele>
        <time>2023-07-15T06:01:43.000Z</time>
      </trkpt>
      <trkpt lat="42.49402" lon="2.63616">
        <ele>872</ele>
        <time>2023-07-15T06:01:53.000Z</time>
      </trkpt>
      <trkpt lat="42.49399" lon="2.63619">
        <ele>871.79998779297</ele>
        <time>2023-07-15T06:01:59.000Z</time>
      </trkpt>
      <trkpt lat="42.49395" lon="2.6362">
        <ele>871.79998779297</ele>
        <time>2023-07-15T06:02:02.000Z</time>
      </trkpt>
      <trkpt lat="42.49394" lon="2.63621">
        <ele>871.79998779297</ele>
        <time>2023-07-15T06:02:03.000Z</time>
      </trkpt>
      <trkpt lat="42.49394" lon="2.63624">
        <ele>871.40002441406</ele>
        <time>2023-07-15T06:02:08.000Z</time>
      </trkpt>
      <trkpt lat="42.49395" lon="2.63625">
        <ele>871.40002441406</ele>
        <time>2023-07-15T06:02:09.000Z</time>
      </trkpt>
      <trkpt lat="42.49396" lon="2.63625">
        <ele>870.40002441406</ele>
        <time>2023-07-15T06:02:15.000Z</time>
      </trkpt>
      <trkpt lat="42.49396" lon="2.63626">
        <ele>870.20001220703</ele>
        <time>2023-07-15T06:02:18.000Z</time>
      </trkpt>
      <trkpt lat="42.49393" lon="2.63624">
        <ele>870.40002441406</ele>
        <time>2023-07-15T06:02:26.000Z</time>
      </trkpt>
      <trkpt lat="42.49392" lon="2.63621">
        <ele>871.20001220703</ele>
        <time>2023-07-15T06:02:35.000Z</time>
      </trkpt>
      <trkpt lat="42.49393" lon="2.63622">
        <ele>871.20001220703</ele>
        <time>2023-07-15T06:02:47.000Z</time>
      </trkpt>
      <trkpt lat="42.49393" lon="2.6362">
        <ele>871.20001220703</ele>
        <time>2023-07-15T06:03:01.000Z</time>
      </trkpt>
      <trkpt lat="42.49393" lon="2.63614">
        <ele>871.20001220703</ele>
        <time>2023-07-15T06:03:11.000Z</time>
      </trkpt>
      <trkpt lat="42.49392" lon="2.63611">
        <ele>871.20001220703</ele>
        <time>2023-07-15T06:03:19.000Z</time>
      </trkpt>
      <trkpt lat="42.49394" lon="2.63613">
        <ele>871.20001220703</ele>
        <time>2023-07-15T06:03:28.000Z</time>
      </trkpt>
      <trkpt lat="42.49396" lon="2.63617">
        <ele>871.40002441406</ele>
        <time>2023-07-15T06:03:35.000Z</time>
      </trkpt>
      <trkpt lat="42.49396" lon="2.63617">
        <ele>871.40002441406</ele>
        <time>2023-07-15T06:03:36.000Z</time>
      </trkpt>
      <trkpt lat="42.49397" lon="2.63616">
        <ele>871.59997558594</ele>
        <time>2023-07-15T06:03:41.000Z</time>
      </trkpt>
      <trkpt lat="42.49399" lon="2.63612">
        <ele>871.40002441406</ele>
        <time>2023-07-15T06:03:50.000Z</time>
      </trkpt>
      <trkpt lat="42.49403" lon="2.63608">
        <ele>871.40002441406</ele>
        <time>2023-07-15T06:03:55.000Z</time>
      </trkpt>
      <trkpt lat="42.49408" lon="2.63614">
        <ele>871</ele>
        <time>2023-07-15T06:04:03.000Z</time>
      </trkpt>
      <trkpt lat="42.4941" lon="2.63611">
        <ele>870.79998779297</ele>
        <time>2023-07-15T06:04:10.000Z</time>
      </trkpt>
      <trkpt lat="42.49409" lon="2.63613">
        <ele>870.59997558594</ele>
        <time>2023-07-15T06:04:19.000Z</time>
      </trkpt>
      <trkpt lat="42.49409" lon="2.63613">
        <ele>870.59997558594</ele>
        <time>2023-07-15T06:04:28.000Z</time>
      </trkpt>
      <trkpt lat="42.4941" lon="2.63609">
        <ele>870.59997558594</ele>
        <time>2023-07-15T06:04:34.000Z</time>
      </trkpt>
      <trkpt lat="42.49406" lon="2.63612">
        <ele>871.20001220703</ele>
        <time>2023-07-15T06:04:39.000Z</time>
      </trkpt>
      <trkpt lat="42.494" lon="2.63615">
        <ele>871.40002441406</ele>
        <time>2023-07-15T06:04:45.000Z</time>
      </trkpt>
      <trkpt lat="42.49399" lon="2.63615">
        <ele>871</ele>
        <time>2023-07-15T06:04:56.000Z</time>
      </trkpt>
      <trkpt lat="42.49398" lon="2.63616">
        <ele>871.20001220703</ele>
        <time>2023-07-15T06:05:03.000Z</time>
      </trkpt>
      <trkpt lat="42.49398" lon="2.63616">
        <ele>871.20001220703</ele>
        <time>2023-07-15T06:05:11.000Z</time>
      </trkpt>
      <trkpt lat="42.49397" lon="2.63615">
        <ele>871.40002441406</ele>
        <time>2023-07-15T06:05:20.000Z</time>
      </trkpt>
      <trkpt lat="42.49399" lon="2.63615">
        <ele>871.40002441406</ele>
        <time>2023-07-15T06:05:29.000Z</time>
      </trkpt>
      <trkpt lat="42.49396" lon="2.63613">
        <ele>871.59997558594</ele>
        <time>2023-07-15T06:05:38.000Z</time>
      </trkpt>
      <trkpt lat="42.49394" lon="2.63615">
        <ele>871.40002441406</ele>
        <time>2023-07-15T06:05:46.000Z</time>
      </trkpt>
      <trkpt lat="42.49396" lon="2.63615">
        <ele>871.40002441406</ele>
        <time>2023-07-15T06:05:56.000Z</time>
      </trkpt>
      <trkpt lat="42.49399" lon="2.63618">
        <ele>871.20001220703</ele>
        <time>2023-07-15T06:06:05.000Z</time>
      </trkpt>
      <trkpt lat="42.49398" lon="2.63613">
        <ele>870.79998779297</ele>
        <time>2023-07-15T06:06:14.000Z</time>
      </trkpt>
      <trkpt lat="42.49396" lon="2.63612">
        <ele>871</ele>
        <time>2023-07-15T06:06:24.000Z</time>
      </trkpt>
      <trkpt lat="42.49396" lon="2.63613">
        <ele>871</ele>
        <time>2023-07-15T06:06:32.000Z</time>
      </trkpt>
      <trkpt lat="42.49398" lon="2.63617">
        <ele>870.79998779297</ele>
        <time>2023-07-15T06:06:41.000Z</time>
      </trkpt>
      <trkpt lat="42.49397" lon="2.63616">
        <ele>871</ele>
        <time>2023-07-15T06:06:48.000Z</time>
      </trkpt>
      <trkpt lat="42.49396" lon="2.63613">
        <ele>871.20001220703</ele>
        <time>2023-07-15T06:06:57.000Z</time>
      </trkpt>
      <trkpt lat="42.49399" lon="2.63614">
        <ele>870.79998779297</ele>
        <time>2023-07-15T06:07:05.000Z</time>
      </trkpt>
      <trkpt lat="42.49396" lon="2.63615">
        <ele>870.59997558594</ele>
        <time>2023-07-15T06:07:13.000Z</time>
      </trkpt>
      <trkpt lat="42.49396" lon="2.63615">
        <ele>870.40002441406</ele>
        <time>2023-07-15T06:07:17.000Z</time>
      </trkpt>
      <trkpt lat="42.49396" lon="2.63616">
        <ele>870.59997558594</ele>
        <time>2023-07-15T06:07:23.000Z</time>
      </trkpt>
      <trkpt lat="42.49397" lon="2.63616">
        <ele>870.40002441406</ele>
        <time>2023-07-15T06:07:33.000Z</time>
      </trkpt>
      <trkpt lat="42.49397" lon="2.63616">
        <ele>870.40002441406</ele>
        <time>2023-07-15T06:07:40.000Z</time>
      </trkpt>
      <trkpt lat="42.49397" lon="2.63617">
        <ele>870.59997558594</ele>
        <time>2023-07-15T06:07:48.000Z</time>
      </trkpt>
      <trkpt lat="42.49397" lon="2.63618">
        <ele>870.40002441406</ele>
        <time>2023-07-15T06:07:55.000Z</time>
      </trkpt>
      <trkpt lat="42.49398" lon="2.63618">
        <ele>870.40002441406</ele>
        <time>2023-07-15T06:08:05.000Z</time>
      </trkpt>
      <trkpt lat="42.49397" lon="2.63618">
        <ele>870.59997558594</ele>
        <time>2023-07-15T06:08:15.000Z</time>
      </trkpt>
      <trkpt lat="42.49397" lon="2.63615">
        <ele>870.40002441406</ele>
        <time>2023-07-15T06:08:24.000Z</time>
      </trkpt>
      <trkpt lat="42.49397" lon="2.63614">
        <ele>870.40002441406</ele>
        <time>2023-07-15T06:08:31.000Z</time>
      </trkpt>
      <trkpt lat="42.49399" lon="2.63617">
        <ele>870.40002441406</ele>
        <time>2023-07-15T06:08:40.000Z</time>
      </trkpt>
      <trkpt lat="42.49399" lon="2.6362">
        <ele>870.40002441406</ele>
        <time>2023-07-15T06:08:50.000Z</time>
      </trkpt>
      <trkpt lat="42.49397" lon="2.63617">
        <ele>870.59997558594</ele>
        <time>2023-07-15T06:08:59.000Z</time>
      </trkpt>
      <trkpt lat="42.49396" lon="2.63615">
        <ele>870.59997558594</ele>
        <time>2023-07-15T06:09:08.000Z</time>
      </trkpt>
      <trkpt lat="42.49398" lon="2.63614">
        <ele>870.59997558594</ele>
        <time>2023-07-15T06:09:16.000Z</time>
      </trkpt>
      <trkpt lat="42.49399" lon="2.63614">
        <ele>870.59997558594</ele>
        <time>2023-07-15T06:09:21.000Z</time>
      </trkpt>
      <trkpt lat="42.49401" lon="2.63615">
        <ele>870.59997558594</ele>
        <time>2023-07-15T06:09:28.000Z</time>
      </trkpt>
      <trkpt lat="42.49398" lon="2.63615">
        <ele>870.59997558594</ele>
        <time>2023-07-15T06:09:37.000Z</time>
      </trkpt>
      <trkpt lat="42.49398" lon="2.63615">
        <ele>870.59997558594</ele>
        <time>2023-07-15T06:09:45.000Z</time>
      </trkpt>
      <trkpt lat="42.49397" lon="2.63615">
        <ele>870.40002441406</ele>
        <time>2023-07-15T06:09:54.000Z</time>
      </trkpt>
      <trkpt lat="42.49398" lon="2.63613">
        <ele>870.79998779297</ele>
        <time>2023-07-15T06:10:02.000Z</time>
      </trkpt>
      <trkpt lat="42.49399" lon="2.63616">
        <ele>870.59997558594</ele>
        <time>2023-07-15T06:10:09.000Z</time>
      </trkpt>
      <trkpt lat="42.49399" lon="2.63615">
        <ele>870.59997558594</ele>
        <time>2023-07-15T06:10:20.000Z</time>
      </trkpt>
      <trkpt lat="42.494" lon="2.63613">
        <ele>870.40002441406</ele>
        <time>2023-07-15T06:10:28.000Z</time>
      </trkpt>
      <trkpt lat="42.49403" lon="2.6361">
        <ele>870.40002441406</ele>
        <time>2023-07-15T06:10:36.000Z</time>
      </trkpt>
      <trkpt lat="42.49399" lon="2.63612">
        <ele>870.79998779297</ele>
        <time>2023-07-15T06:10:43.000Z</time>
      </trkpt>
      <trkpt lat="42.49399" lon="2.63613">
        <ele>870.59997558594</ele>
        <time>2023-07-15T06:10:51.000Z</time>
      </trkpt>
      <trkpt lat="42.49398" lon="2.63614">
        <ele>870.59997558594</ele>
        <time>2023-07-15T06:11:08.000Z</time>
      </trkpt>
      <trkpt lat="42.49396" lon="2.63613">
        <ele>870.59997558594</ele>
        <time>2023-07-15T06:11:16.000Z</time>
      </trkpt>
      <trkpt lat="42.49396" lon="2.63613">
        <ele>870.40002441406</ele>
        <time>2023-07-15T06:11:26.000Z</time>
      </trkpt>
      <trkpt lat="42.49396" lon="2.63612">
        <ele>870.59997558594</ele>
        <time>2023-07-15T06:11:33.000Z</time>
      </trkpt>
      <trkpt lat="42.49396" lon="2.63611">
        <ele>870.20001220703</ele>
        <time>2023-07-15T06:11:43.000Z</time>
      </trkpt>
      <trkpt lat="42.49396" lon="2.63612">
        <ele>870.40002441406</ele>
        <time>2023-07-15T06:11:50.000Z</time>
      </trkpt>
      <trkpt lat="42.49396" lon="2.63614">
        <ele>870.20001220703</ele>
        <time>2023-07-15T06:11:58.000Z</time>
      </trkpt>
      <trkpt lat="42.49395" lon="2.6361">
        <ele>870.20001220703</ele>
        <time>2023-07-15T06:12:05.000Z</time>
      </trkpt>
      <trkpt lat="42.49396" lon="2.6361">
        <ele>870.20001220703</ele>
        <time>2023-07-15T06:12:13.000Z</time>
      </trkpt>
      <trkpt lat="42.49396" lon="2.63612">
        <ele>870.40002441406</ele>
        <time>2023-07-15T06:12:21.000Z</time>
      </trkpt>
      <trkpt lat="42.49396" lon="2.63613">
        <ele>870.40002441406</ele>
        <time>2023-07-15T06:12:28.000Z</time>
      </trkpt>
      <trkpt lat="42.49396" lon="2.63615">
        <ele>870.40002441406</ele>
        <time>2023-07-15T06:12:36.000Z</time>
      </trkpt>
      <trkpt lat="42.49395" lon="2.63612">
        <ele>870.40002441406</ele>
        <time>2023-07-15T06:12:45.000Z</time>
      </trkpt>
      <trkpt lat="42.49394" lon="2.63611">
        <ele>870.40002441406</ele>
        <time>2023-07-15T06:12:53.000Z</time>
      </trkpt>
      <trkpt lat="42.49395" lon="2.63612">
        <ele>870.40002441406</ele>
        <time>2023-07-15T06:13:02.000Z</time>
      </trkpt>
      <trkpt lat="42.49396" lon="2.63615">
        <ele>870.59997558594</ele>
        <time>2023-07-15T06:13:09.000Z</time>
      </trkpt>
      <trkpt lat="42.49396" lon="2.63615">
        <ele>870.59997558594</ele>
        <time>2023-07-15T06:13:18.000Z</time>
      </trkpt>
      <trkpt lat="42.49397" lon="2.63616">
        <ele>870.40002441406</ele>
        <time>2023-07-15T06:13:27.000Z</time>
      </trkpt>
      <trkpt lat="42.49396" lon="2.63614">
        <ele>870.59997558594</ele>
        <time>2023-07-15T06:13:37.000Z</time>
      </trkpt>
      <trkpt lat="42.49397" lon="2.63617">
        <ele>870.79998779297</ele>
        <time>2023-07-15T06:13:46.000Z</time>
      </trkpt>
      <trkpt lat="42.49398" lon="2.63617">
        <ele>870.79998779297</ele>
        <time>2023-07-15T06:13:55.000Z</time>
      </trkpt>
      <trkpt lat="42.49397" lon="2.63618">
        <ele>871</ele>
        <time>2023-07-15T06:14:03.000Z</time>
      </trkpt>
      <trkpt lat="42.49396" lon="2.63617">
        <ele>870.79998779297</ele>
        <time>2023-07-15T06:14:13.000Z</time>
      </trkpt>
      <trkpt lat="42.49396" lon="2.63616">
        <ele>870.79998779297</ele>
        <time>2023-07-15T06:14:22.000Z</time>
      </trkpt>
      <trkpt lat="42.49396" lon="2.63615">
        <ele>871</ele>
        <time>2023-07-15T06:14:27.000Z</time>
      </trkpt>
      <trkpt lat="42.49396" lon="2.63614">
        <ele>871.59997558594</ele>
        <time>2023-07-15T06:14:29.000Z</time>
      </trkpt>
      <trkpt lat="42.49399" lon="2.63614">
        <ele>871.40002441406</ele>
        <time>2023-07-15T06:14:36.000Z</time>
      </trkpt>
      <trkpt lat="42.49398" lon="2.63614">
        <ele>871.40002441406</ele>
        <time>2023-07-15T06:14:44.000Z</time>
      </trkpt>
      <trkpt lat="42.49395" lon="2.63615">
        <ele>871.59997558594</ele>
        <time>2023-07-15T06:14:52.000Z</time>
      </trkpt>
      <trkpt lat="42.49397" lon="2.63616">
        <ele>871.59997558594</ele>
        <time>2023-07-15T06:15:02.000Z</time>
      </trkpt>
      <trkpt lat="42.49399" lon="2.63617">
        <ele>871.40002441406</ele>
        <time>2023-07-15T06:15:12.000Z</time>
      </trkpt>
      <trkpt lat="42.49398" lon="2.63618">
        <ele>871.40002441406</ele>
        <time>2023-07-15T06:15:21.000Z</time>
      </trkpt>
      <trkpt lat="42.49397" lon="2.63616">
        <ele>871.40002441406</ele>
        <time>2023-07-15T06:15:29.000Z</time>
      </trkpt>
      <trkpt lat="42.49396" lon="2.63617">
        <ele>871.40002441406</ele>
        <time>2023-07-15T06:15:38.000Z</time>
      </trkpt>
      <trkpt lat="42.49397" lon="2.63616">
        <ele>871.40002441406</ele>
        <time>2023-07-15T06:15:47.000Z</time>
      </trkpt>
      <trkpt lat="42.49394" lon="2.63622">
        <ele>871.20001220703</ele>
        <time>2023-07-15T06:15:54.000Z</time>
      </trkpt>
      <trkpt lat="42.49397" lon="2.63623">
        <ele>870.59997558594</ele>
        <time>2023-07-15T06:15:59.000Z</time>
      </trkpt>
      <trkpt lat="42.49399" lon="2.63623">
        <ele>870.20001220703</ele>
        <time>2023-07-15T06:16:02.000Z</time>
      </trkpt>
      <trkpt lat="42.494" lon="2.63616">
        <ele>870</ele>
        <time>2023-07-15T06:16:07.000Z</time>
      </trkpt>
      <trkpt lat="42.49397" lon="2.63617">
        <ele>869.79998779297</ele>
        <time>2023-07-15T06:16:16.000Z</time>
      </trkpt>
      <trkpt lat="42.49397" lon="2.63619">
        <ele>869.79998779297</ele>
        <time>2023-07-15T06:16:24.000Z</time>
      </trkpt>
      <trkpt lat="42.49396" lon="2.63619">
        <ele>869.40002441406</ele>
        <time>2023-07-15T06:16:26.000Z</time>
      </trkpt>
      <trkpt lat="42.49397" lon="2.6362">
        <ele>869.79998779297</ele>
        <time>2023-07-15T06:16:33.000Z</time>
      </trkpt>
      <trkpt lat="42.49395" lon="2.63617">
        <ele>869.59997558594</ele>
        <time>2023-07-15T06:16:43.000Z</time>
      </trkpt>
      <trkpt lat="42.49397" lon="2.6362">
        <ele>869.59997558594</ele>
        <time>2023-07-15T06:16:52.000Z</time>
      </trkpt>
      <trkpt lat="42.49398" lon="2.6362">
        <ele>869.20001220703</ele>
        <time>2023-07-15T06:17:00.000Z</time>
      </trkpt>
      <trkpt lat="42.49398" lon="2.6362">
        <ele>869.59997558594</ele>
        <time>2023-07-15T06:17:09.000Z</time>
      </trkpt>
      <trkpt lat="42.49398" lon="2.63621">
        <ele>870</ele>
        <time>2023-07-15T06:17:17.000Z</time>
      </trkpt>
      <trkpt lat="42.49396" lon="2.63623">
        <ele>869.79998779297</ele>
        <time>2023-07-15T06:17:25.000Z</time>
      </trkpt>
      <trkpt lat="42.49397" lon="2.63622">
        <ele>869.79998779297</ele>
        <time>2023-07-15T06:17:32.000Z</time>
      </trkpt>
      <trkpt lat="42.49399" lon="2.63622">
        <ele>869.59997558594</ele>
        <time>2023-07-15T06:17:42.000Z</time>
      </trkpt>
      <trkpt lat="42.49399" lon="2.63626">
        <ele>869.79998779297</ele>
        <time>2023-07-15T06:17:51.000Z</time>
      </trkpt>
      <trkpt lat="42.49397" lon="2.63627">
        <ele>869.79998779297</ele>
        <time>2023-07-15T06:18:00.000Z</time>
      </trkpt>
      <trkpt lat="42.49398" lon="2.63626">
        <ele>870</ele>
        <time>2023-07-15T06:18:08.000Z</time>
      </trkpt>
      <trkpt lat="42.49398" lon="2.63622">
        <ele>869.59997558594</ele>
        <time>2023-07-15T06:18:16.000Z</time>
      </trkpt>
      <trkpt lat="42.49399" lon="2.63619">
        <ele>869.79998779297</ele>
        <time>2023-07-15T06:18:24.000Z</time>
      </trkpt>
      <trkpt lat="42.49398" lon="2.63614">
        <ele>870.40002441406</ele>
        <time>2023-07-15T06:18:31.000Z</time>
      </trkpt>
      <trkpt lat="42.49398" lon="2.63613">
        <ele>870.59997558594</ele>
        <time>2023-07-15T06:18:33.000Z</time>
      </trkpt>
      <trkpt lat="42.49399" lon="2.63614">
        <ele>871.20001220703</ele>
        <time>2023-07-15T06:18:40.000Z</time>
      </trkpt>
      <trkpt lat="42.49397" lon="2.63617">
        <ele>871.40002441406</ele>
        <time>2023-07-15T06:18:50.000Z</time>
      </trkpt>
      <trkpt lat="42.49397" lon="2.63615">
        <ele>871.40002441406</ele>
        <time>2023-07-15T06:18:59.000Z</time>
      </trkpt>
      <trkpt lat="42.49397" lon="2.63615">
        <ele>871.40002441406</ele>
        <time>2023-07-15T06:19:08.000Z</time>
      </trkpt>
      <trkpt lat="42.49398" lon="2.63613">
        <ele>871.40002441406</ele>
        <time>2023-07-15T06:19:15.000Z</time>
      </trkpt>
      <trkpt lat="42.49397" lon="2.63612">
        <ele>871.40002441406</ele>
        <time>2023-07-15T06:19:26.000Z</time>
      </trkpt>
      <trkpt lat="42.49396" lon="2.63609">
        <ele>871.40002441406</ele>
        <time>2023-07-15T06:19:32.000Z</time>
      </trkpt>
      <trkpt lat="42.49395" lon="2.63609">
        <ele>871.59997558594</ele>
        <time>2023-07-15T06:19:34.000Z</time>
      </trkpt>
      <trkpt lat="42.49396" lon="2.6361">
        <ele>871.79998779297</ele>
        <time>2023-07-15T06:19:40.000Z</time>
      </trkpt>
      <trkpt lat="42.49396" lon="2.6361">
        <ele>871.20001220703</ele>
        <time>2023-07-15T06:19:48.000Z</time>
      </trkpt>
      <trkpt lat="42.49394" lon="2.63604">
        <ele>871.40002441406</ele>
        <time>2023-07-15T06:19:59.000Z</time>
      </trkpt>
      <trkpt lat="42.49395" lon="2.6361">
        <ele>871.40002441406</ele>
        <time>2023-07-15T06:20:08.000Z</time>
      </trkpt>
      <trkpt lat="42.49394" lon="2.63607">
        <ele>871.40002441406</ele>
        <time>2023-07-15T06:20:18.000Z</time>
      </trkpt>
      <trkpt lat="42.49396" lon="2.63609">
        <ele>871.40002441406</ele>
        <time>2023-07-15T06:20:28.000Z</time>
      </trkpt>
      <trkpt lat="42.49397" lon="2.63611">
        <ele>871.40002441406</ele>
        <time>2023-07-15T06:20:36.000Z</time>
      </trkpt>
      <trkpt lat="42.49395" lon="2.63608">
        <ele>871.20001220703</ele>
        <time>2023-07-15T06:20:46.000Z</time>
      </trkpt>
      <trkpt lat="42.49397" lon="2.63612">
        <ele>871.40002441406</ele>
        <time>2023-07-15T06:20:54.000Z</time>
      </trkpt>
      <trkpt lat="42.494" lon="2.6361">
        <ele>871</ele>
        <time>2023-07-15T06:21:04.000Z</time>
      </trkpt>
      <trkpt lat="42.494" lon="2.63607">
        <ele>871</ele>
        <time>2023-07-15T06:21:11.000Z</time>
      </trkpt>
      <trkpt lat="42.49404" lon="2.63599">
        <ele>871.20001220703</ele>
        <time>2023-07-15T06:21:21.000Z</time>
      </trkpt>
      <trkpt lat="42.49404" lon="2.63596">
        <ele>871.59997558594</ele>
        <time>2023-07-15T06:21:29.000Z</time>
      </trkpt>
      <trkpt lat="42.49408" lon="2.6359">
        <ele>871.59997558594</ele>
        <time>2023-07-15T06:21:35.000Z</time>
      </trkpt>
      <trkpt lat="42.49412" lon="2.63584">
        <ele>872.59997558594</ele>
        <time>2023-07-15T06:21:45.000Z</time>
      </trkpt>
      <trkpt lat="42.49413" lon="2.63586">
        <ele>872.40002441406</ele>
        <time>2023-07-15T06:21:54.000Z</time>
      </trkpt>
      <trkpt lat="42.49412" lon="2.63584">
        <ele>872.20001220703</ele>
        <time>2023-07-15T06:22:04.000Z</time>
      </trkpt>
      <trkpt lat="42.49411" lon="2.63582">
        <ele>872.20001220703</ele>
        <time>2023-07-15T06:22:15.000Z</time>
      </trkpt>
      <trkpt lat="42.49412" lon="2.63586">
        <ele>872.20001220703</ele>
        <time>2023-07-15T06:22:24.000Z</time>
      </trkpt>
      <trkpt lat="42.49413" lon="2.6358">
        <ele>872.40002441406</ele>
        <time>2023-07-15T06:22:34.000Z</time>
      </trkpt>
      <trkpt lat="42.49417" lon="2.63577">
        <ele>872.59997558594</ele>
        <time>2023-07-15T06:22:42.000Z</time>
      </trkpt>
      <trkpt lat="42.49418" lon="2.63578">
        <ele>872.79998779297</ele>
        <time>2023-07-15T06:22:45.000Z</time>
      </trkpt>
      <trkpt lat="42.49418" lon="2.6358">
        <ele>872.79998779297</ele>
        <time>2023-07-15T06:22:50.000Z</time>
      </trkpt>
      <trkpt lat="42.49417" lon="2.63586">
        <ele>872.59997558594</ele>
        <time>2023-07-15T06:22:57.000Z</time>
      </trkpt>
      <trkpt lat="42.49418" lon="2.63588">
        <ele>872.40002441406</ele>
        <time>2023-07-15T06:23:05.000Z</time>
      </trkpt>
      <trkpt lat="42.49419" lon="2.63581">
        <ele>872.40002441406</ele>
        <time>2023-07-15T06:23:13.000Z</time>
      </trkpt>
      <trkpt lat="42.49419" lon="2.6357">
        <ele>872.79998779297</ele>
        <time>2023-07-15T06:23:21.000Z</time>
      </trkpt>
      <trkpt lat="42.49425" lon="2.6356">
        <ele>873.79998779297</ele>
        <time>2023-07-15T06:23:30.000Z</time>
      </trkpt>
      <trkpt lat="42.49426" lon="2.63559">
        <ele>873.79998779297</ele>
        <time>2023-07-15T06:23:31.000Z</time>
      </trkpt>
      <trkpt lat="42.49427" lon="2.63563">
        <ele>874.40002441406</ele>
        <time>2023-07-15T06:23:37.000Z</time>
      </trkpt>
      <trkpt lat="42.49428" lon="2.63562">
        <ele>874.40002441406</ele>
        <time>2023-07-15T06:23:40.000Z</time>
      </trkpt>
      <trkpt lat="42.49429" lon="2.63561">
        <ele>874.40002441406</ele>
        <time>2023-07-15T06:23:43.000Z</time>
      </trkpt>
      <trkpt lat="42.49432" lon="2.63557">
        <ele>874.79998779297</ele>
        <time>2023-07-15T06:23:46.000Z</time>
      </trkpt>
      <trkpt lat="42.49435" lon="2.63552">
        <ele>875.20001220703</ele>
        <time>2023-07-15T06:23:50.000Z</time>
      </trkpt>
      <trkpt lat="42.49439" lon="2.63548">
        <ele>876</ele>
        <time>2023-07-15T06:23:54.000Z</time>
      </trkpt>
      <trkpt lat="42.49441" lon="2.63544">
        <ele>877</ele>
        <time>2023-07-15T06:24:00.000Z</time>
      </trkpt>
      <trkpt lat="42.49446" lon="2.63541">
        <ele>878.20001220703</ele>
        <time>2023-07-15T06:24:07.000Z</time>
      </trkpt>
      <trkpt lat="42.49447" lon="2.6354">
        <ele>878.40002441406</ele>
        <time>2023-07-15T06:24:08.000Z</time>
      </trkpt>
      <trkpt lat="42.49451" lon="2.63539">
        <ele>879.40002441406</ele>
        <time>2023-07-15T06:24:13.000Z</time>
      </trkpt>
      <trkpt lat="42.49453" lon="2.63537">
        <ele>880</ele>
        <time>2023-07-15T06:24:16.000Z</time>
      </trkpt>
      <trkpt lat="42.49454" lon="2.63534">
        <ele>880.59997558594</ele>
        <time>2023-07-15T06:24:19.000Z</time>
      </trkpt>
      <trkpt lat="42.49456" lon="2.63532">
        <ele>881</ele>
        <time>2023-07-15T06:24:22.000Z</time>
      </trkpt>
      <trkpt lat="42.49461" lon="2.63527">
        <ele>881.79998779297</ele>
        <time>2023-07-15T06:24:27.000Z</time>
      </trkpt>
      <trkpt lat="42.49462" lon="2.63524">
        <ele>882.20001220703</ele>
        <time>2023-07-15T06:24:30.000Z</time>
      </trkpt>
      <trkpt lat="42.49462" lon="2.63523">
        <ele>882.79998779297</ele>
        <time>2023-07-15T06:24:37.000Z</time>
      </trkpt>
      <trkpt lat="42.49464" lon="2.63525">
        <ele>882.40002441406</ele>
        <time>2023-07-15T06:24:46.000Z</time>
      </trkpt>
      <trkpt lat="42.49461" lon="2.63525">
        <ele>882.20001220703</ele>
        <time>2023-07-15T06:24:56.000Z</time>
      </trkpt>
      <trkpt lat="42.49466" lon="2.63522">
        <ele>882.40002441406</ele>
        <time>2023-07-15T06:25:04.000Z</time>
      </trkpt>
      <trkpt lat="42.4947" lon="2.63513">
        <ele>882.79998779297</ele>
        <time>2023-07-15T06:25:11.000Z</time>
      </trkpt>
      <trkpt lat="42.49471" lon="2.63512">
        <ele>883</ele>
        <time>2023-07-15T06:25:12.000Z</time>
      </trkpt>
      <trkpt lat="42.49474" lon="2.63505">
        <ele>883.79998779297</ele>
        <time>2023-07-15T06:25:18.000Z</time>
      </trkpt>
      <trkpt lat="42.49476" lon="2.63501">
        <ele>884.40002441406</ele>
        <time>2023-07-15T06:25:21.000Z</time>
      </trkpt>
      <trkpt lat="42.49477" lon="2.63499">
        <ele>885</ele>
        <time>2023-07-15T06:25:23.000Z</time>
      </trkpt>
      <trkpt lat="42.49479" lon="2.635">
        <ele>885.59997558594</ele>
        <time>2023-07-15T06:25:28.000Z</time>
      </trkpt>
      <trkpt lat="42.49479" lon="2.63501">
        <ele>885.20001220703</ele>
        <time>2023-07-15T06:25:34.000Z</time>
      </trkpt>
      <trkpt lat="42.49478" lon="2.635">
        <ele>885.20001220703</ele>
        <time>2023-07-15T06:25:37.000Z</time>
      </trkpt>
      <trkpt lat="42.49478" lon="2.635">
        <ele>885.20001220703</ele>
        <time>2023-07-15T06:25:46.000Z</time>
      </trkpt>
      <trkpt lat="42.49481" lon="2.635">
        <ele>885.20001220703</ele>
        <time>2023-07-15T06:25:55.000Z</time>
      </trkpt>
      <trkpt lat="42.49478" lon="2.63499">
        <ele>885</ele>
        <time>2023-07-15T06:26:03.000Z</time>
      </trkpt>
      <trkpt lat="42.49471" lon="2.63505">
        <ele>884.59997558594</ele>
        <time>2023-07-15T06:26:11.000Z</time>
      </trkpt>
      <trkpt lat="42.4947" lon="2.63509">
        <ele>883.79998779297</ele>
        <time>2023-07-15T06:26:15.000Z</time>
      </trkpt>
      <trkpt lat="42.49468" lon="2.63516">
        <ele>882.79998779297</ele>
        <time>2023-07-15T06:26:19.000Z</time>
      </trkpt>
      <trkpt lat="42.49462" lon="2.63523">
        <ele>882</ele>
        <time>2023-07-15T06:26:26.000Z</time>
      </trkpt>
      <trkpt lat="42.4946" lon="2.63526">
        <ele>881.59997558594</ele>
        <time>2023-07-15T06:26:29.000Z</time>
      </trkpt>
      <trkpt lat="42.49456" lon="2.6353">
        <ele>880.59997558594</ele>
        <time>2023-07-15T06:26:34.000Z</time>
      </trkpt>
      <trkpt lat="42.49455" lon="2.63531">
        <ele>880.59997558594</ele>
        <time>2023-07-15T06:26:35.000Z</time>
      </trkpt>
      <trkpt lat="42.49448" lon="2.63536">
        <ele>879.40002441406</ele>
        <time>2023-07-15T06:26:41.000Z</time>
      </trkpt>
      <trkpt lat="42.49447" lon="2.63537">
        <ele>879.20001220703</ele>
        <time>2023-07-15T06:26:42.000Z</time>
      </trkpt>
      <trkpt lat="42.49445" lon="2.6354">
        <ele>878.40002441406</ele>
        <time>2023-07-15T06:26:45.000Z</time>
      </trkpt>
      <trkpt lat="42.49442" lon="2.63545">
        <ele>877.20001220703</ele>
        <time>2023-07-15T06:26:49.000Z</time>
      </trkpt>
      <trkpt lat="42.49441" lon="2.63547">
        <ele>876.79998779297</ele>
        <time>2023-07-15T06:26:51.000Z</time>
      </trkpt>
      <trkpt lat="42.49439" lon="2.63549">
        <ele>876.20001220703</ele>
        <time>2023-07-15T06:26:54.000Z</time>
      </trkpt>
      <trkpt lat="42.49434" lon="2.63553">
        <ele>875</ele>
        <time>2023-07-15T06:27:00.000Z</time>
      </trkpt>
      <trkpt lat="42.49432" lon="2.63556">
        <ele>874.40002441406</ele>
        <time>2023-07-15T06:27:02.000Z</time>
      </trkpt>
      <trkpt lat="42.49431" lon="2.63558">
        <ele>874</ele>
        <time>2023-07-15T06:27:04.000Z</time>
      </trkpt>
      <trkpt lat="42.49432" lon="2.63566">
        <ele>873.40002441406</ele>
        <time>2023-07-15T06:27:09.000Z</time>
      </trkpt>
      <trkpt lat="42.49439" lon="2.63567">
        <ele>873.59997558594</ele>
        <time>2023-07-15T06:27:17.000Z</time>
      </trkpt>
      <trkpt lat="42.49449" lon="2.63566">
        <ele>874.40002441406</ele>
        <time>2023-07-15T06:27:25.000Z</time>
      </trkpt>
      <trkpt lat="42.4946" lon="2.63564">
        <ele>874.59997558594</ele>
        <time>2023-07-15T06:27:32.000Z</time>
      </trkpt>
      <trkpt lat="42.49463" lon="2.63564">
        <ele>875</ele>
        <time>2023-07-15T06:27:35.000Z</time>
      </trkpt>
      <trkpt lat="42.4947" lon="2.63563">
        <ele>875.20001220703</ele>
        <time>2023-07-15T06:27:40.000Z</time>
      </trkpt>
      <trkpt lat="42.49477" lon="2.63552">
        <ele>875.79998779297</ele>
        <time>2023-07-15T06:27:49.000Z</time>
      </trkpt>
      <trkpt lat="42.49478" lon="2.63551">
        <ele>876</ele>
        <time>2023-07-15T06:27:50.000Z</time>
      </trkpt>
      <trkpt lat="42.49481" lon="2.63543">
        <ele>876.59997558594</ele>
        <time>2023-07-15T06:27:56.000Z</time>
      </trkpt>
      <trkpt lat="42.49485" lon="2.63535">
        <ele>876.79998779297</ele>
        <time>2023-07-15T06:28:02.000Z</time>
      </trkpt>
      <trkpt lat="42.49485" lon="2.63533">
        <ele>877.20001220703</ele>
        <time>2023-07-15T06:28:03.000Z</time>
      </trkpt>
      <trkpt lat="42.49491" lon="2.63522">
        <ele>877.40002441406</ele>
        <time>2023-07-15T06:28:11.000Z</time>
      </trkpt>
      <trkpt lat="42.49493" lon="2.63516">
        <ele>878.20001220703</ele>
        <time>2023-07-15T06:28:15.000Z</time>
      </trkpt>
      <trkpt lat="42.49496" lon="2.63506">
        <ele>878.79998779297</ele>
        <time>2023-07-15T06:28:22.000Z</time>
      </trkpt>
      <trkpt lat="42.49498" lon="2.63501">
        <ele>879.20001220703</ele>
        <time>2023-07-15T06:28:26.000Z</time>
      </trkpt>
      <trkpt lat="42.49498" lon="2.63496">
        <ele>879.59997558594</ele>
        <time>2023-07-15T06:28:30.000Z</time>
      </trkpt>
      <trkpt lat="42.49499" lon="2.63487">
        <ele>880.40002441406</ele>
        <time>2023-07-15T06:28:36.000Z</time>
      </trkpt>
      <trkpt lat="42.495" lon="2.63483">
        <ele>880.59997558594</ele>
        <time>2023-07-15T06:28:38.000Z</time>
      </trkpt>
      <trkpt lat="42.495" lon="2.63476">
        <ele>881.59997558594</ele>
        <time>2023-07-15T06:28:44.000Z</time>
      </trkpt>
      <trkpt lat="42.495" lon="2.63474">
        <ele>881.79998779297</ele>
        <time>2023-07-15T06:28:45.000Z</time>
      </trkpt>
      <trkpt lat="42.49501" lon="2.63465">
        <ele>882.59997558594</ele>
        <time>2023-07-15T06:28:52.000Z</time>
      </trkpt>
      <trkpt lat="42.49502" lon="2.63463">
        <ele>882.59997558594</ele>
        <time>2023-07-15T06:28:53.000Z</time>
      </trkpt>
      <trkpt lat="42.49505" lon="2.63453">
        <ele>883.40002441406</ele>
        <time>2023-07-15T06:29:01.000Z</time>
      </trkpt>
      <trkpt lat="42.49506" lon="2.6345">
        <ele>883.79998779297</ele>
        <time>2023-07-15T06:29:04.000Z</time>
      </trkpt>
      <trkpt lat="42.49506" lon="2.63447">
        <ele>883.79998779297</ele>
        <time>2023-07-15T06:29:07.000Z</time>
      </trkpt>
      <trkpt lat="42.49506" lon="2.63441">
        <ele>884.79998779297</ele>
        <time>2023-07-15T06:29:13.000Z</time>
      </trkpt>
      <trkpt lat="42.49508" lon="2.63427">
        <ele>885.59997558594</ele>
        <time>2023-07-15T06:29:21.000Z</time>
      </trkpt>
      <trkpt lat="42.49509" lon="2.63424">
        <ele>885.79998779297</ele>
        <time>2023-07-15T06:29:23.000Z</time>
      </trkpt>
      <trkpt lat="42.49511" lon="2.63415">
        <ele>886.59997558594</ele>
        <time>2023-07-15T06:29:30.000Z</time>
      </trkpt>
      <trkpt lat="42.49512" lon="2.63412">
        <ele>887</ele>
        <time>2023-07-15T06:29:32.000Z</time>
      </trkpt>
      <trkpt lat="42.49512" lon="2.634">
        <ele>887.79998779297</ele>
        <time>2023-07-15T06:29:40.000Z</time>
      </trkpt>
      <trkpt lat="42.49511" lon="2.63397">
        <ele>888</ele>
        <time>2023-07-15T06:29:42.000Z</time>
      </trkpt>
      <trkpt lat="42.49512" lon="2.63388">
        <ele>888.59997558594</ele>
        <time>2023-07-15T06:29:48.000Z</time>
      </trkpt>
      <trkpt lat="42.49515" lon="2.63377">
        <ele>889</ele>
        <time>2023-07-15T06:29:55.000Z</time>
      </trkpt>
      <trkpt lat="42.49517" lon="2.63371">
        <ele>889.59997558594</ele>
        <time>2023-07-15T06:29:59.000Z</time>
      </trkpt>
      <trkpt lat="42.49519" lon="2.63365">
        <ele>890.20001220703</ele>
        <time>2023-07-15T06:30:04.000Z</time>
      </trkpt>
      <trkpt lat="42.4952" lon="2.63362">
        <ele>890.20001220703</ele>
        <time>2023-07-15T06:30:06.000Z</time>
      </trkpt>
      <trkpt lat="42.49524" lon="2.63348">
        <ele>891.20001220703</ele>
        <time>2023-07-15T06:30:15.000Z</time>
      </trkpt>
      <trkpt lat="42.49528" lon="2.63331">
        <ele>892.20001220703</ele>
        <time>2023-07-15T06:30:26.000Z</time>
      </trkpt>
      <trkpt lat="42.49533" lon="2.63325">
        <ele>893.40002441406</ele>
        <time>2023-07-15T06:30:33.000Z</time>
      </trkpt>
      <trkpt lat="42.49534" lon="2.63323">
        <ele>893.59997558594</ele>
        <time>2023-07-15T06:30:35.000Z</time>
      </trkpt>
      <trkpt lat="42.49538" lon="2.63311">
        <ele>894.40002441406</ele>
        <time>2023-07-15T06:30:43.000Z</time>
      </trkpt>
      <trkpt lat="42.49538" lon="2.63308">
        <ele>894.59997558594</ele>
        <time>2023-07-15T06:30:45.000Z</time>
      </trkpt>
      <trkpt lat="42.4954" lon="2.63296">
        <ele>895.40002441406</ele>
        <time>2023-07-15T06:30:53.000Z</time>
      </trkpt>
      <trkpt lat="42.4954" lon="2.63293">
        <ele>895.59997558594</ele>
        <time>2023-07-15T06:30:55.000Z</time>
      </trkpt>
      <trkpt lat="42.49538" lon="2.63285">
        <ele>896.20001220703</ele>
        <time>2023-07-15T06:31:00.000Z</time>
      </trkpt>
      <trkpt lat="42.49537" lon="2.63278">
        <ele>896.59997558594</ele>
        <time>2023-07-15T06:31:04.000Z</time>
      </trkpt>
      <trkpt lat="42.49536" lon="2.63272">
        <ele>897.20001220703</ele>
        <time>2023-07-15T06:31:09.000Z</time>
      </trkpt>
      <trkpt lat="42.49534" lon="2.63263">
        <ele>897.79998779297</ele>
        <time>2023-07-15T06:31:14.000Z</time>
      </trkpt>
      <trkpt lat="42.49533" lon="2.63257">
        <ele>898.40002441406</ele>
        <time>2023-07-15T06:31:19.000Z</time>
      </trkpt>
      <trkpt lat="42.49531" lon="2.63251">
        <ele>898.79998779297</ele>
        <time>2023-07-15T06:31:23.000Z</time>
      </trkpt>
      <trkpt lat="42.49528" lon="2.63242">
        <ele>899.79998779297</ele>
        <time>2023-07-15T06:31:29.000Z</time>
      </trkpt>
      <trkpt lat="42.49527" lon="2.63241">
        <ele>900</ele>
        <time>2023-07-15T06:31:30.000Z</time>
      </trkpt>
      <trkpt lat="42.49527" lon="2.63237">
        <ele>900.40002441406</ele>
        <time>2023-07-15T06:31:38.000Z</time>
      </trkpt>
      <trkpt lat="42.49527" lon="2.63226">
        <ele>901</ele>
        <time>2023-07-15T06:31:46.000Z</time>
      </trkpt>
      <trkpt lat="42.49526" lon="2.63225">
        <ele>901.20001220703</ele>
        <time>2023-07-15T06:31:47.000Z</time>
      </trkpt>
      <trkpt lat="42.49525" lon="2.63214">
        <ele>902</ele>
        <time>2023-07-15T06:31:54.000Z</time>
      </trkpt>
      <trkpt lat="42.49525" lon="2.63211">
        <ele>902.20001220703</ele>
        <time>2023-07-15T06:31:56.000Z</time>
      </trkpt>
      <trkpt lat="42.49523" lon="2.632">
        <ele>903.20001220703</ele>
        <time>2023-07-15T06:32:03.000Z</time>
      </trkpt>
      <trkpt lat="42.49521" lon="2.63196">
        <ele>903.20001220703</ele>
        <time>2023-07-15T06:32:06.000Z</time>
      </trkpt>
      <trkpt lat="42.49516" lon="2.63184">
        <ele>903.40002441406</ele>
        <time>2023-07-15T06:32:14.000Z</time>
      </trkpt>
      <trkpt lat="42.49511" lon="2.63171">
        <ele>903.79998779297</ele>
        <time>2023-07-15T06:32:22.000Z</time>
      </trkpt>
      <trkpt lat="42.49504" lon="2.63158">
        <ele>903.59997558594</ele>
        <time>2023-07-15T06:32:33.000Z</time>
      </trkpt>
      <trkpt lat="42.49498" lon="2.63144">
        <ele>903.59997558594</ele>
        <time>2023-07-15T06:32:43.000Z</time>
      </trkpt>
      <trkpt lat="42.49495" lon="2.63132">
        <ele>904</ele>
        <time>2023-07-15T06:32:50.000Z</time>
      </trkpt>
      <trkpt lat="42.49489" lon="2.6312">
        <ele>904</ele>
        <time>2023-07-15T06:32:59.000Z</time>
      </trkpt>
      <trkpt lat="42.49485" lon="2.63108">
        <ele>904.20001220703</ele>
        <time>2023-07-15T06:33:07.000Z</time>
      </trkpt>
      <trkpt lat="42.49485" lon="2.63104">
        <ele>904.20001220703</ele>
        <time>2023-07-15T06:33:09.000Z</time>
      </trkpt>
      <trkpt lat="42.49482" lon="2.63094">
        <ele>904.79998779297</ele>
        <time>2023-07-15T06:33:16.000Z</time>
      </trkpt>
      <trkpt lat="42.49478" lon="2.63088">
        <ele>905.20001220703</ele>
        <time>2023-07-15T06:33:21.000Z</time>
      </trkpt>
      <trkpt lat="42.49475" lon="2.63084">
        <ele>905.59997558594</ele>
        <time>2023-07-15T06:33:25.000Z</time>
      </trkpt>
      <trkpt lat="42.49471" lon="2.63076">
        <ele>906.40002441406</ele>
        <time>2023-07-15T06:33:31.000Z</time>
      </trkpt>
      <trkpt lat="42.49468" lon="2.6307">
        <ele>906.59997558594</ele>
        <time>2023-07-15T06:33:36.000Z</time>
      </trkpt>
      <trkpt lat="42.49461" lon="2.63061">
        <ele>907.20001220703</ele>
        <time>2023-07-15T06:33:44.000Z</time>
      </trkpt>
      <trkpt lat="42.49459" lon="2.63059">
        <ele>907.59997558594</ele>
        <time>2023-07-15T06:33:46.000Z</time>
      </trkpt>
      <trkpt lat="42.49451" lon="2.6305">
        <ele>908.59997558594</ele>
        <time>2023-07-15T06:33:54.000Z</time>
      </trkpt>
      <trkpt lat="42.49445" lon="2.63041">
        <ele>909.79998779297</ele>
        <time>2023-07-15T06:34:03.000Z</time>
      </trkpt>
      <trkpt lat="42.49443" lon="2.63029">
        <ele>910.79998779297</ele>
        <time>2023-07-15T06:34:11.000Z</time>
      </trkpt>
      <trkpt lat="42.49441" lon="2.63026">
        <ele>911.59997558594</ele>
        <time>2023-07-15T06:34:18.000Z</time>
      </trkpt>
      <trkpt lat="42.49442" lon="2.63028">
        <ele>911.40002441406</ele>
        <time>2023-07-15T06:34:27.000Z</time>
      </trkpt>
      <trkpt lat="42.49441" lon="2.63028">
        <ele>911.40002441406</ele>
        <time>2023-07-15T06:34:35.000Z</time>
      </trkpt>
      <trkpt lat="42.49441" lon="2.63029">
        <ele>911.40002441406</ele>
        <time>2023-07-15T06:34:43.000Z</time>
      </trkpt>
      <trkpt lat="42.49443" lon="2.63039">
        <ele>910.20001220703</ele>
        <time>2023-07-15T06:34:53.000Z</time>
      </trkpt>
      <trkpt lat="42.49447" lon="2.63045">
        <ele>909.79998779297</ele>
        <time>2023-07-15T06:34:58.000Z</time>
      </trkpt>
      <trkpt lat="42.49451" lon="2.63049">
        <ele>909.20001220703</ele>
        <time>2023-07-15T06:35:01.000Z</time>
      </trkpt>
      <trkpt lat="42.49459" lon="2.63056">
        <ele>908.59997558594</ele>
        <time>2023-07-15T06:35:07.000Z</time>
      </trkpt>
      <trkpt lat="42.49462" lon="2.63058">
        <ele>908.20001220703</ele>
        <time>2023-07-15T06:35:10.000Z</time>
      </trkpt>
      <trkpt lat="42.49468" lon="2.63065">
        <ele>907.59997558594</ele>
        <time>2023-07-15T06:35:16.000Z</time>
      </trkpt>
      <trkpt lat="42.49469" lon="2.63067">
        <ele>907.40002441406</ele>
        <time>2023-07-15T06:35:17.000Z</time>
      </trkpt>
      <trkpt lat="42.49475" lon="2.63073">
        <ele>906.79998779297</ele>
        <time>2023-07-15T06:35:25.000Z</time>
      </trkpt>
      <trkpt lat="42.49474" lon="2.63073">
        <ele>906.79998779297</ele>
        <time>2023-07-15T06:35:26.000Z</time>
      </trkpt>
      <trkpt lat="42.49473" lon="2.63072">
        <ele>907</ele>
        <time>2023-07-15T06:35:32.000Z</time>
      </trkpt>
      <trkpt lat="42.49473" lon="2.63067">
        <ele>908.59997558594</ele>
        <time>2023-07-15T06:35:39.000Z</time>
      </trkpt>
      <trkpt lat="42.49475" lon="2.63064">
        <ele>909.59997558594</ele>
        <time>2023-07-15T06:35:44.000Z</time>
      </trkpt>
      <trkpt lat="42.49475" lon="2.63061">
        <ele>910.20001220703</ele>
        <time>2023-07-15T06:35:47.000Z</time>
      </trkpt>
      <trkpt lat="42.49476" lon="2.6306">
        <ele>910.79998779297</ele>
        <time>2023-07-15T06:35:50.000Z</time>
      </trkpt>
      <trkpt lat="42.49476" lon="2.63058">
        <ele>911.40002441406</ele>
        <time>2023-07-15T06:35:54.000Z</time>
      </trkpt>
      <trkpt lat="42.49477" lon="2.63057">
        <ele>912</ele>
        <time>2023-07-15T06:35:57.000Z</time>
      </trkpt>
      <trkpt lat="42.49476" lon="2.63055">
        <ele>913</ele>
        <time>2023-07-15T06:36:02.000Z</time>
      </trkpt>
      <trkpt lat="42.49475" lon="2.6305">
        <ele>914.20001220703</ele>
        <time>2023-07-15T06:36:08.000Z</time>
      </trkpt>
      <trkpt lat="42.49474" lon="2.6305">
        <ele>914.59997558594</ele>
        <time>2023-07-15T06:36:10.000Z</time>
      </trkpt>
      <trkpt lat="42.49473" lon="2.63047">
        <ele>915.20001220703</ele>
        <time>2023-07-15T06:36:14.000Z</time>
      </trkpt>
      <trkpt lat="42.49474" lon="2.63046">
        <ele>916</ele>
        <time>2023-07-15T06:36:18.000Z</time>
      </trkpt>
      <trkpt lat="42.49475" lon="2.63044">
        <ele>916.40002441406</ele>
        <time>2023-07-15T06:36:21.000Z</time>
      </trkpt>
      <trkpt lat="42.49475" lon="2.63038">
        <ele>917</ele>
        <time>2023-07-15T06:36:25.000Z</time>
      </trkpt>
      <trkpt lat="42.49475" lon="2.63036">
        <ele>917.59997558594</ele>
        <time>2023-07-15T06:36:28.000Z</time>
      </trkpt>
      <trkpt lat="42.49473" lon="2.63035">
        <ele>918.20001220703</ele>
        <time>2023-07-15T06:36:32.000Z</time>
      </trkpt>
      <trkpt lat="42.49472" lon="2.63031">
        <ele>918.59997558594</ele>
        <time>2023-07-15T06:36:35.000Z</time>
      </trkpt>
      <trkpt lat="42.49471" lon="2.63032">
        <ele>919.20001220703</ele>
        <time>2023-07-15T06:36:38.000Z</time>
      </trkpt>
      <trkpt lat="42.49471" lon="2.6303">
        <ele>919.79998779297</ele>
        <time>2023-07-15T06:36:42.000Z</time>
      </trkpt>
      <trkpt lat="42.49472" lon="2.63027">
        <ele>920.59997558594</ele>
        <time>2023-07-15T06:36:47.000Z</time>
      </trkpt>
      <trkpt lat="42.49472" lon="2.63027">
        <ele>920.79998779297</ele>
        <time>2023-07-15T06:36:48.000Z</time>
      </trkpt>
      <trkpt lat="42.49472" lon="2.63023">
        <ele>921.79998779297</ele>
        <time>2023-07-15T06:36:54.000Z</time>
      </trkpt>
      <trkpt lat="42.49472" lon="2.63022">
        <ele>922.20001220703</ele>
        <time>2023-07-15T06:36:56.000Z</time>
      </trkpt>
      <trkpt lat="42.49472" lon="2.63021">
        <ele>923</ele>
        <time>2023-07-15T06:37:01.000Z</time>
      </trkpt>
      <trkpt lat="42.49472" lon="2.6302">
        <ele>923.40002441406</ele>
        <time>2023-07-15T06:37:03.000Z</time>
      </trkpt>
      <trkpt lat="42.49473" lon="2.63014">
        <ele>924</ele>
        <time>2023-07-15T06:37:08.000Z</time>
      </trkpt>
      <trkpt lat="42.49474" lon="2.63013">
        <ele>924.20001220703</ele>
        <time>2023-07-15T06:37:09.000Z</time>
      </trkpt>
      <trkpt lat="42.49474" lon="2.63011">
        <ele>925.20001220703</ele>
        <time>2023-07-15T06:37:15.000Z</time>
      </trkpt>
      <trkpt lat="42.49474" lon="2.63009">
        <ele>925.59997558594</ele>
        <time>2023-07-15T06:37:18.000Z</time>
      </trkpt>
      <trkpt lat="42.49474" lon="2.63007">
        <ele>926.20001220703</ele>
        <time>2023-07-15T06:37:22.000Z</time>
      </trkpt>
      <trkpt lat="42.49474" lon="2.63005">
        <ele>926.79998779297</ele>
        <time>2023-07-15T06:37:26.000Z</time>
      </trkpt>
      <trkpt lat="42.49474" lon="2.63003">
        <ele>927.20001220703</ele>
        <time>2023-07-15T06:37:28.000Z</time>
      </trkpt>
      <trkpt lat="42.49475" lon="2.63">
        <ele>928</ele>
        <time>2023-07-15T06:37:33.000Z</time>
      </trkpt>
      <trkpt lat="42.49476" lon="2.62999">
        <ele>928.40002441406</ele>
        <time>2023-07-15T06:37:35.000Z</time>
      </trkpt>
      <trkpt lat="42.49476" lon="2.62997">
        <ele>929.40002441406</ele>
        <time>2023-07-15T06:37:41.000Z</time>
      </trkpt>
      <trkpt lat="42.49476" lon="2.6299">
        <ele>930.40002441406</ele>
        <time>2023-07-15T06:37:49.000Z</time>
      </trkpt>
      <trkpt lat="42.49476" lon="2.62989">
        <ele>930.79998779297</ele>
        <time>2023-07-15T06:37:51.000Z</time>
      </trkpt>
      <trkpt lat="42.49475" lon="2.62989">
        <ele>931.59997558594</ele>
        <time>2023-07-15T06:37:56.000Z</time>
      </trkpt>
      <trkpt lat="42.49476" lon="2.62986">
        <ele>932.20001220703</ele>
        <time>2023-07-15T06:37:59.000Z</time>
      </trkpt>
      <trkpt lat="42.49476" lon="2.62984">
        <ele>932.79998779297</ele>
        <time>2023-07-15T06:38:03.000Z</time>
      </trkpt>
      <trkpt lat="42.49476" lon="2.62983">
        <ele>933.20001220703</ele>
        <time>2023-07-15T06:38:07.000Z</time>
      </trkpt>
      <trkpt lat="42.49477" lon="2.62978">
        <ele>933.79998779297</ele>
        <time>2023-07-15T06:38:12.000Z</time>
      </trkpt>
      <trkpt lat="42.49478" lon="2.62975">
        <ele>934.40002441406</ele>
        <time>2023-07-15T06:38:16.000Z</time>
      </trkpt>
      <trkpt lat="42.49479" lon="2.62972">
        <ele>935</ele>
        <time>2023-07-15T06:38:19.000Z</time>
      </trkpt>
      <trkpt lat="42.4948" lon="2.62967">
        <ele>936</ele>
        <time>2023-07-15T06:38:26.000Z</time>
      </trkpt>
      <trkpt lat="42.4948" lon="2.62966">
        <ele>936.20001220703</ele>
        <time>2023-07-15T06:38:27.000Z</time>
      </trkpt>
      <trkpt lat="42.4948" lon="2.62963">
        <ele>937</ele>
        <time>2023-07-15T06:38:31.000Z</time>
      </trkpt>
      <trkpt lat="42.49479" lon="2.62959">
        <ele>937.79998779297</ele>
        <time>2023-07-15T06:38:36.000Z</time>
      </trkpt>
      <trkpt lat="42.49479" lon="2.62957">
        <ele>938</ele>
        <time>2023-07-15T06:38:38.000Z</time>
      </trkpt>
      <trkpt lat="42.49477" lon="2.62954">
        <ele>939</ele>
        <time>2023-07-15T06:38:45.000Z</time>
      </trkpt>
      <trkpt lat="42.49477" lon="2.62953">
        <ele>939.20001220703</ele>
        <time>2023-07-15T06:38:46.000Z</time>
      </trkpt>
      <trkpt lat="42.49477" lon="2.62946">
        <ele>940.20001220703</ele>
        <time>2023-07-15T06:38:53.000Z</time>
      </trkpt>
      <trkpt lat="42.49476" lon="2.62942">
        <ele>941.20001220703</ele>
        <time>2023-07-15T06:39:00.000Z</time>
      </trkpt>
      <trkpt lat="42.49476" lon="2.62942">
        <ele>941.40002441406</ele>
        <time>2023-07-15T06:39:01.000Z</time>
      </trkpt>
      <trkpt lat="42.49474" lon="2.62937">
        <ele>942</ele>
        <time>2023-07-15T06:39:08.000Z</time>
      </trkpt>
      <trkpt lat="42.49474" lon="2.62935">
        <ele>942.20001220703</ele>
        <time>2023-07-15T06:39:10.000Z</time>
      </trkpt>
      <trkpt lat="42.49473" lon="2.6293">
        <ele>943.40002441406</ele>
        <time>2023-07-15T06:39:17.000Z</time>
      </trkpt>
      <trkpt lat="42.49472" lon="2.6292">
        <ele>944.20001220703</ele>
        <time>2023-07-15T06:39:25.000Z</time>
      </trkpt>
      <trkpt lat="42.49473" lon="2.6292">
        <ele>944.40002441406</ele>
        <time>2023-07-15T06:39:26.000Z</time>
      </trkpt>
      <trkpt lat="42.49471" lon="2.62911">
        <ele>945.59997558594</ele>
        <time>2023-07-15T06:39:32.000Z</time>
      </trkpt>
      <trkpt lat="42.4947" lon="2.62904">
        <ele>946.79998779297</ele>
        <time>2023-07-15T06:39:39.000Z</time>
      </trkpt>
      <trkpt lat="42.49468" lon="2.629">
        <ele>947.79998779297</ele>
        <time>2023-07-15T06:39:45.000Z</time>
      </trkpt>
      <trkpt lat="42.49466" lon="2.62895">
        <ele>948.20001220703</ele>
        <time>2023-07-15T06:39:48.000Z</time>
      </trkpt>
      <trkpt lat="42.49464" lon="2.6289">
        <ele>948.79998779297</ele>
        <time>2023-07-15T06:39:53.000Z</time>
      </trkpt>
      <trkpt lat="42.49463" lon="2.62887">
        <ele>949.20001220703</ele>
        <time>2023-07-15T06:39:56.000Z</time>
      </trkpt>
      <trkpt lat="42.49461" lon="2.6288">
        <ele>949.79998779297</ele>
        <time>2023-07-15T06:40:02.000Z</time>
      </trkpt>
      <trkpt lat="42.4946" lon="2.62879">
        <ele>950</ele>
        <time>2023-07-15T06:40:03.000Z</time>
      </trkpt>
      <trkpt lat="42.49459" lon="2.62873">
        <ele>950.79998779297</ele>
        <time>2023-07-15T06:40:09.000Z</time>
      </trkpt>
      <trkpt lat="42.49458" lon="2.62871">
        <ele>951.20001220703</ele>
        <time>2023-07-15T06:40:11.000Z</time>
      </trkpt>
      <trkpt lat="42.49456" lon="2.62867">
        <ele>952</ele>
        <time>2023-07-15T06:40:18.000Z</time>
      </trkpt>
      <trkpt lat="42.49454" lon="2.62863">
        <ele>952.59997558594</ele>
        <time>2023-07-15T06:40:21.000Z</time>
      </trkpt>
      <trkpt lat="42.49454" lon="2.6286">
        <ele>953.20001220703</ele>
        <time>2023-07-15T06:40:24.000Z</time>
      </trkpt>
      <trkpt lat="42.49454" lon="2.62854">
        <ele>954.20001220703</ele>
        <time>2023-07-15T06:40:30.000Z</time>
      </trkpt>
      <trkpt lat="42.49454" lon="2.62853">
        <ele>954.40002441406</ele>
        <time>2023-07-15T06:40:31.000Z</time>
      </trkpt>
      <trkpt lat="42.49452" lon="2.62847">
        <ele>955.20001220703</ele>
        <time>2023-07-15T06:40:38.000Z</time>
      </trkpt>
      <trkpt lat="42.49451" lon="2.62846">
        <ele>955.40002441406</ele>
        <time>2023-07-15T06:40:39.000Z</time>
      </trkpt>
      <trkpt lat="42.49449" lon="2.6284">
        <ele>956.59997558594</ele>
        <time>2023-07-15T06:40:45.000Z</time>
      </trkpt>
      <trkpt lat="42.49449" lon="2.62839">
        <ele>956.79998779297</ele>
        <time>2023-07-15T06:40:46.000Z</time>
      </trkpt>
      <trkpt lat="42.49447" lon="2.62831">
        <ele>957.59997558594</ele>
        <time>2023-07-15T06:40:52.000Z</time>
      </trkpt>
      <trkpt lat="42.49447" lon="2.62829">
        <ele>957.79998779297</ele>
        <time>2023-07-15T06:40:53.000Z</time>
      </trkpt>
      <trkpt lat="42.49445" lon="2.62825">
        <ele>958.59997558594</ele>
        <time>2023-07-15T06:40:58.000Z</time>
      </trkpt>
      <trkpt lat="42.49444" lon="2.62823">
        <ele>959</ele>
        <time>2023-07-15T06:41:00.000Z</time>
      </trkpt>
      <trkpt lat="42.49442" lon="2.6282">
        <ele>959.79998779297</ele>
        <time>2023-07-15T06:41:03.000Z</time>
      </trkpt>
      <trkpt lat="42.49439" lon="2.62814">
        <ele>960.59997558594</ele>
        <time>2023-07-15T06:41:09.000Z</time>
      </trkpt>
      <trkpt lat="42.49438" lon="2.62812">
        <ele>960.79998779297</ele>
        <time>2023-07-15T06:41:11.000Z</time>
      </trkpt>
      <trkpt lat="42.49438" lon="2.62807">
        <ele>961.59997558594</ele>
        <time>2023-07-15T06:41:16.000Z</time>
      </trkpt>
      <trkpt lat="42.49437" lon="2.62805">
        <ele>962</ele>
        <time>2023-07-15T06:41:18.000Z</time>
      </trkpt>
      <trkpt lat="42.49433" lon="2.62799">
        <ele>963</ele>
        <time>2023-07-15T06:41:26.000Z</time>
      </trkpt>
      <trkpt lat="42.49433" lon="2.62798">
        <ele>963</ele>
        <time>2023-07-15T06:41:27.000Z</time>
      </trkpt>
      <trkpt lat="42.49431" lon="2.6279">
        <ele>964</ele>
        <time>2023-07-15T06:41:34.000Z</time>
      </trkpt>
      <trkpt lat="42.49428" lon="2.62785">
        <ele>965</ele>
        <time>2023-07-15T06:41:40.000Z</time>
      </trkpt>
      <trkpt lat="42.49428" lon="2.62785">
        <ele>965</ele>
        <time>2023-07-15T06:41:41.000Z</time>
      </trkpt>
      <trkpt lat="42.49428" lon="2.62781">
        <ele>966.20001220703</ele>
        <time>2023-07-15T06:41:47.000Z</time>
      </trkpt>
      <trkpt lat="42.49428" lon="2.62779">
        <ele>966.79998779297</ele>
        <time>2023-07-15T06:41:50.000Z</time>
      </trkpt>
      <trkpt lat="42.4943" lon="2.62773">
        <ele>967.20001220703</ele>
        <time>2023-07-15T06:41:56.000Z</time>
      </trkpt>
      <trkpt lat="42.4943" lon="2.62769">
        <ele>968.40002441406</ele>
        <time>2023-07-15T06:42:02.000Z</time>
      </trkpt>
      <trkpt lat="42.4943" lon="2.62768">
        <ele>968.59997558594</ele>
        <time>2023-07-15T06:42:03.000Z</time>
      </trkpt>
      <trkpt lat="42.49431" lon="2.62766">
        <ele>969.40002441406</ele>
        <time>2023-07-15T06:42:08.000Z</time>
      </trkpt>
      <trkpt lat="42.49431" lon="2.62766">
        <ele>969.79998779297</ele>
        <time>2023-07-15T06:42:11.000Z</time>
      </trkpt>
      <trkpt lat="42.49433" lon="2.62762">
        <ele>970.40002441406</ele>
        <time>2023-07-15T06:42:19.000Z</time>
      </trkpt>
      <trkpt lat="42.49434" lon="2.62763">
        <ele>970.59997558594</ele>
        <time>2023-07-15T06:42:20.000Z</time>
      </trkpt>
      <trkpt lat="42.49434" lon="2.6276">
        <ele>971.59997558594</ele>
        <time>2023-07-15T06:42:26.000Z</time>
      </trkpt>
      <trkpt lat="42.49434" lon="2.62759">
        <ele>971.79998779297</ele>
        <time>2023-07-15T06:42:27.000Z</time>
      </trkpt>
      <trkpt lat="42.49433" lon="2.62756">
        <ele>972.59997558594</ele>
        <time>2023-07-15T06:42:33.000Z</time>
      </trkpt>
      <trkpt lat="42.49432" lon="2.62753">
        <ele>973.40002441406</ele>
        <time>2023-07-15T06:42:37.000Z</time>
      </trkpt>
      <trkpt lat="42.49433" lon="2.62753">
        <ele>973.79998779297</ele>
        <time>2023-07-15T06:42:38.000Z</time>
      </trkpt>
      <trkpt lat="42.49435" lon="2.62749">
        <ele>974.59997558594</ele>
        <time>2023-07-15T06:42:43.000Z</time>
      </trkpt>
      <trkpt lat="42.49436" lon="2.62748">
        <ele>974.79998779297</ele>
        <time>2023-07-15T06:42:45.000Z</time>
      </trkpt>
      <trkpt lat="42.49437" lon="2.62747">
        <ele>975.79998779297</ele>
        <time>2023-07-15T06:42:50.000Z</time>
      </trkpt>
      <trkpt lat="42.49437" lon="2.62747">
        <ele>975.79998779297</ele>
        <time>2023-07-15T06:42:51.000Z</time>
      </trkpt>
      <trkpt lat="42.49439" lon="2.62745">
        <ele>977</ele>
        <time>2023-07-15T06:42:57.000Z</time>
      </trkpt>
      <trkpt lat="42.49439" lon="2.62744">
        <ele>977.20001220703</ele>
        <time>2023-07-15T06:42:59.000Z</time>
      </trkpt>
      <trkpt lat="42.49441" lon="2.62739">
        <ele>978.20001220703</ele>
        <time>2023-07-15T06:43:06.000Z</time>
      </trkpt>
      <trkpt lat="42.49441" lon="2.62738">
        <ele>978.59997558594</ele>
        <time>2023-07-15T06:43:08.000Z</time>
      </trkpt>
      <trkpt lat="42.49442" lon="2.62736">
        <ele>979.20001220703</ele>
        <time>2023-07-15T06:43:12.000Z</time>
      </trkpt>
      <trkpt lat="42.49443" lon="2.62732">
        <ele>980.20001220703</ele>
        <time>2023-07-15T06:43:18.000Z</time>
      </trkpt>
      <trkpt lat="42.49443" lon="2.62731">
        <ele>980.40002441406</ele>
        <time>2023-07-15T06:43:19.000Z</time>
      </trkpt>
      <trkpt lat="42.49444" lon="2.62731">
        <ele>981.40002441406</ele>
        <time>2023-07-15T06:43:24.000Z</time>
      </trkpt>
      <trkpt lat="42.49445" lon="2.6273">
        <ele>981.59997558594</ele>
        <time>2023-07-15T06:43:26.000Z</time>
      </trkpt>
      <trkpt lat="42.49447" lon="2.62727">
        <ele>982.40002441406</ele>
        <time>2023-07-15T06:43:32.000Z</time>
      </trkpt>
      <trkpt lat="42.49447" lon="2.62727">
        <ele>982.40002441406</ele>
        <time>2023-07-15T06:43:33.000Z</time>
      </trkpt>
      <trkpt lat="42.49449" lon="2.62721">
        <ele>983.40002441406</ele>
        <time>2023-07-15T06:43:39.000Z</time>
      </trkpt>
      <trkpt lat="42.49449" lon="2.6272">
        <ele>983.59997558594</ele>
        <time>2023-07-15T06:43:40.000Z</time>
      </trkpt>
      <trkpt lat="42.49451" lon="2.62718">
        <ele>984.40002441406</ele>
        <time>2023-07-15T06:43:45.000Z</time>
      </trkpt>
      <trkpt lat="42.49453" lon="2.62716">
        <ele>984.79998779297</ele>
        <time>2023-07-15T06:43:48.000Z</time>
      </trkpt>
      <trkpt lat="42.49454" lon="2.62714">
        <ele>985.59997558594</ele>
        <time>2023-07-15T06:43:52.000Z</time>
      </trkpt>
      <trkpt lat="42.49456" lon="2.62713">
        <ele>985.79998779297</ele>
        <time>2023-07-15T06:43:55.000Z</time>
      </trkpt>
      <trkpt lat="42.49456" lon="2.62711">
        <ele>986.59997558594</ele>
        <time>2023-07-15T06:43:59.000Z</time>
      </trkpt>
      <trkpt lat="42.49457" lon="2.62708">
        <ele>987.20001220703</ele>
        <time>2023-07-15T06:44:04.000Z</time>
      </trkpt>
      <trkpt lat="42.49458" lon="2.62707">
        <ele>987.59997558594</ele>
        <time>2023-07-15T06:44:07.000Z</time>
      </trkpt>
      <trkpt lat="42.49461" lon="2.62704">
        <ele>988.20001220703</ele>
        <time>2023-07-15T06:44:11.000Z</time>
      </trkpt>
      <trkpt lat="42.49463" lon="2.62702">
        <ele>988.79998779297</ele>
        <time>2023-07-15T06:44:15.000Z</time>
      </trkpt>
      <trkpt lat="42.49466" lon="2.62699">
        <ele>989.40002441406</ele>
        <time>2023-07-15T06:44:20.000Z</time>
      </trkpt>
      <trkpt lat="42.49465" lon="2.62698">
        <ele>989.79998779297</ele>
        <time>2023-07-15T06:44:22.000Z</time>
      </trkpt>
      <trkpt lat="42.49466" lon="2.62694">
        <ele>990.79998779297</ele>
        <time>2023-07-15T06:44:28.000Z</time>
      </trkpt>
      <trkpt lat="42.49467" lon="2.62693">
        <ele>990.79998779297</ele>
        <time>2023-07-15T06:44:29.000Z</time>
      </trkpt>
      <trkpt lat="42.49467" lon="2.62689">
        <ele>991.79998779297</ele>
        <time>2023-07-15T06:44:34.000Z</time>
      </trkpt>
      <trkpt lat="42.49467" lon="2.62688">
        <ele>992.20001220703</ele>
        <time>2023-07-15T06:44:36.000Z</time>
      </trkpt>
      <trkpt lat="42.49468" lon="2.62686">
        <ele>993</ele>
        <time>2023-07-15T06:44:41.000Z</time>
      </trkpt>
      <trkpt lat="42.49468" lon="2.62685">
        <ele>993.20001220703</ele>
        <time>2023-07-15T06:44:43.000Z</time>
      </trkpt>
      <trkpt lat="42.49469" lon="2.62682">
        <ele>994</ele>
        <time>2023-07-15T06:44:48.000Z</time>
      </trkpt>
      <trkpt lat="42.4947" lon="2.62679">
        <ele>994.59997558594</ele>
        <time>2023-07-15T06:44:52.000Z</time>
      </trkpt>
      <trkpt lat="42.49471" lon="2.62677">
        <ele>995</ele>
        <time>2023-07-15T06:44:55.000Z</time>
      </trkpt>
      <trkpt lat="42.49472" lon="2.62676">
        <ele>996</ele>
        <time>2023-07-15T06:45:01.000Z</time>
      </trkpt>
      <trkpt lat="42.49472" lon="2.62675">
        <ele>996</ele>
        <time>2023-07-15T06:45:02.000Z</time>
      </trkpt>
      <trkpt lat="42.49474" lon="2.62672">
        <ele>997.20001220703</ele>
        <time>2023-07-15T06:45:08.000Z</time>
      </trkpt>
      <trkpt lat="42.49474" lon="2.62671">
        <ele>997.59997558594</ele>
        <time>2023-07-15T06:45:10.000Z</time>
      </trkpt>
      <trkpt lat="42.49475" lon="2.62669">
        <ele>998.40002441406</ele>
        <time>2023-07-15T06:45:14.000Z</time>
      </trkpt>
      <trkpt lat="42.49475" lon="2.62669">
        <ele>998.79998779297</ele>
        <time>2023-07-15T06:45:17.000Z</time>
      </trkpt>
      <trkpt lat="42.49476" lon="2.62667">
        <ele>999.40002441406</ele>
        <time>2023-07-15T06:45:20.000Z</time>
      </trkpt>
      <trkpt lat="42.49477" lon="2.62664">
        <ele>1000.4000244141</ele>
        <time>2023-07-15T06:45:26.000Z</time>
      </trkpt>
      <trkpt lat="42.4948" lon="2.6266">
        <ele>1001.4000244141</ele>
        <time>2023-07-15T06:45:34.000Z</time>
      </trkpt>
      <trkpt lat="42.49481" lon="2.6266">
        <ele>1001.5999755859</ele>
        <time>2023-07-15T06:45:35.000Z</time>
      </trkpt>
      <trkpt lat="42.49484" lon="2.62658">
        <ele>1002.4000244141</ele>
        <time>2023-07-15T06:45:41.000Z</time>
      </trkpt>
      <trkpt lat="42.49485" lon="2.62658">
        <ele>1002.5999755859</ele>
        <time>2023-07-15T06:45:42.000Z</time>
      </trkpt>
      <trkpt lat="42.49487" lon="2.62655">
        <ele>1003.799987793</ele>
        <time>2023-07-15T06:45:48.000Z</time>
      </trkpt>
      <trkpt lat="42.49488" lon="2.62655">
        <ele>1004</ele>
        <time>2023-07-15T06:45:50.000Z</time>
      </trkpt>
      <trkpt lat="42.49491" lon="2.62653">
        <ele>1005</ele>
        <time>2023-07-15T06:45:55.000Z</time>
      </trkpt>
      <trkpt lat="42.4949" lon="2.62652">
        <ele>1005.4000244141</ele>
        <time>2023-07-15T06:45:58.000Z</time>
      </trkpt>
      <trkpt lat="42.4949" lon="2.62649">
        <ele>1006</ele>
        <time>2023-07-15T06:46:02.000Z</time>
      </trkpt>
      <trkpt lat="42.49491" lon="2.62644">
        <ele>1006.5999755859</ele>
        <time>2023-07-15T06:46:07.000Z</time>
      </trkpt>
      <trkpt lat="42.49491" lon="2.62643">
        <ele>1007</ele>
        <time>2023-07-15T06:46:09.000Z</time>
      </trkpt>
      <trkpt lat="42.49493" lon="2.62641">
        <ele>1008</ele>
        <time>2023-07-15T06:46:16.000Z</time>
      </trkpt>
      <trkpt lat="42.49494" lon="2.6264">
        <ele>1008.5999755859</ele>
        <time>2023-07-15T06:46:18.000Z</time>
      </trkpt>
      <trkpt lat="42.49496" lon="2.62637">
        <ele>1009.200012207</ele>
        <time>2023-07-15T06:46:22.000Z</time>
      </trkpt>
      <trkpt lat="42.49498" lon="2.62635">
        <ele>1009.799987793</ele>
        <time>2023-07-15T06:46:27.000Z</time>
      </trkpt>
      <trkpt lat="42.49499" lon="2.62636">
        <ele>1010.200012207</ele>
        <time>2023-07-15T06:46:29.000Z</time>
      </trkpt>
      <trkpt lat="42.49498" lon="2.62631">
        <ele>1011.4000244141</ele>
        <time>2023-07-15T06:46:36.000Z</time>
      </trkpt>
      <trkpt lat="42.49496" lon="2.62622">
        <ele>1012.4000244141</ele>
        <time>2023-07-15T06:46:42.000Z</time>
      </trkpt>
      <trkpt lat="42.49496" lon="2.62622">
        <ele>1012.5999755859</ele>
        <time>2023-07-15T06:46:43.000Z</time>
      </trkpt>
      <trkpt lat="42.49495" lon="2.62621">
        <ele>1013.5999755859</ele>
        <time>2023-07-15T06:46:48.000Z</time>
      </trkpt>
      <trkpt lat="42.49495" lon="2.6262">
        <ele>1014</ele>
        <time>2023-07-15T06:46:51.000Z</time>
      </trkpt>
      <trkpt lat="42.49496" lon="2.6262">
        <ele>1014.799987793</ele>
        <time>2023-07-15T06:46:56.000Z</time>
      </trkpt>
      <trkpt lat="42.495" lon="2.6262">
        <ele>1015.4000244141</ele>
        <time>2023-07-15T06:47:01.000Z</time>
      </trkpt>
      <trkpt lat="42.49501" lon="2.62619">
        <ele>1015.799987793</ele>
        <time>2023-07-15T06:47:03.000Z</time>
      </trkpt>
      <trkpt lat="42.49503" lon="2.62615">
        <ele>1016.799987793</ele>
        <time>2023-07-15T06:47:08.000Z</time>
      </trkpt>
      <trkpt lat="42.49504" lon="2.62613">
        <ele>1017.200012207</ele>
        <time>2023-07-15T06:47:11.000Z</time>
      </trkpt>
      <trkpt lat="42.49505" lon="2.62613">
        <ele>1017.799987793</ele>
        <time>2023-07-15T06:47:15.000Z</time>
      </trkpt>
      <trkpt lat="42.49507" lon="2.62611">
        <ele>1018.4000244141</ele>
        <time>2023-07-15T06:47:19.000Z</time>
      </trkpt>
      <trkpt lat="42.49509" lon="2.6261">
        <ele>1019</ele>
        <time>2023-07-15T06:47:22.000Z</time>
      </trkpt>
      <trkpt lat="42.49511" lon="2.62607">
        <ele>1019.799987793</ele>
        <time>2023-07-15T06:47:26.000Z</time>
      </trkpt>
      <trkpt lat="42.49511" lon="2.62607">
        <ele>1020</ele>
        <time>2023-07-15T06:47:27.000Z</time>
      </trkpt>
      <trkpt lat="42.4951" lon="2.62605">
        <ele>1021</ele>
        <time>2023-07-15T06:47:34.000Z</time>
      </trkpt>
      <trkpt lat="42.4951" lon="2.62604">
        <ele>1021.200012207</ele>
        <time>2023-07-15T06:47:35.000Z</time>
      </trkpt>
      <trkpt lat="42.49513" lon="2.626">
        <ele>1022.200012207</ele>
        <time>2023-07-15T06:47:42.000Z</time>
      </trkpt>
      <trkpt lat="42.49514" lon="2.62598">
        <ele>1022.5999755859</ele>
        <time>2023-07-15T06:47:44.000Z</time>
      </trkpt>
      <trkpt lat="42.49516" lon="2.62596">
        <ele>1023.4000244141</ele>
        <time>2023-07-15T06:47:49.000Z</time>
      </trkpt>
      <trkpt lat="42.49519" lon="2.62593">
        <ele>1024</ele>
        <time>2023-07-15T06:47:54.000Z</time>
      </trkpt>
      <trkpt lat="42.49519" lon="2.62592">
        <ele>1024.4000244141</ele>
        <time>2023-07-15T06:47:56.000Z</time>
      </trkpt>
      <trkpt lat="42.4952" lon="2.6259">
        <ele>1025.5999755859</ele>
        <time>2023-07-15T06:48:03.000Z</time>
      </trkpt>
      <trkpt lat="42.49521" lon="2.6259">
        <ele>1025.5999755859</ele>
        <time>2023-07-15T06:48:04.000Z</time>
      </trkpt>
      <trkpt lat="42.49522" lon="2.62588">
        <ele>1026.8000488281</ele>
        <time>2023-07-15T06:48:09.000Z</time>
      </trkpt>
      <trkpt lat="42.49524" lon="2.62584">
        <ele>1027.4000244141</ele>
        <time>2023-07-15T06:48:14.000Z</time>
      </trkpt>
      <trkpt lat="42.49524" lon="2.62583">
        <ele>1027.8000488281</ele>
        <time>2023-07-15T06:48:16.000Z</time>
      </trkpt>
      <trkpt lat="42.49525" lon="2.6258">
        <ele>1028.8000488281</ele>
        <time>2023-07-15T06:48:22.000Z</time>
      </trkpt>
      <trkpt lat="42.49525" lon="2.62579">
        <ele>1028.8000488281</ele>
        <time>2023-07-15T06:48:23.000Z</time>
      </trkpt>
      <trkpt lat="42.49527" lon="2.62574">
        <ele>1029.8000488281</ele>
        <time>2023-07-15T06:48:30.000Z</time>
      </trkpt>
      <trkpt lat="42.49527" lon="2.62573">
        <ele>1030</ele>
        <time>2023-07-15T06:48:31.000Z</time>
      </trkpt>
      <trkpt lat="42.49529" lon="2.62569">
        <ele>1031</ele>
        <time>2023-07-15T06:48:39.000Z</time>
      </trkpt>
      <trkpt lat="42.49529" lon="2.62568">
        <ele>1031.4000244141</ele>
        <time>2023-07-15T06:48:41.000Z</time>
      </trkpt>
      <trkpt lat="42.49529" lon="2.62565">
        <ele>1032.1999511719</ele>
        <time>2023-07-15T06:48:46.000Z</time>
      </trkpt>
      <trkpt lat="42.49529" lon="2.62562">
        <ele>1033</ele>
        <time>2023-07-15T06:48:51.000Z</time>
      </trkpt>
      <trkpt lat="42.49529" lon="2.62561">
        <ele>1033.1999511719</ele>
        <time>2023-07-15T06:48:53.000Z</time>
      </trkpt>
      <trkpt lat="42.49531" lon="2.62558">
        <ele>1034.1999511719</ele>
        <time>2023-07-15T06:49:00.000Z</time>
      </trkpt>
      <trkpt lat="42.49531" lon="2.62556">
        <ele>1034.1999511719</ele>
        <time>2023-07-15T06:49:01.000Z</time>
      </trkpt>
      <trkpt lat="42.49533" lon="2.62554">
        <ele>1035.1999511719</ele>
        <time>2023-07-15T06:49:06.000Z</time>
      </trkpt>
      <trkpt lat="42.49533" lon="2.62554">
        <ele>1035.4000244141</ele>
        <time>2023-07-15T06:49:07.000Z</time>
      </trkpt>
      <trkpt lat="42.49534" lon="2.6255">
        <ele>1036</ele>
        <time>2023-07-15T06:49:13.000Z</time>
      </trkpt>
      <trkpt lat="42.49534" lon="2.62548">
        <ele>1036.4000244141</ele>
        <time>2023-07-15T06:49:15.000Z</time>
      </trkpt>
      <trkpt lat="42.49535" lon="2.62544">
        <ele>1037.1999511719</ele>
        <time>2023-07-15T06:49:20.000Z</time>
      </trkpt>
      <trkpt lat="42.49535" lon="2.62544">
        <ele>1037.4000244141</ele>
        <time>2023-07-15T06:49:21.000Z</time>
      </trkpt>
      <trkpt lat="42.49536" lon="2.62541">
        <ele>1038.4000244141</ele>
        <time>2023-07-15T06:49:26.000Z</time>
      </trkpt>
      <trkpt lat="42.49537" lon="2.6254">
        <ele>1038.5999755859</ele>
        <time>2023-07-15T06:49:28.000Z</time>
      </trkpt>
      <trkpt lat="42.49541" lon="2.62539">
        <ele>1039.1999511719</ele>
        <time>2023-07-15T06:49:33.000Z</time>
      </trkpt>
      <trkpt lat="42.49543" lon="2.62538">
        <ele>1039.5999755859</ele>
        <time>2023-07-15T06:49:36.000Z</time>
      </trkpt>
      <trkpt lat="42.49543" lon="2.62532">
        <ele>1040.4000244141</ele>
        <time>2023-07-15T06:49:43.000Z</time>
      </trkpt>
      <trkpt lat="42.49543" lon="2.62532">
        <ele>1040.5999755859</ele>
        <time>2023-07-15T06:49:44.000Z</time>
      </trkpt>
      <trkpt lat="42.49545" lon="2.62526">
        <ele>1041.5999755859</ele>
        <time>2023-07-15T06:49:51.000Z</time>
      </trkpt>
      <trkpt lat="42.49548" lon="2.62523">
        <ele>1042.8000488281</ele>
        <time>2023-07-15T06:49:58.000Z</time>
      </trkpt>
      <trkpt lat="42.49549" lon="2.62523">
        <ele>1043.1999511719</ele>
        <time>2023-07-15T06:50:01.000Z</time>
      </trkpt>
      <trkpt lat="42.49551" lon="2.6252">
        <ele>1044</ele>
        <time>2023-07-15T06:50:06.000Z</time>
      </trkpt>
      <trkpt lat="42.49551" lon="2.62519">
        <ele>1044.4000244141</ele>
        <time>2023-07-15T06:50:08.000Z</time>
      </trkpt>
      <trkpt lat="42.49555" lon="2.62515">
        <ele>1045</ele>
        <time>2023-07-15T06:50:13.000Z</time>
      </trkpt>
      <trkpt lat="42.49556" lon="2.62512">
        <ele>1045.8000488281</ele>
        <time>2023-07-15T06:50:17.000Z</time>
      </trkpt>
      <trkpt lat="42.49557" lon="2.62509">
        <ele>1046.1999511719</ele>
        <time>2023-07-15T06:50:20.000Z</time>
      </trkpt>
      <trkpt lat="42.4956" lon="2.62504">
        <ele>1047</ele>
        <time>2023-07-15T06:50:25.000Z</time>
      </trkpt>
      <trkpt lat="42.49561" lon="2.62503">
        <ele>1047.4000244141</ele>
        <time>2023-07-15T06:50:27.000Z</time>
      </trkpt>
      <trkpt lat="42.49564" lon="2.625">
        <ele>1048</ele>
        <time>2023-07-15T06:50:33.000Z</time>
      </trkpt>
      <trkpt lat="42.49568" lon="2.62495">
        <ele>1048.4000244141</ele>
        <time>2023-07-15T06:50:40.000Z</time>
      </trkpt>
      <trkpt lat="42.49569" lon="2.62493">
        <ele>1048.4000244141</ele>
        <time>2023-07-15T06:50:41.000Z</time>
      </trkpt>
      <trkpt lat="42.49576" lon="2.62483">
        <ele>1048.5999755859</ele>
        <time>2023-07-15T06:50:51.000Z</time>
      </trkpt>
      <trkpt lat="42.49581" lon="2.62474">
        <ele>1048.5999755859</ele>
        <time>2023-07-15T06:50:58.000Z</time>
      </trkpt>
      <trkpt lat="42.49587" lon="2.62465">
        <ele>1048.5999755859</ele>
        <time>2023-07-15T06:51:06.000Z</time>
      </trkpt>
      <trkpt lat="42.49592" lon="2.6246">
        <ele>1048.8000488281</ele>
        <time>2023-07-15T06:51:14.000Z</time>
      </trkpt>
      <trkpt lat="42.49598" lon="2.62452">
        <ele>1049.1999511719</ele>
        <time>2023-07-15T06:51:22.000Z</time>
      </trkpt>
      <trkpt lat="42.49602" lon="2.62449">
        <ele>1049.4000244141</ele>
        <time>2023-07-15T06:51:25.000Z</time>
      </trkpt>
      <trkpt lat="42.49607" lon="2.62445">
        <ele>1049.8000488281</ele>
        <time>2023-07-15T06:51:31.000Z</time>
      </trkpt>
      <trkpt lat="42.49615" lon="2.6244">
        <ele>1049.8000488281</ele>
        <time>2023-07-15T06:51:40.000Z</time>
      </trkpt>
      <trkpt lat="42.49625" lon="2.62434">
        <ele>1050.1999511719</ele>
        <time>2023-07-15T06:51:49.000Z</time>
      </trkpt>
      <trkpt lat="42.49632" lon="2.62424">
        <ele>1050</ele>
        <time>2023-07-15T06:51:57.000Z</time>
      </trkpt>
      <trkpt lat="42.49637" lon="2.62412">
        <ele>1050</ele>
        <time>2023-07-15T06:52:04.000Z</time>
      </trkpt>
      <trkpt lat="42.49641" lon="2.62396">
        <ele>1049.5999755859</ele>
        <time>2023-07-15T06:52:13.000Z</time>
      </trkpt>
      <trkpt lat="42.49645" lon="2.62387">
        <ele>1049.8000488281</ele>
        <time>2023-07-15T06:52:20.000Z</time>
      </trkpt>
      <trkpt lat="42.49653" lon="2.62374">
        <ele>1049.1999511719</ele>
        <time>2023-07-15T06:52:28.000Z</time>
      </trkpt>
      <trkpt lat="42.4966" lon="2.62365">
        <ele>1048.4000244141</ele>
        <time>2023-07-15T06:52:35.000Z</time>
      </trkpt>
      <trkpt lat="42.49668" lon="2.62354">
        <ele>1047.8000488281</ele>
        <time>2023-07-15T06:52:45.000Z</time>
      </trkpt>
      <trkpt lat="42.49675" lon="2.62348">
        <ele>1047.4000244141</ele>
        <time>2023-07-15T06:52:50.000Z</time>
      </trkpt>
      <trkpt lat="42.49676" lon="2.62346">
        <ele>1047.4000244141</ele>
        <time>2023-07-15T06:52:51.000Z</time>
      </trkpt>
      <trkpt lat="42.49684" lon="2.62339">
        <ele>1046.8000488281</ele>
        <time>2023-07-15T06:52:59.000Z</time>
      </trkpt>
      <trkpt lat="42.49695" lon="2.62335">
        <ele>1047.4000244141</ele>
        <time>2023-07-15T06:53:08.000Z</time>
      </trkpt>
      <trkpt lat="42.49703" lon="2.62333">
        <ele>1048.4000244141</ele>
        <time>2023-07-15T06:53:16.000Z</time>
      </trkpt>
      <trkpt lat="42.49711" lon="2.62326">
        <ele>1049.4000244141</ele>
        <time>2023-07-15T06:53:23.000Z</time>
      </trkpt>
      <trkpt lat="42.49712" lon="2.62325">
        <ele>1049.5999755859</ele>
        <time>2023-07-15T06:53:24.000Z</time>
      </trkpt>
      <trkpt lat="42.49718" lon="2.62321">
        <ele>1050.4000244141</ele>
        <time>2023-07-15T06:53:32.000Z</time>
      </trkpt>
      <trkpt lat="42.49723" lon="2.6232">
        <ele>1050.8000488281</ele>
        <time>2023-07-15T06:53:39.000Z</time>
      </trkpt>
      <trkpt lat="42.49728" lon="2.62317">
        <ele>1051.4000244141</ele>
        <time>2023-07-15T06:53:47.000Z</time>
      </trkpt>
      <trkpt lat="42.49731" lon="2.62315">
        <ele>1051.4000244141</ele>
        <time>2023-07-15T06:53:50.000Z</time>
      </trkpt>
      <trkpt lat="42.49736" lon="2.62311">
        <ele>1051.8000488281</ele>
        <time>2023-07-15T06:53:54.000Z</time>
      </trkpt>
      <trkpt lat="42.4974" lon="2.62305">
        <ele>1052.1999511719</ele>
        <time>2023-07-15T06:54:02.000Z</time>
      </trkpt>
      <trkpt lat="42.49746" lon="2.62297">
        <ele>1052.5999755859</ele>
        <time>2023-07-15T06:54:09.000Z</time>
      </trkpt>
      <trkpt lat="42.49748" lon="2.62295">
        <ele>1052.5999755859</ele>
        <time>2023-07-15T06:54:10.000Z</time>
      </trkpt>
      <trkpt lat="42.4975" lon="2.62295">
        <ele>1052.8000488281</ele>
        <time>2023-07-15T06:54:17.000Z</time>
      </trkpt>
      <trkpt lat="42.49757" lon="2.62289">
        <ele>1053.1999511719</ele>
        <time>2023-07-15T06:54:27.000Z</time>
      </trkpt>
      <trkpt lat="42.49762" lon="2.62278">
        <ele>1053.5999755859</ele>
        <time>2023-07-15T06:54:34.000Z</time>
      </trkpt>
      <trkpt lat="42.49763" lon="2.62277">
        <ele>1053.5999755859</ele>
        <time>2023-07-15T06:54:35.000Z</time>
      </trkpt>
      <trkpt lat="42.49767" lon="2.62267">
        <ele>1054.4000244141</ele>
        <time>2023-07-15T06:54:43.000Z</time>
      </trkpt>
      <trkpt lat="42.49766" lon="2.62266">
        <ele>1054.8000488281</ele>
        <time>2023-07-15T06:54:45.000Z</time>
      </trkpt>
      <trkpt lat="42.49766" lon="2.62266">
        <ele>1054.8000488281</ele>
        <time>2023-07-15T06:54:46.000Z</time>
      </trkpt>
      <trkpt lat="42.49767" lon="2.6226">
        <ele>1054.8000488281</ele>
        <time>2023-07-15T06:54:50.000Z</time>
      </trkpt>
      <trkpt lat="42.49771" lon="2.62253">
        <ele>1054.8000488281</ele>
        <time>2023-07-15T06:54:57.000Z</time>
      </trkpt>
      <trkpt lat="42.49778" lon="2.62246">
        <ele>1055.1999511719</ele>
        <time>2023-07-15T06:55:05.000Z</time>
      </trkpt>
      <trkpt lat="42.49782" lon="2.6224">
        <ele>1055.8000488281</ele>
        <time>2023-07-15T06:55:11.000Z</time>
      </trkpt>
      <trkpt lat="42.49784" lon="2.62238">
        <ele>1056.4000244141</ele>
        <time>2023-07-15T06:55:14.000Z</time>
      </trkpt>
      <trkpt lat="42.49786" lon="2.62237">
        <ele>1056.8000488281</ele>
        <time>2023-07-15T06:55:17.000Z</time>
      </trkpt>
      <trkpt lat="42.49791" lon="2.62228">
        <ele>1057.5999755859</ele>
        <time>2023-07-15T06:55:23.000Z</time>
      </trkpt>
      <trkpt lat="42.49792" lon="2.62226">
        <ele>1058</ele>
        <time>2023-07-15T06:55:25.000Z</time>
      </trkpt>
      <trkpt lat="42.49796" lon="2.62221">
        <ele>1059</ele>
        <time>2023-07-15T06:55:31.000Z</time>
      </trkpt>
      <trkpt lat="42.49798" lon="2.62213">
        <ele>1060.1999511719</ele>
        <time>2023-07-15T06:55:38.000Z</time>
      </trkpt>
      <trkpt lat="42.49799" lon="2.62211">
        <ele>1060.8000488281</ele>
        <time>2023-07-15T06:55:42.000Z</time>
      </trkpt>
      <trkpt lat="42.498" lon="2.62208">
        <ele>1061.1999511719</ele>
        <time>2023-07-15T06:55:45.000Z</time>
      </trkpt>
      <trkpt lat="42.49805" lon="2.62204">
        <ele>1062.1999511719</ele>
        <time>2023-07-15T06:55:52.000Z</time>
      </trkpt>
      <trkpt lat="42.49806" lon="2.62203">
        <ele>1062.4000244141</ele>
        <time>2023-07-15T06:55:53.000Z</time>
      </trkpt>
      <trkpt lat="42.4981" lon="2.62197">
        <ele>1063.4000244141</ele>
        <time>2023-07-15T06:56:00.000Z</time>
      </trkpt>
      <trkpt lat="42.49811" lon="2.62196">
        <ele>1063.8000488281</ele>
        <time>2023-07-15T06:56:02.000Z</time>
      </trkpt>
      <trkpt lat="42.49813" lon="2.62192">
        <ele>1064.4000244141</ele>
        <time>2023-07-15T06:56:06.000Z</time>
      </trkpt>
      <trkpt lat="42.49815" lon="2.6219">
        <ele>1064.8000488281</ele>
        <time>2023-07-15T06:56:10.000Z</time>
      </trkpt>
      <trkpt lat="42.49818" lon="2.6219">
        <ele>1064.8000488281</ele>
        <time>2023-07-15T06:56:18.000Z</time>
      </trkpt>
      <trkpt lat="42.49821" lon="2.62191">
        <ele>1064.5999755859</ele>
        <time>2023-07-15T06:56:26.000Z</time>
      </trkpt>
      <trkpt lat="42.49818" lon="2.62189">
        <ele>1064.4000244141</ele>
        <time>2023-07-15T06:56:34.000Z</time>
      </trkpt>
      <trkpt lat="42.49817" lon="2.62188">
        <ele>1064.1999511719</ele>
        <time>2023-07-15T06:56:42.000Z</time>
      </trkpt>
      <trkpt lat="42.49818" lon="2.62188">
        <ele>1064.1999511719</ele>
        <time>2023-07-15T06:56:50.000Z</time>
      </trkpt>
      <trkpt lat="42.4982" lon="2.62178">
        <ele>1063.8000488281</ele>
        <time>2023-07-15T06:56:57.000Z</time>
      </trkpt>
      <trkpt lat="42.4982" lon="2.62175">
        <ele>1063.8000488281</ele>
        <time>2023-07-15T06:57:02.000Z</time>
      </trkpt>
      <trkpt lat="42.49821" lon="2.62166">
        <ele>1063.4000244141</ele>
        <time>2023-07-15T06:57:10.000Z</time>
      </trkpt>
      <trkpt lat="42.4982" lon="2.6216">
        <ele>1062.1999511719</ele>
        <time>2023-07-15T06:57:16.000Z</time>
      </trkpt>
      <trkpt lat="42.49819" lon="2.6216">
        <ele>1062</ele>
        <time>2023-07-15T06:57:19.000Z</time>
      </trkpt>
      <trkpt lat="42.49819" lon="2.62159">
        <ele>1062</ele>
        <time>2023-07-15T06:57:27.000Z</time>
      </trkpt>
      <trkpt lat="42.49822" lon="2.62161">
        <ele>1061.8000488281</ele>
        <time>2023-07-15T06:57:38.000Z</time>
      </trkpt>
      <trkpt lat="42.49819" lon="2.62162">
        <ele>1061.8000488281</ele>
        <time>2023-07-15T06:57:45.000Z</time>
      </trkpt>
      <trkpt lat="42.49817" lon="2.62151">
        <ele>1061.1999511719</ele>
        <time>2023-07-15T06:57:52.000Z</time>
      </trkpt>
      <trkpt lat="42.49817" lon="2.6215">
        <ele>1061.1999511719</ele>
        <time>2023-07-15T06:57:53.000Z</time>
      </trkpt>
      <trkpt lat="42.49816" lon="2.62139">
        <ele>1060.5999755859</ele>
        <time>2023-07-15T06:58:00.000Z</time>
      </trkpt>
      <trkpt lat="42.49816" lon="2.62122">
        <ele>1060.5999755859</ele>
        <time>2023-07-15T06:58:09.000Z</time>
      </trkpt>
      <trkpt lat="42.49817" lon="2.62113">
        <ele>1060.8000488281</ele>
        <time>2023-07-15T06:58:16.000Z</time>
      </trkpt>
      <trkpt lat="42.49816" lon="2.62099">
        <ele>1061.1999511719</ele>
        <time>2023-07-15T06:58:24.000Z</time>
      </trkpt>
      <trkpt lat="42.49815" lon="2.62092">
        <ele>1062.1999511719</ele>
        <time>2023-07-15T06:58:32.000Z</time>
      </trkpt>
      <trkpt lat="42.49815" lon="2.62091">
        <ele>1062.4000244141</ele>
        <time>2023-07-15T06:58:33.000Z</time>
      </trkpt>
      <trkpt lat="42.49816" lon="2.62084">
        <ele>1063.4000244141</ele>
        <time>2023-07-15T06:58:40.000Z</time>
      </trkpt>
      <trkpt lat="42.49816" lon="2.62083">
        <ele>1063.4000244141</ele>
        <time>2023-07-15T06:58:41.000Z</time>
      </trkpt>
      <trkpt lat="42.49817" lon="2.62078">
        <ele>1064.5999755859</ele>
        <time>2023-07-15T06:58:47.000Z</time>
      </trkpt>
      <trkpt lat="42.49818" lon="2.6207">
        <ele>1065.8000488281</ele>
        <time>2023-07-15T06:58:54.000Z</time>
      </trkpt>
      <trkpt lat="42.49818" lon="2.62069">
        <ele>1066</ele>
        <time>2023-07-15T06:58:56.000Z</time>
      </trkpt>
      <trkpt lat="42.49818" lon="2.62063">
        <ele>1066.8000488281</ele>
        <time>2023-07-15T06:59:01.000Z</time>
      </trkpt>
      <trkpt lat="42.49818" lon="2.6206">
        <ele>1067.5999755859</ele>
        <time>2023-07-15T06:59:05.000Z</time>
      </trkpt>
      <trkpt lat="42.49818" lon="2.62058">
        <ele>1068.1999511719</ele>
        <time>2023-07-15T06:59:08.000Z</time>
      </trkpt>
      <trkpt lat="42.49817" lon="2.62052">
        <ele>1068.8000488281</ele>
        <time>2023-07-15T06:59:14.000Z</time>
      </trkpt>
      <trkpt lat="42.49817" lon="2.6205">
        <ele>1069.1999511719</ele>
        <time>2023-07-15T06:59:16.000Z</time>
      </trkpt>
      <trkpt lat="42.49818" lon="2.62045">
        <ele>1070</ele>
        <time>2023-07-15T06:59:22.000Z</time>
      </trkpt>
      <trkpt lat="42.49818" lon="2.62044">
        <ele>1070.1999511719</ele>
        <time>2023-07-15T06:59:23.000Z</time>
      </trkpt>
      <trkpt lat="42.49819" lon="2.6204">
        <ele>1071.1999511719</ele>
        <time>2023-07-15T06:59:28.000Z</time>
      </trkpt>
      <trkpt lat="42.49819" lon="2.62039">
        <ele>1071.4000244141</ele>
        <time>2023-07-15T06:59:29.000Z</time>
      </trkpt>
      <trkpt lat="42.4982" lon="2.62035">
        <ele>1072.4000244141</ele>
        <time>2023-07-15T06:59:34.000Z</time>
      </trkpt>
      <trkpt lat="42.49819" lon="2.62033">
        <ele>1073.1999511719</ele>
        <time>2023-07-15T06:59:39.000Z</time>
      </trkpt>
      <trkpt lat="42.49819" lon="2.62032">
        <ele>1073.4000244141</ele>
        <time>2023-07-15T06:59:40.000Z</time>
      </trkpt>
      <trkpt lat="42.49817" lon="2.62027">
        <ele>1074</ele>
        <time>2023-07-15T06:59:47.000Z</time>
      </trkpt>
      <trkpt lat="42.49816" lon="2.62024">
        <ele>1074.5999755859</ele>
        <time>2023-07-15T06:59:50.000Z</time>
      </trkpt>
      <trkpt lat="42.49816" lon="2.62022">
        <ele>1075.4000244141</ele>
        <time>2023-07-15T06:59:54.000Z</time>
      </trkpt>
      <trkpt lat="42.49816" lon="2.6202">
        <ele>1075.8000488281</ele>
        <time>2023-07-15T06:59:58.000Z</time>
      </trkpt>
      <trkpt lat="42.49817" lon="2.62015">
        <ele>1076.1999511719</ele>
        <time>2023-07-15T07:00:03.000Z</time>
      </trkpt>
      <trkpt lat="42.49817" lon="2.62011">
        <ele>1076.8000488281</ele>
        <time>2023-07-15T07:00:07.000Z</time>
      </trkpt>
      <trkpt lat="42.49817" lon="2.62008">
        <ele>1077.1999511719</ele>
        <time>2023-07-15T07:00:11.000Z</time>
      </trkpt>
      <trkpt lat="42.49817" lon="2.62003">
        <ele>1077.8000488281</ele>
        <time>2023-07-15T07:00:17.000Z</time>
      </trkpt>
      <trkpt lat="42.49817" lon="2.62003">
        <ele>1078</ele>
        <time>2023-07-15T07:00:18.000Z</time>
      </trkpt>
      <trkpt lat="42.49816" lon="2.61998">
        <ele>1079</ele>
        <time>2023-07-15T07:00:24.000Z</time>
      </trkpt>
      <trkpt lat="42.49816" lon="2.61993">
        <ele>1079.4000244141</ele>
        <time>2023-07-15T07:00:28.000Z</time>
      </trkpt>
      <trkpt lat="42.49815" lon="2.6199">
        <ele>1080</ele>
        <time>2023-07-15T07:00:33.000Z</time>
      </trkpt>
      <trkpt lat="42.49815" lon="2.61988">
        <ele>1080.4000244141</ele>
        <time>2023-07-15T07:00:35.000Z</time>
      </trkpt>
      <trkpt lat="42.49814" lon="2.61985">
        <ele>1081.1999511719</ele>
        <time>2023-07-15T07:00:41.000Z</time>
      </trkpt>
      <trkpt lat="42.49811" lon="2.61981">
        <ele>1082.1999511719</ele>
        <time>2023-07-15T07:00:50.000Z</time>
      </trkpt>
      <trkpt lat="42.49811" lon="2.61973">
        <ele>1083.4000244141</ele>
        <time>2023-07-15T07:00:57.000Z</time>
      </trkpt>
      <trkpt lat="42.49811" lon="2.61968">
        <ele>1084.4000244141</ele>
        <time>2023-07-15T07:01:04.000Z</time>
      </trkpt>
      <trkpt lat="42.49811" lon="2.61967">
        <ele>1084.5999755859</ele>
        <time>2023-07-15T07:01:05.000Z</time>
      </trkpt>
      <trkpt lat="42.49812" lon="2.6196">
        <ele>1085.4000244141</ele>
        <time>2023-07-15T07:01:14.000Z</time>
      </trkpt>
      <trkpt lat="42.49812" lon="2.61959">
        <ele>1085.5999755859</ele>
        <time>2023-07-15T07:01:15.000Z</time>
      </trkpt>
      <trkpt lat="42.49813" lon="2.61957">
        <ele>1086.4000244141</ele>
        <time>2023-07-15T07:01:20.000Z</time>
      </trkpt>
      <trkpt lat="42.49813" lon="2.61957">
        <ele>1087</ele>
        <time>2023-07-15T07:01:24.000Z</time>
      </trkpt>
      <trkpt lat="42.49813" lon="2.61956">
        <ele>1087.5999755859</ele>
        <time>2023-07-15T07:01:28.000Z</time>
      </trkpt>
      <trkpt lat="42.49811" lon="2.6195">
        <ele>1088.1999511719</ele>
        <time>2023-07-15T07:01:33.000Z</time>
      </trkpt>
      <trkpt lat="42.49811" lon="2.61946">
        <ele>1088.5999755859</ele>
        <time>2023-07-15T07:01:36.000Z</time>
      </trkpt>
      <trkpt lat="42.49812" lon="2.61944">
        <ele>1089</ele>
        <time>2023-07-15T07:01:39.000Z</time>
      </trkpt>
      <trkpt lat="42.49813" lon="2.61943">
        <ele>1089.8000488281</ele>
        <time>2023-07-15T07:01:43.000Z</time>
      </trkpt>
      <trkpt lat="42.49813" lon="2.61943">
        <ele>1090.1999511719</ele>
        <time>2023-07-15T07:01:48.000Z</time>
      </trkpt>
      <trkpt lat="42.49812" lon="2.61941">
        <ele>1091</ele>
        <time>2023-07-15T07:01:52.000Z</time>
      </trkpt>
      <trkpt lat="42.49812" lon="2.61937">
        <ele>1092</ele>
        <time>2023-07-15T07:01:58.000Z</time>
      </trkpt>
      <trkpt lat="42.49812" lon="2.61932">
        <ele>1093</ele>
        <time>2023-07-15T07:02:07.000Z</time>
      </trkpt>
      <trkpt lat="42.49812" lon="2.61933">
        <ele>1093.1999511719</ele>
        <time>2023-07-15T07:02:08.000Z</time>
      </trkpt>
      <trkpt lat="42.49812" lon="2.61928">
        <ele>1094.1999511719</ele>
        <time>2023-07-15T07:02:13.000Z</time>
      </trkpt>
      <trkpt lat="42.49812" lon="2.61926">
        <ele>1094.4000244141</ele>
        <time>2023-07-15T07:02:16.000Z</time>
      </trkpt>
      <trkpt lat="42.49812" lon="2.61925">
        <ele>1095.1999511719</ele>
        <time>2023-07-15T07:02:22.000Z</time>
      </trkpt>
      <trkpt lat="42.49812" lon="2.61925">
        <ele>1095.4000244141</ele>
        <time>2023-07-15T07:02:24.000Z</time>
      </trkpt>
      <trkpt lat="42.49814" lon="2.61923">
        <ele>1095.5999755859</ele>
        <time>2023-07-15T07:02:33.000Z</time>
      </trkpt>
      <trkpt lat="42.49812" lon="2.6192">
        <ele>1095.4000244141</ele>
        <time>2023-07-15T07:02:42.000Z</time>
      </trkpt>
      <trkpt lat="42.49811" lon="2.61921">
        <ele>1095.5999755859</ele>
        <time>2023-07-15T07:02:50.000Z</time>
      </trkpt>
      <trkpt lat="42.49811" lon="2.6192">
        <ele>1096</ele>
        <time>2023-07-15T07:02:58.000Z</time>
      </trkpt>
      <trkpt lat="42.49811" lon="2.6192">
        <ele>1096.1999511719</ele>
        <time>2023-07-15T07:02:59.000Z</time>
      </trkpt>
      <trkpt lat="42.49812" lon="2.61915">
        <ele>1097.4000244141</ele>
        <time>2023-07-15T07:03:05.000Z</time>
      </trkpt>
      <trkpt lat="42.49812" lon="2.61915">
        <ele>1097.8000488281</ele>
        <time>2023-07-15T07:03:07.000Z</time>
      </trkpt>
      <trkpt lat="42.49813" lon="2.61911">
        <ele>1098.5999755859</ele>
        <time>2023-07-15T07:03:11.000Z</time>
      </trkpt>
      <trkpt lat="42.49813" lon="2.61909">
        <ele>1099.5999755859</ele>
        <time>2023-07-15T07:03:17.000Z</time>
      </trkpt>
      <trkpt lat="42.49814" lon="2.61904">
        <ele>1100.8000488281</ele>
        <time>2023-07-15T07:03:24.000Z</time>
      </trkpt>
      <trkpt lat="42.49814" lon="2.61902">
        <ele>1101</ele>
        <time>2023-07-15T07:03:25.000Z</time>
      </trkpt>
      <trkpt lat="42.49813" lon="2.61902">
        <ele>1101.8000488281</ele>
        <time>2023-07-15T07:03:29.000Z</time>
      </trkpt>
      <trkpt lat="42.49813" lon="2.619">
        <ele>1102.1999511719</ele>
        <time>2023-07-15T07:03:31.000Z</time>
      </trkpt>
      <trkpt lat="42.49813" lon="2.61898">
        <ele>1103</ele>
        <time>2023-07-15T07:03:34.000Z</time>
      </trkpt>
      <trkpt lat="42.49813" lon="2.61897">
        <ele>1103.8000488281</ele>
        <time>2023-07-15T07:03:39.000Z</time>
      </trkpt>
      <trkpt lat="42.49813" lon="2.61895">
        <ele>1104</ele>
        <time>2023-07-15T07:03:43.000Z</time>
      </trkpt>
      <trkpt lat="42.49813" lon="2.61892">
        <ele>1105.1999511719</ele>
        <time>2023-07-15T07:03:48.000Z</time>
      </trkpt>
      <trkpt lat="42.49813" lon="2.6189">
        <ele>1106.1999511719</ele>
        <time>2023-07-15T07:03:55.000Z</time>
      </trkpt>
      <trkpt lat="42.49813" lon="2.61889">
        <ele>1106.5999755859</ele>
        <time>2023-07-15T07:03:57.000Z</time>
      </trkpt>
      <trkpt lat="42.49815" lon="2.61888">
        <ele>1107.1999511719</ele>
        <time>2023-07-15T07:04:04.000Z</time>
      </trkpt>
      <trkpt lat="42.49815" lon="2.61887">
        <ele>1107.4000244141</ele>
        <time>2023-07-15T07:04:05.000Z</time>
      </trkpt>
      <trkpt lat="42.49816" lon="2.61883">
        <ele>1108.4000244141</ele>
        <time>2023-07-15T07:04:12.000Z</time>
      </trkpt>
      <trkpt lat="42.49816" lon="2.61877">
        <ele>1109.4000244141</ele>
        <time>2023-07-15T07:04:18.000Z</time>
      </trkpt>
      <trkpt lat="42.49817" lon="2.61876">
        <ele>1109.5999755859</ele>
        <time>2023-07-15T07:04:19.000Z</time>
      </trkpt>
      <trkpt lat="42.49816" lon="2.61876">
        <ele>1110.5999755859</ele>
        <time>2023-07-15T07:04:25.000Z</time>
      </trkpt>
      <trkpt lat="42.49816" lon="2.61875">
        <ele>1110.5999755859</ele>
        <time>2023-07-15T07:04:26.000Z</time>
      </trkpt>
      <trkpt lat="42.49816" lon="2.61871">
        <ele>1111.5999755859</ele>
        <time>2023-07-15T07:04:33.000Z</time>
      </trkpt>
      <trkpt lat="42.49817" lon="2.61869">
        <ele>1112.5999755859</ele>
        <time>2023-07-15T07:04:42.000Z</time>
      </trkpt>
      <trkpt lat="42.49817" lon="2.61864">
        <ele>1113.8000488281</ele>
        <time>2023-07-15T07:04:49.000Z</time>
      </trkpt>
      <trkpt lat="42.49818" lon="2.61862">
        <ele>1115</ele>
        <time>2023-07-15T07:04:55.000Z</time>
      </trkpt>
      <trkpt lat="42.49818" lon="2.61861">
        <ele>1115</ele>
        <time>2023-07-15T07:04:56.000Z</time>
      </trkpt>
      <trkpt lat="42.49819" lon="2.61859">
        <ele>1116</ele>
        <time>2023-07-15T07:05:03.000Z</time>
      </trkpt>
      <trkpt lat="42.4982" lon="2.61857">
        <ele>1116.4000244141</ele>
        <time>2023-07-15T07:05:05.000Z</time>
      </trkpt>
      <trkpt lat="42.4982" lon="2.61855">
        <ele>1117.1999511719</ele>
        <time>2023-07-15T07:05:09.000Z</time>
      </trkpt>
      <trkpt lat="42.49819" lon="2.61856">
        <ele>1117.4000244141</ele>
        <time>2023-07-15T07:05:12.000Z</time>
      </trkpt>
      <trkpt lat="42.49814" lon="2.61852">
        <ele>1118</ele>
        <time>2023-07-15T07:05:21.000Z</time>
      </trkpt>
      <trkpt lat="42.49812" lon="2.6185">
        <ele>1118.1999511719</ele>
        <time>2023-07-15T07:05:23.000Z</time>
      </trkpt>
      <trkpt lat="42.49808" lon="2.61845">
        <ele>1118.8000488281</ele>
        <time>2023-07-15T07:05:28.000Z</time>
      </trkpt>
      <trkpt lat="42.49806" lon="2.61844">
        <ele>1119</ele>
        <time>2023-07-15T07:05:35.000Z</time>
      </trkpt>
      <trkpt lat="42.49807" lon="2.61845">
        <ele>1119</ele>
        <time>2023-07-15T07:05:42.000Z</time>
      </trkpt>
      <trkpt lat="42.49809" lon="2.61849">
        <ele>1119</ele>
        <time>2023-07-15T07:05:51.000Z</time>
      </trkpt>
      <trkpt lat="42.49817" lon="2.61855">
        <ele>1118.4000244141</ele>
        <time>2023-07-15T07:06:01.000Z</time>
      </trkpt>
      <trkpt lat="42.49822" lon="2.61856">
        <ele>1117.1999511719</ele>
        <time>2023-07-15T07:06:07.000Z</time>
      </trkpt>
      <trkpt lat="42.49822" lon="2.61856">
        <ele>1117</ele>
        <time>2023-07-15T07:06:08.000Z</time>
      </trkpt>
      <trkpt lat="42.49822" lon="2.61856">
        <ele>1117</ele>
        <time>2023-07-15T07:06:10.000Z</time>
      </trkpt>
      <trkpt lat="42.49819" lon="2.61856">
        <ele>1117</ele>
        <time>2023-07-15T07:06:16.000Z</time>
      </trkpt>
      <trkpt lat="42.49815" lon="2.61855">
        <ele>1117.1999511719</ele>
        <time>2023-07-15T07:06:24.000Z</time>
      </trkpt>
      <trkpt lat="42.49816" lon="2.61855">
        <ele>1117.5999755859</ele>
        <time>2023-07-15T07:06:31.000Z</time>
      </trkpt>
      <trkpt lat="42.4982" lon="2.61856">
        <ele>1117</ele>
        <time>2023-07-15T07:06:39.000Z</time>
      </trkpt>
      <trkpt lat="42.49821" lon="2.61858">
        <ele>1116.4000244141</ele>
        <time>2023-07-15T07:06:47.000Z</time>
      </trkpt>
      <trkpt lat="42.49818" lon="2.61856">
        <ele>1116.1999511719</ele>
        <time>2023-07-15T07:06:56.000Z</time>
      </trkpt>
      <trkpt lat="42.49814" lon="2.61853">
        <ele>1117</ele>
        <time>2023-07-15T07:07:05.000Z</time>
      </trkpt>
      <trkpt lat="42.49812" lon="2.61851">
        <ele>1117.4000244141</ele>
        <time>2023-07-15T07:07:12.000Z</time>
      </trkpt>
      <trkpt lat="42.4981" lon="2.61847">
        <ele>1118</ele>
        <time>2023-07-15T07:07:20.000Z</time>
      </trkpt>
      <trkpt lat="42.49809" lon="2.61846">
        <ele>1118</ele>
        <time>2023-07-15T07:07:27.000Z</time>
      </trkpt>
      <trkpt lat="42.49809" lon="2.61846">
        <ele>1117.8000488281</ele>
        <time>2023-07-15T07:07:37.000Z</time>
      </trkpt>
      <trkpt lat="42.4981" lon="2.61847">
        <ele>1117.8000488281</ele>
        <time>2023-07-15T07:07:44.000Z</time>
      </trkpt>
      <trkpt lat="42.49808" lon="2.61845">
        <ele>1117.8000488281</ele>
        <time>2023-07-15T07:07:50.000Z</time>
      </trkpt>
      <trkpt lat="42.49809" lon="2.61844">
        <ele>1118</ele>
        <time>2023-07-15T07:07:58.000Z</time>
      </trkpt>
      <trkpt lat="42.49813" lon="2.61851">
        <ele>1117.8000488281</ele>
        <time>2023-07-15T07:08:06.000Z</time>
      </trkpt>
      <trkpt lat="42.49813" lon="2.61854">
        <ele>1117.1999511719</ele>
        <time>2023-07-15T07:08:10.000Z</time>
      </trkpt>
      <trkpt lat="42.49811" lon="2.61853">
        <ele>1117.1999511719</ele>
        <time>2023-07-15T07:08:13.000Z</time>
      </trkpt>
      <trkpt lat="42.49809" lon="2.61844">
        <ele>1117.4000244141</ele>
        <time>2023-07-15T07:08:20.000Z</time>
      </trkpt>
      <trkpt lat="42.49808" lon="2.61845">
        <ele>1117.8000488281</ele>
        <time>2023-07-15T07:08:26.000Z</time>
      </trkpt>
      <trkpt lat="42.49807" lon="2.61844">
        <ele>1117.8000488281</ele>
        <time>2023-07-15T07:08:33.000Z</time>
      </trkpt>
      <trkpt lat="42.49803" lon="2.61837">
        <ele>1117.4000244141</ele>
        <time>2023-07-15T07:08:40.000Z</time>
      </trkpt>
      <trkpt lat="42.49797" lon="2.61828">
        <ele>1117.5999755859</ele>
        <time>2023-07-15T07:08:47.000Z</time>
      </trkpt>
      <trkpt lat="42.49792" lon="2.61816">
        <ele>1117.5999755859</ele>
        <time>2023-07-15T07:08:56.000Z</time>
      </trkpt>
      <trkpt lat="42.49785" lon="2.61807">
        <ele>1117.5999755859</ele>
        <time>2023-07-15T07:09:04.000Z</time>
      </trkpt>
      <trkpt lat="42.49784" lon="2.61805">
        <ele>1117.4000244141</ele>
        <time>2023-07-15T07:09:10.000Z</time>
      </trkpt>
      <trkpt lat="42.49784" lon="2.61805">
        <ele>1117.4000244141</ele>
        <time>2023-07-15T07:09:12.000Z</time>
      </trkpt>
      <trkpt lat="42.49783" lon="2.61803">
        <ele>1117.1999511719</ele>
        <time>2023-07-15T07:09:17.000Z</time>
      </trkpt>
      <trkpt lat="42.49779" lon="2.61795">
        <ele>1117.4000244141</ele>
        <time>2023-07-15T07:09:23.000Z</time>
      </trkpt>
      <trkpt lat="42.49774" lon="2.6179">
        <ele>1117.1999511719</ele>
        <time>2023-07-15T07:09:30.000Z</time>
      </trkpt>
      <trkpt lat="42.4977" lon="2.61784">
        <ele>1117.4000244141</ele>
        <time>2023-07-15T07:09:38.000Z</time>
      </trkpt>
      <trkpt lat="42.49765" lon="2.61777">
        <ele>1117.5999755859</ele>
        <time>2023-07-15T07:09:44.000Z</time>
      </trkpt>
      <trkpt lat="42.49759" lon="2.61768">
        <ele>1117.8000488281</ele>
        <time>2023-07-15T07:09:51.000Z</time>
      </trkpt>
      <trkpt lat="42.49753" lon="2.61758">
        <ele>1118.1999511719</ele>
        <time>2023-07-15T07:09:59.000Z</time>
      </trkpt>
      <trkpt lat="42.49752" lon="2.61757">
        <ele>1118.1999511719</ele>
        <time>2023-07-15T07:10:00.000Z</time>
      </trkpt>
      <trkpt lat="42.49746" lon="2.61748">
        <ele>1118.1999511719</ele>
        <time>2023-07-15T07:10:07.000Z</time>
      </trkpt>
      <trkpt lat="42.4974" lon="2.61737">
        <ele>1118.4000244141</ele>
        <time>2023-07-15T07:10:15.000Z</time>
      </trkpt>
      <trkpt lat="42.49737" lon="2.61725">
        <ele>1118.5999755859</ele>
        <time>2023-07-15T07:10:23.000Z</time>
      </trkpt>
      <trkpt lat="42.49737" lon="2.61721">
        <ele>1119</ele>
        <time>2023-07-15T07:10:28.000Z</time>
      </trkpt>
      <trkpt lat="42.49735" lon="2.61719">
        <ele>1119</ele>
        <time>2023-07-15T07:10:31.000Z</time>
      </trkpt>
      <trkpt lat="42.49736" lon="2.61719">
        <ele>1119</ele>
        <time>2023-07-15T07:10:35.000Z</time>
      </trkpt>
      <trkpt lat="42.49738" lon="2.6172">
        <ele>1118.8000488281</ele>
        <time>2023-07-15T07:10:44.000Z</time>
      </trkpt>
      <trkpt lat="42.49738" lon="2.6172">
        <ele>1119</ele>
        <time>2023-07-15T07:10:54.000Z</time>
      </trkpt>
      <trkpt lat="42.49735" lon="2.61716">
        <ele>1119</ele>
        <time>2023-07-15T07:11:03.000Z</time>
      </trkpt>
      <trkpt lat="42.49735" lon="2.61705">
        <ele>1118.8000488281</ele>
        <time>2023-07-15T07:11:10.000Z</time>
      </trkpt>
      <trkpt lat="42.49741" lon="2.61692">
        <ele>1119</ele>
        <time>2023-07-15T07:11:18.000Z</time>
      </trkpt>
      <trkpt lat="42.49746" lon="2.6168">
        <ele>1119.1999511719</ele>
        <time>2023-07-15T07:11:26.000Z</time>
      </trkpt>
      <trkpt lat="42.49749" lon="2.6167">
        <ele>1119.1999511719</ele>
        <time>2023-07-15T07:11:32.000Z</time>
      </trkpt>
      <trkpt lat="42.4975" lon="2.61669">
        <ele>1119.4000244141</ele>
        <time>2023-07-15T07:11:35.000Z</time>
      </trkpt>
      <trkpt lat="42.49758" lon="2.61659">
        <ele>1119.1999511719</ele>
        <time>2023-07-15T07:11:43.000Z</time>
      </trkpt>
      <trkpt lat="42.49763" lon="2.61649">
        <ele>1119.5999755859</ele>
        <time>2023-07-15T07:11:49.000Z</time>
      </trkpt>
      <trkpt lat="42.49766" lon="2.61635">
        <ele>1119.8000488281</ele>
        <time>2023-07-15T07:11:57.000Z</time>
      </trkpt>
      <trkpt lat="42.49772" lon="2.61621">
        <ele>1120.1999511719</ele>
        <time>2023-07-15T07:12:05.000Z</time>
      </trkpt>
      <trkpt lat="42.49775" lon="2.61612">
        <ele>1120.4000244141</ele>
        <time>2023-07-15T07:12:11.000Z</time>
      </trkpt>
      <trkpt lat="42.49776" lon="2.61608">
        <ele>1120.5999755859</ele>
        <time>2023-07-15T07:12:13.000Z</time>
      </trkpt>
      <trkpt lat="42.49778" lon="2.61593">
        <ele>1120.4000244141</ele>
        <time>2023-07-15T07:12:21.000Z</time>
      </trkpt>
      <trkpt lat="42.4978" lon="2.61583">
        <ele>1120.5999755859</ele>
        <time>2023-07-15T07:12:27.000Z</time>
      </trkpt>
      <trkpt lat="42.49782" lon="2.61568">
        <ele>1120.5999755859</ele>
        <time>2023-07-15T07:12:35.000Z</time>
      </trkpt>
      <trkpt lat="42.49785" lon="2.61557">
        <ele>1121</ele>
        <time>2023-07-15T07:12:42.000Z</time>
      </trkpt>
      <trkpt lat="42.49784" lon="2.61547">
        <ele>1120.8000488281</ele>
        <time>2023-07-15T07:12:49.000Z</time>
      </trkpt>
      <trkpt lat="42.49785" lon="2.61532">
        <ele>1120.5999755859</ele>
        <time>2023-07-15T07:12:56.000Z</time>
      </trkpt>
      <trkpt lat="42.49787" lon="2.6152">
        <ele>1121</ele>
        <time>2023-07-15T07:13:04.000Z</time>
      </trkpt>
      <trkpt lat="42.49787" lon="2.61509">
        <ele>1121.1999511719</ele>
        <time>2023-07-15T07:13:10.000Z</time>
      </trkpt>
      <trkpt lat="42.49788" lon="2.61497">
        <ele>1121.4000244141</ele>
        <time>2023-07-15T07:13:16.000Z</time>
      </trkpt>
      <trkpt lat="42.49788" lon="2.61496">
        <ele>1121.4000244141</ele>
        <time>2023-07-15T07:13:17.000Z</time>
      </trkpt>
      <trkpt lat="42.49788" lon="2.61487">
        <ele>1121.4000244141</ele>
        <time>2023-07-15T07:13:22.000Z</time>
      </trkpt>
      <trkpt lat="42.49789" lon="2.61476">
        <ele>1121.4000244141</ele>
        <time>2023-07-15T07:13:28.000Z</time>
      </trkpt>
      <trkpt lat="42.49789" lon="2.61466">
        <ele>1121.4000244141</ele>
        <time>2023-07-15T07:13:35.000Z</time>
      </trkpt>
      <trkpt lat="42.49789" lon="2.61456">
        <ele>1121.4000244141</ele>
        <time>2023-07-15T07:13:41.000Z</time>
      </trkpt>
      <trkpt lat="42.49788" lon="2.6145">
        <ele>1121.4000244141</ele>
        <time>2023-07-15T07:13:48.000Z</time>
      </trkpt>
      <trkpt lat="42.49787" lon="2.61438">
        <ele>1121.5999755859</ele>
        <time>2023-07-15T07:13:54.000Z</time>
      </trkpt>
      <trkpt lat="42.49789" lon="2.61429">
        <ele>1121.5999755859</ele>
        <time>2023-07-15T07:14:01.000Z</time>
      </trkpt>
      <trkpt lat="42.49791" lon="2.61414">
        <ele>1121.8000488281</ele>
        <time>2023-07-15T07:14:09.000Z</time>
      </trkpt>
      <trkpt lat="42.49796" lon="2.61402">
        <ele>1121.8000488281</ele>
        <time>2023-07-15T07:14:17.000Z</time>
      </trkpt>
      <trkpt lat="42.49798" lon="2.61389">
        <ele>1121.5999755859</ele>
        <time>2023-07-15T07:14:24.000Z</time>
      </trkpt>
      <trkpt lat="42.49801" lon="2.61375">
        <ele>1121.4000244141</ele>
        <time>2023-07-15T07:14:33.000Z</time>
      </trkpt>
      <trkpt lat="42.49806" lon="2.61357">
        <ele>1121.5999755859</ele>
        <time>2023-07-15T07:14:42.000Z</time>
      </trkpt>
      <trkpt lat="42.49811" lon="2.61344">
        <ele>1121.5999755859</ele>
        <time>2023-07-15T07:14:49.000Z</time>
      </trkpt>
      <trkpt lat="42.49819" lon="2.61334">
        <ele>1121.4000244141</ele>
        <time>2023-07-15T07:14:59.000Z</time>
      </trkpt>
      <trkpt lat="42.49823" lon="2.61324">
        <ele>1121.8000488281</ele>
        <time>2023-07-15T07:15:07.000Z</time>
      </trkpt>
      <trkpt lat="42.49831" lon="2.61314">
        <ele>1121.8000488281</ele>
        <time>2023-07-15T07:15:14.000Z</time>
      </trkpt>
      <trkpt lat="42.49838" lon="2.61303">
        <ele>1121.8000488281</ele>
        <time>2023-07-15T07:15:23.000Z</time>
      </trkpt>
      <trkpt lat="42.49847" lon="2.61294">
        <ele>1122</ele>
        <time>2023-07-15T07:15:30.000Z</time>
      </trkpt>
      <trkpt lat="42.49854" lon="2.61288">
        <ele>1122.1999511719</ele>
        <time>2023-07-15T07:15:39.000Z</time>
      </trkpt>
      <trkpt lat="42.4986" lon="2.61282">
        <ele>1122.4000244141</ele>
        <time>2023-07-15T07:15:44.000Z</time>
      </trkpt>
      <trkpt lat="42.49871" lon="2.61271">
        <ele>1122.1999511719</ele>
        <time>2023-07-15T07:15:53.000Z</time>
      </trkpt>
      <trkpt lat="42.49881" lon="2.61266">
        <ele>1122.4000244141</ele>
        <time>2023-07-15T07:16:02.000Z</time>
      </trkpt>
      <trkpt lat="42.49883" lon="2.61264">
        <ele>1122.4000244141</ele>
        <time>2023-07-15T07:16:05.000Z</time>
      </trkpt>
      <trkpt lat="42.49891" lon="2.61259">
        <ele>1122.5999755859</ele>
        <time>2023-07-15T07:16:11.000Z</time>
      </trkpt>
      <trkpt lat="42.49902" lon="2.61255">
        <ele>1122.8000488281</ele>
        <time>2023-07-15T07:16:19.000Z</time>
      </trkpt>
      <trkpt lat="42.49912" lon="2.61249">
        <ele>1123</ele>
        <time>2023-07-15T07:16:28.000Z</time>
      </trkpt>
      <trkpt lat="42.49922" lon="2.61245">
        <ele>1123.1999511719</ele>
        <time>2023-07-15T07:16:36.000Z</time>
      </trkpt>
      <trkpt lat="42.49929" lon="2.61241">
        <ele>1123.1999511719</ele>
        <time>2023-07-15T07:16:42.000Z</time>
      </trkpt>
      <trkpt lat="42.49935" lon="2.61236">
        <ele>1123.4000244141</ele>
        <time>2023-07-15T07:16:48.000Z</time>
      </trkpt>
      <trkpt lat="42.49937" lon="2.61233">
        <ele>1123.5999755859</ele>
        <time>2023-07-15T07:16:51.000Z</time>
      </trkpt>
      <trkpt lat="42.49949" lon="2.61225">
        <ele>1123.8000488281</ele>
        <time>2023-07-15T07:17:00.000Z</time>
      </trkpt>
      <trkpt lat="42.49962" lon="2.6122">
        <ele>1123.8000488281</ele>
        <time>2023-07-15T07:17:10.000Z</time>
      </trkpt>
      <trkpt lat="42.49971" lon="2.61212">
        <ele>1123.8000488281</ele>
        <time>2023-07-15T07:17:17.000Z</time>
      </trkpt>
      <trkpt lat="42.49979" lon="2.61206">
        <ele>1124.1999511719</ele>
        <time>2023-07-15T07:17:26.000Z</time>
      </trkpt>
      <trkpt lat="42.49985" lon="2.61198">
        <ele>1124.4000244141</ele>
        <time>2023-07-15T07:17:33.000Z</time>
      </trkpt>
      <trkpt lat="42.49988" lon="2.61193">
        <ele>1124.5999755859</ele>
        <time>2023-07-15T07:17:36.000Z</time>
      </trkpt>
      <trkpt lat="42.49995" lon="2.61183">
        <ele>1124.8000488281</ele>
        <time>2023-07-15T07:17:45.000Z</time>
      </trkpt>
      <trkpt lat="42.50001" lon="2.61169">
        <ele>1124.8000488281</ele>
        <time>2023-07-15T07:17:52.000Z</time>
      </trkpt>
      <trkpt lat="42.50008" lon="2.61155">
        <ele>1124.8000488281</ele>
        <time>2023-07-15T07:18:00.000Z</time>
      </trkpt>
      <trkpt lat="42.50014" lon="2.61143">
        <ele>1124.8000488281</ele>
        <time>2023-07-15T07:18:09.000Z</time>
      </trkpt>
      <trkpt lat="42.5002" lon="2.61123">
        <ele>1125</ele>
        <time>2023-07-15T07:18:19.000Z</time>
      </trkpt>
      <trkpt lat="42.50023" lon="2.61113">
        <ele>1125</ele>
        <time>2023-07-15T07:18:26.000Z</time>
      </trkpt>
      <trkpt lat="42.50026" lon="2.611">
        <ele>1124.8000488281</ele>
        <time>2023-07-15T07:18:34.000Z</time>
      </trkpt>
      <trkpt lat="42.50032" lon="2.61081">
        <ele>1125</ele>
        <time>2023-07-15T07:18:43.000Z</time>
      </trkpt>
      <trkpt lat="42.50038" lon="2.61075">
        <ele>1125</ele>
        <time>2023-07-15T07:18:51.000Z</time>
      </trkpt>
      <trkpt lat="42.5004" lon="2.61074">
        <ele>1125</ele>
        <time>2023-07-15T07:18:56.000Z</time>
      </trkpt>
      <trkpt lat="42.50041" lon="2.61073">
        <ele>1125.1999511719</ele>
        <time>2023-07-15T07:19:00.000Z</time>
      </trkpt>
      <trkpt lat="42.5004" lon="2.61071">
        <ele>1125.1999511719</ele>
        <time>2023-07-15T07:19:03.000Z</time>
      </trkpt>
      <trkpt lat="42.50041" lon="2.61067">
        <ele>1125.1999511719</ele>
        <time>2023-07-15T07:19:08.000Z</time>
      </trkpt>
      <trkpt lat="42.50042" lon="2.61068">
        <ele>1125.1999511719</ele>
        <time>2023-07-15T07:19:17.000Z</time>
      </trkpt>
      <trkpt lat="42.50044" lon="2.61064">
        <ele>1125.4000244141</ele>
        <time>2023-07-15T07:19:22.000Z</time>
      </trkpt>
      <trkpt lat="42.50044" lon="2.61063">
        <ele>1125.4000244141</ele>
        <time>2023-07-15T07:19:23.000Z</time>
      </trkpt>
      <trkpt lat="42.50047" lon="2.61051">
        <ele>1125.5999755859</ele>
        <time>2023-07-15T07:19:32.000Z</time>
      </trkpt>
      <trkpt lat="42.5005" lon="2.61036">
        <ele>1125.8000488281</ele>
        <time>2023-07-15T07:19:40.000Z</time>
      </trkpt>
      <trkpt lat="42.50051" lon="2.61021">
        <ele>1126</ele>
        <time>2023-07-15T07:19:47.000Z</time>
      </trkpt>
      <trkpt lat="42.50052" lon="2.61007">
        <ele>1126</ele>
        <time>2023-07-15T07:19:55.000Z</time>
      </trkpt>
      <trkpt lat="42.50054" lon="2.60991">
        <ele>1126</ele>
        <time>2023-07-15T07:20:04.000Z</time>
      </trkpt>
      <trkpt lat="42.50057" lon="2.60974">
        <ele>1126.4000244141</ele>
        <time>2023-07-15T07:20:13.000Z</time>
      </trkpt>
      <trkpt lat="42.50059" lon="2.60967">
        <ele>1126.4000244141</ele>
        <time>2023-07-15T07:20:17.000Z</time>
      </trkpt>
      <trkpt lat="42.5006" lon="2.60961">
        <ele>1126.5999755859</ele>
        <time>2023-07-15T07:20:21.000Z</time>
      </trkpt>
      <trkpt lat="42.50066" lon="2.60946">
        <ele>1126.4000244141</ele>
        <time>2023-07-15T07:20:30.000Z</time>
      </trkpt>
      <trkpt lat="42.50076" lon="2.60935">
        <ele>1126.4000244141</ele>
        <time>2023-07-15T07:20:39.000Z</time>
      </trkpt>
      <trkpt lat="42.50084" lon="2.60926">
        <ele>1126.4000244141</ele>
        <time>2023-07-15T07:20:46.000Z</time>
      </trkpt>
      <trkpt lat="42.5009" lon="2.60917">
        <ele>1126.4000244141</ele>
        <time>2023-07-15T07:20:53.000Z</time>
      </trkpt>
      <trkpt lat="42.50097" lon="2.60904">
        <ele>1126.4000244141</ele>
        <time>2023-07-15T07:21:01.000Z</time>
      </trkpt>
      <trkpt lat="42.50103" lon="2.60893">
        <ele>1126.4000244141</ele>
        <time>2023-07-15T07:21:08.000Z</time>
      </trkpt>
      <trkpt lat="42.5011" lon="2.60881">
        <ele>1126.5999755859</ele>
        <time>2023-07-15T07:21:17.000Z</time>
      </trkpt>
      <trkpt lat="42.50116" lon="2.6087">
        <ele>1127</ele>
        <time>2023-07-15T07:21:25.000Z</time>
      </trkpt>
      <trkpt lat="42.50119" lon="2.60869">
        <ele>1127</ele>
        <time>2023-07-15T07:21:29.000Z</time>
      </trkpt>
      <trkpt lat="42.5012" lon="2.6087">
        <ele>1127</ele>
        <time>2023-07-15T07:21:32.000Z</time>
      </trkpt>
      <trkpt lat="42.50123" lon="2.60867">
        <ele>1126.8000488281</ele>
        <time>2023-07-15T07:21:42.000Z</time>
      </trkpt>
      <trkpt lat="42.50128" lon="2.60856">
        <ele>1126.8000488281</ele>
        <time>2023-07-15T07:21:48.000Z</time>
      </trkpt>
      <trkpt lat="42.50134" lon="2.60843">
        <ele>1127</ele>
        <time>2023-07-15T07:21:56.000Z</time>
      </trkpt>
      <trkpt lat="42.50139" lon="2.60829">
        <ele>1127.1999511719</ele>
        <time>2023-07-15T07:22:04.000Z</time>
      </trkpt>
      <trkpt lat="42.50144" lon="2.60814">
        <ele>1127.1999511719</ele>
        <time>2023-07-15T07:22:13.000Z</time>
      </trkpt>
      <trkpt lat="42.5015" lon="2.60801">
        <ele>1127.4000244141</ele>
        <time>2023-07-15T07:22:20.000Z</time>
      </trkpt>
      <trkpt lat="42.50158" lon="2.60787">
        <ele>1127.4000244141</ele>
        <time>2023-07-15T07:22:29.000Z</time>
      </trkpt>
      <trkpt lat="42.50161" lon="2.60779">
        <ele>1127.5999755859</ele>
        <time>2023-07-15T07:22:34.000Z</time>
      </trkpt>
      <trkpt lat="42.50166" lon="2.60771">
        <ele>1127.5999755859</ele>
        <time>2023-07-15T07:22:40.000Z</time>
      </trkpt>
      <trkpt lat="42.50175" lon="2.60755">
        <ele>1127.8000488281</ele>
        <time>2023-07-15T07:22:50.000Z</time>
      </trkpt>
      <trkpt lat="42.50181" lon="2.60747">
        <ele>1127.8000488281</ele>
        <time>2023-07-15T07:22:57.000Z</time>
      </trkpt>
      <trkpt lat="42.5019" lon="2.60735">
        <ele>1128</ele>
        <time>2023-07-15T07:23:07.000Z</time>
      </trkpt>
      <trkpt lat="42.50198" lon="2.60721">
        <ele>1128.1999511719</ele>
        <time>2023-07-15T07:23:15.000Z</time>
      </trkpt>
      <trkpt lat="42.50204" lon="2.60712">
        <ele>1128.4000244141</ele>
        <time>2023-07-15T07:23:23.000Z</time>
      </trkpt>
      <trkpt lat="42.50213" lon="2.60708">
        <ele>1128.4000244141</ele>
        <time>2023-07-15T07:23:29.000Z</time>
      </trkpt>
      <trkpt lat="42.50219" lon="2.60704">
        <ele>1128.5999755859</ele>
        <time>2023-07-15T07:23:34.000Z</time>
      </trkpt>
      <trkpt lat="42.50225" lon="2.60697">
        <ele>1128.5999755859</ele>
        <time>2023-07-15T07:23:38.000Z</time>
      </trkpt>
      <trkpt lat="42.50233" lon="2.60683">
        <ele>1128.8000488281</ele>
        <time>2023-07-15T07:23:46.000Z</time>
      </trkpt>
      <trkpt lat="42.50241" lon="2.60665">
        <ele>1129.1999511719</ele>
        <time>2023-07-15T07:23:58.000Z</time>
      </trkpt>
      <trkpt lat="42.5025" lon="2.60651">
        <ele>1129.1999511719</ele>
        <time>2023-07-15T07:24:08.000Z</time>
      </trkpt>
      <trkpt lat="42.50258" lon="2.60636">
        <ele>1129.1999511719</ele>
        <time>2023-07-15T07:24:17.000Z</time>
      </trkpt>
      <trkpt lat="42.50265" lon="2.60628">
        <ele>1129.1999511719</ele>
        <time>2023-07-15T07:24:24.000Z</time>
      </trkpt>
      <trkpt lat="42.50273" lon="2.60621">
        <ele>1129.5999755859</ele>
        <time>2023-07-15T07:24:31.000Z</time>
      </trkpt>
      <trkpt lat="42.5028" lon="2.60613">
        <ele>1129.1999511719</ele>
        <time>2023-07-15T07:24:38.000Z</time>
      </trkpt>
      <trkpt lat="42.50287" lon="2.60602">
        <ele>1129.4000244141</ele>
        <time>2023-07-15T07:24:45.000Z</time>
      </trkpt>
      <trkpt lat="42.50292" lon="2.60594">
        <ele>1129</ele>
        <time>2023-07-15T07:24:52.000Z</time>
      </trkpt>
      <trkpt lat="42.50298" lon="2.60584">
        <ele>1129.1999511719</ele>
        <time>2023-07-15T07:25:00.000Z</time>
      </trkpt>
      <trkpt lat="42.50303" lon="2.60568">
        <ele>1129.4000244141</ele>
        <time>2023-07-15T07:25:09.000Z</time>
      </trkpt>
      <trkpt lat="42.5031" lon="2.60552">
        <ele>1129.4000244141</ele>
        <time>2023-07-15T07:25:18.000Z</time>
      </trkpt>
      <trkpt lat="42.50315" lon="2.60535">
        <ele>1129.5999755859</ele>
        <time>2023-07-15T07:25:28.000Z</time>
      </trkpt>
      <trkpt lat="42.50317" lon="2.60522">
        <ele>1129.5999755859</ele>
        <time>2023-07-15T07:25:35.000Z</time>
      </trkpt>
      <trkpt lat="42.50315" lon="2.60513">
        <ele>1130.1999511719</ele>
        <time>2023-07-15T07:25:42.000Z</time>
      </trkpt>
      <trkpt lat="42.50315" lon="2.60515">
        <ele>1130.1999511719</ele>
        <time>2023-07-15T07:25:46.000Z</time>
      </trkpt>
      <trkpt lat="42.50314" lon="2.60515">
        <ele>1130.4000244141</ele>
        <time>2023-07-15T07:25:48.000Z</time>
      </trkpt>
      <trkpt lat="42.50316" lon="2.60516">
        <ele>1130.5999755859</ele>
        <time>2023-07-15T07:25:56.000Z</time>
      </trkpt>
      <trkpt lat="42.50314" lon="2.60514">
        <ele>1130.5999755859</ele>
        <time>2023-07-15T07:26:00.000Z</time>
      </trkpt>
      <trkpt lat="42.50314" lon="2.60514">
        <ele>1130.8000488281</ele>
        <time>2023-07-15T07:26:02.000Z</time>
      </trkpt>
      <trkpt lat="42.50313" lon="2.60513">
        <ele>1130.4000244141</ele>
        <time>2023-07-15T07:26:08.000Z</time>
      </trkpt>
      <trkpt lat="42.50311" lon="2.60507">
        <ele>1130.4000244141</ele>
        <time>2023-07-15T07:26:14.000Z</time>
      </trkpt>
      <trkpt lat="42.5031" lon="2.60498">
        <ele>1130.1999511719</ele>
        <time>2023-07-15T07:26:21.000Z</time>
      </trkpt>
      <trkpt lat="42.50312" lon="2.60491">
        <ele>1131.1999511719</ele>
        <time>2023-07-15T07:26:28.000Z</time>
      </trkpt>
      <trkpt lat="42.50312" lon="2.60484">
        <ele>1131.8000488281</ele>
        <time>2023-07-15T07:26:33.000Z</time>
      </trkpt>
      <trkpt lat="42.50312" lon="2.60481">
        <ele>1132</ele>
        <time>2023-07-15T07:26:35.000Z</time>
      </trkpt>
      <trkpt lat="42.50312" lon="2.60474">
        <ele>1133</ele>
        <time>2023-07-15T07:26:41.000Z</time>
      </trkpt>
      <trkpt lat="42.50312" lon="2.60471">
        <ele>1133.5999755859</ele>
        <time>2023-07-15T07:26:43.000Z</time>
      </trkpt>
      <trkpt lat="42.50311" lon="2.60465">
        <ele>1134</ele>
        <time>2023-07-15T07:26:48.000Z</time>
      </trkpt>
      <trkpt lat="42.5031" lon="2.60459">
        <ele>1135</ele>
        <time>2023-07-15T07:26:54.000Z</time>
      </trkpt>
      <trkpt lat="42.50309" lon="2.60453">
        <ele>1136.1999511719</ele>
        <time>2023-07-15T07:27:00.000Z</time>
      </trkpt>
      <trkpt lat="42.50308" lon="2.60452">
        <ele>1136.5999755859</ele>
        <time>2023-07-15T07:27:02.000Z</time>
      </trkpt>
      <trkpt lat="42.50306" lon="2.60445">
        <ele>1137.1999511719</ele>
        <time>2023-07-15T07:27:09.000Z</time>
      </trkpt>
      <trkpt lat="42.50305" lon="2.60439">
        <ele>1138.1999511719</ele>
        <time>2023-07-15T07:27:16.000Z</time>
      </trkpt>
      <trkpt lat="42.50305" lon="2.60434">
        <ele>1139.5999755859</ele>
        <time>2023-07-15T07:27:23.000Z</time>
      </trkpt>
      <trkpt lat="42.50305" lon="2.60432">
        <ele>1140</ele>
        <time>2023-07-15T07:27:26.000Z</time>
      </trkpt>
      <trkpt lat="42.50305" lon="2.60429">
        <ele>1140.8000488281</ele>
        <time>2023-07-15T07:27:29.000Z</time>
      </trkpt>
      <trkpt lat="42.50304" lon="2.60426">
        <ele>1142</ele>
        <time>2023-07-15T07:27:32.000Z</time>
      </trkpt>
      <trkpt lat="42.50304" lon="2.60424">
        <ele>1142.1999511719</ele>
        <time>2023-07-15T07:27:34.000Z</time>
      </trkpt>
      <trkpt lat="42.50302" lon="2.60416">
        <ele>1143</ele>
        <time>2023-07-15T07:27:42.000Z</time>
      </trkpt>
      <trkpt lat="42.50302" lon="2.60413">
        <ele>1144.1999511719</ele>
        <time>2023-07-15T07:27:47.000Z</time>
      </trkpt>
      <trkpt lat="42.50302" lon="2.60413">
        <ele>1144.4000244141</ele>
        <time>2023-07-15T07:27:48.000Z</time>
      </trkpt>
      <trkpt lat="42.50303" lon="2.6041">
        <ele>1145.1999511719</ele>
        <time>2023-07-15T07:27:52.000Z</time>
      </trkpt>
      <trkpt lat="42.50304" lon="2.60408">
        <ele>1146.1999511719</ele>
        <time>2023-07-15T07:27:57.000Z</time>
      </trkpt>
      <trkpt lat="42.50306" lon="2.60402">
        <ele>1147.1999511719</ele>
        <time>2023-07-15T07:28:03.000Z</time>
      </trkpt>
      <trkpt lat="42.50307" lon="2.60401">
        <ele>1147.5999755859</ele>
        <time>2023-07-15T07:28:04.000Z</time>
      </trkpt>
      <trkpt lat="42.50309" lon="2.60395">
        <ele>1148</ele>
        <time>2023-07-15T07:28:10.000Z</time>
      </trkpt>
      <trkpt lat="42.50311" lon="2.60392">
        <ele>1148.4000244141</ele>
        <time>2023-07-15T07:28:13.000Z</time>
      </trkpt>
      <trkpt lat="42.50312" lon="2.60387">
        <ele>1149</ele>
        <time>2023-07-15T07:28:18.000Z</time>
      </trkpt>
      <trkpt lat="42.50312" lon="2.60384">
        <ele>1149.4000244141</ele>
        <time>2023-07-15T07:28:21.000Z</time>
      </trkpt>
      <trkpt lat="42.50311" lon="2.60379">
        <ele>1150</ele>
        <time>2023-07-15T07:28:26.000Z</time>
      </trkpt>
      <trkpt lat="42.50311" lon="2.60376">
        <ele>1150.4000244141</ele>
        <time>2023-07-15T07:28:30.000Z</time>
      </trkpt>
      <trkpt lat="42.50311" lon="2.60377">
        <ele>1150.8000488281</ele>
        <time>2023-07-15T07:28:36.000Z</time>
      </trkpt>
      <trkpt lat="42.50311" lon="2.60371">
        <ele>1151.1999511719</ele>
        <time>2023-07-15T07:28:44.000Z</time>
      </trkpt>
      <trkpt lat="42.50311" lon="2.60369">
        <ele>1151.4000244141</ele>
        <time>2023-07-15T07:28:45.000Z</time>
      </trkpt>
      <trkpt lat="42.5031" lon="2.60364">
        <ele>1152.4000244141</ele>
        <time>2023-07-15T07:28:49.000Z</time>
      </trkpt>
      <trkpt lat="42.50308" lon="2.6036">
        <ele>1153</ele>
        <time>2023-07-15T07:28:53.000Z</time>
      </trkpt>
      <trkpt lat="42.50309" lon="2.6036">
        <ele>1153.5999755859</ele>
        <time>2023-07-15T07:28:55.000Z</time>
      </trkpt>
      <trkpt lat="42.50311" lon="2.60356">
        <ele>1154.4000244141</ele>
        <time>2023-07-15T07:29:00.000Z</time>
      </trkpt>
      <trkpt lat="42.50312" lon="2.60355">
        <ele>1154.5999755859</ele>
        <time>2023-07-15T07:29:01.000Z</time>
      </trkpt>
      <trkpt lat="42.50312" lon="2.6035">
        <ele>1155.4000244141</ele>
        <time>2023-07-15T07:29:09.000Z</time>
      </trkpt>
      <trkpt lat="42.50312" lon="2.6035">
        <ele>1155.5999755859</ele>
        <time>2023-07-15T07:29:10.000Z</time>
      </trkpt>
      <trkpt lat="42.50311" lon="2.60345">
        <ele>1156.8000488281</ele>
        <time>2023-07-15T07:29:16.000Z</time>
      </trkpt>
      <trkpt lat="42.50311" lon="2.60344">
        <ele>1157</ele>
        <time>2023-07-15T07:29:17.000Z</time>
      </trkpt>
      <trkpt lat="42.50312" lon="2.60338">
        <ele>1158</ele>
        <time>2023-07-15T07:29:23.000Z</time>
      </trkpt>
      <trkpt lat="42.50312" lon="2.60334">
        <ele>1158.1999511719</ele>
        <time>2023-07-15T07:29:26.000Z</time>
      </trkpt>
      <trkpt lat="42.50311" lon="2.60332">
        <ele>1159</ele>
        <time>2023-07-15T07:29:31.000Z</time>
      </trkpt>
      <trkpt lat="42.50311" lon="2.60332">
        <ele>1159.4000244141</ele>
        <time>2023-07-15T07:29:33.000Z</time>
      </trkpt>
      <trkpt lat="42.5031" lon="2.6033">
        <ele>1160.1999511719</ele>
        <time>2023-07-15T07:29:38.000Z</time>
      </trkpt>
      <trkpt lat="42.50309" lon="2.6033">
        <ele>1160.5999755859</ele>
        <time>2023-07-15T07:29:40.000Z</time>
      </trkpt>
      <trkpt lat="42.50309" lon="2.60327">
        <ele>1161.1999511719</ele>
        <time>2023-07-15T07:29:44.000Z</time>
      </trkpt>
      <trkpt lat="42.50309" lon="2.60325">
        <ele>1161.8000488281</ele>
        <time>2023-07-15T07:29:47.000Z</time>
      </trkpt>
      <trkpt lat="42.50309" lon="2.6032">
        <ele>1162.4000244141</ele>
        <time>2023-07-15T07:29:54.000Z</time>
      </trkpt>
      <trkpt lat="42.50309" lon="2.60314">
        <ele>1163.5999755859</ele>
        <time>2023-07-15T07:30:00.000Z</time>
      </trkpt>
      <trkpt lat="42.50309" lon="2.60313">
        <ele>1164.1999511719</ele>
        <time>2023-07-15T07:30:02.000Z</time>
      </trkpt>
      <trkpt lat="42.50308" lon="2.60312">
        <ele>1164.5999755859</ele>
        <time>2023-07-15T07:30:05.000Z</time>
      </trkpt>
      <trkpt lat="42.50306" lon="2.60313">
        <ele>1165.4000244141</ele>
        <time>2023-07-15T07:30:09.000Z</time>
      </trkpt>
      <trkpt lat="42.50305" lon="2.60313">
        <ele>1165.8000488281</ele>
        <time>2023-07-15T07:30:12.000Z</time>
      </trkpt>
      <trkpt lat="42.50302" lon="2.60313">
        <ele>1166.8000488281</ele>
        <time>2023-07-15T07:30:18.000Z</time>
      </trkpt>
      <trkpt lat="42.50302" lon="2.60312">
        <ele>1167</ele>
        <time>2023-07-15T07:30:19.000Z</time>
      </trkpt>
      <trkpt lat="42.50299" lon="2.60309">
        <ele>1168</ele>
        <time>2023-07-15T07:30:26.000Z</time>
      </trkpt>
      <trkpt lat="42.50299" lon="2.60309">
        <ele>1168.1999511719</ele>
        <time>2023-07-15T07:30:27.000Z</time>
      </trkpt>
      <trkpt lat="42.50298" lon="2.60304">
        <ele>1169.1999511719</ele>
        <time>2023-07-15T07:30:32.000Z</time>
      </trkpt>
      <trkpt lat="42.50298" lon="2.60301">
        <ele>1169.8000488281</ele>
        <time>2023-07-15T07:30:35.000Z</time>
      </trkpt>
      <trkpt lat="42.50297" lon="2.603">
        <ele>1170.4000244141</ele>
        <time>2023-07-15T07:30:39.000Z</time>
      </trkpt>
      <trkpt lat="42.50295" lon="2.60297">
        <ele>1171.1999511719</ele>
        <time>2023-07-15T07:30:44.000Z</time>
      </trkpt>
      <trkpt lat="42.50295" lon="2.60296">
        <ele>1171.4000244141</ele>
        <time>2023-07-15T07:30:45.000Z</time>
      </trkpt>
      <trkpt lat="42.50294" lon="2.60296">
        <ele>1172.4000244141</ele>
        <time>2023-07-15T07:30:51.000Z</time>
      </trkpt>
      <trkpt lat="42.50294" lon="2.60296">
        <ele>1173</ele>
        <time>2023-07-15T07:30:54.000Z</time>
      </trkpt>
      <trkpt lat="42.50294" lon="2.60295">
        <ele>1173.4000244141</ele>
        <time>2023-07-15T07:30:56.000Z</time>
      </trkpt>
      <trkpt lat="42.50291" lon="2.60291">
        <ele>1174.5999755859</ele>
        <time>2023-07-15T07:31:03.000Z</time>
      </trkpt>
      <trkpt lat="42.50291" lon="2.6029">
        <ele>1174.8000488281</ele>
        <time>2023-07-15T07:31:05.000Z</time>
      </trkpt>
      <trkpt lat="42.5029" lon="2.60284">
        <ele>1175.5999755859</ele>
        <time>2023-07-15T07:31:09.000Z</time>
      </trkpt>
      <trkpt lat="42.50289" lon="2.6028">
        <ele>1176.4000244141</ele>
        <time>2023-07-15T07:31:13.000Z</time>
      </trkpt>
      <trkpt lat="42.50288" lon="2.60279">
        <ele>1176.5999755859</ele>
        <time>2023-07-15T07:31:14.000Z</time>
      </trkpt>
      <trkpt lat="42.50288" lon="2.60276">
        <ele>1177.8000488281</ele>
        <time>2023-07-15T07:31:20.000Z</time>
      </trkpt>
      <trkpt lat="42.50288" lon="2.60276">
        <ele>1178</ele>
        <time>2023-07-15T07:31:21.000Z</time>
      </trkpt>
      <trkpt lat="42.50287" lon="2.60273">
        <ele>1179</ele>
        <time>2023-07-15T07:31:26.000Z</time>
      </trkpt>
      <trkpt lat="42.50286" lon="2.60272">
        <ele>1179.4000244141</ele>
        <time>2023-07-15T07:31:29.000Z</time>
      </trkpt>
      <trkpt lat="42.50284" lon="2.6027">
        <ele>1180</ele>
        <time>2023-07-15T07:31:33.000Z</time>
      </trkpt>
      <trkpt lat="42.50282" lon="2.60266">
        <ele>1180.8000488281</ele>
        <time>2023-07-15T07:31:37.000Z</time>
      </trkpt>
      <trkpt lat="42.50282" lon="2.60264">
        <ele>1181</ele>
        <time>2023-07-15T07:31:39.000Z</time>
      </trkpt>
      <trkpt lat="42.5028" lon="2.60261">
        <ele>1182</ele>
        <time>2023-07-15T07:31:44.000Z</time>
      </trkpt>
      <trkpt lat="42.5028" lon="2.6026">
        <ele>1182.1999511719</ele>
        <time>2023-07-15T07:31:45.000Z</time>
      </trkpt>
      <trkpt lat="42.50279" lon="2.60257">
        <ele>1183.4000244141</ele>
        <time>2023-07-15T07:31:53.000Z</time>
      </trkpt>
      <trkpt lat="42.50278" lon="2.60257">
        <ele>1183.4000244141</ele>
        <time>2023-07-15T07:31:54.000Z</time>
      </trkpt>
      <trkpt lat="42.50275" lon="2.60255">
        <ele>1184.4000244141</ele>
        <time>2023-07-15T07:31:59.000Z</time>
      </trkpt>
      <trkpt lat="42.50274" lon="2.60255">
        <ele>1185</ele>
        <time>2023-07-15T07:32:02.000Z</time>
      </trkpt>
      <trkpt lat="42.5027" lon="2.60247">
        <ele>1186.4000244141</ele>
        <time>2023-07-15T07:32:13.000Z</time>
      </trkpt>
      <trkpt lat="42.5027" lon="2.60241">
        <ele>1187.5999755859</ele>
        <time>2023-07-15T07:32:20.000Z</time>
      </trkpt>
      <trkpt lat="42.50269" lon="2.6024">
        <ele>1188</ele>
        <time>2023-07-15T07:32:22.000Z</time>
      </trkpt>
      <trkpt lat="42.50267" lon="2.60239">
        <ele>1188.8000488281</ele>
        <time>2023-07-15T07:32:25.000Z</time>
      </trkpt>
      <trkpt lat="42.50267" lon="2.6024">
        <ele>1189.5999755859</ele>
        <time>2023-07-15T07:32:30.000Z</time>
      </trkpt>
      <trkpt lat="42.50268" lon="2.6024">
        <ele>1190</ele>
        <time>2023-07-15T07:32:32.000Z</time>
      </trkpt>
      <trkpt lat="42.50268" lon="2.60237">
        <ele>1191</ele>
        <time>2023-07-15T07:32:38.000Z</time>
      </trkpt>
      <trkpt lat="42.50267" lon="2.60235">
        <ele>1191.8000488281</ele>
        <time>2023-07-15T07:32:41.000Z</time>
      </trkpt>
      <trkpt lat="42.50267" lon="2.60234">
        <ele>1192.1999511719</ele>
        <time>2023-07-15T07:32:42.000Z</time>
      </trkpt>
      <trkpt lat="42.50265" lon="2.6023">
        <ele>1193.1999511719</ele>
        <time>2023-07-15T07:32:49.000Z</time>
      </trkpt>
      <trkpt lat="42.50262" lon="2.60223">
        <ele>1194.4000244141</ele>
        <time>2023-07-15T07:32:55.000Z</time>
      </trkpt>
      <trkpt lat="42.50262" lon="2.60222">
        <ele>1194.5999755859</ele>
        <time>2023-07-15T07:32:56.000Z</time>
      </trkpt>
      <trkpt lat="42.50263" lon="2.60219">
        <ele>1195.4000244141</ele>
        <time>2023-07-15T07:33:02.000Z</time>
      </trkpt>
      <trkpt lat="42.50264" lon="2.60218">
        <ele>1195.8000488281</ele>
        <time>2023-07-15T07:33:04.000Z</time>
      </trkpt>
      <trkpt lat="42.50264" lon="2.60215">
        <ele>1196.4000244141</ele>
        <time>2023-07-15T07:33:07.000Z</time>
      </trkpt>
      <trkpt lat="42.50264" lon="2.60208">
        <ele>1197.4000244141</ele>
        <time>2023-07-15T07:33:12.000Z</time>
      </trkpt>
      <trkpt lat="42.50263" lon="2.60208">
        <ele>1197.5999755859</ele>
        <time>2023-07-15T07:33:13.000Z</time>
      </trkpt>
      <trkpt lat="42.50264" lon="2.60204">
        <ele>1198.5999755859</ele>
        <time>2023-07-15T07:33:20.000Z</time>
      </trkpt>
      <trkpt lat="42.50264" lon="2.60203">
        <ele>1198.8000488281</ele>
        <time>2023-07-15T07:33:21.000Z</time>
      </trkpt>
      <trkpt lat="42.50265" lon="2.60192">
        <ele>1200</ele>
        <time>2023-07-15T07:33:29.000Z</time>
      </trkpt>
      <trkpt lat="42.50263" lon="2.60182">
        <ele>1201</ele>
        <time>2023-07-15T07:33:39.000Z</time>
      </trkpt>
      <trkpt lat="42.50265" lon="2.60169">
        <ele>1201.8000488281</ele>
        <time>2023-07-15T07:33:47.000Z</time>
      </trkpt>
      <trkpt lat="42.50264" lon="2.60165">
        <ele>1202.1999511719</ele>
        <time>2023-07-15T07:33:52.000Z</time>
      </trkpt>
      <trkpt lat="42.50264" lon="2.60162">
        <ele>1202.4000244141</ele>
        <time>2023-07-15T07:33:56.000Z</time>
      </trkpt>
      <trkpt lat="42.50264" lon="2.60155">
        <ele>1203.1999511719</ele>
        <time>2023-07-15T07:34:01.000Z</time>
      </trkpt>
      <trkpt lat="42.50263" lon="2.60153">
        <ele>1203.5999755859</ele>
        <time>2023-07-15T07:34:03.000Z</time>
      </trkpt>
      <trkpt lat="42.50262" lon="2.60148">
        <ele>1204.1999511719</ele>
        <time>2023-07-15T07:34:08.000Z</time>
      </trkpt>
      <trkpt lat="42.50261" lon="2.60144">
        <ele>1204.5999755859</ele>
        <time>2023-07-15T07:34:11.000Z</time>
      </trkpt>
      <trkpt lat="42.5026" lon="2.60137">
        <ele>1205.1999511719</ele>
        <time>2023-07-15T07:34:18.000Z</time>
      </trkpt>
      <trkpt lat="42.50259" lon="2.60134">
        <ele>1205.1999511719</ele>
        <time>2023-07-15T07:34:20.000Z</time>
      </trkpt>
      <trkpt lat="42.50258" lon="2.60125">
        <ele>1206</ele>
        <time>2023-07-15T07:34:27.000Z</time>
      </trkpt>
      <trkpt lat="42.50258" lon="2.6012">
        <ele>1206.4000244141</ele>
        <time>2023-07-15T07:34:31.000Z</time>
      </trkpt>
      <trkpt lat="42.50257" lon="2.60114">
        <ele>1207</ele>
        <time>2023-07-15T07:34:36.000Z</time>
      </trkpt>
      <trkpt lat="42.50256" lon="2.60111">
        <ele>1207.4000244141</ele>
        <time>2023-07-15T07:34:39.000Z</time>
      </trkpt>
      <trkpt lat="42.50255" lon="2.60107">
        <ele>1208.4000244141</ele>
        <time>2023-07-15T07:34:46.000Z</time>
      </trkpt>
      <trkpt lat="42.50255" lon="2.60106">
        <ele>1208.5999755859</ele>
        <time>2023-07-15T07:34:47.000Z</time>
      </trkpt>
      <trkpt lat="42.50255" lon="2.60098">
        <ele>1209</ele>
        <time>2023-07-15T07:34:51.000Z</time>
      </trkpt>
      <trkpt lat="42.50255" lon="2.60091">
        <ele>1209.5999755859</ele>
        <time>2023-07-15T07:34:56.000Z</time>
      </trkpt>
      <trkpt lat="42.50255" lon="2.60088">
        <ele>1210</ele>
        <time>2023-07-15T07:34:59.000Z</time>
      </trkpt>
      <trkpt lat="42.50253" lon="2.60081">
        <ele>1210.5999755859</ele>
        <time>2023-07-15T07:35:06.000Z</time>
      </trkpt>
      <trkpt lat="42.50252" lon="2.60079">
        <ele>1210.8000488281</ele>
        <time>2023-07-15T07:35:07.000Z</time>
      </trkpt>
      <trkpt lat="42.50252" lon="2.60074">
        <ele>1211.4000244141</ele>
        <time>2023-07-15T07:35:13.000Z</time>
      </trkpt>
      <trkpt lat="42.50252" lon="2.6007">
        <ele>1211.8000488281</ele>
        <time>2023-07-15T07:35:17.000Z</time>
      </trkpt>
      <trkpt lat="42.50251" lon="2.60063">
        <ele>1212</ele>
        <time>2023-07-15T07:35:21.000Z</time>
      </trkpt>
      <trkpt lat="42.50252" lon="2.60053">
        <ele>1212.1999511719</ele>
        <time>2023-07-15T07:35:29.000Z</time>
      </trkpt>
      <trkpt lat="42.50251" lon="2.60045">
        <ele>1212.8000488281</ele>
        <time>2023-07-15T07:35:35.000Z</time>
      </trkpt>
      <trkpt lat="42.5025" lon="2.60043">
        <ele>1213</ele>
        <time>2023-07-15T07:35:37.000Z</time>
      </trkpt>
      <trkpt lat="42.50247" lon="2.60035">
        <ele>1213.8000488281</ele>
        <time>2023-07-15T07:35:43.000Z</time>
      </trkpt>
      <trkpt lat="42.50247" lon="2.60033">
        <ele>1214.1999511719</ele>
        <time>2023-07-15T07:35:45.000Z</time>
      </trkpt>
      <trkpt lat="42.50245" lon="2.60025">
        <ele>1215</ele>
        <time>2023-07-15T07:35:51.000Z</time>
      </trkpt>
      <trkpt lat="42.50245" lon="2.60022">
        <ele>1215.4000244141</ele>
        <time>2023-07-15T07:35:53.000Z</time>
      </trkpt>
      <trkpt lat="42.50243" lon="2.60016">
        <ele>1216</ele>
        <time>2023-07-15T07:35:59.000Z</time>
      </trkpt>
      <trkpt lat="42.50242" lon="2.60012">
        <ele>1216.4000244141</ele>
        <time>2023-07-15T07:36:02.000Z</time>
      </trkpt>
      <trkpt lat="42.5024" lon="2.60005">
        <ele>1217.1999511719</ele>
        <time>2023-07-15T07:36:08.000Z</time>
      </trkpt>
      <trkpt lat="42.5024" lon="2.60002">
        <ele>1217.4000244141</ele>
        <time>2023-07-15T07:36:10.000Z</time>
      </trkpt>
      <trkpt lat="42.5024" lon="2.59995">
        <ele>1218.1999511719</ele>
        <time>2023-07-15T07:36:16.000Z</time>
      </trkpt>
      <trkpt lat="42.5024" lon="2.59994">
        <ele>1218.1999511719</ele>
        <time>2023-07-15T07:36:17.000Z</time>
      </trkpt>
      <trkpt lat="42.50238" lon="2.59988">
        <ele>1219.4000244141</ele>
        <time>2023-07-15T07:36:24.000Z</time>
      </trkpt>
      <trkpt lat="42.50238" lon="2.59987">
        <ele>1219.4000244141</ele>
        <time>2023-07-15T07:36:25.000Z</time>
      </trkpt>
      <trkpt lat="42.50233" lon="2.59979">
        <ele>1220.4000244141</ele>
        <time>2023-07-15T07:36:30.000Z</time>
      </trkpt>
      <trkpt lat="42.50233" lon="2.59972">
        <ele>1221</ele>
        <time>2023-07-15T07:36:35.000Z</time>
      </trkpt>
      <trkpt lat="42.50232" lon="2.5997">
        <ele>1221.4000244141</ele>
        <time>2023-07-15T07:36:37.000Z</time>
      </trkpt>
      <trkpt lat="42.50231" lon="2.59964">
        <ele>1222.1999511719</ele>
        <time>2023-07-15T07:36:43.000Z</time>
      </trkpt>
      <trkpt lat="42.5023" lon="2.59962">
        <ele>1222.4000244141</ele>
        <time>2023-07-15T07:36:45.000Z</time>
      </trkpt>
      <trkpt lat="42.50228" lon="2.59957">
        <ele>1223.4000244141</ele>
        <time>2023-07-15T07:36:51.000Z</time>
      </trkpt>
      <trkpt lat="42.50228" lon="2.59955">
        <ele>1223.5999755859</ele>
        <time>2023-07-15T07:36:52.000Z</time>
      </trkpt>
      <trkpt lat="42.50224" lon="2.59947">
        <ele>1224.4000244141</ele>
        <time>2023-07-15T07:36:58.000Z</time>
      </trkpt>
      <trkpt lat="42.50223" lon="2.59945">
        <ele>1224.5999755859</ele>
        <time>2023-07-15T07:36:59.000Z</time>
      </trkpt>
      <trkpt lat="42.50218" lon="2.59939">
        <ele>1225.4000244141</ele>
        <time>2023-07-15T07:37:04.000Z</time>
      </trkpt>
      <trkpt lat="42.50217" lon="2.59937">
        <ele>1225.8000488281</ele>
        <time>2023-07-15T07:37:06.000Z</time>
      </trkpt>
      <trkpt lat="42.50212" lon="2.59931">
        <ele>1226.5999755859</ele>
        <time>2023-07-15T07:37:12.000Z</time>
      </trkpt>
      <trkpt lat="42.50212" lon="2.59929">
        <ele>1226.8000488281</ele>
        <time>2023-07-15T07:37:13.000Z</time>
      </trkpt>
      <trkpt lat="42.50212" lon="2.59927">
        <ele>1227.1999511719</ele>
        <time>2023-07-15T07:37:19.000Z</time>
      </trkpt>
      <trkpt lat="42.50211" lon="2.5992">
        <ele>1227.8000488281</ele>
        <time>2023-07-15T07:37:25.000Z</time>
      </trkpt>
      <trkpt lat="42.5021" lon="2.59919">
        <ele>1228</ele>
        <time>2023-07-15T07:37:26.000Z</time>
      </trkpt>
      <trkpt lat="42.50205" lon="2.5991">
        <ele>1228.5999755859</ele>
        <time>2023-07-15T07:37:33.000Z</time>
      </trkpt>
      <trkpt lat="42.50204" lon="2.59908">
        <ele>1228.8000488281</ele>
        <time>2023-07-15T07:37:36.000Z</time>
      </trkpt>
      <trkpt lat="42.50199" lon="2.59904">
        <ele>1229.5999755859</ele>
        <time>2023-07-15T07:37:41.000Z</time>
      </trkpt>
      <trkpt lat="42.50197" lon="2.59901">
        <ele>1230</ele>
        <time>2023-07-15T07:37:44.000Z</time>
      </trkpt>
      <trkpt lat="42.50193" lon="2.59896">
        <ele>1230.4000244141</ele>
        <time>2023-07-15T07:37:48.000Z</time>
      </trkpt>
      <trkpt lat="42.5019" lon="2.59888">
        <ele>1230.8000488281</ele>
        <time>2023-07-15T07:37:55.000Z</time>
      </trkpt>
      <trkpt lat="42.50189" lon="2.59883">
        <ele>1231</ele>
        <time>2023-07-15T07:38:00.000Z</time>
      </trkpt>
      <trkpt lat="42.50186" lon="2.59879">
        <ele>1231</ele>
        <time>2023-07-15T07:38:03.000Z</time>
      </trkpt>
      <trkpt lat="42.50181" lon="2.59871">
        <ele>1231.4000244141</ele>
        <time>2023-07-15T07:38:09.000Z</time>
      </trkpt>
      <trkpt lat="42.50178" lon="2.59861">
        <ele>1232</ele>
        <time>2023-07-15T07:38:17.000Z</time>
      </trkpt>
      <trkpt lat="42.50178" lon="2.5986">
        <ele>1232</ele>
        <time>2023-07-15T07:38:18.000Z</time>
      </trkpt>
      <trkpt lat="42.50175" lon="2.59854">
        <ele>1232.5999755859</ele>
        <time>2023-07-15T07:38:23.000Z</time>
      </trkpt>
      <trkpt lat="42.50171" lon="2.59848">
        <ele>1233.1999511719</ele>
        <time>2023-07-15T07:38:29.000Z</time>
      </trkpt>
      <trkpt lat="42.50171" lon="2.59846">
        <ele>1233.1999511719</ele>
        <time>2023-07-15T07:38:30.000Z</time>
      </trkpt>
      <trkpt lat="42.50168" lon="2.59839">
        <ele>1233.8000488281</ele>
        <time>2023-07-15T07:38:37.000Z</time>
      </trkpt>
      <trkpt lat="42.50163" lon="2.59829">
        <ele>1234.1999511719</ele>
        <time>2023-07-15T07:38:45.000Z</time>
      </trkpt>
      <trkpt lat="42.50156" lon="2.59815">
        <ele>1234.5999755859</ele>
        <time>2023-07-15T07:38:53.000Z</time>
      </trkpt>
      <trkpt lat="42.50152" lon="2.59807">
        <ele>1234.5999755859</ele>
        <time>2023-07-15T07:39:00.000Z</time>
      </trkpt>
      <trkpt lat="42.50147" lon="2.59796">
        <ele>1234.5999755859</ele>
        <time>2023-07-15T07:39:07.000Z</time>
      </trkpt>
      <trkpt lat="42.50141" lon="2.59787">
        <ele>1235.1999511719</ele>
        <time>2023-07-15T07:39:15.000Z</time>
      </trkpt>
      <trkpt lat="42.50138" lon="2.59779">
        <ele>1235.5999755859</ele>
        <time>2023-07-15T07:39:24.000Z</time>
      </trkpt>
      <trkpt lat="42.50136" lon="2.59772">
        <ele>1235.5999755859</ele>
        <time>2023-07-15T07:39:31.000Z</time>
      </trkpt>
      <trkpt lat="42.50132" lon="2.59761">
        <ele>1236</ele>
        <time>2023-07-15T07:39:39.000Z</time>
      </trkpt>
      <trkpt lat="42.50127" lon="2.59752">
        <ele>1236.4000244141</ele>
        <time>2023-07-15T07:39:45.000Z</time>
      </trkpt>
      <trkpt lat="42.50125" lon="2.59743">
        <ele>1237.1999511719</ele>
        <time>2023-07-15T07:39:52.000Z</time>
      </trkpt>
      <trkpt lat="42.50124" lon="2.5974">
        <ele>1237.4000244141</ele>
        <time>2023-07-15T07:39:55.000Z</time>
      </trkpt>
      <trkpt lat="42.50122" lon="2.59735">
        <ele>1237.5999755859</ele>
        <time>2023-07-15T07:39:59.000Z</time>
      </trkpt>
      <trkpt lat="42.50122" lon="2.59725">
        <ele>1238</ele>
        <time>2023-07-15T07:40:07.000Z</time>
      </trkpt>
      <trkpt lat="42.50123" lon="2.59714">
        <ele>1238.1999511719</ele>
        <time>2023-07-15T07:40:13.000Z</time>
      </trkpt>
      <trkpt lat="42.50122" lon="2.59701">
        <ele>1238.4000244141</ele>
        <time>2023-07-15T07:40:21.000Z</time>
      </trkpt>
      <trkpt lat="42.5012" lon="2.59686">
        <ele>1239</ele>
        <time>2023-07-15T07:40:29.000Z</time>
      </trkpt>
      <trkpt lat="42.50118" lon="2.59679">
        <ele>1239.4000244141</ele>
        <time>2023-07-15T07:40:33.000Z</time>
      </trkpt>
      <trkpt lat="42.50116" lon="2.59671">
        <ele>1239.8000488281</ele>
        <time>2023-07-15T07:40:39.000Z</time>
      </trkpt>
      <trkpt lat="42.50115" lon="2.59658">
        <ele>1240.4000244141</ele>
        <time>2023-07-15T07:40:48.000Z</time>
      </trkpt>
      <trkpt lat="42.50115" lon="2.59656">
        <ele>1240.5999755859</ele>
        <time>2023-07-15T07:40:49.000Z</time>
      </trkpt>
      <trkpt lat="42.50115" lon="2.59645">
        <ele>1241</ele>
        <time>2023-07-15T07:40:56.000Z</time>
      </trkpt>
      <trkpt lat="42.50117" lon="2.59635">
        <ele>1240.8000488281</ele>
        <time>2023-07-15T07:41:03.000Z</time>
      </trkpt>
      <trkpt lat="42.50118" lon="2.59622">
        <ele>1240</ele>
        <time>2023-07-15T07:41:12.000Z</time>
      </trkpt>
      <trkpt lat="42.50119" lon="2.59611">
        <ele>1239.4000244141</ele>
        <time>2023-07-15T07:41:19.000Z</time>
      </trkpt>
      <trkpt lat="42.5012" lon="2.59607">
        <ele>1239.1999511719</ele>
        <time>2023-07-15T07:41:22.000Z</time>
      </trkpt>
      <trkpt lat="42.50122" lon="2.59597">
        <ele>1240.4000244141</ele>
        <time>2023-07-15T07:41:31.000Z</time>
      </trkpt>
      <trkpt lat="42.50128" lon="2.59585">
        <ele>1241.4000244141</ele>
        <time>2023-07-15T07:41:39.000Z</time>
      </trkpt>
      <trkpt lat="42.50129" lon="2.59583">
        <ele>1241.4000244141</ele>
        <time>2023-07-15T07:41:41.000Z</time>
      </trkpt>
      <trkpt lat="42.50132" lon="2.59577">
        <ele>1242.1999511719</ele>
        <time>2023-07-15T07:41:46.000Z</time>
      </trkpt>
      <trkpt lat="42.50133" lon="2.59575">
        <ele>1242.4000244141</ele>
        <time>2023-07-15T07:41:48.000Z</time>
      </trkpt>
      <trkpt lat="42.50137" lon="2.59569">
        <ele>1242.8000488281</ele>
        <time>2023-07-15T07:41:55.000Z</time>
      </trkpt>
      <trkpt lat="42.5014" lon="2.59558">
        <ele>1243.5999755859</ele>
        <time>2023-07-15T07:42:02.000Z</time>
      </trkpt>
      <trkpt lat="42.5014" lon="2.59558">
        <ele>1243.8000488281</ele>
        <time>2023-07-15T07:42:03.000Z</time>
      </trkpt>
      <trkpt lat="42.50139" lon="2.59556">
        <ele>1244.4000244141</ele>
        <time>2023-07-15T07:42:06.000Z</time>
      </trkpt>
      <trkpt lat="42.50139" lon="2.59555">
        <ele>1244.5999755859</ele>
        <time>2023-07-15T07:42:07.000Z</time>
      </trkpt>
      <trkpt lat="42.50138" lon="2.5955">
        <ele>1244.8000488281</ele>
        <time>2023-07-15T07:42:10.000Z</time>
      </trkpt>
      <trkpt lat="42.50136" lon="2.59549">
        <ele>1245</ele>
        <time>2023-07-15T07:42:19.000Z</time>
      </trkpt>
      <trkpt lat="42.50136" lon="2.5955">
        <ele>1244.8000488281</ele>
        <time>2023-07-15T07:42:27.000Z</time>
      </trkpt>
      <trkpt lat="42.50138" lon="2.59545">
        <ele>1245.5999755859</ele>
        <time>2023-07-15T07:42:35.000Z</time>
      </trkpt>
      <trkpt lat="42.50138" lon="2.59545">
        <ele>1245.8000488281</ele>
        <time>2023-07-15T07:42:36.000Z</time>
      </trkpt>
      <trkpt lat="42.5014" lon="2.59542">
        <ele>1247</ele>
        <time>2023-07-15T07:42:41.000Z</time>
      </trkpt>
      <trkpt lat="42.5014" lon="2.59541">
        <ele>1247.1999511719</ele>
        <time>2023-07-15T07:42:42.000Z</time>
      </trkpt>
      <trkpt lat="42.50142" lon="2.59536">
        <ele>1248.1999511719</ele>
        <time>2023-07-15T07:42:47.000Z</time>
      </trkpt>
      <trkpt lat="42.50142" lon="2.59534">
        <ele>1249.1999511719</ele>
        <time>2023-07-15T07:42:52.000Z</time>
      </trkpt>
      <trkpt lat="42.50142" lon="2.5953">
        <ele>1250.4000244141</ele>
        <time>2023-07-15T07:42:58.000Z</time>
      </trkpt>
      <trkpt lat="42.50143" lon="2.59529">
        <ele>1250.4000244141</ele>
        <time>2023-07-15T07:42:59.000Z</time>
      </trkpt>
      <trkpt lat="42.50143" lon="2.59523">
        <ele>1251.4000244141</ele>
        <time>2023-07-15T07:43:04.000Z</time>
      </trkpt>
      <trkpt lat="42.50142" lon="2.5952">
        <ele>1252</ele>
        <time>2023-07-15T07:43:07.000Z</time>
      </trkpt>
      <trkpt lat="42.50143" lon="2.59518">
        <ele>1252.4000244141</ele>
        <time>2023-07-15T07:43:09.000Z</time>
      </trkpt>
      <trkpt lat="42.50146" lon="2.59513">
        <ele>1253.4000244141</ele>
        <time>2023-07-15T07:43:16.000Z</time>
      </trkpt>
      <trkpt lat="42.50147" lon="2.59512">
        <ele>1253.5999755859</ele>
        <time>2023-07-15T07:43:17.000Z</time>
      </trkpt>
      <trkpt lat="42.50151" lon="2.59505">
        <ele>1254.4000244141</ele>
        <time>2023-07-15T07:43:24.000Z</time>
      </trkpt>
      <trkpt lat="42.50152" lon="2.59504">
        <ele>1254.5999755859</ele>
        <time>2023-07-15T07:43:26.000Z</time>
      </trkpt>
      <trkpt lat="42.50154" lon="2.595">
        <ele>1255.1999511719</ele>
        <time>2023-07-15T07:43:31.000Z</time>
      </trkpt>
      <trkpt lat="42.50156" lon="2.59498">
        <ele>1255.5999755859</ele>
        <time>2023-07-15T07:43:34.000Z</time>
      </trkpt>
      <trkpt lat="42.50158" lon="2.59495">
        <ele>1256.5999755859</ele>
        <time>2023-07-15T07:43:38.000Z</time>
      </trkpt>
      <trkpt lat="42.50159" lon="2.59492">
        <ele>1256.8000488281</ele>
        <time>2023-07-15T07:43:40.000Z</time>
      </trkpt>
      <trkpt lat="42.50158" lon="2.59486">
        <ele>1257.8000488281</ele>
        <time>2023-07-15T07:43:46.000Z</time>
      </trkpt>
      <trkpt lat="42.50158" lon="2.59481">
        <ele>1259</ele>
        <time>2023-07-15T07:43:52.000Z</time>
      </trkpt>
      <trkpt lat="42.50159" lon="2.59479">
        <ele>1259</ele>
        <time>2023-07-15T07:43:53.000Z</time>
      </trkpt>
      <trkpt lat="42.50161" lon="2.59472">
        <ele>1260.1999511719</ele>
        <time>2023-07-15T07:43:59.000Z</time>
      </trkpt>
      <trkpt lat="42.50163" lon="2.59467">
        <ele>1261.1999511719</ele>
        <time>2023-07-15T07:44:06.000Z</time>
      </trkpt>
      <trkpt lat="42.50165" lon="2.59465">
        <ele>1261.5999755859</ele>
        <time>2023-07-15T07:44:08.000Z</time>
      </trkpt>
      <trkpt lat="42.50167" lon="2.59462">
        <ele>1262.4000244141</ele>
        <time>2023-07-15T07:44:13.000Z</time>
      </trkpt>
      <trkpt lat="42.50168" lon="2.59459">
        <ele>1262.5999755859</ele>
        <time>2023-07-15T07:44:16.000Z</time>
      </trkpt>
      <trkpt lat="42.50173" lon="2.59455">
        <ele>1263.4000244141</ele>
        <time>2023-07-15T07:44:22.000Z</time>
      </trkpt>
      <trkpt lat="42.50174" lon="2.59453">
        <ele>1263.8000488281</ele>
        <time>2023-07-15T07:44:24.000Z</time>
      </trkpt>
      <trkpt lat="42.50176" lon="2.59449">
        <ele>1264.4000244141</ele>
        <time>2023-07-15T07:44:28.000Z</time>
      </trkpt>
      <trkpt lat="42.50177" lon="2.59446">
        <ele>1264.8000488281</ele>
        <time>2023-07-15T07:44:31.000Z</time>
      </trkpt>
      <trkpt lat="42.50179" lon="2.59441">
        <ele>1265.5999755859</ele>
        <time>2023-07-15T07:44:35.000Z</time>
      </trkpt>
      <trkpt lat="42.50179" lon="2.5944">
        <ele>1266</ele>
        <time>2023-07-15T07:44:37.000Z</time>
      </trkpt>
      <trkpt lat="42.5018" lon="2.59435">
        <ele>1266.8000488281</ele>
        <time>2023-07-15T07:44:43.000Z</time>
      </trkpt>
      <trkpt lat="42.5018" lon="2.59434">
        <ele>1267</ele>
        <time>2023-07-15T07:44:45.000Z</time>
      </trkpt>
      <trkpt lat="42.5018" lon="2.59429">
        <ele>1267.8000488281</ele>
        <time>2023-07-15T07:44:50.000Z</time>
      </trkpt>
      <trkpt lat="42.5018" lon="2.59425">
        <ele>1268.1999511719</ele>
        <time>2023-07-15T07:44:53.000Z</time>
      </trkpt>
      <trkpt lat="42.50181" lon="2.59422">
        <ele>1269</ele>
        <time>2023-07-15T07:44:57.000Z</time>
      </trkpt>
      <trkpt lat="42.50182" lon="2.59419">
        <ele>1269.5999755859</ele>
        <time>2023-07-15T07:45:01.000Z</time>
      </trkpt>
      <trkpt lat="42.50183" lon="2.59418">
        <ele>1270</ele>
        <time>2023-07-15T07:45:03.000Z</time>
      </trkpt>
      <trkpt lat="42.50188" lon="2.59411">
        <ele>1270.8000488281</ele>
        <time>2023-07-15T07:45:09.000Z</time>
      </trkpt>
      <trkpt lat="42.50189" lon="2.59408">
        <ele>1271</ele>
        <time>2023-07-15T07:45:11.000Z</time>
      </trkpt>
      <trkpt lat="42.50189" lon="2.59403">
        <ele>1271.8000488281</ele>
        <time>2023-07-15T07:45:17.000Z</time>
      </trkpt>
      <trkpt lat="42.50189" lon="2.59401">
        <ele>1272</ele>
        <time>2023-07-15T07:45:20.000Z</time>
      </trkpt>
      <trkpt lat="42.5019" lon="2.59396">
        <ele>1272.8000488281</ele>
        <time>2023-07-15T07:45:25.000Z</time>
      </trkpt>
      <trkpt lat="42.50191" lon="2.59395">
        <ele>1273.1999511719</ele>
        <time>2023-07-15T07:45:27.000Z</time>
      </trkpt>
      <trkpt lat="42.50193" lon="2.59389">
        <ele>1273.8000488281</ele>
        <time>2023-07-15T07:45:33.000Z</time>
      </trkpt>
      <trkpt lat="42.50194" lon="2.59384">
        <ele>1274.1999511719</ele>
        <time>2023-07-15T07:45:36.000Z</time>
      </trkpt>
      <trkpt lat="42.50194" lon="2.59383">
        <ele>1274.8000488281</ele>
        <time>2023-07-15T07:45:40.000Z</time>
      </trkpt>
      <trkpt lat="42.50194" lon="2.59379">
        <ele>1275.1999511719</ele>
        <time>2023-07-15T07:45:44.000Z</time>
      </trkpt>
      <trkpt lat="42.50194" lon="2.59376">
        <ele>1275.5999755859</ele>
        <time>2023-07-15T07:45:46.000Z</time>
      </trkpt>
      <trkpt lat="42.50196" lon="2.5937">
        <ele>1276.4000244141</ele>
        <time>2023-07-15T07:45:52.000Z</time>
      </trkpt>
      <trkpt lat="42.50197" lon="2.59362">
        <ele>1277.5999755859</ele>
        <time>2023-07-15T07:45:59.000Z</time>
      </trkpt>
      <trkpt lat="42.50197" lon="2.59358">
        <ele>1278.1999511719</ele>
        <time>2023-07-15T07:46:02.000Z</time>
      </trkpt>
      <trkpt lat="42.50197" lon="2.59352">
        <ele>1278.5999755859</ele>
        <time>2023-07-15T07:46:06.000Z</time>
      </trkpt>
      <trkpt lat="42.50197" lon="2.5935">
        <ele>1279</ele>
        <time>2023-07-15T07:46:08.000Z</time>
      </trkpt>
      <trkpt lat="42.50196" lon="2.59346">
        <ele>1279.5999755859</ele>
        <time>2023-07-15T07:46:13.000Z</time>
      </trkpt>
      <trkpt lat="42.50196" lon="2.59343">
        <ele>1280.1999511719</ele>
        <time>2023-07-15T07:46:16.000Z</time>
      </trkpt>
      <trkpt lat="42.50194" lon="2.59339">
        <ele>1280.8000488281</ele>
        <time>2023-07-15T07:46:21.000Z</time>
      </trkpt>
      <trkpt lat="42.50193" lon="2.59335">
        <ele>1281.1999511719</ele>
        <time>2023-07-15T07:46:24.000Z</time>
      </trkpt>
      <trkpt lat="42.50194" lon="2.59328">
        <ele>1281.8000488281</ele>
        <time>2023-07-15T07:46:29.000Z</time>
      </trkpt>
      <trkpt lat="42.50195" lon="2.59325">
        <ele>1282.5999755859</ele>
        <time>2023-07-15T07:46:33.000Z</time>
      </trkpt>
      <trkpt lat="42.50196" lon="2.59322">
        <ele>1283</ele>
        <time>2023-07-15T07:46:36.000Z</time>
      </trkpt>
      <trkpt lat="42.50197" lon="2.59316">
        <ele>1284</ele>
        <time>2023-07-15T07:46:42.000Z</time>
      </trkpt>
      <trkpt lat="42.50198" lon="2.59313">
        <ele>1284.4000244141</ele>
        <time>2023-07-15T07:46:44.000Z</time>
      </trkpt>
      <trkpt lat="42.50198" lon="2.5931">
        <ele>1285.1999511719</ele>
        <time>2023-07-15T07:46:50.000Z</time>
      </trkpt>
      <trkpt lat="42.50195" lon="2.59299">
        <ele>1286.1999511719</ele>
        <time>2023-07-15T07:46:58.000Z</time>
      </trkpt>
      <trkpt lat="42.50195" lon="2.59297">
        <ele>1286.1999511719</ele>
        <time>2023-07-15T07:46:59.000Z</time>
      </trkpt>
      <trkpt lat="42.50195" lon="2.5929">
        <ele>1287.4000244141</ele>
        <time>2023-07-15T07:47:06.000Z</time>
      </trkpt>
      <trkpt lat="42.50195" lon="2.59288">
        <ele>1287.4000244141</ele>
        <time>2023-07-15T07:47:07.000Z</time>
      </trkpt>
      <trkpt lat="42.50195" lon="2.59278">
        <ele>1288.1999511719</ele>
        <time>2023-07-15T07:47:16.000Z</time>
      </trkpt>
      <trkpt lat="42.50194" lon="2.59276">
        <ele>1288.4000244141</ele>
        <time>2023-07-15T07:47:18.000Z</time>
      </trkpt>
      <trkpt lat="42.50194" lon="2.5927">
        <ele>1289.1999511719</ele>
        <time>2023-07-15T07:47:24.000Z</time>
      </trkpt>
      <trkpt lat="42.50194" lon="2.59266">
        <ele>1289.4000244141</ele>
        <time>2023-07-15T07:47:27.000Z</time>
      </trkpt>
      <trkpt lat="42.50193" lon="2.59259">
        <ele>1289.5999755859</ele>
        <time>2023-07-15T07:47:32.000Z</time>
      </trkpt>
      <trkpt lat="42.50194" lon="2.5925">
        <ele>1290</ele>
        <time>2023-07-15T07:47:40.000Z</time>
      </trkpt>
      <trkpt lat="42.50195" lon="2.59241">
        <ele>1290.5999755859</ele>
        <time>2023-07-15T07:47:46.000Z</time>
      </trkpt>
      <trkpt lat="42.50195" lon="2.59239">
        <ele>1290.8000488281</ele>
        <time>2023-07-15T07:47:48.000Z</time>
      </trkpt>
      <trkpt lat="42.50193" lon="2.59233">
        <ele>1291.1999511719</ele>
        <time>2023-07-15T07:47:55.000Z</time>
      </trkpt>
      <trkpt lat="42.50192" lon="2.59223">
        <ele>1291.8000488281</ele>
        <time>2023-07-15T07:48:01.000Z</time>
      </trkpt>
      <trkpt lat="42.50192" lon="2.59221">
        <ele>1292</ele>
        <time>2023-07-15T07:48:03.000Z</time>
      </trkpt>
      <trkpt lat="42.50191" lon="2.59214">
        <ele>1292.8000488281</ele>
        <time>2023-07-15T07:48:08.000Z</time>
      </trkpt>
      <trkpt lat="42.50191" lon="2.59209">
        <ele>1293.5999755859</ele>
        <time>2023-07-15T07:48:12.000Z</time>
      </trkpt>
      <trkpt lat="42.50191" lon="2.59208">
        <ele>1294</ele>
        <time>2023-07-15T07:48:14.000Z</time>
      </trkpt>
      <trkpt lat="42.50188" lon="2.59198">
        <ele>1294.8000488281</ele>
        <time>2023-07-15T07:48:21.000Z</time>
      </trkpt>
      <trkpt lat="42.50187" lon="2.59196">
        <ele>1295</ele>
        <time>2023-07-15T07:48:23.000Z</time>
      </trkpt>
      <trkpt lat="42.50185" lon="2.59194">
        <ele>1295.5999755859</ele>
        <time>2023-07-15T07:48:28.000Z</time>
      </trkpt>
      <trkpt lat="42.50185" lon="2.59189">
        <ele>1296</ele>
        <time>2023-07-15T07:48:31.000Z</time>
      </trkpt>
      <trkpt lat="42.50183" lon="2.59182">
        <ele>1296.8000488281</ele>
        <time>2023-07-15T07:48:36.000Z</time>
      </trkpt>
      <trkpt lat="42.50182" lon="2.59179">
        <ele>1297.1999511719</ele>
        <time>2023-07-15T07:48:38.000Z</time>
      </trkpt>
      <trkpt lat="42.50181" lon="2.59173">
        <ele>1298.1999511719</ele>
        <time>2023-07-15T07:48:44.000Z</time>
      </trkpt>
      <trkpt lat="42.50181" lon="2.59173">
        <ele>1298.4000244141</ele>
        <time>2023-07-15T07:48:45.000Z</time>
      </trkpt>
      <trkpt lat="42.50178" lon="2.59169">
        <ele>1299.4000244141</ele>
        <time>2023-07-15T07:48:52.000Z</time>
      </trkpt>
      <trkpt lat="42.50174" lon="2.59162">
        <ele>1300.4000244141</ele>
        <time>2023-07-15T07:48:58.000Z</time>
      </trkpt>
      <trkpt lat="42.50174" lon="2.59161">
        <ele>1300.5999755859</ele>
        <time>2023-07-15T07:49:00.000Z</time>
      </trkpt>
      <trkpt lat="42.50173" lon="2.59158">
        <ele>1301.5999755859</ele>
        <time>2023-07-15T07:49:05.000Z</time>
      </trkpt>
      <trkpt lat="42.50173" lon="2.59154">
        <ele>1302</ele>
        <time>2023-07-15T07:49:08.000Z</time>
      </trkpt>
      <trkpt lat="42.50173" lon="2.59151">
        <ele>1302.8000488281</ele>
        <time>2023-07-15T07:49:12.000Z</time>
      </trkpt>
      <trkpt lat="42.50174" lon="2.59145">
        <ele>1303.8000488281</ele>
        <time>2023-07-15T07:49:17.000Z</time>
      </trkpt>
      <trkpt lat="42.50174" lon="2.59144">
        <ele>1304</ele>
        <time>2023-07-15T07:49:18.000Z</time>
      </trkpt>
      <trkpt lat="42.50176" lon="2.59136">
        <ele>1305</ele>
        <time>2023-07-15T07:49:26.000Z</time>
      </trkpt>
      <trkpt lat="42.50176" lon="2.59136">
        <ele>1305.1999511719</ele>
        <time>2023-07-15T07:49:27.000Z</time>
      </trkpt>
      <trkpt lat="42.50177" lon="2.59128">
        <ele>1306</ele>
        <time>2023-07-15T07:49:34.000Z</time>
      </trkpt>
      <trkpt lat="42.50176" lon="2.59126">
        <ele>1306.4000244141</ele>
        <time>2023-07-15T07:49:36.000Z</time>
      </trkpt>
      <trkpt lat="42.50175" lon="2.59124">
        <ele>1307.1999511719</ele>
        <time>2023-07-15T07:49:41.000Z</time>
      </trkpt>
      <trkpt lat="42.50179" lon="2.59117">
        <ele>1308.1999511719</ele>
        <time>2023-07-15T07:49:47.000Z</time>
      </trkpt>
      <trkpt lat="42.50185" lon="2.59108">
        <ele>1309.1999511719</ele>
        <time>2023-07-15T07:49:56.000Z</time>
      </trkpt>
      <trkpt lat="42.50185" lon="2.59103">
        <ele>1309.4000244141</ele>
        <time>2023-07-15T07:50:00.000Z</time>
      </trkpt>
      <trkpt lat="42.50184" lon="2.59093">
        <ele>1310.4000244141</ele>
        <time>2023-07-15T07:50:08.000Z</time>
      </trkpt>
      <trkpt lat="42.50184" lon="2.59092">
        <ele>1310.5999755859</ele>
        <time>2023-07-15T07:50:09.000Z</time>
      </trkpt>
      <trkpt lat="42.50182" lon="2.59088">
        <ele>1311.5999755859</ele>
        <time>2023-07-15T07:50:13.000Z</time>
      </trkpt>
      <trkpt lat="42.50182" lon="2.59082">
        <ele>1312.1999511719</ele>
        <time>2023-07-15T07:50:18.000Z</time>
      </trkpt>
      <trkpt lat="42.50183" lon="2.59077">
        <ele>1312.5999755859</ele>
        <time>2023-07-15T07:50:22.000Z</time>
      </trkpt>
      <trkpt lat="42.50185" lon="2.5907">
        <ele>1313.4000244141</ele>
        <time>2023-07-15T07:50:28.000Z</time>
      </trkpt>
      <trkpt lat="42.50185" lon="2.59067">
        <ele>1313.8000488281</ele>
        <time>2023-07-15T07:50:31.000Z</time>
      </trkpt>
      <trkpt lat="42.50186" lon="2.5906">
        <ele>1314.5999755859</ele>
        <time>2023-07-15T07:50:37.000Z</time>
      </trkpt>
      <trkpt lat="42.50186" lon="2.5906">
        <ele>1314.8000488281</ele>
        <time>2023-07-15T07:50:38.000Z</time>
      </trkpt>
      <trkpt lat="42.50183" lon="2.59056">
        <ele>1315.8000488281</ele>
        <time>2023-07-15T07:50:44.000Z</time>
      </trkpt>
      <trkpt lat="42.50182" lon="2.59056">
        <ele>1316</ele>
        <time>2023-07-15T07:50:45.000Z</time>
      </trkpt>
      <trkpt lat="42.50182" lon="2.5905">
        <ele>1317</ele>
        <time>2023-07-15T07:50:51.000Z</time>
      </trkpt>
      <trkpt lat="42.50182" lon="2.59047">
        <ele>1317.5999755859</ele>
        <time>2023-07-15T07:50:54.000Z</time>
      </trkpt>
      <trkpt lat="42.50183" lon="2.59042">
        <ele>1318</ele>
        <time>2023-07-15T07:50:58.000Z</time>
      </trkpt>
      <trkpt lat="42.50185" lon="2.59037">
        <ele>1318.4000244141</ele>
        <time>2023-07-15T07:51:02.000Z</time>
      </trkpt>
      <trkpt lat="42.50186" lon="2.59031">
        <ele>1319.1999511719</ele>
        <time>2023-07-15T07:51:07.000Z</time>
      </trkpt>
      <trkpt lat="42.50186" lon="2.59028">
        <ele>1319.5999755859</ele>
        <time>2023-07-15T07:51:09.000Z</time>
      </trkpt>
      <trkpt lat="42.50187" lon="2.5902">
        <ele>1320.1999511719</ele>
        <time>2023-07-15T07:51:14.000Z</time>
      </trkpt>
      <trkpt lat="42.50188" lon="2.59017">
        <ele>1320.5999755859</ele>
        <time>2023-07-15T07:51:16.000Z</time>
      </trkpt>
      <trkpt lat="42.50187" lon="2.59013">
        <ele>1321.1999511719</ele>
        <time>2023-07-15T07:51:22.000Z</time>
      </trkpt>
      <trkpt lat="42.50187" lon="2.59012">
        <ele>1321.4000244141</ele>
        <time>2023-07-15T07:51:23.000Z</time>
      </trkpt>
      <trkpt lat="42.50189" lon="2.59009">
        <ele>1322.5999755859</ele>
        <time>2023-07-15T07:51:29.000Z</time>
      </trkpt>
      <trkpt lat="42.5019" lon="2.59008">
        <ele>1322.5999755859</ele>
        <time>2023-07-15T07:51:30.000Z</time>
      </trkpt>
      <trkpt lat="42.50193" lon="2.58998">
        <ele>1322.8000488281</ele>
        <time>2023-07-15T07:51:37.000Z</time>
      </trkpt>
      <trkpt lat="42.50196" lon="2.58992">
        <ele>1323.5999755859</ele>
        <time>2023-07-15T07:51:41.000Z</time>
      </trkpt>
      <trkpt lat="42.50197" lon="2.58988">
        <ele>1324</ele>
        <time>2023-07-15T07:51:44.000Z</time>
      </trkpt>
      <trkpt lat="42.50197" lon="2.58986">
        <ele>1324.5999755859</ele>
        <time>2023-07-15T07:51:47.000Z</time>
      </trkpt>
      <trkpt lat="42.50197" lon="2.58982">
        <ele>1325.5999755859</ele>
        <time>2023-07-15T07:51:52.000Z</time>
      </trkpt>
      <trkpt lat="42.50196" lon="2.58981">
        <ele>1325.8000488281</ele>
        <time>2023-07-15T07:51:53.000Z</time>
      </trkpt>
      <trkpt lat="42.50195" lon="2.58979">
        <ele>1326</ele>
        <time>2023-07-15T07:52:02.000Z</time>
      </trkpt>
      <trkpt lat="42.50198" lon="2.58971">
        <ele>1326</ele>
        <time>2023-07-15T07:52:08.000Z</time>
      </trkpt>
      <trkpt lat="42.50201" lon="2.58964">
        <ele>1326.5999755859</ele>
        <time>2023-07-15T07:52:16.000Z</time>
      </trkpt>
      <trkpt lat="42.50202" lon="2.58959">
        <ele>1326.8000488281</ele>
        <time>2023-07-15T07:52:19.000Z</time>
      </trkpt>
      <trkpt lat="42.50203" lon="2.58951">
        <ele>1327</ele>
        <time>2023-07-15T07:52:26.000Z</time>
      </trkpt>
      <trkpt lat="42.50205" lon="2.58941">
        <ele>1327.1999511719</ele>
        <time>2023-07-15T07:52:32.000Z</time>
      </trkpt>
      <trkpt lat="42.50206" lon="2.58938">
        <ele>1327.8000488281</ele>
        <time>2023-07-15T07:52:36.000Z</time>
      </trkpt>
      <trkpt lat="42.50206" lon="2.58935">
        <ele>1328.1999511719</ele>
        <time>2023-07-15T07:52:39.000Z</time>
      </trkpt>
      <trkpt lat="42.50207" lon="2.58927">
        <ele>1329</ele>
        <time>2023-07-15T07:52:46.000Z</time>
      </trkpt>
      <trkpt lat="42.50207" lon="2.58924">
        <ele>1329.1999511719</ele>
        <time>2023-07-15T07:52:48.000Z</time>
      </trkpt>
      <trkpt lat="42.50209" lon="2.58918">
        <ele>1330</ele>
        <time>2023-07-15T07:52:52.000Z</time>
      </trkpt>
      <trkpt lat="42.50211" lon="2.58914">
        <ele>1330.5999755859</ele>
        <time>2023-07-15T07:52:56.000Z</time>
      </trkpt>
      <trkpt lat="42.50214" lon="2.58905">
        <ele>1331</ele>
        <time>2023-07-15T07:53:02.000Z</time>
      </trkpt>
      <trkpt lat="42.50214" lon="2.58904">
        <ele>1331.1999511719</ele>
        <time>2023-07-15T07:53:03.000Z</time>
      </trkpt>
      <trkpt lat="42.50218" lon="2.58891">
        <ele>1331.8000488281</ele>
        <time>2023-07-15T07:53:11.000Z</time>
      </trkpt>
      <trkpt lat="42.50219" lon="2.58887">
        <ele>1332.1999511719</ele>
        <time>2023-07-15T07:53:14.000Z</time>
      </trkpt>
      <trkpt lat="42.5022" lon="2.58883">
        <ele>1332.8000488281</ele>
        <time>2023-07-15T07:53:20.000Z</time>
      </trkpt>
      <trkpt lat="42.5022" lon="2.58881">
        <ele>1333.4000244141</ele>
        <time>2023-07-15T07:53:22.000Z</time>
      </trkpt>
      <trkpt lat="42.50223" lon="2.58874">
        <ele>1334.4000244141</ele>
        <time>2023-07-15T07:53:27.000Z</time>
      </trkpt>
      <trkpt lat="42.50223" lon="2.58872">
        <ele>1334.4000244141</ele>
        <time>2023-07-15T07:53:29.000Z</time>
      </trkpt>
      <trkpt lat="42.5023" lon="2.58863">
        <ele>1335</ele>
        <time>2023-07-15T07:53:36.000Z</time>
      </trkpt>
      <trkpt lat="42.50233" lon="2.58861">
        <ele>1335.4000244141</ele>
        <time>2023-07-15T07:53:40.000Z</time>
      </trkpt>
      <trkpt lat="42.50237" lon="2.58858">
        <ele>1336</ele>
        <time>2023-07-15T07:53:44.000Z</time>
      </trkpt>
      <trkpt lat="42.5024" lon="2.58855">
        <ele>1336.5999755859</ele>
        <time>2023-07-15T07:53:48.000Z</time>
      </trkpt>
      <trkpt lat="42.50241" lon="2.58852">
        <ele>1336.8000488281</ele>
        <time>2023-07-15T07:53:51.000Z</time>
      </trkpt>
      <trkpt lat="42.50247" lon="2.58846">
        <ele>1337.5999755859</ele>
        <time>2023-07-15T07:53:57.000Z</time>
      </trkpt>
      <trkpt lat="42.50249" lon="2.58843">
        <ele>1338.1999511719</ele>
        <time>2023-07-15T07:54:00.000Z</time>
      </trkpt>
      <trkpt lat="42.50251" lon="2.58838">
        <ele>1338.8000488281</ele>
        <time>2023-07-15T07:54:04.000Z</time>
      </trkpt>
      <trkpt lat="42.50252" lon="2.58835">
        <ele>1339.1999511719</ele>
        <time>2023-07-15T07:54:07.000Z</time>
      </trkpt>
      <trkpt lat="42.50255" lon="2.58831">
        <ele>1339.8000488281</ele>
        <time>2023-07-15T07:54:11.000Z</time>
      </trkpt>
      <trkpt lat="42.50258" lon="2.58828">
        <ele>1340.1999511719</ele>
        <time>2023-07-15T07:54:14.000Z</time>
      </trkpt>
      <trkpt lat="42.50263" lon="2.58824">
        <ele>1340.8000488281</ele>
        <time>2023-07-15T07:54:20.000Z</time>
      </trkpt>
      <trkpt lat="42.50264" lon="2.58823">
        <ele>1341</ele>
        <time>2023-07-15T07:54:21.000Z</time>
      </trkpt>
      <trkpt lat="42.5027" lon="2.58819">
        <ele>1341.8000488281</ele>
        <time>2023-07-15T07:54:27.000Z</time>
      </trkpt>
      <trkpt lat="42.5027" lon="2.58816">
        <ele>1342.4000244141</ele>
        <time>2023-07-15T07:54:30.000Z</time>
      </trkpt>
      <trkpt lat="42.50273" lon="2.58812">
        <ele>1343</ele>
        <time>2023-07-15T07:54:33.000Z</time>
      </trkpt>
      <trkpt lat="42.50276" lon="2.58807">
        <ele>1343.8000488281</ele>
        <time>2023-07-15T07:54:38.000Z</time>
      </trkpt>
      <trkpt lat="42.50276" lon="2.58806">
        <ele>1344</ele>
        <time>2023-07-15T07:54:39.000Z</time>
      </trkpt>
      <trkpt lat="42.50282" lon="2.588">
        <ele>1345</ele>
        <time>2023-07-15T07:54:46.000Z</time>
      </trkpt>
      <trkpt lat="42.50282" lon="2.58799">
        <ele>1345</ele>
        <time>2023-07-15T07:54:47.000Z</time>
      </trkpt>
      <trkpt lat="42.50289" lon="2.58792">
        <ele>1345.8000488281</ele>
        <time>2023-07-15T07:54:54.000Z</time>
      </trkpt>
      <trkpt lat="42.50289" lon="2.58791">
        <ele>1346</ele>
        <time>2023-07-15T07:54:55.000Z</time>
      </trkpt>
      <trkpt lat="42.50294" lon="2.58784">
        <ele>1346.5999755859</ele>
        <time>2023-07-15T07:55:02.000Z</time>
      </trkpt>
      <trkpt lat="42.50296" lon="2.5878">
        <ele>1347</ele>
        <time>2023-07-15T07:55:05.000Z</time>
      </trkpt>
      <trkpt lat="42.503" lon="2.58774">
        <ele>1347.8000488281</ele>
        <time>2023-07-15T07:55:10.000Z</time>
      </trkpt>
      <trkpt lat="42.50302" lon="2.58771">
        <ele>1348.1999511719</ele>
        <time>2023-07-15T07:55:14.000Z</time>
      </trkpt>
      <trkpt lat="42.50304" lon="2.58769">
        <ele>1348.5999755859</ele>
        <time>2023-07-15T07:55:17.000Z</time>
      </trkpt>
      <trkpt lat="42.50307" lon="2.58766">
        <ele>1349.1999511719</ele>
        <time>2023-07-15T07:55:21.000Z</time>
      </trkpt>
      <trkpt lat="42.5031" lon="2.58764">
        <ele>1349.8000488281</ele>
        <time>2023-07-15T07:55:25.000Z</time>
      </trkpt>
      <trkpt lat="42.50313" lon="2.58763">
        <ele>1350.4000244141</ele>
        <time>2023-07-15T07:55:29.000Z</time>
      </trkpt>
      <trkpt lat="42.50315" lon="2.58762">
        <ele>1350.4000244141</ele>
        <time>2023-07-15T07:55:31.000Z</time>
      </trkpt>
      <trkpt lat="42.50321" lon="2.58758">
        <ele>1351.4000244141</ele>
        <time>2023-07-15T07:55:38.000Z</time>
      </trkpt>
      <trkpt lat="42.50322" lon="2.58757">
        <ele>1351.5999755859</ele>
        <time>2023-07-15T07:55:39.000Z</time>
      </trkpt>
      <trkpt lat="42.50329" lon="2.5875">
        <ele>1352.5999755859</ele>
        <time>2023-07-15T07:55:46.000Z</time>
      </trkpt>
      <trkpt lat="42.50331" lon="2.58746">
        <ele>1353</ele>
        <time>2023-07-15T07:55:49.000Z</time>
      </trkpt>
      <trkpt lat="42.50335" lon="2.58738">
        <ele>1353.5999755859</ele>
        <time>2023-07-15T07:55:53.000Z</time>
      </trkpt>
      <trkpt lat="42.50335" lon="2.58736">
        <ele>1353.8000488281</ele>
        <time>2023-07-15T07:55:54.000Z</time>
      </trkpt>
      <trkpt lat="42.50338" lon="2.58734">
        <ele>1354.5999755859</ele>
        <time>2023-07-15T07:56:00.000Z</time>
      </trkpt>
      <trkpt lat="42.50338" lon="2.58734">
        <ele>1354.8000488281</ele>
        <time>2023-07-15T07:56:01.000Z</time>
      </trkpt>
      <trkpt lat="42.50344" lon="2.5873">
        <ele>1355.8000488281</ele>
        <time>2023-07-15T07:56:07.000Z</time>
      </trkpt>
      <trkpt lat="42.50351" lon="2.58724">
        <ele>1356.8000488281</ele>
        <time>2023-07-15T07:56:15.000Z</time>
      </trkpt>
      <trkpt lat="42.50357" lon="2.58718">
        <ele>1357.5999755859</ele>
        <time>2023-07-15T07:56:22.000Z</time>
      </trkpt>
      <trkpt lat="42.50359" lon="2.58718">
        <ele>1357.8000488281</ele>
        <time>2023-07-15T07:56:24.000Z</time>
      </trkpt>
      <trkpt lat="42.50364" lon="2.58716">
        <ele>1358.5999755859</ele>
        <time>2023-07-15T07:56:30.000Z</time>
      </trkpt>
      <trkpt lat="42.50367" lon="2.58715">
        <ele>1359</ele>
        <time>2023-07-15T07:56:32.000Z</time>
      </trkpt>
      <trkpt lat="42.50369" lon="2.58712">
        <ele>1359.8000488281</ele>
        <time>2023-07-15T07:56:36.000Z</time>
      </trkpt>
      <trkpt lat="42.50371" lon="2.5871">
        <ele>1360.1999511719</ele>
        <time>2023-07-15T07:56:38.000Z</time>
      </trkpt>
      <trkpt lat="42.50376" lon="2.58706">
        <ele>1360.8000488281</ele>
        <time>2023-07-15T07:56:43.000Z</time>
      </trkpt>
      <trkpt lat="42.50379" lon="2.58704">
        <ele>1361.1999511719</ele>
        <time>2023-07-15T07:56:46.000Z</time>
      </trkpt>
      <trkpt lat="42.50384" lon="2.58703">
        <ele>1361.8000488281</ele>
        <time>2023-07-15T07:56:51.000Z</time>
      </trkpt>
      <trkpt lat="42.50389" lon="2.58701">
        <ele>1362.4000244141</ele>
        <time>2023-07-15T07:56:55.000Z</time>
      </trkpt>
      <trkpt lat="42.50393" lon="2.58699">
        <ele>1362.8000488281</ele>
        <time>2023-07-15T07:56:59.000Z</time>
      </trkpt>
      <trkpt lat="42.50395" lon="2.58697">
        <ele>1363.4000244141</ele>
        <time>2023-07-15T07:57:03.000Z</time>
      </trkpt>
      <trkpt lat="42.50397" lon="2.58696">
        <ele>1363.8000488281</ele>
        <time>2023-07-15T07:57:06.000Z</time>
      </trkpt>
      <trkpt lat="42.50404" lon="2.58693">
        <ele>1364.5999755859</ele>
        <time>2023-07-15T07:57:11.000Z</time>
      </trkpt>
      <trkpt lat="42.50407" lon="2.58691">
        <ele>1364.8000488281</ele>
        <time>2023-07-15T07:57:14.000Z</time>
      </trkpt>
      <trkpt lat="42.50411" lon="2.58688">
        <ele>1365.4000244141</ele>
        <time>2023-07-15T07:57:20.000Z</time>
      </trkpt>
      <trkpt lat="42.50414" lon="2.58687">
        <ele>1365.5999755859</ele>
        <time>2023-07-15T07:57:22.000Z</time>
      </trkpt>
      <trkpt lat="42.50422" lon="2.58684">
        <ele>1366.1999511719</ele>
        <time>2023-07-15T07:57:28.000Z</time>
      </trkpt>
      <trkpt lat="42.50427" lon="2.58682">
        <ele>1366.5999755859</ele>
        <time>2023-07-15T07:57:33.000Z</time>
      </trkpt>
      <trkpt lat="42.50429" lon="2.5868">
        <ele>1367</ele>
        <time>2023-07-15T07:57:35.000Z</time>
      </trkpt>
      <trkpt lat="42.50435" lon="2.58676">
        <ele>1367.5999755859</ele>
        <time>2023-07-15T07:57:41.000Z</time>
      </trkpt>
      <trkpt lat="42.50435" lon="2.58677">
        <ele>1367.8000488281</ele>
        <time>2023-07-15T07:57:42.000Z</time>
      </trkpt>
      <trkpt lat="42.50444" lon="2.5868">
        <ele>1368.1999511719</ele>
        <time>2023-07-15T07:57:49.000Z</time>
      </trkpt>
      <trkpt lat="42.50453" lon="2.58679">
        <ele>1368.5999755859</ele>
        <time>2023-07-15T07:57:55.000Z</time>
      </trkpt>
      <trkpt lat="42.50456" lon="2.58678">
        <ele>1368.8000488281</ele>
        <time>2023-07-15T07:57:57.000Z</time>
      </trkpt>
      <trkpt lat="42.50462" lon="2.58676">
        <ele>1370</ele>
        <time>2023-07-15T07:58:03.000Z</time>
      </trkpt>
      <trkpt lat="42.50469" lon="2.58669">
        <ele>1370.5999755859</ele>
        <time>2023-07-15T07:58:11.000Z</time>
      </trkpt>
      <trkpt lat="42.50474" lon="2.58665">
        <ele>1371</ele>
        <time>2023-07-15T07:58:16.000Z</time>
      </trkpt>
      <trkpt lat="42.5048" lon="2.58663">
        <ele>1371.4000244141</ele>
        <time>2023-07-15T07:58:21.000Z</time>
      </trkpt>
      <trkpt lat="42.50484" lon="2.58661">
        <ele>1372.1999511719</ele>
        <time>2023-07-15T07:58:25.000Z</time>
      </trkpt>
      <trkpt lat="42.50489" lon="2.58658">
        <ele>1372.8000488281</ele>
        <time>2023-07-15T07:58:30.000Z</time>
      </trkpt>
      <trkpt lat="42.50493" lon="2.58655">
        <ele>1373.4000244141</ele>
        <time>2023-07-15T07:58:34.000Z</time>
      </trkpt>
      <trkpt lat="42.50499" lon="2.58651">
        <ele>1373.8000488281</ele>
        <time>2023-07-15T07:58:39.000Z</time>
      </trkpt>
      <trkpt lat="42.50506" lon="2.58646">
        <ele>1374.4000244141</ele>
        <time>2023-07-15T07:58:45.000Z</time>
      </trkpt>
      <trkpt lat="42.50508" lon="2.58645">
        <ele>1374.5999755859</ele>
        <time>2023-07-15T07:58:47.000Z</time>
      </trkpt>
      <trkpt lat="42.50515" lon="2.5864">
        <ele>1375.4000244141</ele>
        <time>2023-07-15T07:58:55.000Z</time>
      </trkpt>
      <trkpt lat="42.50516" lon="2.5864">
        <ele>1375.5999755859</ele>
        <time>2023-07-15T07:58:56.000Z</time>
      </trkpt>
      <trkpt lat="42.50523" lon="2.58634">
        <ele>1376.4000244141</ele>
        <time>2023-07-15T07:59:03.000Z</time>
      </trkpt>
      <trkpt lat="42.50524" lon="2.58633">
        <ele>1376.5999755859</ele>
        <time>2023-07-15T07:59:04.000Z</time>
      </trkpt>
      <trkpt lat="42.50529" lon="2.58628">
        <ele>1377.5999755859</ele>
        <time>2023-07-15T07:59:10.000Z</time>
      </trkpt>
      <trkpt lat="42.5053" lon="2.58626">
        <ele>1378</ele>
        <time>2023-07-15T07:59:12.000Z</time>
      </trkpt>
      <trkpt lat="42.50537" lon="2.58621">
        <ele>1378.5999755859</ele>
        <time>2023-07-15T07:59:18.000Z</time>
      </trkpt>
      <trkpt lat="42.5054" lon="2.58619">
        <ele>1379</ele>
        <time>2023-07-15T07:59:21.000Z</time>
      </trkpt>
      <trkpt lat="42.50543" lon="2.58616">
        <ele>1379.8000488281</ele>
        <time>2023-07-15T07:59:25.000Z</time>
      </trkpt>
      <trkpt lat="42.50547" lon="2.58614">
        <ele>1380.4000244141</ele>
        <time>2023-07-15T07:59:30.000Z</time>
      </trkpt>
      <trkpt lat="42.5055" lon="2.58612">
        <ele>1381</ele>
        <time>2023-07-15T07:59:33.000Z</time>
      </trkpt>
      <trkpt lat="42.50556" lon="2.58607">
        <ele>1381.5999755859</ele>
        <time>2023-07-15T07:59:38.000Z</time>
      </trkpt>
      <trkpt lat="42.50558" lon="2.58606">
        <ele>1382</ele>
        <time>2023-07-15T07:59:40.000Z</time>
      </trkpt>
      <trkpt lat="42.50562" lon="2.586">
        <ele>1382.5999755859</ele>
        <time>2023-07-15T07:59:46.000Z</time>
      </trkpt>
      <trkpt lat="42.50564" lon="2.58597">
        <ele>1383</ele>
        <time>2023-07-15T07:59:50.000Z</time>
      </trkpt>
      <trkpt lat="42.50567" lon="2.58594">
        <ele>1383.5999755859</ele>
        <time>2023-07-15T07:59:53.000Z</time>
      </trkpt>
      <trkpt lat="42.5057" lon="2.58591">
        <ele>1384</ele>
        <time>2023-07-15T07:59:56.000Z</time>
      </trkpt>
      <trkpt lat="42.50575" lon="2.58587">
        <ele>1385</ele>
        <time>2023-07-15T08:00:02.000Z</time>
      </trkpt>
      <trkpt lat="42.50576" lon="2.58586">
        <ele>1385</ele>
        <time>2023-07-15T08:00:03.000Z</time>
      </trkpt>
      <trkpt lat="42.50581" lon="2.58578">
        <ele>1385.8000488281</ele>
        <time>2023-07-15T08:00:09.000Z</time>
      </trkpt>
      <trkpt lat="42.50584" lon="2.58575">
        <ele>1386</ele>
        <time>2023-07-15T08:00:11.000Z</time>
      </trkpt>
      <trkpt lat="42.50586" lon="2.58573">
        <ele>1386.5999755859</ele>
        <time>2023-07-15T08:00:15.000Z</time>
      </trkpt>
      <trkpt lat="42.50589" lon="2.58572">
        <ele>1386.5999755859</ele>
        <time>2023-07-15T08:00:22.000Z</time>
      </trkpt>
      <trkpt lat="42.50595" lon="2.58568">
        <ele>1387</ele>
        <time>2023-07-15T08:00:29.000Z</time>
      </trkpt>
      <trkpt lat="42.50598" lon="2.58567">
        <ele>1387</ele>
        <time>2023-07-15T08:00:31.000Z</time>
      </trkpt>
      <trkpt lat="42.50601" lon="2.58565">
        <ele>1387.8000488281</ele>
        <time>2023-07-15T08:00:38.000Z</time>
      </trkpt>
      <trkpt lat="42.50603" lon="2.58567">
        <ele>1388</ele>
        <time>2023-07-15T08:00:47.000Z</time>
      </trkpt>
      <trkpt lat="42.50603" lon="2.58567">
        <ele>1388.1999511719</ele>
        <time>2023-07-15T08:00:49.000Z</time>
      </trkpt>
      <trkpt lat="42.50602" lon="2.58564">
        <ele>1388.1999511719</ele>
        <time>2023-07-15T08:00:58.000Z</time>
      </trkpt>
      <trkpt lat="42.506" lon="2.58563">
        <ele>1388.5999755859</ele>
        <time>2023-07-15T08:01:06.000Z</time>
      </trkpt>
      <trkpt lat="42.50606" lon="2.58559">
        <ele>1389.1999511719</ele>
        <time>2023-07-15T08:01:13.000Z</time>
      </trkpt>
      <trkpt lat="42.50608" lon="2.58559">
        <ele>1389.4000244141</ele>
        <time>2023-07-15T08:01:15.000Z</time>
      </trkpt>
      <trkpt lat="42.50615" lon="2.58555">
        <ele>1390.1999511719</ele>
        <time>2023-07-15T08:01:22.000Z</time>
      </trkpt>
      <trkpt lat="42.50624" lon="2.58551">
        <ele>1391.1999511719</ele>
        <time>2023-07-15T08:01:30.000Z</time>
      </trkpt>
      <trkpt lat="42.50625" lon="2.5855">
        <ele>1391.1999511719</ele>
        <time>2023-07-15T08:01:31.000Z</time>
      </trkpt>
      <trkpt lat="42.50632" lon="2.58548">
        <ele>1392.1999511719</ele>
        <time>2023-07-15T08:01:38.000Z</time>
      </trkpt>
      <trkpt lat="42.50638" lon="2.58546">
        <ele>1393</ele>
        <time>2023-07-15T08:01:45.000Z</time>
      </trkpt>
      <trkpt lat="42.50642" lon="2.58546">
        <ele>1393.4000244141</ele>
        <time>2023-07-15T08:01:48.000Z</time>
      </trkpt>
      <trkpt lat="42.50646" lon="2.58545">
        <ele>1393.5999755859</ele>
        <time>2023-07-15T08:01:51.000Z</time>
      </trkpt>
      <trkpt lat="42.50652" lon="2.58542">
        <ele>1394.4000244141</ele>
        <time>2023-07-15T08:01:56.000Z</time>
      </trkpt>
      <trkpt lat="42.50657" lon="2.58539">
        <ele>1395</ele>
        <time>2023-07-15T08:02:00.000Z</time>
      </trkpt>
      <trkpt lat="42.50661" lon="2.58538">
        <ele>1395.5999755859</ele>
        <time>2023-07-15T08:02:04.000Z</time>
      </trkpt>
      <trkpt lat="42.50666" lon="2.58535">
        <ele>1395.8000488281</ele>
        <time>2023-07-15T08:02:09.000Z</time>
      </trkpt>
      <trkpt lat="42.50673" lon="2.58533">
        <ele>1396.5999755859</ele>
        <time>2023-07-15T08:02:15.000Z</time>
      </trkpt>
      <trkpt lat="42.50674" lon="2.58533">
        <ele>1396.8000488281</ele>
        <time>2023-07-15T08:02:16.000Z</time>
      </trkpt>
      <trkpt lat="42.50684" lon="2.5853">
        <ele>1397.4000244141</ele>
        <time>2023-07-15T08:02:24.000Z</time>
      </trkpt>
      <trkpt lat="42.50686" lon="2.5853">
        <ele>1397.5999755859</ele>
        <time>2023-07-15T08:02:26.000Z</time>
      </trkpt>
      <trkpt lat="42.50691" lon="2.58528">
        <ele>1398.5999755859</ele>
        <time>2023-07-15T08:02:33.000Z</time>
      </trkpt>
      <trkpt lat="42.50692" lon="2.58528">
        <ele>1398.8000488281</ele>
        <time>2023-07-15T08:02:34.000Z</time>
      </trkpt>
      <trkpt lat="42.50702" lon="2.58524">
        <ele>1399.8000488281</ele>
        <time>2023-07-15T08:02:41.000Z</time>
      </trkpt>
      <trkpt lat="42.50703" lon="2.58524">
        <ele>1400</ele>
        <time>2023-07-15T08:02:42.000Z</time>
      </trkpt>
      <trkpt lat="42.50708" lon="2.58523">
        <ele>1400.8000488281</ele>
        <time>2023-07-15T08:02:47.000Z</time>
      </trkpt>
      <trkpt lat="42.50711" lon="2.58524">
        <ele>1401.1999511719</ele>
        <time>2023-07-15T08:02:50.000Z</time>
      </trkpt>
      <trkpt lat="42.50716" lon="2.58522">
        <ele>1401.8000488281</ele>
        <time>2023-07-15T08:02:56.000Z</time>
      </trkpt>
      <trkpt lat="42.50718" lon="2.58521">
        <ele>1402.1999511719</ele>
        <time>2023-07-15T08:02:58.000Z</time>
      </trkpt>
      <trkpt lat="42.50723" lon="2.58517">
        <ele>1403</ele>
        <time>2023-07-15T08:03:03.000Z</time>
      </trkpt>
      <trkpt lat="42.50727" lon="2.58516">
        <ele>1403.5999755859</ele>
        <time>2023-07-15T08:03:07.000Z</time>
      </trkpt>
      <trkpt lat="42.5073" lon="2.58515">
        <ele>1404</ele>
        <time>2023-07-15T08:03:10.000Z</time>
      </trkpt>
      <trkpt lat="42.50732" lon="2.58515">
        <ele>1404.4000244141</ele>
        <time>2023-07-15T08:03:13.000Z</time>
      </trkpt>
      <trkpt lat="42.50739" lon="2.58516">
        <ele>1405.1999511719</ele>
        <time>2023-07-15T08:03:19.000Z</time>
      </trkpt>
      <trkpt lat="42.5074" lon="2.58516">
        <ele>1405.4000244141</ele>
        <time>2023-07-15T08:03:21.000Z</time>
      </trkpt>
      <trkpt lat="42.50748" lon="2.58514">
        <ele>1406.1999511719</ele>
        <time>2023-07-15T08:03:29.000Z</time>
      </trkpt>
      <trkpt lat="42.50755" lon="2.58514">
        <ele>1407.1999511719</ele>
        <time>2023-07-15T08:03:36.000Z</time>
      </trkpt>
      <trkpt lat="42.50756" lon="2.58515">
        <ele>1407.4000244141</ele>
        <time>2023-07-15T08:03:37.000Z</time>
      </trkpt>
      <trkpt lat="42.50764" lon="2.5852">
        <ele>1408.1999511719</ele>
        <time>2023-07-15T08:03:44.000Z</time>
      </trkpt>
      <trkpt lat="42.50765" lon="2.58521">
        <ele>1408.4000244141</ele>
        <time>2023-07-15T08:03:45.000Z</time>
      </trkpt>
      <trkpt lat="42.50771" lon="2.58524">
        <ele>1409.1999511719</ele>
        <time>2023-07-15T08:03:51.000Z</time>
      </trkpt>
      <trkpt lat="42.50772" lon="2.58524">
        <ele>1409.4000244141</ele>
        <time>2023-07-15T08:03:52.000Z</time>
      </trkpt>
      <trkpt lat="42.5078" lon="2.58526">
        <ele>1410.4000244141</ele>
        <time>2023-07-15T08:03:58.000Z</time>
      </trkpt>
      <trkpt lat="42.50784" lon="2.58526">
        <ele>1410.8000488281</ele>
        <time>2023-07-15T08:04:01.000Z</time>
      </trkpt>
      <trkpt lat="42.5079" lon="2.58527">
        <ele>1411.5999755859</ele>
        <time>2023-07-15T08:04:07.000Z</time>
      </trkpt>
      <trkpt lat="42.50793" lon="2.58526">
        <ele>1412.1999511719</ele>
        <time>2023-07-15T08:04:11.000Z</time>
      </trkpt>
      <trkpt lat="42.50797" lon="2.58525">
        <ele>1412.8000488281</ele>
        <time>2023-07-15T08:04:15.000Z</time>
      </trkpt>
      <trkpt lat="42.50802" lon="2.58521">
        <ele>1413.5999755859</ele>
        <time>2023-07-15T08:04:19.000Z</time>
      </trkpt>
      <trkpt lat="42.50804" lon="2.58519">
        <ele>1414</ele>
        <time>2023-07-15T08:04:22.000Z</time>
      </trkpt>
      <trkpt lat="42.50808" lon="2.58513">
        <ele>1415</ele>
        <time>2023-07-15T08:04:28.000Z</time>
      </trkpt>
      <trkpt lat="42.5081" lon="2.58509">
        <ele>1415</ele>
        <time>2023-07-15T08:04:30.000Z</time>
      </trkpt>
      <trkpt lat="42.50813" lon="2.58505">
        <ele>1415.8000488281</ele>
        <time>2023-07-15T08:04:35.000Z</time>
      </trkpt>
      <trkpt lat="42.50813" lon="2.58504">
        <ele>1416.1999511719</ele>
        <time>2023-07-15T08:04:36.000Z</time>
      </trkpt>
      <trkpt lat="42.50818" lon="2.58493">
        <ele>1416.8000488281</ele>
        <time>2023-07-15T08:04:43.000Z</time>
      </trkpt>
      <trkpt lat="42.5082" lon="2.58488">
        <ele>1417.1999511719</ele>
        <time>2023-07-15T08:04:46.000Z</time>
      </trkpt>
      <trkpt lat="42.50823" lon="2.58479">
        <ele>1417.8000488281</ele>
        <time>2023-07-15T08:04:53.000Z</time>
      </trkpt>
      <trkpt lat="42.50829" lon="2.5847">
        <ele>1418.1999511719</ele>
        <time>2023-07-15T08:05:02.000Z</time>
      </trkpt>
      <trkpt lat="42.50829" lon="2.58468">
        <ele>1418.4000244141</ele>
        <time>2023-07-15T08:05:03.000Z</time>
      </trkpt>
      <trkpt lat="42.50831" lon="2.58462">
        <ele>1419.1999511719</ele>
        <time>2023-07-15T08:05:09.000Z</time>
      </trkpt>
      <trkpt lat="42.5083" lon="2.5846">
        <ele>1419.1999511719</ele>
        <time>2023-07-15T08:05:10.000Z</time>
      </trkpt>
      <trkpt lat="42.5083" lon="2.58444">
        <ele>1418.8000488281</ele>
        <time>2023-07-15T08:05:19.000Z</time>
      </trkpt>
      <trkpt lat="42.50828" lon="2.58425">
        <ele>1419.5999755859</ele>
        <time>2023-07-15T08:05:30.000Z</time>
      </trkpt>
      <trkpt lat="42.50824" lon="2.5841">
        <ele>1419.8000488281</ele>
        <time>2023-07-15T08:05:40.000Z</time>
      </trkpt>
      <trkpt lat="42.50822" lon="2.58397">
        <ele>1420</ele>
        <time>2023-07-15T08:05:47.000Z</time>
      </trkpt>
      <trkpt lat="42.50819" lon="2.58391">
        <ele>1419.8000488281</ele>
        <time>2023-07-15T08:05:55.000Z</time>
      </trkpt>
      <trkpt lat="42.50819" lon="2.5839">
        <ele>1419.5999755859</ele>
        <time>2023-07-15T08:06:02.000Z</time>
      </trkpt>
      <trkpt lat="42.50817" lon="2.58384">
        <ele>1419.4000244141</ele>
        <time>2023-07-15T08:06:08.000Z</time>
      </trkpt>
      <trkpt lat="42.50815" lon="2.58373">
        <ele>1419.1999511719</ele>
        <time>2023-07-15T08:06:18.000Z</time>
      </trkpt>
      <trkpt lat="42.50816" lon="2.58374">
        <ele>1419.5999755859</ele>
        <time>2023-07-15T08:06:25.000Z</time>
      </trkpt>
      <trkpt lat="42.50816" lon="2.58374">
        <ele>1419.5999755859</ele>
        <time>2023-07-15T08:06:33.000Z</time>
      </trkpt>
      <trkpt lat="42.5081" lon="2.5836">
        <ele>1419.1999511719</ele>
        <time>2023-07-15T08:06:41.000Z</time>
      </trkpt>
      <trkpt lat="42.50805" lon="2.58352">
        <ele>1418.8000488281</ele>
        <time>2023-07-15T08:06:48.000Z</time>
      </trkpt>
      <trkpt lat="42.50803" lon="2.58341">
        <ele>1418.4000244141</ele>
        <time>2023-07-15T08:06:55.000Z</time>
      </trkpt>
      <trkpt lat="42.50803" lon="2.58339">
        <ele>1418.1999511719</ele>
        <time>2023-07-15T08:06:56.000Z</time>
      </trkpt>
      <trkpt lat="42.50804" lon="2.58326">
        <ele>1418</ele>
        <time>2023-07-15T08:07:04.000Z</time>
      </trkpt>
      <trkpt lat="42.50802" lon="2.58314">
        <ele>1417.8000488281</ele>
        <time>2023-07-15T08:07:11.000Z</time>
      </trkpt>
      <trkpt lat="42.50799" lon="2.58299">
        <ele>1417.5999755859</ele>
        <time>2023-07-15T08:07:18.000Z</time>
      </trkpt>
      <trkpt lat="42.50798" lon="2.5829">
        <ele>1417.1999511719</ele>
        <time>2023-07-15T08:07:25.000Z</time>
      </trkpt>
      <trkpt lat="42.50797" lon="2.58286">
        <ele>1417.1999511719</ele>
        <time>2023-07-15T08:07:27.000Z</time>
      </trkpt>
      <trkpt lat="42.50797" lon="2.58273">
        <ele>1416.8000488281</ele>
        <time>2023-07-15T08:07:35.000Z</time>
      </trkpt>
      <trkpt lat="42.50797" lon="2.58259">
        <ele>1416.4000244141</ele>
        <time>2023-07-15T08:07:43.000Z</time>
      </trkpt>
      <trkpt lat="42.50796" lon="2.58249">
        <ele>1416</ele>
        <time>2023-07-15T08:07:48.000Z</time>
      </trkpt>
      <trkpt lat="42.50795" lon="2.58242">
        <ele>1415.8000488281</ele>
        <time>2023-07-15T08:07:52.000Z</time>
      </trkpt>
      <trkpt lat="42.50793" lon="2.58227">
        <ele>1415.1999511719</ele>
        <time>2023-07-15T08:08:00.000Z</time>
      </trkpt>
      <trkpt lat="42.50792" lon="2.58222">
        <ele>1415</ele>
        <time>2023-07-15T08:08:03.000Z</time>
      </trkpt>
      <trkpt lat="42.5079" lon="2.58216">
        <ele>1415</ele>
        <time>2023-07-15T08:08:07.000Z</time>
      </trkpt>
      <trkpt lat="42.50789" lon="2.58198">
        <ele>1414.5999755859</ele>
        <time>2023-07-15T08:08:16.000Z</time>
      </trkpt>
      <trkpt lat="42.50788" lon="2.58182">
        <ele>1414.5999755859</ele>
        <time>2023-07-15T08:08:24.000Z</time>
      </trkpt>
      <trkpt lat="42.50787" lon="2.58169">
        <ele>1414.4000244141</ele>
        <time>2023-07-15T08:08:32.000Z</time>
      </trkpt>
      <trkpt lat="42.50787" lon="2.58153">
        <ele>1414.1999511719</ele>
        <time>2023-07-15T08:08:41.000Z</time>
      </trkpt>
      <trkpt lat="42.50788" lon="2.58137">
        <ele>1414</ele>
        <time>2023-07-15T08:08:49.000Z</time>
      </trkpt>
      <trkpt lat="42.50788" lon="2.5813">
        <ele>1414</ele>
        <time>2023-07-15T08:08:53.000Z</time>
      </trkpt>
      <trkpt lat="42.50789" lon="2.58126">
        <ele>1413.8000488281</ele>
        <time>2023-07-15T08:08:56.000Z</time>
      </trkpt>
      <trkpt lat="42.50793" lon="2.58109">
        <ele>1413.4000244141</ele>
        <time>2023-07-15T08:09:06.000Z</time>
      </trkpt>
      <trkpt lat="42.50794" lon="2.58102">
        <ele>1413</ele>
        <time>2023-07-15T08:09:11.000Z</time>
      </trkpt>
      <trkpt lat="42.50794" lon="2.58099">
        <ele>1412.8000488281</ele>
        <time>2023-07-15T08:09:13.000Z</time>
      </trkpt>
      <trkpt lat="42.50794" lon="2.58096">
        <ele>1412.4000244141</ele>
        <time>2023-07-15T08:09:17.000Z</time>
      </trkpt>
      <trkpt lat="42.50795" lon="2.58094">
        <ele>1412.4000244141</ele>
        <time>2023-07-15T08:09:19.000Z</time>
      </trkpt>
      <trkpt lat="42.50796" lon="2.58085">
        <ele>1412.1999511719</ele>
        <time>2023-07-15T08:09:24.000Z</time>
      </trkpt>
      <trkpt lat="42.50797" lon="2.5808">
        <ele>1412</ele>
        <time>2023-07-15T08:09:27.000Z</time>
      </trkpt>
      <trkpt lat="42.50797" lon="2.58074">
        <ele>1411.5999755859</ele>
        <time>2023-07-15T08:09:31.000Z</time>
      </trkpt>
      <trkpt lat="42.50796" lon="2.58061">
        <ele>1411.1999511719</ele>
        <time>2023-07-15T08:09:39.000Z</time>
      </trkpt>
      <trkpt lat="42.50796" lon="2.58051">
        <ele>1410.8000488281</ele>
        <time>2023-07-15T08:09:44.000Z</time>
      </trkpt>
      <trkpt lat="42.50796" lon="2.58049">
        <ele>1410.8000488281</ele>
        <time>2023-07-15T08:09:45.000Z</time>
      </trkpt>
      <trkpt lat="42.50797" lon="2.58034">
        <ele>1410.5999755859</ele>
        <time>2023-07-15T08:09:53.000Z</time>
      </trkpt>
      <trkpt lat="42.50798" lon="2.58019">
        <ele>1410.4000244141</ele>
        <time>2023-07-15T08:10:01.000Z</time>
      </trkpt>
      <trkpt lat="42.50799" lon="2.58006">
        <ele>1410</ele>
        <time>2023-07-15T08:10:09.000Z</time>
      </trkpt>
      <trkpt lat="42.508" lon="2.57999">
        <ele>1409.8000488281</ele>
        <time>2023-07-15T08:10:12.000Z</time>
      </trkpt>
      <trkpt lat="42.50802" lon="2.57982">
        <ele>1408.8000488281</ele>
        <time>2023-07-15T08:10:20.000Z</time>
      </trkpt>
      <trkpt lat="42.50803" lon="2.57981">
        <ele>1408.5999755859</ele>
        <time>2023-07-15T08:10:21.000Z</time>
      </trkpt>
      <trkpt lat="42.50805" lon="2.5797">
        <ele>1408.1999511719</ele>
        <time>2023-07-15T08:10:27.000Z</time>
      </trkpt>
      <trkpt lat="42.50809" lon="2.57962">
        <ele>1407.5999755859</ele>
        <time>2023-07-15T08:10:32.000Z</time>
      </trkpt>
      <trkpt lat="42.50812" lon="2.57958">
        <ele>1407.4000244141</ele>
        <time>2023-07-15T08:10:34.000Z</time>
      </trkpt>
      <trkpt lat="42.50818" lon="2.57944">
        <ele>1407</ele>
        <time>2023-07-15T08:10:42.000Z</time>
      </trkpt>
      <trkpt lat="42.50821" lon="2.5794">
        <ele>1406.5999755859</ele>
        <time>2023-07-15T08:10:46.000Z</time>
      </trkpt>
      <trkpt lat="42.50823" lon="2.57938">
        <ele>1406.5999755859</ele>
        <time>2023-07-15T08:10:48.000Z</time>
      </trkpt>
      <trkpt lat="42.50829" lon="2.57928">
        <ele>1405.8000488281</ele>
        <time>2023-07-15T08:10:55.000Z</time>
      </trkpt>
      <trkpt lat="42.5083" lon="2.57927">
        <ele>1405.5999755859</ele>
        <time>2023-07-15T08:10:56.000Z</time>
      </trkpt>
      <trkpt lat="42.50833" lon="2.57915">
        <ele>1404.4000244141</ele>
        <time>2023-07-15T08:11:03.000Z</time>
      </trkpt>
      <trkpt lat="42.50833" lon="2.57897">
        <ele>1403.5999755859</ele>
        <time>2023-07-15T08:11:12.000Z</time>
      </trkpt>
      <trkpt lat="42.50834" lon="2.5789">
        <ele>1403.8000488281</ele>
        <time>2023-07-15T08:11:20.000Z</time>
      </trkpt>
      <trkpt lat="42.50834" lon="2.57886">
        <ele>1403.8000488281</ele>
        <time>2023-07-15T08:11:26.000Z</time>
      </trkpt>
      <trkpt lat="42.50833" lon="2.57878">
        <ele>1404</ele>
        <time>2023-07-15T08:11:32.000Z</time>
      </trkpt>
      <trkpt lat="42.50832" lon="2.57863">
        <ele>1404.5999755859</ele>
        <time>2023-07-15T08:11:39.000Z</time>
      </trkpt>
      <trkpt lat="42.50832" lon="2.5785">
        <ele>1405.1999511719</ele>
        <time>2023-07-15T08:11:47.000Z</time>
      </trkpt>
      <trkpt lat="42.50833" lon="2.57846">
        <ele>1405.4000244141</ele>
        <time>2023-07-15T08:11:50.000Z</time>
      </trkpt>
      <trkpt lat="42.50833" lon="2.57838">
        <ele>1405.4000244141</ele>
        <time>2023-07-15T08:11:54.000Z</time>
      </trkpt>
      <trkpt lat="42.50832" lon="2.5783">
        <ele>1406.1999511719</ele>
        <time>2023-07-15T08:12:01.000Z</time>
      </trkpt>
      <trkpt lat="42.50832" lon="2.57829">
        <ele>1406.4000244141</ele>
        <time>2023-07-15T08:12:02.000Z</time>
      </trkpt>
      <trkpt lat="42.50834" lon="2.57819">
        <ele>1406.8000488281</ele>
        <time>2023-07-15T08:12:07.000Z</time>
      </trkpt>
      <trkpt lat="42.50833" lon="2.57809">
        <ele>1407.5999755859</ele>
        <time>2023-07-15T08:12:13.000Z</time>
      </trkpt>
      <trkpt lat="42.50832" lon="2.57795">
        <ele>1408.1999511719</ele>
        <time>2023-07-15T08:12:20.000Z</time>
      </trkpt>
      <trkpt lat="42.50831" lon="2.57784">
        <ele>1408.8000488281</ele>
        <time>2023-07-15T08:12:26.000Z</time>
      </trkpt>
      <trkpt lat="42.50831" lon="2.57784">
        <ele>1408.8000488281</ele>
        <time>2023-07-15T08:12:27.000Z</time>
      </trkpt>
      <trkpt lat="42.50831" lon="2.57781">
        <ele>1408.8000488281</ele>
        <time>2023-07-15T08:12:34.000Z</time>
      </trkpt>
      <trkpt lat="42.50831" lon="2.57766">
        <ele>1408.8000488281</ele>
        <time>2023-07-15T08:12:43.000Z</time>
      </trkpt>
      <trkpt lat="42.50832" lon="2.57752">
        <ele>1409.8000488281</ele>
        <time>2023-07-15T08:12:51.000Z</time>
      </trkpt>
      <trkpt lat="42.50832" lon="2.5775">
        <ele>1409.8000488281</ele>
        <time>2023-07-15T08:12:52.000Z</time>
      </trkpt>
      <trkpt lat="42.50833" lon="2.57744">
        <ele>1410.8000488281</ele>
        <time>2023-07-15T08:12:59.000Z</time>
      </trkpt>
      <trkpt lat="42.50833" lon="2.57738">
        <ele>1410.8000488281</ele>
        <time>2023-07-15T08:13:06.000Z</time>
      </trkpt>
      <trkpt lat="42.50833" lon="2.57737">
        <ele>1410.8000488281</ele>
        <time>2023-07-15T08:13:07.000Z</time>
      </trkpt>
      <trkpt lat="42.50835" lon="2.57729">
        <ele>1411.8000488281</ele>
        <time>2023-07-15T08:13:14.000Z</time>
      </trkpt>
      <trkpt lat="42.50836" lon="2.57729">
        <ele>1412</ele>
        <time>2023-07-15T08:13:15.000Z</time>
      </trkpt>
      <trkpt lat="42.50834" lon="2.57728">
        <ele>1412.1999511719</ele>
        <time>2023-07-15T08:13:22.000Z</time>
      </trkpt>
      <trkpt lat="42.50831" lon="2.57724">
        <ele>1412.4000244141</ele>
        <time>2023-07-15T08:13:27.000Z</time>
      </trkpt>
      <trkpt lat="42.5083" lon="2.57714">
        <ele>1412.5999755859</ele>
        <time>2023-07-15T08:13:34.000Z</time>
      </trkpt>
      <trkpt lat="42.5083" lon="2.5771">
        <ele>1413</ele>
        <time>2023-07-15T08:13:36.000Z</time>
      </trkpt>
      <trkpt lat="42.50828" lon="2.57702">
        <ele>1413.4000244141</ele>
        <time>2023-07-15T08:13:41.000Z</time>
      </trkpt>
      <trkpt lat="42.50825" lon="2.57694">
        <ele>1414</ele>
        <time>2023-07-15T08:13:48.000Z</time>
      </trkpt>
      <trkpt lat="42.50822" lon="2.57682">
        <ele>1414.8000488281</ele>
        <time>2023-07-15T08:13:56.000Z</time>
      </trkpt>
      <trkpt lat="42.50821" lon="2.57679">
        <ele>1415.1999511719</ele>
        <time>2023-07-15T08:13:58.000Z</time>
      </trkpt>
      <trkpt lat="42.5082" lon="2.5767">
        <ele>1415.8000488281</ele>
        <time>2023-07-15T08:14:04.000Z</time>
      </trkpt>
      <trkpt lat="42.5082" lon="2.5766">
        <ele>1416.1999511719</ele>
        <time>2023-07-15T08:14:10.000Z</time>
      </trkpt>
      <trkpt lat="42.5082" lon="2.57659">
        <ele>1416.1999511719</ele>
        <time>2023-07-15T08:14:11.000Z</time>
      </trkpt>
      <trkpt lat="42.50821" lon="2.57648">
        <ele>1417</ele>
        <time>2023-07-15T08:14:18.000Z</time>
      </trkpt>
      <trkpt lat="42.50822" lon="2.57636">
        <ele>1417.4000244141</ele>
        <time>2023-07-15T08:14:24.000Z</time>
      </trkpt>
      <trkpt lat="42.50825" lon="2.57626">
        <ele>1418.4000244141</ele>
        <time>2023-07-15T08:14:32.000Z</time>
      </trkpt>
      <trkpt lat="42.50831" lon="2.57619">
        <ele>1419</ele>
        <time>2023-07-15T08:14:40.000Z</time>
      </trkpt>
      <trkpt lat="42.50831" lon="2.57617">
        <ele>1419.1999511719</ele>
        <time>2023-07-15T08:14:45.000Z</time>
      </trkpt>
      <trkpt lat="42.5083" lon="2.57617">
        <ele>1419</ele>
        <time>2023-07-15T08:14:47.000Z</time>
      </trkpt>
      <trkpt lat="42.5083" lon="2.57618">
        <ele>1419</ele>
        <time>2023-07-15T08:14:48.000Z</time>
      </trkpt>
      <trkpt lat="42.50832" lon="2.57618">
        <ele>1418.8000488281</ele>
        <time>2023-07-15T08:14:53.000Z</time>
      </trkpt>
      <trkpt lat="42.50833" lon="2.57621">
        <ele>1418.8000488281</ele>
        <time>2023-07-15T08:15:03.000Z</time>
      </trkpt>
      <trkpt lat="42.50833" lon="2.57621">
        <ele>1418.5999755859</ele>
        <time>2023-07-15T08:15:13.000Z</time>
      </trkpt>
      <trkpt lat="42.50832" lon="2.57622">
        <ele>1418.5999755859</ele>
        <time>2023-07-15T08:15:23.000Z</time>
      </trkpt>
      <trkpt lat="42.50829" lon="2.57618">
        <ele>1418.8000488281</ele>
        <time>2023-07-15T08:15:32.000Z</time>
      </trkpt>
      <trkpt lat="42.50833" lon="2.57618">
        <ele>1418.8000488281</ele>
        <time>2023-07-15T08:15:40.000Z</time>
      </trkpt>
      <trkpt lat="42.50833" lon="2.57619">
        <ele>1418.8000488281</ele>
        <time>2023-07-15T08:15:50.000Z</time>
      </trkpt>
      <trkpt lat="42.50835" lon="2.57619">
        <ele>1419</ele>
        <time>2023-07-15T08:15:57.000Z</time>
      </trkpt>
      <trkpt lat="42.50834" lon="2.57622">
        <ele>1419.1999511719</ele>
        <time>2023-07-15T08:16:06.000Z</time>
      </trkpt>
      <trkpt lat="42.50835" lon="2.57617">
        <ele>1419.1999511719</ele>
        <time>2023-07-15T08:16:12.000Z</time>
      </trkpt>
      <trkpt lat="42.50841" lon="2.5761">
        <ele>1419.4000244141</ele>
        <time>2023-07-15T08:16:19.000Z</time>
      </trkpt>
      <trkpt lat="42.50844" lon="2.57605">
        <ele>1419.5999755859</ele>
        <time>2023-07-15T08:16:24.000Z</time>
      </trkpt>
      <trkpt lat="42.50847" lon="2.57601">
        <ele>1419.8000488281</ele>
        <time>2023-07-15T08:16:28.000Z</time>
      </trkpt>
      <trkpt lat="42.50853" lon="2.57594">
        <ele>1420</ele>
        <time>2023-07-15T08:16:35.000Z</time>
      </trkpt>
      <trkpt lat="42.50855" lon="2.57593">
        <ele>1420.1999511719</ele>
        <time>2023-07-15T08:16:44.000Z</time>
      </trkpt>
      <trkpt lat="42.50863" lon="2.57588">
        <ele>1419.8000488281</ele>
        <time>2023-07-15T08:16:51.000Z</time>
      </trkpt>
      <trkpt lat="42.50867" lon="2.57586">
        <ele>1419.8000488281</ele>
        <time>2023-07-15T08:16:58.000Z</time>
      </trkpt>
      <trkpt lat="42.5087" lon="2.5758">
        <ele>1419.8000488281</ele>
        <time>2023-07-15T08:17:08.000Z</time>
      </trkpt>
      <trkpt lat="42.50869" lon="2.57581">
        <ele>1419.8000488281</ele>
        <time>2023-07-15T08:17:15.000Z</time>
      </trkpt>
      <trkpt lat="42.50869" lon="2.57581">
        <ele>1419.5999755859</ele>
        <time>2023-07-15T08:17:24.000Z</time>
      </trkpt>
      <trkpt lat="42.50872" lon="2.57578">
        <ele>1419.5999755859</ele>
        <time>2023-07-15T08:17:29.000Z</time>
      </trkpt>
      <trkpt lat="42.50876" lon="2.57573">
        <ele>1419.5999755859</ele>
        <time>2023-07-15T08:17:37.000Z</time>
      </trkpt>
      <trkpt lat="42.50882" lon="2.57571">
        <ele>1419.4000244141</ele>
        <time>2023-07-15T08:17:46.000Z</time>
      </trkpt>
      <trkpt lat="42.50882" lon="2.57569">
        <ele>1419.1999511719</ele>
        <time>2023-07-15T08:17:53.000Z</time>
      </trkpt>
      <trkpt lat="42.50881" lon="2.5757">
        <ele>1419.1999511719</ele>
        <time>2023-07-15T08:18:02.000Z</time>
      </trkpt>
      <trkpt lat="42.50881" lon="2.57569">
        <ele>1419.1999511719</ele>
        <time>2023-07-15T08:18:12.000Z</time>
      </trkpt>
      <trkpt lat="42.50881" lon="2.57573">
        <ele>1419.4000244141</ele>
        <time>2023-07-15T08:18:21.000Z</time>
      </trkpt>
      <trkpt lat="42.50883" lon="2.5757">
        <ele>1419.5999755859</ele>
        <time>2023-07-15T08:18:30.000Z</time>
      </trkpt>
      <trkpt lat="42.50883" lon="2.57571">
        <ele>1419.8000488281</ele>
        <time>2023-07-15T08:18:37.000Z</time>
      </trkpt>
      <trkpt lat="42.50882" lon="2.5757">
        <ele>1419.5999755859</ele>
        <time>2023-07-15T08:18:44.000Z</time>
      </trkpt>
      <trkpt lat="42.5088" lon="2.57568">
        <ele>1419.5999755859</ele>
        <time>2023-07-15T08:18:53.000Z</time>
      </trkpt>
      <trkpt lat="42.50882" lon="2.57566">
        <ele>1419.5999755859</ele>
        <time>2023-07-15T08:19:01.000Z</time>
      </trkpt>
      <trkpt lat="42.50882" lon="2.57567">
        <ele>1419.4000244141</ele>
        <time>2023-07-15T08:19:10.000Z</time>
      </trkpt>
      <trkpt lat="42.50881" lon="2.57569">
        <ele>1419.4000244141</ele>
        <time>2023-07-15T08:19:18.000Z</time>
      </trkpt>
      <trkpt lat="42.50887" lon="2.57571">
        <ele>1419</ele>
        <time>2023-07-15T08:19:25.000Z</time>
      </trkpt>
      <trkpt lat="42.5089" lon="2.5757">
        <ele>1420.1999511719</ele>
        <time>2023-07-15T08:19:32.000Z</time>
      </trkpt>
      <trkpt lat="42.50885" lon="2.57571">
        <ele>1420</ele>
        <time>2023-07-15T08:19:39.000Z</time>
      </trkpt>
      <trkpt lat="42.50881" lon="2.57569">
        <ele>1419.4000244141</ele>
        <time>2023-07-15T08:19:44.000Z</time>
      </trkpt>
      <trkpt lat="42.50881" lon="2.57566">
        <ele>1420</ele>
        <time>2023-07-15T08:19:53.000Z</time>
      </trkpt>
      <trkpt lat="42.50881" lon="2.5757">
        <ele>1419.8000488281</ele>
        <time>2023-07-15T08:20:01.000Z</time>
      </trkpt>
      <trkpt lat="42.50882" lon="2.57563">
        <ele>1419.8000488281</ele>
        <time>2023-07-15T08:20:05.000Z</time>
      </trkpt>
      <trkpt lat="42.50884" lon="2.57553">
        <ele>1420.1999511719</ele>
        <time>2023-07-15T08:20:12.000Z</time>
      </trkpt>
      <trkpt lat="42.50887" lon="2.57543">
        <ele>1420.4000244141</ele>
        <time>2023-07-15T08:20:19.000Z</time>
      </trkpt>
      <trkpt lat="42.50888" lon="2.57537">
        <ele>1420.5999755859</ele>
        <time>2023-07-15T08:20:22.000Z</time>
      </trkpt>
      <trkpt lat="42.5089" lon="2.57529">
        <ele>1420.5999755859</ele>
        <time>2023-07-15T08:20:28.000Z</time>
      </trkpt>
      <trkpt lat="42.50891" lon="2.57527">
        <ele>1420.1999511719</ele>
        <time>2023-07-15T08:20:34.000Z</time>
      </trkpt>
      <trkpt lat="42.50893" lon="2.5752">
        <ele>1420.1999511719</ele>
        <time>2023-07-15T08:20:41.000Z</time>
      </trkpt>
      <trkpt lat="42.50893" lon="2.57518">
        <ele>1420.4000244141</ele>
        <time>2023-07-15T08:20:47.000Z</time>
      </trkpt>
      <trkpt lat="42.50893" lon="2.57513">
        <ele>1420.5999755859</ele>
        <time>2023-07-15T08:20:53.000Z</time>
      </trkpt>
      <trkpt lat="42.50892" lon="2.57504">
        <ele>1420.5999755859</ele>
        <time>2023-07-15T08:20:58.000Z</time>
      </trkpt>
      <trkpt lat="42.50892" lon="2.57504">
        <ele>1420.5999755859</ele>
        <time>2023-07-15T08:21:04.000Z</time>
      </trkpt>
      <trkpt lat="42.50892" lon="2.57506">
        <ele>1420.5999755859</ele>
        <time>2023-07-15T08:21:12.000Z</time>
      </trkpt>
      <trkpt lat="42.50891" lon="2.57506">
        <ele>1420.4000244141</ele>
        <time>2023-07-15T08:21:21.000Z</time>
      </trkpt>
      <trkpt lat="42.50891" lon="2.57496">
        <ele>1420.1999511719</ele>
        <time>2023-07-15T08:21:31.000Z</time>
      </trkpt>
      <trkpt lat="42.50894" lon="2.57489">
        <ele>1420</ele>
        <time>2023-07-15T08:21:37.000Z</time>
      </trkpt>
      <trkpt lat="42.50894" lon="2.57491">
        <ele>1420</ele>
        <time>2023-07-15T08:21:44.000Z</time>
      </trkpt>
      <trkpt lat="42.50894" lon="2.57494">
        <ele>1420.4000244141</ele>
        <time>2023-07-15T08:21:51.000Z</time>
      </trkpt>
      <trkpt lat="42.50898" lon="2.57489">
        <ele>1420.1999511719</ele>
        <time>2023-07-15T08:21:57.000Z</time>
      </trkpt>
      <trkpt lat="42.50897" lon="2.57479">
        <ele>1419.5999755859</ele>
        <time>2023-07-15T08:22:04.000Z</time>
      </trkpt>
      <trkpt lat="42.50899" lon="2.57457">
        <ele>1419.5999755859</ele>
        <time>2023-07-15T08:22:14.000Z</time>
      </trkpt>
      <trkpt lat="42.50898" lon="2.57439">
        <ele>1419.4000244141</ele>
        <time>2023-07-15T08:22:23.000Z</time>
      </trkpt>
      <trkpt lat="42.50897" lon="2.57424">
        <ele>1418.8000488281</ele>
        <time>2023-07-15T08:22:32.000Z</time>
      </trkpt>
      <trkpt lat="42.50896" lon="2.5742">
        <ele>1418.4000244141</ele>
        <time>2023-07-15T08:22:35.000Z</time>
      </trkpt>
      <trkpt lat="42.50895" lon="2.57417">
        <ele>1418.1999511719</ele>
        <time>2023-07-15T08:22:41.000Z</time>
      </trkpt>
      <trkpt lat="42.50895" lon="2.57415">
        <ele>1418.1999511719</ele>
        <time>2023-07-15T08:22:45.000Z</time>
      </trkpt>
      <trkpt lat="42.50894" lon="2.57408">
        <ele>1418</ele>
        <time>2023-07-15T08:22:49.000Z</time>
      </trkpt>
      <trkpt lat="42.5089" lon="2.57396">
        <ele>1417.8000488281</ele>
        <time>2023-07-15T08:22:57.000Z</time>
      </trkpt>
      <trkpt lat="42.50889" lon="2.57388">
        <ele>1417.4000244141</ele>
        <time>2023-07-15T08:23:02.000Z</time>
      </trkpt>
      <trkpt lat="42.50888" lon="2.57382">
        <ele>1417.4000244141</ele>
        <time>2023-07-15T08:23:05.000Z</time>
      </trkpt>
      <trkpt lat="42.50886" lon="2.5737">
        <ele>1417.1999511719</ele>
        <time>2023-07-15T08:23:12.000Z</time>
      </trkpt>
      <trkpt lat="42.50885" lon="2.57356">
        <ele>1417</ele>
        <time>2023-07-15T08:23:19.000Z</time>
      </trkpt>
      <trkpt lat="42.5088" lon="2.57342">
        <ele>1416.5999755859</ele>
        <time>2023-07-15T08:23:27.000Z</time>
      </trkpt>
      <trkpt lat="42.50875" lon="2.57331">
        <ele>1416.4000244141</ele>
        <time>2023-07-15T08:23:33.000Z</time>
      </trkpt>
      <trkpt lat="42.50871" lon="2.57324">
        <ele>1416.4000244141</ele>
        <time>2023-07-15T08:23:38.000Z</time>
      </trkpt>
      <trkpt lat="42.5087" lon="2.57321">
        <ele>1416.1999511719</ele>
        <time>2023-07-15T08:23:40.000Z</time>
      </trkpt>
      <trkpt lat="42.50862" lon="2.57309">
        <ele>1416.1999511719</ele>
        <time>2023-07-15T08:23:48.000Z</time>
      </trkpt>
      <trkpt lat="42.50857" lon="2.57298">
        <ele>1415.8000488281</ele>
        <time>2023-07-15T08:23:54.000Z</time>
      </trkpt>
      <trkpt lat="42.50851" lon="2.57289">
        <ele>1416</ele>
        <time>2023-07-15T08:24:00.000Z</time>
      </trkpt>
      <trkpt lat="42.50848" lon="2.5728">
        <ele>1415.4000244141</ele>
        <time>2023-07-15T08:24:06.000Z</time>
      </trkpt>
      <trkpt lat="42.50848" lon="2.57278">
        <ele>1415.4000244141</ele>
        <time>2023-07-15T08:24:08.000Z</time>
      </trkpt>
      <trkpt lat="42.50844" lon="2.57264">
        <ele>1415.1999511719</ele>
        <time>2023-07-15T08:24:15.000Z</time>
      </trkpt>
      <trkpt lat="42.50842" lon="2.57249">
        <ele>1415</ele>
        <time>2023-07-15T08:24:23.000Z</time>
      </trkpt>
      <trkpt lat="42.5084" lon="2.57232">
        <ele>1414.8000488281</ele>
        <time>2023-07-15T08:24:31.000Z</time>
      </trkpt>
      <trkpt lat="42.50837" lon="2.57216">
        <ele>1414.5999755859</ele>
        <time>2023-07-15T08:24:40.000Z</time>
      </trkpt>
      <trkpt lat="42.50838" lon="2.57201">
        <ele>1414.5999755859</ele>
        <time>2023-07-15T08:24:49.000Z</time>
      </trkpt>
      <trkpt lat="42.50844" lon="2.57183">
        <ele>1414.4000244141</ele>
        <time>2023-07-15T08:24:59.000Z</time>
      </trkpt>
      <trkpt lat="42.50846" lon="2.57176">
        <ele>1414.1999511719</ele>
        <time>2023-07-15T08:25:02.000Z</time>
      </trkpt>
      <trkpt lat="42.50848" lon="2.5717">
        <ele>1414.1999511719</ele>
        <time>2023-07-15T08:25:06.000Z</time>
      </trkpt>
      <trkpt lat="42.50854" lon="2.57152">
        <ele>1413.8000488281</ele>
        <time>2023-07-15T08:25:16.000Z</time>
      </trkpt>
      <trkpt lat="42.50857" lon="2.57139">
        <ele>1413.5999755859</ele>
        <time>2023-07-15T08:25:24.000Z</time>
      </trkpt>
      <trkpt lat="42.50862" lon="2.57125">
        <ele>1413.4000244141</ele>
        <time>2023-07-15T08:25:32.000Z</time>
      </trkpt>
      <trkpt lat="42.50862" lon="2.57123">
        <ele>1413.1999511719</ele>
        <time>2023-07-15T08:25:33.000Z</time>
      </trkpt>
      <trkpt lat="42.50869" lon="2.57112">
        <ele>1412.8000488281</ele>
        <time>2023-07-15T08:25:40.000Z</time>
      </trkpt>
      <trkpt lat="42.50874" lon="2.57096">
        <ele>1412.5999755859</ele>
        <time>2023-07-15T08:25:48.000Z</time>
      </trkpt>
      <trkpt lat="42.50875" lon="2.57085">
        <ele>1412.5999755859</ele>
        <time>2023-07-15T08:25:55.000Z</time>
      </trkpt>
      <trkpt lat="42.50876" lon="2.57067">
        <ele>1412.4000244141</ele>
        <time>2023-07-15T08:26:03.000Z</time>
      </trkpt>
      <trkpt lat="42.50877" lon="2.57057">
        <ele>1412.1999511719</ele>
        <time>2023-07-15T08:26:08.000Z</time>
      </trkpt>
      <trkpt lat="42.50878" lon="2.5705">
        <ele>1412.1999511719</ele>
        <time>2023-07-15T08:26:12.000Z</time>
      </trkpt>
      <trkpt lat="42.5088" lon="2.57036">
        <ele>1412.1999511719</ele>
        <time>2023-07-15T08:26:20.000Z</time>
      </trkpt>
      <trkpt lat="42.50883" lon="2.57018">
        <ele>1412</ele>
        <time>2023-07-15T08:26:29.000Z</time>
      </trkpt>
      <trkpt lat="42.50886" lon="2.57003">
        <ele>1411.8000488281</ele>
        <time>2023-07-15T08:26:38.000Z</time>
      </trkpt>
      <trkpt lat="42.50889" lon="2.56989">
        <ele>1411.5999755859</ele>
        <time>2023-07-15T08:26:46.000Z</time>
      </trkpt>
      <trkpt lat="42.5089" lon="2.56971">
        <ele>1411.1999511719</ele>
        <time>2023-07-15T08:26:55.000Z</time>
      </trkpt>
      <trkpt lat="42.5089" lon="2.5697">
        <ele>1411.1999511719</ele>
        <time>2023-07-15T08:26:56.000Z</time>
      </trkpt>
      <trkpt lat="42.5089" lon="2.56961">
        <ele>1411.1999511719</ele>
        <time>2023-07-15T08:27:01.000Z</time>
      </trkpt>
      <trkpt lat="42.50888" lon="2.56943">
        <ele>1411.1999511719</ele>
        <time>2023-07-15T08:27:10.000Z</time>
      </trkpt>
      <trkpt lat="42.50887" lon="2.56927">
        <ele>1411.1999511719</ele>
        <time>2023-07-15T08:27:20.000Z</time>
      </trkpt>
      <trkpt lat="42.50886" lon="2.56908">
        <ele>1411.1999511719</ele>
        <time>2023-07-15T08:27:28.000Z</time>
      </trkpt>
      <trkpt lat="42.50882" lon="2.56892">
        <ele>1411.4000244141</ele>
        <time>2023-07-15T08:27:35.000Z</time>
      </trkpt>
      <trkpt lat="42.50877" lon="2.56881">
        <ele>1411.5999755859</ele>
        <time>2023-07-15T08:27:43.000Z</time>
      </trkpt>
      <trkpt lat="42.50874" lon="2.56865">
        <ele>1411.5999755859</ele>
        <time>2023-07-15T08:27:52.000Z</time>
      </trkpt>
      <trkpt lat="42.5087" lon="2.56848">
        <ele>1411.4000244141</ele>
        <time>2023-07-15T08:28:01.000Z</time>
      </trkpt>
      <trkpt lat="42.50864" lon="2.56835">
        <ele>1411</ele>
        <time>2023-07-15T08:28:09.000Z</time>
      </trkpt>
      <trkpt lat="42.50855" lon="2.56825">
        <ele>1410.8000488281</ele>
        <time>2023-07-15T08:28:16.000Z</time>
      </trkpt>
      <trkpt lat="42.50852" lon="2.56817">
        <ele>1410.1999511719</ele>
        <time>2023-07-15T08:28:20.000Z</time>
      </trkpt>
      <trkpt lat="42.50847" lon="2.56806">
        <ele>1410</ele>
        <time>2023-07-15T08:28:26.000Z</time>
      </trkpt>
      <trkpt lat="42.50842" lon="2.56795">
        <ele>1410.5999755859</ele>
        <time>2023-07-15T08:28:34.000Z</time>
      </trkpt>
      <trkpt lat="42.50837" lon="2.56779">
        <ele>1410.8000488281</ele>
        <time>2023-07-15T08:28:44.000Z</time>
      </trkpt>
      <trkpt lat="42.50831" lon="2.56764">
        <ele>1410.8000488281</ele>
        <time>2023-07-15T08:28:53.000Z</time>
      </trkpt>
      <trkpt lat="42.50825" lon="2.56754">
        <ele>1410.8000488281</ele>
        <time>2023-07-15T08:28:59.000Z</time>
      </trkpt>
      <trkpt lat="42.50816" lon="2.56738">
        <ele>1410.5999755859</ele>
        <time>2023-07-15T08:29:08.000Z</time>
      </trkpt>
      <trkpt lat="42.50804" lon="2.56726">
        <ele>1410.4000244141</ele>
        <time>2023-07-15T08:29:17.000Z</time>
      </trkpt>
      <trkpt lat="42.50795" lon="2.56718">
        <ele>1410.4000244141</ele>
        <time>2023-07-15T08:29:26.000Z</time>
      </trkpt>
      <trkpt lat="42.50782" lon="2.56705">
        <ele>1410</ele>
        <time>2023-07-15T08:29:35.000Z</time>
      </trkpt>
      <trkpt lat="42.50775" lon="2.56698">
        <ele>1409.8000488281</ele>
        <time>2023-07-15T08:29:43.000Z</time>
      </trkpt>
      <trkpt lat="42.50764" lon="2.56682">
        <ele>1409.4000244141</ele>
        <time>2023-07-15T08:29:54.000Z</time>
      </trkpt>
      <trkpt lat="42.50752" lon="2.56671">
        <ele>1409.1999511719</ele>
        <time>2023-07-15T08:30:03.000Z</time>
      </trkpt>
      <trkpt lat="42.50743" lon="2.56662">
        <ele>1409.1999511719</ele>
        <time>2023-07-15T08:30:11.000Z</time>
      </trkpt>
      <trkpt lat="42.50733" lon="2.56651">
        <ele>1409.1999511719</ele>
        <time>2023-07-15T08:30:19.000Z</time>
      </trkpt>
      <trkpt lat="42.5073" lon="2.56648">
        <ele>1409.1999511719</ele>
        <time>2023-07-15T08:30:21.000Z</time>
      </trkpt>
      <trkpt lat="42.50724" lon="2.56639">
        <ele>1409.4000244141</ele>
        <time>2023-07-15T08:30:28.000Z</time>
      </trkpt>
      <trkpt lat="42.50714" lon="2.56629">
        <ele>1409.1999511719</ele>
        <time>2023-07-15T08:30:39.000Z</time>
      </trkpt>
      <trkpt lat="42.50703" lon="2.56623">
        <ele>1409.1999511719</ele>
        <time>2023-07-15T08:30:48.000Z</time>
      </trkpt>
      <trkpt lat="42.50689" lon="2.56615">
        <ele>1409</ele>
        <time>2023-07-15T08:30:56.000Z</time>
      </trkpt>
      <trkpt lat="42.50682" lon="2.56611">
        <ele>1409</ele>
        <time>2023-07-15T08:31:03.000Z</time>
      </trkpt>
      <trkpt lat="42.5067" lon="2.56603">
        <ele>1409</ele>
        <time>2023-07-15T08:31:11.000Z</time>
      </trkpt>
      <trkpt lat="42.50657" lon="2.56592">
        <ele>1408.5999755859</ele>
        <time>2023-07-15T08:31:21.000Z</time>
      </trkpt>
      <trkpt lat="42.50649" lon="2.56583">
        <ele>1408.4000244141</ele>
        <time>2023-07-15T08:31:27.000Z</time>
      </trkpt>
      <trkpt lat="42.5064" lon="2.56571">
        <ele>1408.4000244141</ele>
        <time>2023-07-15T08:31:34.000Z</time>
      </trkpt>
      <trkpt lat="42.50637" lon="2.56567">
        <ele>1408</ele>
        <time>2023-07-15T08:31:37.000Z</time>
      </trkpt>
      <trkpt lat="42.5063" lon="2.56559">
        <ele>1407.8000488281</ele>
        <time>2023-07-15T08:31:42.000Z</time>
      </trkpt>
      <trkpt lat="42.50624" lon="2.5655">
        <ele>1408</ele>
        <time>2023-07-15T08:31:49.000Z</time>
      </trkpt>
      <trkpt lat="42.50611" lon="2.56539">
        <ele>1407.8000488281</ele>
        <time>2023-07-15T08:31:59.000Z</time>
      </trkpt>
      <trkpt lat="42.50601" lon="2.56528">
        <ele>1407.8000488281</ele>
        <time>2023-07-15T08:32:09.000Z</time>
      </trkpt>
      <trkpt lat="42.50596" lon="2.56514">
        <ele>1407.4000244141</ele>
        <time>2023-07-15T08:32:17.000Z</time>
      </trkpt>
      <trkpt lat="42.5059" lon="2.565">
        <ele>1407.5999755859</ele>
        <time>2023-07-15T08:32:25.000Z</time>
      </trkpt>
      <trkpt lat="42.50584" lon="2.56487">
        <ele>1407.4000244141</ele>
        <time>2023-07-15T08:32:33.000Z</time>
      </trkpt>
      <trkpt lat="42.5058" lon="2.56474">
        <ele>1407.4000244141</ele>
        <time>2023-07-15T08:32:40.000Z</time>
      </trkpt>
      <trkpt lat="42.50577" lon="2.56456">
        <ele>1407.1999511719</ele>
        <time>2023-07-15T08:32:48.000Z</time>
      </trkpt>
      <trkpt lat="42.50577" lon="2.56437">
        <ele>1407.1999511719</ele>
        <time>2023-07-15T08:32:57.000Z</time>
      </trkpt>
      <trkpt lat="42.50579" lon="2.56427">
        <ele>1407</ele>
        <time>2023-07-15T08:33:03.000Z</time>
      </trkpt>
      <trkpt lat="42.50579" lon="2.56412">
        <ele>1407</ele>
        <time>2023-07-15T08:33:10.000Z</time>
      </trkpt>
      <trkpt lat="42.50579" lon="2.5641">
        <ele>1407</ele>
        <time>2023-07-15T08:33:11.000Z</time>
      </trkpt>
      <trkpt lat="42.50582" lon="2.56391">
        <ele>1407</ele>
        <time>2023-07-15T08:33:21.000Z</time>
      </trkpt>
      <trkpt lat="42.50584" lon="2.56371">
        <ele>1406.5999755859</ele>
        <time>2023-07-15T08:33:31.000Z</time>
      </trkpt>
      <trkpt lat="42.50587" lon="2.56355">
        <ele>1406.4000244141</ele>
        <time>2023-07-15T08:33:39.000Z</time>
      </trkpt>
      <trkpt lat="42.50591" lon="2.56338">
        <ele>1406.1999511719</ele>
        <time>2023-07-15T08:33:48.000Z</time>
      </trkpt>
      <trkpt lat="42.50597" lon="2.56321">
        <ele>1406</ele>
        <time>2023-07-15T08:33:57.000Z</time>
      </trkpt>
      <trkpt lat="42.50601" lon="2.56305">
        <ele>1406</ele>
        <time>2023-07-15T08:34:06.000Z</time>
      </trkpt>
      <trkpt lat="42.50609" lon="2.5629">
        <ele>1406</ele>
        <time>2023-07-15T08:34:13.000Z</time>
      </trkpt>
      <trkpt lat="42.50612" lon="2.56276">
        <ele>1406.1999511719</ele>
        <time>2023-07-15T08:34:20.000Z</time>
      </trkpt>
      <trkpt lat="42.50616" lon="2.56259">
        <ele>1406.1999511719</ele>
        <time>2023-07-15T08:34:29.000Z</time>
      </trkpt>
      <trkpt lat="42.50621" lon="2.56246">
        <ele>1406.4000244141</ele>
        <time>2023-07-15T08:34:37.000Z</time>
      </trkpt>
      <trkpt lat="42.50624" lon="2.56229">
        <ele>1406.1999511719</ele>
        <time>2023-07-15T08:34:46.000Z</time>
      </trkpt>
      <trkpt lat="42.50628" lon="2.56213">
        <ele>1406.4000244141</ele>
        <time>2023-07-15T08:34:55.000Z</time>
      </trkpt>
      <trkpt lat="42.50629" lon="2.56199">
        <ele>1406.4000244141</ele>
        <time>2023-07-15T08:35:02.000Z</time>
      </trkpt>
      <trkpt lat="42.50631" lon="2.56188">
        <ele>1406.4000244141</ele>
        <time>2023-07-15T08:35:08.000Z</time>
      </trkpt>
      <trkpt lat="42.50631" lon="2.56173">
        <ele>1406.4000244141</ele>
        <time>2023-07-15T08:35:16.000Z</time>
      </trkpt>
      <trkpt lat="42.50633" lon="2.56157">
        <ele>1406.4000244141</ele>
        <time>2023-07-15T08:35:24.000Z</time>
      </trkpt>
      <trkpt lat="42.50639" lon="2.56138">
        <ele>1406.8000488281</ele>
        <time>2023-07-15T08:35:34.000Z</time>
      </trkpt>
      <trkpt lat="42.50644" lon="2.56122">
        <ele>1406.5999755859</ele>
        <time>2023-07-15T08:35:43.000Z</time>
      </trkpt>
      <trkpt lat="42.50643" lon="2.56113">
        <ele>1406.5999755859</ele>
        <time>2023-07-15T08:35:48.000Z</time>
      </trkpt>
      <trkpt lat="42.50637" lon="2.56104">
        <ele>1406.5999755859</ele>
        <time>2023-07-15T08:35:54.000Z</time>
      </trkpt>
      <trkpt lat="42.50632" lon="2.56096">
        <ele>1406.8000488281</ele>
        <time>2023-07-15T08:36:01.000Z</time>
      </trkpt>
      <trkpt lat="42.50632" lon="2.56096">
        <ele>1407.1999511719</ele>
        <time>2023-07-15T08:36:05.000Z</time>
      </trkpt>
      <trkpt lat="42.50633" lon="2.56096">
        <ele>1407.1999511719</ele>
        <time>2023-07-15T08:36:06.000Z</time>
      </trkpt>
      <trkpt lat="42.50634" lon="2.56097">
        <ele>1407.1999511719</ele>
        <time>2023-07-15T08:36:08.000Z</time>
      </trkpt>
      <trkpt lat="42.50632" lon="2.56098">
        <ele>1407.1999511719</ele>
        <time>2023-07-15T08:36:16.000Z</time>
      </trkpt>
      <trkpt lat="42.5063" lon="2.56096">
        <ele>1407.1999511719</ele>
        <time>2023-07-15T08:36:17.000Z</time>
      </trkpt>
      <trkpt lat="42.50619" lon="2.5609">
        <ele>1407.1999511719</ele>
        <time>2023-07-15T08:36:24.000Z</time>
      </trkpt>
      <trkpt lat="42.50611" lon="2.56082">
        <ele>1407.1999511719</ele>
        <time>2023-07-15T08:36:31.000Z</time>
      </trkpt>
      <trkpt lat="42.506" lon="2.56068">
        <ele>1407.4000244141</ele>
        <time>2023-07-15T08:36:41.000Z</time>
      </trkpt>
      <trkpt lat="42.50585" lon="2.56059">
        <ele>1407.1999511719</ele>
        <time>2023-07-15T08:36:51.000Z</time>
      </trkpt>
      <trkpt lat="42.50577" lon="2.56054">
        <ele>1407</ele>
        <time>2023-07-15T08:36:58.000Z</time>
      </trkpt>
      <trkpt lat="42.50564" lon="2.56042">
        <ele>1407.1999511719</ele>
        <time>2023-07-15T08:37:08.000Z</time>
      </trkpt>
      <trkpt lat="42.5055" lon="2.56033">
        <ele>1406.8000488281</ele>
        <time>2023-07-15T08:37:20.000Z</time>
      </trkpt>
      <trkpt lat="42.50541" lon="2.56029">
        <ele>1406.8000488281</ele>
        <time>2023-07-15T08:37:26.000Z</time>
      </trkpt>
      <trkpt lat="42.5053" lon="2.56027">
        <ele>1406.8000488281</ele>
        <time>2023-07-15T08:37:34.000Z</time>
      </trkpt>
      <trkpt lat="42.50522" lon="2.56026">
        <ele>1406.5999755859</ele>
        <time>2023-07-15T08:37:39.000Z</time>
      </trkpt>
      <trkpt lat="42.50516" lon="2.56023">
        <ele>1406.8000488281</ele>
        <time>2023-07-15T08:37:44.000Z</time>
      </trkpt>
      <trkpt lat="42.50503" lon="2.56019">
        <ele>1406.5999755859</ele>
        <time>2023-07-15T08:37:52.000Z</time>
      </trkpt>
      <trkpt lat="42.50493" lon="2.56013">
        <ele>1406.5999755859</ele>
        <time>2023-07-15T08:37:59.000Z</time>
      </trkpt>
      <trkpt lat="42.50485" lon="2.56003">
        <ele>1406.4000244141</ele>
        <time>2023-07-15T08:38:06.000Z</time>
      </trkpt>
      <trkpt lat="42.5048" lon="2.55992">
        <ele>1406.5999755859</ele>
        <time>2023-07-15T08:38:14.000Z</time>
      </trkpt>
      <trkpt lat="42.50476" lon="2.5598">
        <ele>1406.4000244141</ele>
        <time>2023-07-15T08:38:21.000Z</time>
      </trkpt>
      <trkpt lat="42.50469" lon="2.55961">
        <ele>1406.4000244141</ele>
        <time>2023-07-15T08:38:32.000Z</time>
      </trkpt>
      <trkpt lat="42.50464" lon="2.55943">
        <ele>1406.8000488281</ele>
        <time>2023-07-15T08:38:41.000Z</time>
      </trkpt>
      <trkpt lat="42.5046" lon="2.55924">
        <ele>1407</ele>
        <time>2023-07-15T08:38:51.000Z</time>
      </trkpt>
      <trkpt lat="42.50456" lon="2.55908">
        <ele>1407.4000244141</ele>
        <time>2023-07-15T08:38:59.000Z</time>
      </trkpt>
      <trkpt lat="42.50453" lon="2.55892">
        <ele>1407.5999755859</ele>
        <time>2023-07-15T08:39:07.000Z</time>
      </trkpt>
      <trkpt lat="42.50449" lon="2.55874">
        <ele>1408.1999511719</ele>
        <time>2023-07-15T08:39:18.000Z</time>
      </trkpt>
      <trkpt lat="42.50444" lon="2.5586">
        <ele>1408.5999755859</ele>
        <time>2023-07-15T08:39:26.000Z</time>
      </trkpt>
      <trkpt lat="42.5044" lon="2.55843">
        <ele>1409</ele>
        <time>2023-07-15T08:39:36.000Z</time>
      </trkpt>
      <trkpt lat="42.50436" lon="2.55825">
        <ele>1409</ele>
        <time>2023-07-15T08:39:45.000Z</time>
      </trkpt>
      <trkpt lat="42.50433" lon="2.55809">
        <ele>1408.8000488281</ele>
        <time>2023-07-15T08:39:53.000Z</time>
      </trkpt>
      <trkpt lat="42.5043" lon="2.55792">
        <ele>1408.8000488281</ele>
        <time>2023-07-15T08:40:02.000Z</time>
      </trkpt>
      <trkpt lat="42.50427" lon="2.5578">
        <ele>1408.4000244141</ele>
        <time>2023-07-15T08:40:08.000Z</time>
      </trkpt>
      <trkpt lat="42.50425" lon="2.55762">
        <ele>1408.5999755859</ele>
        <time>2023-07-15T08:40:18.000Z</time>
      </trkpt>
      <trkpt lat="42.50426" lon="2.55744">
        <ele>1408.5999755859</ele>
        <time>2023-07-15T08:40:27.000Z</time>
      </trkpt>
      <trkpt lat="42.50429" lon="2.55726">
        <ele>1408.8000488281</ele>
        <time>2023-07-15T08:40:37.000Z</time>
      </trkpt>
      <trkpt lat="42.5043" lon="2.5571">
        <ele>1408.8000488281</ele>
        <time>2023-07-15T08:40:45.000Z</time>
      </trkpt>
      <trkpt lat="42.50431" lon="2.55687">
        <ele>1409</ele>
        <time>2023-07-15T08:40:56.000Z</time>
      </trkpt>
      <trkpt lat="42.50432" lon="2.55669">
        <ele>1409</ele>
        <time>2023-07-15T08:41:06.000Z</time>
      </trkpt>
      <trkpt lat="42.50428" lon="2.55649">
        <ele>1409</ele>
        <time>2023-07-15T08:41:16.000Z</time>
      </trkpt>
      <trkpt lat="42.50425" lon="2.55638">
        <ele>1409.1999511719</ele>
        <time>2023-07-15T08:41:23.000Z</time>
      </trkpt>
      <trkpt lat="42.50423" lon="2.55633">
        <ele>1409.1999511719</ele>
        <time>2023-07-15T08:41:26.000Z</time>
      </trkpt>
      <trkpt lat="42.50422" lon="2.55625">
        <ele>1409.4000244141</ele>
        <time>2023-07-15T08:41:30.000Z</time>
      </trkpt>
      <trkpt lat="42.5042" lon="2.55607">
        <ele>1409.4000244141</ele>
        <time>2023-07-15T08:41:38.000Z</time>
      </trkpt>
      <trkpt lat="42.50414" lon="2.55598">
        <ele>1409</ele>
        <time>2023-07-15T08:41:44.000Z</time>
      </trkpt>
      <trkpt lat="42.50404" lon="2.55594">
        <ele>1408.8000488281</ele>
        <time>2023-07-15T08:41:51.000Z</time>
      </trkpt>
      <trkpt lat="42.50393" lon="2.55592">
        <ele>1408.5999755859</ele>
        <time>2023-07-15T08:41:59.000Z</time>
      </trkpt>
      <trkpt lat="42.50385" lon="2.55594">
        <ele>1408</ele>
        <time>2023-07-15T08:42:04.000Z</time>
      </trkpt>
      <trkpt lat="42.50383" lon="2.55594">
        <ele>1408</ele>
        <time>2023-07-15T08:42:05.000Z</time>
      </trkpt>
      <trkpt lat="42.50371" lon="2.55602">
        <ele>1407.4000244141</ele>
        <time>2023-07-15T08:42:14.000Z</time>
      </trkpt>
      <trkpt lat="42.50363" lon="2.55603">
        <ele>1407</ele>
        <time>2023-07-15T08:42:20.000Z</time>
      </trkpt>
      <trkpt lat="42.50357" lon="2.55602">
        <ele>1406.5999755859</ele>
        <time>2023-07-15T08:42:23.000Z</time>
      </trkpt>
      <trkpt lat="42.50346" lon="2.55603">
        <ele>1405.8000488281</ele>
        <time>2023-07-15T08:42:30.000Z</time>
      </trkpt>
      <trkpt lat="42.50344" lon="2.55603">
        <ele>1405.8000488281</ele>
        <time>2023-07-15T08:42:31.000Z</time>
      </trkpt>
      <trkpt lat="42.50332" lon="2.55601">
        <ele>1405</ele>
        <time>2023-07-15T08:42:40.000Z</time>
      </trkpt>
      <trkpt lat="42.50331" lon="2.55601">
        <ele>1404.8000488281</ele>
        <time>2023-07-15T08:42:41.000Z</time>
      </trkpt>
      <trkpt lat="42.50319" lon="2.55603">
        <ele>1404</ele>
        <time>2023-07-15T08:42:49.000Z</time>
      </trkpt>
      <trkpt lat="42.50314" lon="2.55604">
        <ele>1403.8000488281</ele>
        <time>2023-07-15T08:42:52.000Z</time>
      </trkpt>
      <trkpt lat="42.50306" lon="2.55603">
        <ele>1403.4000244141</ele>
        <time>2023-07-15T08:42:58.000Z</time>
      </trkpt>
      <trkpt lat="42.50297" lon="2.55604">
        <ele>1402.5999755859</ele>
        <time>2023-07-15T08:43:04.000Z</time>
      </trkpt>
      <trkpt lat="42.50284" lon="2.55607">
        <ele>1402.4000244141</ele>
        <time>2023-07-15T08:43:13.000Z</time>
      </trkpt>
      <trkpt lat="42.50271" lon="2.55609">
        <ele>1402</ele>
        <time>2023-07-15T08:43:22.000Z</time>
      </trkpt>
      <trkpt lat="42.50262" lon="2.55611">
        <ele>1401.5999755859</ele>
        <time>2023-07-15T08:43:27.000Z</time>
      </trkpt>
      <trkpt lat="42.50258" lon="2.55611">
        <ele>1401.4000244141</ele>
        <time>2023-07-15T08:43:30.000Z</time>
      </trkpt>
      <trkpt lat="42.50249" lon="2.55611">
        <ele>1401.1999511719</ele>
        <time>2023-07-15T08:43:36.000Z</time>
      </trkpt>
      <trkpt lat="42.50242" lon="2.55611">
        <ele>1400.5999755859</ele>
        <time>2023-07-15T08:43:42.000Z</time>
      </trkpt>
      <trkpt lat="42.50237" lon="2.55612">
        <ele>1400.4000244141</ele>
        <time>2023-07-15T08:43:45.000Z</time>
      </trkpt>
      <trkpt lat="42.50226" lon="2.55615">
        <ele>1399.5999755859</ele>
        <time>2023-07-15T08:43:53.000Z</time>
      </trkpt>
      <trkpt lat="42.50225" lon="2.55615">
        <ele>1399.5999755859</ele>
        <time>2023-07-15T08:43:54.000Z</time>
      </trkpt>
      <trkpt lat="42.50217" lon="2.55612">
        <ele>1398.5999755859</ele>
        <time>2023-07-15T08:43:59.000Z</time>
      </trkpt>
      <trkpt lat="42.50216" lon="2.55611">
        <ele>1398.4000244141</ele>
        <time>2023-07-15T08:44:00.000Z</time>
      </trkpt>
      <trkpt lat="42.50211" lon="2.5561">
        <ele>1397.4000244141</ele>
        <time>2023-07-15T08:44:06.000Z</time>
      </trkpt>
      <trkpt lat="42.5021" lon="2.5561">
        <ele>1397</ele>
        <time>2023-07-15T08:44:08.000Z</time>
      </trkpt>
      <trkpt lat="42.50204" lon="2.55609">
        <ele>1396.1999511719</ele>
        <time>2023-07-15T08:44:13.000Z</time>
      </trkpt>
      <trkpt lat="42.502" lon="2.5561">
        <ele>1395.8000488281</ele>
        <time>2023-07-15T08:44:16.000Z</time>
      </trkpt>
      <trkpt lat="42.50196" lon="2.55611">
        <ele>1395.1999511719</ele>
        <time>2023-07-15T08:44:20.000Z</time>
      </trkpt>
      <trkpt lat="42.50189" lon="2.55611">
        <ele>1394.4000244141</ele>
        <time>2023-07-15T08:44:25.000Z</time>
      </trkpt>
      <trkpt lat="42.50186" lon="2.55611">
        <ele>1394.1999511719</ele>
        <time>2023-07-15T08:44:27.000Z</time>
      </trkpt>
      <trkpt lat="42.50177" lon="2.55606">
        <ele>1393.5999755859</ele>
        <time>2023-07-15T08:44:33.000Z</time>
      </trkpt>
      <trkpt lat="42.50166" lon="2.55598">
        <ele>1393.5999755859</ele>
        <time>2023-07-15T08:44:41.000Z</time>
      </trkpt>
      <trkpt lat="42.50156" lon="2.55593">
        <ele>1394.4000244141</ele>
        <time>2023-07-15T08:44:49.000Z</time>
      </trkpt>
      <trkpt lat="42.50145" lon="2.55585">
        <ele>1395.1999511719</ele>
        <time>2023-07-15T08:44:57.000Z</time>
      </trkpt>
      <trkpt lat="42.50138" lon="2.55579">
        <ele>1395.5999755859</ele>
        <time>2023-07-15T08:45:03.000Z</time>
      </trkpt>
      <trkpt lat="42.50133" lon="2.55573">
        <ele>1396.1999511719</ele>
        <time>2023-07-15T08:45:08.000Z</time>
      </trkpt>
      <trkpt lat="42.50132" lon="2.55571">
        <ele>1396.5999755859</ele>
        <time>2023-07-15T08:45:10.000Z</time>
      </trkpt>
      <trkpt lat="42.5013" lon="2.55562">
        <ele>1397.1999511719</ele>
        <time>2023-07-15T08:45:15.000Z</time>
      </trkpt>
      <trkpt lat="42.50131" lon="2.55557">
        <ele>1397.5999755859</ele>
        <time>2023-07-15T08:45:18.000Z</time>
      </trkpt>
      <trkpt lat="42.50132" lon="2.55543">
        <ele>1398.4000244141</ele>
        <time>2023-07-15T08:45:25.000Z</time>
      </trkpt>
      <trkpt lat="42.50132" lon="2.55541">
        <ele>1398.4000244141</ele>
        <time>2023-07-15T08:45:26.000Z</time>
      </trkpt>
      <trkpt lat="42.50132" lon="2.55532">
        <ele>1399.4000244141</ele>
        <time>2023-07-15T08:45:32.000Z</time>
      </trkpt>
      <trkpt lat="42.50131" lon="2.55522">
        <ele>1399.8000488281</ele>
        <time>2023-07-15T08:45:37.000Z</time>
      </trkpt>
      <trkpt lat="42.50131" lon="2.55516">
        <ele>1400.4000244141</ele>
        <time>2023-07-15T08:45:41.000Z</time>
      </trkpt>
      <trkpt lat="42.5013" lon="2.55512">
        <ele>1400.8000488281</ele>
        <time>2023-07-15T08:45:44.000Z</time>
      </trkpt>
      <trkpt lat="42.5013" lon="2.55503">
        <ele>1401.4000244141</ele>
        <time>2023-07-15T08:45:49.000Z</time>
      </trkpt>
      <trkpt lat="42.5013" lon="2.555">
        <ele>1401.8000488281</ele>
        <time>2023-07-15T08:45:51.000Z</time>
      </trkpt>
      <trkpt lat="42.50131" lon="2.55491">
        <ele>1402.4000244141</ele>
        <time>2023-07-15T08:45:56.000Z</time>
      </trkpt>
      <trkpt lat="42.50131" lon="2.55489">
        <ele>1402.5999755859</ele>
        <time>2023-07-15T08:45:57.000Z</time>
      </trkpt>
      <trkpt lat="42.50131" lon="2.55481">
        <ele>1403.1999511719</ele>
        <time>2023-07-15T08:46:02.000Z</time>
      </trkpt>
      <trkpt lat="42.50131" lon="2.55478">
        <ele>1403.5999755859</ele>
        <time>2023-07-15T08:46:04.000Z</time>
      </trkpt>
      <trkpt lat="42.50131" lon="2.5547">
        <ele>1404.1999511719</ele>
        <time>2023-07-15T08:46:08.000Z</time>
      </trkpt>
      <trkpt lat="42.50131" lon="2.55467">
        <ele>1404.5999755859</ele>
        <time>2023-07-15T08:46:11.000Z</time>
      </trkpt>
      <trkpt lat="42.50133" lon="2.5546">
        <ele>1405.1999511719</ele>
        <time>2023-07-15T08:46:15.000Z</time>
      </trkpt>
      <trkpt lat="42.50134" lon="2.55454">
        <ele>1405.8000488281</ele>
        <time>2023-07-15T08:46:18.000Z</time>
      </trkpt>
      <trkpt lat="42.50134" lon="2.55448">
        <ele>1406.4000244141</ele>
        <time>2023-07-15T08:46:22.000Z</time>
      </trkpt>
      <trkpt lat="42.50134" lon="2.55443">
        <ele>1406.8000488281</ele>
        <time>2023-07-15T08:46:25.000Z</time>
      </trkpt>
      <trkpt lat="42.50135" lon="2.55438">
        <ele>1407.4000244141</ele>
        <time>2023-07-15T08:46:29.000Z</time>
      </trkpt>
      <trkpt lat="42.50136" lon="2.55427">
        <ele>1407.8000488281</ele>
        <time>2023-07-15T08:46:34.000Z</time>
      </trkpt>
      <trkpt lat="42.50136" lon="2.55425">
        <ele>1408.1999511719</ele>
        <time>2023-07-15T08:46:36.000Z</time>
      </trkpt>
      <trkpt lat="42.50139" lon="2.55417">
        <ele>1409</ele>
        <time>2023-07-15T08:46:41.000Z</time>
      </trkpt>
      <trkpt lat="42.5014" lon="2.55411">
        <ele>1409.5999755859</ele>
        <time>2023-07-15T08:46:44.000Z</time>
      </trkpt>
      <trkpt lat="42.50141" lon="2.55407">
        <ele>1410</ele>
        <time>2023-07-15T08:46:47.000Z</time>
      </trkpt>
      <trkpt lat="42.50141" lon="2.554">
        <ele>1410.8000488281</ele>
        <time>2023-07-15T08:46:51.000Z</time>
      </trkpt>
      <trkpt lat="42.50141" lon="2.55393">
        <ele>1411</ele>
        <time>2023-07-15T08:46:54.000Z</time>
      </trkpt>
      <trkpt lat="42.50138" lon="2.55389">
        <ele>1411.5999755859</ele>
        <time>2023-07-15T08:46:58.000Z</time>
      </trkpt>
      <trkpt lat="42.50137" lon="2.55383">
        <ele>1412.1999511719</ele>
        <time>2023-07-15T08:47:01.000Z</time>
      </trkpt>
      <trkpt lat="42.50136" lon="2.55378">
        <ele>1412.8000488281</ele>
        <time>2023-07-15T08:47:04.000Z</time>
      </trkpt>
      <trkpt lat="42.50135" lon="2.5537">
        <ele>1413.4000244141</ele>
        <time>2023-07-15T08:47:08.000Z</time>
      </trkpt>
      <trkpt lat="42.50133" lon="2.55363">
        <ele>1414</ele>
        <time>2023-07-15T08:47:12.000Z</time>
      </trkpt>
      <trkpt lat="42.50133" lon="2.5536">
        <ele>1414.4000244141</ele>
        <time>2023-07-15T08:47:15.000Z</time>
      </trkpt>
      <trkpt lat="42.50131" lon="2.55352">
        <ele>1415.4000244141</ele>
        <time>2023-07-15T08:47:21.000Z</time>
      </trkpt>
      <trkpt lat="42.50127" lon="2.55342">
        <ele>1416.4000244141</ele>
        <time>2023-07-15T08:47:27.000Z</time>
      </trkpt>
      <trkpt lat="42.50126" lon="2.55339">
        <ele>1416.8000488281</ele>
        <time>2023-07-15T08:47:29.000Z</time>
      </trkpt>
      <trkpt lat="42.50123" lon="2.55332">
        <ele>1417.4000244141</ele>
        <time>2023-07-15T08:47:33.000Z</time>
      </trkpt>
      <trkpt lat="42.5012" lon="2.55326">
        <ele>1418.1999511719</ele>
        <time>2023-07-15T08:47:37.000Z</time>
      </trkpt>
      <trkpt lat="42.50119" lon="2.55325">
        <ele>1418.5999755859</ele>
        <time>2023-07-15T08:47:39.000Z</time>
      </trkpt>
      <trkpt lat="42.50114" lon="2.55315">
        <ele>1419.8000488281</ele>
        <time>2023-07-15T08:47:45.000Z</time>
      </trkpt>
      <trkpt lat="42.5011" lon="2.55307">
        <ele>1420.8000488281</ele>
        <time>2023-07-15T08:47:51.000Z</time>
      </trkpt>
      <trkpt lat="42.5011" lon="2.55307">
        <ele>1421</ele>
        <time>2023-07-15T08:47:52.000Z</time>
      </trkpt>
      <trkpt lat="42.50111" lon="2.55305">
        <ele>1421.1999511719</ele>
        <time>2023-07-15T08:48:00.000Z</time>
      </trkpt>
      <trkpt lat="42.50115" lon="2.55301">
        <ele>1421.5999755859</ele>
        <time>2023-07-15T08:48:08.000Z</time>
      </trkpt>
      <trkpt lat="42.50114" lon="2.55304">
        <ele>1421.8000488281</ele>
        <time>2023-07-15T08:48:16.000Z</time>
      </trkpt>
      <trkpt lat="42.50108" lon="2.55299">
        <ele>1422.1999511719</ele>
        <time>2023-07-15T08:48:22.000Z</time>
      </trkpt>
      <trkpt lat="42.50105" lon="2.55291">
        <ele>1423.1999511719</ele>
        <time>2023-07-15T08:48:28.000Z</time>
      </trkpt>
      <trkpt lat="42.50105" lon="2.55289">
        <ele>1423.4000244141</ele>
        <time>2023-07-15T08:48:29.000Z</time>
      </trkpt>
      <trkpt lat="42.50101" lon="2.55277">
        <ele>1424.1999511719</ele>
        <time>2023-07-15T08:48:37.000Z</time>
      </trkpt>
      <trkpt lat="42.50101" lon="2.55276">
        <ele>1424.5999755859</ele>
        <time>2023-07-15T08:48:38.000Z</time>
      </trkpt>
      <trkpt lat="42.50099" lon="2.55267">
        <ele>1425.4000244141</ele>
        <time>2023-07-15T08:48:44.000Z</time>
      </trkpt>
      <trkpt lat="42.50099" lon="2.55264">
        <ele>1425.5999755859</ele>
        <time>2023-07-15T08:48:46.000Z</time>
      </trkpt>
      <trkpt lat="42.50099" lon="2.55251">
        <ele>1426.1999511719</ele>
        <time>2023-07-15T08:48:52.000Z</time>
      </trkpt>
      <trkpt lat="42.50099" lon="2.55247">
        <ele>1426.4000244141</ele>
        <time>2023-07-15T08:48:54.000Z</time>
      </trkpt>
      <trkpt lat="42.50101" lon="2.55238">
        <ele>1427.5999755859</ele>
        <time>2023-07-15T08:49:01.000Z</time>
      </trkpt>
      <trkpt lat="42.501" lon="2.55236">
        <ele>1427.8000488281</ele>
        <time>2023-07-15T08:49:03.000Z</time>
      </trkpt>
      <trkpt lat="42.50101" lon="2.55226">
        <ele>1428.5999755859</ele>
        <time>2023-07-15T08:49:09.000Z</time>
      </trkpt>
      <trkpt lat="42.50101" lon="2.55223">
        <ele>1428.8000488281</ele>
        <time>2023-07-15T08:49:11.000Z</time>
      </trkpt>
      <trkpt lat="42.50101" lon="2.55214">
        <ele>1429.8000488281</ele>
        <time>2023-07-15T08:49:16.000Z</time>
      </trkpt>
      <trkpt lat="42.50103" lon="2.55208">
        <ele>1430.4000244141</ele>
        <time>2023-07-15T08:49:20.000Z</time>
      </trkpt>
      <trkpt lat="42.50104" lon="2.55203">
        <ele>1431</ele>
        <time>2023-07-15T08:49:23.000Z</time>
      </trkpt>
      <trkpt lat="42.50105" lon="2.55191">
        <ele>1432.1999511719</ele>
        <time>2023-07-15T08:49:30.000Z</time>
      </trkpt>
      <trkpt lat="42.50107" lon="2.5518">
        <ele>1433.1999511719</ele>
        <time>2023-07-15T08:49:36.000Z</time>
      </trkpt>
      <trkpt lat="42.50107" lon="2.55175">
        <ele>1433.5999755859</ele>
        <time>2023-07-15T08:49:39.000Z</time>
      </trkpt>
      <trkpt lat="42.50109" lon="2.55168">
        <ele>1434.1999511719</ele>
        <time>2023-07-15T08:49:43.000Z</time>
      </trkpt>
      <trkpt lat="42.50111" lon="2.55158">
        <ele>1435</ele>
        <time>2023-07-15T08:49:48.000Z</time>
      </trkpt>
      <trkpt lat="42.50112" lon="2.55154">
        <ele>1435.4000244141</ele>
        <time>2023-07-15T08:49:50.000Z</time>
      </trkpt>
      <trkpt lat="42.50115" lon="2.5514">
        <ele>1436.5999755859</ele>
        <time>2023-07-15T08:49:56.000Z</time>
      </trkpt>
      <trkpt lat="42.50115" lon="2.55137">
        <ele>1436.8000488281</ele>
        <time>2023-07-15T08:49:57.000Z</time>
      </trkpt>
      <trkpt lat="42.50117" lon="2.55128">
        <ele>1437.8000488281</ele>
        <time>2023-07-15T08:50:02.000Z</time>
      </trkpt>
      <trkpt lat="42.50119" lon="2.55123">
        <ele>1438.4000244141</ele>
        <time>2023-07-15T08:50:06.000Z</time>
      </trkpt>
      <trkpt lat="42.5012" lon="2.55118">
        <ele>1438.8000488281</ele>
        <time>2023-07-15T08:50:09.000Z</time>
      </trkpt>
      <trkpt lat="42.50122" lon="2.5511">
        <ele>1439.4000244141</ele>
        <time>2023-07-15T08:50:13.000Z</time>
      </trkpt>
      <trkpt lat="42.50122" lon="2.55107">
        <ele>1439.8000488281</ele>
        <time>2023-07-15T08:50:15.000Z</time>
      </trkpt>
      <trkpt lat="42.50124" lon="2.55099">
        <ele>1440.8000488281</ele>
        <time>2023-07-15T08:50:22.000Z</time>
      </trkpt>
      <trkpt lat="42.50126" lon="2.55091">
        <ele>1441.8000488281</ele>
        <time>2023-07-15T08:50:28.000Z</time>
      </trkpt>
      <trkpt lat="42.50127" lon="2.55087">
        <ele>1442.1999511719</ele>
        <time>2023-07-15T08:50:30.000Z</time>
      </trkpt>
      <trkpt lat="42.5013" lon="2.55079">
        <ele>1443</ele>
        <time>2023-07-15T08:50:35.000Z</time>
      </trkpt>
      <trkpt lat="42.50132" lon="2.55076">
        <ele>1443.4000244141</ele>
        <time>2023-07-15T08:50:38.000Z</time>
      </trkpt>
      <trkpt lat="42.50134" lon="2.55066">
        <ele>1444</ele>
        <time>2023-07-15T08:50:43.000Z</time>
      </trkpt>
      <trkpt lat="42.50134" lon="2.55063">
        <ele>1444.4000244141</ele>
        <time>2023-07-15T08:50:45.000Z</time>
      </trkpt>
      <trkpt lat="42.50136" lon="2.55057">
        <ele>1445</ele>
        <time>2023-07-15T08:50:50.000Z</time>
      </trkpt>
      <trkpt lat="42.50137" lon="2.55049">
        <ele>1445.5999755859</ele>
        <time>2023-07-15T08:50:53.000Z</time>
      </trkpt>
      <trkpt lat="42.5014" lon="2.55042">
        <ele>1446.1999511719</ele>
        <time>2023-07-15T08:50:57.000Z</time>
      </trkpt>
      <trkpt lat="42.50141" lon="2.55037">
        <ele>1446.5999755859</ele>
        <time>2023-07-15T08:51:00.000Z</time>
      </trkpt>
      <trkpt lat="42.50142" lon="2.55029">
        <ele>1447.1999511719</ele>
        <time>2023-07-15T08:51:04.000Z</time>
      </trkpt>
      <trkpt lat="42.50143" lon="2.55026">
        <ele>1447.5999755859</ele>
        <time>2023-07-15T08:51:07.000Z</time>
      </trkpt>
      <trkpt lat="42.50145" lon="2.55018">
        <ele>1448.4000244141</ele>
        <time>2023-07-15T08:51:11.000Z</time>
      </trkpt>
      <trkpt lat="42.50147" lon="2.55012">
        <ele>1448.8000488281</ele>
        <time>2023-07-15T08:51:14.000Z</time>
      </trkpt>
      <trkpt lat="42.50147" lon="2.55008">
        <ele>1449.5999755859</ele>
        <time>2023-07-15T08:51:17.000Z</time>
      </trkpt>
      <trkpt lat="42.50148" lon="2.55003">
        <ele>1450</ele>
        <time>2023-07-15T08:51:20.000Z</time>
      </trkpt>
      <trkpt lat="42.5015" lon="2.54992">
        <ele>1450.8000488281</ele>
        <time>2023-07-15T08:51:26.000Z</time>
      </trkpt>
      <trkpt lat="42.5015" lon="2.54989">
        <ele>1451.1999511719</ele>
        <time>2023-07-15T08:51:28.000Z</time>
      </trkpt>
      <trkpt lat="42.50152" lon="2.54978">
        <ele>1452</ele>
        <time>2023-07-15T08:51:33.000Z</time>
      </trkpt>
      <trkpt lat="42.50152" lon="2.54976">
        <ele>1452.1999511719</ele>
        <time>2023-07-15T08:51:34.000Z</time>
      </trkpt>
      <trkpt lat="42.50152" lon="2.54967">
        <ele>1453</ele>
        <time>2023-07-15T08:51:39.000Z</time>
      </trkpt>
      <trkpt lat="42.50154" lon="2.54956">
        <ele>1453.8000488281</ele>
        <time>2023-07-15T08:51:45.000Z</time>
      </trkpt>
      <trkpt lat="42.50154" lon="2.54955">
        <ele>1454</ele>
        <time>2023-07-15T08:51:46.000Z</time>
      </trkpt>
      <trkpt lat="42.50155" lon="2.5495">
        <ele>1454.5999755859</ele>
        <time>2023-07-15T08:51:52.000Z</time>
      </trkpt>
      <trkpt lat="42.50155" lon="2.5495">
        <ele>1455.1999511719</ele>
        <time>2023-07-15T08:51:56.000Z</time>
      </trkpt>
      <trkpt lat="42.50155" lon="2.54951">
        <ele>1455.4000244141</ele>
        <time>2023-07-15T08:51:58.000Z</time>
      </trkpt>
      <trkpt lat="42.50154" lon="2.5495">
        <ele>1455.4000244141</ele>
        <time>2023-07-15T08:52:00.000Z</time>
      </trkpt>
      <trkpt lat="42.50157" lon="2.54947">
        <ele>1455.4000244141</ele>
        <time>2023-07-15T08:52:08.000Z</time>
      </trkpt>
      <trkpt lat="42.5016" lon="2.54934">
        <ele>1456.1999511719</ele>
        <time>2023-07-15T08:52:14.000Z</time>
      </trkpt>
      <trkpt lat="42.50161" lon="2.54927">
        <ele>1456.8000488281</ele>
        <time>2023-07-15T08:52:19.000Z</time>
      </trkpt>
      <trkpt lat="42.50162" lon="2.54923">
        <ele>1457.1999511719</ele>
        <time>2023-07-15T08:52:21.000Z</time>
      </trkpt>
      <trkpt lat="42.50163" lon="2.54914">
        <ele>1457.8000488281</ele>
        <time>2023-07-15T08:52:25.000Z</time>
      </trkpt>
      <trkpt lat="42.50163" lon="2.5491">
        <ele>1458.1999511719</ele>
        <time>2023-07-15T08:52:28.000Z</time>
      </trkpt>
      <trkpt lat="42.50163" lon="2.54906">
        <ele>1458.4000244141</ele>
        <time>2023-07-15T08:52:31.000Z</time>
      </trkpt>
      <trkpt lat="42.50163" lon="2.54895">
        <ele>1459.1999511719</ele>
        <time>2023-07-15T08:52:37.000Z</time>
      </trkpt>
      <trkpt lat="42.50163" lon="2.54892">
        <ele>1459.4000244141</ele>
        <time>2023-07-15T08:52:39.000Z</time>
      </trkpt>
      <trkpt lat="42.50165" lon="2.54881">
        <ele>1460.4000244141</ele>
        <time>2023-07-15T08:52:45.000Z</time>
      </trkpt>
      <trkpt lat="42.50165" lon="2.54879">
        <ele>1460.5999755859</ele>
        <time>2023-07-15T08:52:46.000Z</time>
      </trkpt>
      <trkpt lat="42.50166" lon="2.54862">
        <ele>1461.4000244141</ele>
        <time>2023-07-15T08:52:55.000Z</time>
      </trkpt>
      <trkpt lat="42.50166" lon="2.5486">
        <ele>1461.5999755859</ele>
        <time>2023-07-15T08:52:56.000Z</time>
      </trkpt>
      <trkpt lat="42.50167" lon="2.54847">
        <ele>1462.4000244141</ele>
        <time>2023-07-15T08:53:03.000Z</time>
      </trkpt>
      <trkpt lat="42.50167" lon="2.54845">
        <ele>1462.5999755859</ele>
        <time>2023-07-15T08:53:04.000Z</time>
      </trkpt>
      <trkpt lat="42.50168" lon="2.54835">
        <ele>1463.4000244141</ele>
        <time>2023-07-15T08:53:10.000Z</time>
      </trkpt>
      <trkpt lat="42.5017" lon="2.54836">
        <ele>1463.5999755859</ele>
        <time>2023-07-15T08:53:13.000Z</time>
      </trkpt>
      <trkpt lat="42.50171" lon="2.54836">
        <ele>1464</ele>
        <time>2023-07-15T08:53:15.000Z</time>
      </trkpt>
      <trkpt lat="42.50172" lon="2.54835">
        <ele>1464.1999511719</ele>
        <time>2023-07-15T08:53:16.000Z</time>
      </trkpt>
      <trkpt lat="42.50175" lon="2.54833">
        <ele>1464.4000244141</ele>
        <time>2023-07-15T08:53:23.000Z</time>
      </trkpt>
      <trkpt lat="42.50174" lon="2.54835">
        <ele>1464.5999755859</ele>
        <time>2023-07-15T08:53:45.000Z</time>
      </trkpt>
      <trkpt lat="42.50168" lon="2.54831">
        <ele>1459.5</ele>
        <time>2023-07-15T09:50:15Z</time>
      </trkpt>
      <trkpt lat="42.50169" lon="2.54817">
        <ele>1460.8</ele>
        <time>2023-07-15T09:50:30Z</time>
      </trkpt>
      <trkpt lat="42.50171" lon="2.54805">
        <ele>1462.2</ele>
        <time>2023-07-15T09:50:45Z</time>
      </trkpt>
      <trkpt lat="42.50174" lon="2.54749">
        <ele>1465.3</ele>
        <time>2023-07-15T09:51:00Z</time>
      </trkpt>
      <trkpt lat="42.50177" lon="2.54737">
        <ele>1467.1</ele>
        <time>2023-07-15T09:51:15Z</time>
      </trkpt>
      <trkpt lat="42.50182" lon="2.54737">
        <ele>1469</ele>
        <time>2023-07-15T09:51:30Z</time>
      </trkpt>
      <trkpt lat="42.50185" lon="2.54745">
        <ele>1469.9</ele>
        <time>2023-07-15T09:51:45Z</time>
      </trkpt>
      <trkpt lat="42.50193" lon="2.54835">
        <ele>1472.3</ele>
        <time>2023-07-15T09:52:00Z</time>
      </trkpt>
      <trkpt lat="42.502" lon="2.54882">
        <ele>1474.9</ele>
        <time>2023-07-15T09:52:15Z</time>
      </trkpt>
      <trkpt lat="42.50206" lon="2.54912">
        <ele>1476.9</ele>
        <time>2023-07-15T09:52:30Z</time>
      </trkpt>
      <trkpt lat="42.50206" lon="2.54931">
        <ele>1477.7</ele>
        <time>2023-07-15T09:52:45Z</time>
      </trkpt>
      <trkpt lat="42.50195" lon="2.55006">
        <ele>1478.4</ele>
        <time>2023-07-15T09:53:00Z</time>
      </trkpt>
      <trkpt lat="42.50196" lon="2.55088">
        <ele>1482.3</ele>
        <time>2023-07-15T09:53:15Z</time>
      </trkpt>
      <trkpt lat="42.50198" lon="2.55093">
        <ele>1483.3</ele>
        <time>2023-07-15T09:53:30Z</time>
      </trkpt>
      <trkpt lat="42.50202" lon="2.55087">
        <ele>1484.9</ele>
        <time>2023-07-15T09:53:45Z</time>
      </trkpt>
      <trkpt lat="42.50206" lon="2.55056">
        <ele>1486</ele>
        <time>2023-07-15T09:54:00Z</time>
      </trkpt>
      <trkpt lat="42.50208" lon="2.55006">
        <ele>1485.9</ele>
        <time>2023-07-15T09:54:15Z</time>
      </trkpt>
      <trkpt lat="42.50212" lon="2.54992">
        <ele>1487</ele>
        <time>2023-07-15T09:54:30Z</time>
      </trkpt>
      <trkpt lat="42.50221" lon="2.54974">
        <ele>1489.5</ele>
        <time>2023-07-15T09:54:45Z</time>
      </trkpt>
      <trkpt lat="42.50227" lon="2.54957">
        <ele>1491.6</ele>
        <time>2023-07-15T09:55:00Z</time>
      </trkpt>
      <trkpt lat="42.50234" lon="2.54945">
        <ele>1494.3</ele>
        <time>2023-07-15T09:55:15Z</time>
      </trkpt>
      <trkpt lat="42.50248" lon="2.54939">
        <ele>1501.8</ele>
        <time>2023-07-15T09:55:30Z</time>
      </trkpt>
      <trkpt lat="42.50259" lon="2.54937">
        <ele>1507.4</ele>
        <time>2023-07-15T09:55:45Z</time>
      </trkpt>
      <trkpt lat="42.5026" lon="2.5496">
        <ele>1509.3</ele>
        <time>2023-07-15T09:56:00Z</time>
      </trkpt>
      <trkpt lat="42.50256" lon="2.55001">
        <ele>1510.9</ele>
        <time>2023-07-15T09:56:15Z</time>
      </trkpt>
      <trkpt lat="42.50258" lon="2.55032">
        <ele>1512.5</ele>
        <time>2023-07-15T09:56:30Z</time>
      </trkpt>
      <trkpt lat="42.50271" lon="2.55111">
        <ele>1518.7</ele>
        <time>2023-07-15T09:56:45Z</time>
      </trkpt>
      <trkpt lat="42.50273" lon="2.55119">
        <ele>1519.1</ele>
        <time>2023-07-15T09:57:00Z</time>
      </trkpt>
      <trkpt lat="42.50281" lon="2.55125">
        <ele>1520.2</ele>
        <time>2023-07-15T09:57:15Z</time>
      </trkpt>
      <trkpt lat="42.50288" lon="2.55124">
        <ele>1520.6</ele>
        <time>2023-07-15T09:57:30Z</time>
      </trkpt>
      <trkpt lat="42.50304" lon="2.5511">
        <ele>1523.9</ele>
        <time>2023-07-15T09:57:45Z</time>
      </trkpt>
      <trkpt lat="42.50323" lon="2.55089">
        <ele>1527.3</ele>
        <time>2023-07-15T09:58:00Z</time>
      </trkpt>
      <trkpt lat="42.50343" lon="2.5506">
        <ele>1532.1</ele>
        <time>2023-07-15T09:58:15Z</time>
      </trkpt>
      <trkpt lat="42.50349" lon="2.55052">
        <ele>1533.5</ele>
        <time>2023-07-15T09:58:30Z</time>
      </trkpt>
      <trkpt lat="42.50362" lon="2.55022">
        <ele>1538.2</ele>
        <time>2023-07-15T09:58:45Z</time>
      </trkpt>
      <trkpt lat="42.50378" lon="2.55011">
        <ele>1542</ele>
        <time>2023-07-15T09:59:00Z</time>
      </trkpt>
      <trkpt lat="42.50391" lon="2.55008">
        <ele>1544.2</ele>
        <time>2023-07-15T09:59:15Z</time>
      </trkpt>
      <trkpt lat="42.50404" lon="2.55005">
        <ele>1546.9</ele>
        <time>2023-07-15T09:59:30Z</time>
      </trkpt>
      <trkpt lat="42.50425" lon="2.54994">
        <ele>1551.6</ele>
        <time>2023-07-15T09:59:45Z</time>
      </trkpt>
      <trkpt lat="42.5045" lon="2.54983">
        <ele>1556.7</ele>
        <time>2023-07-15T10:00:00Z</time>
      </trkpt>
      <trkpt lat="42.5046" lon="2.54975">
        <ele>1559</ele>
        <time>2023-07-15T10:00:15Z</time>
      </trkpt>
      <trkpt lat="42.50472" lon="2.5497">
        <ele>1560.5</ele>
        <time>2023-07-15T10:00:30Z</time>
      </trkpt>
      <trkpt lat="42.50479" lon="2.54966">
        <ele>1561.6</ele>
        <time>2023-07-15T10:00:45Z</time>
      </trkpt>
      <trkpt lat="42.5046" lon="2.54959">
        <ele>1562.6</ele>
        <time>2023-07-15T10:01:00Z</time>
      </trkpt>
      <trkpt lat="42.50461" lon="2.54956">
        <ele>1564</ele>
        <time>2023-07-15T10:01:36.000Z</time>
      </trkpt>
      <trkpt lat="42.50453" lon="2.54954">
        <ele>1564.1999511719</ele>
        <time>2023-07-15T10:01:40.000Z</time>
      </trkpt>
      <trkpt lat="42.5045" lon="2.54951">
        <ele>1564.8000488281</ele>
        <time>2023-07-15T10:01:44.000Z</time>
      </trkpt>
      <trkpt lat="42.5045" lon="2.54952">
        <ele>1565.1999511719</ele>
        <time>2023-07-15T10:01:48.000Z</time>
      </trkpt>
      <trkpt lat="42.50451" lon="2.54952">
        <ele>1565.1999511719</ele>
        <time>2023-07-15T10:01:50.000Z</time>
      </trkpt>
      <trkpt lat="42.50449" lon="2.54948">
        <ele>1565.8000488281</ele>
        <time>2023-07-15T10:01:57.000Z</time>
      </trkpt>
      <trkpt lat="42.5044" lon="2.54943">
        <ele>1565.4000244141</ele>
        <time>2023-07-15T10:02:04.000Z</time>
      </trkpt>
      <trkpt lat="42.50429" lon="2.54938">
        <ele>1566.1999511719</ele>
        <time>2023-07-15T10:02:12.000Z</time>
      </trkpt>
      <trkpt lat="42.50421" lon="2.54931">
        <ele>1566.5999755859</ele>
        <time>2023-07-15T10:02:20.000Z</time>
      </trkpt>
      <trkpt lat="42.50411" lon="2.54926">
        <ele>1566.8000488281</ele>
        <time>2023-07-15T10:02:28.000Z</time>
      </trkpt>
      <trkpt lat="42.50403" lon="2.54923">
        <ele>1566.4000244141</ele>
        <time>2023-07-15T10:02:37.000Z</time>
      </trkpt>
      <trkpt lat="42.50405" lon="2.54921">
        <ele>1566.4000244141</ele>
        <time>2023-07-15T10:02:40.000Z</time>
      </trkpt>
      <trkpt lat="42.50406" lon="2.54918">
        <ele>1566.4000244141</ele>
        <time>2023-07-15T10:02:43.000Z</time>
      </trkpt>
      <trkpt lat="42.50408" lon="2.54912">
        <ele>1567.4000244141</ele>
        <time>2023-07-15T10:02:49.000Z</time>
      </trkpt>
      <trkpt lat="42.50408" lon="2.54911">
        <ele>1567.4000244141</ele>
        <time>2023-07-15T10:02:50.000Z</time>
      </trkpt>
      <trkpt lat="42.5041" lon="2.54908">
        <ele>1568.5999755859</ele>
        <time>2023-07-15T10:02:56.000Z</time>
      </trkpt>
      <trkpt lat="42.50411" lon="2.54907">
        <ele>1568.8000488281</ele>
        <time>2023-07-15T10:02:57.000Z</time>
      </trkpt>
      <trkpt lat="42.50414" lon="2.54904">
        <ele>1569.8000488281</ele>
        <time>2023-07-15T10:03:02.000Z</time>
      </trkpt>
      <trkpt lat="42.50416" lon="2.549">
        <ele>1570.4000244141</ele>
        <time>2023-07-15T10:03:07.000Z</time>
      </trkpt>
      <trkpt lat="42.50417" lon="2.54899">
        <ele>1571</ele>
        <time>2023-07-15T10:03:10.000Z</time>
      </trkpt>
      <trkpt lat="42.50418" lon="2.54897">
        <ele>1572</ele>
        <time>2023-07-15T10:03:14.000Z</time>
      </trkpt>
      <trkpt lat="42.50419" lon="2.54896">
        <ele>1572.1999511719</ele>
        <time>2023-07-15T10:03:15.000Z</time>
      </trkpt>
      <trkpt lat="42.50421" lon="2.5489">
        <ele>1573.1999511719</ele>
        <time>2023-07-15T10:03:24.000Z</time>
      </trkpt>
      <trkpt lat="42.50422" lon="2.54886">
        <ele>1574.4000244141</ele>
        <time>2023-07-15T10:03:30.000Z</time>
      </trkpt>
      <trkpt lat="42.50423" lon="2.54884">
        <ele>1574.8000488281</ele>
        <time>2023-07-15T10:03:33.000Z</time>
      </trkpt>
      <trkpt lat="42.50426" lon="2.5488">
        <ele>1575.4000244141</ele>
        <time>2023-07-15T10:03:38.000Z</time>
      </trkpt>
      <trkpt lat="42.50426" lon="2.5488">
        <ele>1575.8000488281</ele>
        <time>2023-07-15T10:03:40.000Z</time>
      </trkpt>
      <trkpt lat="42.50428" lon="2.54877">
        <ele>1576.4000244141</ele>
        <time>2023-07-15T10:03:44.000Z</time>
      </trkpt>
      <trkpt lat="42.50429" lon="2.54875">
        <ele>1577</ele>
        <time>2023-07-15T10:03:47.000Z</time>
      </trkpt>
      <trkpt lat="42.5043" lon="2.54871">
        <ele>1577.5999755859</ele>
        <time>2023-07-15T10:03:50.000Z</time>
      </trkpt>
      <trkpt lat="42.5043" lon="2.54868">
        <ele>1578.1999511719</ele>
        <time>2023-07-15T10:03:53.000Z</time>
      </trkpt>
      <trkpt lat="42.50431" lon="2.54865">
        <ele>1578.8000488281</ele>
        <time>2023-07-15T10:03:56.000Z</time>
      </trkpt>
      <trkpt lat="42.50432" lon="2.54862">
        <ele>1579.4000244141</ele>
        <time>2023-07-15T10:04:00.000Z</time>
      </trkpt>
      <trkpt lat="42.50433" lon="2.54861">
        <ele>1579.8000488281</ele>
        <time>2023-07-15T10:04:02.000Z</time>
      </trkpt>
      <trkpt lat="42.50435" lon="2.54857">
        <ele>1580.8000488281</ele>
        <time>2023-07-15T10:04:08.000Z</time>
      </trkpt>
      <trkpt lat="42.50437" lon="2.54853">
        <ele>1582</ele>
        <time>2023-07-15T10:04:16.000Z</time>
      </trkpt>
      <trkpt lat="42.50439" lon="2.54847">
        <ele>1583</ele>
        <time>2023-07-15T10:04:24.000Z</time>
      </trkpt>
      <trkpt lat="42.50439" lon="2.54846">
        <ele>1583.1999511719</ele>
        <time>2023-07-15T10:04:25.000Z</time>
      </trkpt>
      <trkpt lat="42.50441" lon="2.54841">
        <ele>1584</ele>
        <time>2023-07-15T10:04:32.000Z</time>
      </trkpt>
      <trkpt lat="42.50441" lon="2.54841">
        <ele>1584.5999755859</ele>
        <time>2023-07-15T10:04:33.000Z</time>
      </trkpt>
      <trkpt lat="42.50442" lon="2.54835">
        <ele>1585.8000488281</ele>
        <time>2023-07-15T10:04:39.000Z</time>
      </trkpt>
      <trkpt lat="42.50442" lon="2.54833">
        <ele>1586.1999511719</ele>
        <time>2023-07-15T10:04:42.000Z</time>
      </trkpt>
      <trkpt lat="42.50442" lon="2.54827">
        <ele>1586.8000488281</ele>
        <time>2023-07-15T10:04:47.000Z</time>
      </trkpt>
      <trkpt lat="42.50442" lon="2.54825">
        <ele>1587.1999511719</ele>
        <time>2023-07-15T10:04:50.000Z</time>
      </trkpt>
      <trkpt lat="42.50441" lon="2.54821">
        <ele>1587.8000488281</ele>
        <time>2023-07-15T10:04:55.000Z</time>
      </trkpt>
      <trkpt lat="42.50441" lon="2.54821">
        <ele>1588.4000244141</ele>
        <time>2023-07-15T10:04:58.000Z</time>
      </trkpt>
      <trkpt lat="42.50442" lon="2.54817">
        <ele>1589</ele>
        <time>2023-07-15T10:05:02.000Z</time>
      </trkpt>
      <trkpt lat="42.50442" lon="2.54813">
        <ele>1589.5999755859</ele>
        <time>2023-07-15T10:05:06.000Z</time>
      </trkpt>
      <trkpt lat="42.50442" lon="2.54812">
        <ele>1590</ele>
        <time>2023-07-15T10:05:08.000Z</time>
      </trkpt>
      <trkpt lat="42.50443" lon="2.5481">
        <ele>1591</ele>
        <time>2023-07-15T10:05:13.000Z</time>
      </trkpt>
      <trkpt lat="42.50443" lon="2.54809">
        <ele>1591.1999511719</ele>
        <time>2023-07-15T10:05:14.000Z</time>
      </trkpt>
      <trkpt lat="42.50444" lon="2.54806">
        <ele>1592.1999511719</ele>
        <time>2023-07-15T10:05:19.000Z</time>
      </trkpt>
      <trkpt lat="42.50444" lon="2.54806">
        <ele>1592.4000244141</ele>
        <time>2023-07-15T10:05:20.000Z</time>
      </trkpt>
      <trkpt lat="42.50445" lon="2.54803">
        <ele>1593.5999755859</ele>
        <time>2023-07-15T10:05:25.000Z</time>
      </trkpt>
      <trkpt lat="42.50446" lon="2.54799">
        <ele>1594.1999511719</ele>
        <time>2023-07-15T10:05:28.000Z</time>
      </trkpt>
      <trkpt lat="42.50446" lon="2.54797">
        <ele>1594.5999755859</ele>
        <time>2023-07-15T10:05:30.000Z</time>
      </trkpt>
      <trkpt lat="42.50445" lon="2.54791">
        <ele>1595.5999755859</ele>
        <time>2023-07-15T10:05:36.000Z</time>
      </trkpt>
      <trkpt lat="42.50445" lon="2.5479">
        <ele>1595.8000488281</ele>
        <time>2023-07-15T10:05:37.000Z</time>
      </trkpt>
      <trkpt lat="42.50445" lon="2.54783">
        <ele>1596.8000488281</ele>
        <time>2023-07-15T10:05:42.000Z</time>
      </trkpt>
      <trkpt lat="42.50445" lon="2.54778">
        <ele>1597.5999755859</ele>
        <time>2023-07-15T10:05:46.000Z</time>
      </trkpt>
      <trkpt lat="42.50443" lon="2.54775">
        <ele>1598</ele>
        <time>2023-07-15T10:05:50.000Z</time>
      </trkpt>
      <trkpt lat="42.50442" lon="2.54771">
        <ele>1598.5999755859</ele>
        <time>2023-07-15T10:05:54.000Z</time>
      </trkpt>
      <trkpt lat="42.50442" lon="2.54767">
        <ele>1599</ele>
        <time>2023-07-15T10:05:57.000Z</time>
      </trkpt>
      <trkpt lat="42.50442" lon="2.54763">
        <ele>1600</ele>
        <time>2023-07-15T10:06:01.000Z</time>
      </trkpt>
      <trkpt lat="42.50442" lon="2.54762">
        <ele>1600</ele>
        <time>2023-07-15T10:06:02.000Z</time>
      </trkpt>
      <trkpt lat="42.50441" lon="2.54754">
        <ele>1601.1999511719</ele>
        <time>2023-07-15T10:06:08.000Z</time>
      </trkpt>
      <trkpt lat="42.50441" lon="2.54753">
        <ele>1601.4000244141</ele>
        <time>2023-07-15T10:06:09.000Z</time>
      </trkpt>
      <trkpt lat="42.50439" lon="2.54749">
        <ele>1602.4000244141</ele>
        <time>2023-07-15T10:06:15.000Z</time>
      </trkpt>
      <trkpt lat="42.50439" lon="2.54748">
        <ele>1602.8000488281</ele>
        <time>2023-07-15T10:06:21.000Z</time>
      </trkpt>
      <trkpt lat="42.5044" lon="2.54748">
        <ele>1602.5999755859</ele>
        <time>2023-07-15T10:06:33.000Z</time>
      </trkpt>
      <trkpt lat="42.5044" lon="2.54749">
        <ele>1602.4000244141</ele>
        <time>2023-07-15T10:06:42.000Z</time>
      </trkpt>
      <trkpt lat="42.50438" lon="2.54749">
        <ele>1602.4000244141</ele>
        <time>2023-07-15T10:06:52.000Z</time>
      </trkpt>
      <trkpt lat="42.5044" lon="2.54748">
        <ele>1602.4000244141</ele>
        <time>2023-07-15T10:07:02.000Z</time>
      </trkpt>
      <trkpt lat="42.50441" lon="2.5475">
        <ele>1602.4000244141</ele>
        <time>2023-07-15T10:07:14.000Z</time>
      </trkpt>
      <trkpt lat="42.50439" lon="2.54748">
        <ele>1602.1999511719</ele>
        <time>2023-07-15T10:07:25.000Z</time>
      </trkpt>
      <trkpt lat="42.5044" lon="2.54746">
        <ele>1601.8000488281</ele>
        <time>2023-07-15T10:07:34.000Z</time>
      </trkpt>
      <trkpt lat="42.50441" lon="2.54749">
        <ele>1601.5999755859</ele>
        <time>2023-07-15T10:07:44.000Z</time>
      </trkpt>
      <trkpt lat="42.5044" lon="2.54749">
        <ele>1601.8000488281</ele>
        <time>2023-07-15T10:07:53.000Z</time>
      </trkpt>
      <trkpt lat="42.50441" lon="2.54745">
        <ele>1602</ele>
        <time>2023-07-15T10:08:02.000Z</time>
      </trkpt>
      <trkpt lat="42.50441" lon="2.54735">
        <ele>1603.4000244141</ele>
        <time>2023-07-15T10:08:11.000Z</time>
      </trkpt>
      <trkpt lat="42.50441" lon="2.54727">
        <ele>1604.4000244141</ele>
        <time>2023-07-15T10:08:16.000Z</time>
      </trkpt>
      <trkpt lat="42.5044" lon="2.54725">
        <ele>1604.5999755859</ele>
        <time>2023-07-15T10:08:18.000Z</time>
      </trkpt>
      <trkpt lat="42.5044" lon="2.54715">
        <ele>1605.5999755859</ele>
        <time>2023-07-15T10:08:25.000Z</time>
      </trkpt>
      <trkpt lat="42.5044" lon="2.54708">
        <ele>1606.5999755859</ele>
        <time>2023-07-15T10:08:30.000Z</time>
      </trkpt>
      <trkpt lat="42.50439" lon="2.54705">
        <ele>1607.1999511719</ele>
        <time>2023-07-15T10:08:33.000Z</time>
      </trkpt>
      <trkpt lat="42.50438" lon="2.54703">
        <ele>1607.8000488281</ele>
        <time>2023-07-15T10:08:36.000Z</time>
      </trkpt>
      <trkpt lat="42.50437" lon="2.54694">
        <ele>1608.8000488281</ele>
        <time>2023-07-15T10:08:41.000Z</time>
      </trkpt>
      <trkpt lat="42.50437" lon="2.54693">
        <ele>1609</ele>
        <time>2023-07-15T10:08:42.000Z</time>
      </trkpt>
      <trkpt lat="42.50437" lon="2.54679">
        <ele>1610.1999511719</ele>
        <time>2023-07-15T10:08:51.000Z</time>
      </trkpt>
      <trkpt lat="42.50438" lon="2.54674">
        <ele>1611</ele>
        <time>2023-07-15T10:08:57.000Z</time>
      </trkpt>
      <trkpt lat="42.50438" lon="2.54672">
        <ele>1611.1999511719</ele>
        <time>2023-07-15T10:08:59.000Z</time>
      </trkpt>
      <trkpt lat="42.50437" lon="2.5466">
        <ele>1612.1999511719</ele>
        <time>2023-07-15T10:09:06.000Z</time>
      </trkpt>
      <trkpt lat="42.50437" lon="2.54659">
        <ele>1612.4000244141</ele>
        <time>2023-07-15T10:09:07.000Z</time>
      </trkpt>
      <trkpt lat="42.50436" lon="2.54652">
        <ele>1613.4000244141</ele>
        <time>2023-07-15T10:09:13.000Z</time>
      </trkpt>
      <trkpt lat="42.50436" lon="2.54648">
        <ele>1613.8000488281</ele>
        <time>2023-07-15T10:09:16.000Z</time>
      </trkpt>
      <trkpt lat="42.50435" lon="2.54647">
        <ele>1614.4000244141</ele>
        <time>2023-07-15T10:09:18.000Z</time>
      </trkpt>
      <trkpt lat="42.50434" lon="2.54641">
        <ele>1615.8000488281</ele>
        <time>2023-07-15T10:09:24.000Z</time>
      </trkpt>
      <trkpt lat="42.50434" lon="2.54639">
        <ele>1616</ele>
        <time>2023-07-15T10:09:26.000Z</time>
      </trkpt>
      <trkpt lat="42.50434" lon="2.54634">
        <ele>1616.8000488281</ele>
        <time>2023-07-15T10:09:31.000Z</time>
      </trkpt>
      <trkpt lat="42.50435" lon="2.54628">
        <ele>1618</ele>
        <time>2023-07-15T10:09:37.000Z</time>
      </trkpt>
      <trkpt lat="42.50435" lon="2.54621">
        <ele>1619.1999511719</ele>
        <time>2023-07-15T10:09:43.000Z</time>
      </trkpt>
      <trkpt lat="42.50435" lon="2.54619">
        <ele>1619.4000244141</ele>
        <time>2023-07-15T10:09:45.000Z</time>
      </trkpt>
      <trkpt lat="42.50437" lon="2.54613">
        <ele>1620.1999511719</ele>
        <time>2023-07-15T10:09:52.000Z</time>
      </trkpt>
      <trkpt lat="42.50437" lon="2.54612">
        <ele>1620.4000244141</ele>
        <time>2023-07-15T10:09:53.000Z</time>
      </trkpt>
      <trkpt lat="42.50436" lon="2.54603">
        <ele>1621.1999511719</ele>
        <time>2023-07-15T10:10:01.000Z</time>
      </trkpt>
      <trkpt lat="42.50436" lon="2.54601">
        <ele>1621.1999511719</ele>
        <time>2023-07-15T10:10:02.000Z</time>
      </trkpt>
      <trkpt lat="42.50435" lon="2.54596">
        <ele>1622.1999511719</ele>
        <time>2023-07-15T10:10:09.000Z</time>
      </trkpt>
      <trkpt lat="42.50436" lon="2.54593">
        <ele>1622.4000244141</ele>
        <time>2023-07-15T10:10:11.000Z</time>
      </trkpt>
      <trkpt lat="42.50436" lon="2.54585">
        <ele>1623.1999511719</ele>
        <time>2023-07-15T10:10:17.000Z</time>
      </trkpt>
      <trkpt lat="42.50435" lon="2.54581">
        <ele>1623.5999755859</ele>
        <time>2023-07-15T10:10:20.000Z</time>
      </trkpt>
      <trkpt lat="42.50435" lon="2.54575">
        <ele>1624.1999511719</ele>
        <time>2023-07-15T10:10:24.000Z</time>
      </trkpt>
      <trkpt lat="42.50434" lon="2.54573">
        <ele>1624.5999755859</ele>
        <time>2023-07-15T10:10:26.000Z</time>
      </trkpt>
      <trkpt lat="42.50435" lon="2.54565">
        <ele>1625.5999755859</ele>
        <time>2023-07-15T10:10:34.000Z</time>
      </trkpt>
      <trkpt lat="42.50434" lon="2.54563">
        <ele>1626</ele>
        <time>2023-07-15T10:10:36.000Z</time>
      </trkpt>
      <trkpt lat="42.50434" lon="2.54556">
        <ele>1626.8000488281</ele>
        <time>2023-07-15T10:10:41.000Z</time>
      </trkpt>
      <trkpt lat="42.50434" lon="2.54555">
        <ele>1627</ele>
        <time>2023-07-15T10:10:43.000Z</time>
      </trkpt>
      <trkpt lat="42.50435" lon="2.5455">
        <ele>1627.8000488281</ele>
        <time>2023-07-15T10:10:48.000Z</time>
      </trkpt>
      <trkpt lat="42.50434" lon="2.54545">
        <ele>1628.4000244141</ele>
        <time>2023-07-15T10:10:52.000Z</time>
      </trkpt>
      <trkpt lat="42.50434" lon="2.54543">
        <ele>1628.8000488281</ele>
        <time>2023-07-15T10:10:54.000Z</time>
      </trkpt>
      <trkpt lat="42.50434" lon="2.54538">
        <ele>1629.1999511719</ele>
        <time>2023-07-15T10:10:58.000Z</time>
      </trkpt>
      <trkpt lat="42.50435" lon="2.54534">
        <ele>1629.8000488281</ele>
        <time>2023-07-15T10:11:02.000Z</time>
      </trkpt>
      <trkpt lat="42.50435" lon="2.54529">
        <ele>1630.1999511719</ele>
        <time>2023-07-15T10:11:06.000Z</time>
      </trkpt>
      <trkpt lat="42.50434" lon="2.54524">
        <ele>1631</ele>
        <time>2023-07-15T10:11:11.000Z</time>
      </trkpt>
      <trkpt lat="42.50433" lon="2.54521">
        <ele>1631.4000244141</ele>
        <time>2023-07-15T10:11:14.000Z</time>
      </trkpt>
      <trkpt lat="42.50432" lon="2.54515">
        <ele>1632</ele>
        <time>2023-07-15T10:11:18.000Z</time>
      </trkpt>
      <trkpt lat="42.50431" lon="2.5451">
        <ele>1632.5999755859</ele>
        <time>2023-07-15T10:11:22.000Z</time>
      </trkpt>
      <trkpt lat="42.50431" lon="2.54507">
        <ele>1633.1999511719</ele>
        <time>2023-07-15T10:11:25.000Z</time>
      </trkpt>
      <trkpt lat="42.50428" lon="2.545">
        <ele>1634.4000244141</ele>
        <time>2023-07-15T10:11:31.000Z</time>
      </trkpt>
      <trkpt lat="42.50428" lon="2.54499">
        <ele>1634.4000244141</ele>
        <time>2023-07-15T10:11:32.000Z</time>
      </trkpt>
      <trkpt lat="42.50427" lon="2.54493">
        <ele>1635.5999755859</ele>
        <time>2023-07-15T10:11:40.000Z</time>
      </trkpt>
      <trkpt lat="42.50428" lon="2.54485">
        <ele>1636.5999755859</ele>
        <time>2023-07-15T10:11:46.000Z</time>
      </trkpt>
      <trkpt lat="42.50428" lon="2.54482">
        <ele>1637</ele>
        <time>2023-07-15T10:11:48.000Z</time>
      </trkpt>
      <trkpt lat="42.50427" lon="2.54478">
        <ele>1637.8000488281</ele>
        <time>2023-07-15T10:11:52.000Z</time>
      </trkpt>
      <trkpt lat="42.50424" lon="2.54472">
        <ele>1638.4000244141</ele>
        <time>2023-07-15T10:11:57.000Z</time>
      </trkpt>
      <trkpt lat="42.50424" lon="2.54468">
        <ele>1638.8000488281</ele>
        <time>2023-07-15T10:12:00.000Z</time>
      </trkpt>
      <trkpt lat="42.50423" lon="2.54464">
        <ele>1639.4000244141</ele>
        <time>2023-07-15T10:12:04.000Z</time>
      </trkpt>
      <trkpt lat="42.5042" lon="2.54452">
        <ele>1639.8000488281</ele>
        <time>2023-07-15T10:12:12.000Z</time>
      </trkpt>
      <trkpt lat="42.50419" lon="2.54444">
        <ele>1641</ele>
        <time>2023-07-15T10:12:17.000Z</time>
      </trkpt>
      <trkpt lat="42.50418" lon="2.5444">
        <ele>1642.1999511719</ele>
        <time>2023-07-15T10:12:22.000Z</time>
      </trkpt>
      <trkpt lat="42.50418" lon="2.54439">
        <ele>1642.4000244141</ele>
        <time>2023-07-15T10:12:23.000Z</time>
      </trkpt>
      <trkpt lat="42.50418" lon="2.54426">
        <ele>1643.1999511719</ele>
        <time>2023-07-15T10:12:31.000Z</time>
      </trkpt>
      <trkpt lat="42.50417" lon="2.54419">
        <ele>1644.4000244141</ele>
        <time>2023-07-15T10:12:38.000Z</time>
      </trkpt>
      <trkpt lat="42.50416" lon="2.54409">
        <ele>1645.1999511719</ele>
        <time>2023-07-15T10:12:45.000Z</time>
      </trkpt>
      <trkpt lat="42.50416" lon="2.54405">
        <ele>1645.4000244141</ele>
        <time>2023-07-15T10:12:49.000Z</time>
      </trkpt>
      <trkpt lat="42.50415" lon="2.544">
        <ele>1645.8000488281</ele>
        <time>2023-07-15T10:12:53.000Z</time>
      </trkpt>
      <trkpt lat="42.50415" lon="2.54392">
        <ele>1646.4000244141</ele>
        <time>2023-07-15T10:13:00.000Z</time>
      </trkpt>
      <trkpt lat="42.50413" lon="2.54379">
        <ele>1647.5999755859</ele>
        <time>2023-07-15T10:13:09.000Z</time>
      </trkpt>
      <trkpt lat="42.50413" lon="2.54378">
        <ele>1647.5999755859</ele>
        <time>2023-07-15T10:13:10.000Z</time>
      </trkpt>
      <trkpt lat="42.50412" lon="2.54369">
        <ele>1648.5999755859</ele>
        <time>2023-07-15T10:13:18.000Z</time>
      </trkpt>
      <trkpt lat="42.50413" lon="2.54364">
        <ele>1649.5999755859</ele>
        <time>2023-07-15T10:13:25.000Z</time>
      </trkpt>
      <trkpt lat="42.50414" lon="2.54361">
        <ele>1650</ele>
        <time>2023-07-15T10:13:28.000Z</time>
      </trkpt>
      <trkpt lat="42.50414" lon="2.54354">
        <ele>1650.5999755859</ele>
        <time>2023-07-15T10:13:34.000Z</time>
      </trkpt>
      <trkpt lat="42.50414" lon="2.54349">
        <ele>1651.4000244141</ele>
        <time>2023-07-15T10:13:38.000Z</time>
      </trkpt>
      <trkpt lat="42.50414" lon="2.54346">
        <ele>1651.5999755859</ele>
        <time>2023-07-15T10:13:40.000Z</time>
      </trkpt>
      <trkpt lat="42.50417" lon="2.54338">
        <ele>1652.4000244141</ele>
        <time>2023-07-15T10:13:47.000Z</time>
      </trkpt>
      <trkpt lat="42.50418" lon="2.54336">
        <ele>1652.8000488281</ele>
        <time>2023-07-15T10:13:49.000Z</time>
      </trkpt>
      <trkpt lat="42.5042" lon="2.54332">
        <ele>1653.8000488281</ele>
        <time>2023-07-15T10:13:54.000Z</time>
      </trkpt>
      <trkpt lat="42.50421" lon="2.54331">
        <ele>1654</ele>
        <time>2023-07-15T10:13:56.000Z</time>
      </trkpt>
      <trkpt lat="42.50421" lon="2.54329">
        <ele>1654.8000488281</ele>
        <time>2023-07-15T10:14:00.000Z</time>
      </trkpt>
      <trkpt lat="42.50423" lon="2.54326">
        <ele>1655.5999755859</ele>
        <time>2023-07-15T10:14:04.000Z</time>
      </trkpt>
      <trkpt lat="42.50424" lon="2.54324">
        <ele>1656</ele>
        <time>2023-07-15T10:14:06.000Z</time>
      </trkpt>
      <trkpt lat="42.50426" lon="2.54318">
        <ele>1656.5999755859</ele>
        <time>2023-07-15T10:14:11.000Z</time>
      </trkpt>
      <trkpt lat="42.50426" lon="2.54315">
        <ele>1657.1999511719</ele>
        <time>2023-07-15T10:14:14.000Z</time>
      </trkpt>
      <trkpt lat="42.50428" lon="2.5431">
        <ele>1658</ele>
        <time>2023-07-15T10:14:19.000Z</time>
      </trkpt>
      <trkpt lat="42.50428" lon="2.54308">
        <ele>1658.4000244141</ele>
        <time>2023-07-15T10:14:21.000Z</time>
      </trkpt>
      <trkpt lat="42.5043" lon="2.54303">
        <ele>1659.4000244141</ele>
        <time>2023-07-15T10:14:26.000Z</time>
      </trkpt>
      <trkpt lat="42.5043" lon="2.54302">
        <ele>1659.5999755859</ele>
        <time>2023-07-15T10:14:27.000Z</time>
      </trkpt>
      <trkpt lat="42.50431" lon="2.543">
        <ele>1660.8000488281</ele>
        <time>2023-07-15T10:14:32.000Z</time>
      </trkpt>
      <trkpt lat="42.50431" lon="2.543">
        <ele>1660.8000488281</ele>
        <time>2023-07-15T10:14:33.000Z</time>
      </trkpt>
      <trkpt lat="42.50431" lon="2.54303">
        <ele>1661.1999511719</ele>
        <time>2023-07-15T10:14:43.000Z</time>
      </trkpt>
      <trkpt lat="42.50428" lon="2.54303">
        <ele>1660.8000488281</ele>
        <time>2023-07-15T10:14:52.000Z</time>
      </trkpt>
      <trkpt lat="42.50427" lon="2.54303">
        <ele>1660.8000488281</ele>
        <time>2023-07-15T10:15:02.000Z</time>
      </trkpt>
      <trkpt lat="42.50427" lon="2.543">
        <ele>1660.4000244141</ele>
        <time>2023-07-15T10:15:10.000Z</time>
      </trkpt>
      <trkpt lat="42.50431" lon="2.54291">
        <ele>1660.1999511719</ele>
        <time>2023-07-15T10:15:15.000Z</time>
      </trkpt>
      <trkpt lat="42.50439" lon="2.54279">
        <ele>1660</ele>
        <time>2023-07-15T10:15:25.000Z</time>
      </trkpt>
      <trkpt lat="42.50442" lon="2.54266">
        <ele>1660.1999511719</ele>
        <time>2023-07-15T10:15:33.000Z</time>
      </trkpt>
      <trkpt lat="42.50445" lon="2.54253">
        <ele>1660.4000244141</ele>
        <time>2023-07-15T10:15:42.000Z</time>
      </trkpt>
      <trkpt lat="42.50449" lon="2.54245">
        <ele>1661</ele>
        <time>2023-07-15T10:15:50.000Z</time>
      </trkpt>
      <trkpt lat="42.50452" lon="2.54239">
        <ele>1661.8000488281</ele>
        <time>2023-07-15T10:15:56.000Z</time>
      </trkpt>
      <trkpt lat="42.50454" lon="2.54236">
        <ele>1662.1999511719</ele>
        <time>2023-07-15T10:15:59.000Z</time>
      </trkpt>
      <trkpt lat="42.50454" lon="2.54234">
        <ele>1663</ele>
        <time>2023-07-15T10:16:02.000Z</time>
      </trkpt>
      <trkpt lat="42.50456" lon="2.5423">
        <ele>1663.8000488281</ele>
        <time>2023-07-15T10:16:07.000Z</time>
      </trkpt>
      <trkpt lat="42.50458" lon="2.54227">
        <ele>1664</ele>
        <time>2023-07-15T10:16:11.000Z</time>
      </trkpt>
      <trkpt lat="42.50459" lon="2.54225">
        <ele>1664.8000488281</ele>
        <time>2023-07-15T10:16:14.000Z</time>
      </trkpt>
      <trkpt lat="42.50461" lon="2.54225">
        <ele>1665.4000244141</ele>
        <time>2023-07-15T10:16:17.000Z</time>
      </trkpt>
      <trkpt lat="42.50464" lon="2.54224">
        <ele>1666</ele>
        <time>2023-07-15T10:16:22.000Z</time>
      </trkpt>
      <trkpt lat="42.50465" lon="2.54225">
        <ele>1666.4000244141</ele>
        <time>2023-07-15T10:16:25.000Z</time>
      </trkpt>
      <trkpt lat="42.50468" lon="2.54223">
        <ele>1667</ele>
        <time>2023-07-15T10:16:30.000Z</time>
      </trkpt>
      <trkpt lat="42.50469" lon="2.54221">
        <ele>1667.4000244141</ele>
        <time>2023-07-15T10:16:33.000Z</time>
      </trkpt>
      <trkpt lat="42.50471" lon="2.54219">
        <ele>1668.1999511719</ele>
        <time>2023-07-15T10:16:39.000Z</time>
      </trkpt>
      <trkpt lat="42.50471" lon="2.54219">
        <ele>1668.4000244141</ele>
        <time>2023-07-15T10:16:40.000Z</time>
      </trkpt>
      <trkpt lat="42.50475" lon="2.54215">
        <ele>1669.5999755859</ele>
        <time>2023-07-15T10:16:46.000Z</time>
      </trkpt>
      <trkpt lat="42.50475" lon="2.54214">
        <ele>1669.5999755859</ele>
        <time>2023-07-15T10:16:48.000Z</time>
      </trkpt>
      <trkpt lat="42.5048" lon="2.54214">
        <ele>1670.5999755859</ele>
        <time>2023-07-15T10:16:54.000Z</time>
      </trkpt>
      <trkpt lat="42.50483" lon="2.54214">
        <ele>1671</ele>
        <time>2023-07-15T10:16:57.000Z</time>
      </trkpt>
      <trkpt lat="42.50485" lon="2.54214">
        <ele>1671.8000488281</ele>
        <time>2023-07-15T10:17:01.000Z</time>
      </trkpt>
      <trkpt lat="42.50487" lon="2.54212">
        <ele>1672.5999755859</ele>
        <time>2023-07-15T10:17:05.000Z</time>
      </trkpt>
      <trkpt lat="42.50487" lon="2.54212">
        <ele>1672.8000488281</ele>
        <time>2023-07-15T10:17:06.000Z</time>
      </trkpt>
      <trkpt lat="42.50492" lon="2.54207">
        <ele>1673.4000244141</ele>
        <time>2023-07-15T10:17:12.000Z</time>
      </trkpt>
      <trkpt lat="42.50494" lon="2.54203">
        <ele>1673.8000488281</ele>
        <time>2023-07-15T10:17:17.000Z</time>
      </trkpt>
      <trkpt lat="42.50495" lon="2.54201">
        <ele>1674.4000244141</ele>
        <time>2023-07-15T10:17:20.000Z</time>
      </trkpt>
      <trkpt lat="42.505" lon="2.54194">
        <ele>1674.8000488281</ele>
        <time>2023-07-15T10:17:26.000Z</time>
      </trkpt>
      <trkpt lat="42.50508" lon="2.54188">
        <ele>1675.1999511719</ele>
        <time>2023-07-15T10:17:33.000Z</time>
      </trkpt>
      <trkpt lat="42.50512" lon="2.54179">
        <ele>1675.5999755859</ele>
        <time>2023-07-15T10:17:40.000Z</time>
      </trkpt>
      <trkpt lat="42.50514" lon="2.54173">
        <ele>1676</ele>
        <time>2023-07-15T10:17:43.000Z</time>
      </trkpt>
      <trkpt lat="42.50516" lon="2.54171">
        <ele>1676.4000244141</ele>
        <time>2023-07-15T10:17:47.000Z</time>
      </trkpt>
      <trkpt lat="42.50522" lon="2.54163">
        <ele>1677</ele>
        <time>2023-07-15T10:17:53.000Z</time>
      </trkpt>
      <trkpt lat="42.50522" lon="2.54162">
        <ele>1677.1999511719</ele>
        <time>2023-07-15T10:17:54.000Z</time>
      </trkpt>
      <trkpt lat="42.50525" lon="2.54152">
        <ele>1677.4000244141</ele>
        <time>2023-07-15T10:18:02.000Z</time>
      </trkpt>
      <trkpt lat="42.50532" lon="2.54138">
        <ele>1676.4000244141</ele>
        <time>2023-07-15T10:18:13.000Z</time>
      </trkpt>
      <trkpt lat="42.50533" lon="2.54139">
        <ele>1676</ele>
        <time>2023-07-15T10:18:15.000Z</time>
      </trkpt>
      <trkpt lat="42.50534" lon="2.5414">
        <ele>1675.8000488281</ele>
        <time>2023-07-15T10:18:19.000Z</time>
      </trkpt>
      <trkpt lat="42.50536" lon="2.5414">
        <ele>1675.5999755859</ele>
        <time>2023-07-15T10:18:26.000Z</time>
      </trkpt>
      <trkpt lat="42.50543" lon="2.5413">
        <ele>1676</ele>
        <time>2023-07-15T10:18:35.000Z</time>
      </trkpt>
      <trkpt lat="42.50549" lon="2.54126">
        <ele>1676.8000488281</ele>
        <time>2023-07-15T10:18:40.000Z</time>
      </trkpt>
      <trkpt lat="42.5055" lon="2.54125">
        <ele>1677</ele>
        <time>2023-07-15T10:18:41.000Z</time>
      </trkpt>
      <trkpt lat="42.50553" lon="2.5412">
        <ele>1677.8000488281</ele>
        <time>2023-07-15T10:18:47.000Z</time>
      </trkpt>
      <trkpt lat="42.50554" lon="2.5412">
        <ele>1678</ele>
        <time>2023-07-15T10:18:48.000Z</time>
      </trkpt>
      <trkpt lat="42.50557" lon="2.54117">
        <ele>1679</ele>
        <time>2023-07-15T10:18:53.000Z</time>
      </trkpt>
      <trkpt lat="42.50557" lon="2.54117">
        <ele>1679.1999511719</ele>
        <time>2023-07-15T10:18:54.000Z</time>
      </trkpt>
      <trkpt lat="42.50557" lon="2.54111">
        <ele>1680.4000244141</ele>
        <time>2023-07-15T10:19:00.000Z</time>
      </trkpt>
      <trkpt lat="42.50557" lon="2.54111">
        <ele>1680.4000244141</ele>
        <time>2023-07-15T10:19:01.000Z</time>
      </trkpt>
      <trkpt lat="42.5056" lon="2.54104">
        <ele>1681.4000244141</ele>
        <time>2023-07-15T10:19:07.000Z</time>
      </trkpt>
      <trkpt lat="42.5056" lon="2.54102">
        <ele>1681.4000244141</ele>
        <time>2023-07-15T10:19:08.000Z</time>
      </trkpt>
      <trkpt lat="42.50561" lon="2.54096">
        <ele>1682.4000244141</ele>
        <time>2023-07-15T10:19:14.000Z</time>
      </trkpt>
      <trkpt lat="42.5056" lon="2.54095">
        <ele>1683.5999755859</ele>
        <time>2023-07-15T10:19:18.000Z</time>
      </trkpt>
      <trkpt lat="42.50562" lon="2.54089">
        <ele>1684.5999755859</ele>
        <time>2023-07-15T10:19:23.000Z</time>
      </trkpt>
      <trkpt lat="42.50562" lon="2.54088">
        <ele>1684.8000488281</ele>
        <time>2023-07-15T10:19:24.000Z</time>
      </trkpt>
      <trkpt lat="42.50562" lon="2.54087">
        <ele>1685.8000488281</ele>
        <time>2023-07-15T10:19:28.000Z</time>
      </trkpt>
      <trkpt lat="42.50563" lon="2.54086">
        <ele>1686.4000244141</ele>
        <time>2023-07-15T10:19:31.000Z</time>
      </trkpt>
      <trkpt lat="42.50564" lon="2.54085">
        <ele>1687</ele>
        <time>2023-07-15T10:19:33.000Z</time>
      </trkpt>
      <trkpt lat="42.50564" lon="2.54082">
        <ele>1687.5999755859</ele>
        <time>2023-07-15T10:19:38.000Z</time>
      </trkpt>
      <trkpt lat="42.50564" lon="2.54079">
        <ele>1688.1999511719</ele>
        <time>2023-07-15T10:19:42.000Z</time>
      </trkpt>
      <trkpt lat="42.50565" lon="2.54074">
        <ele>1688.5999755859</ele>
        <time>2023-07-15T10:19:46.000Z</time>
      </trkpt>
      <trkpt lat="42.50564" lon="2.54072">
        <ele>1689.1999511719</ele>
        <time>2023-07-15T10:19:49.000Z</time>
      </trkpt>
      <trkpt lat="42.50565" lon="2.54069">
        <ele>1690</ele>
        <time>2023-07-15T10:19:54.000Z</time>
      </trkpt>
      <trkpt lat="42.50566" lon="2.54068">
        <ele>1690.1999511719</ele>
        <time>2023-07-15T10:19:56.000Z</time>
      </trkpt>
      <trkpt lat="42.50568" lon="2.54066">
        <ele>1691.4000244141</ele>
        <time>2023-07-15T10:20:00.000Z</time>
      </trkpt>
      <trkpt lat="42.50571" lon="2.54065">
        <ele>1692.1999511719</ele>
        <time>2023-07-15T10:20:04.000Z</time>
      </trkpt>
      <trkpt lat="42.50572" lon="2.54065">
        <ele>1692.5999755859</ele>
        <time>2023-07-15T10:20:06.000Z</time>
      </trkpt>
      <trkpt lat="42.50573" lon="2.54064">
        <ele>1693.5999755859</ele>
        <time>2023-07-15T10:20:11.000Z</time>
      </trkpt>
      <trkpt lat="42.50574" lon="2.5406">
        <ele>1694.5999755859</ele>
        <time>2023-07-15T10:20:19.000Z</time>
      </trkpt>
      <trkpt lat="42.50574" lon="2.54059">
        <ele>1695</ele>
        <time>2023-07-15T10:20:20.000Z</time>
      </trkpt>
      <trkpt lat="42.50576" lon="2.54057">
        <ele>1696</ele>
        <time>2023-07-15T10:20:25.000Z</time>
      </trkpt>
      <trkpt lat="42.50577" lon="2.54055">
        <ele>1697.1999511719</ele>
        <time>2023-07-15T10:20:29.000Z</time>
      </trkpt>
      <trkpt lat="42.50578" lon="2.54054">
        <ele>1698.1999511719</ele>
        <time>2023-07-15T10:20:34.000Z</time>
      </trkpt>
      <trkpt lat="42.50584" lon="2.54053">
        <ele>1699</ele>
        <time>2023-07-15T10:20:41.000Z</time>
      </trkpt>
      <trkpt lat="42.50584" lon="2.54054">
        <ele>1699.4000244141</ele>
        <time>2023-07-15T10:20:43.000Z</time>
      </trkpt>
      <trkpt lat="42.50588" lon="2.54052">
        <ele>1700.5999755859</ele>
        <time>2023-07-15T10:20:49.000Z</time>
      </trkpt>
      <trkpt lat="42.50589" lon="2.54051">
        <ele>1700.8000488281</ele>
        <time>2023-07-15T10:20:50.000Z</time>
      </trkpt>
      <trkpt lat="42.5059" lon="2.5405">
        <ele>1701.5999755859</ele>
        <time>2023-07-15T10:20:54.000Z</time>
      </trkpt>
      <trkpt lat="42.50589" lon="2.54049">
        <ele>1702.1999511719</ele>
        <time>2023-07-15T10:20:57.000Z</time>
      </trkpt>
      <trkpt lat="42.5059" lon="2.54048">
        <ele>1702.5999755859</ele>
        <time>2023-07-15T10:20:59.000Z</time>
      </trkpt>
      <trkpt lat="42.50591" lon="2.54046">
        <ele>1703.1999511719</ele>
        <time>2023-07-15T10:21:04.000Z</time>
      </trkpt>
      <trkpt lat="42.50592" lon="2.54046">
        <ele>1703.5999755859</ele>
        <time>2023-07-15T10:21:06.000Z</time>
      </trkpt>
      <trkpt lat="42.50596" lon="2.54046">
        <ele>1704.8000488281</ele>
        <time>2023-07-15T10:21:11.000Z</time>
      </trkpt>
      <trkpt lat="42.50597" lon="2.54045">
        <ele>1705</ele>
        <time>2023-07-15T10:21:12.000Z</time>
      </trkpt>
      <trkpt lat="42.50599" lon="2.54044">
        <ele>1705.8000488281</ele>
        <time>2023-07-15T10:21:19.000Z</time>
      </trkpt>
      <trkpt lat="42.506" lon="2.54043">
        <ele>1706.5999755859</ele>
        <time>2023-07-15T10:21:22.000Z</time>
      </trkpt>
      <trkpt lat="42.50601" lon="2.54043">
        <ele>1706.8000488281</ele>
        <time>2023-07-15T10:21:24.000Z</time>
      </trkpt>
      <trkpt lat="42.506" lon="2.54042">
        <ele>1708</ele>
        <time>2023-07-15T10:21:28.000Z</time>
      </trkpt>
      <trkpt lat="42.506" lon="2.5404">
        <ele>1708.5999755859</ele>
        <time>2023-07-15T10:21:31.000Z</time>
      </trkpt>
      <trkpt lat="42.506" lon="2.54039">
        <ele>1709</ele>
        <time>2023-07-15T10:21:35.000Z</time>
      </trkpt>
      <trkpt lat="42.50601" lon="2.54036">
        <ele>1710</ele>
        <time>2023-07-15T10:21:40.000Z</time>
      </trkpt>
      <trkpt lat="42.50607" lon="2.54034">
        <ele>1710.1999511719</ele>
        <time>2023-07-15T10:21:47.000Z</time>
      </trkpt>
      <trkpt lat="42.50607" lon="2.54033">
        <ele>1711.4000244141</ele>
        <time>2023-07-15T10:21:53.000Z</time>
      </trkpt>
      <trkpt lat="42.50608" lon="2.54033">
        <ele>1711.4000244141</ele>
        <time>2023-07-15T10:21:54.000Z</time>
      </trkpt>
      <trkpt lat="42.50608" lon="2.54032">
        <ele>1712.5999755859</ele>
        <time>2023-07-15T10:21:58.000Z</time>
      </trkpt>
      <trkpt lat="42.50609" lon="2.54032">
        <ele>1712.8000488281</ele>
        <time>2023-07-15T10:22:02.000Z</time>
      </trkpt>
      <trkpt lat="42.50614" lon="2.5403">
        <ele>1712</ele>
        <time>2023-07-15T10:22:11.000Z</time>
      </trkpt>
      <trkpt lat="42.50616" lon="2.54025">
        <ele>1712.4000244141</ele>
        <time>2023-07-15T10:22:18.000Z</time>
      </trkpt>
      <trkpt lat="42.50617" lon="2.54023">
        <ele>1713.8000488281</ele>
        <time>2023-07-15T10:22:25.000Z</time>
      </trkpt>
      <trkpt lat="42.50618" lon="2.54022">
        <ele>1714</ele>
        <time>2023-07-15T10:22:26.000Z</time>
      </trkpt>
      <trkpt lat="42.50619" lon="2.54022">
        <ele>1714.8000488281</ele>
        <time>2023-07-15T10:22:30.000Z</time>
      </trkpt>
      <trkpt lat="42.50621" lon="2.54021">
        <ele>1715.8000488281</ele>
        <time>2023-07-15T10:22:34.000Z</time>
      </trkpt>
      <trkpt lat="42.50621" lon="2.54022">
        <ele>1716.1999511719</ele>
        <time>2023-07-15T10:22:35.000Z</time>
      </trkpt>
      <trkpt lat="42.50621" lon="2.54022">
        <ele>1717.4000244141</ele>
        <time>2023-07-15T10:22:39.000Z</time>
      </trkpt>
      <trkpt lat="42.50623" lon="2.54021">
        <ele>1718.5999755859</ele>
        <time>2023-07-15T10:22:42.000Z</time>
      </trkpt>
      <trkpt lat="42.50623" lon="2.54021">
        <ele>1719</ele>
        <time>2023-07-15T10:22:43.000Z</time>
      </trkpt>
      <trkpt lat="42.50623" lon="2.54021">
        <ele>1719.8000488281</ele>
        <time>2023-07-15T10:22:46.000Z</time>
      </trkpt>
      <trkpt lat="42.50625" lon="2.5402">
        <ele>1720.8000488281</ele>
        <time>2023-07-15T10:22:49.000Z</time>
      </trkpt>
      <trkpt lat="42.50627" lon="2.5402">
        <ele>1722</ele>
        <time>2023-07-15T10:22:52.000Z</time>
      </trkpt>
      <trkpt lat="42.50629" lon="2.54019">
        <ele>1723</ele>
        <time>2023-07-15T10:22:56.000Z</time>
      </trkpt>
      <trkpt lat="42.50632" lon="2.54016">
        <ele>1724</ele>
        <time>2023-07-15T10:23:00.000Z</time>
      </trkpt>
      <trkpt lat="42.50633" lon="2.54012">
        <ele>1725</ele>
        <time>2023-07-15T10:23:06.000Z</time>
      </trkpt>
      <trkpt lat="42.50633" lon="2.54011">
        <ele>1725.4000244141</ele>
        <time>2023-07-15T10:23:08.000Z</time>
      </trkpt>
      <trkpt lat="42.50634" lon="2.54011">
        <ele>1726.5999755859</ele>
        <time>2023-07-15T10:23:10.000Z</time>
      </trkpt>
      <trkpt lat="42.50636" lon="2.54006">
        <ele>1727.5999755859</ele>
        <time>2023-07-15T10:23:16.000Z</time>
      </trkpt>
      <trkpt lat="42.50638" lon="2.54002">
        <ele>1728.5999755859</ele>
        <time>2023-07-15T10:23:22.000Z</time>
      </trkpt>
      <trkpt lat="42.5064" lon="2.53998">
        <ele>1729.1999511719</ele>
        <time>2023-07-15T10:23:25.000Z</time>
      </trkpt>
      <trkpt lat="42.50641" lon="2.53996">
        <ele>1729.8000488281</ele>
        <time>2023-07-15T10:23:27.000Z</time>
      </trkpt>
      <trkpt lat="42.50641" lon="2.53994">
        <ele>1731</ele>
        <time>2023-07-15T10:23:29.000Z</time>
      </trkpt>
      <trkpt lat="42.50642" lon="2.5399">
        <ele>1731.8000488281</ele>
        <time>2023-07-15T10:23:34.000Z</time>
      </trkpt>
      <trkpt lat="42.50643" lon="2.53989">
        <ele>1732.5999755859</ele>
        <time>2023-07-15T10:23:35.000Z</time>
      </trkpt>
      <trkpt lat="42.50643" lon="2.53987">
        <ele>1733.8000488281</ele>
        <time>2023-07-15T10:23:37.000Z</time>
      </trkpt>
      <trkpt lat="42.50644" lon="2.53985">
        <ele>1735.1999511719</ele>
        <time>2023-07-15T10:23:39.000Z</time>
      </trkpt>
      <trkpt lat="42.50644" lon="2.53983">
        <ele>1736</ele>
        <time>2023-07-15T10:23:40.000Z</time>
      </trkpt>
      <trkpt lat="42.50644" lon="2.53982">
        <ele>1736.8000488281</ele>
        <time>2023-07-15T10:23:41.000Z</time>
      </trkpt>
      <trkpt lat="42.50645" lon="2.53977">
        <ele>1737.1999511719</ele>
        <time>2023-07-15T10:23:47.000Z</time>
      </trkpt>
      <trkpt lat="42.50646" lon="2.53974">
        <ele>1738.8000488281</ele>
        <time>2023-07-15T10:23:50.000Z</time>
      </trkpt>
      <trkpt lat="42.50647" lon="2.53971">
        <ele>1740</ele>
        <time>2023-07-15T10:23:52.000Z</time>
      </trkpt>
      <trkpt lat="42.50647" lon="2.53967">
        <ele>1740.8000488281</ele>
        <time>2023-07-15T10:23:55.000Z</time>
      </trkpt>
      <trkpt lat="42.50648" lon="2.53966">
        <ele>1741.1999511719</ele>
        <time>2023-07-15T10:23:56.000Z</time>
      </trkpt>
      <trkpt lat="42.50648" lon="2.53964">
        <ele>1742.1999511719</ele>
        <time>2023-07-15T10:23:57.000Z</time>
      </trkpt>
      <trkpt lat="42.5065" lon="2.53959">
        <ele>1740.1999511719</ele>
        <time>2023-07-15T10:24:02.000Z</time>
      </trkpt>
      <trkpt lat="42.50652" lon="2.53956">
        <ele>1739.5999755859</ele>
        <time>2023-07-15T10:24:04.000Z</time>
      </trkpt>
      <trkpt lat="42.50655" lon="2.53954">
        <ele>1739</ele>
        <time>2023-07-15T10:24:06.000Z</time>
      </trkpt>
      <trkpt lat="42.50657" lon="2.53952">
        <ele>1737.5999755859</ele>
        <time>2023-07-15T10:24:09.000Z</time>
      </trkpt>
      <trkpt lat="42.50658" lon="2.53952">
        <ele>1736.5999755859</ele>
        <time>2023-07-15T10:24:12.000Z</time>
      </trkpt>
      <trkpt lat="42.50659" lon="2.53954">
        <ele>1736.1999511719</ele>
        <time>2023-07-15T10:24:13.000Z</time>
      </trkpt>
      <trkpt lat="42.5066" lon="2.53955">
        <ele>1735.1999511719</ele>
        <time>2023-07-15T10:24:16.000Z</time>
      </trkpt>
      <trkpt lat="42.5066" lon="2.53954">
        <ele>1734.8000488281</ele>
        <time>2023-07-15T10:24:18.000Z</time>
      </trkpt>
      <trkpt lat="42.50659" lon="2.53951">
        <ele>1736</ele>
        <time>2023-07-15T10:24:28.000Z</time>
      </trkpt>
      <trkpt lat="42.50659" lon="2.5395">
        <ele>1736.5999755859</ele>
        <time>2023-07-15T10:24:30.000Z</time>
      </trkpt>
      <trkpt lat="42.5066" lon="2.53949">
        <ele>1737.8000488281</ele>
        <time>2023-07-15T10:24:33.000Z</time>
      </trkpt>
      <trkpt lat="42.5066" lon="2.53951">
        <ele>1738</ele>
        <time>2023-07-15T10:24:37.000Z</time>
      </trkpt>
      <trkpt lat="42.50658" lon="2.53951">
        <ele>1737.5999755859</ele>
        <time>2023-07-15T10:24:46.000Z</time>
      </trkpt>
      <trkpt lat="42.50661" lon="2.53951">
        <ele>1737.8000488281</ele>
        <time>2023-07-15T10:24:54.000Z</time>
      </trkpt>
      <trkpt lat="42.50664" lon="2.53941">
        <ele>1736.5999755859</ele>
        <time>2023-07-15T10:25:01.000Z</time>
      </trkpt>
      <trkpt lat="42.50664" lon="2.53939">
        <ele>1736.4000244141</ele>
        <time>2023-07-15T10:25:02.000Z</time>
      </trkpt>
      <trkpt lat="42.50665" lon="2.53936">
        <ele>1735.5999755859</ele>
        <time>2023-07-15T10:25:04.000Z</time>
      </trkpt>
      <trkpt lat="42.50668" lon="2.5393">
        <ele>1734.1999511719</ele>
        <time>2023-07-15T10:25:08.000Z</time>
      </trkpt>
      <trkpt lat="42.50671" lon="2.53927">
        <ele>1733.5999755859</ele>
        <time>2023-07-15T10:25:11.000Z</time>
      </trkpt>
      <trkpt lat="42.50673" lon="2.53923">
        <ele>1733.1999511719</ele>
        <time>2023-07-15T10:25:13.000Z</time>
      </trkpt>
      <trkpt lat="42.50676" lon="2.53913">
        <ele>1732.4000244141</ele>
        <time>2023-07-15T10:25:20.000Z</time>
      </trkpt>
      <trkpt lat="42.50678" lon="2.53907">
        <ele>1732</ele>
        <time>2023-07-15T10:25:24.000Z</time>
      </trkpt>
      <trkpt lat="42.5068" lon="2.53903">
        <ele>1731.1999511719</ele>
        <time>2023-07-15T10:25:28.000Z</time>
      </trkpt>
      <trkpt lat="42.50681" lon="2.53901">
        <ele>1731</ele>
        <time>2023-07-15T10:25:30.000Z</time>
      </trkpt>
      <trkpt lat="42.50685" lon="2.53895">
        <ele>1730.1999511719</ele>
        <time>2023-07-15T10:25:36.000Z</time>
      </trkpt>
      <trkpt lat="42.50687" lon="2.53892">
        <ele>1729.8000488281</ele>
        <time>2023-07-15T10:25:38.000Z</time>
      </trkpt>
      <trkpt lat="42.50693" lon="2.53884">
        <ele>1729.1999511719</ele>
        <time>2023-07-15T10:25:44.000Z</time>
      </trkpt>
      <trkpt lat="42.50698" lon="2.53872">
        <ele>1729</ele>
        <time>2023-07-15T10:25:52.000Z</time>
      </trkpt>
      <trkpt lat="42.50701" lon="2.53868">
        <ele>1728.8000488281</ele>
        <time>2023-07-15T10:25:55.000Z</time>
      </trkpt>
      <trkpt lat="42.50704" lon="2.53866">
        <ele>1728</ele>
        <time>2023-07-15T10:26:01.000Z</time>
      </trkpt>
      <trkpt lat="42.50711" lon="2.53855">
        <ele>1728.4000244141</ele>
        <time>2023-07-15T10:26:13.000Z</time>
      </trkpt>
      <trkpt lat="42.50715" lon="2.53845">
        <ele>1728.8000488281</ele>
        <time>2023-07-15T10:26:21.000Z</time>
      </trkpt>
      <trkpt lat="42.50714" lon="2.53833">
        <ele>1728.1999511719</ele>
        <time>2023-07-15T10:26:28.000Z</time>
      </trkpt>
      <trkpt lat="42.50715" lon="2.53826">
        <ele>1727.8000488281</ele>
        <time>2023-07-15T10:26:32.000Z</time>
      </trkpt>
      <trkpt lat="42.50716" lon="2.53821">
        <ele>1727.4000244141</ele>
        <time>2023-07-15T10:26:36.000Z</time>
      </trkpt>
      <trkpt lat="42.5072" lon="2.53811">
        <ele>1727.4000244141</ele>
        <time>2023-07-15T10:26:43.000Z</time>
      </trkpt>
      <trkpt lat="42.50722" lon="2.538">
        <ele>1727</ele>
        <time>2023-07-15T10:26:51.000Z</time>
      </trkpt>
      <trkpt lat="42.50722" lon="2.5379">
        <ele>1726.5999755859</ele>
        <time>2023-07-15T10:26:57.000Z</time>
      </trkpt>
      <trkpt lat="42.50723" lon="2.53784">
        <ele>1726.5999755859</ele>
        <time>2023-07-15T10:27:00.000Z</time>
      </trkpt>
      <trkpt lat="42.5073" lon="2.53774">
        <ele>1726</ele>
        <time>2023-07-15T10:27:08.000Z</time>
      </trkpt>
      <trkpt lat="42.50733" lon="2.53765">
        <ele>1726.1999511719</ele>
        <time>2023-07-15T10:27:16.000Z</time>
      </trkpt>
      <trkpt lat="42.50735" lon="2.53754">
        <ele>1726</ele>
        <time>2023-07-15T10:27:23.000Z</time>
      </trkpt>
      <trkpt lat="42.50737" lon="2.53751">
        <ele>1725.5999755859</ele>
        <time>2023-07-15T10:27:26.000Z</time>
      </trkpt>
      <trkpt lat="42.50738" lon="2.53746">
        <ele>1725.4000244141</ele>
        <time>2023-07-15T10:27:30.000Z</time>
      </trkpt>
      <trkpt lat="42.50742" lon="2.53733">
        <ele>1725.4000244141</ele>
        <time>2023-07-15T10:27:38.000Z</time>
      </trkpt>
      <trkpt lat="42.5075" lon="2.5372">
        <ele>1724.5999755859</ele>
        <time>2023-07-15T10:27:46.000Z</time>
      </trkpt>
      <trkpt lat="42.50751" lon="2.53716">
        <ele>1724.1999511719</ele>
        <time>2023-07-15T10:27:49.000Z</time>
      </trkpt>
      <trkpt lat="42.50749" lon="2.53707">
        <ele>1724.4000244141</ele>
        <time>2023-07-15T10:27:57.000Z</time>
      </trkpt>
      <trkpt lat="42.50752" lon="2.53694">
        <ele>1724.4000244141</ele>
        <time>2023-07-15T10:28:05.000Z</time>
      </trkpt>
      <trkpt lat="42.50759" lon="2.53685">
        <ele>1724.1999511719</ele>
        <time>2023-07-15T10:28:15.000Z</time>
      </trkpt>
      <trkpt lat="42.50777" lon="2.53655">
        <ele>1723.4000244141</ele>
        <time>2023-07-15T10:28:41.000Z</time>
      </trkpt>
      <trkpt lat="42.50785" lon="2.53639">
        <ele>1724</ele>
        <time>2023-07-15T10:28:55.000Z</time>
      </trkpt>
      <trkpt lat="42.50786" lon="2.5363">
        <ele>1724.4000244141</ele>
        <time>2023-07-15T10:29:06.000Z</time>
      </trkpt>
      <trkpt lat="42.50788" lon="2.53621">
        <ele>1724.8000488281</ele>
        <time>2023-07-15T10:29:11.000Z</time>
      </trkpt>
      <trkpt lat="42.50793" lon="2.53617">
        <ele>1724.8000488281</ele>
        <time>2023-07-15T10:29:16.000Z</time>
      </trkpt>
      <trkpt lat="42.50799" lon="2.53589">
        <ele>1724.5999755859</ele>
        <time>2023-07-15T10:29:34.000Z</time>
      </trkpt>
      <trkpt lat="42.50799" lon="2.53588">
        <ele>1724.4000244141</ele>
        <time>2023-07-15T10:29:35.000Z</time>
      </trkpt>
      <trkpt lat="42.50796" lon="2.53582">
        <ele>1724.4000244141</ele>
        <time>2023-07-15T10:29:38.000Z</time>
      </trkpt>
      <trkpt lat="42.50787" lon="2.53572">
        <ele>1724.1999511719</ele>
        <time>2023-07-15T10:29:45.000Z</time>
      </trkpt>
      <trkpt lat="42.50778" lon="2.53557">
        <ele>1723.5999755859</ele>
        <time>2023-07-15T10:30:00.000Z</time>
      </trkpt>
      <trkpt lat="42.50777" lon="2.53549">
        <ele>1723.5999755859</ele>
        <time>2023-07-15T10:30:08.000Z</time>
      </trkpt>
      <trkpt lat="42.50776" lon="2.53545">
        <ele>1723.4000244141</ele>
        <time>2023-07-15T10:30:11.000Z</time>
      </trkpt>
      <trkpt lat="42.50775" lon="2.53537">
        <ele>1723.1999511719</ele>
        <time>2023-07-15T10:30:16.000Z</time>
      </trkpt>
      <trkpt lat="42.50775" lon="2.53529">
        <ele>1722.8000488281</ele>
        <time>2023-07-15T10:30:24.000Z</time>
      </trkpt>
      <trkpt lat="42.50774" lon="2.5352">
        <ele>1723</ele>
        <time>2023-07-15T10:30:32.000Z</time>
      </trkpt>
      <trkpt lat="42.50773" lon="2.53511">
        <ele>1722.5999755859</ele>
        <time>2023-07-15T10:30:39.000Z</time>
      </trkpt>
      <trkpt lat="42.5077" lon="2.53508">
        <ele>1722.4000244141</ele>
        <time>2023-07-15T10:30:43.000Z</time>
      </trkpt>
      <trkpt lat="42.5077" lon="2.53507">
        <ele>1722.4000244141</ele>
        <time>2023-07-15T10:30:44.000Z</time>
      </trkpt>
      <trkpt lat="42.50772" lon="2.53506">
        <ele>1722.1999511719</ele>
        <time>2023-07-15T10:30:47.000Z</time>
      </trkpt>
      <trkpt lat="42.50762" lon="2.53497">
        <ele>1721.8000488281</ele>
        <time>2023-07-15T10:30:53.000Z</time>
      </trkpt>
      <trkpt lat="42.50755" lon="2.53488">
        <ele>1721.5999755859</ele>
        <time>2023-07-15T10:30:59.000Z</time>
      </trkpt>
      <trkpt lat="42.50754" lon="2.53486">
        <ele>1721.4000244141</ele>
        <time>2023-07-15T10:31:00.000Z</time>
      </trkpt>
      <trkpt lat="42.50753" lon="2.53474">
        <ele>1721.4000244141</ele>
        <time>2023-07-15T10:31:05.000Z</time>
      </trkpt>
      <trkpt lat="42.50754" lon="2.5347">
        <ele>1721.1999511719</ele>
        <time>2023-07-15T10:31:12.000Z</time>
      </trkpt>
      <trkpt lat="42.50752" lon="2.53466">
        <ele>1721.1999511719</ele>
        <time>2023-07-15T10:31:14.000Z</time>
      </trkpt>
      <trkpt lat="42.50752" lon="2.53466">
        <ele>1721.1999511719</ele>
        <time>2023-07-15T10:31:15.000Z</time>
      </trkpt>
      <trkpt lat="42.50736" lon="2.53449">
        <ele>1720.8000488281</ele>
        <time>2023-07-15T10:31:24.000Z</time>
      </trkpt>
      <trkpt lat="42.50734" lon="2.53442">
        <ele>1720.5999755859</ele>
        <time>2023-07-15T10:31:27.000Z</time>
      </trkpt>
      <trkpt lat="42.50734" lon="2.53433">
        <ele>1720.1999511719</ele>
        <time>2023-07-15T10:31:35.000Z</time>
      </trkpt>
      <trkpt lat="42.50736" lon="2.53431">
        <ele>1720</ele>
        <time>2023-07-15T10:31:37.000Z</time>
      </trkpt>
      <trkpt lat="42.50736" lon="2.53422">
        <ele>1719.4000244141</ele>
        <time>2023-07-15T10:31:43.000Z</time>
      </trkpt>
      <trkpt lat="42.50735" lon="2.5342">
        <ele>1719.4000244141</ele>
        <time>2023-07-15T10:31:44.000Z</time>
      </trkpt>
      <trkpt lat="42.50732" lon="2.53414">
        <ele>1719.4000244141</ele>
        <time>2023-07-15T10:31:49.000Z</time>
      </trkpt>
      <trkpt lat="42.5073" lon="2.53407">
        <ele>1719.5999755859</ele>
        <time>2023-07-15T10:31:52.000Z</time>
      </trkpt>
      <trkpt lat="42.50728" lon="2.534">
        <ele>1719.4000244141</ele>
        <time>2023-07-15T10:31:55.000Z</time>
      </trkpt>
      <trkpt lat="42.50726" lon="2.53389">
        <ele>1719.1999511719</ele>
        <time>2023-07-15T10:32:04.000Z</time>
      </trkpt>
      <trkpt lat="42.50722" lon="2.53381">
        <ele>1719.1999511719</ele>
        <time>2023-07-15T10:32:11.000Z</time>
      </trkpt>
      <trkpt lat="42.50721" lon="2.53372">
        <ele>1720</ele>
        <time>2023-07-15T10:32:19.000Z</time>
      </trkpt>
      <trkpt lat="42.50719" lon="2.53361">
        <ele>1719.4000244141</ele>
        <time>2023-07-15T10:32:26.000Z</time>
      </trkpt>
      <trkpt lat="42.50716" lon="2.5335">
        <ele>1719</ele>
        <time>2023-07-15T10:32:33.000Z</time>
      </trkpt>
      <trkpt lat="42.50716" lon="2.53348">
        <ele>1719</ele>
        <time>2023-07-15T10:32:34.000Z</time>
      </trkpt>
      <trkpt lat="42.50714" lon="2.53332">
        <ele>1718.5999755859</ele>
        <time>2023-07-15T10:32:45.000Z</time>
      </trkpt>
      <trkpt lat="42.50712" lon="2.53318">
        <ele>1718</ele>
        <time>2023-07-15T10:32:53.000Z</time>
      </trkpt>
      <trkpt lat="42.5071" lon="2.53313">
        <ele>1717.8000488281</ele>
        <time>2023-07-15T10:32:57.000Z</time>
      </trkpt>
      <trkpt lat="42.50707" lon="2.53309">
        <ele>1717.8000488281</ele>
        <time>2023-07-15T10:33:00.000Z</time>
      </trkpt>
      <trkpt lat="42.50706" lon="2.53303">
        <ele>1717.4000244141</ele>
        <time>2023-07-15T10:33:03.000Z</time>
      </trkpt>
      <trkpt lat="42.50701" lon="2.53297">
        <ele>1717.1999511719</ele>
        <time>2023-07-15T10:33:09.000Z</time>
      </trkpt>
      <trkpt lat="42.507" lon="2.53296">
        <ele>1717.1999511719</ele>
        <time>2023-07-15T10:33:11.000Z</time>
      </trkpt>
      <trkpt lat="42.50695" lon="2.53288">
        <ele>1717.1999511719</ele>
        <time>2023-07-15T10:33:16.000Z</time>
      </trkpt>
      <trkpt lat="42.50688" lon="2.53285">
        <ele>1717.5999755859</ele>
        <time>2023-07-15T10:33:23.000Z</time>
      </trkpt>
      <trkpt lat="42.50695" lon="2.53288">
        <ele>1717.5999755859</ele>
        <time>2023-07-15T10:33:24.000Z</time>
      </trkpt>
      <trkpt lat="42.50686" lon="2.53286">
        <ele>1717.5999755859</ele>
        <time>2023-07-15T10:33:25.000Z</time>
      </trkpt>
      <trkpt lat="42.50683" lon="2.53283">
        <ele>1717.5999755859</ele>
        <time>2023-07-15T10:33:30.000Z</time>
      </trkpt>
      <trkpt lat="42.50674" lon="2.53274">
        <ele>1717.4000244141</ele>
        <time>2023-07-15T10:33:37.000Z</time>
      </trkpt>
      <trkpt lat="42.50666" lon="2.53262">
        <ele>1717</ele>
        <time>2023-07-15T10:33:42.000Z</time>
      </trkpt>
      <trkpt lat="42.5066" lon="2.53252">
        <ele>1717.4000244141</ele>
        <time>2023-07-15T10:33:50.000Z</time>
      </trkpt>
      <trkpt lat="42.50654" lon="2.53246">
        <ele>1717.4000244141</ele>
        <time>2023-07-15T10:33:57.000Z</time>
      </trkpt>
      <trkpt lat="42.50645" lon="2.53238">
        <ele>1717.5999755859</ele>
        <time>2023-07-15T10:34:07.000Z</time>
      </trkpt>
      <trkpt lat="42.50642" lon="2.53228">
        <ele>1717.5999755859</ele>
        <time>2023-07-15T10:34:14.000Z</time>
      </trkpt>
      <trkpt lat="42.50643" lon="2.53225">
        <ele>1717.8000488281</ele>
        <time>2023-07-15T10:34:21.000Z</time>
      </trkpt>
      <trkpt lat="42.50641" lon="2.53218">
        <ele>1717.8000488281</ele>
        <time>2023-07-15T10:34:28.000Z</time>
      </trkpt>
      <trkpt lat="42.50636" lon="2.53198">
        <ele>1717.1999511719</ele>
        <time>2023-07-15T10:34:45.000Z</time>
      </trkpt>
      <trkpt lat="42.50634" lon="2.53194">
        <ele>1717.5999755859</ele>
        <time>2023-07-15T10:34:47.000Z</time>
      </trkpt>
      <trkpt lat="42.50629" lon="2.53185">
        <ele>1717.8000488281</ele>
        <time>2023-07-15T10:34:48.000Z</time>
      </trkpt>
      <trkpt lat="42.50627" lon="2.53176">
        <ele>1717.8000488281</ele>
        <time>2023-07-15T10:34:51.000Z</time>
      </trkpt>
      <trkpt lat="42.50626" lon="2.53171">
        <ele>1717.5999755859</ele>
        <time>2023-07-15T10:34:53.000Z</time>
      </trkpt>
      <trkpt lat="42.50626" lon="2.53168">
        <ele>1717</ele>
        <time>2023-07-15T10:35:00.000Z</time>
      </trkpt>
      <trkpt lat="42.50621" lon="2.53166">
        <ele>1717.1999511719</ele>
        <time>2023-07-15T10:35:07.000Z</time>
      </trkpt>
      <trkpt lat="42.50624" lon="2.5315">
        <ele>1716.1999511719</ele>
        <time>2023-07-15T10:35:18.000Z</time>
      </trkpt>
      <trkpt lat="42.50612" lon="2.53131">
        <ele>1716</ele>
        <time>2023-07-15T10:35:25.000Z</time>
      </trkpt>
      <trkpt lat="42.50611" lon="2.53125">
        <ele>1715.8000488281</ele>
        <time>2023-07-15T10:35:27.000Z</time>
      </trkpt>
      <trkpt lat="42.50612" lon="2.53121">
        <ele>1715.5999755859</ele>
        <time>2023-07-15T10:35:30.000Z</time>
      </trkpt>
      <trkpt lat="42.50631" lon="2.53104">
        <ele>1715.1999511719</ele>
        <time>2023-07-15T10:35:52.000Z</time>
      </trkpt>
      <trkpt lat="42.50649" lon="2.53087">
        <ele>1716.1999511719</ele>
        <time>2023-07-15T10:36:16.000Z</time>
      </trkpt>
      <trkpt lat="42.50651" lon="2.53087">
        <ele>1716.5999755859</ele>
        <time>2023-07-15T10:36:18.000Z</time>
      </trkpt>
      <trkpt lat="42.5066" lon="2.53056">
        <ele>1715.5999755859</ele>
        <time>2023-07-15T10:36:46.000Z</time>
      </trkpt>
      <trkpt lat="42.50659" lon="2.53055">
        <ele>1715.5999755859</ele>
        <time>2023-07-15T10:36:47.000Z</time>
      </trkpt>
      <trkpt lat="42.5066" lon="2.53052">
        <ele>1715.5999755859</ele>
        <time>2023-07-15T10:36:50.000Z</time>
      </trkpt>
      <trkpt lat="42.50663" lon="2.5305">
        <ele>1715.5999755859</ele>
        <time>2023-07-15T10:36:52.000Z</time>
      </trkpt>
      <trkpt lat="42.50666" lon="2.53047">
        <ele>1715.4000244141</ele>
        <time>2023-07-15T10:36:57.000Z</time>
      </trkpt>
      <trkpt lat="42.50666" lon="2.53047">
        <ele>1715.5999755859</ele>
        <time>2023-07-15T10:36:58.000Z</time>
      </trkpt>
      <trkpt lat="42.50667" lon="2.53038">
        <ele>1716</ele>
        <time>2023-07-15T10:37:07.000Z</time>
      </trkpt>
      <trkpt lat="42.50667" lon="2.53037">
        <ele>1715.8000488281</ele>
        <time>2023-07-15T10:37:08.000Z</time>
      </trkpt>
      <trkpt lat="42.50665" lon="2.53028">
        <ele>1714.8000488281</ele>
        <time>2023-07-15T10:37:16.000Z</time>
      </trkpt>
      <trkpt lat="42.50665" lon="2.53023">
        <ele>1714.1999511719</ele>
        <time>2023-07-15T10:37:25.000Z</time>
      </trkpt>
      <trkpt lat="42.50667" lon="2.53019">
        <ele>1714.8000488281</ele>
        <time>2023-07-15T10:37:32.000Z</time>
      </trkpt>
      <trkpt lat="42.50672" lon="2.53011">
        <ele>1714</ele>
        <time>2023-07-15T10:37:45.000Z</time>
      </trkpt>
      <trkpt lat="42.50679" lon="2.53">
        <ele>1714</ele>
        <time>2023-07-15T10:37:53.000Z</time>
      </trkpt>
      <trkpt lat="42.50683" lon="2.52993">
        <ele>1714</ele>
        <time>2023-07-15T10:37:57.000Z</time>
      </trkpt>
      <trkpt lat="42.50686" lon="2.52989">
        <ele>1714.1999511719</ele>
        <time>2023-07-15T10:38:00.000Z</time>
      </trkpt>
      <trkpt lat="42.5069" lon="2.52977">
        <ele>1713.8000488281</ele>
        <time>2023-07-15T10:38:08.000Z</time>
      </trkpt>
      <trkpt lat="42.50695" lon="2.52975">
        <ele>1714</ele>
        <time>2023-07-15T10:38:17.000Z</time>
      </trkpt>
      <trkpt lat="42.50703" lon="2.52969">
        <ele>1714.1999511719</ele>
        <time>2023-07-15T10:38:29.000Z</time>
      </trkpt>
      <trkpt lat="42.50703" lon="2.52968">
        <ele>1713.5999755859</ele>
        <time>2023-07-15T10:38:32.000Z</time>
      </trkpt>
      <trkpt lat="42.50703" lon="2.52965">
        <ele>1713.1999511719</ele>
        <time>2023-07-15T10:38:37.000Z</time>
      </trkpt>
      <trkpt lat="42.50705" lon="2.52962">
        <ele>1712.5999755859</ele>
        <time>2023-07-15T10:38:42.000Z</time>
      </trkpt>
      <trkpt lat="42.5071" lon="2.52958">
        <ele>1711.5999755859</ele>
        <time>2023-07-15T10:38:49.000Z</time>
      </trkpt>
      <trkpt lat="42.50714" lon="2.52955">
        <ele>1710.4000244141</ele>
        <time>2023-07-15T10:38:57.000Z</time>
      </trkpt>
      <trkpt lat="42.50714" lon="2.52955">
        <ele>1710.4000244141</ele>
        <time>2023-07-15T10:38:58.000Z</time>
      </trkpt>
      <trkpt lat="42.50719" lon="2.52952">
        <ele>1711.1999511719</ele>
        <time>2023-07-15T10:39:05.000Z</time>
      </trkpt>
      <trkpt lat="42.50721" lon="2.5295">
        <ele>1711.5999755859</ele>
        <time>2023-07-15T10:39:07.000Z</time>
      </trkpt>
      <trkpt lat="42.50722" lon="2.52949">
        <ele>1711.8000488281</ele>
        <time>2023-07-15T10:39:10.000Z</time>
      </trkpt>
      <trkpt lat="42.50741" lon="2.52948">
        <ele>1710.8000488281</ele>
        <time>2023-07-15T10:39:36.000Z</time>
      </trkpt>
      <trkpt lat="42.50742" lon="2.52948">
        <ele>1710.8000488281</ele>
        <time>2023-07-15T10:39:37.000Z</time>
      </trkpt>
      <trkpt lat="42.50773" lon="2.52919">
        <ele>1708.5999755859</ele>
        <time>2023-07-15T10:40:21.000Z</time>
      </trkpt>
      <trkpt lat="42.50771" lon="2.52915">
        <ele>1708.5999755859</ele>
        <time>2023-07-15T10:40:23.000Z</time>
      </trkpt>
      <trkpt lat="42.50773" lon="2.52912">
        <ele>1709</ele>
        <time>2023-07-15T10:40:27.000Z</time>
      </trkpt>
      <trkpt lat="42.50774" lon="2.52912">
        <ele>1709</ele>
        <time>2023-07-15T10:40:29.000Z</time>
      </trkpt>
      <trkpt lat="42.50792" lon="2.52899">
        <ele>1707.4000244141</ele>
        <time>2023-07-15T10:40:52.000Z</time>
      </trkpt>
      <trkpt lat="42.50792" lon="2.52902">
        <ele>1707.1999511719</ele>
        <time>2023-07-15T10:40:53.000Z</time>
      </trkpt>
      <trkpt lat="42.50797" lon="2.52895">
        <ele>1706</ele>
        <time>2023-07-15T10:41:01.000Z</time>
      </trkpt>
      <trkpt lat="42.50799" lon="2.52896">
        <ele>1705.8000488281</ele>
        <time>2023-07-15T10:41:03.000Z</time>
      </trkpt>
      <trkpt lat="42.5081" lon="2.5288">
        <ele>1704.5999755859</ele>
        <time>2023-07-15T10:41:19.000Z</time>
      </trkpt>
      <trkpt lat="42.50811" lon="2.5288">
        <ele>1704.4000244141</ele>
        <time>2023-07-15T10:41:20.000Z</time>
      </trkpt>
      <trkpt lat="42.5084" lon="2.52854">
        <ele>1700.8000488281</ele>
        <time>2023-07-15T10:42:12.000Z</time>
      </trkpt>
      <trkpt lat="42.5084" lon="2.52854">
        <ele>1700.8000488281</ele>
        <time>2023-07-15T10:42:13.000Z</time>
      </trkpt>
      <trkpt lat="42.50878" lon="2.52833">
        <ele>1698.1999511719</ele>
        <time>2023-07-15T10:43:06.000Z</time>
      </trkpt>
      <trkpt lat="42.50879" lon="2.52833">
        <ele>1698</ele>
        <time>2023-07-15T10:43:08.000Z</time>
      </trkpt>
      <trkpt lat="42.50925" lon="2.52812">
        <ele>1693.5999755859</ele>
        <time>2023-07-15T10:44:03.000Z</time>
      </trkpt>
      <trkpt lat="42.50925" lon="2.52812">
        <ele>1693.4000244141</ele>
        <time>2023-07-15T10:44:04.000Z</time>
      </trkpt>
      <trkpt lat="42.50928" lon="2.52809">
        <ele>1693</ele>
        <time>2023-07-15T10:44:08.000Z</time>
      </trkpt>
      <trkpt lat="42.50929" lon="2.52807">
        <ele>1692.8000488281</ele>
        <time>2023-07-15T10:44:14.000Z</time>
      </trkpt>
      <trkpt lat="42.5093" lon="2.52807">
        <ele>1692.5999755859</ele>
        <time>2023-07-15T10:44:21.000Z</time>
      </trkpt>
      <trkpt lat="42.50932" lon="2.52807">
        <ele>1692.1999511719</ele>
        <time>2023-07-15T10:44:30.000Z</time>
      </trkpt>
      <trkpt lat="42.50932" lon="2.52808">
        <ele>1692</ele>
        <time>2023-07-15T10:44:31.000Z</time>
      </trkpt>
      <trkpt lat="42.50938" lon="2.52805">
        <ele>1690.8000488281</ele>
        <time>2023-07-15T10:44:37.000Z</time>
      </trkpt>
      <trkpt lat="42.50947" lon="2.52802">
        <ele>1689.5999755859</ele>
        <time>2023-07-15T10:44:47.000Z</time>
      </trkpt>
      <trkpt lat="42.5095" lon="2.528">
        <ele>1689.1999511719</ele>
        <time>2023-07-15T10:44:55.000Z</time>
      </trkpt>
      <trkpt lat="42.50952" lon="2.52798">
        <ele>1688.5999755859</ele>
        <time>2023-07-15T10:44:58.000Z</time>
      </trkpt>
      <trkpt lat="42.50957" lon="2.52797">
        <ele>1687.5999755859</ele>
        <time>2023-07-15T10:45:04.000Z</time>
      </trkpt>
      <trkpt lat="42.50958" lon="2.52797">
        <ele>1687.4000244141</ele>
        <time>2023-07-15T10:45:05.000Z</time>
      </trkpt>
      <trkpt lat="42.5096" lon="2.52793">
        <ele>1686.4000244141</ele>
        <time>2023-07-15T10:45:16.000Z</time>
      </trkpt>
      <trkpt lat="42.50961" lon="2.52792">
        <ele>1686.1999511719</ele>
        <time>2023-07-15T10:45:17.000Z</time>
      </trkpt>
      <trkpt lat="42.50965" lon="2.5279">
        <ele>1685</ele>
        <time>2023-07-15T10:45:22.000Z</time>
      </trkpt>
      <trkpt lat="42.50968" lon="2.52789">
        <ele>1684.1999511719</ele>
        <time>2023-07-15T10:45:25.000Z</time>
      </trkpt>
      <trkpt lat="42.50969" lon="2.52788">
        <ele>1683.5999755859</ele>
        <time>2023-07-15T10:45:27.000Z</time>
      </trkpt>
      <trkpt lat="42.50976" lon="2.52787">
        <ele>1682.5999755859</ele>
        <time>2023-07-15T10:45:35.000Z</time>
      </trkpt>
      <trkpt lat="42.50983" lon="2.52782">
        <ele>1681.5999755859</ele>
        <time>2023-07-15T10:45:46.000Z</time>
      </trkpt>
      <trkpt lat="42.50985" lon="2.52778">
        <ele>1681.4000244141</ele>
        <time>2023-07-15T10:45:52.000Z</time>
      </trkpt>
      <trkpt lat="42.50985" lon="2.52775">
        <ele>1681.4000244141</ele>
        <time>2023-07-15T10:45:54.000Z</time>
      </trkpt>
      <trkpt lat="42.50988" lon="2.52766">
        <ele>1680.4000244141</ele>
        <time>2023-07-15T10:46:02.000Z</time>
      </trkpt>
      <trkpt lat="42.50988" lon="2.52765">
        <ele>1680.4000244141</ele>
        <time>2023-07-15T10:46:03.000Z</time>
      </trkpt>
      <trkpt lat="42.50989" lon="2.5276">
        <ele>1680.4000244141</ele>
        <time>2023-07-15T10:46:10.000Z</time>
      </trkpt>
      <trkpt lat="42.50992" lon="2.52752">
        <ele>1679.1999511719</ele>
        <time>2023-07-15T10:46:20.000Z</time>
      </trkpt>
      <trkpt lat="42.50994" lon="2.52744">
        <ele>1678.1999511719</ele>
        <time>2023-07-15T10:46:26.000Z</time>
      </trkpt>
      <trkpt lat="42.50993" lon="2.5274">
        <ele>1678</ele>
        <time>2023-07-15T10:46:28.000Z</time>
      </trkpt>
      <trkpt lat="42.50991" lon="2.52738">
        <ele>1677</ele>
        <time>2023-07-15T10:46:35.000Z</time>
      </trkpt>
      <trkpt lat="42.50988" lon="2.52734">
        <ele>1676.1999511719</ele>
        <time>2023-07-15T10:46:43.000Z</time>
      </trkpt>
      <trkpt lat="42.50985" lon="2.52734">
        <ele>1676</ele>
        <time>2023-07-15T10:46:46.000Z</time>
      </trkpt>
      <trkpt lat="42.5098" lon="2.52729">
        <ele>1676</ele>
        <time>2023-07-15T10:46:54.000Z</time>
      </trkpt>
      <trkpt lat="42.50976" lon="2.52726">
        <ele>1676.1999511719</ele>
        <time>2023-07-15T10:47:08.000Z</time>
      </trkpt>
      <trkpt lat="42.50977" lon="2.52728">
        <ele>1676.1999511719</ele>
        <time>2023-07-15T10:47:16.000Z</time>
      </trkpt>
      <trkpt lat="42.50979" lon="2.52724">
        <ele>1676.5999755859</ele>
        <time>2023-07-15T10:47:26.000Z</time>
      </trkpt>
      <trkpt lat="42.50987" lon="2.5272">
        <ele>1676.4000244141</ele>
        <time>2023-07-15T10:47:37.000Z</time>
      </trkpt>
      <trkpt lat="42.50987" lon="2.52715">
        <ele>1675.8000488281</ele>
        <time>2023-07-15T10:47:46.000Z</time>
      </trkpt>
      <trkpt lat="42.50987" lon="2.52713">
        <ele>1675.4000244141</ele>
        <time>2023-07-15T10:47:52.000Z</time>
      </trkpt>
      <trkpt lat="42.50989" lon="2.52711">
        <ele>1675.4000244141</ele>
        <time>2023-07-15T10:47:59.000Z</time>
      </trkpt>
      <trkpt lat="42.50992" lon="2.52708">
        <ele>1675.5999755859</ele>
        <time>2023-07-15T10:48:07.000Z</time>
      </trkpt>
      <trkpt lat="42.50991" lon="2.52706">
        <ele>1675.8000488281</ele>
        <time>2023-07-15T10:48:14.000Z</time>
      </trkpt>
      <trkpt lat="42.50989" lon="2.52709">
        <ele>1676.1999511719</ele>
        <time>2023-07-15T10:48:22.000Z</time>
      </trkpt>
      <trkpt lat="42.50983" lon="2.52703">
        <ele>1675.4000244141</ele>
        <time>2023-07-15T10:48:34.000Z</time>
      </trkpt>
      <trkpt lat="42.50984" lon="2.52701">
        <ele>1675</ele>
        <time>2023-07-15T10:48:37.000Z</time>
      </trkpt>
      <trkpt lat="42.50986" lon="2.52698">
        <ele>1674.5999755859</ele>
        <time>2023-07-15T10:48:43.000Z</time>
      </trkpt>
      <trkpt lat="42.50988" lon="2.52694">
        <ele>1674.1999511719</ele>
        <time>2023-07-15T10:48:53.000Z</time>
      </trkpt>
      <trkpt lat="42.50986" lon="2.52689">
        <ele>1674</ele>
        <time>2023-07-15T10:48:58.000Z</time>
      </trkpt>
      <trkpt lat="42.50986" lon="2.52687">
        <ele>1673.1999511719</ele>
        <time>2023-07-15T10:49:02.000Z</time>
      </trkpt>
      <trkpt lat="42.50986" lon="2.52686">
        <ele>1672.8000488281</ele>
        <time>2023-07-15T10:49:04.000Z</time>
      </trkpt>
      <trkpt lat="42.50986" lon="2.52679">
        <ele>1673</ele>
        <time>2023-07-15T10:49:10.000Z</time>
      </trkpt>
      <trkpt lat="42.50989" lon="2.52668">
        <ele>1673.1999511719</ele>
        <time>2023-07-15T10:49:18.000Z</time>
      </trkpt>
      <trkpt lat="42.50987" lon="2.52663">
        <ele>1673</ele>
        <time>2023-07-15T10:49:24.000Z</time>
      </trkpt>
      <trkpt lat="42.50987" lon="2.52669">
        <ele>1671.8000488281</ele>
        <time>2023-07-15T10:49:32.000Z</time>
      </trkpt>
      <trkpt lat="42.5099" lon="2.52675">
        <ele>1670.5999755859</ele>
        <time>2023-07-15T10:49:39.000Z</time>
      </trkpt>
      <trkpt lat="42.50991" lon="2.52678">
        <ele>1670.1999511719</ele>
        <time>2023-07-15T10:49:41.000Z</time>
      </trkpt>
      <trkpt lat="42.50992" lon="2.5268">
        <ele>1669.5999755859</ele>
        <time>2023-07-15T10:49:45.000Z</time>
      </trkpt>
      <trkpt lat="42.50994" lon="2.52679">
        <ele>1668.8000488281</ele>
        <time>2023-07-15T10:49:50.000Z</time>
      </trkpt>
      <trkpt lat="42.50994" lon="2.52679">
        <ele>1668.4000244141</ele>
        <time>2023-07-15T10:49:52.000Z</time>
      </trkpt>
      <trkpt lat="42.50993" lon="2.52672">
        <ele>1667.4000244141</ele>
        <time>2023-07-15T10:50:00.000Z</time>
      </trkpt>
      <trkpt lat="42.50993" lon="2.52672">
        <ele>1667.1999511719</ele>
        <time>2023-07-15T10:50:01.000Z</time>
      </trkpt>
      <trkpt lat="42.50997" lon="2.52668">
        <ele>1666.1999511719</ele>
        <time>2023-07-15T10:50:08.000Z</time>
      </trkpt>
      <trkpt lat="42.50998" lon="2.52667">
        <ele>1665.8000488281</ele>
        <time>2023-07-15T10:50:10.000Z</time>
      </trkpt>
      <trkpt lat="42.50998" lon="2.52663">
        <ele>1665.1999511719</ele>
        <time>2023-07-15T10:50:17.000Z</time>
      </trkpt>
      <trkpt lat="42.50998" lon="2.52661">
        <ele>1665</ele>
        <time>2023-07-15T10:50:19.000Z</time>
      </trkpt>
      <trkpt lat="42.50999" lon="2.52658">
        <ele>1664.5999755859</ele>
        <time>2023-07-15T10:50:22.000Z</time>
      </trkpt>
      <trkpt lat="42.51" lon="2.52656">
        <ele>1663.8000488281</ele>
        <time>2023-07-15T10:50:26.000Z</time>
      </trkpt>
      <trkpt lat="42.51" lon="2.52652">
        <ele>1663.4000244141</ele>
        <time>2023-07-15T10:50:29.000Z</time>
      </trkpt>
      <trkpt lat="42.51" lon="2.52647">
        <ele>1662.8000488281</ele>
        <time>2023-07-15T10:50:33.000Z</time>
      </trkpt>
      <trkpt lat="42.51001" lon="2.52644">
        <ele>1662</ele>
        <time>2023-07-15T10:50:38.000Z</time>
      </trkpt>
      <trkpt lat="42.51001" lon="2.52643">
        <ele>1661.5999755859</ele>
        <time>2023-07-15T10:50:40.000Z</time>
      </trkpt>
      <trkpt lat="42.51001" lon="2.52643">
        <ele>1661.4000244141</ele>
        <time>2023-07-15T10:50:43.000Z</time>
      </trkpt>
      <trkpt lat="42.51" lon="2.52642">
        <ele>1661</ele>
        <time>2023-07-15T10:50:46.000Z</time>
      </trkpt>
      <trkpt lat="42.51002" lon="2.52641">
        <ele>1660.8000488281</ele>
        <time>2023-07-15T10:50:50.000Z</time>
      </trkpt>
      <trkpt lat="42.51002" lon="2.52641">
        <ele>1660.5999755859</ele>
        <time>2023-07-15T10:50:51.000Z</time>
      </trkpt>
      <trkpt lat="42.51003" lon="2.52639">
        <ele>1660.1999511719</ele>
        <time>2023-07-15T10:50:54.000Z</time>
      </trkpt>
      <trkpt lat="42.51003" lon="2.52636">
        <ele>1659.8000488281</ele>
        <time>2023-07-15T10:50:56.000Z</time>
      </trkpt>
      <trkpt lat="42.51004" lon="2.52634">
        <ele>1659.5999755859</ele>
        <time>2023-07-15T10:50:58.000Z</time>
      </trkpt>
      <trkpt lat="42.51005" lon="2.52629">
        <ele>1658.4000244141</ele>
        <time>2023-07-15T10:51:04.000Z</time>
      </trkpt>
      <trkpt lat="42.51005" lon="2.52628">
        <ele>1658.4000244141</ele>
        <time>2023-07-15T10:51:05.000Z</time>
      </trkpt>
      <trkpt lat="42.51005" lon="2.52623">
        <ele>1657.4000244141</ele>
        <time>2023-07-15T10:51:14.000Z</time>
      </trkpt>
      <trkpt lat="42.51004" lon="2.52622">
        <ele>1657.1999511719</ele>
        <time>2023-07-15T10:51:17.000Z</time>
      </trkpt>
      <trkpt lat="42.51007" lon="2.52612">
        <ele>1657</ele>
        <time>2023-07-15T10:51:24.000Z</time>
      </trkpt>
      <trkpt lat="42.51009" lon="2.52609">
        <ele>1656.1999511719</ele>
        <time>2023-07-15T10:51:28.000Z</time>
      </trkpt>
      <trkpt lat="42.5101" lon="2.52606">
        <ele>1656</ele>
        <time>2023-07-15T10:51:31.000Z</time>
      </trkpt>
      <trkpt lat="42.5101" lon="2.52603">
        <ele>1655.1999511719</ele>
        <time>2023-07-15T10:51:35.000Z</time>
      </trkpt>
      <trkpt lat="42.5101" lon="2.52597">
        <ele>1654</ele>
        <time>2023-07-15T10:51:40.000Z</time>
      </trkpt>
      <trkpt lat="42.5101" lon="2.52597">
        <ele>1653.8000488281</ele>
        <time>2023-07-15T10:51:41.000Z</time>
      </trkpt>
      <trkpt lat="42.5101" lon="2.52594">
        <ele>1653</ele>
        <time>2023-07-15T10:51:47.000Z</time>
      </trkpt>
      <trkpt lat="42.5101" lon="2.52593">
        <ele>1652.8000488281</ele>
        <time>2023-07-15T10:51:50.000Z</time>
      </trkpt>
      <trkpt lat="42.5101" lon="2.52588">
        <ele>1652</ele>
        <time>2023-07-15T10:51:54.000Z</time>
      </trkpt>
      <trkpt lat="42.5101" lon="2.5258">
        <ele>1651</ele>
        <time>2023-07-15T10:52:00.000Z</time>
      </trkpt>
      <trkpt lat="42.51009" lon="2.52571">
        <ele>1650</ele>
        <time>2023-07-15T10:52:05.000Z</time>
      </trkpt>
      <trkpt lat="42.51008" lon="2.52571">
        <ele>1649.8000488281</ele>
        <time>2023-07-15T10:52:06.000Z</time>
      </trkpt>
      <trkpt lat="42.51008" lon="2.52565">
        <ele>1649.4000244141</ele>
        <time>2023-07-15T10:52:13.000Z</time>
      </trkpt>
      <trkpt lat="42.51008" lon="2.52561">
        <ele>1648.8000488281</ele>
        <time>2023-07-15T10:52:16.000Z</time>
      </trkpt>
      <trkpt lat="42.5101" lon="2.52559">
        <ele>1648</ele>
        <time>2023-07-15T10:52:21.000Z</time>
      </trkpt>
      <trkpt lat="42.51011" lon="2.52557">
        <ele>1647.5999755859</ele>
        <time>2023-07-15T10:52:23.000Z</time>
      </trkpt>
      <trkpt lat="42.51012" lon="2.52556">
        <ele>1646.8000488281</ele>
        <time>2023-07-15T10:52:27.000Z</time>
      </trkpt>
      <trkpt lat="42.51012" lon="2.52555">
        <ele>1646.5999755859</ele>
        <time>2023-07-15T10:52:29.000Z</time>
      </trkpt>
      <trkpt lat="42.51015" lon="2.52546">
        <ele>1645.5999755859</ele>
        <time>2023-07-15T10:52:36.000Z</time>
      </trkpt>
      <trkpt lat="42.51015" lon="2.52545">
        <ele>1645.5999755859</ele>
        <time>2023-07-15T10:52:38.000Z</time>
      </trkpt>
      <trkpt lat="42.51017" lon="2.5254">
        <ele>1644.5999755859</ele>
        <time>2023-07-15T10:52:44.000Z</time>
      </trkpt>
      <trkpt lat="42.51017" lon="2.52537">
        <ele>1644.4000244141</ele>
        <time>2023-07-15T10:52:46.000Z</time>
      </trkpt>
      <trkpt lat="42.51017" lon="2.52526">
        <ele>1643.5999755859</ele>
        <time>2023-07-15T10:52:54.000Z</time>
      </trkpt>
      <trkpt lat="42.51017" lon="2.52525">
        <ele>1643.4000244141</ele>
        <time>2023-07-15T10:52:55.000Z</time>
      </trkpt>
      <trkpt lat="42.5102" lon="2.5252">
        <ele>1642.4000244141</ele>
        <time>2023-07-15T10:53:02.000Z</time>
      </trkpt>
      <trkpt lat="42.51021" lon="2.52521">
        <ele>1641.8000488281</ele>
        <time>2023-07-15T10:53:07.000Z</time>
      </trkpt>
      <trkpt lat="42.51021" lon="2.52521">
        <ele>1641.4000244141</ele>
        <time>2023-07-15T10:53:10.000Z</time>
      </trkpt>
      <trkpt lat="42.51022" lon="2.5252">
        <ele>1640.5999755859</ele>
        <time>2023-07-15T10:53:14.000Z</time>
      </trkpt>
      <trkpt lat="42.51022" lon="2.5252">
        <ele>1640.1999511719</ele>
        <time>2023-07-15T10:53:15.000Z</time>
      </trkpt>
      <trkpt lat="42.51021" lon="2.52516">
        <ele>1639</ele>
        <time>2023-07-15T10:53:21.000Z</time>
      </trkpt>
      <trkpt lat="42.51021" lon="2.52515">
        <ele>1639</ele>
        <time>2023-07-15T10:53:22.000Z</time>
      </trkpt>
      <trkpt lat="42.51024" lon="2.52511">
        <ele>1639</ele>
        <time>2023-07-15T10:53:28.000Z</time>
      </trkpt>
      <trkpt lat="42.51032" lon="2.52507">
        <ele>1638.4000244141</ele>
        <time>2023-07-15T10:53:38.000Z</time>
      </trkpt>
      <trkpt lat="42.51033" lon="2.52505">
        <ele>1638</ele>
        <time>2023-07-15T10:53:42.000Z</time>
      </trkpt>
      <trkpt lat="42.51034" lon="2.52498">
        <ele>1637.1999511719</ele>
        <time>2023-07-15T10:53:49.000Z</time>
      </trkpt>
      <trkpt lat="42.51035" lon="2.52496">
        <ele>1637</ele>
        <time>2023-07-15T10:53:51.000Z</time>
      </trkpt>
      <trkpt lat="42.51037" lon="2.52489">
        <ele>1636.5999755859</ele>
        <time>2023-07-15T10:53:57.000Z</time>
      </trkpt>
      <trkpt lat="42.51038" lon="2.52482">
        <ele>1636.4000244141</ele>
        <time>2023-07-15T10:54:04.000Z</time>
      </trkpt>
      <trkpt lat="42.51038" lon="2.52481">
        <ele>1636</ele>
        <time>2023-07-15T10:54:10.000Z</time>
      </trkpt>
      <trkpt lat="42.51038" lon="2.5248">
        <ele>1635.5999755859</ele>
        <time>2023-07-15T10:54:12.000Z</time>
      </trkpt>
      <trkpt lat="42.51037" lon="2.52476">
        <ele>1635</ele>
        <time>2023-07-15T10:54:19.000Z</time>
      </trkpt>
      <trkpt lat="42.51037" lon="2.52475">
        <ele>1634.8000488281</ele>
        <time>2023-07-15T10:54:21.000Z</time>
      </trkpt>
      <trkpt lat="42.5104" lon="2.52466">
        <ele>1634</ele>
        <time>2023-07-15T10:54:28.000Z</time>
      </trkpt>
      <trkpt lat="42.5104" lon="2.52463">
        <ele>1634.1999511719</ele>
        <time>2023-07-15T10:54:34.000Z</time>
      </trkpt>
      <trkpt lat="42.51041" lon="2.5246">
        <ele>1633.8000488281</ele>
        <time>2023-07-15T10:54:38.000Z</time>
      </trkpt>
      <trkpt lat="42.51042" lon="2.52457">
        <ele>1633.4000244141</ele>
        <time>2023-07-15T10:54:40.000Z</time>
      </trkpt>
      <trkpt lat="42.51042" lon="2.52453">
        <ele>1632.5999755859</ele>
        <time>2023-07-15T10:54:43.000Z</time>
      </trkpt>
      <trkpt lat="42.51041" lon="2.52451">
        <ele>1632.1999511719</ele>
        <time>2023-07-15T10:54:46.000Z</time>
      </trkpt>
      <trkpt lat="42.5104" lon="2.52445">
        <ele>1631.5999755859</ele>
        <time>2023-07-15T10:54:51.000Z</time>
      </trkpt>
      <trkpt lat="42.51042" lon="2.52441">
        <ele>1630.8000488281</ele>
        <time>2023-07-15T10:54:55.000Z</time>
      </trkpt>
      <trkpt lat="42.51043" lon="2.5244">
        <ele>1630.4000244141</ele>
        <time>2023-07-15T10:54:56.000Z</time>
      </trkpt>
      <trkpt lat="42.51044" lon="2.52436">
        <ele>1629.4000244141</ele>
        <time>2023-07-15T10:55:01.000Z</time>
      </trkpt>
      <trkpt lat="42.51044" lon="2.52436">
        <ele>1629.1999511719</ele>
        <time>2023-07-15T10:55:02.000Z</time>
      </trkpt>
      <trkpt lat="42.51046" lon="2.52437">
        <ele>1628.1999511719</ele>
        <time>2023-07-15T10:55:08.000Z</time>
      </trkpt>
      <trkpt lat="42.51046" lon="2.52438">
        <ele>1627.8000488281</ele>
        <time>2023-07-15T10:55:10.000Z</time>
      </trkpt>
      <trkpt lat="42.51047" lon="2.52441">
        <ele>1627</ele>
        <time>2023-07-15T10:55:13.000Z</time>
      </trkpt>
      <trkpt lat="42.51047" lon="2.52447">
        <ele>1626.1999511719</ele>
        <time>2023-07-15T10:55:17.000Z</time>
      </trkpt>
      <trkpt lat="42.51047" lon="2.52447">
        <ele>1626</ele>
        <time>2023-07-15T10:55:18.000Z</time>
      </trkpt>
      <trkpt lat="42.51048" lon="2.52447">
        <ele>1625.4000244141</ele>
        <time>2023-07-15T10:55:21.000Z</time>
      </trkpt>
      <trkpt lat="42.51049" lon="2.52448">
        <ele>1624.8000488281</ele>
        <time>2023-07-15T10:55:24.000Z</time>
      </trkpt>
      <trkpt lat="42.51052" lon="2.5245">
        <ele>1624</ele>
        <time>2023-07-15T10:55:29.000Z</time>
      </trkpt>
      <trkpt lat="42.51052" lon="2.52451">
        <ele>1623.8000488281</ele>
        <time>2023-07-15T10:55:30.000Z</time>
      </trkpt>
      <trkpt lat="42.51052" lon="2.52454">
        <ele>1622.8000488281</ele>
        <time>2023-07-15T10:55:36.000Z</time>
      </trkpt>
      <trkpt lat="42.51051" lon="2.52454">
        <ele>1622.8000488281</ele>
        <time>2023-07-15T10:55:41.000Z</time>
      </trkpt>
      <trkpt lat="42.5105" lon="2.52454">
        <ele>1622.5999755859</ele>
        <time>2023-07-15T10:55:43.000Z</time>
      </trkpt>
      <trkpt lat="42.51052" lon="2.52452">
        <ele>1622.8000488281</ele>
        <time>2023-07-15T10:55:47.000Z</time>
      </trkpt>
      <trkpt lat="42.51055" lon="2.52454">
        <ele>1622.8000488281</ele>
        <time>2023-07-15T10:55:51.000Z</time>
      </trkpt>
      <trkpt lat="42.51057" lon="2.52457">
        <ele>1621.8000488281</ele>
        <time>2023-07-15T10:55:57.000Z</time>
      </trkpt>
      <trkpt lat="42.51057" lon="2.52458">
        <ele>1621.5999755859</ele>
        <time>2023-07-15T10:55:58.000Z</time>
      </trkpt>
      <trkpt lat="42.51058" lon="2.52457">
        <ele>1620.4000244141</ele>
        <time>2023-07-15T10:56:02.000Z</time>
      </trkpt>
      <trkpt lat="42.51059" lon="2.52455">
        <ele>1619.8000488281</ele>
        <time>2023-07-15T10:56:09.000Z</time>
      </trkpt>
      <trkpt lat="42.51057" lon="2.52454">
        <ele>1619.5999755859</ele>
        <time>2023-07-15T10:56:12.000Z</time>
      </trkpt>
      <trkpt lat="42.51057" lon="2.52455">
        <ele>1619.4000244141</ele>
        <time>2023-07-15T10:56:21.000Z</time>
      </trkpt>
      <trkpt lat="42.51057" lon="2.52451">
        <ele>1619.1999511719</ele>
        <time>2023-07-15T10:56:27.000Z</time>
      </trkpt>
      <trkpt lat="42.51059" lon="2.52449">
        <ele>1618.4000244141</ele>
        <time>2023-07-15T10:56:30.000Z</time>
      </trkpt>
      <trkpt lat="42.51062" lon="2.52443">
        <ele>1617.1999511719</ele>
        <time>2023-07-15T10:56:36.000Z</time>
      </trkpt>
      <trkpt lat="42.51063" lon="2.52443">
        <ele>1617.1999511719</ele>
        <time>2023-07-15T10:56:37.000Z</time>
      </trkpt>
      <trkpt lat="42.51061" lon="2.52445">
        <ele>1616.4000244141</ele>
        <time>2023-07-15T10:56:42.000Z</time>
      </trkpt>
      <trkpt lat="42.51061" lon="2.52445">
        <ele>1616.1999511719</ele>
        <time>2023-07-15T10:56:43.000Z</time>
      </trkpt>
      <trkpt lat="42.51064" lon="2.52446">
        <ele>1615.1999511719</ele>
        <time>2023-07-15T10:56:50.000Z</time>
      </trkpt>
      <trkpt lat="42.51064" lon="2.52447">
        <ele>1615.1999511719</ele>
        <time>2023-07-15T10:56:51.000Z</time>
      </trkpt>
      <trkpt lat="42.51064" lon="2.52454">
        <ele>1614.1999511719</ele>
        <time>2023-07-15T10:56:57.000Z</time>
      </trkpt>
      <trkpt lat="42.51064" lon="2.52455">
        <ele>1614</ele>
        <time>2023-07-15T10:56:58.000Z</time>
      </trkpt>
      <trkpt lat="42.51064" lon="2.52455">
        <ele>1613.1999511719</ele>
        <time>2023-07-15T10:57:02.000Z</time>
      </trkpt>
      <trkpt lat="42.51065" lon="2.52455">
        <ele>1612.8000488281</ele>
        <time>2023-07-15T10:57:03.000Z</time>
      </trkpt>
      <trkpt lat="42.51065" lon="2.52454">
        <ele>1612.8000488281</ele>
        <time>2023-07-15T10:57:04.000Z</time>
      </trkpt>
      <trkpt lat="42.51066" lon="2.52458">
        <ele>1612.1999511719</ele>
        <time>2023-07-15T10:57:07.000Z</time>
      </trkpt>
      <trkpt lat="42.51067" lon="2.52461">
        <ele>1611.5999755859</ele>
        <time>2023-07-15T10:57:09.000Z</time>
      </trkpt>
      <trkpt lat="42.51068" lon="2.52462">
        <ele>1611.1999511719</ele>
        <time>2023-07-15T10:57:14.000Z</time>
      </trkpt>
      <trkpt lat="42.51068" lon="2.52461">
        <ele>1610.5999755859</ele>
        <time>2023-07-15T10:57:20.000Z</time>
      </trkpt>
      <trkpt lat="42.51068" lon="2.52461">
        <ele>1610.5999755859</ele>
        <time>2023-07-15T10:57:21.000Z</time>
      </trkpt>
      <trkpt lat="42.51067" lon="2.52462">
        <ele>1610.4000244141</ele>
        <time>2023-07-15T10:57:29.000Z</time>
      </trkpt>
      <trkpt lat="42.51069" lon="2.52464">
        <ele>1610.8000488281</ele>
        <time>2023-07-15T10:57:36.000Z</time>
      </trkpt>
      <trkpt lat="42.51071" lon="2.52469">
        <ele>1610.8000488281</ele>
        <time>2023-07-15T10:57:43.000Z</time>
      </trkpt>
      <trkpt lat="42.51072" lon="2.52472">
        <ele>1610.1999511719</ele>
        <time>2023-07-15T10:57:52.000Z</time>
      </trkpt>
      <trkpt lat="42.51071" lon="2.52468">
        <ele>1609.5999755859</ele>
        <time>2023-07-15T10:57:57.000Z</time>
      </trkpt>
      <trkpt lat="42.51071" lon="2.52468">
        <ele>1609.4000244141</ele>
        <time>2023-07-15T10:57:58.000Z</time>
      </trkpt>
      <trkpt lat="42.5107" lon="2.52465">
        <ele>1608.8000488281</ele>
        <time>2023-07-15T10:58:05.000Z</time>
      </trkpt>
      <trkpt lat="42.5107" lon="2.52465">
        <ele>1608.5999755859</ele>
        <time>2023-07-15T10:58:07.000Z</time>
      </trkpt>
      <trkpt lat="42.5107" lon="2.52462">
        <ele>1607.8000488281</ele>
        <time>2023-07-15T10:58:14.000Z</time>
      </trkpt>
      <trkpt lat="42.51067" lon="2.5246">
        <ele>1606.8000488281</ele>
        <time>2023-07-15T10:58:20.000Z</time>
      </trkpt>
      <trkpt lat="42.51068" lon="2.52455">
        <ele>1605.5999755859</ele>
        <time>2023-07-15T10:58:27.000Z</time>
      </trkpt>
      <trkpt lat="42.51069" lon="2.52454">
        <ele>1605.1999511719</ele>
        <time>2023-07-15T10:58:29.000Z</time>
      </trkpt>
      <trkpt lat="42.51071" lon="2.5245">
        <ele>1604.1999511719</ele>
        <time>2023-07-15T10:58:35.000Z</time>
      </trkpt>
      <trkpt lat="42.51072" lon="2.52447">
        <ele>1603.5999755859</ele>
        <time>2023-07-15T10:58:38.000Z</time>
      </trkpt>
      <trkpt lat="42.51073" lon="2.52444">
        <ele>1603</ele>
        <time>2023-07-15T10:58:40.000Z</time>
      </trkpt>
      <trkpt lat="42.51074" lon="2.52436">
        <ele>1602</ele>
        <time>2023-07-15T10:58:44.000Z</time>
      </trkpt>
      <trkpt lat="42.51074" lon="2.52433">
        <ele>1601.8000488281</ele>
        <time>2023-07-15T10:58:47.000Z</time>
      </trkpt>
      <trkpt lat="42.51071" lon="2.52426">
        <ele>1603</ele>
        <time>2023-07-15T10:58:55.000Z</time>
      </trkpt>
      <trkpt lat="42.5107" lon="2.52426">
        <ele>1603</ele>
        <time>2023-07-15T10:58:56.000Z</time>
      </trkpt>
      <trkpt lat="42.51067" lon="2.52422">
        <ele>1604</ele>
        <time>2023-07-15T10:59:04.000Z</time>
      </trkpt>
      <trkpt lat="42.51066" lon="2.5242">
        <ele>1604</ele>
        <time>2023-07-15T10:59:05.000Z</time>
      </trkpt>
      <trkpt lat="42.51062" lon="2.52416">
        <ele>1604.1999511719</ele>
        <time>2023-07-15T10:59:10.000Z</time>
      </trkpt>
      <trkpt lat="42.51059" lon="2.52414">
        <ele>1604.8000488281</ele>
        <time>2023-07-15T10:59:15.000Z</time>
      </trkpt>
      <trkpt lat="42.51055" lon="2.52403">
        <ele>1606.8000488281</ele>
        <time>2023-07-15T10:59:35.000Z</time>
      </trkpt>
      <trkpt lat="42.51056" lon="2.52402">
        <ele>1607</ele>
        <time>2023-07-15T10:59:40.000Z</time>
      </trkpt>
      <trkpt lat="42.51056" lon="2.524">
        <ele>1607.1999511719</ele>
        <time>2023-07-15T10:59:50.000Z</time>
      </trkpt>
      <trkpt lat="42.51059" lon="2.52393">
        <ele>1607.1999511719</ele>
        <time>2023-07-15T11:00:17.000Z</time>
      </trkpt>
      <trkpt lat="42.51065" lon="2.52391">
        <ele>1607.1999511719</ele>
        <time>2023-07-15T11:00:29.000Z</time>
      </trkpt>
      <trkpt lat="42.51066" lon="2.52389">
        <ele>1607.8000488281</ele>
        <time>2023-07-15T11:00:37.000Z</time>
      </trkpt>
      <trkpt lat="42.51073" lon="2.52388">
        <ele>1608.1999511719</ele>
        <time>2023-07-15T11:00:46.000Z</time>
      </trkpt>
      <trkpt lat="42.51073" lon="2.52388">
        <ele>1608.5999755859</ele>
        <time>2023-07-15T11:00:48.000Z</time>
      </trkpt>
      <trkpt lat="42.51074" lon="2.52389">
        <ele>1609.4000244141</ele>
        <time>2023-07-15T11:00:52.000Z</time>
      </trkpt>
      <trkpt lat="42.51075" lon="2.5239">
        <ele>1609.5999755859</ele>
        <time>2023-07-15T11:00:53.000Z</time>
      </trkpt>
      <trkpt lat="42.51076" lon="2.52392">
        <ele>1609.8000488281</ele>
        <time>2023-07-15T11:00:59.000Z</time>
      </trkpt>
      <trkpt lat="42.51077" lon="2.52393">
        <ele>1609</ele>
        <time>2023-07-15T11:01:05.000Z</time>
      </trkpt>
      <trkpt lat="42.51079" lon="2.52393">
        <ele>1608.4000244141</ele>
        <time>2023-07-15T11:01:08.000Z</time>
      </trkpt>
      <trkpt lat="42.5108" lon="2.52394">
        <ele>1608</ele>
        <time>2023-07-15T11:01:11.000Z</time>
      </trkpt>
      <trkpt lat="42.51084" lon="2.52397">
        <ele>1607.4000244141</ele>
        <time>2023-07-15T11:01:15.000Z</time>
      </trkpt>
      <trkpt lat="42.51087" lon="2.52398">
        <ele>1606</ele>
        <time>2023-07-15T11:01:21.000Z</time>
      </trkpt>
      <trkpt lat="42.51087" lon="2.52397">
        <ele>1605.8000488281</ele>
        <time>2023-07-15T11:01:23.000Z</time>
      </trkpt>
      <trkpt lat="42.51092" lon="2.52403">
        <ele>1606.8000488281</ele>
        <time>2023-07-15T11:01:31.000Z</time>
      </trkpt>
      <trkpt lat="42.51094" lon="2.52402">
        <ele>1606.4000244141</ele>
        <time>2023-07-15T11:01:38.000Z</time>
      </trkpt>
      <trkpt lat="42.51093" lon="2.52399">
        <ele>1606.4000244141</ele>
        <time>2023-07-15T11:01:44.000Z</time>
      </trkpt>
      <trkpt lat="42.51092" lon="2.524">
        <ele>1606.4000244141</ele>
        <time>2023-07-15T11:01:51.000Z</time>
      </trkpt>
      <trkpt lat="42.51097" lon="2.52396">
        <ele>1606.8000488281</ele>
        <time>2023-07-15T11:02:00.000Z</time>
      </trkpt>
      <trkpt lat="42.511" lon="2.52397">
        <ele>1607.1999511719</ele>
        <time>2023-07-15T11:02:02.000Z</time>
      </trkpt>
      <trkpt lat="42.51108" lon="2.52398">
        <ele>1607.8000488281</ele>
        <time>2023-07-15T11:02:07.000Z</time>
      </trkpt>
      <trkpt lat="42.51114" lon="2.52402">
        <ele>1608</ele>
        <time>2023-07-15T11:02:21.000Z</time>
      </trkpt>
      <trkpt lat="42.51118" lon="2.52401">
        <ele>1608.1999511719</ele>
        <time>2023-07-15T11:02:35.000Z</time>
      </trkpt>
      <trkpt lat="42.51123" lon="2.524">
        <ele>1608.4000244141</ele>
        <time>2023-07-15T11:02:43.000Z</time>
      </trkpt>
      <trkpt lat="42.51123" lon="2.52401">
        <ele>1608.4000244141</ele>
        <time>2023-07-15T11:02:50.000Z</time>
      </trkpt>
      <trkpt lat="42.5113" lon="2.52404">
        <ele>1609</ele>
        <time>2023-07-15T11:02:58.000Z</time>
      </trkpt>
      <trkpt lat="42.51132" lon="2.52406">
        <ele>1609.4000244141</ele>
        <time>2023-07-15T11:03:01.000Z</time>
      </trkpt>
      <trkpt lat="42.51133" lon="2.52408">
        <ele>1609.4000244141</ele>
        <time>2023-07-15T11:03:03.000Z</time>
      </trkpt>
      <trkpt lat="42.51139" lon="2.52413">
        <ele>1610.4000244141</ele>
        <time>2023-07-15T11:03:11.000Z</time>
      </trkpt>
      <trkpt lat="42.51139" lon="2.52414">
        <ele>1610.4000244141</ele>
        <time>2023-07-15T11:03:12.000Z</time>
      </trkpt>
      <trkpt lat="42.51141" lon="2.52416">
        <ele>1611.4000244141</ele>
        <time>2023-07-15T11:03:17.000Z</time>
      </trkpt>
      <trkpt lat="42.51141" lon="2.52417">
        <ele>1611.5999755859</ele>
        <time>2023-07-15T11:03:18.000Z</time>
      </trkpt>
      <trkpt lat="42.51146" lon="2.52419">
        <ele>1612.4000244141</ele>
        <time>2023-07-15T11:03:25.000Z</time>
      </trkpt>
      <trkpt lat="42.51147" lon="2.5242">
        <ele>1612.4000244141</ele>
        <time>2023-07-15T11:03:26.000Z</time>
      </trkpt>
      <trkpt lat="42.51151" lon="2.52423">
        <ele>1613</ele>
        <time>2023-07-15T11:03:31.000Z</time>
      </trkpt>
      <trkpt lat="42.51158" lon="2.52429">
        <ele>1613.1999511719</ele>
        <time>2023-07-15T11:03:39.000Z</time>
      </trkpt>
      <trkpt lat="42.51165" lon="2.52437">
        <ele>1612.1999511719</ele>
        <time>2023-07-15T11:03:45.000Z</time>
      </trkpt>
      <trkpt lat="42.5117" lon="2.52443">
        <ele>1611.4000244141</ele>
        <time>2023-07-15T11:03:50.000Z</time>
      </trkpt>
      <trkpt lat="42.51172" lon="2.52447">
        <ele>1611</ele>
        <time>2023-07-15T11:03:54.000Z</time>
      </trkpt>
      <trkpt lat="42.51176" lon="2.52451">
        <ele>1611</ele>
        <time>2023-07-15T11:04:02.000Z</time>
      </trkpt>
      <trkpt lat="42.51177" lon="2.52453">
        <ele>1610.5999755859</ele>
        <time>2023-07-15T11:04:04.000Z</time>
      </trkpt>
      <trkpt lat="42.51178" lon="2.52454">
        <ele>1610.4000244141</ele>
        <time>2023-07-15T11:04:06.000Z</time>
      </trkpt>
      <trkpt lat="42.51178" lon="2.52454">
        <ele>1610.1999511719</ele>
        <time>2023-07-15T11:04:07.000Z</time>
      </trkpt>
      <trkpt lat="42.51178" lon="2.52456">
        <ele>1609.1999511719</ele>
        <time>2023-07-15T11:04:11.000Z</time>
      </trkpt>
      <trkpt lat="42.51178" lon="2.52455">
        <ele>1608.8000488281</ele>
        <time>2023-07-15T11:04:12.000Z</time>
      </trkpt>
      <trkpt lat="42.51179" lon="2.52456">
        <ele>1608.5999755859</ele>
        <time>2023-07-15T11:04:14.000Z</time>
      </trkpt>
      <trkpt lat="42.51179" lon="2.52457">
        <ele>1608</ele>
        <time>2023-07-15T11:04:17.000Z</time>
      </trkpt>
      <trkpt lat="42.51181" lon="2.52458">
        <ele>1607.4000244141</ele>
        <time>2023-07-15T11:04:22.000Z</time>
      </trkpt>
      <trkpt lat="42.51182" lon="2.52459">
        <ele>1606.8000488281</ele>
        <time>2023-07-15T11:04:25.000Z</time>
      </trkpt>
      <trkpt lat="42.51181" lon="2.52461">
        <ele>1605.8000488281</ele>
        <time>2023-07-15T11:04:30.000Z</time>
      </trkpt>
      <trkpt lat="42.51182" lon="2.52464">
        <ele>1604.5999755859</ele>
        <time>2023-07-15T11:04:34.000Z</time>
      </trkpt>
      <trkpt lat="42.51183" lon="2.52465">
        <ele>1604.4000244141</ele>
        <time>2023-07-15T11:04:36.000Z</time>
      </trkpt>
      <trkpt lat="42.51183" lon="2.52467">
        <ele>1603.5999755859</ele>
        <time>2023-07-15T11:04:41.000Z</time>
      </trkpt>
      <trkpt lat="42.51184" lon="2.52467">
        <ele>1603</ele>
        <time>2023-07-15T11:04:44.000Z</time>
      </trkpt>
      <trkpt lat="42.51185" lon="2.52466">
        <ele>1602.4000244141</ele>
        <time>2023-07-15T11:04:47.000Z</time>
      </trkpt>
      <trkpt lat="42.51187" lon="2.52464">
        <ele>1601.8000488281</ele>
        <time>2023-07-15T11:04:51.000Z</time>
      </trkpt>
      <trkpt lat="42.51188" lon="2.52465">
        <ele>1601.1999511719</ele>
        <time>2023-07-15T11:04:54.000Z</time>
      </trkpt>
      <trkpt lat="42.51189" lon="2.52463">
        <ele>1600.8000488281</ele>
        <time>2023-07-15T11:04:58.000Z</time>
      </trkpt>
      <trkpt lat="42.51193" lon="2.52461">
        <ele>1600.1999511719</ele>
        <time>2023-07-15T11:05:02.000Z</time>
      </trkpt>
      <trkpt lat="42.51195" lon="2.52463">
        <ele>1599.1999511719</ele>
        <time>2023-07-15T11:05:07.000Z</time>
      </trkpt>
      <trkpt lat="42.51196" lon="2.52463">
        <ele>1599.1999511719</ele>
        <time>2023-07-15T11:05:08.000Z</time>
      </trkpt>
      <trkpt lat="42.51201" lon="2.52465">
        <ele>1598.1999511719</ele>
        <time>2023-07-15T11:05:14.000Z</time>
      </trkpt>
      <trkpt lat="42.51204" lon="2.52466">
        <ele>1597.1999511719</ele>
        <time>2023-07-15T11:05:20.000Z</time>
      </trkpt>
      <trkpt lat="42.51206" lon="2.52467">
        <ele>1597</ele>
        <time>2023-07-15T11:05:22.000Z</time>
      </trkpt>
      <trkpt lat="42.51204" lon="2.5247">
        <ele>1596</ele>
        <time>2023-07-15T11:05:28.000Z</time>
      </trkpt>
      <trkpt lat="42.51204" lon="2.5247">
        <ele>1596</ele>
        <time>2023-07-15T11:05:29.000Z</time>
      </trkpt>
      <trkpt lat="42.51202" lon="2.52473">
        <ele>1595</ele>
        <time>2023-07-15T11:05:36.000Z</time>
      </trkpt>
      <trkpt lat="42.51202" lon="2.52473">
        <ele>1594.8000488281</ele>
        <time>2023-07-15T11:05:38.000Z</time>
      </trkpt>
      <trkpt lat="42.51205" lon="2.52473">
        <ele>1593.8000488281</ele>
        <time>2023-07-15T11:05:43.000Z</time>
      </trkpt>
      <trkpt lat="42.51201" lon="2.52478">
        <ele>1593.5999755859</ele>
        <time>2023-07-15T11:05:57.000Z</time>
      </trkpt>
      <trkpt lat="42.51204" lon="2.52482">
        <ele>1592.5999755859</ele>
        <time>2023-07-15T11:06:06.000Z</time>
      </trkpt>
      <trkpt lat="42.51206" lon="2.52484">
        <ele>1592</ele>
        <time>2023-07-15T11:06:09.000Z</time>
      </trkpt>
      <trkpt lat="42.51207" lon="2.52484">
        <ele>1591.5999755859</ele>
        <time>2023-07-15T11:06:11.000Z</time>
      </trkpt>
      <trkpt lat="42.51208" lon="2.52484">
        <ele>1591</ele>
        <time>2023-07-15T11:06:15.000Z</time>
      </trkpt>
      <trkpt lat="42.5121" lon="2.52486">
        <ele>1590.4000244141</ele>
        <time>2023-07-15T11:06:21.000Z</time>
      </trkpt>
      <trkpt lat="42.51211" lon="2.52486">
        <ele>1590</ele>
        <time>2023-07-15T11:06:23.000Z</time>
      </trkpt>
      <trkpt lat="42.51213" lon="2.52488">
        <ele>1589.4000244141</ele>
        <time>2023-07-15T11:06:27.000Z</time>
      </trkpt>
      <trkpt lat="42.51215" lon="2.52487">
        <ele>1589.1999511719</ele>
        <time>2023-07-15T11:06:29.000Z</time>
      </trkpt>
      <trkpt lat="42.51219" lon="2.52486">
        <ele>1588.1999511719</ele>
        <time>2023-07-15T11:06:34.000Z</time>
      </trkpt>
      <trkpt lat="42.51221" lon="2.52484">
        <ele>1587.4000244141</ele>
        <time>2023-07-15T11:06:38.000Z</time>
      </trkpt>
      <trkpt lat="42.51221" lon="2.52484">
        <ele>1587.1999511719</ele>
        <time>2023-07-15T11:06:39.000Z</time>
      </trkpt>
      <trkpt lat="42.51222" lon="2.52484">
        <ele>1586.1999511719</ele>
        <time>2023-07-15T11:06:43.000Z</time>
      </trkpt>
      <trkpt lat="42.51222" lon="2.52484">
        <ele>1585.8000488281</ele>
        <time>2023-07-15T11:06:45.000Z</time>
      </trkpt>
      <trkpt lat="42.51221" lon="2.52484">
        <ele>1585.1999511719</ele>
        <time>2023-07-15T11:06:48.000Z</time>
      </trkpt>
      <trkpt lat="42.5122" lon="2.52486">
        <ele>1584.1999511719</ele>
        <time>2023-07-15T11:06:52.000Z</time>
      </trkpt>
      <trkpt lat="42.51221" lon="2.52487">
        <ele>1583.5999755859</ele>
        <time>2023-07-15T11:06:55.000Z</time>
      </trkpt>
      <trkpt lat="42.51224" lon="2.52491">
        <ele>1582.1999511719</ele>
        <time>2023-07-15T11:07:02.000Z</time>
      </trkpt>
      <trkpt lat="42.51225" lon="2.52491">
        <ele>1582</ele>
        <time>2023-07-15T11:07:03.000Z</time>
      </trkpt>
      <trkpt lat="42.51226" lon="2.52492">
        <ele>1581.8000488281</ele>
        <time>2023-07-15T11:07:04.000Z</time>
      </trkpt>
      <trkpt lat="42.51232" lon="2.52497">
        <ele>1580.8000488281</ele>
        <time>2023-07-15T11:07:09.000Z</time>
      </trkpt>
      <trkpt lat="42.51232" lon="2.52498">
        <ele>1580.4000244141</ele>
        <time>2023-07-15T11:07:12.000Z</time>
      </trkpt>
      <trkpt lat="42.51236" lon="2.525">
        <ele>1579.5999755859</ele>
        <time>2023-07-15T11:07:16.000Z</time>
      </trkpt>
      <trkpt lat="42.51239" lon="2.52499">
        <ele>1579.1999511719</ele>
        <time>2023-07-15T11:07:19.000Z</time>
      </trkpt>
      <trkpt lat="42.5124" lon="2.52499">
        <ele>1579.1999511719</ele>
        <time>2023-07-15T11:07:20.000Z</time>
      </trkpt>
      <trkpt lat="42.51241" lon="2.52498">
        <ele>1578.4000244141</ele>
        <time>2023-07-15T11:07:23.000Z</time>
      </trkpt>
      <trkpt lat="42.51241" lon="2.52497">
        <ele>1577.8000488281</ele>
        <time>2023-07-15T11:07:27.000Z</time>
      </trkpt>
      <trkpt lat="42.51243" lon="2.52502">
        <ele>1577.4000244141</ele>
        <time>2023-07-15T11:07:34.000Z</time>
      </trkpt>
      <trkpt lat="42.51241" lon="2.52507">
        <ele>1576.8000488281</ele>
        <time>2023-07-15T11:07:40.000Z</time>
      </trkpt>
      <trkpt lat="42.5124" lon="2.52508">
        <ele>1576.4000244141</ele>
        <time>2023-07-15T11:07:41.000Z</time>
      </trkpt>
      <trkpt lat="42.51239" lon="2.5251">
        <ele>1575.4000244141</ele>
        <time>2023-07-15T11:07:46.000Z</time>
      </trkpt>
      <trkpt lat="42.51238" lon="2.5251">
        <ele>1575.1999511719</ele>
        <time>2023-07-15T11:07:47.000Z</time>
      </trkpt>
      <trkpt lat="42.51238" lon="2.52511">
        <ele>1574.1999511719</ele>
        <time>2023-07-15T11:07:52.000Z</time>
      </trkpt>
      <trkpt lat="42.51238" lon="2.52512">
        <ele>1574</ele>
        <time>2023-07-15T11:07:53.000Z</time>
      </trkpt>
      <trkpt lat="42.5124" lon="2.52515">
        <ele>1573</ele>
        <time>2023-07-15T11:07:59.000Z</time>
      </trkpt>
      <trkpt lat="42.51241" lon="2.52516">
        <ele>1572.5999755859</ele>
        <time>2023-07-15T11:08:01.000Z</time>
      </trkpt>
      <trkpt lat="42.51243" lon="2.52516">
        <ele>1572</ele>
        <time>2023-07-15T11:08:04.000Z</time>
      </trkpt>
      <trkpt lat="42.51243" lon="2.52516">
        <ele>1571</ele>
        <time>2023-07-15T11:08:09.000Z</time>
      </trkpt>
      <trkpt lat="42.51243" lon="2.52516">
        <ele>1570.8000488281</ele>
        <time>2023-07-15T11:08:10.000Z</time>
      </trkpt>
      <trkpt lat="42.51244" lon="2.52517">
        <ele>1569.8000488281</ele>
        <time>2023-07-15T11:08:16.000Z</time>
      </trkpt>
      <trkpt lat="42.51244" lon="2.52516">
        <ele>1569.5999755859</ele>
        <time>2023-07-15T11:08:17.000Z</time>
      </trkpt>
      <trkpt lat="42.51244" lon="2.52516">
        <ele>1568.8000488281</ele>
        <time>2023-07-15T11:08:21.000Z</time>
      </trkpt>
      <trkpt lat="42.51246" lon="2.52515">
        <ele>1567.8000488281</ele>
        <time>2023-07-15T11:08:25.000Z</time>
      </trkpt>
      <trkpt lat="42.51246" lon="2.52515">
        <ele>1567.5999755859</ele>
        <time>2023-07-15T11:08:26.000Z</time>
      </trkpt>
      <trkpt lat="42.51249" lon="2.52519">
        <ele>1566.5999755859</ele>
        <time>2023-07-15T11:08:32.000Z</time>
      </trkpt>
      <trkpt lat="42.51252" lon="2.52524">
        <ele>1565.5999755859</ele>
        <time>2023-07-15T11:08:37.000Z</time>
      </trkpt>
      <trkpt lat="42.51256" lon="2.52532">
        <ele>1564.5999755859</ele>
        <time>2023-07-15T11:08:43.000Z</time>
      </trkpt>
      <trkpt lat="42.51257" lon="2.52535">
        <ele>1564.4000244141</ele>
        <time>2023-07-15T11:08:45.000Z</time>
      </trkpt>
      <trkpt lat="42.51259" lon="2.52536">
        <ele>1563.5999755859</ele>
        <time>2023-07-15T11:08:50.000Z</time>
      </trkpt>
      <trkpt lat="42.51259" lon="2.52536">
        <ele>1563.1999511719</ele>
        <time>2023-07-15T11:08:51.000Z</time>
      </trkpt>
      <trkpt lat="42.5126" lon="2.52534">
        <ele>1562.8000488281</ele>
        <time>2023-07-15T11:08:55.000Z</time>
      </trkpt>
      <trkpt lat="42.51261" lon="2.52532">
        <ele>1562.1999511719</ele>
        <time>2023-07-15T11:08:59.000Z</time>
      </trkpt>
      <trkpt lat="42.5126" lon="2.52532">
        <ele>1561.8000488281</ele>
        <time>2023-07-15T11:09:01.000Z</time>
      </trkpt>
      <trkpt lat="42.51259" lon="2.52533">
        <ele>1561.1999511719</ele>
        <time>2023-07-15T11:09:03.000Z</time>
      </trkpt>
      <trkpt lat="42.51259" lon="2.52533">
        <ele>1560.4000244141</ele>
        <time>2023-07-15T11:09:08.000Z</time>
      </trkpt>
      <trkpt lat="42.51262" lon="2.52532">
        <ele>1560.1999511719</ele>
        <time>2023-07-15T11:09:12.000Z</time>
      </trkpt>
      <trkpt lat="42.51268" lon="2.5253">
        <ele>1559.4000244141</ele>
        <time>2023-07-15T11:09:18.000Z</time>
      </trkpt>
      <trkpt lat="42.5127" lon="2.5253">
        <ele>1559</ele>
        <time>2023-07-15T11:09:20.000Z</time>
      </trkpt>
      <trkpt lat="42.51273" lon="2.5253">
        <ele>1558</ele>
        <time>2023-07-15T11:09:26.000Z</time>
      </trkpt>
      <trkpt lat="42.51274" lon="2.52529">
        <ele>1557.4000244141</ele>
        <time>2023-07-15T11:09:29.000Z</time>
      </trkpt>
      <trkpt lat="42.51275" lon="2.52531">
        <ele>1556.8000488281</ele>
        <time>2023-07-15T11:09:32.000Z</time>
      </trkpt>
      <trkpt lat="42.51274" lon="2.52532">
        <ele>1556.1999511719</ele>
        <time>2023-07-15T11:09:36.000Z</time>
      </trkpt>
      <trkpt lat="42.51274" lon="2.52533">
        <ele>1555.8000488281</ele>
        <time>2023-07-15T11:09:38.000Z</time>
      </trkpt>
      <trkpt lat="42.51275" lon="2.52535">
        <ele>1555.4000244141</ele>
        <time>2023-07-15T11:09:43.000Z</time>
      </trkpt>
      <trkpt lat="42.51275" lon="2.52537">
        <ele>1555.1999511719</ele>
        <time>2023-07-15T11:09:47.000Z</time>
      </trkpt>
      <trkpt lat="42.51277" lon="2.52541">
        <ele>1555.1999511719</ele>
        <time>2023-07-15T11:09:55.000Z</time>
      </trkpt>
      <trkpt lat="42.51273" lon="2.52539">
        <ele>1554.8000488281</ele>
        <time>2023-07-15T11:10:03.000Z</time>
      </trkpt>
      <trkpt lat="42.51272" lon="2.5254">
        <ele>1554.8000488281</ele>
        <time>2023-07-15T11:10:04.000Z</time>
      </trkpt>
      <trkpt lat="42.51273" lon="2.5254">
        <ele>1554</ele>
        <time>2023-07-15T11:10:10.000Z</time>
      </trkpt>
      <trkpt lat="42.51271" lon="2.52541">
        <ele>1553.5999755859</ele>
        <time>2023-07-15T11:10:13.000Z</time>
      </trkpt>
      <trkpt lat="42.51271" lon="2.5254">
        <ele>1553.1999511719</ele>
        <time>2023-07-15T11:10:18.000Z</time>
      </trkpt>
      <trkpt lat="42.51273" lon="2.52541">
        <ele>1552.5999755859</ele>
        <time>2023-07-15T11:10:21.000Z</time>
      </trkpt>
      <trkpt lat="42.51276" lon="2.52543">
        <ele>1552</ele>
        <time>2023-07-15T11:10:26.000Z</time>
      </trkpt>
      <trkpt lat="42.51278" lon="2.52544">
        <ele>1551.4000244141</ele>
        <time>2023-07-15T11:10:29.000Z</time>
      </trkpt>
      <trkpt lat="42.51279" lon="2.52543">
        <ele>1550.5999755859</ele>
        <time>2023-07-15T11:10:35.000Z</time>
      </trkpt>
      <trkpt lat="42.5128" lon="2.5254">
        <ele>1550.1999511719</ele>
        <time>2023-07-15T11:10:39.000Z</time>
      </trkpt>
      <trkpt lat="42.5128" lon="2.52537">
        <ele>1549.1999511719</ele>
        <time>2023-07-15T11:10:44.000Z</time>
      </trkpt>
      <trkpt lat="42.5128" lon="2.52537">
        <ele>1549</ele>
        <time>2023-07-15T11:10:45.000Z</time>
      </trkpt>
      <trkpt lat="42.51285" lon="2.52538">
        <ele>1548.1999511719</ele>
        <time>2023-07-15T11:10:50.000Z</time>
      </trkpt>
      <trkpt lat="42.51285" lon="2.52538">
        <ele>1548</ele>
        <time>2023-07-15T11:10:51.000Z</time>
      </trkpt>
      <trkpt lat="42.51288" lon="2.52539">
        <ele>1547</ele>
        <time>2023-07-15T11:10:57.000Z</time>
      </trkpt>
      <trkpt lat="42.51289" lon="2.5254">
        <ele>1546.5999755859</ele>
        <time>2023-07-15T11:10:59.000Z</time>
      </trkpt>
      <trkpt lat="42.5129" lon="2.52542">
        <ele>1545.8000488281</ele>
        <time>2023-07-15T11:11:03.000Z</time>
      </trkpt>
      <trkpt lat="42.51292" lon="2.52544">
        <ele>1545.1999511719</ele>
        <time>2023-07-15T11:11:06.000Z</time>
      </trkpt>
      <trkpt lat="42.51295" lon="2.52547">
        <ele>1544.8000488281</ele>
        <time>2023-07-15T11:11:09.000Z</time>
      </trkpt>
      <trkpt lat="42.51298" lon="2.52548">
        <ele>1543.5999755859</ele>
        <time>2023-07-15T11:11:15.000Z</time>
      </trkpt>
      <trkpt lat="42.51298" lon="2.52547">
        <ele>1543.5999755859</ele>
        <time>2023-07-15T11:11:16.000Z</time>
      </trkpt>
      <trkpt lat="42.51299" lon="2.52545">
        <ele>1543</ele>
        <time>2023-07-15T11:11:22.000Z</time>
      </trkpt>
      <trkpt lat="42.513" lon="2.52544">
        <ele>1542.5999755859</ele>
        <time>2023-07-15T11:11:24.000Z</time>
      </trkpt>
      <trkpt lat="42.51302" lon="2.52542">
        <ele>1542</ele>
        <time>2023-07-15T11:11:28.000Z</time>
      </trkpt>
      <trkpt lat="42.51304" lon="2.52542">
        <ele>1541.5999755859</ele>
        <time>2023-07-15T11:11:30.000Z</time>
      </trkpt>
      <trkpt lat="42.51308" lon="2.52547">
        <ele>1540.5999755859</ele>
        <time>2023-07-15T11:11:37.000Z</time>
      </trkpt>
      <trkpt lat="42.51308" lon="2.52548">
        <ele>1540.4000244141</ele>
        <time>2023-07-15T11:11:38.000Z</time>
      </trkpt>
      <trkpt lat="42.51314" lon="2.52555">
        <ele>1540</ele>
        <time>2023-07-15T11:11:46.000Z</time>
      </trkpt>
      <trkpt lat="42.51319" lon="2.52563">
        <ele>1539.5999755859</ele>
        <time>2023-07-15T11:11:55.000Z</time>
      </trkpt>
      <trkpt lat="42.51319" lon="2.52564">
        <ele>1539.4000244141</ele>
        <time>2023-07-15T11:11:56.000Z</time>
      </trkpt>
      <trkpt lat="42.51322" lon="2.52568">
        <ele>1538.8000488281</ele>
        <time>2023-07-15T11:12:02.000Z</time>
      </trkpt>
      <trkpt lat="42.51325" lon="2.52571">
        <ele>1538.4000244141</ele>
        <time>2023-07-15T11:12:05.000Z</time>
      </trkpt>
      <trkpt lat="42.51328" lon="2.52573">
        <ele>1537.5999755859</ele>
        <time>2023-07-15T11:12:09.000Z</time>
      </trkpt>
      <trkpt lat="42.5133" lon="2.52576">
        <ele>1537.1999511719</ele>
        <time>2023-07-15T11:12:12.000Z</time>
      </trkpt>
      <trkpt lat="42.51331" lon="2.52577">
        <ele>1537</ele>
        <time>2023-07-15T11:12:15.000Z</time>
      </trkpt>
      <trkpt lat="42.51333" lon="2.52581">
        <ele>1536.1999511719</ele>
        <time>2023-07-15T11:12:20.000Z</time>
      </trkpt>
      <trkpt lat="42.51334" lon="2.52581">
        <ele>1536</ele>
        <time>2023-07-15T11:12:21.000Z</time>
      </trkpt>
      <trkpt lat="42.51336" lon="2.52583">
        <ele>1535</ele>
        <time>2023-07-15T11:12:25.000Z</time>
      </trkpt>
      <trkpt lat="42.51337" lon="2.52584">
        <ele>1534.4000244141</ele>
        <time>2023-07-15T11:12:27.000Z</time>
      </trkpt>
      <trkpt lat="42.51339" lon="2.52587">
        <ele>1534</ele>
        <time>2023-07-15T11:12:30.000Z</time>
      </trkpt>
      <trkpt lat="42.51342" lon="2.52589">
        <ele>1533</ele>
        <time>2023-07-15T11:12:34.000Z</time>
      </trkpt>
      <trkpt lat="42.51343" lon="2.52591">
        <ele>1532.8000488281</ele>
        <time>2023-07-15T11:12:36.000Z</time>
      </trkpt>
      <trkpt lat="42.51347" lon="2.52597">
        <ele>1531.5999755859</ele>
        <time>2023-07-15T11:12:41.000Z</time>
      </trkpt>
      <trkpt lat="42.51351" lon="2.52603">
        <ele>1530.5999755859</ele>
        <time>2023-07-15T11:12:47.000Z</time>
      </trkpt>
      <trkpt lat="42.51355" lon="2.52603">
        <ele>1530</ele>
        <time>2023-07-15T11:12:52.000Z</time>
      </trkpt>
      <trkpt lat="42.51355" lon="2.52605">
        <ele>1529.8000488281</ele>
        <time>2023-07-15T11:12:54.000Z</time>
      </trkpt>
      <trkpt lat="42.51356" lon="2.52605">
        <ele>1529.5999755859</ele>
        <time>2023-07-15T11:12:55.000Z</time>
      </trkpt>
      <trkpt lat="42.5136" lon="2.52607">
        <ele>1528.8000488281</ele>
        <time>2023-07-15T11:13:02.000Z</time>
      </trkpt>
      <trkpt lat="42.51361" lon="2.52607">
        <ele>1528.5999755859</ele>
        <time>2023-07-15T11:13:03.000Z</time>
      </trkpt>
      <trkpt lat="42.51362" lon="2.52607">
        <ele>1528.4000244141</ele>
        <time>2023-07-15T11:13:04.000Z</time>
      </trkpt>
      <trkpt lat="42.51373" lon="2.52608">
        <ele>1527.5999755859</ele>
        <time>2023-07-15T11:13:11.000Z</time>
      </trkpt>
      <trkpt lat="42.51374" lon="2.52609">
        <ele>1527.4000244141</ele>
        <time>2023-07-15T11:13:12.000Z</time>
      </trkpt>
      <trkpt lat="42.51381" lon="2.52607">
        <ele>1526.5999755859</ele>
        <time>2023-07-15T11:13:20.000Z</time>
      </trkpt>
      <trkpt lat="42.51387" lon="2.52611">
        <ele>1526.4000244141</ele>
        <time>2023-07-15T11:13:25.000Z</time>
      </trkpt>
      <trkpt lat="42.51389" lon="2.52615">
        <ele>1526.5999755859</ele>
        <time>2023-07-15T11:13:28.000Z</time>
      </trkpt>
      <trkpt lat="42.5139" lon="2.52621">
        <ele>1525.4000244141</ele>
        <time>2023-07-15T11:13:35.000Z</time>
      </trkpt>
      <trkpt lat="42.51391" lon="2.52623">
        <ele>1524.8000488281</ele>
        <time>2023-07-15T11:13:37.000Z</time>
      </trkpt>
      <trkpt lat="42.51392" lon="2.52626">
        <ele>1524.1999511719</ele>
        <time>2023-07-15T11:13:39.000Z</time>
      </trkpt>
      <trkpt lat="42.51394" lon="2.52629">
        <ele>1523.1999511719</ele>
        <time>2023-07-15T11:13:42.000Z</time>
      </trkpt>
      <trkpt lat="42.51395" lon="2.52631">
        <ele>1522.8000488281</ele>
        <time>2023-07-15T11:13:43.000Z</time>
      </trkpt>
      <trkpt lat="42.51399" lon="2.52642">
        <ele>1522.1999511719</ele>
        <time>2023-07-15T11:13:51.000Z</time>
      </trkpt>
      <trkpt lat="42.51405" lon="2.52647">
        <ele>1521.8000488281</ele>
        <time>2023-07-15T11:13:58.000Z</time>
      </trkpt>
      <trkpt lat="42.51406" lon="2.5265">
        <ele>1521.5999755859</ele>
        <time>2023-07-15T11:13:59.000Z</time>
      </trkpt>
      <trkpt lat="42.51409" lon="2.52659">
        <ele>1520.8000488281</ele>
        <time>2023-07-15T11:14:04.000Z</time>
      </trkpt>
      <trkpt lat="42.51411" lon="2.52662">
        <ele>1520.5999755859</ele>
        <time>2023-07-15T11:14:07.000Z</time>
      </trkpt>
      <trkpt lat="42.51412" lon="2.52667">
        <ele>1519.8000488281</ele>
        <time>2023-07-15T11:14:11.000Z</time>
      </trkpt>
      <trkpt lat="42.51414" lon="2.52668">
        <ele>1519.1999511719</ele>
        <time>2023-07-15T11:14:14.000Z</time>
      </trkpt>
      <trkpt lat="42.51415" lon="2.5267">
        <ele>1518.5999755859</ele>
        <time>2023-07-15T11:14:16.000Z</time>
      </trkpt>
      <trkpt lat="42.51416" lon="2.52677">
        <ele>1517.8000488281</ele>
        <time>2023-07-15T11:14:20.000Z</time>
      </trkpt>
      <trkpt lat="42.51418" lon="2.5268">
        <ele>1517.5999755859</ele>
        <time>2023-07-15T11:14:22.000Z</time>
      </trkpt>
      <trkpt lat="42.5142" lon="2.5269">
        <ele>1516.8000488281</ele>
        <time>2023-07-15T11:14:27.000Z</time>
      </trkpt>
      <trkpt lat="42.51422" lon="2.52694">
        <ele>1516.4000244141</ele>
        <time>2023-07-15T11:14:30.000Z</time>
      </trkpt>
      <trkpt lat="42.51426" lon="2.527">
        <ele>1515.8000488281</ele>
        <time>2023-07-15T11:14:34.000Z</time>
      </trkpt>
      <trkpt lat="42.5143" lon="2.5271">
        <ele>1515.4000244141</ele>
        <time>2023-07-15T11:14:40.000Z</time>
      </trkpt>
      <trkpt lat="42.51431" lon="2.52713">
        <ele>1515.1999511719</ele>
        <time>2023-07-15T11:14:42.000Z</time>
      </trkpt>
      <trkpt lat="42.51437" lon="2.52723">
        <ele>1514.5999755859</ele>
        <time>2023-07-15T11:14:49.000Z</time>
      </trkpt>
      <trkpt lat="42.5144" lon="2.52728">
        <ele>1514.4000244141</ele>
        <time>2023-07-15T11:14:52.000Z</time>
      </trkpt>
      <trkpt lat="42.51443" lon="2.52731">
        <ele>1513.8000488281</ele>
        <time>2023-07-15T11:14:56.000Z</time>
      </trkpt>
      <trkpt lat="42.51444" lon="2.52732">
        <ele>1513.1999511719</ele>
        <time>2023-07-15T11:14:58.000Z</time>
      </trkpt>
      <trkpt lat="42.51448" lon="2.52733">
        <ele>1512.1999511719</ele>
        <time>2023-07-15T11:15:05.000Z</time>
      </trkpt>
      <trkpt lat="42.51448" lon="2.52733">
        <ele>1512</ele>
        <time>2023-07-15T11:15:06.000Z</time>
      </trkpt>
      <trkpt lat="42.51454" lon="2.52734">
        <ele>1511</ele>
        <time>2023-07-15T11:15:13.000Z</time>
      </trkpt>
      <trkpt lat="42.51456" lon="2.52733">
        <ele>1510.5999755859</ele>
        <time>2023-07-15T11:15:15.000Z</time>
      </trkpt>
      <trkpt lat="42.51465" lon="2.52736">
        <ele>1510.1999511719</ele>
        <time>2023-07-15T11:15:25.000Z</time>
      </trkpt>
      <trkpt lat="42.51465" lon="2.52738">
        <ele>1510.1999511719</ele>
        <time>2023-07-15T11:15:26.000Z</time>
      </trkpt>
      <trkpt lat="42.51465" lon="2.52743">
        <ele>1510</ele>
        <time>2023-07-15T11:15:32.000Z</time>
      </trkpt>
      <trkpt lat="42.51465" lon="2.52743">
        <ele>1509.8000488281</ele>
        <time>2023-07-15T11:15:33.000Z</time>
      </trkpt>
      <trkpt lat="42.51469" lon="2.52736">
        <ele>1509.5999755859</ele>
        <time>2023-07-15T11:15:40.000Z</time>
      </trkpt>
      <trkpt lat="42.51475" lon="2.52732">
        <ele>1509.4000244141</ele>
        <time>2023-07-15T11:15:48.000Z</time>
      </trkpt>
      <trkpt lat="42.51477" lon="2.5273">
        <ele>1509</ele>
        <time>2023-07-15T11:15:51.000Z</time>
      </trkpt>
      <trkpt lat="42.51482" lon="2.52724">
        <ele>1507.8000488281</ele>
        <time>2023-07-15T11:15:57.000Z</time>
      </trkpt>
      <trkpt lat="42.51486" lon="2.52722">
        <ele>1506.5999755859</ele>
        <time>2023-07-15T11:16:02.000Z</time>
      </trkpt>
      <trkpt lat="42.5149" lon="2.52717">
        <ele>1505.8000488281</ele>
        <time>2023-07-15T11:16:08.000Z</time>
      </trkpt>
      <trkpt lat="42.51492" lon="2.52717">
        <ele>1505.5999755859</ele>
        <time>2023-07-15T11:16:10.000Z</time>
      </trkpt>
      <trkpt lat="42.51496" lon="2.52713">
        <ele>1504.1999511719</ele>
        <time>2023-07-15T11:16:17.000Z</time>
      </trkpt>
      <trkpt lat="42.51497" lon="2.52711">
        <ele>1503.4000244141</ele>
        <time>2023-07-15T11:16:21.000Z</time>
      </trkpt>
      <trkpt lat="42.51502" lon="2.52707">
        <ele>1502.4000244141</ele>
        <time>2023-07-15T11:16:25.000Z</time>
      </trkpt>
      <trkpt lat="42.51505" lon="2.52705">
        <ele>1502</ele>
        <time>2023-07-15T11:16:27.000Z</time>
      </trkpt>
      <trkpt lat="42.5151" lon="2.52701">
        <ele>1501.4000244141</ele>
        <time>2023-07-15T11:16:31.000Z</time>
      </trkpt>
      <trkpt lat="42.51517" lon="2.52699">
        <ele>1500.5999755859</ele>
        <time>2023-07-15T11:16:36.000Z</time>
      </trkpt>
      <trkpt lat="42.51531" lon="2.52698">
        <ele>1500.4000244141</ele>
        <time>2023-07-15T11:16:45.000Z</time>
      </trkpt>
      <trkpt lat="42.5154" lon="2.52696">
        <ele>1500.5999755859</ele>
        <time>2023-07-15T11:16:51.000Z</time>
      </trkpt>
      <trkpt lat="42.51546" lon="2.52696">
        <ele>1501</ele>
        <time>2023-07-15T11:17:00.000Z</time>
      </trkpt>
      <trkpt lat="42.51551" lon="2.52687">
        <ele>1500.5999755859</ele>
        <time>2023-07-15T11:17:06.000Z</time>
      </trkpt>
      <trkpt lat="42.51554" lon="2.52686">
        <ele>1500.4000244141</ele>
        <time>2023-07-15T11:17:08.000Z</time>
      </trkpt>
      <trkpt lat="42.51557" lon="2.52684">
        <ele>1500.1999511719</ele>
        <time>2023-07-15T11:17:12.000Z</time>
      </trkpt>
      <trkpt lat="42.51559" lon="2.52682">
        <ele>1500.1999511719</ele>
        <time>2023-07-15T11:17:15.000Z</time>
      </trkpt>
      <trkpt lat="42.51558" lon="2.52681">
        <ele>1500</ele>
        <time>2023-07-15T11:17:16.000Z</time>
      </trkpt>
      <trkpt lat="42.51561" lon="2.52678">
        <ele>1499.5999755859</ele>
        <time>2023-07-15T11:17:20.000Z</time>
      </trkpt>
      <trkpt lat="42.51562" lon="2.52677">
        <ele>1499.1999511719</ele>
        <time>2023-07-15T11:17:23.000Z</time>
      </trkpt>
      <trkpt lat="42.51566" lon="2.52676">
        <ele>1498.8000488281</ele>
        <time>2023-07-15T11:17:28.000Z</time>
      </trkpt>
      <trkpt lat="42.51569" lon="2.52675">
        <ele>1498.1999511719</ele>
        <time>2023-07-15T11:17:32.000Z</time>
      </trkpt>
      <trkpt lat="42.51573" lon="2.52674">
        <ele>1498.1999511719</ele>
        <time>2023-07-15T11:17:35.000Z</time>
      </trkpt>
      <trkpt lat="42.51582" lon="2.5267">
        <ele>1498</ele>
        <time>2023-07-15T11:17:42.000Z</time>
      </trkpt>
      <trkpt lat="42.51583" lon="2.52667">
        <ele>1497.5999755859</ele>
        <time>2023-07-15T11:17:44.000Z</time>
      </trkpt>
      <trkpt lat="42.51585" lon="2.52666">
        <ele>1497.4000244141</ele>
        <time>2023-07-15T11:17:47.000Z</time>
      </trkpt>
      <trkpt lat="42.51587" lon="2.52666">
        <ele>1497.4000244141</ele>
        <time>2023-07-15T11:17:48.000Z</time>
      </trkpt>
      <trkpt lat="42.51592" lon="2.52666">
        <ele>1498</ele>
        <time>2023-07-15T11:17:55.000Z</time>
      </trkpt>
      <trkpt lat="42.51593" lon="2.52664">
        <ele>1498.1999511719</ele>
        <time>2023-07-15T11:17:57.000Z</time>
      </trkpt>
      <trkpt lat="42.51596" lon="2.52662">
        <ele>1498.1999511719</ele>
        <time>2023-07-15T11:17:59.000Z</time>
      </trkpt>
      <trkpt lat="42.51598" lon="2.5266">
        <ele>1498</ele>
        <time>2023-07-15T11:18:01.000Z</time>
      </trkpt>
      <trkpt lat="42.51604" lon="2.52657">
        <ele>1497.1999511719</ele>
        <time>2023-07-15T11:18:07.000Z</time>
      </trkpt>
      <trkpt lat="42.51605" lon="2.52657">
        <ele>1497</ele>
        <time>2023-07-15T11:18:08.000Z</time>
      </trkpt>
      <trkpt lat="42.51608" lon="2.52656">
        <ele>1496.1999511719</ele>
        <time>2023-07-15T11:18:13.000Z</time>
      </trkpt>
      <trkpt lat="42.51611" lon="2.52655">
        <ele>1495.8000488281</ele>
        <time>2023-07-15T11:18:15.000Z</time>
      </trkpt>
      <trkpt lat="42.51622" lon="2.52653">
        <ele>1495.4000244141</ele>
        <time>2023-07-15T11:18:23.000Z</time>
      </trkpt>
      <trkpt lat="42.51628" lon="2.5265">
        <ele>1495.8000488281</ele>
        <time>2023-07-15T11:18:28.000Z</time>
      </trkpt>
      <trkpt lat="42.51633" lon="2.52647">
        <ele>1496.1999511719</ele>
        <time>2023-07-15T11:18:34.000Z</time>
      </trkpt>
      <trkpt lat="42.51636" lon="2.52643">
        <ele>1496.1999511719</ele>
        <time>2023-07-15T11:18:43.000Z</time>
      </trkpt>
      <trkpt lat="42.51639" lon="2.52638">
        <ele>1495.4000244141</ele>
        <time>2023-07-15T11:18:51.000Z</time>
      </trkpt>
      <trkpt lat="42.51641" lon="2.52637">
        <ele>1495</ele>
        <time>2023-07-15T11:18:53.000Z</time>
      </trkpt>
      <trkpt lat="42.51646" lon="2.52638">
        <ele>1494</ele>
        <time>2023-07-15T11:18:59.000Z</time>
      </trkpt>
      <trkpt lat="42.51645" lon="2.52638">
        <ele>1493.8000488281</ele>
        <time>2023-07-15T11:19:00.000Z</time>
      </trkpt>
      <trkpt lat="42.51648" lon="2.5264">
        <ele>1492.5999755859</ele>
        <time>2023-07-15T11:19:06.000Z</time>
      </trkpt>
      <trkpt lat="42.5165" lon="2.52638">
        <ele>1492</ele>
        <time>2023-07-15T11:19:10.000Z</time>
      </trkpt>
      <trkpt lat="42.51652" lon="2.52637">
        <ele>1491.5999755859</ele>
        <time>2023-07-15T11:19:12.000Z</time>
      </trkpt>
      <trkpt lat="42.51653" lon="2.52637">
        <ele>1491.4000244141</ele>
        <time>2023-07-15T11:19:13.000Z</time>
      </trkpt>
      <trkpt lat="42.51654" lon="2.52636">
        <ele>1491.1999511719</ele>
        <time>2023-07-15T11:19:14.000Z</time>
      </trkpt>
      <trkpt lat="42.51659" lon="2.52632">
        <ele>1490.4000244141</ele>
        <time>2023-07-15T11:19:19.000Z</time>
      </trkpt>
      <trkpt lat="42.5166" lon="2.52631">
        <ele>1490.4000244141</ele>
        <time>2023-07-15T11:19:20.000Z</time>
      </trkpt>
      <trkpt lat="42.5167" lon="2.52628">
        <ele>1489.4000244141</ele>
        <time>2023-07-15T11:19:32.000Z</time>
      </trkpt>
      <trkpt lat="42.5168" lon="2.52631">
        <ele>1488.5999755859</ele>
        <time>2023-07-15T11:19:40.000Z</time>
      </trkpt>
      <trkpt lat="42.51684" lon="2.52632">
        <ele>1488.4000244141</ele>
        <time>2023-07-15T11:19:43.000Z</time>
      </trkpt>
      <trkpt lat="42.51688" lon="2.52632">
        <ele>1488.1999511719</ele>
        <time>2023-07-15T11:19:47.000Z</time>
      </trkpt>
      <trkpt lat="42.51695" lon="2.52629">
        <ele>1486.8000488281</ele>
        <time>2023-07-15T11:19:57.000Z</time>
      </trkpt>
      <trkpt lat="42.517" lon="2.52628">
        <ele>1486.1999511719</ele>
        <time>2023-07-15T11:20:01.000Z</time>
      </trkpt>
      <trkpt lat="42.51705" lon="2.52627">
        <ele>1485.8000488281</ele>
        <time>2023-07-15T11:20:05.000Z</time>
      </trkpt>
      <trkpt lat="42.51716" lon="2.52626">
        <ele>1485.1999511719</ele>
        <time>2023-07-15T11:20:18.000Z</time>
      </trkpt>
      <trkpt lat="42.51717" lon="2.52625">
        <ele>1485</ele>
        <time>2023-07-15T11:20:19.000Z</time>
      </trkpt>
      <trkpt lat="42.51727" lon="2.52616">
        <ele>1485.5999755859</ele>
        <time>2023-07-15T11:20:30.000Z</time>
      </trkpt>
      <trkpt lat="42.51729" lon="2.52614">
        <ele>1485.8000488281</ele>
        <time>2023-07-15T11:20:31.000Z</time>
      </trkpt>
      <trkpt lat="42.51732" lon="2.5261">
        <ele>1486.1999511719</ele>
        <time>2023-07-15T11:20:34.000Z</time>
      </trkpt>
      <trkpt lat="42.51737" lon="2.52607">
        <ele>1486.4000244141</ele>
        <time>2023-07-15T11:20:38.000Z</time>
      </trkpt>
      <trkpt lat="42.51746" lon="2.52606">
        <ele>1487.1999511719</ele>
        <time>2023-07-15T11:20:44.000Z</time>
      </trkpt>
      <trkpt lat="42.5175" lon="2.52605">
        <ele>1488.1999511719</ele>
        <time>2023-07-15T11:20:50.000Z</time>
      </trkpt>
      <trkpt lat="42.51751" lon="2.52605">
        <ele>1488.4000244141</ele>
        <time>2023-07-15T11:20:51.000Z</time>
      </trkpt>
      <trkpt lat="42.51756" lon="2.52604">
        <ele>1489.4000244141</ele>
        <time>2023-07-15T11:20:57.000Z</time>
      </trkpt>
      <trkpt lat="42.51757" lon="2.52604">
        <ele>1489.5999755859</ele>
        <time>2023-07-15T11:20:58.000Z</time>
      </trkpt>
      <trkpt lat="42.51767" lon="2.52601">
        <ele>1490.1999511719</ele>
        <time>2023-07-15T11:21:03.000Z</time>
      </trkpt>
      <trkpt lat="42.5177" lon="2.526">
        <ele>1490.4000244141</ele>
        <time>2023-07-15T11:21:06.000Z</time>
      </trkpt>
      <trkpt lat="42.51771" lon="2.52595">
        <ele>1490.5999755859</ele>
        <time>2023-07-15T11:21:10.000Z</time>
      </trkpt>
      <trkpt lat="42.5177" lon="2.52588">
        <ele>1491</ele>
        <time>2023-07-15T11:21:15.000Z</time>
      </trkpt>
      <trkpt lat="42.51769" lon="2.52583">
        <ele>1491</ele>
        <time>2023-07-15T11:21:17.000Z</time>
      </trkpt>
      <trkpt lat="42.51768" lon="2.52581">
        <ele>1490.8000488281</ele>
        <time>2023-07-15T11:21:19.000Z</time>
      </trkpt>
      <trkpt lat="42.51768" lon="2.52577">
        <ele>1490.8000488281</ele>
        <time>2023-07-15T11:21:23.000Z</time>
      </trkpt>
      <trkpt lat="42.51772" lon="2.52585">
        <ele>1490.5999755859</ele>
        <time>2023-07-15T11:21:30.000Z</time>
      </trkpt>
      <trkpt lat="42.51775" lon="2.5258">
        <ele>1490.8000488281</ele>
        <time>2023-07-15T11:21:37.000Z</time>
      </trkpt>
      <trkpt lat="42.51778" lon="2.52569">
        <ele>1491</ele>
        <time>2023-07-15T11:21:44.000Z</time>
      </trkpt>
      <trkpt lat="42.51775" lon="2.52562">
        <ele>1491</ele>
        <time>2023-07-15T11:21:49.000Z</time>
      </trkpt>
      <trkpt lat="42.51774" lon="2.52562">
        <ele>1491</ele>
        <time>2023-07-15T11:21:51.000Z</time>
      </trkpt>
      <trkpt lat="42.51774" lon="2.5256">
        <ele>1490.8000488281</ele>
        <time>2023-07-15T11:21:52.000Z</time>
      </trkpt>
      <trkpt lat="42.51773" lon="2.52556">
        <ele>1490.5999755859</ele>
        <time>2023-07-15T11:22:03.000Z</time>
      </trkpt>
      <trkpt lat="42.51777" lon="2.52546">
        <ele>1490.8000488281</ele>
        <time>2023-07-15T11:22:09.000Z</time>
      </trkpt>
      <trkpt lat="42.51781" lon="2.52538">
        <ele>1491.4000244141</ele>
        <time>2023-07-15T11:22:16.000Z</time>
      </trkpt>
      <trkpt lat="42.51782" lon="2.52536">
        <ele>1491.5999755859</ele>
        <time>2023-07-15T11:22:17.000Z</time>
      </trkpt>
      <trkpt lat="42.51784" lon="2.52529">
        <ele>1492.5999755859</ele>
        <time>2023-07-15T11:22:24.000Z</time>
      </trkpt>
      <trkpt lat="42.51788" lon="2.52518">
        <ele>1493.1999511719</ele>
        <time>2023-07-15T11:22:32.000Z</time>
      </trkpt>
      <trkpt lat="42.5179" lon="2.52502">
        <ele>1493.1999511719</ele>
        <time>2023-07-15T11:22:41.000Z</time>
      </trkpt>
      <trkpt lat="42.51793" lon="2.52492">
        <ele>1492.8000488281</ele>
        <time>2023-07-15T11:22:49.000Z</time>
      </trkpt>
      <trkpt lat="42.51795" lon="2.52478">
        <ele>1492.8000488281</ele>
        <time>2023-07-15T11:22:58.000Z</time>
      </trkpt>
      <trkpt lat="42.51796" lon="2.52467">
        <ele>1492.4000244141</ele>
        <time>2023-07-15T11:23:05.000Z</time>
      </trkpt>
      <trkpt lat="42.51797" lon="2.52456">
        <ele>1492.4000244141</ele>
        <time>2023-07-15T11:23:13.000Z</time>
      </trkpt>
      <trkpt lat="42.51797" lon="2.52457">
        <ele>1492.4000244141</ele>
        <time>2023-07-15T11:23:14.000Z</time>
      </trkpt>
      <trkpt lat="42.51798" lon="2.5246">
        <ele>1492.4000244141</ele>
        <time>2023-07-15T11:23:23.000Z</time>
      </trkpt>
      <trkpt lat="42.51798" lon="2.5246">
        <ele>1492.4000244141</ele>
        <time>2023-07-15T11:23:24.000Z</time>
      </trkpt>
      <trkpt lat="42.51796" lon="2.52457">
        <ele>1492.1999511719</ele>
        <time>2023-07-15T11:23:32.000Z</time>
      </trkpt>
      <trkpt lat="42.51793" lon="2.52456">
        <ele>1492.1999511719</ele>
        <time>2023-07-15T11:23:41.000Z</time>
      </trkpt>
      <trkpt lat="42.51797" lon="2.52449">
        <ele>1492.4000244141</ele>
        <time>2023-07-15T11:23:51.000Z</time>
      </trkpt>
      <trkpt lat="42.518" lon="2.52442">
        <ele>1492</ele>
        <time>2023-07-15T11:23:59.000Z</time>
      </trkpt>
      <trkpt lat="42.51799" lon="2.52437">
        <ele>1492.1999511719</ele>
        <time>2023-07-15T11:24:06.000Z</time>
      </trkpt>
      <trkpt lat="42.51799" lon="2.52436">
        <ele>1492</ele>
        <time>2023-07-15T11:24:11.000Z</time>
      </trkpt>
      <trkpt lat="42.51801" lon="2.52441">
        <ele>1491.5999755859</ele>
        <time>2023-07-15T11:24:18.000Z</time>
      </trkpt>
      <trkpt lat="42.518" lon="2.52442">
        <ele>1491.5999755859</ele>
        <time>2023-07-15T11:24:19.000Z</time>
      </trkpt>
      <trkpt lat="42.51798" lon="2.52455">
        <ele>1491.1999511719</ele>
        <time>2023-07-15T11:24:27.000Z</time>
      </trkpt>
      <trkpt lat="42.51794" lon="2.52458">
        <ele>1491</ele>
        <time>2023-07-15T11:24:32.000Z</time>
      </trkpt>
      <trkpt lat="42.51793" lon="2.52459">
        <ele>1491.1999511719</ele>
        <time>2023-07-15T11:24:33.000Z</time>
      </trkpt>
      <trkpt lat="42.51791" lon="2.52459">
        <ele>1491.1999511719</ele>
        <time>2023-07-15T11:24:44.000Z</time>
      </trkpt>
      <trkpt lat="42.51792" lon="2.52459">
        <ele>1491.1999511719</ele>
        <time>2023-07-15T11:24:45.000Z</time>
      </trkpt>
      <trkpt lat="42.51794" lon="2.52456">
        <ele>1491</ele>
        <time>2023-07-15T11:24:52.000Z</time>
      </trkpt>
      <trkpt lat="42.51797" lon="2.52455">
        <ele>1491.1999511719</ele>
        <time>2023-07-15T11:25:01.000Z</time>
      </trkpt>
      <trkpt lat="42.51798" lon="2.52453">
        <ele>1491.1999511719</ele>
        <time>2023-07-15T11:25:10.000Z</time>
      </trkpt>
      <trkpt lat="42.51798" lon="2.52453">
        <ele>1491.8000488281</ele>
        <time>2023-07-15T11:25:18.000Z</time>
      </trkpt>
      <trkpt lat="42.51801" lon="2.52455">
        <ele>1491.4000244141</ele>
        <time>2023-07-15T11:25:28.000Z</time>
      </trkpt>
      <trkpt lat="42.51797" lon="2.52457">
        <ele>1491.1999511719</ele>
        <time>2023-07-15T11:25:35.000Z</time>
      </trkpt>
      <trkpt lat="42.518" lon="2.5246">
        <ele>1491.4000244141</ele>
        <time>2023-07-15T11:25:44.000Z</time>
      </trkpt>
      <trkpt lat="42.518" lon="2.52459">
        <ele>1492.1999511719</ele>
        <time>2023-07-15T11:25:50.000Z</time>
      </trkpt>
      <trkpt lat="42.51799" lon="2.52453">
        <ele>1492.5999755859</ele>
        <time>2023-07-15T11:25:56.000Z</time>
      </trkpt>
      <trkpt lat="42.518" lon="2.52443">
        <ele>1493.1999511719</ele>
        <time>2023-07-15T11:26:01.000Z</time>
      </trkpt>
      <trkpt lat="42.51802" lon="2.5244">
        <ele>1493.4000244141</ele>
        <time>2023-07-15T11:26:07.000Z</time>
      </trkpt>
      <trkpt lat="42.51806" lon="2.52444">
        <ele>1493.5999755859</ele>
        <time>2023-07-15T11:26:13.000Z</time>
      </trkpt>
      <trkpt lat="42.51806" lon="2.5244">
        <ele>1493.5999755859</ele>
        <time>2023-07-15T11:26:17.000Z</time>
      </trkpt>
      <trkpt lat="42.51806" lon="2.5244">
        <ele>1493.5999755859</ele>
        <time>2023-07-15T11:26:18.000Z</time>
      </trkpt>
      <trkpt lat="42.51803" lon="2.52443">
        <ele>1494</ele>
        <time>2023-07-15T11:26:25.000Z</time>
      </trkpt>
      <trkpt lat="42.51799" lon="2.52445">
        <ele>1494.4000244141</ele>
        <time>2023-07-15T11:26:35.000Z</time>
      </trkpt>
      <trkpt lat="42.51799" lon="2.52444">
        <ele>1494.5999755859</ele>
        <time>2023-07-15T11:26:42.000Z</time>
      </trkpt>
      <trkpt lat="42.518" lon="2.52445">
        <ele>1494.5999755859</ele>
        <time>2023-07-15T11:26:45.000Z</time>
      </trkpt>
      <trkpt lat="42.518" lon="2.52447">
        <ele>1494.5999755859</ele>
        <time>2023-07-15T11:26:52.000Z</time>
      </trkpt>
      <trkpt lat="42.51801" lon="2.52449">
        <ele>1494</ele>
        <time>2023-07-15T11:27:02.000Z</time>
      </trkpt>
      <trkpt lat="42.51801" lon="2.52442">
        <ele>1493.5999755859</ele>
        <time>2023-07-15T11:27:11.000Z</time>
      </trkpt>
      <trkpt lat="42.51803" lon="2.52438">
        <ele>1493.5999755859</ele>
        <time>2023-07-15T11:27:17.000Z</time>
      </trkpt>
      <trkpt lat="42.518" lon="2.52448">
        <ele>1493.4000244141</ele>
        <time>2023-07-15T11:27:23.000Z</time>
      </trkpt>
      <trkpt lat="42.51799" lon="2.52459">
        <ele>1493.1999511719</ele>
        <time>2023-07-15T11:27:32.000Z</time>
      </trkpt>
      <trkpt lat="42.51794" lon="2.5246">
        <ele>1494.4000244141</ele>
        <time>2023-07-15T11:27:40.000Z</time>
      </trkpt>
      <trkpt lat="42.51794" lon="2.52459">
        <ele>1494.8000488281</ele>
        <time>2023-07-15T11:27:44.000Z</time>
      </trkpt>
      <trkpt lat="42.51795" lon="2.5246">
        <ele>1495.5999755859</ele>
        <time>2023-07-15T11:27:47.000Z</time>
      </trkpt>
      <trkpt lat="42.51795" lon="2.52462">
        <ele>1496.4000244141</ele>
        <time>2023-07-15T11:27:49.000Z</time>
      </trkpt>
      <trkpt lat="42.51798" lon="2.52461">
        <ele>1497</ele>
        <time>2023-07-15T11:27:54.000Z</time>
      </trkpt>
      <trkpt lat="42.51802" lon="2.52453">
        <ele>1496.5999755859</ele>
        <time>2023-07-15T11:27:59.000Z</time>
      </trkpt>
      <trkpt lat="42.51802" lon="2.52443">
        <ele>1495.5999755859</ele>
        <time>2023-07-15T11:28:05.000Z</time>
      </trkpt>
      <trkpt lat="42.51802" lon="2.52438">
        <ele>1495.1999511719</ele>
        <time>2023-07-15T11:28:09.000Z</time>
      </trkpt>
      <trkpt lat="42.51803" lon="2.52438">
        <ele>1495.1999511719</ele>
        <time>2023-07-15T11:28:11.000Z</time>
      </trkpt>
      <trkpt lat="42.51804" lon="2.52439">
        <ele>1494</ele>
        <time>2023-07-15T11:28:15.000Z</time>
      </trkpt>
      <trkpt lat="42.51804" lon="2.52437">
        <ele>1493.4000244141</ele>
        <time>2023-07-15T11:28:19.000Z</time>
      </trkpt>
      <trkpt lat="42.51806" lon="2.52442">
        <ele>1492.4000244141</ele>
        <time>2023-07-15T11:28:26.000Z</time>
      </trkpt>
      <trkpt lat="42.51805" lon="2.52444">
        <ele>1491.8000488281</ele>
        <time>2023-07-15T11:28:31.000Z</time>
      </trkpt>
      <trkpt lat="42.51804" lon="2.52443">
        <ele>1491.4000244141</ele>
        <time>2023-07-15T11:28:33.000Z</time>
      </trkpt>
      <trkpt lat="42.51804" lon="2.5244">
        <ele>1490.8000488281</ele>
        <time>2023-07-15T11:28:41.000Z</time>
      </trkpt>
      <trkpt lat="42.51802" lon="2.52443">
        <ele>1490.5999755859</ele>
        <time>2023-07-15T11:28:46.000Z</time>
      </trkpt>
      <trkpt lat="42.51802" lon="2.52445">
        <ele>1490.4000244141</ele>
        <time>2023-07-15T11:28:51.000Z</time>
      </trkpt>
      <trkpt lat="42.51802" lon="2.52441">
        <ele>1491.1999511719</ele>
        <time>2023-07-15T11:29:00.000Z</time>
      </trkpt>
      <trkpt lat="42.51799" lon="2.52438">
        <ele>1491.5999755859</ele>
        <time>2023-07-15T11:29:05.000Z</time>
      </trkpt>
      <trkpt lat="42.51799" lon="2.52436">
        <ele>1491.8000488281</ele>
        <time>2023-07-15T11:29:07.000Z</time>
      </trkpt>
      <trkpt lat="42.518" lon="2.52442">
        <ele>1491.8000488281</ele>
        <time>2023-07-15T11:29:12.000Z</time>
      </trkpt>
      <trkpt lat="42.51799" lon="2.52451">
        <ele>1491.8000488281</ele>
        <time>2023-07-15T11:29:20.000Z</time>
      </trkpt>
      <trkpt lat="42.51796" lon="2.52455">
        <ele>1491.8000488281</ele>
        <time>2023-07-15T11:29:28.000Z</time>
      </trkpt>
      <trkpt lat="42.51797" lon="2.52455">
        <ele>1492.1999511719</ele>
        <time>2023-07-15T11:29:30.000Z</time>
      </trkpt>
      <trkpt lat="42.51799" lon="2.52459">
        <ele>1492.4000244141</ele>
        <time>2023-07-15T11:29:37.000Z</time>
      </trkpt>
      <trkpt lat="42.518" lon="2.5246">
        <ele>1492.5999755859</ele>
        <time>2023-07-15T11:29:41.000Z</time>
      </trkpt>
      <trkpt lat="42.51798" lon="2.5246">
        <ele>1492.5999755859</ele>
        <time>2023-07-15T11:29:45.000Z</time>
      </trkpt>
      <trkpt lat="42.51794" lon="2.52459">
        <ele>1493.4000244141</ele>
        <time>2023-07-15T11:29:50.000Z</time>
      </trkpt>
      <trkpt lat="42.51796" lon="2.52452">
        <ele>1493.4000244141</ele>
        <time>2023-07-15T11:29:54.000Z</time>
      </trkpt>
      <trkpt lat="42.51798" lon="2.5244">
        <ele>1493.5999755859</ele>
        <time>2023-07-15T11:30:02.000Z</time>
      </trkpt>
      <trkpt lat="42.51798" lon="2.52439">
        <ele>1493.5999755859</ele>
        <time>2023-07-15T11:30:03.000Z</time>
      </trkpt>
      <trkpt lat="42.51797" lon="2.52439">
        <ele>1493.5999755859</ele>
        <time>2023-07-15T11:30:08.000Z</time>
      </trkpt>
      <trkpt lat="42.51797" lon="2.5244">
        <ele>1493.5999755859</ele>
        <time>2023-07-15T11:30:09.000Z</time>
      </trkpt>
      <trkpt lat="42.51798" lon="2.52438">
        <ele>1493.1999511719</ele>
        <time>2023-07-15T11:30:16.000Z</time>
      </trkpt>
      <trkpt lat="42.51797" lon="2.52438">
        <ele>1493.4000244141</ele>
        <time>2023-07-15T11:30:21.000Z</time>
      </trkpt>
      <trkpt lat="42.51799" lon="2.52437">
        <ele>1494</ele>
        <time>2023-07-15T11:30:30.000Z</time>
      </trkpt>
      <trkpt lat="42.518" lon="2.52439">
        <ele>1494.8000488281</ele>
        <time>2023-07-15T11:30:37.000Z</time>
      </trkpt>
      <trkpt lat="42.518" lon="2.52439">
        <ele>1494.8000488281</ele>
        <time>2023-07-15T11:30:39.000Z</time>
      </trkpt>
      <trkpt lat="42.51805" lon="2.52438">
        <ele>1495.4000244141</ele>
        <time>2023-07-15T11:30:47.000Z</time>
      </trkpt>
      <trkpt lat="42.51802" lon="2.52443">
        <ele>1495.1999511719</ele>
        <time>2023-07-15T11:31:01.000Z</time>
      </trkpt>
      <trkpt lat="42.51801" lon="2.52455">
        <ele>1494.5999755859</ele>
        <time>2023-07-15T11:31:07.000Z</time>
      </trkpt>
      <trkpt lat="42.51797" lon="2.52462">
        <ele>1494.1999511719</ele>
        <time>2023-07-15T11:31:14.000Z</time>
      </trkpt>
      <trkpt lat="42.51796" lon="2.52461">
        <ele>1493.8000488281</ele>
        <time>2023-07-15T11:31:20.000Z</time>
      </trkpt>
      <trkpt lat="42.51796" lon="2.52461">
        <ele>1493.8000488281</ele>
        <time>2023-07-15T11:31:21.000Z</time>
      </trkpt>
      <trkpt lat="42.51795" lon="2.52459">
        <ele>1493.8000488281</ele>
        <time>2023-07-15T11:31:27.000Z</time>
      </trkpt>
      <trkpt lat="42.518" lon="2.52453">
        <ele>1494</ele>
        <time>2023-07-15T11:31:33.000Z</time>
      </trkpt>
      <trkpt lat="42.51802" lon="2.52448">
        <ele>1493.8000488281</ele>
        <time>2023-07-15T11:31:39.000Z</time>
      </trkpt>
      <trkpt lat="42.51801" lon="2.5245">
        <ele>1493.5999755859</ele>
        <time>2023-07-15T11:31:43.000Z</time>
      </trkpt>
      <trkpt lat="42.518" lon="2.52449">
        <ele>1493.4000244141</ele>
        <time>2023-07-15T11:31:47.000Z</time>
      </trkpt>
      <trkpt lat="42.51801" lon="2.52451">
        <ele>1493.4000244141</ele>
        <time>2023-07-15T11:31:56.000Z</time>
      </trkpt>
      <trkpt lat="42.51801" lon="2.52451">
        <ele>1493.4000244141</ele>
        <time>2023-07-15T11:32:03.000Z</time>
      </trkpt>
      <trkpt lat="42.51801" lon="2.52451">
        <ele>1493.1999511719</ele>
        <time>2023-07-15T11:32:10.000Z</time>
      </trkpt>
      <trkpt lat="42.518" lon="2.52454">
        <ele>1493.5999755859</ele>
        <time>2023-07-15T11:32:18.000Z</time>
      </trkpt>
      <trkpt lat="42.51797" lon="2.52461">
        <ele>1493.4000244141</ele>
        <time>2023-07-15T11:32:26.000Z</time>
      </trkpt>
      <trkpt lat="42.51795" lon="2.52463">
        <ele>1494</ele>
        <time>2023-07-15T11:32:35.000Z</time>
      </trkpt>
      <trkpt lat="42.51792" lon="2.5246">
        <ele>1494.5999755859</ele>
        <time>2023-07-15T11:32:46.000Z</time>
      </trkpt>
      <trkpt lat="42.51793" lon="2.52455">
        <ele>1494.4000244141</ele>
        <time>2023-07-15T11:32:54.000Z</time>
      </trkpt>
      <trkpt lat="42.51795" lon="2.52456">
        <ele>1494.1999511719</ele>
        <time>2023-07-15T11:33:01.000Z</time>
      </trkpt>
      <trkpt lat="42.518" lon="2.52453">
        <ele>1493.8000488281</ele>
        <time>2023-07-15T11:33:09.000Z</time>
      </trkpt>
      <trkpt lat="42.51802" lon="2.52453">
        <ele>1493.5999755859</ele>
        <time>2023-07-15T11:33:15.000Z</time>
      </trkpt>
      <trkpt lat="42.518" lon="2.52453">
        <ele>1493.4000244141</ele>
        <time>2023-07-15T11:33:25.000Z</time>
      </trkpt>
      <trkpt lat="42.518" lon="2.52454">
        <ele>1493.4000244141</ele>
        <time>2023-07-15T11:33:32.000Z</time>
      </trkpt>
      <trkpt lat="42.518" lon="2.52451">
        <ele>1493.4000244141</ele>
        <time>2023-07-15T11:33:38.000Z</time>
      </trkpt>
      <trkpt lat="42.51801" lon="2.52438">
        <ele>1493.1999511719</ele>
        <time>2023-07-15T11:33:45.000Z</time>
      </trkpt>
      <trkpt lat="42.51803" lon="2.52435">
        <ele>1493</ele>
        <time>2023-07-15T11:33:53.000Z</time>
      </trkpt>
      <trkpt lat="42.51803" lon="2.52435">
        <ele>1493</ele>
        <time>2023-07-15T11:33:54.000Z</time>
      </trkpt>
      <trkpt lat="42.51803" lon="2.52442">
        <ele>1493</ele>
        <time>2023-07-15T11:34:03.000Z</time>
      </trkpt>
      <trkpt lat="42.51798" lon="2.52455">
        <ele>1494.5999755859</ele>
        <time>2023-07-15T11:34:13.000Z</time>
      </trkpt>
      <trkpt lat="42.51797" lon="2.52458">
        <ele>1494.8000488281</ele>
        <time>2023-07-15T11:34:17.000Z</time>
      </trkpt>
      <trkpt lat="42.51795" lon="2.52459">
        <ele>1494.8000488281</ele>
        <time>2023-07-15T11:34:20.000Z</time>
      </trkpt>
      <trkpt lat="42.51796" lon="2.52456">
        <ele>1495</ele>
        <time>2023-07-15T11:34:26.000Z</time>
      </trkpt>
      <trkpt lat="42.51794" lon="2.52459">
        <ele>1495.1999511719</ele>
        <time>2023-07-15T11:34:35.000Z</time>
      </trkpt>
      <trkpt lat="42.51794" lon="2.52457">
        <ele>1495.5999755859</ele>
        <time>2023-07-15T11:34:43.000Z</time>
      </trkpt>
      <trkpt lat="42.51799" lon="2.52452">
        <ele>1495.5999755859</ele>
        <time>2023-07-15T11:34:51.000Z</time>
      </trkpt>
      <trkpt lat="42.51805" lon="2.52448">
        <ele>1495.5999755859</ele>
        <time>2023-07-15T11:34:57.000Z</time>
      </trkpt>
      <trkpt lat="42.51808" lon="2.52442">
        <ele>1495.8000488281</ele>
        <time>2023-07-15T11:35:04.000Z</time>
      </trkpt>
      <trkpt lat="42.51808" lon="2.52442">
        <ele>1496</ele>
        <time>2023-07-15T11:35:05.000Z</time>
      </trkpt>
      <trkpt lat="42.51808" lon="2.52442">
        <ele>1496</ele>
        <time>2023-07-15T11:35:06.000Z</time>
      </trkpt>
      <trkpt lat="42.51808" lon="2.52441">
        <ele>1496.1999511719</ele>
        <time>2023-07-15T11:35:15.000Z</time>
      </trkpt>
      <trkpt lat="42.51804" lon="2.52445">
        <ele>1496</ele>
        <time>2023-07-15T11:35:21.000Z</time>
      </trkpt>
      <trkpt lat="42.51802" lon="2.52454">
        <ele>1495.5999755859</ele>
        <time>2023-07-15T11:35:29.000Z</time>
      </trkpt>
      <trkpt lat="42.51806" lon="2.52453">
        <ele>1495.1999511719</ele>
        <time>2023-07-15T11:35:40.000Z</time>
      </trkpt>
      <trkpt lat="42.51803" lon="2.52451">
        <ele>1495</ele>
        <time>2023-07-15T11:35:47.000Z</time>
      </trkpt>
      <trkpt lat="42.51802" lon="2.52448">
        <ele>1494.8000488281</ele>
        <time>2023-07-15T11:35:51.000Z</time>
      </trkpt>
      <trkpt lat="42.51802" lon="2.52446">
        <ele>1494.8000488281</ele>
        <time>2023-07-15T11:35:56.000Z</time>
      </trkpt>
      <trkpt lat="42.51802" lon="2.52448">
        <ele>1494.4000244141</ele>
        <time>2023-07-15T11:36:03.000Z</time>
      </trkpt>
      <trkpt lat="42.51802" lon="2.52453">
        <ele>1494.4000244141</ele>
        <time>2023-07-15T11:36:06.000Z</time>
      </trkpt>
      <trkpt lat="42.518" lon="2.52454">
        <ele>1494</ele>
        <time>2023-07-15T11:36:11.000Z</time>
      </trkpt>
      <trkpt lat="42.518" lon="2.52453">
        <ele>1493.8000488281</ele>
        <time>2023-07-15T11:36:13.000Z</time>
      </trkpt>
      <trkpt lat="42.51804" lon="2.52448">
        <ele>1494</ele>
        <time>2023-07-15T11:36:22.000Z</time>
      </trkpt>
      <trkpt lat="42.51803" lon="2.52444">
        <ele>1493.8000488281</ele>
        <time>2023-07-15T11:36:31.000Z</time>
      </trkpt>
      <trkpt lat="42.51802" lon="2.52449">
        <ele>1493.8000488281</ele>
        <time>2023-07-15T11:36:39.000Z</time>
      </trkpt>
      <trkpt lat="42.51802" lon="2.5245">
        <ele>1493.5999755859</ele>
        <time>2023-07-15T11:36:47.000Z</time>
      </trkpt>
      <trkpt lat="42.51803" lon="2.52448">
        <ele>1493.4000244141</ele>
        <time>2023-07-15T11:36:55.000Z</time>
      </trkpt>
      <trkpt lat="42.51804" lon="2.52447">
        <ele>1493.1999511719</ele>
        <time>2023-07-15T11:37:03.000Z</time>
      </trkpt>
      <trkpt lat="42.51804" lon="2.52445">
        <ele>1493.1999511719</ele>
        <time>2023-07-15T11:37:13.000Z</time>
      </trkpt>
      <trkpt lat="42.51804" lon="2.52444">
        <ele>1493</ele>
        <time>2023-07-15T11:37:19.000Z</time>
      </trkpt>
      <trkpt lat="42.51802" lon="2.5245">
        <ele>1492.8000488281</ele>
        <time>2023-07-15T11:37:28.000Z</time>
      </trkpt>
      <trkpt lat="42.51801" lon="2.5245">
        <ele>1492.8000488281</ele>
        <time>2023-07-15T11:37:33.000Z</time>
      </trkpt>
      <trkpt lat="42.51801" lon="2.52449">
        <ele>1492.8000488281</ele>
        <time>2023-07-15T11:37:35.000Z</time>
      </trkpt>
      <trkpt lat="42.51802" lon="2.52449">
        <ele>1492.5999755859</ele>
        <time>2023-07-15T11:37:43.000Z</time>
      </trkpt>
      <trkpt lat="42.51803" lon="2.52448">
        <ele>1493</ele>
        <time>2023-07-15T11:37:53.000Z</time>
      </trkpt>
      <trkpt lat="42.51805" lon="2.5245">
        <ele>1493.1999511719</ele>
        <time>2023-07-15T11:38:01.000Z</time>
      </trkpt>
      <trkpt lat="42.51804" lon="2.52449">
        <ele>1493.1999511719</ele>
        <time>2023-07-15T11:38:09.000Z</time>
      </trkpt>
      <trkpt lat="42.51802" lon="2.52449">
        <ele>1493.1999511719</ele>
        <time>2023-07-15T11:38:19.000Z</time>
      </trkpt>
      <trkpt lat="42.518" lon="2.52445">
        <ele>1493.4000244141</ele>
        <time>2023-07-15T11:38:25.000Z</time>
      </trkpt>
      <trkpt lat="42.51797" lon="2.52441">
        <ele>1493.4000244141</ele>
        <time>2023-07-15T11:38:31.000Z</time>
      </trkpt>
      <trkpt lat="42.518" lon="2.52439">
        <ele>1493</ele>
        <time>2023-07-15T11:38:37.000Z</time>
      </trkpt>
      <trkpt lat="42.51801" lon="2.52439">
        <ele>1492.5999755859</ele>
        <time>2023-07-15T11:38:45.000Z</time>
      </trkpt>
      <trkpt lat="42.51801" lon="2.52436">
        <ele>1492.4000244141</ele>
        <time>2023-07-15T11:38:57.000Z</time>
      </trkpt>
      <trkpt lat="42.51806" lon="2.52436">
        <ele>1492.4000244141</ele>
        <time>2023-07-15T11:39:04.000Z</time>
      </trkpt>
      <trkpt lat="42.51805" lon="2.52438">
        <ele>1492.4000244141</ele>
        <time>2023-07-15T11:39:14.000Z</time>
      </trkpt>
      <trkpt lat="42.51798" lon="2.52438">
        <ele>1492</ele>
        <time>2023-07-15T11:39:34.000Z</time>
      </trkpt>
      <trkpt lat="42.518" lon="2.52437">
        <ele>1491.8000488281</ele>
        <time>2023-07-15T11:39:50.000Z</time>
      </trkpt>
      <trkpt lat="42.51799" lon="2.5244">
        <ele>1491.8000488281</ele>
        <time>2023-07-15T11:40:00.000Z</time>
      </trkpt>
      <trkpt lat="42.51812" lon="2.52436">
        <ele>1491.8000488281</ele>
        <time>2023-07-15T11:40:29.000Z</time>
      </trkpt>
      <trkpt lat="42.51799" lon="2.5244">
        <ele>1491.8000488281</ele>
        <time>2023-07-15T11:40:50.000Z</time>
      </trkpt>
      <trkpt lat="42.51799" lon="2.5244">
        <ele>1491.8000488281</ele>
        <time>2023-07-15T11:40:58.000Z</time>
      </trkpt>
      <trkpt lat="42.51801" lon="2.52438">
        <ele>1491.8000488281</ele>
        <time>2023-07-15T11:41:06.000Z</time>
      </trkpt>
      <trkpt lat="42.51801" lon="2.52436">
        <ele>1492</ele>
        <time>2023-07-15T11:41:15.000Z</time>
      </trkpt>
      <trkpt lat="42.518" lon="2.52441">
        <ele>1492.1999511719</ele>
        <time>2023-07-15T11:41:27.000Z</time>
      </trkpt>
      <trkpt lat="42.51797" lon="2.52442">
        <ele>1492.1999511719</ele>
        <time>2023-07-15T11:41:33.000Z</time>
      </trkpt>
      <trkpt lat="42.51797" lon="2.52442">
        <ele>1492.4000244141</ele>
        <time>2023-07-15T11:41:38.000Z</time>
      </trkpt>
      <trkpt lat="42.51808" lon="2.52434">
        <ele>1492</ele>
        <time>2023-07-15T11:41:56.000Z</time>
      </trkpt>
      <trkpt lat="42.51806" lon="2.52438">
        <ele>1491.8000488281</ele>
        <time>2023-07-15T11:42:06.000Z</time>
      </trkpt>
      <trkpt lat="42.51802" lon="2.52437">
        <ele>1491.5999755859</ele>
        <time>2023-07-15T11:42:18.000Z</time>
      </trkpt>
      <trkpt lat="42.51798" lon="2.5244">
        <ele>1491</ele>
        <time>2023-07-15T11:42:28.000Z</time>
      </trkpt>
      <trkpt lat="42.51797" lon="2.5244">
        <ele>1491</ele>
        <time>2023-07-15T11:42:29.000Z</time>
      </trkpt>
      <trkpt lat="42.51797" lon="2.52439">
        <ele>1490.5999755859</ele>
        <time>2023-07-15T11:42:35.000Z</time>
      </trkpt>
      <trkpt lat="42.51798" lon="2.52438">
        <ele>1490.1999511719</ele>
        <time>2023-07-15T11:42:43.000Z</time>
      </trkpt>
      <trkpt lat="42.51797" lon="2.52436">
        <ele>1490.1999511719</ele>
        <time>2023-07-15T11:42:51.000Z</time>
      </trkpt>
      <trkpt lat="42.51799" lon="2.52437">
        <ele>1490.4000244141</ele>
        <time>2023-07-15T11:42:58.000Z</time>
      </trkpt>
      <trkpt lat="42.51802" lon="2.52437">
        <ele>1490.8000488281</ele>
        <time>2023-07-15T11:43:07.000Z</time>
      </trkpt>
      <trkpt lat="42.51805" lon="2.52437">
        <ele>1491</ele>
        <time>2023-07-15T11:43:15.000Z</time>
      </trkpt>
      <trkpt lat="42.51807" lon="2.52435">
        <ele>1491.1999511719</ele>
        <time>2023-07-15T11:43:23.000Z</time>
      </trkpt>
      <trkpt lat="42.51802" lon="2.52441">
        <ele>1491.5999755859</ele>
        <time>2023-07-15T11:43:31.000Z</time>
      </trkpt>
      <trkpt lat="42.518" lon="2.5244">
        <ele>1491.8000488281</ele>
        <time>2023-07-15T11:43:39.000Z</time>
      </trkpt>
      <trkpt lat="42.51801" lon="2.52437">
        <ele>1492</ele>
        <time>2023-07-15T11:43:46.000Z</time>
      </trkpt>
      <trkpt lat="42.51798" lon="2.52438">
        <ele>1492.1999511719</ele>
        <time>2023-07-15T11:43:54.000Z</time>
      </trkpt>
      <trkpt lat="42.51797" lon="2.52441">
        <ele>1492.1999511719</ele>
        <time>2023-07-15T11:44:00.000Z</time>
      </trkpt>
      <trkpt lat="42.518" lon="2.52441">
        <ele>1492.5999755859</ele>
        <time>2023-07-15T11:44:09.000Z</time>
      </trkpt>
      <trkpt lat="42.51801" lon="2.52445">
        <ele>1492.5999755859</ele>
        <time>2023-07-15T11:44:16.000Z</time>
      </trkpt>
      <trkpt lat="42.51801" lon="2.52444">
        <ele>1492.4000244141</ele>
        <time>2023-07-15T11:44:25.000Z</time>
      </trkpt>
      <trkpt lat="42.51802" lon="2.52445">
        <ele>1492.4000244141</ele>
        <time>2023-07-15T11:44:32.000Z</time>
      </trkpt>
      <trkpt lat="42.51801" lon="2.52453">
        <ele>1492.5999755859</ele>
        <time>2023-07-15T11:44:53.000Z</time>
      </trkpt>
      <trkpt lat="42.51798" lon="2.52455">
        <ele>1493</ele>
        <time>2023-07-15T11:45:00.000Z</time>
      </trkpt>
      <trkpt lat="42.518" lon="2.52456">
        <ele>1493.5999755859</ele>
        <time>2023-07-15T11:45:39.000Z</time>
      </trkpt>
      <trkpt lat="42.51796" lon="2.52455">
        <ele>1493.4000244141</ele>
        <time>2023-07-15T11:46:01.000Z</time>
      </trkpt>
      <trkpt lat="42.518" lon="2.52454">
        <ele>1493</ele>
        <time>2023-07-15T11:46:25.000Z</time>
      </trkpt>
      <trkpt lat="42.518" lon="2.52457">
        <ele>1492.8000488281</ele>
        <time>2023-07-15T11:46:33.000Z</time>
      </trkpt>
      <trkpt lat="42.51797" lon="2.52454">
        <ele>1492.5999755859</ele>
        <time>2023-07-15T11:46:44.000Z</time>
      </trkpt>
      <trkpt lat="42.51795" lon="2.52456">
        <ele>1492.1999511719</ele>
        <time>2023-07-15T11:46:54.000Z</time>
      </trkpt>
      <trkpt lat="42.51793" lon="2.52453">
        <ele>1492.4000244141</ele>
        <time>2023-07-15T11:47:01.000Z</time>
      </trkpt>
      <trkpt lat="42.51792" lon="2.52454">
        <ele>1492.4000244141</ele>
        <time>2023-07-15T11:47:09.000Z</time>
      </trkpt>
      <trkpt lat="42.51796" lon="2.52454">
        <ele>1492.1999511719</ele>
        <time>2023-07-15T11:47:17.000Z</time>
      </trkpt>
      <trkpt lat="42.51799" lon="2.5245">
        <ele>1492</ele>
        <time>2023-07-15T11:47:24.000Z</time>
      </trkpt>
      <trkpt lat="42.51802" lon="2.52447">
        <ele>1492</ele>
        <time>2023-07-15T11:47:33.000Z</time>
      </trkpt>
      <trkpt lat="42.51803" lon="2.52447">
        <ele>1492</ele>
        <time>2023-07-15T11:47:59.000Z</time>
      </trkpt>
      <trkpt lat="42.51799" lon="2.52457">
        <ele>1492</ele>
        <time>2023-07-15T11:48:22.000Z</time>
      </trkpt>
      <trkpt lat="42.51797" lon="2.52455">
        <ele>1491.4000244141</ele>
        <time>2023-07-15T11:48:36.000Z</time>
      </trkpt>
      <trkpt lat="42.51796" lon="2.52454">
        <ele>1492</ele>
        <time>2023-07-15T11:48:43.000Z</time>
      </trkpt>
      <trkpt lat="42.51798" lon="2.52449">
        <ele>1491.8000488281</ele>
        <time>2023-07-15T11:48:56.000Z</time>
      </trkpt>
      <trkpt lat="42.51799" lon="2.52452">
        <ele>1491.4000244141</ele>
        <time>2023-07-15T11:49:02.000Z</time>
      </trkpt>
      <trkpt lat="42.51797" lon="2.52458">
        <ele>1491.4000244141</ele>
        <time>2023-07-15T11:49:09.000Z</time>
      </trkpt>
      <trkpt lat="42.51794" lon="2.52455">
        <ele>1492</ele>
        <time>2023-07-15T11:49:16.000Z</time>
      </trkpt>
      <trkpt lat="42.51791" lon="2.52451">
        <ele>1492</ele>
        <time>2023-07-15T11:49:25.000Z</time>
      </trkpt>
      <trkpt lat="42.51789" lon="2.52448">
        <ele>1491.8000488281</ele>
        <time>2023-07-15T11:49:31.000Z</time>
      </trkpt>
      <trkpt lat="42.51792" lon="2.52448">
        <ele>1491.4000244141</ele>
        <time>2023-07-15T11:49:40.000Z</time>
      </trkpt>
      <trkpt lat="42.51793" lon="2.52453">
        <ele>1491.4000244141</ele>
        <time>2023-07-15T11:49:49.000Z</time>
      </trkpt>
      <trkpt lat="42.51796" lon="2.52455">
        <ele>1491.5999755859</ele>
        <time>2023-07-15T11:49:57.000Z</time>
      </trkpt>
      <trkpt lat="42.51796" lon="2.5245">
        <ele>1492</ele>
        <time>2023-07-15T11:50:07.000Z</time>
      </trkpt>
      <trkpt lat="42.51795" lon="2.52451">
        <ele>1492</ele>
        <time>2023-07-15T11:50:19.000Z</time>
      </trkpt>
      <trkpt lat="42.51792" lon="2.52461">
        <ele>1492</ele>
        <time>2023-07-15T11:50:29.000Z</time>
      </trkpt>
      <trkpt lat="42.51794" lon="2.52455">
        <ele>1492.1999511719</ele>
        <time>2023-07-15T11:50:39.000Z</time>
      </trkpt>
      <trkpt lat="42.51795" lon="2.52454">
        <ele>1492.1999511719</ele>
        <time>2023-07-15T11:50:48.000Z</time>
      </trkpt>
      <trkpt lat="42.51797" lon="2.52452">
        <ele>1492.1999511719</ele>
        <time>2023-07-15T11:50:56.000Z</time>
      </trkpt>
      <trkpt lat="42.51797" lon="2.52454">
        <ele>1492.5999755859</ele>
        <time>2023-07-15T11:51:05.000Z</time>
      </trkpt>
      <trkpt lat="42.51796" lon="2.52449">
        <ele>1492.5999755859</ele>
        <time>2023-07-15T11:51:12.000Z</time>
      </trkpt>
      <trkpt lat="42.51797" lon="2.52457">
        <ele>1492.8000488281</ele>
        <time>2023-07-15T11:51:22.000Z</time>
      </trkpt>
      <trkpt lat="42.51799" lon="2.5246">
        <ele>1492.8000488281</ele>
        <time>2023-07-15T11:51:28.000Z</time>
      </trkpt>
      <trkpt lat="42.51799" lon="2.52458">
        <ele>1492.8000488281</ele>
        <time>2023-07-15T11:51:34.000Z</time>
      </trkpt>
      <trkpt lat="42.51798" lon="2.52457">
        <ele>1492.5999755859</ele>
        <time>2023-07-15T11:51:41.000Z</time>
      </trkpt>
      <trkpt lat="42.51794" lon="2.52448">
        <ele>1493</ele>
        <time>2023-07-15T11:51:51.000Z</time>
      </trkpt>
      <trkpt lat="42.51794" lon="2.52451">
        <ele>1492.8000488281</ele>
        <time>2023-07-15T11:52:00.000Z</time>
      </trkpt>
      <trkpt lat="42.51794" lon="2.52455">
        <ele>1492.8000488281</ele>
        <time>2023-07-15T11:52:06.000Z</time>
      </trkpt>
      <trkpt lat="42.51794" lon="2.52455">
        <ele>1493</ele>
        <time>2023-07-15T11:52:12.000Z</time>
      </trkpt>
      <trkpt lat="42.51793" lon="2.52456">
        <ele>1493</ele>
        <time>2023-07-15T11:52:14.000Z</time>
      </trkpt>
      <trkpt lat="42.51794" lon="2.52456">
        <ele>1493.1999511719</ele>
        <time>2023-07-15T11:52:24.000Z</time>
      </trkpt>
      <trkpt lat="42.51794" lon="2.52455">
        <ele>1493.4000244141</ele>
        <time>2023-07-15T11:52:32.000Z</time>
      </trkpt>
      <trkpt lat="42.51791" lon="2.52451">
        <ele>1493.8000488281</ele>
        <time>2023-07-15T11:52:42.000Z</time>
      </trkpt>
      <trkpt lat="42.51791" lon="2.52451">
        <ele>1494</ele>
        <time>2023-07-15T11:52:46.000Z</time>
      </trkpt>
      <trkpt lat="42.51791" lon="2.52451">
        <ele>1494.1999511719</ele>
        <time>2023-07-15T11:52:51.000Z</time>
      </trkpt>
      <trkpt lat="42.51795" lon="2.5245">
        <ele>1494</ele>
        <time>2023-07-15T11:53:00.000Z</time>
      </trkpt>
      <trkpt lat="42.51794" lon="2.52453">
        <ele>1493.4000244141</ele>
        <time>2023-07-15T11:53:09.000Z</time>
      </trkpt>
      <trkpt lat="42.51799" lon="2.52444">
        <ele>1493.1999511719</ele>
        <time>2023-07-15T11:53:17.000Z</time>
      </trkpt>
      <trkpt lat="42.518" lon="2.52439">
        <ele>1493.1999511719</ele>
        <time>2023-07-15T11:53:25.000Z</time>
      </trkpt>
      <trkpt lat="42.51801" lon="2.52438">
        <ele>1493</ele>
        <time>2023-07-15T11:53:30.000Z</time>
      </trkpt>
      <trkpt lat="42.51801" lon="2.52437">
        <ele>1493</ele>
        <time>2023-07-15T11:53:31.000Z</time>
      </trkpt>
      <trkpt lat="42.51806" lon="2.52441">
        <ele>1492.5999755859</ele>
        <time>2023-07-15T11:53:41.000Z</time>
      </trkpt>
      <trkpt lat="42.5181" lon="2.52441">
        <ele>1492.5999755859</ele>
        <time>2023-07-15T11:53:47.000Z</time>
      </trkpt>
      <trkpt lat="42.51808" lon="2.52439">
        <ele>1492.8000488281</ele>
        <time>2023-07-15T11:53:55.000Z</time>
      </trkpt>
      <trkpt lat="42.51802" lon="2.5244">
        <ele>1492.4000244141</ele>
        <time>2023-07-15T11:54:06.000Z</time>
      </trkpt>
      <trkpt lat="42.51799" lon="2.52436">
        <ele>1492.1999511719</ele>
        <time>2023-07-15T11:54:18.000Z</time>
      </trkpt>
      <trkpt lat="42.51799" lon="2.52438">
        <ele>1492.1999511719</ele>
        <time>2023-07-15T11:54:26.000Z</time>
      </trkpt>
      <trkpt lat="42.51799" lon="2.52437">
        <ele>1492.4000244141</ele>
        <time>2023-07-15T11:54:33.000Z</time>
      </trkpt>
      <trkpt lat="42.51799" lon="2.52439">
        <ele>1492.5999755859</ele>
        <time>2023-07-15T11:54:42.000Z</time>
      </trkpt>
      <trkpt lat="42.518" lon="2.52444">
        <ele>1492.5999755859</ele>
        <time>2023-07-15T11:54:48.000Z</time>
      </trkpt>
      <trkpt lat="42.51798" lon="2.52438">
        <ele>1493</ele>
        <time>2023-07-15T11:54:55.000Z</time>
      </trkpt>
      <trkpt lat="42.51807" lon="2.5244">
        <ele>1492.5999755859</ele>
        <time>2023-07-15T11:55:13.000Z</time>
      </trkpt>
      <trkpt lat="42.51805" lon="2.5244">
        <ele>1492.8000488281</ele>
        <time>2023-07-15T11:55:22.000Z</time>
      </trkpt>
      <trkpt lat="42.51804" lon="2.52439">
        <ele>1492.5999755859</ele>
        <time>2023-07-15T11:55:33.000Z</time>
      </trkpt>
      <trkpt lat="42.51805" lon="2.52444">
        <ele>1492.5999755859</ele>
        <time>2023-07-15T11:55:45.000Z</time>
      </trkpt>
      <trkpt lat="42.51799" lon="2.5245">
        <ele>1492.5999755859</ele>
        <time>2023-07-15T11:55:53.000Z</time>
      </trkpt>
      <trkpt lat="42.51794" lon="2.52456">
        <ele>1492.8000488281</ele>
        <time>2023-07-15T11:56:01.000Z</time>
      </trkpt>
      <trkpt lat="42.51796" lon="2.52456">
        <ele>1492.8000488281</ele>
        <time>2023-07-15T11:56:09.000Z</time>
      </trkpt>
      <trkpt lat="42.51797" lon="2.52458">
        <ele>1492.1999511719</ele>
        <time>2023-07-15T11:56:22.000Z</time>
      </trkpt>
      <trkpt lat="42.51797" lon="2.52459">
        <ele>1492.1999511719</ele>
        <time>2023-07-15T11:56:29.000Z</time>
      </trkpt>
      <trkpt lat="42.51794" lon="2.5246">
        <ele>1492.1999511719</ele>
        <time>2023-07-15T11:56:38.000Z</time>
      </trkpt>
      <trkpt lat="42.51793" lon="2.52459">
        <ele>1492</ele>
        <time>2023-07-15T11:56:47.000Z</time>
      </trkpt>
      <trkpt lat="42.51794" lon="2.52458">
        <ele>1492</ele>
        <time>2023-07-15T11:56:49.000Z</time>
      </trkpt>
      <trkpt lat="42.51796" lon="2.52455">
        <ele>1492</ele>
        <time>2023-07-15T11:56:54.000Z</time>
      </trkpt>
      <trkpt lat="42.51797" lon="2.52451">
        <ele>1492</ele>
        <time>2023-07-15T11:57:03.000Z</time>
      </trkpt>
      <trkpt lat="42.51794" lon="2.52449">
        <ele>1492</ele>
        <time>2023-07-15T11:57:11.000Z</time>
      </trkpt>
      <trkpt lat="42.51796" lon="2.5245">
        <ele>1492.1999511719</ele>
        <time>2023-07-15T11:57:19.000Z</time>
      </trkpt>
      <trkpt lat="42.51799" lon="2.52451">
        <ele>1492.4000244141</ele>
        <time>2023-07-15T11:57:27.000Z</time>
      </trkpt>
      <trkpt lat="42.51801" lon="2.52451">
        <ele>1492.1999511719</ele>
        <time>2023-07-15T11:57:33.000Z</time>
      </trkpt>
      <trkpt lat="42.51797" lon="2.52455">
        <ele>1492</ele>
        <time>2023-07-15T11:57:40.000Z</time>
      </trkpt>
      <trkpt lat="42.51797" lon="2.52453">
        <ele>1492</ele>
        <time>2023-07-15T11:57:47.000Z</time>
      </trkpt>
      <trkpt lat="42.51797" lon="2.52451">
        <ele>1491.4000244141</ele>
        <time>2023-07-15T11:57:55.000Z</time>
      </trkpt>
      <trkpt lat="42.51798" lon="2.52448">
        <ele>1490.5999755859</ele>
        <time>2023-07-15T11:58:01.000Z</time>
      </trkpt>
      <trkpt lat="42.51798" lon="2.52447">
        <ele>1490.4000244141</ele>
        <time>2023-07-15T11:58:02.000Z</time>
      </trkpt>
      <trkpt lat="42.518" lon="2.52444">
        <ele>1490.4000244141</ele>
        <time>2023-07-15T11:58:10.000Z</time>
      </trkpt>
      <trkpt lat="42.518" lon="2.52435">
        <ele>1491</ele>
        <time>2023-07-15T11:58:16.000Z</time>
      </trkpt>
      <trkpt lat="42.518" lon="2.52426">
        <ele>1491.1999511719</ele>
        <time>2023-07-15T11:58:22.000Z</time>
      </trkpt>
      <trkpt lat="42.518" lon="2.5241">
        <ele>1491.1999511719</ele>
        <time>2023-07-15T11:58:31.000Z</time>
      </trkpt>
      <trkpt lat="42.518" lon="2.52406">
        <ele>1491.5999755859</ele>
        <time>2023-07-15T11:58:36.000Z</time>
      </trkpt>
      <trkpt lat="42.518" lon="2.52404">
        <ele>1492.4000244141</ele>
        <time>2023-07-15T11:58:39.000Z</time>
      </trkpt>
      <trkpt lat="42.518" lon="2.524">
        <ele>1492.8000488281</ele>
        <time>2023-07-15T11:58:41.000Z</time>
      </trkpt>
      <trkpt lat="42.51802" lon="2.52393">
        <ele>1493.4000244141</ele>
        <time>2023-07-15T11:58:46.000Z</time>
      </trkpt>
      <trkpt lat="42.51805" lon="2.52381">
        <ele>1493.4000244141</ele>
        <time>2023-07-15T11:58:56.000Z</time>
      </trkpt>
      <trkpt lat="42.51805" lon="2.52371">
        <ele>1493.8000488281</ele>
        <time>2023-07-15T11:59:03.000Z</time>
      </trkpt>
      <trkpt lat="42.51806" lon="2.52361">
        <ele>1495</ele>
        <time>2023-07-15T11:59:09.000Z</time>
      </trkpt>
      <trkpt lat="42.51805" lon="2.52356">
        <ele>1495.8000488281</ele>
        <time>2023-07-15T11:59:12.000Z</time>
      </trkpt>
      <trkpt lat="42.51805" lon="2.52356">
        <ele>1496.1999511719</ele>
        <time>2023-07-15T11:59:13.000Z</time>
      </trkpt>
      <trkpt lat="42.51804" lon="2.52353">
        <ele>1497.1999511719</ele>
        <time>2023-07-15T11:59:16.000Z</time>
      </trkpt>
      <trkpt lat="42.51801" lon="2.52346">
        <ele>1497.8000488281</ele>
        <time>2023-07-15T11:59:21.000Z</time>
      </trkpt>
      <trkpt lat="42.518" lon="2.52335">
        <ele>1498.4000244141</ele>
        <time>2023-07-15T11:59:29.000Z</time>
      </trkpt>
      <trkpt lat="42.518" lon="2.52333">
        <ele>1498.5999755859</ele>
        <time>2023-07-15T11:59:30.000Z</time>
      </trkpt>
      <trkpt lat="42.51801" lon="2.5233">
        <ele>1499.5999755859</ele>
        <time>2023-07-15T11:59:34.000Z</time>
      </trkpt>
      <trkpt lat="42.51802" lon="2.52326">
        <ele>1500.4000244141</ele>
        <time>2023-07-15T11:59:37.000Z</time>
      </trkpt>
      <trkpt lat="42.51803" lon="2.52325">
        <ele>1500.8000488281</ele>
        <time>2023-07-15T11:59:39.000Z</time>
      </trkpt>
      <trkpt lat="42.51805" lon="2.52321">
        <ele>1502</ele>
        <time>2023-07-15T11:59:44.000Z</time>
      </trkpt>
      <trkpt lat="42.51807" lon="2.52318">
        <ele>1502.4000244141</ele>
        <time>2023-07-15T11:59:47.000Z</time>
      </trkpt>
      <trkpt lat="42.51808" lon="2.52313">
        <ele>1503</ele>
        <time>2023-07-15T11:59:50.000Z</time>
      </trkpt>
      <trkpt lat="42.5181" lon="2.52306">
        <ele>1503.8000488281</ele>
        <time>2023-07-15T11:59:55.000Z</time>
      </trkpt>
      <trkpt lat="42.5181" lon="2.52304">
        <ele>1504</ele>
        <time>2023-07-15T11:59:57.000Z</time>
      </trkpt>
      <trkpt lat="42.5181" lon="2.52298">
        <ele>1505</ele>
        <time>2023-07-15T12:00:03.000Z</time>
      </trkpt>
      <trkpt lat="42.51809" lon="2.52294">
        <ele>1505.1999511719</ele>
        <time>2023-07-15T12:00:06.000Z</time>
      </trkpt>
      <trkpt lat="42.51808" lon="2.52286">
        <ele>1506</ele>
        <time>2023-07-15T12:00:12.000Z</time>
      </trkpt>
      <trkpt lat="42.51807" lon="2.52284">
        <ele>1506.4000244141</ele>
        <time>2023-07-15T12:00:14.000Z</time>
      </trkpt>
      <trkpt lat="42.51808" lon="2.5228">
        <ele>1506.5999755859</ele>
        <time>2023-07-15T12:00:19.000Z</time>
      </trkpt>
      <trkpt lat="42.51808" lon="2.5227">
        <ele>1507.1999511719</ele>
        <time>2023-07-15T12:00:27.000Z</time>
      </trkpt>
      <trkpt lat="42.51808" lon="2.52268">
        <ele>1507.4000244141</ele>
        <time>2023-07-15T12:00:29.000Z</time>
      </trkpt>
      <trkpt lat="42.51811" lon="2.52261">
        <ele>1507.8000488281</ele>
        <time>2023-07-15T12:00:36.000Z</time>
      </trkpt>
      <trkpt lat="42.51813" lon="2.52248">
        <ele>1508.4000244141</ele>
        <time>2023-07-15T12:00:43.000Z</time>
      </trkpt>
      <trkpt lat="42.51814" lon="2.52244">
        <ele>1508.8000488281</ele>
        <time>2023-07-15T12:00:46.000Z</time>
      </trkpt>
      <trkpt lat="42.51813" lon="2.52239">
        <ele>1509.5999755859</ele>
        <time>2023-07-15T12:00:52.000Z</time>
      </trkpt>
      <trkpt lat="42.51812" lon="2.52237">
        <ele>1510.1999511719</ele>
        <time>2023-07-15T12:00:55.000Z</time>
      </trkpt>
      <trkpt lat="42.51812" lon="2.52235">
        <ele>1510.5999755859</ele>
        <time>2023-07-15T12:00:57.000Z</time>
      </trkpt>
      <trkpt lat="42.51813" lon="2.52228">
        <ele>1512</ele>
        <time>2023-07-15T12:01:02.000Z</time>
      </trkpt>
      <trkpt lat="42.51815" lon="2.52219">
        <ele>1513</ele>
        <time>2023-07-15T12:01:08.000Z</time>
      </trkpt>
      <trkpt lat="42.51815" lon="2.52219">
        <ele>1513.1999511719</ele>
        <time>2023-07-15T12:01:09.000Z</time>
      </trkpt>
      <trkpt lat="42.51815" lon="2.5221">
        <ele>1514.1999511719</ele>
        <time>2023-07-15T12:01:15.000Z</time>
      </trkpt>
      <trkpt lat="42.51815" lon="2.52208">
        <ele>1514.4000244141</ele>
        <time>2023-07-15T12:01:17.000Z</time>
      </trkpt>
      <trkpt lat="42.51814" lon="2.52204">
        <ele>1515.4000244141</ele>
        <time>2023-07-15T12:01:22.000Z</time>
      </trkpt>
      <trkpt lat="42.51814" lon="2.52198">
        <ele>1516</ele>
        <time>2023-07-15T12:01:27.000Z</time>
      </trkpt>
      <trkpt lat="42.51814" lon="2.52198">
        <ele>1516.4000244141</ele>
        <time>2023-07-15T12:01:28.000Z</time>
      </trkpt>
      <trkpt lat="42.51816" lon="2.52189">
        <ele>1517.4000244141</ele>
        <time>2023-07-15T12:01:37.000Z</time>
      </trkpt>
      <trkpt lat="42.5182" lon="2.5219">
        <ele>1518.5999755859</ele>
        <time>2023-07-15T12:01:42.000Z</time>
      </trkpt>
      <trkpt lat="42.51824" lon="2.52193">
        <ele>1519.5999755859</ele>
        <time>2023-07-15T12:01:45.000Z</time>
      </trkpt>
      <trkpt lat="42.51824" lon="2.52193">
        <ele>1519.8000488281</ele>
        <time>2023-07-15T12:01:46.000Z</time>
      </trkpt>
      <trkpt lat="42.51824" lon="2.52196">
        <ele>1520.8000488281</ele>
        <time>2023-07-15T12:01:50.000Z</time>
      </trkpt>
      <trkpt lat="42.5182" lon="2.52199">
        <ele>1521.1999511719</ele>
        <time>2023-07-15T12:01:54.000Z</time>
      </trkpt>
      <trkpt lat="42.51815" lon="2.5221">
        <ele>1521.8000488281</ele>
        <time>2023-07-15T12:02:03.000Z</time>
      </trkpt>
      <trkpt lat="42.51813" lon="2.5221">
        <ele>1521.8000488281</ele>
        <time>2023-07-15T12:02:05.000Z</time>
      </trkpt>
      <trkpt lat="42.51806" lon="2.5222">
        <ele>1522.5999755859</ele>
        <time>2023-07-15T12:02:11.000Z</time>
      </trkpt>
      <trkpt lat="42.51802" lon="2.52225">
        <ele>1522.8000488281</ele>
        <time>2023-07-15T12:02:16.000Z</time>
      </trkpt>
      <trkpt lat="42.518" lon="2.52226">
        <ele>1523.1999511719</ele>
        <time>2023-07-15T12:02:19.000Z</time>
      </trkpt>
      <trkpt lat="42.518" lon="2.52229">
        <ele>1524</ele>
        <time>2023-07-15T12:02:25.000Z</time>
      </trkpt>
      <trkpt lat="42.51797" lon="2.52236">
        <ele>1524.5999755859</ele>
        <time>2023-07-15T12:02:30.000Z</time>
      </trkpt>
      <trkpt lat="42.51793" lon="2.5224">
        <ele>1525</ele>
        <time>2023-07-15T12:02:34.000Z</time>
      </trkpt>
      <trkpt lat="42.5179" lon="2.52246">
        <ele>1525.8000488281</ele>
        <time>2023-07-15T12:02:38.000Z</time>
      </trkpt>
      <trkpt lat="42.51788" lon="2.52251">
        <ele>1526</ele>
        <time>2023-07-15T12:02:42.000Z</time>
      </trkpt>
      <trkpt lat="42.51788" lon="2.52253">
        <ele>1526.1999511719</ele>
        <time>2023-07-15T12:02:45.000Z</time>
      </trkpt>
      <trkpt lat="42.51787" lon="2.52265">
        <ele>1526.8000488281</ele>
        <time>2023-07-15T12:02:55.000Z</time>
      </trkpt>
      <trkpt lat="42.51785" lon="2.52268">
        <ele>1527.1999511719</ele>
        <time>2023-07-15T12:02:59.000Z</time>
      </trkpt>
      <trkpt lat="42.51784" lon="2.52271">
        <ele>1528</ele>
        <time>2023-07-15T12:03:04.000Z</time>
      </trkpt>
      <trkpt lat="42.51782" lon="2.52274">
        <ele>1528.4000244141</ele>
        <time>2023-07-15T12:03:06.000Z</time>
      </trkpt>
      <trkpt lat="42.51782" lon="2.5228">
        <ele>1528.5999755859</ele>
        <time>2023-07-15T12:03:12.000Z</time>
      </trkpt>
      <trkpt lat="42.51782" lon="2.52287">
        <ele>1529.4000244141</ele>
        <time>2023-07-15T12:03:16.000Z</time>
      </trkpt>
      <trkpt lat="42.5178" lon="2.52294">
        <ele>1530.1999511719</ele>
        <time>2023-07-15T12:03:21.000Z</time>
      </trkpt>
      <trkpt lat="42.51777" lon="2.52298">
        <ele>1530.4000244141</ele>
        <time>2023-07-15T12:03:24.000Z</time>
      </trkpt>
      <trkpt lat="42.51776" lon="2.52301">
        <ele>1530.8000488281</ele>
        <time>2023-07-15T12:03:28.000Z</time>
      </trkpt>
      <trkpt lat="42.51774" lon="2.52306">
        <ele>1531.5999755859</ele>
        <time>2023-07-15T12:03:33.000Z</time>
      </trkpt>
      <trkpt lat="42.51772" lon="2.52308">
        <ele>1531.8000488281</ele>
        <time>2023-07-15T12:03:35.000Z</time>
      </trkpt>
      <trkpt lat="42.51769" lon="2.52314">
        <ele>1532.1999511719</ele>
        <time>2023-07-15T12:03:38.000Z</time>
      </trkpt>
      <trkpt lat="42.51768" lon="2.52318">
        <ele>1532.5999755859</ele>
        <time>2023-07-15T12:03:41.000Z</time>
      </trkpt>
      <trkpt lat="42.51766" lon="2.52324">
        <ele>1533.5999755859</ele>
        <time>2023-07-15T12:03:46.000Z</time>
      </trkpt>
      <trkpt lat="42.51766" lon="2.52326">
        <ele>1533.8000488281</ele>
        <time>2023-07-15T12:03:47.000Z</time>
      </trkpt>
      <trkpt lat="42.51764" lon="2.52333">
        <ele>1534.8000488281</ele>
        <time>2023-07-15T12:03:53.000Z</time>
      </trkpt>
      <trkpt lat="42.51762" lon="2.52337">
        <ele>1535.4000244141</ele>
        <time>2023-07-15T12:03:56.000Z</time>
      </trkpt>
      <trkpt lat="42.5176" lon="2.52342">
        <ele>1536</ele>
        <time>2023-07-15T12:03:59.000Z</time>
      </trkpt>
      <trkpt lat="42.51759" lon="2.52344">
        <ele>1536.4000244141</ele>
        <time>2023-07-15T12:04:02.000Z</time>
      </trkpt>
      <trkpt lat="42.51757" lon="2.52347">
        <ele>1537.1999511719</ele>
        <time>2023-07-15T12:04:09.000Z</time>
      </trkpt>
      <trkpt lat="42.51757" lon="2.52348">
        <ele>1537.5999755859</ele>
        <time>2023-07-15T12:04:10.000Z</time>
      </trkpt>
      <trkpt lat="42.51756" lon="2.52351">
        <ele>1538.1999511719</ele>
        <time>2023-07-15T12:04:13.000Z</time>
      </trkpt>
      <trkpt lat="42.5175" lon="2.52361">
        <ele>1539.1999511719</ele>
        <time>2023-07-15T12:04:21.000Z</time>
      </trkpt>
      <trkpt lat="42.51743" lon="2.52371">
        <ele>1540</ele>
        <time>2023-07-15T12:04:27.000Z</time>
      </trkpt>
      <trkpt lat="42.51742" lon="2.52372">
        <ele>1540.1999511719</ele>
        <time>2023-07-15T12:04:28.000Z</time>
      </trkpt>
      <trkpt lat="42.5174" lon="2.52373">
        <ele>1540.4000244141</ele>
        <time>2023-07-15T12:04:29.000Z</time>
      </trkpt>
      <trkpt lat="42.51735" lon="2.52378">
        <ele>1541.1999511719</ele>
        <time>2023-07-15T12:04:36.000Z</time>
      </trkpt>
      <trkpt lat="42.51736" lon="2.52383">
        <ele>1541.4000244141</ele>
        <time>2023-07-15T12:04:43.000Z</time>
      </trkpt>
      <trkpt lat="42.51736" lon="2.52397">
        <ele>1542.5999755859</ele>
        <time>2023-07-15T12:04:53.000Z</time>
      </trkpt>
      <trkpt lat="42.51737" lon="2.52401">
        <ele>1542.8000488281</ele>
        <time>2023-07-15T12:04:56.000Z</time>
      </trkpt>
      <trkpt lat="42.51738" lon="2.52404">
        <ele>1543</ele>
        <time>2023-07-15T12:05:00.000Z</time>
      </trkpt>
      <trkpt lat="42.51736" lon="2.52403">
        <ele>1543.5999755859</ele>
        <time>2023-07-15T12:05:04.000Z</time>
      </trkpt>
      <trkpt lat="42.51736" lon="2.52404">
        <ele>1543.8000488281</ele>
        <time>2023-07-15T12:05:05.000Z</time>
      </trkpt>
      <trkpt lat="42.51734" lon="2.52411">
        <ele>1544.5999755859</ele>
        <time>2023-07-15T12:05:11.000Z</time>
      </trkpt>
      <trkpt lat="42.51731" lon="2.52415">
        <ele>1544.8000488281</ele>
        <time>2023-07-15T12:05:14.000Z</time>
      </trkpt>
      <trkpt lat="42.51725" lon="2.5242">
        <ele>1545.4000244141</ele>
        <time>2023-07-15T12:05:22.000Z</time>
      </trkpt>
      <trkpt lat="42.51724" lon="2.5242">
        <ele>1545.4000244141</ele>
        <time>2023-07-15T12:05:23.000Z</time>
      </trkpt>
      <trkpt lat="42.51721" lon="2.52424">
        <ele>1545.5999755859</ele>
        <time>2023-07-15T12:05:25.000Z</time>
      </trkpt>
      <trkpt lat="42.5172" lon="2.52427">
        <ele>1546</ele>
        <time>2023-07-15T12:05:29.000Z</time>
      </trkpt>
      <trkpt lat="42.51718" lon="2.52436">
        <ele>1546.8000488281</ele>
        <time>2023-07-15T12:05:35.000Z</time>
      </trkpt>
      <trkpt lat="42.51718" lon="2.52441">
        <ele>1547.1999511719</ele>
        <time>2023-07-15T12:05:38.000Z</time>
      </trkpt>
      <trkpt lat="42.51715" lon="2.52449">
        <ele>1547.8000488281</ele>
        <time>2023-07-15T12:05:43.000Z</time>
      </trkpt>
      <trkpt lat="42.51715" lon="2.52452">
        <ele>1548.1999511719</ele>
        <time>2023-07-15T12:05:46.000Z</time>
      </trkpt>
      <trkpt lat="42.51709" lon="2.52454">
        <ele>1549</ele>
        <time>2023-07-15T12:05:55.000Z</time>
      </trkpt>
      <trkpt lat="42.51709" lon="2.52454">
        <ele>1549</ele>
        <time>2023-07-15T12:05:56.000Z</time>
      </trkpt>
      <trkpt lat="42.51707" lon="2.52456">
        <ele>1549.5999755859</ele>
        <time>2023-07-15T12:05:59.000Z</time>
      </trkpt>
      <trkpt lat="42.51704" lon="2.5246">
        <ele>1550.1999511719</ele>
        <time>2023-07-15T12:06:03.000Z</time>
      </trkpt>
      <trkpt lat="42.51704" lon="2.52461">
        <ele>1550.1999511719</ele>
        <time>2023-07-15T12:06:04.000Z</time>
      </trkpt>
      <trkpt lat="42.51698" lon="2.52467">
        <ele>1551.1999511719</ele>
        <time>2023-07-15T12:06:11.000Z</time>
      </trkpt>
      <trkpt lat="42.51695" lon="2.52461">
        <ele>1551.8000488281</ele>
        <time>2023-07-15T12:06:17.000Z</time>
      </trkpt>
      <trkpt lat="42.51694" lon="2.52458">
        <ele>1552.1999511719</ele>
        <time>2023-07-15T12:06:19.000Z</time>
      </trkpt>
      <trkpt lat="42.51694" lon="2.52457">
        <ele>1552.1999511719</ele>
        <time>2023-07-15T12:06:20.000Z</time>
      </trkpt>
      <trkpt lat="42.51695" lon="2.52452">
        <ele>1552.8000488281</ele>
        <time>2023-07-15T12:06:28.000Z</time>
      </trkpt>
      <trkpt lat="42.51694" lon="2.52444">
        <ele>1553.1999511719</ele>
        <time>2023-07-15T12:06:38.000Z</time>
      </trkpt>
      <trkpt lat="42.51691" lon="2.52435">
        <ele>1554</ele>
        <time>2023-07-15T12:06:45.000Z</time>
      </trkpt>
      <trkpt lat="42.51692" lon="2.52431">
        <ele>1554.1999511719</ele>
        <time>2023-07-15T12:06:47.000Z</time>
      </trkpt>
      <trkpt lat="42.51691" lon="2.52426">
        <ele>1555</ele>
        <time>2023-07-15T12:06:52.000Z</time>
      </trkpt>
      <trkpt lat="42.51692" lon="2.52425">
        <ele>1555.1999511719</ele>
        <time>2023-07-15T12:06:54.000Z</time>
      </trkpt>
      <trkpt lat="42.51694" lon="2.52422">
        <ele>1556.1999511719</ele>
        <time>2023-07-15T12:07:00.000Z</time>
      </trkpt>
      <trkpt lat="42.51694" lon="2.52421">
        <ele>1556.4000244141</ele>
        <time>2023-07-15T12:07:01.000Z</time>
      </trkpt>
      <trkpt lat="42.51697" lon="2.52411">
        <ele>1557.4000244141</ele>
        <time>2023-07-15T12:07:09.000Z</time>
      </trkpt>
      <trkpt lat="42.51698" lon="2.52399">
        <ele>1558.4000244141</ele>
        <time>2023-07-15T12:07:17.000Z</time>
      </trkpt>
      <trkpt lat="42.51698" lon="2.52395">
        <ele>1558.5999755859</ele>
        <time>2023-07-15T12:07:21.000Z</time>
      </trkpt>
      <trkpt lat="42.51697" lon="2.52385">
        <ele>1559.5999755859</ele>
        <time>2023-07-15T12:07:30.000Z</time>
      </trkpt>
      <trkpt lat="42.51695" lon="2.52381">
        <ele>1560.1999511719</ele>
        <time>2023-07-15T12:07:39.000Z</time>
      </trkpt>
      <trkpt lat="42.51695" lon="2.52379">
        <ele>1560.5999755859</ele>
        <time>2023-07-15T12:07:41.000Z</time>
      </trkpt>
      <trkpt lat="42.51694" lon="2.52367">
        <ele>1561.5999755859</ele>
        <time>2023-07-15T12:07:48.000Z</time>
      </trkpt>
      <trkpt lat="42.51695" lon="2.52361">
        <ele>1561.8000488281</ele>
        <time>2023-07-15T12:07:51.000Z</time>
      </trkpt>
      <trkpt lat="42.51697" lon="2.52355">
        <ele>1562.1999511719</ele>
        <time>2023-07-15T12:07:56.000Z</time>
      </trkpt>
      <trkpt lat="42.517" lon="2.52347">
        <ele>1563</ele>
        <time>2023-07-15T12:08:02.000Z</time>
      </trkpt>
      <trkpt lat="42.51701" lon="2.52342">
        <ele>1563.1999511719</ele>
        <time>2023-07-15T12:08:04.000Z</time>
      </trkpt>
      <trkpt lat="42.51702" lon="2.52333">
        <ele>1564</ele>
        <time>2023-07-15T12:08:10.000Z</time>
      </trkpt>
      <trkpt lat="42.51703" lon="2.5233">
        <ele>1564.1999511719</ele>
        <time>2023-07-15T12:08:14.000Z</time>
      </trkpt>
      <trkpt lat="42.51703" lon="2.52327">
        <ele>1565</ele>
        <time>2023-07-15T12:08:20.000Z</time>
      </trkpt>
      <trkpt lat="42.51703" lon="2.52326">
        <ele>1565.1999511719</ele>
        <time>2023-07-15T12:08:21.000Z</time>
      </trkpt>
      <trkpt lat="42.51706" lon="2.52316">
        <ele>1565.8000488281</ele>
        <time>2023-07-15T12:08:29.000Z</time>
      </trkpt>
      <trkpt lat="42.51706" lon="2.52311">
        <ele>1566</ele>
        <time>2023-07-15T12:08:34.000Z</time>
      </trkpt>
      <trkpt lat="42.51706" lon="2.52309">
        <ele>1566.4000244141</ele>
        <time>2023-07-15T12:08:37.000Z</time>
      </trkpt>
      <trkpt lat="42.51707" lon="2.52307">
        <ele>1567</ele>
        <time>2023-07-15T12:08:41.000Z</time>
      </trkpt>
      <trkpt lat="42.51706" lon="2.52304">
        <ele>1567.5999755859</ele>
        <time>2023-07-15T12:08:46.000Z</time>
      </trkpt>
      <trkpt lat="42.51707" lon="2.52297">
        <ele>1568.1999511719</ele>
        <time>2023-07-15T12:08:52.000Z</time>
      </trkpt>
      <trkpt lat="42.51708" lon="2.52292">
        <ele>1568.8000488281</ele>
        <time>2023-07-15T12:08:57.000Z</time>
      </trkpt>
      <trkpt lat="42.51707" lon="2.52289">
        <ele>1569.1999511719</ele>
        <time>2023-07-15T12:09:00.000Z</time>
      </trkpt>
      <trkpt lat="42.51707" lon="2.52286">
        <ele>1569.4000244141</ele>
        <time>2023-07-15T12:09:03.000Z</time>
      </trkpt>
      <trkpt lat="42.51707" lon="2.5228">
        <ele>1570.1999511719</ele>
        <time>2023-07-15T12:09:09.000Z</time>
      </trkpt>
      <trkpt lat="42.51706" lon="2.52273">
        <ele>1571.1999511719</ele>
        <time>2023-07-15T12:09:17.000Z</time>
      </trkpt>
      <trkpt lat="42.51706" lon="2.52271">
        <ele>1571.4000244141</ele>
        <time>2023-07-15T12:09:18.000Z</time>
      </trkpt>
      <trkpt lat="42.51707" lon="2.52261">
        <ele>1572.4000244141</ele>
        <time>2023-07-15T12:09:25.000Z</time>
      </trkpt>
      <trkpt lat="42.51708" lon="2.5226">
        <ele>1572.5999755859</ele>
        <time>2023-07-15T12:09:26.000Z</time>
      </trkpt>
      <trkpt lat="42.5171" lon="2.5225">
        <ele>1573.4000244141</ele>
        <time>2023-07-15T12:09:36.000Z</time>
      </trkpt>
      <trkpt lat="42.51708" lon="2.52242">
        <ele>1574</ele>
        <time>2023-07-15T12:09:43.000Z</time>
      </trkpt>
      <trkpt lat="42.51709" lon="2.52237">
        <ele>1574.4000244141</ele>
        <time>2023-07-15T12:09:47.000Z</time>
      </trkpt>
      <trkpt lat="42.51708" lon="2.52231">
        <ele>1575.1999511719</ele>
        <time>2023-07-15T12:09:53.000Z</time>
      </trkpt>
      <trkpt lat="42.51708" lon="2.5223">
        <ele>1575.4000244141</ele>
        <time>2023-07-15T12:09:55.000Z</time>
      </trkpt>
      <trkpt lat="42.5171" lon="2.52222">
        <ele>1575.8000488281</ele>
        <time>2023-07-15T12:10:04.000Z</time>
      </trkpt>
      <trkpt lat="42.51713" lon="2.52211">
        <ele>1576.5999755859</ele>
        <time>2023-07-15T12:10:13.000Z</time>
      </trkpt>
      <trkpt lat="42.51712" lon="2.52201">
        <ele>1577.5999755859</ele>
        <time>2023-07-15T12:10:23.000Z</time>
      </trkpt>
      <trkpt lat="42.5171" lon="2.52192">
        <ele>1578.4000244141</ele>
        <time>2023-07-15T12:10:31.000Z</time>
      </trkpt>
      <trkpt lat="42.51709" lon="2.52188">
        <ele>1578.8000488281</ele>
        <time>2023-07-15T12:10:34.000Z</time>
      </trkpt>
      <trkpt lat="42.5171" lon="2.52181">
        <ele>1579.4000244141</ele>
        <time>2023-07-15T12:10:40.000Z</time>
      </trkpt>
      <trkpt lat="42.5171" lon="2.52177">
        <ele>1579.8000488281</ele>
        <time>2023-07-15T12:10:43.000Z</time>
      </trkpt>
      <trkpt lat="42.51709" lon="2.52173">
        <ele>1580.8000488281</ele>
        <time>2023-07-15T12:10:47.000Z</time>
      </trkpt>
      <trkpt lat="42.51709" lon="2.5217">
        <ele>1581</ele>
        <time>2023-07-15T12:10:49.000Z</time>
      </trkpt>
      <trkpt lat="42.5171" lon="2.52164">
        <ele>1581.5999755859</ele>
        <time>2023-07-15T12:10:55.000Z</time>
      </trkpt>
      <trkpt lat="42.5171" lon="2.5216">
        <ele>1582.1999511719</ele>
        <time>2023-07-15T12:10:57.000Z</time>
      </trkpt>
      <trkpt lat="42.5171" lon="2.52152">
        <ele>1583.1999511719</ele>
        <time>2023-07-15T12:11:04.000Z</time>
      </trkpt>
      <trkpt lat="42.5171" lon="2.52141">
        <ele>1584.1999511719</ele>
        <time>2023-07-15T12:11:11.000Z</time>
      </trkpt>
      <trkpt lat="42.51711" lon="2.5214">
        <ele>1584.4000244141</ele>
        <time>2023-07-15T12:11:12.000Z</time>
      </trkpt>
      <trkpt lat="42.51711" lon="2.5213">
        <ele>1585.1999511719</ele>
        <time>2023-07-15T12:11:22.000Z</time>
      </trkpt>
      <trkpt lat="42.5171" lon="2.52128">
        <ele>1585.4000244141</ele>
        <time>2023-07-15T12:11:24.000Z</time>
      </trkpt>
      <trkpt lat="42.51709" lon="2.52125">
        <ele>1586.1999511719</ele>
        <time>2023-07-15T12:11:29.000Z</time>
      </trkpt>
      <trkpt lat="42.51708" lon="2.52121">
        <ele>1586.8000488281</ele>
        <time>2023-07-15T12:11:32.000Z</time>
      </trkpt>
      <trkpt lat="42.51708" lon="2.52115">
        <ele>1587.4000244141</ele>
        <time>2023-07-15T12:11:39.000Z</time>
      </trkpt>
      <trkpt lat="42.51707" lon="2.52112">
        <ele>1588</ele>
        <time>2023-07-15T12:11:42.000Z</time>
      </trkpt>
      <trkpt lat="42.51706" lon="2.52109">
        <ele>1588.5999755859</ele>
        <time>2023-07-15T12:11:45.000Z</time>
      </trkpt>
      <trkpt lat="42.51705" lon="2.52102">
        <ele>1589.4000244141</ele>
        <time>2023-07-15T12:11:51.000Z</time>
      </trkpt>
      <trkpt lat="42.51704" lon="2.52099">
        <ele>1589.8000488281</ele>
        <time>2023-07-15T12:11:53.000Z</time>
      </trkpt>
      <trkpt lat="42.51702" lon="2.52091">
        <ele>1590.5999755859</ele>
        <time>2023-07-15T12:11:59.000Z</time>
      </trkpt>
      <trkpt lat="42.51702" lon="2.52089">
        <ele>1590.8000488281</ele>
        <time>2023-07-15T12:12:00.000Z</time>
      </trkpt>
      <trkpt lat="42.51697" lon="2.52081">
        <ele>1591.8000488281</ele>
        <time>2023-07-15T12:12:07.000Z</time>
      </trkpt>
      <trkpt lat="42.51696" lon="2.5208">
        <ele>1592</ele>
        <time>2023-07-15T12:12:08.000Z</time>
      </trkpt>
      <trkpt lat="42.51695" lon="2.52076">
        <ele>1592.5999755859</ele>
        <time>2023-07-15T12:12:16.000Z</time>
      </trkpt>
      <trkpt lat="42.51697" lon="2.52074">
        <ele>1593</ele>
        <time>2023-07-15T12:12:20.000Z</time>
      </trkpt>
      <trkpt lat="42.517" lon="2.52066">
        <ele>1593.5999755859</ele>
        <time>2023-07-15T12:12:26.000Z</time>
      </trkpt>
      <trkpt lat="42.517" lon="2.52063">
        <ele>1594</ele>
        <time>2023-07-15T12:12:28.000Z</time>
      </trkpt>
      <trkpt lat="42.51696" lon="2.52054">
        <ele>1594.8000488281</ele>
        <time>2023-07-15T12:12:35.000Z</time>
      </trkpt>
      <trkpt lat="42.51691" lon="2.52045">
        <ele>1595.1999511719</ele>
        <time>2023-07-15T12:12:43.000Z</time>
      </trkpt>
      <trkpt lat="42.51691" lon="2.52043">
        <ele>1595.4000244141</ele>
        <time>2023-07-15T12:12:44.000Z</time>
      </trkpt>
      <trkpt lat="42.51687" lon="2.5203">
        <ele>1596</ele>
        <time>2023-07-15T12:12:52.000Z</time>
      </trkpt>
      <trkpt lat="42.51686" lon="2.52027">
        <ele>1596.4000244141</ele>
        <time>2023-07-15T12:12:54.000Z</time>
      </trkpt>
      <trkpt lat="42.51685" lon="2.52019">
        <ele>1597</ele>
        <time>2023-07-15T12:13:01.000Z</time>
      </trkpt>
      <trkpt lat="42.51685" lon="2.52015">
        <ele>1597.4000244141</ele>
        <time>2023-07-15T12:13:03.000Z</time>
      </trkpt>
      <trkpt lat="42.51684" lon="2.5201">
        <ele>1598.1999511719</ele>
        <time>2023-07-15T12:13:07.000Z</time>
      </trkpt>
      <trkpt lat="42.51683" lon="2.52008">
        <ele>1598.5999755859</ele>
        <time>2023-07-15T12:13:08.000Z</time>
      </trkpt>
      <trkpt lat="42.5168" lon="2.52003">
        <ele>1599.4000244141</ele>
        <time>2023-07-15T12:13:14.000Z</time>
      </trkpt>
      <trkpt lat="42.51679" lon="2.52002">
        <ele>1599.5999755859</ele>
        <time>2023-07-15T12:13:16.000Z</time>
      </trkpt>
      <trkpt lat="42.51674" lon="2.51998">
        <ele>1600.8000488281</ele>
        <time>2023-07-15T12:13:22.000Z</time>
      </trkpt>
      <trkpt lat="42.51673" lon="2.51997">
        <ele>1601</ele>
        <time>2023-07-15T12:13:23.000Z</time>
      </trkpt>
      <trkpt lat="42.51668" lon="2.51991">
        <ele>1601.5999755859</ele>
        <time>2023-07-15T12:13:31.000Z</time>
      </trkpt>
      <trkpt lat="42.51667" lon="2.51988">
        <ele>1602</ele>
        <time>2023-07-15T12:13:34.000Z</time>
      </trkpt>
      <trkpt lat="42.51661" lon="2.5198">
        <ele>1603</ele>
        <time>2023-07-15T12:13:41.000Z</time>
      </trkpt>
      <trkpt lat="42.5166" lon="2.5198">
        <ele>1603</ele>
        <time>2023-07-15T12:13:42.000Z</time>
      </trkpt>
      <trkpt lat="42.51657" lon="2.51974">
        <ele>1604</ele>
        <time>2023-07-15T12:13:49.000Z</time>
      </trkpt>
      <trkpt lat="42.51656" lon="2.51972">
        <ele>1604.4000244141</ele>
        <time>2023-07-15T12:13:51.000Z</time>
      </trkpt>
      <trkpt lat="42.51654" lon="2.5197">
        <ele>1605.1999511719</ele>
        <time>2023-07-15T12:13:55.000Z</time>
      </trkpt>
      <trkpt lat="42.51651" lon="2.51967">
        <ele>1606</ele>
        <time>2023-07-15T12:14:01.000Z</time>
      </trkpt>
      <trkpt lat="42.51629" lon="2.51965">
        <ele>1607.5999755859</ele>
        <time>2023-07-15T12:14:23.000Z</time>
      </trkpt>
      <trkpt lat="42.51626" lon="2.51964">
        <ele>1607.8000488281</ele>
        <time>2023-07-15T12:14:26.000Z</time>
      </trkpt>
      <trkpt lat="42.51626" lon="2.51964">
        <ele>1607.8000488281</ele>
        <time>2023-07-15T12:14:27.000Z</time>
      </trkpt>
      <trkpt lat="42.51623" lon="2.51962">
        <ele>1608.1999511719</ele>
        <time>2023-07-15T12:14:30.000Z</time>
      </trkpt>
      <trkpt lat="42.51622" lon="2.51962">
        <ele>1608.4000244141</ele>
        <time>2023-07-15T12:14:31.000Z</time>
      </trkpt>
      <trkpt lat="42.51604" lon="2.51951">
        <ele>1610.5999755859</ele>
        <time>2023-07-15T12:14:43.000Z</time>
      </trkpt>
      <trkpt lat="42.51595" lon="2.51943">
        <ele>1611.5999755859</ele>
        <time>2023-07-15T12:14:50.000Z</time>
      </trkpt>
      <trkpt lat="42.51595" lon="2.51943">
        <ele>1611.5999755859</ele>
        <time>2023-07-15T12:14:51.000Z</time>
      </trkpt>
      <trkpt lat="42.51593" lon="2.51941">
        <ele>1612.5999755859</ele>
        <time>2023-07-15T12:14:57.000Z</time>
      </trkpt>
      <trkpt lat="42.51593" lon="2.51941">
        <ele>1612.8000488281</ele>
        <time>2023-07-15T12:14:58.000Z</time>
      </trkpt>
      <trkpt lat="42.51591" lon="2.51934">
        <ele>1613.4000244141</ele>
        <time>2023-07-15T12:15:06.000Z</time>
      </trkpt>
      <trkpt lat="42.51591" lon="2.51932">
        <ele>1613.8000488281</ele>
        <time>2023-07-15T12:15:08.000Z</time>
      </trkpt>
      <trkpt lat="42.51587" lon="2.51926">
        <ele>1615</ele>
        <time>2023-07-15T12:15:14.000Z</time>
      </trkpt>
      <trkpt lat="42.51587" lon="2.51925">
        <ele>1615.1999511719</ele>
        <time>2023-07-15T12:15:15.000Z</time>
      </trkpt>
      <trkpt lat="42.51581" lon="2.51918">
        <ele>1616</ele>
        <time>2023-07-15T12:15:21.000Z</time>
      </trkpt>
      <trkpt lat="42.5158" lon="2.51917">
        <ele>1616</ele>
        <time>2023-07-15T12:15:22.000Z</time>
      </trkpt>
      <trkpt lat="42.51573" lon="2.51909">
        <ele>1616.8000488281</ele>
        <time>2023-07-15T12:15:30.000Z</time>
      </trkpt>
      <trkpt lat="42.5157" lon="2.51905">
        <ele>1617.1999511719</ele>
        <time>2023-07-15T12:15:33.000Z</time>
      </trkpt>
      <trkpt lat="42.51567" lon="2.51899">
        <ele>1617.1999511719</ele>
        <time>2023-07-15T12:15:37.000Z</time>
      </trkpt>
      <trkpt lat="42.51565" lon="2.51894">
        <ele>1617.8000488281</ele>
        <time>2023-07-15T12:15:44.000Z</time>
      </trkpt>
      <trkpt lat="42.51563" lon="2.51889">
        <ele>1618.1999511719</ele>
        <time>2023-07-15T12:15:51.000Z</time>
      </trkpt>
      <trkpt lat="42.51563" lon="2.51888">
        <ele>1618.4000244141</ele>
        <time>2023-07-15T12:15:52.000Z</time>
      </trkpt>
      <trkpt lat="42.51562" lon="2.51886">
        <ele>1618.5999755859</ele>
        <time>2023-07-15T12:15:59.000Z</time>
      </trkpt>
      <trkpt lat="42.51562" lon="2.5188">
        <ele>1618.5999755859</ele>
        <time>2023-07-15T12:16:07.000Z</time>
      </trkpt>
      <trkpt lat="42.51568" lon="2.51867">
        <ele>1619</ele>
        <time>2023-07-15T12:16:15.000Z</time>
      </trkpt>
      <trkpt lat="42.5157" lon="2.51861">
        <ele>1619.4000244141</ele>
        <time>2023-07-15T12:16:20.000Z</time>
      </trkpt>
      <trkpt lat="42.51571" lon="2.5186">
        <ele>1619.5999755859</ele>
        <time>2023-07-15T12:16:22.000Z</time>
      </trkpt>
      <trkpt lat="42.51574" lon="2.51848">
        <ele>1620.4000244141</ele>
        <time>2023-07-15T12:16:29.000Z</time>
      </trkpt>
      <trkpt lat="42.51576" lon="2.51835">
        <ele>1621.1999511719</ele>
        <time>2023-07-15T12:16:36.000Z</time>
      </trkpt>
      <trkpt lat="42.51577" lon="2.5183">
        <ele>1621.4000244141</ele>
        <time>2023-07-15T12:16:40.000Z</time>
      </trkpt>
      <trkpt lat="42.51576" lon="2.51828">
        <ele>1622</ele>
        <time>2023-07-15T12:16:44.000Z</time>
      </trkpt>
      <trkpt lat="42.51575" lon="2.5182">
        <ele>1622.5999755859</ele>
        <time>2023-07-15T12:16:49.000Z</time>
      </trkpt>
      <trkpt lat="42.51575" lon="2.51817">
        <ele>1622.5999755859</ele>
        <time>2023-07-15T12:16:51.000Z</time>
      </trkpt>
      <trkpt lat="42.51577" lon="2.51807">
        <ele>1623.4000244141</ele>
        <time>2023-07-15T12:16:59.000Z</time>
      </trkpt>
      <trkpt lat="42.51578" lon="2.51804">
        <ele>1623.5999755859</ele>
        <time>2023-07-15T12:17:01.000Z</time>
      </trkpt>
      <trkpt lat="42.51578" lon="2.51796">
        <ele>1624.1999511719</ele>
        <time>2023-07-15T12:17:06.000Z</time>
      </trkpt>
      <trkpt lat="42.5158" lon="2.5179">
        <ele>1624.8000488281</ele>
        <time>2023-07-15T12:17:10.000Z</time>
      </trkpt>
      <trkpt lat="42.51583" lon="2.51784">
        <ele>1625.5999755859</ele>
        <time>2023-07-15T12:17:15.000Z</time>
      </trkpt>
      <trkpt lat="42.51583" lon="2.51783">
        <ele>1625.8000488281</ele>
        <time>2023-07-15T12:17:16.000Z</time>
      </trkpt>
      <trkpt lat="42.51587" lon="2.51775">
        <ele>1626.5999755859</ele>
        <time>2023-07-15T12:17:23.000Z</time>
      </trkpt>
      <trkpt lat="42.51589" lon="2.5177">
        <ele>1627</ele>
        <time>2023-07-15T12:17:27.000Z</time>
      </trkpt>
      <trkpt lat="42.51591" lon="2.51764">
        <ele>1627.4000244141</ele>
        <time>2023-07-15T12:17:32.000Z</time>
      </trkpt>
      <trkpt lat="42.51594" lon="2.51754">
        <ele>1628</ele>
        <time>2023-07-15T12:17:38.000Z</time>
      </trkpt>
      <trkpt lat="42.51594" lon="2.51751">
        <ele>1628.1999511719</ele>
        <time>2023-07-15T12:17:40.000Z</time>
      </trkpt>
      <trkpt lat="42.51591" lon="2.51742">
        <ele>1628.8000488281</ele>
        <time>2023-07-15T12:17:47.000Z</time>
      </trkpt>
      <trkpt lat="42.51591" lon="2.51741">
        <ele>1629</ele>
        <time>2023-07-15T12:17:48.000Z</time>
      </trkpt>
      <trkpt lat="42.5159" lon="2.51731">
        <ele>1630</ele>
        <time>2023-07-15T12:17:56.000Z</time>
      </trkpt>
      <trkpt lat="42.5159" lon="2.51731">
        <ele>1630.1999511719</ele>
        <time>2023-07-15T12:17:57.000Z</time>
      </trkpt>
      <trkpt lat="42.51587" lon="2.51726">
        <ele>1630.5999755859</ele>
        <time>2023-07-15T12:18:01.000Z</time>
      </trkpt>
      <trkpt lat="42.51584" lon="2.51722">
        <ele>1631.1999511719</ele>
        <time>2023-07-15T12:18:06.000Z</time>
      </trkpt>
      <trkpt lat="42.51582" lon="2.5172">
        <ele>1631.4000244141</ele>
        <time>2023-07-15T12:18:08.000Z</time>
      </trkpt>
      <trkpt lat="42.51578" lon="2.51718">
        <ele>1631.8000488281</ele>
        <time>2023-07-15T12:18:15.000Z</time>
      </trkpt>
      <trkpt lat="42.51573" lon="2.51715">
        <ele>1632.1999511719</ele>
        <time>2023-07-15T12:18:21.000Z</time>
      </trkpt>
      <trkpt lat="42.51573" lon="2.51713">
        <ele>1632.5999755859</ele>
        <time>2023-07-15T12:18:23.000Z</time>
      </trkpt>
      <trkpt lat="42.51569" lon="2.51701">
        <ele>1633.1999511719</ele>
        <time>2023-07-15T12:18:32.000Z</time>
      </trkpt>
      <trkpt lat="42.51569" lon="2.517">
        <ele>1633.4000244141</ele>
        <time>2023-07-15T12:18:33.000Z</time>
      </trkpt>
      <trkpt lat="42.51566" lon="2.51694">
        <ele>1634</ele>
        <time>2023-07-15T12:18:39.000Z</time>
      </trkpt>
      <trkpt lat="42.5156" lon="2.51694">
        <ele>1634.4000244141</ele>
        <time>2023-07-15T12:18:44.000Z</time>
      </trkpt>
      <trkpt lat="42.51558" lon="2.51693">
        <ele>1634.5999755859</ele>
        <time>2023-07-15T12:18:47.000Z</time>
      </trkpt>
      <trkpt lat="42.51553" lon="2.51689">
        <ele>1635.5999755859</ele>
        <time>2023-07-15T12:18:53.000Z</time>
      </trkpt>
      <trkpt lat="42.51553" lon="2.51684">
        <ele>1636</ele>
        <time>2023-07-15T12:18:57.000Z</time>
      </trkpt>
      <trkpt lat="42.51552" lon="2.51678">
        <ele>1636.5999755859</ele>
        <time>2023-07-15T12:19:02.000Z</time>
      </trkpt>
      <trkpt lat="42.51552" lon="2.51676">
        <ele>1636.8000488281</ele>
        <time>2023-07-15T12:19:04.000Z</time>
      </trkpt>
      <trkpt lat="42.51545" lon="2.51673">
        <ele>1637.5999755859</ele>
        <time>2023-07-15T12:19:08.000Z</time>
      </trkpt>
      <trkpt lat="42.51539" lon="2.51669">
        <ele>1638</ele>
        <time>2023-07-15T12:19:14.000Z</time>
      </trkpt>
      <trkpt lat="42.51535" lon="2.51668">
        <ele>1638.5999755859</ele>
        <time>2023-07-15T12:19:20.000Z</time>
      </trkpt>
      <trkpt lat="42.51534" lon="2.51667">
        <ele>1638.8000488281</ele>
        <time>2023-07-15T12:19:21.000Z</time>
      </trkpt>
      <trkpt lat="42.51528" lon="2.51662">
        <ele>1639.1999511719</ele>
        <time>2023-07-15T12:19:29.000Z</time>
      </trkpt>
      <trkpt lat="42.51516" lon="2.51659">
        <ele>1639.5999755859</ele>
        <time>2023-07-15T12:19:39.000Z</time>
      </trkpt>
      <trkpt lat="42.51508" lon="2.51656">
        <ele>1640.4000244141</ele>
        <time>2023-07-15T12:19:48.000Z</time>
      </trkpt>
      <trkpt lat="42.51504" lon="2.51655">
        <ele>1640.8000488281</ele>
        <time>2023-07-15T12:19:51.000Z</time>
      </trkpt>
      <trkpt lat="42.515" lon="2.51654">
        <ele>1640.8000488281</ele>
        <time>2023-07-15T12:19:54.000Z</time>
      </trkpt>
      <trkpt lat="42.51499" lon="2.51655">
        <ele>1640.8000488281</ele>
        <time>2023-07-15T12:19:55.000Z</time>
      </trkpt>
      <trkpt lat="42.5149" lon="2.51652">
        <ele>1641.1999511719</ele>
        <time>2023-07-15T12:20:01.000Z</time>
      </trkpt>
      <trkpt lat="42.51488" lon="2.51649">
        <ele>1641.4000244141</ele>
        <time>2023-07-15T12:20:05.000Z</time>
      </trkpt>
      <trkpt lat="42.51483" lon="2.51644">
        <ele>1641.4000244141</ele>
        <time>2023-07-15T12:20:13.000Z</time>
      </trkpt>
      <trkpt lat="42.51482" lon="2.5164">
        <ele>1642</ele>
        <time>2023-07-15T12:20:16.000Z</time>
      </trkpt>
      <trkpt lat="42.5148" lon="2.51639">
        <ele>1643.5999755859</ele>
        <time>2023-07-15T12:20:20.000Z</time>
      </trkpt>
      <trkpt lat="42.51479" lon="2.51637">
        <ele>1644.5999755859</ele>
        <time>2023-07-15T12:20:23.000Z</time>
      </trkpt>
      <trkpt lat="42.51476" lon="2.51632">
        <ele>1645.1999511719</ele>
        <time>2023-07-15T12:20:30.000Z</time>
      </trkpt>
      <trkpt lat="42.51474" lon="2.5163">
        <ele>1645.8000488281</ele>
        <time>2023-07-15T12:20:33.000Z</time>
      </trkpt>
      <trkpt lat="42.51472" lon="2.51626">
        <ele>1647</ele>
        <time>2023-07-15T12:20:39.000Z</time>
      </trkpt>
      <trkpt lat="42.51471" lon="2.51618">
        <ele>1648</ele>
        <time>2023-07-15T12:20:47.000Z</time>
      </trkpt>
      <trkpt lat="42.51471" lon="2.51618">
        <ele>1648.1999511719</ele>
        <time>2023-07-15T12:20:48.000Z</time>
      </trkpt>
      <trkpt lat="42.51468" lon="2.51612">
        <ele>1649.1999511719</ele>
        <time>2023-07-15T12:20:56.000Z</time>
      </trkpt>
      <trkpt lat="42.51467" lon="2.5161">
        <ele>1649.4000244141</ele>
        <time>2023-07-15T12:20:58.000Z</time>
      </trkpt>
      <trkpt lat="42.51467" lon="2.51605">
        <ele>1650.1999511719</ele>
        <time>2023-07-15T12:21:03.000Z</time>
      </trkpt>
      <trkpt lat="42.51465" lon="2.51603">
        <ele>1650.8000488281</ele>
        <time>2023-07-15T12:21:06.000Z</time>
      </trkpt>
      <trkpt lat="42.51465" lon="2.51599">
        <ele>1651.1999511719</ele>
        <time>2023-07-15T12:21:08.000Z</time>
      </trkpt>
      <trkpt lat="42.51464" lon="2.51595">
        <ele>1651.8000488281</ele>
        <time>2023-07-15T12:21:13.000Z</time>
      </trkpt>
      <trkpt lat="42.51459" lon="2.51593">
        <ele>1652.4000244141</ele>
        <time>2023-07-15T12:21:18.000Z</time>
      </trkpt>
      <trkpt lat="42.51458" lon="2.51585">
        <ele>1653.1999511719</ele>
        <time>2023-07-15T12:21:25.000Z</time>
      </trkpt>
      <trkpt lat="42.51459" lon="2.51584">
        <ele>1653.4000244141</ele>
        <time>2023-07-15T12:21:26.000Z</time>
      </trkpt>
      <trkpt lat="42.51461" lon="2.51571">
        <ele>1654.1999511719</ele>
        <time>2023-07-15T12:21:34.000Z</time>
      </trkpt>
      <trkpt lat="42.51462" lon="2.51567">
        <ele>1654.4000244141</ele>
        <time>2023-07-15T12:21:38.000Z</time>
      </trkpt>
      <trkpt lat="42.51462" lon="2.51566">
        <ele>1654.5999755859</ele>
        <time>2023-07-15T12:21:40.000Z</time>
      </trkpt>
      <trkpt lat="42.51461" lon="2.51562">
        <ele>1655.5999755859</ele>
        <time>2023-07-15T12:21:44.000Z</time>
      </trkpt>
      <trkpt lat="42.5146" lon="2.51557">
        <ele>1656</ele>
        <time>2023-07-15T12:21:47.000Z</time>
      </trkpt>
      <trkpt lat="42.51462" lon="2.51551">
        <ele>1656.5999755859</ele>
        <time>2023-07-15T12:21:53.000Z</time>
      </trkpt>
      <trkpt lat="42.51463" lon="2.51543">
        <ele>1656.1999511719</ele>
        <time>2023-07-15T12:22:01.000Z</time>
      </trkpt>
      <trkpt lat="42.51463" lon="2.51537">
        <ele>1656.4000244141</ele>
        <time>2023-07-15T12:22:07.000Z</time>
      </trkpt>
      <trkpt lat="42.51463" lon="2.51535">
        <ele>1656.5999755859</ele>
        <time>2023-07-15T12:22:08.000Z</time>
      </trkpt>
      <trkpt lat="42.51463" lon="2.51533">
        <ele>1657.8000488281</ele>
        <time>2023-07-15T12:22:11.000Z</time>
      </trkpt>
      <trkpt lat="42.51462" lon="2.51533">
        <ele>1658</ele>
        <time>2023-07-15T12:22:13.000Z</time>
      </trkpt>
      <trkpt lat="42.5146" lon="2.51533">
        <ele>1656.8000488281</ele>
        <time>2023-07-15T12:22:19.000Z</time>
      </trkpt>
      <trkpt lat="42.5146" lon="2.51533">
        <ele>1656.5999755859</ele>
        <time>2023-07-15T12:22:20.000Z</time>
      </trkpt>
      <trkpt lat="42.51455" lon="2.51533">
        <ele>1656</ele>
        <time>2023-07-15T12:22:26.000Z</time>
      </trkpt>
      <trkpt lat="42.51446" lon="2.51527">
        <ele>1656</ele>
        <time>2023-07-15T12:22:36.000Z</time>
      </trkpt>
      <trkpt lat="42.51442" lon="2.51523">
        <ele>1655.8000488281</ele>
        <time>2023-07-15T12:22:42.000Z</time>
      </trkpt>
      <trkpt lat="42.51438" lon="2.51514">
        <ele>1656.1999511719</ele>
        <time>2023-07-15T12:22:49.000Z</time>
      </trkpt>
      <trkpt lat="42.51433" lon="2.51512">
        <ele>1656</ele>
        <time>2023-07-15T12:22:53.000Z</time>
      </trkpt>
      <trkpt lat="42.5143" lon="2.51505">
        <ele>1655.5999755859</ele>
        <time>2023-07-15T12:22:59.000Z</time>
      </trkpt>
      <trkpt lat="42.51431" lon="2.51502">
        <ele>1655.5999755859</ele>
        <time>2023-07-15T12:23:01.000Z</time>
      </trkpt>
      <trkpt lat="42.51428" lon="2.51491">
        <ele>1655.5999755859</ele>
        <time>2023-07-15T12:23:10.000Z</time>
      </trkpt>
      <trkpt lat="42.51421" lon="2.51488">
        <ele>1655.8000488281</ele>
        <time>2023-07-15T12:23:17.000Z</time>
      </trkpt>
      <trkpt lat="42.51415" lon="2.51482">
        <ele>1656</ele>
        <time>2023-07-15T12:23:25.000Z</time>
      </trkpt>
      <trkpt lat="42.5141" lon="2.51477">
        <ele>1656.4000244141</ele>
        <time>2023-07-15T12:23:32.000Z</time>
      </trkpt>
      <trkpt lat="42.51409" lon="2.51476">
        <ele>1656.8000488281</ele>
        <time>2023-07-15T12:23:34.000Z</time>
      </trkpt>
      <trkpt lat="42.51404" lon="2.51475">
        <ele>1656.8000488281</ele>
        <time>2023-07-15T12:23:39.000Z</time>
      </trkpt>
      <trkpt lat="42.51401" lon="2.51467">
        <ele>1657</ele>
        <time>2023-07-15T12:23:47.000Z</time>
      </trkpt>
      <trkpt lat="42.514" lon="2.51469">
        <ele>1657</ele>
        <time>2023-07-15T12:23:48.000Z</time>
      </trkpt>
      <trkpt lat="42.51397" lon="2.51469">
        <ele>1657.1999511719</ele>
        <time>2023-07-15T12:23:52.000Z</time>
      </trkpt>
      <trkpt lat="42.51395" lon="2.5147">
        <ele>1657.4000244141</ele>
        <time>2023-07-15T12:24:00.000Z</time>
      </trkpt>
      <trkpt lat="42.51391" lon="2.5147">
        <ele>1657.5999755859</ele>
        <time>2023-07-15T12:24:10.000Z</time>
      </trkpt>
      <trkpt lat="42.51385" lon="2.51467">
        <ele>1657.8000488281</ele>
        <time>2023-07-15T12:24:18.000Z</time>
      </trkpt>
      <trkpt lat="42.51378" lon="2.51464">
        <ele>1658.5999755859</ele>
        <time>2023-07-15T12:24:25.000Z</time>
      </trkpt>
      <trkpt lat="42.51394" lon="2.51453">
        <ele>1658.1999511719</ele>
        <time>2023-07-15T12:25:01.000Z</time>
      </trkpt>
      <trkpt lat="42.51395" lon="2.51454">
        <ele>1659</ele>
        <time>2023-07-15T12:25:04.000Z</time>
      </trkpt>
      <trkpt lat="42.51395" lon="2.51455">
        <ele>1659.1999511719</ele>
        <time>2023-07-15T12:25:05.000Z</time>
      </trkpt>
      <trkpt lat="42.51396" lon="2.51456">
        <ele>1659.5999755859</ele>
        <time>2023-07-15T12:25:08.000Z</time>
      </trkpt>
      <trkpt lat="42.51397" lon="2.51456">
        <ele>1660</ele>
        <time>2023-07-15T12:25:17.000Z</time>
      </trkpt>
      <trkpt lat="42.51398" lon="2.51451">
        <ele>1660.4000244141</ele>
        <time>2023-07-15T12:25:38.000Z</time>
      </trkpt>
      <trkpt lat="42.51427" lon="2.51435">
        <ele>1661.4000244141</ele>
        <time>2023-07-15T12:25:57.000Z</time>
      </trkpt>
      <trkpt lat="42.51428" lon="2.51434">
        <ele>1661.1999511719</ele>
        <time>2023-07-15T12:25:58.000Z</time>
      </trkpt>
      <trkpt lat="42.51436" lon="2.51428">
        <ele>1661.5999755859</ele>
        <time>2023-07-15T12:26:09.000Z</time>
      </trkpt>
      <trkpt lat="42.51441" lon="2.51413">
        <ele>1661.8000488281</ele>
        <time>2023-07-15T12:26:18.000Z</time>
      </trkpt>
      <trkpt lat="42.51447" lon="2.5141">
        <ele>1662</ele>
        <time>2023-07-15T12:26:25.000Z</time>
      </trkpt>
      <trkpt lat="42.51454" lon="2.51407">
        <ele>1661.8000488281</ele>
        <time>2023-07-15T12:26:33.000Z</time>
      </trkpt>
      <trkpt lat="42.51458" lon="2.51402">
        <ele>1661.5999755859</ele>
        <time>2023-07-15T12:26:40.000Z</time>
      </trkpt>
      <trkpt lat="42.51453" lon="2.51391">
        <ele>1661.1999511719</ele>
        <time>2023-07-15T12:26:49.000Z</time>
      </trkpt>
      <trkpt lat="42.51475" lon="2.51371">
        <ele>1661.4000244141</ele>
        <time>2023-07-15T12:27:22.000Z</time>
      </trkpt>
      <trkpt lat="42.51489" lon="2.51368">
        <ele>1660.8000488281</ele>
        <time>2023-07-15T12:27:28.000Z</time>
      </trkpt>
      <trkpt lat="42.51493" lon="2.51363">
        <ele>1660.4000244141</ele>
        <time>2023-07-15T12:27:33.000Z</time>
      </trkpt>
      <trkpt lat="42.51494" lon="2.51361">
        <ele>1661.4000244141</ele>
        <time>2023-07-15T12:27:41.000Z</time>
      </trkpt>
      <trkpt lat="42.51495" lon="2.51364">
        <ele>1661.5999755859</ele>
        <time>2023-07-15T12:27:46.000Z</time>
      </trkpt>
      <trkpt lat="42.51518" lon="2.51344">
        <ele>1661.1999511719</ele>
        <time>2023-07-15T12:28:16.000Z</time>
      </trkpt>
      <trkpt lat="42.51518" lon="2.51344">
        <ele>1661.4000244141</ele>
        <time>2023-07-15T12:28:19.000Z</time>
      </trkpt>
      <trkpt lat="42.51518" lon="2.51346">
        <ele>1661.4000244141</ele>
        <time>2023-07-15T12:28:21.000Z</time>
      </trkpt>
      <trkpt lat="42.5157" lon="2.51308">
        <ele>1661.4000244141</ele>
        <time>2023-07-15T12:28:59.000Z</time>
      </trkpt>
      <trkpt lat="42.51571" lon="2.51307">
        <ele>1661.8000488281</ele>
        <time>2023-07-15T12:29:01.000Z</time>
      </trkpt>
      <trkpt lat="42.51571" lon="2.51307">
        <ele>1662.1999511719</ele>
        <time>2023-07-15T12:29:02.000Z</time>
      </trkpt>
      <trkpt lat="42.51572" lon="2.51309">
        <ele>1662.4000244141</ele>
        <time>2023-07-15T12:29:07.000Z</time>
      </trkpt>
      <trkpt lat="42.51598" lon="2.51317">
        <ele>1663</ele>
        <time>2023-07-15T12:29:51.000Z</time>
      </trkpt>
      <trkpt lat="42.51603" lon="2.51316">
        <ele>1663</ele>
        <time>2023-07-15T12:29:55.000Z</time>
      </trkpt>
      <trkpt lat="42.51615" lon="2.5131">
        <ele>1662.8000488281</ele>
        <time>2023-07-15T12:30:05.000Z</time>
      </trkpt>
      <trkpt lat="42.51618" lon="2.51311">
        <ele>1662.5999755859</ele>
        <time>2023-07-15T12:30:08.000Z</time>
      </trkpt>
      <trkpt lat="42.51628" lon="2.51313">
        <ele>1662.5999755859</ele>
        <time>2023-07-15T12:30:14.000Z</time>
      </trkpt>
      <trkpt lat="42.51633" lon="2.51313">
        <ele>1662.5999755859</ele>
        <time>2023-07-15T12:30:21.000Z</time>
      </trkpt>
      <trkpt lat="42.51646" lon="2.51313">
        <ele>1662.5999755859</ele>
        <time>2023-07-15T12:30:29.000Z</time>
      </trkpt>
      <trkpt lat="42.51662" lon="2.51305">
        <ele>1662.5999755859</ele>
        <time>2023-07-15T12:30:34.000Z</time>
      </trkpt>
      <trkpt lat="42.51674" lon="2.51297">
        <ele>1661.8000488281</ele>
        <time>2023-07-15T12:30:42.000Z</time>
      </trkpt>
      <trkpt lat="42.51682" lon="2.5128">
        <ele>1661.8000488281</ele>
        <time>2023-07-15T12:30:54.000Z</time>
      </trkpt>
      <trkpt lat="42.51683" lon="2.51278">
        <ele>1661.8000488281</ele>
        <time>2023-07-15T12:30:55.000Z</time>
      </trkpt>
      <trkpt lat="42.51692" lon="2.51262">
        <ele>1661.5999755859</ele>
        <time>2023-07-15T12:31:05.000Z</time>
      </trkpt>
      <trkpt lat="42.51695" lon="2.51247">
        <ele>1661.8000488281</ele>
        <time>2023-07-15T12:31:14.000Z</time>
      </trkpt>
      <trkpt lat="42.51699" lon="2.51231">
        <ele>1662.4000244141</ele>
        <time>2023-07-15T12:31:25.000Z</time>
      </trkpt>
      <trkpt lat="42.51706" lon="2.51216">
        <ele>1663</ele>
        <time>2023-07-15T12:31:33.000Z</time>
      </trkpt>
      <trkpt lat="42.51708" lon="2.51212">
        <ele>1663.1999511719</ele>
        <time>2023-07-15T12:31:37.000Z</time>
      </trkpt>
      <trkpt lat="42.51711" lon="2.51205">
        <ele>1663.5999755859</ele>
        <time>2023-07-15T12:31:41.000Z</time>
      </trkpt>
      <trkpt lat="42.51721" lon="2.51192">
        <ele>1663.1999511719</ele>
        <time>2023-07-15T12:31:48.000Z</time>
      </trkpt>
      <trkpt lat="42.51727" lon="2.51183">
        <ele>1662.8000488281</ele>
        <time>2023-07-15T12:31:55.000Z</time>
      </trkpt>
      <trkpt lat="42.51734" lon="2.51178">
        <ele>1662.5999755859</ele>
        <time>2023-07-15T12:32:02.000Z</time>
      </trkpt>
      <trkpt lat="42.51742" lon="2.51127">
        <ele>1663.4000244141</ele>
        <time>2023-07-15T12:32:40.000Z</time>
      </trkpt>
      <trkpt lat="42.5174" lon="2.51123">
        <ele>1663.4000244141</ele>
        <time>2023-07-15T12:32:41.000Z</time>
      </trkpt>
      <trkpt lat="42.5174" lon="2.51109">
        <ele>1663.4000244141</ele>
        <time>2023-07-15T12:32:46.000Z</time>
      </trkpt>
      <trkpt lat="42.51741" lon="2.51103">
        <ele>1663.1999511719</ele>
        <time>2023-07-15T12:32:48.000Z</time>
      </trkpt>
      <trkpt lat="42.51743" lon="2.51089">
        <ele>1662.8000488281</ele>
        <time>2023-07-15T12:32:55.000Z</time>
      </trkpt>
      <trkpt lat="42.51744" lon="2.51076">
        <ele>1662.8000488281</ele>
        <time>2023-07-15T12:33:02.000Z</time>
      </trkpt>
      <trkpt lat="42.51744" lon="2.51066">
        <ele>1662.5999755859</ele>
        <time>2023-07-15T12:33:08.000Z</time>
      </trkpt>
      <trkpt lat="42.51745" lon="2.5106">
        <ele>1662.5999755859</ele>
        <time>2023-07-15T12:33:13.000Z</time>
      </trkpt>
      <trkpt lat="42.51746" lon="2.51047">
        <ele>1662.1999511719</ele>
        <time>2023-07-15T12:33:19.000Z</time>
      </trkpt>
      <trkpt lat="42.51746" lon="2.51046">
        <ele>1662.1999511719</ele>
        <time>2023-07-15T12:33:20.000Z</time>
      </trkpt>
      <trkpt lat="42.51746" lon="2.51036">
        <ele>1662</ele>
        <time>2023-07-15T12:33:27.000Z</time>
      </trkpt>
      <trkpt lat="42.51747" lon="2.51027">
        <ele>1662</ele>
        <time>2023-07-15T12:33:34.000Z</time>
      </trkpt>
      <trkpt lat="42.51745" lon="2.51013">
        <ele>1661.8000488281</ele>
        <time>2023-07-15T12:33:41.000Z</time>
      </trkpt>
      <trkpt lat="42.51744" lon="2.51002">
        <ele>1661.8000488281</ele>
        <time>2023-07-15T12:33:49.000Z</time>
      </trkpt>
      <trkpt lat="42.51742" lon="2.5099">
        <ele>1661.8000488281</ele>
        <time>2023-07-15T12:33:56.000Z</time>
      </trkpt>
      <trkpt lat="42.51742" lon="2.50978">
        <ele>1661.8000488281</ele>
        <time>2023-07-15T12:34:04.000Z</time>
      </trkpt>
      <trkpt lat="42.51744" lon="2.50962">
        <ele>1662</ele>
        <time>2023-07-15T12:34:12.000Z</time>
      </trkpt>
      <trkpt lat="42.51853" lon="2.50912">
        <ele>1662.4000244141</ele>
        <time>2023-07-15T12:36:45.000Z</time>
      </trkpt>
      <trkpt lat="42.51853" lon="2.50911">
        <ele>1662.4000244141</ele>
        <time>2023-07-15T12:36:47.000Z</time>
      </trkpt>
      <trkpt lat="42.51859" lon="2.50913">
        <ele>1661.8000488281</ele>
        <time>2023-07-15T12:36:54.000Z</time>
      </trkpt>
      <trkpt lat="42.51858" lon="2.50908">
        <ele>1661.8000488281</ele>
        <time>2023-07-15T12:36:57.000Z</time>
      </trkpt>
      <trkpt lat="42.51854" lon="2.50906">
        <ele>1663.1999511719</ele>
        <time>2023-07-15T12:37:04.000Z</time>
      </trkpt>
      <trkpt lat="42.51854" lon="2.50906">
        <ele>1663.1999511719</ele>
        <time>2023-07-15T12:37:07.000Z</time>
      </trkpt>
      <trkpt lat="42.51854" lon="2.50905">
        <ele>1664.4000244141</ele>
        <time>2023-07-15T12:37:11.000Z</time>
      </trkpt>
      <trkpt lat="42.51856" lon="2.50907">
        <ele>1664.5999755859</ele>
        <time>2023-07-15T12:37:12.000Z</time>
      </trkpt>
      <trkpt lat="42.51865" lon="2.50912">
        <ele>1664.5999755859</ele>
        <time>2023-07-15T12:37:21.000Z</time>
      </trkpt>
      <trkpt lat="42.51873" lon="2.50912">
        <ele>1663.5999755859</ele>
        <time>2023-07-15T12:37:34.000Z</time>
      </trkpt>
      <trkpt lat="42.51874" lon="2.50913">
        <ele>1663.1999511719</ele>
        <time>2023-07-15T12:37:36.000Z</time>
      </trkpt>
      <trkpt lat="42.51874" lon="2.50913">
        <ele>1662.4000244141</ele>
        <time>2023-07-15T12:37:40.000Z</time>
      </trkpt>
      <trkpt lat="42.51883" lon="2.50911">
        <ele>1662.5999755859</ele>
        <time>2023-07-15T12:37:47.000Z</time>
      </trkpt>
      <trkpt lat="42.51889" lon="2.50906">
        <ele>1662.5999755859</ele>
        <time>2023-07-15T12:37:53.000Z</time>
      </trkpt>
      <trkpt lat="42.51893" lon="2.50902">
        <ele>1662.4000244141</ele>
        <time>2023-07-15T12:37:59.000Z</time>
      </trkpt>
      <trkpt lat="42.51891" lon="2.50903">
        <ele>1662.1999511719</ele>
        <time>2023-07-15T12:38:06.000Z</time>
      </trkpt>
      <trkpt lat="42.51893" lon="2.50899">
        <ele>1662</ele>
        <time>2023-07-15T12:38:12.000Z</time>
      </trkpt>
      <trkpt lat="42.51892" lon="2.50896">
        <ele>1662.1999511719</ele>
        <time>2023-07-15T12:38:18.000Z</time>
      </trkpt>
      <trkpt lat="42.51894" lon="2.50893">
        <ele>1662</ele>
        <time>2023-07-15T12:38:23.000Z</time>
      </trkpt>
      <trkpt lat="42.51903" lon="2.50884">
        <ele>1662</ele>
        <time>2023-07-15T12:38:32.000Z</time>
      </trkpt>
      <trkpt lat="42.51905" lon="2.50881">
        <ele>1661.5999755859</ele>
        <time>2023-07-15T12:38:39.000Z</time>
      </trkpt>
      <trkpt lat="42.51912" lon="2.50876">
        <ele>1661</ele>
        <time>2023-07-15T12:38:45.000Z</time>
      </trkpt>
      <trkpt lat="42.51912" lon="2.50876">
        <ele>1661</ele>
        <time>2023-07-15T12:38:46.000Z</time>
      </trkpt>
      <trkpt lat="42.51914" lon="2.50869">
        <ele>1661</ele>
        <time>2023-07-15T12:38:53.000Z</time>
      </trkpt>
      <trkpt lat="42.5192" lon="2.50856">
        <ele>1661.5999755859</ele>
        <time>2023-07-15T12:39:02.000Z</time>
      </trkpt>
      <trkpt lat="42.51919" lon="2.50849">
        <ele>1661.8000488281</ele>
        <time>2023-07-15T12:39:09.000Z</time>
      </trkpt>
      <trkpt lat="42.51922" lon="2.5084">
        <ele>1661.8000488281</ele>
        <time>2023-07-15T12:39:17.000Z</time>
      </trkpt>
      <trkpt lat="42.51924" lon="2.50835">
        <ele>1661.4000244141</ele>
        <time>2023-07-15T12:39:22.000Z</time>
      </trkpt>
      <trkpt lat="42.51928" lon="2.50832">
        <ele>1660.1999511719</ele>
        <time>2023-07-15T12:39:29.000Z</time>
      </trkpt>
      <trkpt lat="42.51936" lon="2.5078">
        <ele>1662.4000244141</ele>
        <time>2023-07-15T12:40:13.000Z</time>
      </trkpt>
      <trkpt lat="42.51942" lon="2.50773">
        <ele>1662</ele>
        <time>2023-07-15T12:40:21.000Z</time>
      </trkpt>
      <trkpt lat="42.51939" lon="2.50727">
        <ele>1662</ele>
        <time>2023-07-15T12:40:46.000Z</time>
      </trkpt>
      <trkpt lat="42.5194" lon="2.50713">
        <ele>1662.1999511719</ele>
        <time>2023-07-15T12:40:50.000Z</time>
      </trkpt>
      <trkpt lat="42.51943" lon="2.50697">
        <ele>1662.1999511719</ele>
        <time>2023-07-15T12:40:58.000Z</time>
      </trkpt>
      <trkpt lat="42.51945" lon="2.50687">
        <ele>1662.4000244141</ele>
        <time>2023-07-15T12:41:03.000Z</time>
      </trkpt>
      <trkpt lat="42.51949" lon="2.50668">
        <ele>1662.1999511719</ele>
        <time>2023-07-15T12:41:16.000Z</time>
      </trkpt>
      <trkpt lat="42.51952" lon="2.50654">
        <ele>1662</ele>
        <time>2023-07-15T12:41:26.000Z</time>
      </trkpt>
      <trkpt lat="42.51954" lon="2.50647">
        <ele>1661.8000488281</ele>
        <time>2023-07-15T12:41:37.000Z</time>
      </trkpt>
      <trkpt lat="42.51946" lon="2.50637">
        <ele>1661.8000488281</ele>
        <time>2023-07-15T12:41:43.000Z</time>
      </trkpt>
      <trkpt lat="42.51938" lon="2.50615">
        <ele>1662.5999755859</ele>
        <time>2023-07-15T12:41:56.000Z</time>
      </trkpt>
      <trkpt lat="42.51935" lon="2.50597">
        <ele>1662.1999511719</ele>
        <time>2023-07-15T12:42:04.000Z</time>
      </trkpt>
      <trkpt lat="42.51932" lon="2.50589">
        <ele>1661.8000488281</ele>
        <time>2023-07-15T12:42:10.000Z</time>
      </trkpt>
      <trkpt lat="42.51926" lon="2.5058">
        <ele>1661.8000488281</ele>
        <time>2023-07-15T12:42:19.000Z</time>
      </trkpt>
      <trkpt lat="42.51921" lon="2.50568">
        <ele>1661.4000244141</ele>
        <time>2023-07-15T12:42:28.000Z</time>
      </trkpt>
      <trkpt lat="42.5192" lon="2.50565">
        <ele>1660.8000488281</ele>
        <time>2023-07-15T12:42:31.000Z</time>
      </trkpt>
      <trkpt lat="42.51913" lon="2.50563">
        <ele>1660.5999755859</ele>
        <time>2023-07-15T12:42:36.000Z</time>
      </trkpt>
      <trkpt lat="42.51906" lon="2.50555">
        <ele>1660.4000244141</ele>
        <time>2023-07-15T12:42:45.000Z</time>
      </trkpt>
      <trkpt lat="42.51902" lon="2.50549">
        <ele>1660.5999755859</ele>
        <time>2023-07-15T12:42:53.000Z</time>
      </trkpt>
      <trkpt lat="42.519" lon="2.5054">
        <ele>1660.5999755859</ele>
        <time>2023-07-15T12:43:02.000Z</time>
      </trkpt>
      <trkpt lat="42.51897" lon="2.50533">
        <ele>1660.5999755859</ele>
        <time>2023-07-15T12:43:09.000Z</time>
      </trkpt>
      <trkpt lat="42.5189" lon="2.50527">
        <ele>1660.5999755859</ele>
        <time>2023-07-15T12:43:16.000Z</time>
      </trkpt>
      <trkpt lat="42.51888" lon="2.50513">
        <ele>1660</ele>
        <time>2023-07-15T12:43:24.000Z</time>
      </trkpt>
      <trkpt lat="42.51887" lon="2.50512">
        <ele>1659.8000488281</ele>
        <time>2023-07-15T12:43:25.000Z</time>
      </trkpt>
      <trkpt lat="42.51885" lon="2.50503">
        <ele>1660</ele>
        <time>2023-07-15T12:43:33.000Z</time>
      </trkpt>
      <trkpt lat="42.51884" lon="2.505">
        <ele>1661</ele>
        <time>2023-07-15T12:43:37.000Z</time>
      </trkpt>
      <trkpt lat="42.51885" lon="2.50495">
        <ele>1661.4000244141</ele>
        <time>2023-07-15T12:43:40.000Z</time>
      </trkpt>
      <trkpt lat="42.51883" lon="2.50485">
        <ele>1661.5999755859</ele>
        <time>2023-07-15T12:43:48.000Z</time>
      </trkpt>
      <trkpt lat="42.51879" lon="2.50477">
        <ele>1661.4000244141</ele>
        <time>2023-07-15T12:43:55.000Z</time>
      </trkpt>
      <trkpt lat="42.51876" lon="2.50468">
        <ele>1661.4000244141</ele>
        <time>2023-07-15T12:44:02.000Z</time>
      </trkpt>
      <trkpt lat="42.51878" lon="2.50453">
        <ele>1660.5999755859</ele>
        <time>2023-07-15T12:44:10.000Z</time>
      </trkpt>
      <trkpt lat="42.51873" lon="2.50446">
        <ele>1660.1999511719</ele>
        <time>2023-07-15T12:44:17.000Z</time>
      </trkpt>
      <trkpt lat="42.51872" lon="2.50439">
        <ele>1660.1999511719</ele>
        <time>2023-07-15T12:44:24.000Z</time>
      </trkpt>
      <trkpt lat="42.51866" lon="2.50429">
        <ele>1660</ele>
        <time>2023-07-15T12:44:32.000Z</time>
      </trkpt>
      <trkpt lat="42.51866" lon="2.50428">
        <ele>1659.8000488281</ele>
        <time>2023-07-15T12:44:33.000Z</time>
      </trkpt>
      <trkpt lat="42.51868" lon="2.50421">
        <ele>1659.5999755859</ele>
        <time>2023-07-15T12:44:39.000Z</time>
      </trkpt>
      <trkpt lat="42.51865" lon="2.50418">
        <ele>1660.5999755859</ele>
        <time>2023-07-15T12:44:45.000Z</time>
      </trkpt>
      <trkpt lat="42.51866" lon="2.50416">
        <ele>1661</ele>
        <time>2023-07-15T12:44:47.000Z</time>
      </trkpt>
      <trkpt lat="42.51865" lon="2.50412">
        <ele>1661.4000244141</ele>
        <time>2023-07-15T12:44:51.000Z</time>
      </trkpt>
      <trkpt lat="42.5186" lon="2.50404">
        <ele>1661</ele>
        <time>2023-07-15T12:44:59.000Z</time>
      </trkpt>
      <trkpt lat="42.51856" lon="2.50393">
        <ele>1661.1999511719</ele>
        <time>2023-07-15T12:45:09.000Z</time>
      </trkpt>
      <trkpt lat="42.51853" lon="2.50382">
        <ele>1661.8000488281</ele>
        <time>2023-07-15T12:45:18.000Z</time>
      </trkpt>
      <trkpt lat="42.51851" lon="2.50377">
        <ele>1662</ele>
        <time>2023-07-15T12:45:22.000Z</time>
      </trkpt>
      <trkpt lat="42.5185" lon="2.50375">
        <ele>1662.8000488281</ele>
        <time>2023-07-15T12:45:26.000Z</time>
      </trkpt>
      <trkpt lat="42.5185" lon="2.50374">
        <ele>1663</ele>
        <time>2023-07-15T12:45:27.000Z</time>
      </trkpt>
      <trkpt lat="42.51852" lon="2.50368">
        <ele>1663.5999755859</ele>
        <time>2023-07-15T12:45:32.000Z</time>
      </trkpt>
      <trkpt lat="42.51853" lon="2.50358">
        <ele>1663.4000244141</ele>
        <time>2023-07-15T12:45:38.000Z</time>
      </trkpt>
      <trkpt lat="42.51855" lon="2.5035">
        <ele>1662.5999755859</ele>
        <time>2023-07-15T12:45:44.000Z</time>
      </trkpt>
      <trkpt lat="42.51853" lon="2.50351">
        <ele>1662</ele>
        <time>2023-07-15T12:45:52.000Z</time>
      </trkpt>
      <trkpt lat="42.51849" lon="2.50348">
        <ele>1661.8000488281</ele>
        <time>2023-07-15T12:46:02.000Z</time>
      </trkpt>
      <trkpt lat="42.51848" lon="2.50345">
        <ele>1661.8000488281</ele>
        <time>2023-07-15T12:46:09.000Z</time>
      </trkpt>
      <trkpt lat="42.51846" lon="2.50338">
        <ele>1661.4000244141</ele>
        <time>2023-07-15T12:46:15.000Z</time>
      </trkpt>
      <trkpt lat="42.51846" lon="2.50334">
        <ele>1661</ele>
        <time>2023-07-15T12:46:19.000Z</time>
      </trkpt>
      <trkpt lat="42.51846" lon="2.50335">
        <ele>1661</ele>
        <time>2023-07-15T12:46:20.000Z</time>
      </trkpt>
      <trkpt lat="42.51845" lon="2.50331">
        <ele>1660.4000244141</ele>
        <time>2023-07-15T12:46:26.000Z</time>
      </trkpt>
      <trkpt lat="42.51845" lon="2.50325">
        <ele>1660</ele>
        <time>2023-07-15T12:46:32.000Z</time>
      </trkpt>
      <trkpt lat="42.51846" lon="2.50323">
        <ele>1659.8000488281</ele>
        <time>2023-07-15T12:46:33.000Z</time>
      </trkpt>
      <trkpt lat="42.51846" lon="2.50317">
        <ele>1659</ele>
        <time>2023-07-15T12:46:38.000Z</time>
      </trkpt>
      <trkpt lat="42.51845" lon="2.50306">
        <ele>1659.5999755859</ele>
        <time>2023-07-15T12:46:46.000Z</time>
      </trkpt>
      <trkpt lat="42.51842" lon="2.50301">
        <ele>1660.4000244141</ele>
        <time>2023-07-15T12:46:52.000Z</time>
      </trkpt>
      <trkpt lat="42.51839" lon="2.50291">
        <ele>1660.8000488281</ele>
        <time>2023-07-15T12:47:01.000Z</time>
      </trkpt>
      <trkpt lat="42.51838" lon="2.50289">
        <ele>1661</ele>
        <time>2023-07-15T12:47:03.000Z</time>
      </trkpt>
      <trkpt lat="42.51837" lon="2.50284">
        <ele>1661.5999755859</ele>
        <time>2023-07-15T12:47:09.000Z</time>
      </trkpt>
      <trkpt lat="42.51834" lon="2.50275">
        <ele>1661.8000488281</ele>
        <time>2023-07-15T12:47:18.000Z</time>
      </trkpt>
      <trkpt lat="42.51829" lon="2.50259">
        <ele>1661.5999755859</ele>
        <time>2023-07-15T12:47:27.000Z</time>
      </trkpt>
      <trkpt lat="42.51827" lon="2.50246">
        <ele>1661.4000244141</ele>
        <time>2023-07-15T12:47:35.000Z</time>
      </trkpt>
      <trkpt lat="42.51827" lon="2.50235">
        <ele>1661.8000488281</ele>
        <time>2023-07-15T12:47:42.000Z</time>
      </trkpt>
      <trkpt lat="42.51825" lon="2.50231">
        <ele>1662</ele>
        <time>2023-07-15T12:47:45.000Z</time>
      </trkpt>
      <trkpt lat="42.51824" lon="2.50228">
        <ele>1661.8000488281</ele>
        <time>2023-07-15T12:47:51.000Z</time>
      </trkpt>
      <trkpt lat="42.51823" lon="2.50219">
        <ele>1661.8000488281</ele>
        <time>2023-07-15T12:47:59.000Z</time>
      </trkpt>
      <trkpt lat="42.51813" lon="2.50203">
        <ele>1661.5999755859</ele>
        <time>2023-07-15T12:48:04.000Z</time>
      </trkpt>
      <trkpt lat="42.5181" lon="2.50189">
        <ele>1661.4000244141</ele>
        <time>2023-07-15T12:48:11.000Z</time>
      </trkpt>
      <trkpt lat="42.51806" lon="2.5018">
        <ele>1661.4000244141</ele>
        <time>2023-07-15T12:48:17.000Z</time>
      </trkpt>
      <trkpt lat="42.51801" lon="2.50172">
        <ele>1661.1999511719</ele>
        <time>2023-07-15T12:48:25.000Z</time>
      </trkpt>
      <trkpt lat="42.51794" lon="2.50161">
        <ele>1661</ele>
        <time>2023-07-15T12:48:32.000Z</time>
      </trkpt>
      <trkpt lat="42.51787" lon="2.50147">
        <ele>1661.1999511719</ele>
        <time>2023-07-15T12:48:42.000Z</time>
      </trkpt>
      <trkpt lat="42.51785" lon="2.50147">
        <ele>1661</ele>
        <time>2023-07-15T12:48:45.000Z</time>
      </trkpt>
      <trkpt lat="42.5178" lon="2.50144">
        <ele>1660.8000488281</ele>
        <time>2023-07-15T12:48:50.000Z</time>
      </trkpt>
      <trkpt lat="42.51774" lon="2.50136">
        <ele>1660</ele>
        <time>2023-07-15T12:48:58.000Z</time>
      </trkpt>
      <trkpt lat="42.51768" lon="2.50135">
        <ele>1659.4000244141</ele>
        <time>2023-07-15T12:49:02.000Z</time>
      </trkpt>
      <trkpt lat="42.51766" lon="2.50133">
        <ele>1658.8000488281</ele>
        <time>2023-07-15T12:49:04.000Z</time>
      </trkpt>
      <trkpt lat="42.51765" lon="2.50132">
        <ele>1658.8000488281</ele>
        <time>2023-07-15T12:49:05.000Z</time>
      </trkpt>
      <trkpt lat="42.5176" lon="2.50128">
        <ele>1657.8000488281</ele>
        <time>2023-07-15T12:49:09.000Z</time>
      </trkpt>
      <trkpt lat="42.51756" lon="2.50124">
        <ele>1657.4000244141</ele>
        <time>2023-07-15T12:49:14.000Z</time>
      </trkpt>
      <trkpt lat="42.5175" lon="2.50121">
        <ele>1658.4000244141</ele>
        <time>2023-07-15T12:49:22.000Z</time>
      </trkpt>
      <trkpt lat="42.51748" lon="2.50121">
        <ele>1658.5999755859</ele>
        <time>2023-07-15T12:49:23.000Z</time>
      </trkpt>
      <trkpt lat="42.51746" lon="2.5012">
        <ele>1659</ele>
        <time>2023-07-15T12:49:25.000Z</time>
      </trkpt>
      <trkpt lat="42.51741" lon="2.50121">
        <ele>1659.4000244141</ele>
        <time>2023-07-15T12:49:30.000Z</time>
      </trkpt>
      <trkpt lat="42.51739" lon="2.5012">
        <ele>1659.4000244141</ele>
        <time>2023-07-15T12:49:32.000Z</time>
      </trkpt>
      <trkpt lat="42.51739" lon="2.5012">
        <ele>1659.4000244141</ele>
        <time>2023-07-15T12:49:34.000Z</time>
      </trkpt>
      <trkpt lat="42.51736" lon="2.50106">
        <ele>1659.5999755859</ele>
        <time>2023-07-15T12:50:00.000Z</time>
      </trkpt>
      <trkpt lat="42.51742" lon="2.50086">
        <ele>1660.5999755859</ele>
        <time>2023-07-15T12:50:14.000Z</time>
      </trkpt>
      <trkpt lat="42.51742" lon="2.5008">
        <ele>1660.4000244141</ele>
        <time>2023-07-15T12:50:16.000Z</time>
      </trkpt>
      <trkpt lat="42.51748" lon="2.50064">
        <ele>1660.8000488281</ele>
        <time>2023-07-15T12:50:25.000Z</time>
      </trkpt>
      <trkpt lat="42.51753" lon="2.50056">
        <ele>1660.8000488281</ele>
        <time>2023-07-15T12:50:32.000Z</time>
      </trkpt>
      <trkpt lat="42.51757" lon="2.50049">
        <ele>1661.1999511719</ele>
        <time>2023-07-15T12:50:38.000Z</time>
      </trkpt>
      <trkpt lat="42.51758" lon="2.50048">
        <ele>1661.4000244141</ele>
        <time>2023-07-15T12:50:39.000Z</time>
      </trkpt>
      <trkpt lat="42.51762" lon="2.50045">
        <ele>1661.5999755859</ele>
        <time>2023-07-15T12:50:46.000Z</time>
      </trkpt>
      <trkpt lat="42.51766" lon="2.50041">
        <ele>1661.8000488281</ele>
        <time>2023-07-15T12:50:52.000Z</time>
      </trkpt>
      <trkpt lat="42.5177" lon="2.50038">
        <ele>1662</ele>
        <time>2023-07-15T12:50:57.000Z</time>
      </trkpt>
      <trkpt lat="42.51774" lon="2.5003">
        <ele>1662</ele>
        <time>2023-07-15T12:51:03.000Z</time>
      </trkpt>
      <trkpt lat="42.51774" lon="2.50021">
        <ele>1662.1999511719</ele>
        <time>2023-07-15T12:51:10.000Z</time>
      </trkpt>
      <trkpt lat="42.51771" lon="2.50015">
        <ele>1661.5999755859</ele>
        <time>2023-07-15T12:51:16.000Z</time>
      </trkpt>
      <trkpt lat="42.51767" lon="2.50002">
        <ele>1661.8000488281</ele>
        <time>2023-07-15T12:51:24.000Z</time>
      </trkpt>
      <trkpt lat="42.51766" lon="2.49991">
        <ele>1662</ele>
        <time>2023-07-15T12:51:32.000Z</time>
      </trkpt>
      <trkpt lat="42.51766" lon="2.49983">
        <ele>1662.1999511719</ele>
        <time>2023-07-15T12:51:39.000Z</time>
      </trkpt>
      <trkpt lat="42.51765" lon="2.49982">
        <ele>1662.4000244141</ele>
        <time>2023-07-15T12:51:40.000Z</time>
      </trkpt>
      <trkpt lat="42.51762" lon="2.49973">
        <ele>1662.5999755859</ele>
        <time>2023-07-15T12:51:47.000Z</time>
      </trkpt>
      <trkpt lat="42.51759" lon="2.49962">
        <ele>1662.4000244141</ele>
        <time>2023-07-15T12:51:54.000Z</time>
      </trkpt>
      <trkpt lat="42.51755" lon="2.49954">
        <ele>1662.1999511719</ele>
        <time>2023-07-15T12:52:01.000Z</time>
      </trkpt>
      <trkpt lat="42.51755" lon="2.49947">
        <ele>1662.1999511719</ele>
        <time>2023-07-15T12:52:07.000Z</time>
      </trkpt>
      <trkpt lat="42.51753" lon="2.49941">
        <ele>1662.1999511719</ele>
        <time>2023-07-15T12:52:14.000Z</time>
      </trkpt>
      <trkpt lat="42.51754" lon="2.49938">
        <ele>1661.5999755859</ele>
        <time>2023-07-15T12:52:20.000Z</time>
      </trkpt>
      <trkpt lat="42.51754" lon="2.49934">
        <ele>1661.1999511719</ele>
        <time>2023-07-15T12:52:26.000Z</time>
      </trkpt>
      <trkpt lat="42.51752" lon="2.49927">
        <ele>1660.5999755859</ele>
        <time>2023-07-15T12:52:32.000Z</time>
      </trkpt>
      <trkpt lat="42.51747" lon="2.4992">
        <ele>1660.4000244141</ele>
        <time>2023-07-15T12:52:37.000Z</time>
      </trkpt>
      <trkpt lat="42.51749" lon="2.49911">
        <ele>1660.4000244141</ele>
        <time>2023-07-15T12:52:44.000Z</time>
      </trkpt>
      <trkpt lat="42.51745" lon="2.49904">
        <ele>1660.4000244141</ele>
        <time>2023-07-15T12:52:49.000Z</time>
      </trkpt>
      <trkpt lat="42.51742" lon="2.49898">
        <ele>1660.5999755859</ele>
        <time>2023-07-15T12:52:53.000Z</time>
      </trkpt>
      <trkpt lat="42.51735" lon="2.4989">
        <ele>1660.4000244141</ele>
        <time>2023-07-15T12:53:00.000Z</time>
      </trkpt>
      <trkpt lat="42.51732" lon="2.49887">
        <ele>1661</ele>
        <time>2023-07-15T12:53:07.000Z</time>
      </trkpt>
      <trkpt lat="42.51729" lon="2.49882">
        <ele>1660.8000488281</ele>
        <time>2023-07-15T12:53:13.000Z</time>
      </trkpt>
      <trkpt lat="42.51728" lon="2.49874">
        <ele>1661</ele>
        <time>2023-07-15T12:53:18.000Z</time>
      </trkpt>
      <trkpt lat="42.51726" lon="2.49863">
        <ele>1661</ele>
        <time>2023-07-15T12:53:25.000Z</time>
      </trkpt>
      <trkpt lat="42.51724" lon="2.49856">
        <ele>1661.1999511719</ele>
        <time>2023-07-15T12:53:30.000Z</time>
      </trkpt>
      <trkpt lat="42.51722" lon="2.49852">
        <ele>1661.1999511719</ele>
        <time>2023-07-15T12:53:35.000Z</time>
      </trkpt>
      <trkpt lat="42.5172" lon="2.49848">
        <ele>1661.4000244141</ele>
        <time>2023-07-15T12:53:41.000Z</time>
      </trkpt>
      <trkpt lat="42.51717" lon="2.49841">
        <ele>1661.4000244141</ele>
        <time>2023-07-15T12:53:49.000Z</time>
      </trkpt>
      <trkpt lat="42.51716" lon="2.49834">
        <ele>1661.1999511719</ele>
        <time>2023-07-15T12:53:57.000Z</time>
      </trkpt>
      <trkpt lat="42.51714" lon="2.49826">
        <ele>1661.1999511719</ele>
        <time>2023-07-15T12:54:04.000Z</time>
      </trkpt>
      <trkpt lat="42.51712" lon="2.4982">
        <ele>1661.5999755859</ele>
        <time>2023-07-15T12:54:10.000Z</time>
      </trkpt>
      <trkpt lat="42.5171" lon="2.49812">
        <ele>1661.8000488281</ele>
        <time>2023-07-15T12:54:17.000Z</time>
      </trkpt>
      <trkpt lat="42.51703" lon="2.49801">
        <ele>1661.5999755859</ele>
        <time>2023-07-15T12:54:25.000Z</time>
      </trkpt>
      <trkpt lat="42.51703" lon="2.49792">
        <ele>1661.5999755859</ele>
        <time>2023-07-15T12:54:31.000Z</time>
      </trkpt>
      <trkpt lat="42.51706" lon="2.4978">
        <ele>1661.4000244141</ele>
        <time>2023-07-15T12:54:38.000Z</time>
      </trkpt>
      <trkpt lat="42.51702" lon="2.49771">
        <ele>1662</ele>
        <time>2023-07-15T12:54:46.000Z</time>
      </trkpt>
      <trkpt lat="42.517" lon="2.49767">
        <ele>1661.8000488281</ele>
        <time>2023-07-15T12:54:54.000Z</time>
      </trkpt>
      <trkpt lat="42.51697" lon="2.49758">
        <ele>1661.4000244141</ele>
        <time>2023-07-15T12:55:01.000Z</time>
      </trkpt>
      <trkpt lat="42.51696" lon="2.49758">
        <ele>1661.4000244141</ele>
        <time>2023-07-15T12:55:02.000Z</time>
      </trkpt>
      <trkpt lat="42.51693" lon="2.49754">
        <ele>1662.1999511719</ele>
        <time>2023-07-15T12:55:06.000Z</time>
      </trkpt>
      <trkpt lat="42.51687" lon="2.49748">
        <ele>1662.5999755859</ele>
        <time>2023-07-15T12:55:10.000Z</time>
      </trkpt>
      <trkpt lat="42.51675" lon="2.49733">
        <ele>1662.1999511719</ele>
        <time>2023-07-15T12:55:18.000Z</time>
      </trkpt>
      <trkpt lat="42.51674" lon="2.49727">
        <ele>1660.8000488281</ele>
        <time>2023-07-15T12:55:22.000Z</time>
      </trkpt>
      <trkpt lat="42.51675" lon="2.49722">
        <ele>1659.5999755859</ele>
        <time>2023-07-15T12:55:26.000Z</time>
      </trkpt>
      <trkpt lat="42.51672" lon="2.49718">
        <ele>1660.1999511719</ele>
        <time>2023-07-15T12:55:32.000Z</time>
      </trkpt>
      <trkpt lat="42.51664" lon="2.4971">
        <ele>1660.4000244141</ele>
        <time>2023-07-15T12:55:38.000Z</time>
      </trkpt>
      <trkpt lat="42.51665" lon="2.49704">
        <ele>1660.5999755859</ele>
        <time>2023-07-15T12:55:42.000Z</time>
      </trkpt>
      <trkpt lat="42.51665" lon="2.49701">
        <ele>1660.8000488281</ele>
        <time>2023-07-15T12:55:44.000Z</time>
      </trkpt>
      <trkpt lat="42.51668" lon="2.49687">
        <ele>1661.8000488281</ele>
        <time>2023-07-15T12:55:52.000Z</time>
      </trkpt>
      <trkpt lat="42.51669" lon="2.49686">
        <ele>1661.8000488281</ele>
        <time>2023-07-15T12:55:53.000Z</time>
      </trkpt>
      <trkpt lat="42.51666" lon="2.4968">
        <ele>1662.5999755859</ele>
        <time>2023-07-15T12:55:59.000Z</time>
      </trkpt>
      <trkpt lat="42.51665" lon="2.49675">
        <ele>1662.5999755859</ele>
        <time>2023-07-15T12:56:04.000Z</time>
      </trkpt>
      <trkpt lat="42.51667" lon="2.49673">
        <ele>1662.4000244141</ele>
        <time>2023-07-15T12:56:11.000Z</time>
      </trkpt>
      <trkpt lat="42.51657" lon="2.49648">
        <ele>1661.8000488281</ele>
        <time>2023-07-15T12:56:40.000Z</time>
      </trkpt>
      <trkpt lat="42.51656" lon="2.49642">
        <ele>1661.5999755859</ele>
        <time>2023-07-15T12:56:44.000Z</time>
      </trkpt>
      <trkpt lat="42.51654" lon="2.4964">
        <ele>1661.5999755859</ele>
        <time>2023-07-15T12:56:45.000Z</time>
      </trkpt>
      <trkpt lat="42.5165" lon="2.49635">
        <ele>1661.4000244141</ele>
        <time>2023-07-15T12:56:48.000Z</time>
      </trkpt>
      <trkpt lat="42.51648" lon="2.49628">
        <ele>1660.8000488281</ele>
        <time>2023-07-15T12:56:51.000Z</time>
      </trkpt>
      <trkpt lat="42.51647" lon="2.49626">
        <ele>1660.4000244141</ele>
        <time>2023-07-15T12:56:52.000Z</time>
      </trkpt>
      <trkpt lat="42.51643" lon="2.49612">
        <ele>1660</ele>
        <time>2023-07-15T12:57:00.000Z</time>
      </trkpt>
      <trkpt lat="42.51641" lon="2.49606">
        <ele>1660.5999755859</ele>
        <time>2023-07-15T12:57:06.000Z</time>
      </trkpt>
      <trkpt lat="42.51631" lon="2.49597">
        <ele>1661</ele>
        <time>2023-07-15T12:57:12.000Z</time>
      </trkpt>
      <trkpt lat="42.51625" lon="2.49587">
        <ele>1661.1999511719</ele>
        <time>2023-07-15T12:57:18.000Z</time>
      </trkpt>
      <trkpt lat="42.51625" lon="2.49581">
        <ele>1661.4000244141</ele>
        <time>2023-07-15T12:57:23.000Z</time>
      </trkpt>
      <trkpt lat="42.51622" lon="2.49575">
        <ele>1661.8000488281</ele>
        <time>2023-07-15T12:57:28.000Z</time>
      </trkpt>
      <trkpt lat="42.5162" lon="2.49572">
        <ele>1662</ele>
        <time>2023-07-15T12:57:33.000Z</time>
      </trkpt>
      <trkpt lat="42.51618" lon="2.49566">
        <ele>1662.4000244141</ele>
        <time>2023-07-15T12:57:40.000Z</time>
      </trkpt>
      <trkpt lat="42.51614" lon="2.49561">
        <ele>1662.5999755859</ele>
        <time>2023-07-15T12:57:47.000Z</time>
      </trkpt>
      <trkpt lat="42.51609" lon="2.4956">
        <ele>1662.8000488281</ele>
        <time>2023-07-15T12:57:50.000Z</time>
      </trkpt>
      <trkpt lat="42.51608" lon="2.49556">
        <ele>1662.8000488281</ele>
        <time>2023-07-15T12:57:53.000Z</time>
      </trkpt>
      <trkpt lat="42.51603" lon="2.49552">
        <ele>1663</ele>
        <time>2023-07-15T12:58:00.000Z</time>
      </trkpt>
      <trkpt lat="42.51608" lon="2.49544">
        <ele>1663.1999511719</ele>
        <time>2023-07-15T12:58:08.000Z</time>
      </trkpt>
      <trkpt lat="42.51611" lon="2.49528">
        <ele>1663.4000244141</ele>
        <time>2023-07-15T12:58:18.000Z</time>
      </trkpt>
      <trkpt lat="42.51606" lon="2.49516">
        <ele>1663.5999755859</ele>
        <time>2023-07-15T12:58:23.000Z</time>
      </trkpt>
      <trkpt lat="42.51605" lon="2.49506">
        <ele>1663.5999755859</ele>
        <time>2023-07-15T12:58:26.000Z</time>
      </trkpt>
      <trkpt lat="42.51604" lon="2.49503">
        <ele>1663.5999755859</ele>
        <time>2023-07-15T12:58:27.000Z</time>
      </trkpt>
      <trkpt lat="42.51607" lon="2.49489">
        <ele>1663.5999755859</ele>
        <time>2023-07-15T12:58:34.000Z</time>
      </trkpt>
      <trkpt lat="42.51605" lon="2.4948">
        <ele>1663.1999511719</ele>
        <time>2023-07-15T12:58:39.000Z</time>
      </trkpt>
      <trkpt lat="42.51606" lon="2.49471">
        <ele>1663.4000244141</ele>
        <time>2023-07-15T12:58:46.000Z</time>
      </trkpt>
      <trkpt lat="42.51608" lon="2.49462">
        <ele>1663.5999755859</ele>
        <time>2023-07-15T12:58:54.000Z</time>
      </trkpt>
      <trkpt lat="42.5161" lon="2.49452">
        <ele>1663.8000488281</ele>
        <time>2023-07-15T12:59:01.000Z</time>
      </trkpt>
      <trkpt lat="42.51611" lon="2.49449">
        <ele>1663.8000488281</ele>
        <time>2023-07-15T12:59:04.000Z</time>
      </trkpt>
      <trkpt lat="42.51616" lon="2.49442">
        <ele>1663.8000488281</ele>
        <time>2023-07-15T12:59:10.000Z</time>
      </trkpt>
      <trkpt lat="42.51615" lon="2.49438">
        <ele>1663.5999755859</ele>
        <time>2023-07-15T12:59:14.000Z</time>
      </trkpt>
      <trkpt lat="42.51619" lon="2.49429">
        <ele>1663.4000244141</ele>
        <time>2023-07-15T12:59:23.000Z</time>
      </trkpt>
      <trkpt lat="42.51622" lon="2.4942">
        <ele>1663.5999755859</ele>
        <time>2023-07-15T12:59:29.000Z</time>
      </trkpt>
      <trkpt lat="42.51627" lon="2.49413">
        <ele>1663.8000488281</ele>
        <time>2023-07-15T12:59:36.000Z</time>
      </trkpt>
      <trkpt lat="42.51632" lon="2.49407">
        <ele>1663.8000488281</ele>
        <time>2023-07-15T12:59:43.000Z</time>
      </trkpt>
      <trkpt lat="42.51638" lon="2.49396">
        <ele>1663.8000488281</ele>
        <time>2023-07-15T12:59:50.000Z</time>
      </trkpt>
      <trkpt lat="42.5164" lon="2.49387">
        <ele>1664</ele>
        <time>2023-07-15T12:59:57.000Z</time>
      </trkpt>
      <trkpt lat="42.51638" lon="2.49382">
        <ele>1663.1999511719</ele>
        <time>2023-07-15T13:00:05.000Z</time>
      </trkpt>
      <trkpt lat="42.51633" lon="2.49379">
        <ele>1663.1999511719</ele>
        <time>2023-07-15T13:00:12.000Z</time>
      </trkpt>
      <trkpt lat="42.51624" lon="2.49368">
        <ele>1664.1999511719</ele>
        <time>2023-07-15T13:00:20.000Z</time>
      </trkpt>
      <trkpt lat="42.51624" lon="2.49363">
        <ele>1664.4000244141</ele>
        <time>2023-07-15T13:00:25.000Z</time>
      </trkpt>
      <trkpt lat="42.51624" lon="2.49363">
        <ele>1664.4000244141</ele>
        <time>2023-07-15T13:00:26.000Z</time>
      </trkpt>
      <trkpt lat="42.51626" lon="2.49361">
        <ele>1663.5999755859</ele>
        <time>2023-07-15T13:00:31.000Z</time>
      </trkpt>
      <trkpt lat="42.51632" lon="2.49359">
        <ele>1663.1999511719</ele>
        <time>2023-07-15T13:00:37.000Z</time>
      </trkpt>
      <trkpt lat="42.51642" lon="2.49358">
        <ele>1663.5999755859</ele>
        <time>2023-07-15T13:00:46.000Z</time>
      </trkpt>
      <trkpt lat="42.51647" lon="2.49352">
        <ele>1664</ele>
        <time>2023-07-15T13:00:52.000Z</time>
      </trkpt>
      <trkpt lat="42.51647" lon="2.49349">
        <ele>1664</ele>
        <time>2023-07-15T13:00:54.000Z</time>
      </trkpt>
      <trkpt lat="42.51649" lon="2.49347">
        <ele>1664</ele>
        <time>2023-07-15T13:00:57.000Z</time>
      </trkpt>
      <trkpt lat="42.51649" lon="2.49347">
        <ele>1664.1999511719</ele>
        <time>2023-07-15T13:00:59.000Z</time>
      </trkpt>
      <trkpt lat="42.51652" lon="2.4935">
        <ele>1664.1999511719</ele>
        <time>2023-07-15T13:01:05.000Z</time>
      </trkpt>
      <trkpt lat="42.51656" lon="2.49356">
        <ele>1664</ele>
        <time>2023-07-15T13:01:13.000Z</time>
      </trkpt>
      <trkpt lat="42.5166" lon="2.49356">
        <ele>1663.8000488281</ele>
        <time>2023-07-15T13:01:18.000Z</time>
      </trkpt>
      <trkpt lat="42.51667" lon="2.49353">
        <ele>1664.5999755859</ele>
        <time>2023-07-15T13:01:29.000Z</time>
      </trkpt>
      <trkpt lat="42.5168" lon="2.4934">
        <ele>1664.1999511719</ele>
        <time>2023-07-15T13:01:38.000Z</time>
      </trkpt>
      <trkpt lat="42.51691" lon="2.49326">
        <ele>1664.1999511719</ele>
        <time>2023-07-15T13:01:46.000Z</time>
      </trkpt>
      <trkpt lat="42.51676" lon="2.4931">
        <ele>1663.8000488281</ele>
        <time>2023-07-15T13:01:59.000Z</time>
      </trkpt>
      <trkpt lat="42.51681" lon="2.49305">
        <ele>1663.8000488281</ele>
        <time>2023-07-15T13:02:05.000Z</time>
      </trkpt>
      <trkpt lat="42.5168" lon="2.493">
        <ele>1663.8000488281</ele>
        <time>2023-07-15T13:02:10.000Z</time>
      </trkpt>
      <trkpt lat="42.51686" lon="2.49286">
        <ele>1663.5999755859</ele>
        <time>2023-07-15T13:02:22.000Z</time>
      </trkpt>
      <trkpt lat="42.51692" lon="2.49275">
        <ele>1663.4000244141</ele>
        <time>2023-07-15T13:02:30.000Z</time>
      </trkpt>
      <trkpt lat="42.51697" lon="2.49268">
        <ele>1663.5999755859</ele>
        <time>2023-07-15T13:02:38.000Z</time>
      </trkpt>
      <trkpt lat="42.51703" lon="2.49257">
        <ele>1663.8000488281</ele>
        <time>2023-07-15T13:02:46.000Z</time>
      </trkpt>
      <trkpt lat="42.51708" lon="2.49244">
        <ele>1664.1999511719</ele>
        <time>2023-07-15T13:02:54.000Z</time>
      </trkpt>
      <trkpt lat="42.51712" lon="2.49236">
        <ele>1664.4000244141</ele>
        <time>2023-07-15T13:03:00.000Z</time>
      </trkpt>
      <trkpt lat="42.51715" lon="2.49229">
        <ele>1664.4000244141</ele>
        <time>2023-07-15T13:03:08.000Z</time>
      </trkpt>
      <trkpt lat="42.51724" lon="2.49228">
        <ele>1664.1999511719</ele>
        <time>2023-07-15T13:03:16.000Z</time>
      </trkpt>
      <trkpt lat="42.51732" lon="2.49226">
        <ele>1664.4000244141</ele>
        <time>2023-07-15T13:03:23.000Z</time>
      </trkpt>
      <trkpt lat="42.51743" lon="2.49231">
        <ele>1664.8000488281</ele>
        <time>2023-07-15T13:03:29.000Z</time>
      </trkpt>
      <trkpt lat="42.51745" lon="2.49231">
        <ele>1665</ele>
        <time>2023-07-15T13:03:31.000Z</time>
      </trkpt>
      <trkpt lat="42.51756" lon="2.49235">
        <ele>1665</ele>
        <time>2023-07-15T13:03:40.000Z</time>
      </trkpt>
      <trkpt lat="42.51768" lon="2.49237">
        <ele>1664.4000244141</ele>
        <time>2023-07-15T13:03:48.000Z</time>
      </trkpt>
      <trkpt lat="42.51783" lon="2.4924">
        <ele>1664.5999755859</ele>
        <time>2023-07-15T13:03:58.000Z</time>
      </trkpt>
      <trkpt lat="42.51804" lon="2.49248">
        <ele>1666.5999755859</ele>
        <time>2023-07-15T13:04:17.000Z</time>
      </trkpt>
      <trkpt lat="42.51816" lon="2.49254">
        <ele>1666.5999755859</ele>
        <time>2023-07-15T13:04:26.000Z</time>
      </trkpt>
      <trkpt lat="42.5182" lon="2.49255">
        <ele>1666.5999755859</ele>
        <time>2023-07-15T13:04:28.000Z</time>
      </trkpt>
      <trkpt lat="42.51828" lon="2.49249">
        <ele>1666.5999755859</ele>
        <time>2023-07-15T13:04:35.000Z</time>
      </trkpt>
      <trkpt lat="42.51831" lon="2.49245">
        <ele>1666.8000488281</ele>
        <time>2023-07-15T13:04:37.000Z</time>
      </trkpt>
      <trkpt lat="42.51833" lon="2.49236">
        <ele>1667</ele>
        <time>2023-07-15T13:04:42.000Z</time>
      </trkpt>
      <trkpt lat="42.51831" lon="2.4922">
        <ele>1666.8000488281</ele>
        <time>2023-07-15T13:04:51.000Z</time>
      </trkpt>
      <trkpt lat="42.51832" lon="2.49209">
        <ele>1667</ele>
        <time>2023-07-15T13:04:59.000Z</time>
      </trkpt>
      <trkpt lat="42.51834" lon="2.49199">
        <ele>1667.1999511719</ele>
        <time>2023-07-15T13:05:08.000Z</time>
      </trkpt>
      <trkpt lat="42.51833" lon="2.4919">
        <ele>1667.5999755859</ele>
        <time>2023-07-15T13:05:16.000Z</time>
      </trkpt>
      <trkpt lat="42.51839" lon="2.49182">
        <ele>1667.5999755859</ele>
        <time>2023-07-15T13:05:22.000Z</time>
      </trkpt>
      <trkpt lat="42.51855" lon="2.4908">
        <ele>1668.1999511719</ele>
        <time>2023-07-15T13:06:27.000Z</time>
      </trkpt>
      <trkpt lat="42.51857" lon="2.49059">
        <ele>1667.5999755859</ele>
        <time>2023-07-15T13:06:42.000Z</time>
      </trkpt>
      <trkpt lat="42.51852" lon="2.49028">
        <ele>1667.5999755859</ele>
        <time>2023-07-15T13:06:56.000Z</time>
      </trkpt>
      <trkpt lat="42.51853" lon="2.49005">
        <ele>1667</ele>
        <time>2023-07-15T13:07:10.000Z</time>
      </trkpt>
      <trkpt lat="42.51849" lon="2.48998">
        <ele>1666.8000488281</ele>
        <time>2023-07-15T13:07:14.000Z</time>
      </trkpt>
      <trkpt lat="42.51851" lon="2.48986">
        <ele>1666.1999511719</ele>
        <time>2023-07-15T13:07:25.000Z</time>
      </trkpt>
      <trkpt lat="42.51853" lon="2.48977">
        <ele>1666</ele>
        <time>2023-07-15T13:07:30.000Z</time>
      </trkpt>
      <trkpt lat="42.51852" lon="2.48974">
        <ele>1665.8000488281</ele>
        <time>2023-07-15T13:07:32.000Z</time>
      </trkpt>
      <trkpt lat="42.51847" lon="2.48966">
        <ele>1665.1999511719</ele>
        <time>2023-07-15T13:07:41.000Z</time>
      </trkpt>
      <trkpt lat="42.51849" lon="2.48956">
        <ele>1665.1999511719</ele>
        <time>2023-07-15T13:07:48.000Z</time>
      </trkpt>
      <trkpt lat="42.5185" lon="2.48943">
        <ele>1665.4000244141</ele>
        <time>2023-07-15T13:07:56.000Z</time>
      </trkpt>
      <trkpt lat="42.51849" lon="2.48934">
        <ele>1664.8000488281</ele>
        <time>2023-07-15T13:08:05.000Z</time>
      </trkpt>
      <trkpt lat="42.51851" lon="2.48931">
        <ele>1664.5999755859</ele>
        <time>2023-07-15T13:08:08.000Z</time>
      </trkpt>
      <trkpt lat="42.51854" lon="2.48927">
        <ele>1664.4000244141</ele>
        <time>2023-07-15T13:08:10.000Z</time>
      </trkpt>
      <trkpt lat="42.51866" lon="2.48916">
        <ele>1664.1999511719</ele>
        <time>2023-07-15T13:08:20.000Z</time>
      </trkpt>
      <trkpt lat="42.51846" lon="2.48877">
        <ele>1664</ele>
        <time>2023-07-15T13:08:46.000Z</time>
      </trkpt>
      <trkpt lat="42.51844" lon="2.48871">
        <ele>1664</ele>
        <time>2023-07-15T13:08:48.000Z</time>
      </trkpt>
      <trkpt lat="42.51842" lon="2.48864">
        <ele>1664.1999511719</ele>
        <time>2023-07-15T13:08:51.000Z</time>
      </trkpt>
      <trkpt lat="42.51839" lon="2.48858">
        <ele>1664.4000244141</ele>
        <time>2023-07-15T13:08:54.000Z</time>
      </trkpt>
      <trkpt lat="42.51835" lon="2.48855">
        <ele>1664.4000244141</ele>
        <time>2023-07-15T13:08:56.000Z</time>
      </trkpt>
      <trkpt lat="42.51831" lon="2.48844">
        <ele>1664.4000244141</ele>
        <time>2023-07-15T13:09:01.000Z</time>
      </trkpt>
      <trkpt lat="42.5183" lon="2.48842">
        <ele>1664.4000244141</ele>
        <time>2023-07-15T13:09:02.000Z</time>
      </trkpt>
      <trkpt lat="42.51827" lon="2.48835">
        <ele>1664.5999755859</ele>
        <time>2023-07-15T13:09:07.000Z</time>
      </trkpt>
      <trkpt lat="42.51825" lon="2.48834">
        <ele>1664.8000488281</ele>
        <time>2023-07-15T13:09:09.000Z</time>
      </trkpt>
      <trkpt lat="42.51823" lon="2.48831">
        <ele>1665.1999511719</ele>
        <time>2023-07-15T13:09:17.000Z</time>
      </trkpt>
      <trkpt lat="42.51823" lon="2.48822">
        <ele>1665.4000244141</ele>
        <time>2023-07-15T13:09:23.000Z</time>
      </trkpt>
      <trkpt lat="42.51829" lon="2.48815">
        <ele>1665.8000488281</ele>
        <time>2023-07-15T13:09:31.000Z</time>
      </trkpt>
      <trkpt lat="42.51826" lon="2.48809">
        <ele>1665.8000488281</ele>
        <time>2023-07-15T13:09:38.000Z</time>
      </trkpt>
      <trkpt lat="42.51827" lon="2.48801">
        <ele>1666.1999511719</ele>
        <time>2023-07-15T13:09:46.000Z</time>
      </trkpt>
      <trkpt lat="42.5183" lon="2.48792">
        <ele>1666.5999755859</ele>
        <time>2023-07-15T13:09:53.000Z</time>
      </trkpt>
      <trkpt lat="42.51837" lon="2.48785">
        <ele>1666.8000488281</ele>
        <time>2023-07-15T13:09:59.000Z</time>
      </trkpt>
      <trkpt lat="42.51843" lon="2.48778">
        <ele>1667</ele>
        <time>2023-07-15T13:10:07.000Z</time>
      </trkpt>
      <trkpt lat="42.51852" lon="2.48768">
        <ele>1667</ele>
        <time>2023-07-15T13:10:15.000Z</time>
      </trkpt>
      <trkpt lat="42.51863" lon="2.48762">
        <ele>1667.4000244141</ele>
        <time>2023-07-15T13:10:22.000Z</time>
      </trkpt>
      <trkpt lat="42.5187" lon="2.48761">
        <ele>1667.5999755859</ele>
        <time>2023-07-15T13:10:28.000Z</time>
      </trkpt>
      <trkpt lat="42.51873" lon="2.48757">
        <ele>1667.8000488281</ele>
        <time>2023-07-15T13:10:32.000Z</time>
      </trkpt>
      <trkpt lat="42.51874" lon="2.48754">
        <ele>1667.8000488281</ele>
        <time>2023-07-15T13:10:34.000Z</time>
      </trkpt>
      <trkpt lat="42.51879" lon="2.48744">
        <ele>1667.4000244141</ele>
        <time>2023-07-15T13:10:41.000Z</time>
      </trkpt>
      <trkpt lat="42.51876" lon="2.48734">
        <ele>1666.8000488281</ele>
        <time>2023-07-15T13:10:50.000Z</time>
      </trkpt>
      <trkpt lat="42.51873" lon="2.48732">
        <ele>1667</ele>
        <time>2023-07-15T13:10:55.000Z</time>
      </trkpt>
      <trkpt lat="42.51871" lon="2.48728">
        <ele>1667.1999511719</ele>
        <time>2023-07-15T13:11:00.000Z</time>
      </trkpt>
      <trkpt lat="42.51879" lon="2.48719">
        <ele>1666.8000488281</ele>
        <time>2023-07-15T13:11:09.000Z</time>
      </trkpt>
      <trkpt lat="42.51881" lon="2.48719">
        <ele>1666.5999755859</ele>
        <time>2023-07-15T13:11:10.000Z</time>
      </trkpt>
      <trkpt lat="42.51895" lon="2.48712">
        <ele>1667.1999511719</ele>
        <time>2023-07-15T13:11:22.000Z</time>
      </trkpt>
      <trkpt lat="42.51892" lon="2.48701">
        <ele>1665.5999755859</ele>
        <time>2023-07-15T13:11:33.000Z</time>
      </trkpt>
      <trkpt lat="42.51891" lon="2.48699">
        <ele>1665.4000244141</ele>
        <time>2023-07-15T13:11:35.000Z</time>
      </trkpt>
      <trkpt lat="42.51891" lon="2.48699">
        <ele>1665.5999755859</ele>
        <time>2023-07-15T13:11:36.000Z</time>
      </trkpt>
      <trkpt lat="42.51888" lon="2.48694">
        <ele>1665</ele>
        <time>2023-07-15T13:11:43.000Z</time>
      </trkpt>
      <trkpt lat="42.51889" lon="2.48692">
        <ele>1664.4000244141</ele>
        <time>2023-07-15T13:11:45.000Z</time>
      </trkpt>
      <trkpt lat="42.51891" lon="2.48691">
        <ele>1664</ele>
        <time>2023-07-15T13:11:52.000Z</time>
      </trkpt>
      <trkpt lat="42.51886" lon="2.48688">
        <ele>1664.5999755859</ele>
        <time>2023-07-15T13:12:00.000Z</time>
      </trkpt>
      <trkpt lat="42.51884" lon="2.48685">
        <ele>1664.8000488281</ele>
        <time>2023-07-15T13:12:05.000Z</time>
      </trkpt>
      <trkpt lat="42.51885" lon="2.48683">
        <ele>1665</ele>
        <time>2023-07-15T13:12:12.000Z</time>
      </trkpt>
      <trkpt lat="42.51888" lon="2.48686">
        <ele>1665.4000244141</ele>
        <time>2023-07-15T13:12:17.000Z</time>
      </trkpt>
      <trkpt lat="42.51888" lon="2.48686">
        <ele>1665.5999755859</ele>
        <time>2023-07-15T13:12:19.000Z</time>
      </trkpt>
      <trkpt lat="42.51887" lon="2.48686">
        <ele>1665.5999755859</ele>
        <time>2023-07-15T13:12:23.000Z</time>
      </trkpt>
      <trkpt lat="42.51886" lon="2.48687">
        <ele>1666</ele>
        <time>2023-07-15T13:12:32.000Z</time>
      </trkpt>
      <trkpt lat="42.51889" lon="2.48691">
        <ele>1666</ele>
        <time>2023-07-15T13:12:41.000Z</time>
      </trkpt>
      <trkpt lat="42.51893" lon="2.48693">
        <ele>1666</ele>
        <time>2023-07-15T13:12:45.000Z</time>
      </trkpt>
      <trkpt lat="42.51895" lon="2.48695">
        <ele>1666.8000488281</ele>
        <time>2023-07-15T13:12:50.000Z</time>
      </trkpt>
      <trkpt lat="42.51897" lon="2.48696">
        <ele>1666.8000488281</ele>
        <time>2023-07-15T13:12:51.000Z</time>
      </trkpt>
      <trkpt lat="42.519" lon="2.48697">
        <ele>1667</ele>
        <time>2023-07-15T13:12:56.000Z</time>
      </trkpt>
      <trkpt lat="42.51902" lon="2.48697">
        <ele>1668</ele>
        <time>2023-07-15T13:13:03.000Z</time>
      </trkpt>
      <trkpt lat="42.51903" lon="2.48697">
        <ele>1668.1999511719</ele>
        <time>2023-07-15T13:13:04.000Z</time>
      </trkpt>
      <trkpt lat="42.51912" lon="2.487">
        <ele>1669</ele>
        <time>2023-07-15T13:13:15.000Z</time>
      </trkpt>
      <trkpt lat="42.51921" lon="2.48706">
        <ele>1670</ele>
        <time>2023-07-15T13:13:23.000Z</time>
      </trkpt>
      <trkpt lat="42.51929" lon="2.48708">
        <ele>1670.8000488281</ele>
        <time>2023-07-15T13:13:30.000Z</time>
      </trkpt>
      <trkpt lat="42.51929" lon="2.48707">
        <ele>1671</ele>
        <time>2023-07-15T13:13:31.000Z</time>
      </trkpt>
      <trkpt lat="42.51931" lon="2.48703">
        <ele>1671.1999511719</ele>
        <time>2023-07-15T13:13:33.000Z</time>
      </trkpt>
      <trkpt lat="42.51934" lon="2.48699">
        <ele>1671.5999755859</ele>
        <time>2023-07-15T13:13:36.000Z</time>
      </trkpt>
      <trkpt lat="42.51941" lon="2.48687">
        <ele>1672.4000244141</ele>
        <time>2023-07-15T13:13:45.000Z</time>
      </trkpt>
      <trkpt lat="42.51944" lon="2.48682">
        <ele>1673.4000244141</ele>
        <time>2023-07-15T13:13:54.000Z</time>
      </trkpt>
      <trkpt lat="42.51945" lon="2.48681">
        <ele>1673.4000244141</ele>
        <time>2023-07-15T13:13:55.000Z</time>
      </trkpt>
      <trkpt lat="42.51946" lon="2.48677">
        <ele>1673.4000244141</ele>
        <time>2023-07-15T13:14:02.000Z</time>
      </trkpt>
      <trkpt lat="42.51945" lon="2.48676">
        <ele>1674.5999755859</ele>
        <time>2023-07-15T13:14:18.000Z</time>
      </trkpt>
      <trkpt lat="42.51945" lon="2.48676">
        <ele>1674.8000488281</ele>
        <time>2023-07-15T13:14:19.000Z</time>
      </trkpt>
      <trkpt lat="42.51946" lon="2.48678">
        <ele>1675.4000244141</ele>
        <time>2023-07-15T13:14:25.000Z</time>
      </trkpt>
      <trkpt lat="42.51952" lon="2.48685">
        <ele>1676.4000244141</ele>
        <time>2023-07-15T13:14:35.000Z</time>
      </trkpt>
      <trkpt lat="42.51953" lon="2.48686">
        <ele>1676.8000488281</ele>
        <time>2023-07-15T13:14:36.000Z</time>
      </trkpt>
      <trkpt lat="42.51956" lon="2.4869">
        <ele>1677.8000488281</ele>
        <time>2023-07-15T13:14:40.000Z</time>
      </trkpt>
      <trkpt lat="42.51957" lon="2.48694">
        <ele>1678</ele>
        <time>2023-07-15T13:14:43.000Z</time>
      </trkpt>
      <trkpt lat="42.51965" lon="2.48704">
        <ele>1678</ele>
        <time>2023-07-15T13:14:51.000Z</time>
      </trkpt>
      <trkpt lat="42.5197" lon="2.4871">
        <ele>1678.4000244141</ele>
        <time>2023-07-15T13:14:57.000Z</time>
      </trkpt>
      <trkpt lat="42.51976" lon="2.48719">
        <ele>1678.4000244141</ele>
        <time>2023-07-15T13:15:06.000Z</time>
      </trkpt>
      <trkpt lat="42.51977" lon="2.48724">
        <ele>1679</ele>
        <time>2023-07-15T13:15:11.000Z</time>
      </trkpt>
      <trkpt lat="42.51977" lon="2.48725">
        <ele>1679.1999511719</ele>
        <time>2023-07-15T13:15:13.000Z</time>
      </trkpt>
      <trkpt lat="42.51978" lon="2.48732">
        <ele>1679.4000244141</ele>
        <time>2023-07-15T13:15:19.000Z</time>
      </trkpt>
      <trkpt lat="42.51985" lon="2.48741">
        <ele>1679.1999511719</ele>
        <time>2023-07-15T13:15:28.000Z</time>
      </trkpt>
      <trkpt lat="42.51994" lon="2.48752">
        <ele>1679</ele>
        <time>2023-07-15T13:15:39.000Z</time>
      </trkpt>
      <trkpt lat="42.52002" lon="2.48761">
        <ele>1679.4000244141</ele>
        <time>2023-07-15T13:15:46.000Z</time>
      </trkpt>
      <trkpt lat="42.52014" lon="2.48781">
        <ele>1679.1999511719</ele>
        <time>2023-07-15T13:15:58.000Z</time>
      </trkpt>
      <trkpt lat="42.52015" lon="2.48783">
        <ele>1679.1999511719</ele>
        <time>2023-07-15T13:15:59.000Z</time>
      </trkpt>
      <trkpt lat="42.52027" lon="2.48799">
        <ele>1679</ele>
        <time>2023-07-15T13:16:13.000Z</time>
      </trkpt>
      <trkpt lat="42.52033" lon="2.48806">
        <ele>1678.5999755859</ele>
        <time>2023-07-15T13:16:21.000Z</time>
      </trkpt>
      <trkpt lat="42.52042" lon="2.48812">
        <ele>1678.4000244141</ele>
        <time>2023-07-15T13:16:28.000Z</time>
      </trkpt>
      <trkpt lat="42.52054" lon="2.48819">
        <ele>1678.4000244141</ele>
        <time>2023-07-15T13:16:35.000Z</time>
      </trkpt>
      <trkpt lat="42.52063" lon="2.48826">
        <ele>1678.5999755859</ele>
        <time>2023-07-15T13:16:41.000Z</time>
      </trkpt>
      <trkpt lat="42.5207" lon="2.48821">
        <ele>1678.4000244141</ele>
        <time>2023-07-15T13:16:47.000Z</time>
      </trkpt>
      <trkpt lat="42.52089" lon="2.48806">
        <ele>1678.4000244141</ele>
        <time>2023-07-15T13:17:19.000Z</time>
      </trkpt>
      <trkpt lat="42.52098" lon="2.48806">
        <ele>1678.5999755859</ele>
        <time>2023-07-15T13:17:25.000Z</time>
      </trkpt>
      <trkpt lat="42.5212" lon="2.48812">
        <ele>1678.8000488281</ele>
        <time>2023-07-15T13:17:50.000Z</time>
      </trkpt>
      <trkpt lat="42.52123" lon="2.48817">
        <ele>1679</ele>
        <time>2023-07-15T13:17:53.000Z</time>
      </trkpt>
      <trkpt lat="42.52127" lon="2.48834">
        <ele>1679.8000488281</ele>
        <time>2023-07-15T13:18:02.000Z</time>
      </trkpt>
      <trkpt lat="42.52127" lon="2.48837">
        <ele>1680</ele>
        <time>2023-07-15T13:18:04.000Z</time>
      </trkpt>
      <trkpt lat="42.52126" lon="2.48849">
        <ele>1680</ele>
        <time>2023-07-15T13:18:11.000Z</time>
      </trkpt>
      <trkpt lat="42.52124" lon="2.48854">
        <ele>1679.5999755859</ele>
        <time>2023-07-15T13:18:17.000Z</time>
      </trkpt>
      <trkpt lat="42.52121" lon="2.48865">
        <ele>1679.8000488281</ele>
        <time>2023-07-15T13:18:25.000Z</time>
      </trkpt>
      <trkpt lat="42.52126" lon="2.48873">
        <ele>1679.5999755859</ele>
        <time>2023-07-15T13:18:32.000Z</time>
      </trkpt>
      <trkpt lat="42.52135" lon="2.48878">
        <ele>1679.5999755859</ele>
        <time>2023-07-15T13:18:40.000Z</time>
      </trkpt>
      <trkpt lat="42.52147" lon="2.48881">
        <ele>1679.5999755859</ele>
        <time>2023-07-15T13:18:53.000Z</time>
      </trkpt>
      <trkpt lat="42.52152" lon="2.48888">
        <ele>1679.8000488281</ele>
        <time>2023-07-15T13:19:02.000Z</time>
      </trkpt>
      <trkpt lat="42.52162" lon="2.48902">
        <ele>1679.4000244141</ele>
        <time>2023-07-15T13:19:11.000Z</time>
      </trkpt>
      <trkpt lat="42.52171" lon="2.4891">
        <ele>1679.4000244141</ele>
        <time>2023-07-15T13:19:20.000Z</time>
      </trkpt>
      <trkpt lat="42.52176" lon="2.48914">
        <ele>1678.8000488281</ele>
        <time>2023-07-15T13:19:25.000Z</time>
      </trkpt>
      <trkpt lat="42.52181" lon="2.48919">
        <ele>1679</ele>
        <time>2023-07-15T13:19:30.000Z</time>
      </trkpt>
      <trkpt lat="42.52185" lon="2.48931">
        <ele>1679.4000244141</ele>
        <time>2023-07-15T13:19:37.000Z</time>
      </trkpt>
      <trkpt lat="42.5219" lon="2.48941">
        <ele>1679.8000488281</ele>
        <time>2023-07-15T13:19:44.000Z</time>
      </trkpt>
      <trkpt lat="42.52192" lon="2.48944">
        <ele>1679.8000488281</ele>
        <time>2023-07-15T13:19:46.000Z</time>
      </trkpt>
      <trkpt lat="42.52197" lon="2.48951">
        <ele>1680</ele>
        <time>2023-07-15T13:19:52.000Z</time>
      </trkpt>
      <trkpt lat="42.52202" lon="2.48957">
        <ele>1679.5999755859</ele>
        <time>2023-07-15T13:19:59.000Z</time>
      </trkpt>
      <trkpt lat="42.52214" lon="2.48969">
        <ele>1680</ele>
        <time>2023-07-15T13:20:07.000Z</time>
      </trkpt>
      <trkpt lat="42.52226" lon="2.48985">
        <ele>1680.1999511719</ele>
        <time>2023-07-15T13:20:16.000Z</time>
      </trkpt>
      <trkpt lat="42.52229" lon="2.48993">
        <ele>1680.5999755859</ele>
        <time>2023-07-15T13:20:23.000Z</time>
      </trkpt>
      <trkpt lat="42.52229" lon="2.48998">
        <ele>1681</ele>
        <time>2023-07-15T13:20:27.000Z</time>
      </trkpt>
      <trkpt lat="42.52227" lon="2.49006">
        <ele>1681.1999511719</ele>
        <time>2023-07-15T13:20:31.000Z</time>
      </trkpt>
      <trkpt lat="42.52224" lon="2.49017">
        <ele>1681.1999511719</ele>
        <time>2023-07-15T13:20:42.000Z</time>
      </trkpt>
      <trkpt lat="42.52228" lon="2.49025">
        <ele>1680.5999755859</ele>
        <time>2023-07-15T13:20:49.000Z</time>
      </trkpt>
      <trkpt lat="42.52225" lon="2.4903">
        <ele>1680.5999755859</ele>
        <time>2023-07-15T13:20:57.000Z</time>
      </trkpt>
      <trkpt lat="42.52228" lon="2.49039">
        <ele>1681</ele>
        <time>2023-07-15T13:21:05.000Z</time>
      </trkpt>
      <trkpt lat="42.52235" lon="2.49047">
        <ele>1681.4000244141</ele>
        <time>2023-07-15T13:21:12.000Z</time>
      </trkpt>
      <trkpt lat="42.52238" lon="2.49051">
        <ele>1681.5999755859</ele>
        <time>2023-07-15T13:21:19.000Z</time>
      </trkpt>
      <trkpt lat="42.52239" lon="2.49053">
        <ele>1682</ele>
        <time>2023-07-15T13:21:21.000Z</time>
      </trkpt>
      <trkpt lat="42.52242" lon="2.49057">
        <ele>1682.1999511719</ele>
        <time>2023-07-15T13:21:25.000Z</time>
      </trkpt>
      <trkpt lat="42.52248" lon="2.49063">
        <ele>1682.5999755859</ele>
        <time>2023-07-15T13:21:32.000Z</time>
      </trkpt>
      <trkpt lat="42.52252" lon="2.49067">
        <ele>1683</ele>
        <time>2023-07-15T13:21:38.000Z</time>
      </trkpt>
      <trkpt lat="42.52252" lon="2.49069">
        <ele>1683</ele>
        <time>2023-07-15T13:21:39.000Z</time>
      </trkpt>
      <trkpt lat="42.5226" lon="2.49081">
        <ele>1683.1999511719</ele>
        <time>2023-07-15T13:21:48.000Z</time>
      </trkpt>
      <trkpt lat="42.52264" lon="2.49089">
        <ele>1683.8000488281</ele>
        <time>2023-07-15T13:21:56.000Z</time>
      </trkpt>
      <trkpt lat="42.52263" lon="2.49097">
        <ele>1684</ele>
        <time>2023-07-15T13:22:02.000Z</time>
      </trkpt>
      <trkpt lat="42.52269" lon="2.4911">
        <ele>1684.1999511719</ele>
        <time>2023-07-15T13:22:09.000Z</time>
      </trkpt>
      <trkpt lat="42.52271" lon="2.4912">
        <ele>1684.4000244141</ele>
        <time>2023-07-15T13:22:15.000Z</time>
      </trkpt>
      <trkpt lat="42.5227" lon="2.49131">
        <ele>1684.1999511719</ele>
        <time>2023-07-15T13:22:22.000Z</time>
      </trkpt>
      <trkpt lat="42.52266" lon="2.49149">
        <ele>1684.4000244141</ele>
        <time>2023-07-15T13:22:34.000Z</time>
      </trkpt>
      <trkpt lat="42.52267" lon="2.49156">
        <ele>1685</ele>
        <time>2023-07-15T13:22:42.000Z</time>
      </trkpt>
      <trkpt lat="42.52274" lon="2.49157">
        <ele>1686</ele>
        <time>2023-07-15T13:23:03.000Z</time>
      </trkpt>
      <trkpt lat="42.52288" lon="2.49158">
        <ele>1686.5999755859</ele>
        <time>2023-07-15T13:23:19.000Z</time>
      </trkpt>
      <trkpt lat="42.52342" lon="2.49169">
        <ele>1692.1999511719</ele>
        <time>2023-07-15T13:24:10.000Z</time>
      </trkpt>
      <trkpt lat="42.52343" lon="2.4917">
        <ele>1692.4000244141</ele>
        <time>2023-07-15T13:24:11.000Z</time>
      </trkpt>
      <trkpt lat="42.52354" lon="2.49173">
        <ele>1693.4000244141</ele>
        <time>2023-07-15T13:24:26.000Z</time>
      </trkpt>
      <trkpt lat="42.52355" lon="2.49173">
        <ele>1693.4000244141</ele>
        <time>2023-07-15T13:24:27.000Z</time>
      </trkpt>
      <trkpt lat="42.52369" lon="2.49175">
        <ele>1694.5999755859</ele>
        <time>2023-07-15T13:24:40.000Z</time>
      </trkpt>
      <trkpt lat="42.52386" lon="2.4918">
        <ele>1695.8000488281</ele>
        <time>2023-07-15T13:24:55.000Z</time>
      </trkpt>
      <trkpt lat="42.52392" lon="2.49184">
        <ele>1696</ele>
        <time>2023-07-15T13:24:58.000Z</time>
      </trkpt>
      <trkpt lat="42.52394" lon="2.49187">
        <ele>1696.4000244141</ele>
        <time>2023-07-15T13:25:01.000Z</time>
      </trkpt>
      <trkpt lat="42.52397" lon="2.49193">
        <ele>1696.8000488281</ele>
        <time>2023-07-15T13:25:06.000Z</time>
      </trkpt>
      <trkpt lat="42.52402" lon="2.49198">
        <ele>1697.1999511719</ele>
        <time>2023-07-15T13:25:13.000Z</time>
      </trkpt>
      <trkpt lat="42.52408" lon="2.49201">
        <ele>1697.4000244141</ele>
        <time>2023-07-15T13:25:18.000Z</time>
      </trkpt>
      <trkpt lat="42.52409" lon="2.49202">
        <ele>1697.5999755859</ele>
        <time>2023-07-15T13:25:19.000Z</time>
      </trkpt>
      <trkpt lat="42.52414" lon="2.49207">
        <ele>1698</ele>
        <time>2023-07-15T13:25:25.000Z</time>
      </trkpt>
      <trkpt lat="42.52419" lon="2.49215">
        <ele>1698.1999511719</ele>
        <time>2023-07-15T13:25:31.000Z</time>
      </trkpt>
      <trkpt lat="42.52427" lon="2.49224">
        <ele>1698.1999511719</ele>
        <time>2023-07-15T13:25:40.000Z</time>
      </trkpt>
      <trkpt lat="42.52433" lon="2.49228">
        <ele>1698.5999755859</ele>
        <time>2023-07-15T13:25:46.000Z</time>
      </trkpt>
      <trkpt lat="42.52442" lon="2.49232">
        <ele>1699.4000244141</ele>
        <time>2023-07-15T13:25:54.000Z</time>
      </trkpt>
      <trkpt lat="42.52446" lon="2.49233">
        <ele>1699.5999755859</ele>
        <time>2023-07-15T13:25:59.000Z</time>
      </trkpt>
      <trkpt lat="42.52448" lon="2.49234">
        <ele>1700</ele>
        <time>2023-07-15T13:26:02.000Z</time>
      </trkpt>
      <trkpt lat="42.52459" lon="2.49237">
        <ele>1700.8000488281</ele>
        <time>2023-07-15T13:26:16.000Z</time>
      </trkpt>
      <trkpt lat="42.52472" lon="2.49235">
        <ele>1701</ele>
        <time>2023-07-15T13:26:27.000Z</time>
      </trkpt>
      <trkpt lat="42.52479" lon="2.49233">
        <ele>1701.5999755859</ele>
        <time>2023-07-15T13:26:35.000Z</time>
      </trkpt>
      <trkpt lat="42.52487" lon="2.49229">
        <ele>1701.8000488281</ele>
        <time>2023-07-15T13:26:43.000Z</time>
      </trkpt>
      <trkpt lat="42.52489" lon="2.49228">
        <ele>1701.8000488281</ele>
        <time>2023-07-15T13:26:44.000Z</time>
      </trkpt>
      <trkpt lat="42.52497" lon="2.49219">
        <ele>1702.4000244141</ele>
        <time>2023-07-15T13:26:52.000Z</time>
      </trkpt>
      <trkpt lat="42.52505" lon="2.49214">
        <ele>1702.5999755859</ele>
        <time>2023-07-15T13:27:00.000Z</time>
      </trkpt>
      <trkpt lat="42.5251" lon="2.49212">
        <ele>1702.8000488281</ele>
        <time>2023-07-15T13:27:05.000Z</time>
      </trkpt>
      <trkpt lat="42.52514" lon="2.4921">
        <ele>1703</ele>
        <time>2023-07-15T13:27:09.000Z</time>
      </trkpt>
      <trkpt lat="42.5252" lon="2.49208">
        <ele>1703.5999755859</ele>
        <time>2023-07-15T13:27:17.000Z</time>
      </trkpt>
      <trkpt lat="42.52541" lon="2.49215">
        <ele>1705</ele>
        <time>2023-07-15T13:27:36.000Z</time>
      </trkpt>
      <trkpt lat="42.52554" lon="2.49219">
        <ele>1705.5999755859</ele>
        <time>2023-07-15T13:27:45.000Z</time>
      </trkpt>
      <trkpt lat="42.5256" lon="2.4922">
        <ele>1706</ele>
        <time>2023-07-15T13:27:52.000Z</time>
      </trkpt>
      <trkpt lat="42.52562" lon="2.49222">
        <ele>1706.1999511719</ele>
        <time>2023-07-15T13:27:55.000Z</time>
      </trkpt>
      <trkpt lat="42.52564" lon="2.49223">
        <ele>1706.4000244141</ele>
        <time>2023-07-15T13:28:02.000Z</time>
      </trkpt>
      <trkpt lat="42.52572" lon="2.49224">
        <ele>1707.1999511719</ele>
        <time>2023-07-15T13:28:08.000Z</time>
      </trkpt>
      <trkpt lat="42.52575" lon="2.49225">
        <ele>1707.1999511719</ele>
        <time>2023-07-15T13:28:11.000Z</time>
      </trkpt>
      <trkpt lat="42.5258" lon="2.49225">
        <ele>1707.8000488281</ele>
        <time>2023-07-15T13:28:18.000Z</time>
      </trkpt>
      <trkpt lat="42.52602" lon="2.4923">
        <ele>1709.1999511719</ele>
        <time>2023-07-15T13:28:37.000Z</time>
      </trkpt>
      <trkpt lat="42.52604" lon="2.4923">
        <ele>1709.4000244141</ele>
        <time>2023-07-15T13:28:38.000Z</time>
      </trkpt>
      <trkpt lat="42.52615" lon="2.49233">
        <ele>1710.5999755859</ele>
        <time>2023-07-15T13:28:50.000Z</time>
      </trkpt>
      <trkpt lat="42.52627" lon="2.49233">
        <ele>1711.8000488281</ele>
        <time>2023-07-15T13:29:00.000Z</time>
      </trkpt>
      <trkpt lat="42.52638" lon="2.49234">
        <ele>1712.4000244141</ele>
        <time>2023-07-15T13:29:11.000Z</time>
      </trkpt>
      <trkpt lat="42.52639" lon="2.49233">
        <ele>1712.4000244141</ele>
        <time>2023-07-15T13:29:12.000Z</time>
      </trkpt>
      <trkpt lat="42.52645" lon="2.49231">
        <ele>1713.1999511719</ele>
        <time>2023-07-15T13:29:19.000Z</time>
      </trkpt>
      <trkpt lat="42.52647" lon="2.49231">
        <ele>1713.4000244141</ele>
        <time>2023-07-15T13:29:21.000Z</time>
      </trkpt>
      <trkpt lat="42.52654" lon="2.49229">
        <ele>1714.1999511719</ele>
        <time>2023-07-15T13:29:28.000Z</time>
      </trkpt>
      <trkpt lat="42.5266" lon="2.49229">
        <ele>1714.4000244141</ele>
        <time>2023-07-15T13:29:33.000Z</time>
      </trkpt>
      <trkpt lat="42.52665" lon="2.49228">
        <ele>1715.1999511719</ele>
        <time>2023-07-15T13:29:40.000Z</time>
      </trkpt>
      <trkpt lat="42.5267" lon="2.49229">
        <ele>1715.5999755859</ele>
        <time>2023-07-15T13:29:45.000Z</time>
      </trkpt>
      <trkpt lat="42.52672" lon="2.49231">
        <ele>1715.1999511719</ele>
        <time>2023-07-15T13:29:48.000Z</time>
      </trkpt>
      <trkpt lat="42.52678" lon="2.49232">
        <ele>1715.4000244141</ele>
        <time>2023-07-15T13:29:56.000Z</time>
      </trkpt>
      <trkpt lat="42.52686" lon="2.4924">
        <ele>1716.4000244141</ele>
        <time>2023-07-15T13:30:07.000Z</time>
      </trkpt>
      <trkpt lat="42.52687" lon="2.49241">
        <ele>1716.5999755859</ele>
        <time>2023-07-15T13:30:09.000Z</time>
      </trkpt>
      <trkpt lat="42.52688" lon="2.49244">
        <ele>1717</ele>
        <time>2023-07-15T13:30:15.000Z</time>
      </trkpt>
      <trkpt lat="42.5269" lon="2.49246">
        <ele>1716.8000488281</ele>
        <time>2023-07-15T13:30:22.000Z</time>
      </trkpt>
      <trkpt lat="42.52691" lon="2.4925">
        <ele>1717.8000488281</ele>
        <time>2023-07-15T13:30:27.000Z</time>
      </trkpt>
      <trkpt lat="42.52691" lon="2.49251">
        <ele>1718.4000244141</ele>
        <time>2023-07-15T13:30:29.000Z</time>
      </trkpt>
      <trkpt lat="42.52693" lon="2.49255">
        <ele>1718.1999511719</ele>
        <time>2023-07-15T13:30:37.000Z</time>
      </trkpt>
      <trkpt lat="42.52695" lon="2.49261">
        <ele>1718.4000244141</ele>
        <time>2023-07-15T13:30:43.000Z</time>
      </trkpt>
      <trkpt lat="42.52695" lon="2.49264">
        <ele>1718.8000488281</ele>
        <time>2023-07-15T13:30:46.000Z</time>
      </trkpt>
      <trkpt lat="42.52697" lon="2.4927">
        <ele>1719.1999511719</ele>
        <time>2023-07-15T13:30:52.000Z</time>
      </trkpt>
      <trkpt lat="42.52703" lon="2.49284">
        <ele>1719.5999755859</ele>
        <time>2023-07-15T13:30:59.000Z</time>
      </trkpt>
      <trkpt lat="42.52705" lon="2.49287">
        <ele>1720</ele>
        <time>2023-07-15T13:31:02.000Z</time>
      </trkpt>
      <trkpt lat="42.52706" lon="2.4929">
        <ele>1720</ele>
        <time>2023-07-15T13:31:06.000Z</time>
      </trkpt>
      <trkpt lat="42.52709" lon="2.493">
        <ele>1719.8000488281</ele>
        <time>2023-07-15T13:31:14.000Z</time>
      </trkpt>
      <trkpt lat="42.52713" lon="2.49309">
        <ele>1720.5999755859</ele>
        <time>2023-07-15T13:31:22.000Z</time>
      </trkpt>
      <trkpt lat="42.52715" lon="2.49318">
        <ele>1720.8000488281</ele>
        <time>2023-07-15T13:31:28.000Z</time>
      </trkpt>
      <trkpt lat="42.52717" lon="2.49324">
        <ele>1721.1999511719</ele>
        <time>2023-07-15T13:31:33.000Z</time>
      </trkpt>
      <trkpt lat="42.52719" lon="2.49328">
        <ele>1722</ele>
        <time>2023-07-15T13:31:36.000Z</time>
      </trkpt>
      <trkpt lat="42.52719" lon="2.4933">
        <ele>1722.1999511719</ele>
        <time>2023-07-15T13:31:37.000Z</time>
      </trkpt>
      <trkpt lat="42.52724" lon="2.49339">
        <ele>1723.1999511719</ele>
        <time>2023-07-15T13:31:44.000Z</time>
      </trkpt>
      <trkpt lat="42.52727" lon="2.49342">
        <ele>1723.1999511719</ele>
        <time>2023-07-15T13:31:47.000Z</time>
      </trkpt>
      <trkpt lat="42.5273" lon="2.49344">
        <ele>1723.5999755859</ele>
        <time>2023-07-15T13:31:51.000Z</time>
      </trkpt>
      <trkpt lat="42.52735" lon="2.49348">
        <ele>1724.1999511719</ele>
        <time>2023-07-15T13:31:57.000Z</time>
      </trkpt>
      <trkpt lat="42.52737" lon="2.49349">
        <ele>1724.4000244141</ele>
        <time>2023-07-15T13:31:59.000Z</time>
      </trkpt>
      <trkpt lat="42.52742" lon="2.49351">
        <ele>1724.5999755859</ele>
        <time>2023-07-15T13:32:06.000Z</time>
      </trkpt>
      <trkpt lat="42.52743" lon="2.49352">
        <ele>1725.4000244141</ele>
        <time>2023-07-15T13:32:12.000Z</time>
      </trkpt>
      <trkpt lat="42.52744" lon="2.49352">
        <ele>1725.5999755859</ele>
        <time>2023-07-15T13:32:14.000Z</time>
      </trkpt>
      <trkpt lat="42.5275" lon="2.49359">
        <ele>1726.1999511719</ele>
        <time>2023-07-15T13:32:22.000Z</time>
      </trkpt>
      <trkpt lat="42.52751" lon="2.49362">
        <ele>1726.4000244141</ele>
        <time>2023-07-15T13:32:24.000Z</time>
      </trkpt>
      <trkpt lat="42.52754" lon="2.49366">
        <ele>1727</ele>
        <time>2023-07-15T13:32:30.000Z</time>
      </trkpt>
      <trkpt lat="42.52756" lon="2.49368">
        <ele>1727.5999755859</ele>
        <time>2023-07-15T13:32:33.000Z</time>
      </trkpt>
      <trkpt lat="42.5276" lon="2.49371">
        <ele>1727.8000488281</ele>
        <time>2023-07-15T13:32:39.000Z</time>
      </trkpt>
      <trkpt lat="42.52763" lon="2.49377">
        <ele>1728.5999755859</ele>
        <time>2023-07-15T13:32:49.000Z</time>
      </trkpt>
      <trkpt lat="42.52764" lon="2.49385">
        <ele>1729.1999511719</ele>
        <time>2023-07-15T13:32:56.000Z</time>
      </trkpt>
      <trkpt lat="42.52771" lon="2.49393">
        <ele>1728.8000488281</ele>
        <time>2023-07-15T13:33:04.000Z</time>
      </trkpt>
      <trkpt lat="42.52771" lon="2.49392">
        <ele>1728.8000488281</ele>
        <time>2023-07-15T13:33:06.000Z</time>
      </trkpt>
      <trkpt lat="42.52773" lon="2.49393">
        <ele>1728.5999755859</ele>
        <time>2023-07-15T13:33:10.000Z</time>
      </trkpt>
      <trkpt lat="42.52775" lon="2.49401">
        <ele>1728.4000244141</ele>
        <time>2023-07-15T13:33:19.000Z</time>
      </trkpt>
      <trkpt lat="42.52778" lon="2.49407">
        <ele>1729</ele>
        <time>2023-07-15T13:33:27.000Z</time>
      </trkpt>
      <trkpt lat="42.52777" lon="2.49414">
        <ele>1729.1999511719</ele>
        <time>2023-07-15T13:33:33.000Z</time>
      </trkpt>
      <trkpt lat="42.52776" lon="2.49414">
        <ele>1728.5999755859</ele>
        <time>2023-07-15T13:33:41.000Z</time>
      </trkpt>
      <trkpt lat="42.52777" lon="2.49412">
        <ele>1728.8000488281</ele>
        <time>2023-07-15T13:33:50.000Z</time>
      </trkpt>
      <trkpt lat="42.52778" lon="2.49414">
        <ele>1728.8000488281</ele>
        <time>2023-07-15T13:33:59.000Z</time>
      </trkpt>
      <trkpt lat="42.52781" lon="2.49413">
        <ele>1728.8000488281</ele>
        <time>2023-07-15T13:34:12.000Z</time>
      </trkpt>
      <trkpt lat="42.52784" lon="2.49421">
        <ele>1728</ele>
        <time>2023-07-15T13:34:20.000Z</time>
      </trkpt>
      <trkpt lat="42.52786" lon="2.49428">
        <ele>1727.5999755859</ele>
        <time>2023-07-15T13:34:27.000Z</time>
      </trkpt>
      <trkpt lat="42.52789" lon="2.49433">
        <ele>1728.5999755859</ele>
        <time>2023-07-15T13:34:38.000Z</time>
      </trkpt>
      <trkpt lat="42.52789" lon="2.49434">
        <ele>1728.8000488281</ele>
        <time>2023-07-15T13:34:39.000Z</time>
      </trkpt>
      <trkpt lat="42.52792" lon="2.49438">
        <ele>1729.8000488281</ele>
        <time>2023-07-15T13:34:44.000Z</time>
      </trkpt>
      <trkpt lat="42.52797" lon="2.49444">
        <ele>1730.4000244141</ele>
        <time>2023-07-15T13:34:48.000Z</time>
      </trkpt>
      <trkpt lat="42.52801" lon="2.49448">
        <ele>1730.8000488281</ele>
        <time>2023-07-15T13:34:51.000Z</time>
      </trkpt>
      <trkpt lat="42.52805" lon="2.49452">
        <ele>1731.8000488281</ele>
        <time>2023-07-15T13:34:57.000Z</time>
      </trkpt>
      <trkpt lat="42.52806" lon="2.49453">
        <ele>1731.8000488281</ele>
        <time>2023-07-15T13:34:58.000Z</time>
      </trkpt>
      <trkpt lat="42.52805" lon="2.49459">
        <ele>1732.5999755859</ele>
        <time>2023-07-15T13:35:04.000Z</time>
      </trkpt>
      <trkpt lat="42.52804" lon="2.49461">
        <ele>1733</ele>
        <time>2023-07-15T13:35:06.000Z</time>
      </trkpt>
      <trkpt lat="42.52801" lon="2.49467">
        <ele>1733.1999511719</ele>
        <time>2023-07-15T13:35:12.000Z</time>
      </trkpt>
      <trkpt lat="42.52801" lon="2.4947">
        <ele>1732.8000488281</ele>
        <time>2023-07-15T13:35:17.000Z</time>
      </trkpt>
      <trkpt lat="42.52803" lon="2.49474">
        <ele>1733.4000244141</ele>
        <time>2023-07-15T13:35:24.000Z</time>
      </trkpt>
      <trkpt lat="42.52805" lon="2.49478">
        <ele>1734</ele>
        <time>2023-07-15T13:35:29.000Z</time>
      </trkpt>
      <trkpt lat="42.52806" lon="2.49481">
        <ele>1734</ele>
        <time>2023-07-15T13:35:32.000Z</time>
      </trkpt>
      <trkpt lat="42.52809" lon="2.49485">
        <ele>1734</ele>
        <time>2023-07-15T13:35:39.000Z</time>
      </trkpt>
      <trkpt lat="42.52814" lon="2.49492">
        <ele>1733.8000488281</ele>
        <time>2023-07-15T13:35:46.000Z</time>
      </trkpt>
      <trkpt lat="42.5282" lon="2.49503">
        <ele>1734.1999511719</ele>
        <time>2023-07-15T13:35:55.000Z</time>
      </trkpt>
      <trkpt lat="42.52826" lon="2.49508">
        <ele>1734</ele>
        <time>2023-07-15T13:36:02.000Z</time>
      </trkpt>
      <trkpt lat="42.5283" lon="2.49518">
        <ele>1734</ele>
        <time>2023-07-15T13:36:10.000Z</time>
      </trkpt>
      <trkpt lat="42.52828" lon="2.4952">
        <ele>1735</ele>
        <time>2023-07-15T13:36:16.000Z</time>
      </trkpt>
      <trkpt lat="42.52829" lon="2.49518">
        <ele>1734.8000488281</ele>
        <time>2023-07-15T13:36:26.000Z</time>
      </trkpt>
      <trkpt lat="42.52827" lon="2.4952">
        <ele>1735</ele>
        <time>2023-07-15T13:36:35.000Z</time>
      </trkpt>
      <trkpt lat="42.52827" lon="2.49526">
        <ele>1735.1999511719</ele>
        <time>2023-07-15T13:36:41.000Z</time>
      </trkpt>
      <trkpt lat="42.52833" lon="2.49535">
        <ele>1735.4000244141</ele>
        <time>2023-07-15T13:36:49.000Z</time>
      </trkpt>
      <trkpt lat="42.52836" lon="2.49536">
        <ele>1735.5999755859</ele>
        <time>2023-07-15T13:36:55.000Z</time>
      </trkpt>
      <trkpt lat="42.5284" lon="2.4954">
        <ele>1735.4000244141</ele>
        <time>2023-07-15T13:37:03.000Z</time>
      </trkpt>
      <trkpt lat="42.52848" lon="2.49545">
        <ele>1735.4000244141</ele>
        <time>2023-07-15T13:37:11.000Z</time>
      </trkpt>
      <trkpt lat="42.52853" lon="2.49547">
        <ele>1735.5999755859</ele>
        <time>2023-07-15T13:37:18.000Z</time>
      </trkpt>
      <trkpt lat="42.52854" lon="2.49549">
        <ele>1736</ele>
        <time>2023-07-15T13:37:20.000Z</time>
      </trkpt>
      <trkpt lat="42.5286" lon="2.49551">
        <ele>1736.8000488281</ele>
        <time>2023-07-15T13:37:28.000Z</time>
      </trkpt>
      <trkpt lat="42.52863" lon="2.49552">
        <ele>1737.1999511719</ele>
        <time>2023-07-15T13:37:31.000Z</time>
      </trkpt>
      <trkpt lat="42.52869" lon="2.4955">
        <ele>1737.4000244141</ele>
        <time>2023-07-15T13:37:37.000Z</time>
      </trkpt>
      <trkpt lat="42.52876" lon="2.49546">
        <ele>1738.4000244141</ele>
        <time>2023-07-15T13:37:45.000Z</time>
      </trkpt>
      <trkpt lat="42.52879" lon="2.49546">
        <ele>1738.5999755859</ele>
        <time>2023-07-15T13:37:49.000Z</time>
      </trkpt>
      <trkpt lat="42.52888" lon="2.49552">
        <ele>1738.5999755859</ele>
        <time>2023-07-15T13:38:00.000Z</time>
      </trkpt>
      <trkpt lat="42.52896" lon="2.49553">
        <ele>1739</ele>
        <time>2023-07-15T13:38:07.000Z</time>
      </trkpt>
      <trkpt lat="42.52902" lon="2.49557">
        <ele>1739.4000244141</ele>
        <time>2023-07-15T13:38:14.000Z</time>
      </trkpt>
      <trkpt lat="42.52903" lon="2.49558">
        <ele>1739.4000244141</ele>
        <time>2023-07-15T13:38:15.000Z</time>
      </trkpt>
      <trkpt lat="42.52906" lon="2.49563">
        <ele>1739.5999755859</ele>
        <time>2023-07-15T13:38:22.000Z</time>
      </trkpt>
      <trkpt lat="42.5291" lon="2.49568">
        <ele>1739.8000488281</ele>
        <time>2023-07-15T13:38:29.000Z</time>
      </trkpt>
      <trkpt lat="42.52917" lon="2.49574">
        <ele>1739.8000488281</ele>
        <time>2023-07-15T13:38:38.000Z</time>
      </trkpt>
      <trkpt lat="42.52921" lon="2.49578">
        <ele>1740.4000244141</ele>
        <time>2023-07-15T13:38:44.000Z</time>
      </trkpt>
      <trkpt lat="42.52922" lon="2.49578">
        <ele>1740.5999755859</ele>
        <time>2023-07-15T13:38:47.000Z</time>
      </trkpt>
      <trkpt lat="42.52928" lon="2.49582">
        <ele>1741</ele>
        <time>2023-07-15T13:38:55.000Z</time>
      </trkpt>
      <trkpt lat="42.5293" lon="2.49585">
        <ele>1741.4000244141</ele>
        <time>2023-07-15T13:38:59.000Z</time>
      </trkpt>
      <trkpt lat="42.52933" lon="2.49589">
        <ele>1741.8000488281</ele>
        <time>2023-07-15T13:39:03.000Z</time>
      </trkpt>
      <trkpt lat="42.52938" lon="2.49597">
        <ele>1742.4000244141</ele>
        <time>2023-07-15T13:39:09.000Z</time>
      </trkpt>
      <trkpt lat="42.52938" lon="2.49599">
        <ele>1742.5999755859</ele>
        <time>2023-07-15T13:39:11.000Z</time>
      </trkpt>
      <trkpt lat="42.52938" lon="2.496">
        <ele>1742.5999755859</ele>
        <time>2023-07-15T13:39:16.000Z</time>
      </trkpt>
      <trkpt lat="42.5294" lon="2.496">
        <ele>1742.8000488281</ele>
        <time>2023-07-15T13:39:18.000Z</time>
      </trkpt>
      <trkpt lat="42.52943" lon="2.49602">
        <ele>1742.8000488281</ele>
        <time>2023-07-15T13:39:24.000Z</time>
      </trkpt>
      <trkpt lat="42.52944" lon="2.49604">
        <ele>1742.1999511719</ele>
        <time>2023-07-15T13:39:33.000Z</time>
      </trkpt>
      <trkpt lat="42.52942" lon="2.496">
        <ele>1742.1999511719</ele>
        <time>2023-07-15T13:39:39.000Z</time>
      </trkpt>
      <trkpt lat="42.52945" lon="2.49595">
        <ele>1742.8000488281</ele>
        <time>2023-07-15T13:39:46.000Z</time>
      </trkpt>
      <trkpt lat="42.52947" lon="2.49589">
        <ele>1743.5999755859</ele>
        <time>2023-07-15T13:39:51.000Z</time>
      </trkpt>
      <trkpt lat="42.52947" lon="2.49588">
        <ele>1743.5999755859</ele>
        <time>2023-07-15T13:39:52.000Z</time>
      </trkpt>
      <trkpt lat="42.52948" lon="2.49583">
        <ele>1743.8000488281</ele>
        <time>2023-07-15T13:39:58.000Z</time>
      </trkpt>
      <trkpt lat="42.5295" lon="2.4958">
        <ele>1743.8000488281</ele>
        <time>2023-07-15T13:40:05.000Z</time>
      </trkpt>
      <trkpt lat="42.52952" lon="2.49579">
        <ele>1743.8000488281</ele>
        <time>2023-07-15T13:40:12.000Z</time>
      </trkpt>
      <trkpt lat="42.52953" lon="2.49578">
        <ele>1744</ele>
        <time>2023-07-15T13:40:18.000Z</time>
      </trkpt>
      <trkpt lat="42.52955" lon="2.49577">
        <ele>1743.8000488281</ele>
        <time>2023-07-15T13:40:25.000Z</time>
      </trkpt>
      <trkpt lat="42.52958" lon="2.49577">
        <ele>1743.4000244141</ele>
        <time>2023-07-15T13:40:35.000Z</time>
      </trkpt>
      <trkpt lat="42.5296" lon="2.49577">
        <ele>1743.5999755859</ele>
        <time>2023-07-15T13:40:44.000Z</time>
      </trkpt>
      <trkpt lat="42.52959" lon="2.49582">
        <ele>1743.5999755859</ele>
        <time>2023-07-15T13:40:50.000Z</time>
      </trkpt>
      <trkpt lat="42.52958" lon="2.49581">
        <ele>1744</ele>
        <time>2023-07-15T13:40:57.000Z</time>
      </trkpt>
      <trkpt lat="42.52958" lon="2.49583">
        <ele>1743.8000488281</ele>
        <time>2023-07-15T13:41:04.000Z</time>
      </trkpt>
      <trkpt lat="42.5296" lon="2.49582">
        <ele>1743.1999511719</ele>
        <time>2023-07-15T13:41:14.000Z</time>
      </trkpt>
      <trkpt lat="42.52958" lon="2.49584">
        <ele>1743.5999755859</ele>
        <time>2023-07-15T13:41:22.000Z</time>
      </trkpt>
      <trkpt lat="42.52957" lon="2.49584">
        <ele>1743.4000244141</ele>
        <time>2023-07-15T13:41:31.000Z</time>
      </trkpt>
      <trkpt lat="42.52957" lon="2.49583">
        <ele>1743.4000244141</ele>
        <time>2023-07-15T13:41:39.000Z</time>
      </trkpt>
      <trkpt lat="42.52958" lon="2.49587">
        <ele>1743</ele>
        <time>2023-07-15T13:41:49.000Z</time>
      </trkpt>
      <trkpt lat="42.52959" lon="2.49585">
        <ele>1743.5999755859</ele>
        <time>2023-07-15T13:41:58.000Z</time>
      </trkpt>
      <trkpt lat="42.52955" lon="2.49584">
        <ele>1743.4000244141</ele>
        <time>2023-07-15T13:42:07.000Z</time>
      </trkpt>
      <trkpt lat="42.52956" lon="2.49584">
        <ele>1743.1999511719</ele>
        <time>2023-07-15T13:42:15.000Z</time>
      </trkpt>
      <trkpt lat="42.52955" lon="2.49584">
        <ele>1743</ele>
        <time>2023-07-15T13:42:25.000Z</time>
      </trkpt>
      <trkpt lat="42.52958" lon="2.49584">
        <ele>1742.5999755859</ele>
        <time>2023-07-15T13:42:34.000Z</time>
      </trkpt>
      <trkpt lat="42.52959" lon="2.49585">
        <ele>1742.4000244141</ele>
        <time>2023-07-15T13:42:42.000Z</time>
      </trkpt>
      <trkpt lat="42.5296" lon="2.49588">
        <ele>1742.5999755859</ele>
        <time>2023-07-15T13:42:51.000Z</time>
      </trkpt>
      <trkpt lat="42.52959" lon="2.49586">
        <ele>1742.4000244141</ele>
        <time>2023-07-15T13:42:58.000Z</time>
      </trkpt>
      <trkpt lat="42.5296" lon="2.49585">
        <ele>1742.1999511719</ele>
        <time>2023-07-15T13:43:07.000Z</time>
      </trkpt>
      <trkpt lat="42.52957" lon="2.49585">
        <ele>1742.4000244141</ele>
        <time>2023-07-15T13:43:15.000Z</time>
      </trkpt>
      <trkpt lat="42.52954" lon="2.49582">
        <ele>1742.5999755859</ele>
        <time>2023-07-15T13:43:23.000Z</time>
      </trkpt>
      <trkpt lat="42.52952" lon="2.49579">
        <ele>1742.8000488281</ele>
        <time>2023-07-15T13:43:28.000Z</time>
      </trkpt>
      <trkpt lat="42.52952" lon="2.49575">
        <ele>1743.5999755859</ele>
        <time>2023-07-15T13:43:35.000Z</time>
      </trkpt>
      <trkpt lat="42.52952" lon="2.49576">
        <ele>1743.5999755859</ele>
        <time>2023-07-15T13:43:36.000Z</time>
      </trkpt>
      <trkpt lat="42.5295" lon="2.49577">
        <ele>1744.1999511719</ele>
        <time>2023-07-15T13:43:41.000Z</time>
      </trkpt>
      <trkpt lat="42.52945" lon="2.49582">
        <ele>1744.8000488281</ele>
        <time>2023-07-15T13:43:46.000Z</time>
      </trkpt>
      <trkpt lat="42.52944" lon="2.49584">
        <ele>1745</ele>
        <time>2023-07-15T13:43:48.000Z</time>
      </trkpt>
      <trkpt lat="42.52945" lon="2.49583">
        <ele>1745</ele>
        <time>2023-07-15T13:43:50.000Z</time>
      </trkpt>
      <trkpt lat="42.5295" lon="2.4958">
        <ele>1745.1999511719</ele>
        <time>2023-07-15T13:43:56.000Z</time>
      </trkpt>
      <trkpt lat="42.52955" lon="2.49578">
        <ele>1744.1999511719</ele>
        <time>2023-07-15T13:44:02.000Z</time>
      </trkpt>
      <trkpt lat="42.52955" lon="2.4958">
        <ele>1744</ele>
        <time>2023-07-15T13:44:04.000Z</time>
      </trkpt>
      <trkpt lat="42.52957" lon="2.49582">
        <ele>1743.8000488281</ele>
        <time>2023-07-15T13:44:07.000Z</time>
      </trkpt>
      <trkpt lat="42.52958" lon="2.49583">
        <ele>1743.5999755859</ele>
        <time>2023-07-15T13:44:08.000Z</time>
      </trkpt>
      <trkpt lat="42.5296" lon="2.49582">
        <ele>1743.4000244141</ele>
        <time>2023-07-15T13:44:10.000Z</time>
      </trkpt>
      <trkpt lat="42.52962" lon="2.49582">
        <ele>1743.1999511719</ele>
        <time>2023-07-15T13:44:13.000Z</time>
      </trkpt>
      <trkpt lat="42.52959" lon="2.4958">
        <ele>1743</ele>
        <time>2023-07-15T13:44:16.000Z</time>
      </trkpt>
      <trkpt lat="42.52955" lon="2.49576">
        <ele>1743</ele>
        <time>2023-07-15T13:44:23.000Z</time>
      </trkpt>
      <trkpt lat="42.52952" lon="2.49576">
        <ele>1743.5999755859</ele>
        <time>2023-07-15T13:44:28.000Z</time>
      </trkpt>
      <trkpt lat="42.52952" lon="2.49578">
        <ele>1743.8000488281</ele>
        <time>2023-07-15T13:44:34.000Z</time>
      </trkpt>
      <trkpt lat="42.52948" lon="2.49582">
        <ele>1744.4000244141</ele>
        <time>2023-07-15T13:44:39.000Z</time>
      </trkpt>
      <trkpt lat="42.52945" lon="2.49581">
        <ele>1744.4000244141</ele>
        <time>2023-07-15T13:44:46.000Z</time>
      </trkpt>
      <trkpt lat="42.52949" lon="2.4958">
        <ele>1743.8000488281</ele>
        <time>2023-07-15T13:44:55.000Z</time>
      </trkpt>
      <trkpt lat="42.52951" lon="2.49582">
        <ele>1743.8000488281</ele>
        <time>2023-07-15T13:45:06.000Z</time>
      </trkpt>
      <trkpt lat="42.5295" lon="2.49583">
        <ele>1744.1999511719</ele>
        <time>2023-07-15T13:45:16.000Z</time>
      </trkpt>
      <trkpt lat="42.52949" lon="2.49583">
        <ele>1743.8000488281</ele>
        <time>2023-07-15T13:45:27.000Z</time>
      </trkpt>
      <trkpt lat="42.5295" lon="2.4958">
        <ele>1743.4000244141</ele>
        <time>2023-07-15T13:45:45.000Z</time>
      </trkpt>
      <trkpt lat="42.52949" lon="2.4958">
        <ele>1743</ele>
        <time>2023-07-15T13:45:57.000Z</time>
      </trkpt>
      <trkpt lat="42.52948" lon="2.49582">
        <ele>1742.8000488281</ele>
        <time>2023-07-15T13:46:14.000Z</time>
      </trkpt>
      <trkpt lat="42.52948" lon="2.49583">
        <ele>1742.5999755859</ele>
        <time>2023-07-15T13:46:18.000Z</time>
      </trkpt>
      <trkpt lat="42.52949" lon="2.49583">
        <ele>1742.4000244141</ele>
        <time>2023-07-15T13:46:26.000Z</time>
      </trkpt>
      <trkpt lat="42.52947" lon="2.4958">
        <ele>1742.8000488281</ele>
        <time>2023-07-15T13:46:35.000Z</time>
      </trkpt>
      <trkpt lat="42.52947" lon="2.49579">
        <ele>1742.8000488281</ele>
        <time>2023-07-15T13:46:42.000Z</time>
      </trkpt>
      <trkpt lat="42.52947" lon="2.4958">
        <ele>1742.4000244141</ele>
        <time>2023-07-15T13:46:50.000Z</time>
      </trkpt>
      <trkpt lat="42.52949" lon="2.49582">
        <ele>1742.4000244141</ele>
        <time>2023-07-15T13:47:00.000Z</time>
      </trkpt>
      <trkpt lat="42.5295" lon="2.49582">
        <ele>1742.5999755859</ele>
        <time>2023-07-15T13:47:10.000Z</time>
      </trkpt>
      <trkpt lat="42.5295" lon="2.49581">
        <ele>1742.8000488281</ele>
        <time>2023-07-15T13:47:22.000Z</time>
      </trkpt>
      <trkpt lat="42.52951" lon="2.49582">
        <ele>1743</ele>
        <time>2023-07-15T13:47:30.000Z</time>
      </trkpt>
      <trkpt lat="42.52947" lon="2.49581">
        <ele>1743</ele>
        <time>2023-07-15T13:47:36.000Z</time>
      </trkpt>
      <trkpt lat="42.52946" lon="2.4958">
        <ele>1743</ele>
        <time>2023-07-15T13:47:44.000Z</time>
      </trkpt>
      <trkpt lat="42.52947" lon="2.49583">
        <ele>1742.8000488281</ele>
        <time>2023-07-15T13:47:52.000Z</time>
      </trkpt>
      <trkpt lat="42.52947" lon="2.49583">
        <ele>1743</ele>
        <time>2023-07-15T13:48:02.000Z</time>
      </trkpt>
      <trkpt lat="42.52948" lon="2.49583">
        <ele>1742.8000488281</ele>
        <time>2023-07-15T13:48:12.000Z</time>
      </trkpt>
      <trkpt lat="42.52948" lon="2.49582">
        <ele>1742.8000488281</ele>
        <time>2023-07-15T13:48:22.000Z</time>
      </trkpt>
      <trkpt lat="42.52946" lon="2.49581">
        <ele>1742.5999755859</ele>
        <time>2023-07-15T13:48:32.000Z</time>
      </trkpt>
      <trkpt lat="42.52944" lon="2.49579">
        <ele>1742.5999755859</ele>
        <time>2023-07-15T13:48:38.000Z</time>
      </trkpt>
      <trkpt lat="42.52948" lon="2.49579">
        <ele>1742.5999755859</ele>
        <time>2023-07-15T13:48:47.000Z</time>
      </trkpt>
      <trkpt lat="42.52949" lon="2.49582">
        <ele>1742.5999755859</ele>
        <time>2023-07-15T13:48:57.000Z</time>
      </trkpt>
      <trkpt lat="42.52947" lon="2.49581">
        <ele>1743</ele>
        <time>2023-07-15T13:49:04.000Z</time>
      </trkpt>
      <trkpt lat="42.52944" lon="2.49582">
        <ele>1743</ele>
        <time>2023-07-15T13:49:13.000Z</time>
      </trkpt>
      <trkpt lat="42.52944" lon="2.49585">
        <ele>1743</ele>
        <time>2023-07-15T13:49:21.000Z</time>
      </trkpt>
      <trkpt lat="42.52948" lon="2.49582">
        <ele>1742.8000488281</ele>
        <time>2023-07-15T13:49:30.000Z</time>
      </trkpt>
      <trkpt lat="42.52949" lon="2.49583">
        <ele>1743.1999511719</ele>
        <time>2023-07-15T13:49:39.000Z</time>
      </trkpt>
      <trkpt lat="42.52945" lon="2.49583">
        <ele>1743.1999511719</ele>
        <time>2023-07-15T13:49:48.000Z</time>
      </trkpt>
      <trkpt lat="42.52944" lon="2.49582">
        <ele>1743.4000244141</ele>
        <time>2023-07-15T13:49:59.000Z</time>
      </trkpt>
      <trkpt lat="42.5294" lon="2.49581">
        <ele>1743.5999755859</ele>
        <time>2023-07-15T13:50:05.000Z</time>
      </trkpt>
      <trkpt lat="42.52948" lon="2.49585">
        <ele>1743.5999755859</ele>
        <time>2023-07-15T13:50:13.000Z</time>
      </trkpt>
      <trkpt lat="42.52951" lon="2.49584">
        <ele>1743.4000244141</ele>
        <time>2023-07-15T13:50:19.000Z</time>
      </trkpt>
      <trkpt lat="42.52948" lon="2.49583">
        <ele>1743.8000488281</ele>
        <time>2023-07-15T13:50:24.000Z</time>
      </trkpt>
      <trkpt lat="42.52948" lon="2.49583">
        <ele>1743.8000488281</ele>
        <time>2023-07-15T13:50:26.000Z</time>
      </trkpt>
      <trkpt lat="42.52946" lon="2.49581">
        <ele>1743.5999755859</ele>
        <time>2023-07-15T13:50:35.000Z</time>
      </trkpt>
      <trkpt lat="42.52948" lon="2.49583">
        <ele>1743.5999755859</ele>
        <time>2023-07-15T13:50:45.000Z</time>
      </trkpt>
      <trkpt lat="42.52952" lon="2.49585">
        <ele>1743.5999755859</ele>
        <time>2023-07-15T13:50:54.000Z</time>
      </trkpt>
      <trkpt lat="42.52945" lon="2.49584">
        <ele>1743.5999755859</ele>
        <time>2023-07-15T13:51:04.000Z</time>
      </trkpt>
      <trkpt lat="42.52945" lon="2.49583">
        <ele>1743.5999755859</ele>
        <time>2023-07-15T13:51:11.000Z</time>
      </trkpt>
      <trkpt lat="42.52944" lon="2.4958">
        <ele>1743.5999755859</ele>
        <time>2023-07-15T13:51:17.000Z</time>
      </trkpt>
      <trkpt lat="42.52944" lon="2.49578">
        <ele>1743.4000244141</ele>
        <time>2023-07-15T13:51:24.000Z</time>
      </trkpt>
      <trkpt lat="42.52945" lon="2.4958">
        <ele>1743.1999511719</ele>
        <time>2023-07-15T13:51:33.000Z</time>
      </trkpt>
      <trkpt lat="42.52945" lon="2.49579">
        <ele>1743</ele>
        <time>2023-07-15T13:51:42.000Z</time>
      </trkpt>
      <trkpt lat="42.52945" lon="2.49578">
        <ele>1743</ele>
        <time>2023-07-15T13:51:50.000Z</time>
      </trkpt>
      <trkpt lat="42.52945" lon="2.49579">
        <ele>1742.5999755859</ele>
        <time>2023-07-15T13:51:53.000Z</time>
      </trkpt>
      <trkpt lat="42.52943" lon="2.4958">
        <ele>1742.4000244141</ele>
        <time>2023-07-15T13:51:58.000Z</time>
      </trkpt>
      <trkpt lat="42.52944" lon="2.49579">
        <ele>1742.1999511719</ele>
        <time>2023-07-15T13:52:06.000Z</time>
      </trkpt>
      <trkpt lat="42.52946" lon="2.49578">
        <ele>1742</ele>
        <time>2023-07-15T13:52:16.000Z</time>
      </trkpt>
      <trkpt lat="42.52947" lon="2.49583">
        <ele>1741.8000488281</ele>
        <time>2023-07-15T13:52:25.000Z</time>
      </trkpt>
      <trkpt lat="42.52948" lon="2.49583">
        <ele>1741.5999755859</ele>
        <time>2023-07-15T13:52:31.000Z</time>
      </trkpt>
      <trkpt lat="42.52949" lon="2.49582">
        <ele>1741.5999755859</ele>
        <time>2023-07-15T13:52:32.000Z</time>
      </trkpt>
      <trkpt lat="42.52948" lon="2.49582">
        <ele>1741.4000244141</ele>
        <time>2023-07-15T13:52:39.000Z</time>
      </trkpt>
      <trkpt lat="42.52948" lon="2.49581">
        <ele>1741.4000244141</ele>
        <time>2023-07-15T13:52:47.000Z</time>
      </trkpt>
      <trkpt lat="42.52949" lon="2.4958">
        <ele>1741.1999511719</ele>
        <time>2023-07-15T13:52:57.000Z</time>
      </trkpt>
      <trkpt lat="42.52949" lon="2.49581">
        <ele>1741.4000244141</ele>
        <time>2023-07-15T13:53:07.000Z</time>
      </trkpt>
      <trkpt lat="42.52948" lon="2.49583">
        <ele>1741.1999511719</ele>
        <time>2023-07-15T13:53:18.000Z</time>
      </trkpt>
      <trkpt lat="42.52948" lon="2.49584">
        <ele>1741.1999511719</ele>
        <time>2023-07-15T13:53:27.000Z</time>
      </trkpt>
      <trkpt lat="42.52949" lon="2.49585">
        <ele>1740.8000488281</ele>
        <time>2023-07-15T13:53:38.000Z</time>
      </trkpt>
      <trkpt lat="42.52948" lon="2.49584">
        <ele>1740.8000488281</ele>
        <time>2023-07-15T13:53:47.000Z</time>
      </trkpt>
      <trkpt lat="42.52946" lon="2.49583">
        <ele>1741.1999511719</ele>
        <time>2023-07-15T13:53:53.000Z</time>
      </trkpt>
      <trkpt lat="42.52948" lon="2.49581">
        <ele>1741.1999511719</ele>
        <time>2023-07-15T13:54:03.000Z</time>
      </trkpt>
      <trkpt lat="42.52947" lon="2.4958">
        <ele>1741.4000244141</ele>
        <time>2023-07-15T13:54:13.000Z</time>
      </trkpt>
      <trkpt lat="42.52946" lon="2.49581">
        <ele>1741.4000244141</ele>
        <time>2023-07-15T13:54:23.000Z</time>
      </trkpt>
      <trkpt lat="42.52947" lon="2.4958">
        <ele>1741.1999511719</ele>
        <time>2023-07-15T13:54:30.000Z</time>
      </trkpt>
      <trkpt lat="42.52948" lon="2.49583">
        <ele>1741.1999511719</ele>
        <time>2023-07-15T13:54:39.000Z</time>
      </trkpt>
      <trkpt lat="42.5295" lon="2.49582">
        <ele>1741.1999511719</ele>
        <time>2023-07-15T13:54:46.000Z</time>
      </trkpt>
      <trkpt lat="42.52955" lon="2.49579">
        <ele>1741.1999511719</ele>
        <time>2023-07-15T13:54:54.000Z</time>
      </trkpt>
      <trkpt lat="42.52952" lon="2.49578">
        <ele>1741.1999511719</ele>
        <time>2023-07-15T13:55:00.000Z</time>
      </trkpt>
      <trkpt lat="42.5295" lon="2.49577">
        <ele>1741.1999511719</ele>
        <time>2023-07-15T13:55:09.000Z</time>
      </trkpt>
      <trkpt lat="42.5295" lon="2.49571">
        <ele>1742.4000244141</ele>
        <time>2023-07-15T13:55:17.000Z</time>
      </trkpt>
      <trkpt lat="42.5295" lon="2.4957">
        <ele>1742.5999755859</ele>
        <time>2023-07-15T13:55:19.000Z</time>
      </trkpt>
      <trkpt lat="42.52952" lon="2.49569">
        <ele>1743.4000244141</ele>
        <time>2023-07-15T13:55:24.000Z</time>
      </trkpt>
      <trkpt lat="42.52954" lon="2.49568">
        <ele>1743.8000488281</ele>
        <time>2023-07-15T13:55:26.000Z</time>
      </trkpt>
      <trkpt lat="42.52957" lon="2.49566">
        <ele>1744.5999755859</ele>
        <time>2023-07-15T13:55:31.000Z</time>
      </trkpt>
      <trkpt lat="42.52958" lon="2.49565">
        <ele>1745</ele>
        <time>2023-07-15T13:55:33.000Z</time>
      </trkpt>
      <trkpt lat="42.52957" lon="2.49561">
        <ele>1745.5999755859</ele>
        <time>2023-07-15T13:55:38.000Z</time>
      </trkpt>
      <trkpt lat="42.52954" lon="2.49558">
        <ele>1746.1999511719</ele>
        <time>2023-07-15T13:55:41.000Z</time>
      </trkpt>
      <trkpt lat="42.52951" lon="2.49554">
        <ele>1747</ele>
        <time>2023-07-15T13:55:45.000Z</time>
      </trkpt>
      <trkpt lat="42.52949" lon="2.49552">
        <ele>1747.1999511719</ele>
        <time>2023-07-15T13:55:47.000Z</time>
      </trkpt>
      <trkpt lat="42.52948" lon="2.49548">
        <ele>1748</ele>
        <time>2023-07-15T13:55:53.000Z</time>
      </trkpt>
      <trkpt lat="42.52947" lon="2.49547">
        <ele>1748.4000244141</ele>
        <time>2023-07-15T13:55:55.000Z</time>
      </trkpt>
      <trkpt lat="42.52946" lon="2.49545">
        <ele>1749.4000244141</ele>
        <time>2023-07-15T13:56:03.000Z</time>
      </trkpt>
      <trkpt lat="42.52946" lon="2.49544">
        <ele>1749.5999755859</ele>
        <time>2023-07-15T13:56:04.000Z</time>
      </trkpt>
      <trkpt lat="42.52945" lon="2.4954">
        <ele>1750.4000244141</ele>
        <time>2023-07-15T13:56:10.000Z</time>
      </trkpt>
      <trkpt lat="42.52943" lon="2.4954">
        <ele>1750.5999755859</ele>
        <time>2023-07-15T13:56:11.000Z</time>
      </trkpt>
      <trkpt lat="42.52944" lon="2.49537">
        <ele>1751.4000244141</ele>
        <time>2023-07-15T13:56:16.000Z</time>
      </trkpt>
      <trkpt lat="42.52946" lon="2.49534">
        <ele>1751.5999755859</ele>
        <time>2023-07-15T13:56:18.000Z</time>
      </trkpt>
      <trkpt lat="42.52944" lon="2.49532">
        <ele>1752.8000488281</ele>
        <time>2023-07-15T13:56:24.000Z</time>
      </trkpt>
      <trkpt lat="42.52941" lon="2.49527">
        <ele>1753.5999755859</ele>
        <time>2023-07-15T13:56:30.000Z</time>
      </trkpt>
      <trkpt lat="42.52941" lon="2.49526">
        <ele>1753.8000488281</ele>
        <time>2023-07-15T13:56:32.000Z</time>
      </trkpt>
      <trkpt lat="42.52942" lon="2.49528">
        <ele>1754.1999511719</ele>
        <time>2023-07-15T13:56:36.000Z</time>
      </trkpt>
      <trkpt lat="42.52942" lon="2.49529">
        <ele>1754.1999511719</ele>
        <time>2023-07-15T13:56:38.000Z</time>
      </trkpt>
      <trkpt lat="42.5294" lon="2.49528">
        <ele>1754.1999511719</ele>
        <time>2023-07-15T13:56:40.000Z</time>
      </trkpt>
      <trkpt lat="42.52938" lon="2.49529">
        <ele>1754.4000244141</ele>
        <time>2023-07-15T13:56:45.000Z</time>
      </trkpt>
      <trkpt lat="42.52934" lon="2.49527">
        <ele>1754.8000488281</ele>
        <time>2023-07-15T13:56:49.000Z</time>
      </trkpt>
      <trkpt lat="42.52932" lon="2.49525">
        <ele>1755.1999511719</ele>
        <time>2023-07-15T13:56:52.000Z</time>
      </trkpt>
      <trkpt lat="42.5293" lon="2.49527">
        <ele>1755.8000488281</ele>
        <time>2023-07-15T13:56:58.000Z</time>
      </trkpt>
      <trkpt lat="42.5293" lon="2.49526">
        <ele>1755.8000488281</ele>
        <time>2023-07-15T13:56:59.000Z</time>
      </trkpt>
      <trkpt lat="42.52928" lon="2.49524">
        <ele>1756.8000488281</ele>
        <time>2023-07-15T13:57:07.000Z</time>
      </trkpt>
      <trkpt lat="42.52927" lon="2.49524">
        <ele>1757</ele>
        <time>2023-07-15T13:57:08.000Z</time>
      </trkpt>
      <trkpt lat="42.52926" lon="2.49521">
        <ele>1757.8000488281</ele>
        <time>2023-07-15T13:57:15.000Z</time>
      </trkpt>
      <trkpt lat="42.52926" lon="2.4952">
        <ele>1758</ele>
        <time>2023-07-15T13:57:17.000Z</time>
      </trkpt>
      <trkpt lat="42.52927" lon="2.49518">
        <ele>1759.1999511719</ele>
        <time>2023-07-15T13:57:24.000Z</time>
      </trkpt>
      <trkpt lat="42.52927" lon="2.49517">
        <ele>1759.4000244141</ele>
        <time>2023-07-15T13:57:25.000Z</time>
      </trkpt>
      <trkpt lat="42.52928" lon="2.49514">
        <ele>1760.1999511719</ele>
        <time>2023-07-15T13:57:30.000Z</time>
      </trkpt>
      <trkpt lat="42.52928" lon="2.49514">
        <ele>1760.4000244141</ele>
        <time>2023-07-15T13:57:31.000Z</time>
      </trkpt>
      <trkpt lat="42.52928" lon="2.49511">
        <ele>1761.4000244141</ele>
        <time>2023-07-15T13:57:36.000Z</time>
      </trkpt>
      <trkpt lat="42.52929" lon="2.4951">
        <ele>1762.1999511719</ele>
        <time>2023-07-15T13:57:41.000Z</time>
      </trkpt>
      <trkpt lat="42.52929" lon="2.49504">
        <ele>1762.1999511719</ele>
        <time>2023-07-15T13:57:46.000Z</time>
      </trkpt>
      <trkpt lat="42.52927" lon="2.49502">
        <ele>1762.1999511719</ele>
        <time>2023-07-15T13:57:49.000Z</time>
      </trkpt>
      <trkpt lat="42.52926" lon="2.49502">
        <ele>1762.4000244141</ele>
        <time>2023-07-15T13:57:51.000Z</time>
      </trkpt>
      <trkpt lat="42.52927" lon="2.49499">
        <ele>1762.5999755859</ele>
        <time>2023-07-15T13:57:56.000Z</time>
      </trkpt>
      <trkpt lat="42.5293" lon="2.49497">
        <ele>1763.4000244141</ele>
        <time>2023-07-15T13:58:00.000Z</time>
      </trkpt>
      <trkpt lat="42.52931" lon="2.49497">
        <ele>1763.4000244141</ele>
        <time>2023-07-15T13:58:05.000Z</time>
      </trkpt>
      <trkpt lat="42.52931" lon="2.49495">
        <ele>1763.5999755859</ele>
        <time>2023-07-15T13:58:12.000Z</time>
      </trkpt>
      <trkpt lat="42.52934" lon="2.49489">
        <ele>1764.4000244141</ele>
        <time>2023-07-15T13:58:18.000Z</time>
      </trkpt>
      <trkpt lat="42.52934" lon="2.49488">
        <ele>1764.5999755859</ele>
        <time>2023-07-15T13:58:19.000Z</time>
      </trkpt>
      <trkpt lat="42.52933" lon="2.49488">
        <ele>1765.5999755859</ele>
        <time>2023-07-15T13:58:25.000Z</time>
      </trkpt>
      <trkpt lat="42.52933" lon="2.49488">
        <ele>1765.5999755859</ele>
        <time>2023-07-15T13:58:26.000Z</time>
      </trkpt>
      <trkpt lat="42.52933" lon="2.49487">
        <ele>1766.5999755859</ele>
        <time>2023-07-15T13:58:31.000Z</time>
      </trkpt>
      <trkpt lat="42.52931" lon="2.49486">
        <ele>1767</ele>
        <time>2023-07-15T13:58:34.000Z</time>
      </trkpt>
      <trkpt lat="42.52929" lon="2.49485">
        <ele>1767.5999755859</ele>
        <time>2023-07-15T13:58:39.000Z</time>
      </trkpt>
      <trkpt lat="42.52926" lon="2.49483">
        <ele>1768.1999511719</ele>
        <time>2023-07-15T13:58:43.000Z</time>
      </trkpt>
      <trkpt lat="42.52925" lon="2.49482">
        <ele>1768.8000488281</ele>
        <time>2023-07-15T13:58:47.000Z</time>
      </trkpt>
      <trkpt lat="42.52925" lon="2.49481">
        <ele>1769.4000244141</ele>
        <time>2023-07-15T13:58:51.000Z</time>
      </trkpt>
      <trkpt lat="42.52924" lon="2.49484">
        <ele>1770</ele>
        <time>2023-07-15T13:58:57.000Z</time>
      </trkpt>
      <trkpt lat="42.52924" lon="2.49485">
        <ele>1770.8000488281</ele>
        <time>2023-07-15T13:59:00.000Z</time>
      </trkpt>
      <trkpt lat="42.52923" lon="2.49486">
        <ele>1771.1999511719</ele>
        <time>2023-07-15T13:59:02.000Z</time>
      </trkpt>
      <trkpt lat="42.52917" lon="2.49485">
        <ele>1771.5999755859</ele>
        <time>2023-07-15T13:59:09.000Z</time>
      </trkpt>
      <trkpt lat="42.52914" lon="2.49484">
        <ele>1772.1999511719</ele>
        <time>2023-07-15T13:59:12.000Z</time>
      </trkpt>
      <trkpt lat="42.52912" lon="2.49482">
        <ele>1772.5999755859</ele>
        <time>2023-07-15T13:59:15.000Z</time>
      </trkpt>
      <trkpt lat="42.52911" lon="2.49481">
        <ele>1773.1999511719</ele>
        <time>2023-07-15T13:59:19.000Z</time>
      </trkpt>
      <trkpt lat="42.52911" lon="2.49479">
        <ele>1774</ele>
        <time>2023-07-15T13:59:24.000Z</time>
      </trkpt>
      <trkpt lat="42.52911" lon="2.49478">
        <ele>1774.1999511719</ele>
        <time>2023-07-15T13:59:25.000Z</time>
      </trkpt>
      <trkpt lat="42.52913" lon="2.49477">
        <ele>1775</ele>
        <time>2023-07-15T13:59:31.000Z</time>
      </trkpt>
      <trkpt lat="42.52913" lon="2.49476">
        <ele>1775.4000244141</ele>
        <time>2023-07-15T13:59:32.000Z</time>
      </trkpt>
      <trkpt lat="42.52912" lon="2.49472">
        <ele>1776.4000244141</ele>
        <time>2023-07-15T13:59:38.000Z</time>
      </trkpt>
      <trkpt lat="42.52912" lon="2.49472">
        <ele>1776.5999755859</ele>
        <time>2023-07-15T13:59:39.000Z</time>
      </trkpt>
      <trkpt lat="42.5291" lon="2.4947">
        <ele>1777.5999755859</ele>
        <time>2023-07-15T13:59:44.000Z</time>
      </trkpt>
      <trkpt lat="42.52908" lon="2.4947">
        <ele>1778</ele>
        <time>2023-07-15T13:59:48.000Z</time>
      </trkpt>
      <trkpt lat="42.52909" lon="2.49468">
        <ele>1778.5999755859</ele>
        <time>2023-07-15T13:59:55.000Z</time>
      </trkpt>
      <trkpt lat="42.5291" lon="2.49468">
        <ele>1778.5999755859</ele>
        <time>2023-07-15T13:59:56.000Z</time>
      </trkpt>
      <trkpt lat="42.52911" lon="2.49468">
        <ele>1778.5999755859</ele>
        <time>2023-07-15T14:00:02.000Z</time>
      </trkpt>
      <trkpt lat="42.52909" lon="2.49466">
        <ele>1778.4000244141</ele>
        <time>2023-07-15T14:00:12.000Z</time>
      </trkpt>
      <trkpt lat="42.52906" lon="2.49462">
        <ele>1778.4000244141</ele>
        <time>2023-07-15T14:00:19.000Z</time>
      </trkpt>
      <trkpt lat="42.52905" lon="2.49459">
        <ele>1779.1999511719</ele>
        <time>2023-07-15T14:00:27.000Z</time>
      </trkpt>
      <trkpt lat="42.52904" lon="2.49458">
        <ele>1779.8000488281</ele>
        <time>2023-07-15T14:00:29.000Z</time>
      </trkpt>
      <trkpt lat="42.52905" lon="2.49454">
        <ele>1780.8000488281</ele>
        <time>2023-07-15T14:00:34.000Z</time>
      </trkpt>
      <trkpt lat="42.52905" lon="2.49452">
        <ele>1781</ele>
        <time>2023-07-15T14:00:36.000Z</time>
      </trkpt>
      <trkpt lat="42.52904" lon="2.49452">
        <ele>1782</ele>
        <time>2023-07-15T14:00:42.000Z</time>
      </trkpt>
      <trkpt lat="42.52904" lon="2.49451">
        <ele>1782.5999755859</ele>
        <time>2023-07-15T14:00:46.000Z</time>
      </trkpt>
      <trkpt lat="42.52904" lon="2.49451">
        <ele>1783</ele>
        <time>2023-07-15T14:00:48.000Z</time>
      </trkpt>
      <trkpt lat="42.52903" lon="2.49452">
        <ele>1783.1999511719</ele>
        <time>2023-07-15T14:00:49.000Z</time>
      </trkpt>
      <trkpt lat="42.529" lon="2.49454">
        <ele>1783.5999755859</ele>
        <time>2023-07-15T14:00:53.000Z</time>
      </trkpt>
      <trkpt lat="42.52898" lon="2.49455">
        <ele>1783.8000488281</ele>
        <time>2023-07-15T14:00:55.000Z</time>
      </trkpt>
      <trkpt lat="42.52897" lon="2.49455">
        <ele>1784</ele>
        <time>2023-07-15T14:00:56.000Z</time>
      </trkpt>
      <trkpt lat="42.52897" lon="2.49454">
        <ele>1784.5999755859</ele>
        <time>2023-07-15T14:01:01.000Z</time>
      </trkpt>
      <trkpt lat="42.52897" lon="2.49452">
        <ele>1785.1999511719</ele>
        <time>2023-07-15T14:01:05.000Z</time>
      </trkpt>
      <trkpt lat="42.52897" lon="2.49451">
        <ele>1785.8000488281</ele>
        <time>2023-07-15T14:01:08.000Z</time>
      </trkpt>
      <trkpt lat="42.52898" lon="2.49448">
        <ele>1786.1999511719</ele>
        <time>2023-07-15T14:01:11.000Z</time>
      </trkpt>
      <trkpt lat="42.52898" lon="2.49442">
        <ele>1787</ele>
        <time>2023-07-15T14:01:16.000Z</time>
      </trkpt>
      <trkpt lat="42.52898" lon="2.49442">
        <ele>1787.4000244141</ele>
        <time>2023-07-15T14:01:18.000Z</time>
      </trkpt>
      <trkpt lat="42.52898" lon="2.49444">
        <ele>1787.5999755859</ele>
        <time>2023-07-15T14:01:23.000Z</time>
      </trkpt>
      <trkpt lat="42.52896" lon="2.49444">
        <ele>1788</ele>
        <time>2023-07-15T14:01:32.000Z</time>
      </trkpt>
      <trkpt lat="42.52896" lon="2.49442">
        <ele>1788.4000244141</ele>
        <time>2023-07-15T14:01:35.000Z</time>
      </trkpt>
      <trkpt lat="42.52897" lon="2.4944">
        <ele>1789.4000244141</ele>
        <time>2023-07-15T14:01:40.000Z</time>
      </trkpt>
      <trkpt lat="42.52899" lon="2.49437">
        <ele>1790.4000244141</ele>
        <time>2023-07-15T14:01:46.000Z</time>
      </trkpt>
      <trkpt lat="42.52899" lon="2.49435">
        <ele>1790.8000488281</ele>
        <time>2023-07-15T14:01:50.000Z</time>
      </trkpt>
      <trkpt lat="42.52898" lon="2.49433">
        <ele>1791.5999755859</ele>
        <time>2023-07-15T14:01:56.000Z</time>
      </trkpt>
      <trkpt lat="42.52898" lon="2.49432">
        <ele>1791.8000488281</ele>
        <time>2023-07-15T14:01:59.000Z</time>
      </trkpt>
      <trkpt lat="42.52897" lon="2.49429">
        <ele>1792.5999755859</ele>
        <time>2023-07-15T14:02:04.000Z</time>
      </trkpt>
      <trkpt lat="42.52895" lon="2.49428">
        <ele>1793.4000244141</ele>
        <time>2023-07-15T14:02:10.000Z</time>
      </trkpt>
      <trkpt lat="42.52895" lon="2.49427">
        <ele>1793.5999755859</ele>
        <time>2023-07-15T14:02:12.000Z</time>
      </trkpt>
      <trkpt lat="42.52895" lon="2.49425">
        <ele>1794.4000244141</ele>
        <time>2023-07-15T14:02:18.000Z</time>
      </trkpt>
      <trkpt lat="42.52895" lon="2.49425">
        <ele>1794.5999755859</ele>
        <time>2023-07-15T14:02:19.000Z</time>
      </trkpt>
      <trkpt lat="42.52895" lon="2.49424">
        <ele>1794.5999755859</ele>
        <time>2023-07-15T14:02:20.000Z</time>
      </trkpt>
      <trkpt lat="42.52895" lon="2.49417">
        <ele>1795.4000244141</ele>
        <time>2023-07-15T14:02:28.000Z</time>
      </trkpt>
      <trkpt lat="42.52895" lon="2.49416">
        <ele>1795.5999755859</ele>
        <time>2023-07-15T14:02:30.000Z</time>
      </trkpt>
      <trkpt lat="42.52896" lon="2.49412">
        <ele>1796</ele>
        <time>2023-07-15T14:02:35.000Z</time>
      </trkpt>
      <trkpt lat="42.52895" lon="2.49408">
        <ele>1796.5999755859</ele>
        <time>2023-07-15T14:02:42.000Z</time>
      </trkpt>
      <trkpt lat="42.52895" lon="2.49406">
        <ele>1796.8000488281</ele>
        <time>2023-07-15T14:02:44.000Z</time>
      </trkpt>
      <trkpt lat="42.52896" lon="2.49404">
        <ele>1797.4000244141</ele>
        <time>2023-07-15T14:02:50.000Z</time>
      </trkpt>
      <trkpt lat="42.52894" lon="2.49403">
        <ele>1797.8000488281</ele>
        <time>2023-07-15T14:02:53.000Z</time>
      </trkpt>
      <trkpt lat="42.52892" lon="2.49401">
        <ele>1798.4000244141</ele>
        <time>2023-07-15T14:02:58.000Z</time>
      </trkpt>
      <trkpt lat="42.52892" lon="2.49396">
        <ele>1799</ele>
        <time>2023-07-15T14:03:02.000Z</time>
      </trkpt>
      <trkpt lat="42.52892" lon="2.49394">
        <ele>1799.4000244141</ele>
        <time>2023-07-15T14:03:04.000Z</time>
      </trkpt>
      <trkpt lat="42.52892" lon="2.49391">
        <ele>1800</ele>
        <time>2023-07-15T14:03:10.000Z</time>
      </trkpt>
      <trkpt lat="42.52892" lon="2.4939">
        <ele>1800.4000244141</ele>
        <time>2023-07-15T14:03:12.000Z</time>
      </trkpt>
      <trkpt lat="42.52892" lon="2.49388">
        <ele>1801.1999511719</ele>
        <time>2023-07-15T14:03:17.000Z</time>
      </trkpt>
      <trkpt lat="42.52892" lon="2.49388">
        <ele>1801.4000244141</ele>
        <time>2023-07-15T14:03:20.000Z</time>
      </trkpt>
      <trkpt lat="42.52892" lon="2.49385">
        <ele>1802.4000244141</ele>
        <time>2023-07-15T14:03:25.000Z</time>
      </trkpt>
      <trkpt lat="42.52891" lon="2.4938">
        <ele>1802.8000488281</ele>
        <time>2023-07-15T14:03:29.000Z</time>
      </trkpt>
      <trkpt lat="42.52889" lon="2.49378">
        <ele>1803.4000244141</ele>
        <time>2023-07-15T14:03:34.000Z</time>
      </trkpt>
      <trkpt lat="42.52889" lon="2.49379">
        <ele>1803.8000488281</ele>
        <time>2023-07-15T14:03:38.000Z</time>
      </trkpt>
      <trkpt lat="42.5289" lon="2.49377">
        <ele>1804</ele>
        <time>2023-07-15T14:03:46.000Z</time>
      </trkpt>
      <trkpt lat="42.52892" lon="2.49378">
        <ele>1804</ele>
        <time>2023-07-15T14:03:55.000Z</time>
      </trkpt>
      <trkpt lat="42.52889" lon="2.49375">
        <ele>1803.8000488281</ele>
        <time>2023-07-15T14:04:02.000Z</time>
      </trkpt>
      <trkpt lat="42.52886" lon="2.49372">
        <ele>1804.5999755859</ele>
        <time>2023-07-15T14:04:09.000Z</time>
      </trkpt>
      <trkpt lat="42.52886" lon="2.49371">
        <ele>1804.5999755859</ele>
        <time>2023-07-15T14:04:10.000Z</time>
      </trkpt>
      <trkpt lat="42.52887" lon="2.49364">
        <ele>1805.5999755859</ele>
        <time>2023-07-15T14:04:17.000Z</time>
      </trkpt>
      <trkpt lat="42.52887" lon="2.49364">
        <ele>1805.5999755859</ele>
        <time>2023-07-15T14:04:18.000Z</time>
      </trkpt>
      <trkpt lat="42.52889" lon="2.49361">
        <ele>1806.4000244141</ele>
        <time>2023-07-15T14:04:25.000Z</time>
      </trkpt>
      <trkpt lat="42.52889" lon="2.4936">
        <ele>1806.5999755859</ele>
        <time>2023-07-15T14:04:29.000Z</time>
      </trkpt>
      <trkpt lat="42.5289" lon="2.49358">
        <ele>1807</ele>
        <time>2023-07-15T14:04:32.000Z</time>
      </trkpt>
      <trkpt lat="42.52891" lon="2.49355">
        <ele>1807.8000488281</ele>
        <time>2023-07-15T14:04:38.000Z</time>
      </trkpt>
      <trkpt lat="42.52891" lon="2.49354">
        <ele>1808</ele>
        <time>2023-07-15T14:04:39.000Z</time>
      </trkpt>
      <trkpt lat="42.52892" lon="2.49352">
        <ele>1808.8000488281</ele>
        <time>2023-07-15T14:04:46.000Z</time>
      </trkpt>
      <trkpt lat="42.52892" lon="2.49351">
        <ele>1809</ele>
        <time>2023-07-15T14:04:47.000Z</time>
      </trkpt>
      <trkpt lat="42.52894" lon="2.49346">
        <ele>1810</ele>
        <time>2023-07-15T14:04:56.000Z</time>
      </trkpt>
      <trkpt lat="42.52892" lon="2.49341">
        <ele>1810.8000488281</ele>
        <time>2023-07-15T14:05:04.000Z</time>
      </trkpt>
      <trkpt lat="42.52892" lon="2.49341">
        <ele>1811</ele>
        <time>2023-07-15T14:05:05.000Z</time>
      </trkpt>
      <trkpt lat="42.52893" lon="2.4934">
        <ele>1812</ele>
        <time>2023-07-15T14:05:12.000Z</time>
      </trkpt>
      <trkpt lat="42.52894" lon="2.49336">
        <ele>1813.1999511719</ele>
        <time>2023-07-15T14:05:21.000Z</time>
      </trkpt>
      <trkpt lat="42.52895" lon="2.49332">
        <ele>1814.1999511719</ele>
        <time>2023-07-15T14:05:30.000Z</time>
      </trkpt>
      <trkpt lat="42.52895" lon="2.49332">
        <ele>1814.1999511719</ele>
        <time>2023-07-15T14:05:31.000Z</time>
      </trkpt>
      <trkpt lat="42.52894" lon="2.49328">
        <ele>1815</ele>
        <time>2023-07-15T14:05:37.000Z</time>
      </trkpt>
      <trkpt lat="42.52894" lon="2.49326">
        <ele>1815.1999511719</ele>
        <time>2023-07-15T14:05:39.000Z</time>
      </trkpt>
      <trkpt lat="42.52893" lon="2.49323">
        <ele>1816.1999511719</ele>
        <time>2023-07-15T14:05:46.000Z</time>
      </trkpt>
      <trkpt lat="42.52893" lon="2.49321">
        <ele>1816.4000244141</ele>
        <time>2023-07-15T14:05:47.000Z</time>
      </trkpt>
      <trkpt lat="42.52892" lon="2.49319">
        <ele>1817</ele>
        <time>2023-07-15T14:05:53.000Z</time>
      </trkpt>
      <trkpt lat="42.52892" lon="2.49319">
        <ele>1817.4000244141</ele>
        <time>2023-07-15T14:05:55.000Z</time>
      </trkpt>
      <trkpt lat="42.52892" lon="2.49315">
        <ele>1818.1999511719</ele>
        <time>2023-07-15T14:06:00.000Z</time>
      </trkpt>
      <trkpt lat="42.52892" lon="2.49314">
        <ele>1818.5999755859</ele>
        <time>2023-07-15T14:06:02.000Z</time>
      </trkpt>
      <trkpt lat="42.5289" lon="2.49309">
        <ele>1819.4000244141</ele>
        <time>2023-07-15T14:06:08.000Z</time>
      </trkpt>
      <trkpt lat="42.52889" lon="2.49306">
        <ele>1819.5999755859</ele>
        <time>2023-07-15T14:06:12.000Z</time>
      </trkpt>
      <trkpt lat="42.5289" lon="2.49302">
        <ele>1820.5999755859</ele>
        <time>2023-07-15T14:06:18.000Z</time>
      </trkpt>
      <trkpt lat="42.5289" lon="2.49302">
        <ele>1820.8000488281</ele>
        <time>2023-07-15T14:06:19.000Z</time>
      </trkpt>
      <trkpt lat="42.52889" lon="2.49294">
        <ele>1822</ele>
        <time>2023-07-15T14:06:26.000Z</time>
      </trkpt>
      <trkpt lat="42.52889" lon="2.49294">
        <ele>1822</ele>
        <time>2023-07-15T14:06:27.000Z</time>
      </trkpt>
      <trkpt lat="42.52887" lon="2.49293">
        <ele>1823</ele>
        <time>2023-07-15T14:06:32.000Z</time>
      </trkpt>
      <trkpt lat="42.52887" lon="2.49292">
        <ele>1823.1999511719</ele>
        <time>2023-07-15T14:06:35.000Z</time>
      </trkpt>
      <trkpt lat="42.52886" lon="2.49289">
        <ele>1824.1999511719</ele>
        <time>2023-07-15T14:06:42.000Z</time>
      </trkpt>
      <trkpt lat="42.52886" lon="2.49287">
        <ele>1824.5999755859</ele>
        <time>2023-07-15T14:06:45.000Z</time>
      </trkpt>
      <trkpt lat="42.52885" lon="2.49286">
        <ele>1825.1999511719</ele>
        <time>2023-07-15T14:06:49.000Z</time>
      </trkpt>
      <trkpt lat="42.52886" lon="2.49285">
        <ele>1825.4000244141</ele>
        <time>2023-07-15T14:06:52.000Z</time>
      </trkpt>
      <trkpt lat="42.52885" lon="2.49282">
        <ele>1826.4000244141</ele>
        <time>2023-07-15T14:06:58.000Z</time>
      </trkpt>
      <trkpt lat="42.52885" lon="2.49282">
        <ele>1826.4000244141</ele>
        <time>2023-07-15T14:06:59.000Z</time>
      </trkpt>
      <trkpt lat="42.52885" lon="2.49281">
        <ele>1826.4000244141</ele>
        <time>2023-07-15T14:07:05.000Z</time>
      </trkpt>
      <trkpt lat="42.52885" lon="2.4928">
        <ele>1826.5999755859</ele>
        <time>2023-07-15T14:07:12.000Z</time>
      </trkpt>
      <trkpt lat="42.52885" lon="2.49275">
        <ele>1827.1999511719</ele>
        <time>2023-07-15T14:07:20.000Z</time>
      </trkpt>
      <trkpt lat="42.52884" lon="2.49274">
        <ele>1827.4000244141</ele>
        <time>2023-07-15T14:07:21.000Z</time>
      </trkpt>
      <trkpt lat="42.52883" lon="2.49272">
        <ele>1828.4000244141</ele>
        <time>2023-07-15T14:07:26.000Z</time>
      </trkpt>
      <trkpt lat="42.52883" lon="2.49271">
        <ele>1829</ele>
        <time>2023-07-15T14:07:29.000Z</time>
      </trkpt>
      <trkpt lat="42.52883" lon="2.49267">
        <ele>1829.5999755859</ele>
        <time>2023-07-15T14:07:34.000Z</time>
      </trkpt>
      <trkpt lat="42.52883" lon="2.49266">
        <ele>1829.8000488281</ele>
        <time>2023-07-15T14:07:36.000Z</time>
      </trkpt>
      <trkpt lat="42.52883" lon="2.49261">
        <ele>1830.8000488281</ele>
        <time>2023-07-15T14:07:42.000Z</time>
      </trkpt>
      <trkpt lat="42.52883" lon="2.4926">
        <ele>1831</ele>
        <time>2023-07-15T14:07:45.000Z</time>
      </trkpt>
      <trkpt lat="42.52881" lon="2.49254">
        <ele>1831.8000488281</ele>
        <time>2023-07-15T14:07:53.000Z</time>
      </trkpt>
      <trkpt lat="42.52881" lon="2.49254">
        <ele>1831.8000488281</ele>
        <time>2023-07-15T14:07:54.000Z</time>
      </trkpt>
      <trkpt lat="42.52877" lon="2.49248">
        <ele>1832.8000488281</ele>
        <time>2023-07-15T14:08:02.000Z</time>
      </trkpt>
      <trkpt lat="42.52876" lon="2.49243">
        <ele>1834</ele>
        <time>2023-07-15T14:08:09.000Z</time>
      </trkpt>
      <trkpt lat="42.52876" lon="2.49243">
        <ele>1834.1999511719</ele>
        <time>2023-07-15T14:08:12.000Z</time>
      </trkpt>
      <trkpt lat="42.52876" lon="2.49238">
        <ele>1835</ele>
        <time>2023-07-15T14:08:19.000Z</time>
      </trkpt>
      <trkpt lat="42.52877" lon="2.49235">
        <ele>1835.4000244141</ele>
        <time>2023-07-15T14:08:22.000Z</time>
      </trkpt>
      <trkpt lat="42.52877" lon="2.49234">
        <ele>1836</ele>
        <time>2023-07-15T14:08:25.000Z</time>
      </trkpt>
      <trkpt lat="42.52876" lon="2.49231">
        <ele>1836.8000488281</ele>
        <time>2023-07-15T14:08:30.000Z</time>
      </trkpt>
      <trkpt lat="42.52874" lon="2.49226">
        <ele>1837.1999511719</ele>
        <time>2023-07-15T14:08:37.000Z</time>
      </trkpt>
      <trkpt lat="42.52871" lon="2.49221">
        <ele>1838</ele>
        <time>2023-07-15T14:08:45.000Z</time>
      </trkpt>
      <trkpt lat="42.5287" lon="2.49219">
        <ele>1838.1999511719</ele>
        <time>2023-07-15T14:08:46.000Z</time>
      </trkpt>
      <trkpt lat="42.52867" lon="2.49213">
        <ele>1839.1999511719</ele>
        <time>2023-07-15T14:08:54.000Z</time>
      </trkpt>
      <trkpt lat="42.52867" lon="2.49212">
        <ele>1839.1999511719</ele>
        <time>2023-07-15T14:08:55.000Z</time>
      </trkpt>
      <trkpt lat="42.52866" lon="2.49209">
        <ele>1840.4000244141</ele>
        <time>2023-07-15T14:09:02.000Z</time>
      </trkpt>
      <trkpt lat="42.52864" lon="2.49205">
        <ele>1841.4000244141</ele>
        <time>2023-07-15T14:09:10.000Z</time>
      </trkpt>
      <trkpt lat="42.52863" lon="2.49203">
        <ele>1841.5999755859</ele>
        <time>2023-07-15T14:09:12.000Z</time>
      </trkpt>
      <trkpt lat="42.52865" lon="2.49199">
        <ele>1842.1999511719</ele>
        <time>2023-07-15T14:09:18.000Z</time>
      </trkpt>
      <trkpt lat="42.52865" lon="2.49196">
        <ele>1842.4000244141</ele>
        <time>2023-07-15T14:09:21.000Z</time>
      </trkpt>
      <trkpt lat="42.52864" lon="2.49195">
        <ele>1842.5999755859</ele>
        <time>2023-07-15T14:09:23.000Z</time>
      </trkpt>
      <trkpt lat="42.52864" lon="2.49194">
        <ele>1842.8000488281</ele>
        <time>2023-07-15T14:09:25.000Z</time>
      </trkpt>
      <trkpt lat="42.52865" lon="2.49194">
        <ele>1843.1999511719</ele>
        <time>2023-07-15T14:09:32.000Z</time>
      </trkpt>
      <trkpt lat="42.52865" lon="2.49193">
        <ele>1843.4000244141</ele>
        <time>2023-07-15T14:09:36.000Z</time>
      </trkpt>
      <trkpt lat="42.52865" lon="2.49194">
        <ele>1843.1999511719</ele>
        <time>2023-07-15T14:09:41.000Z</time>
      </trkpt>
      <trkpt lat="42.52867" lon="2.49191">
        <ele>1843.4000244141</ele>
        <time>2023-07-15T14:09:51.000Z</time>
      </trkpt>
      <trkpt lat="42.52864" lon="2.49186">
        <ele>1843.5999755859</ele>
        <time>2023-07-15T14:09:57.000Z</time>
      </trkpt>
      <trkpt lat="42.52862" lon="2.49179">
        <ele>1844.5999755859</ele>
        <time>2023-07-15T14:10:03.000Z</time>
      </trkpt>
      <trkpt lat="42.52861" lon="2.49178">
        <ele>1844.5999755859</ele>
        <time>2023-07-15T14:10:04.000Z</time>
      </trkpt>
      <trkpt lat="42.52858" lon="2.49172">
        <ele>1845.5999755859</ele>
        <time>2023-07-15T14:10:11.000Z</time>
      </trkpt>
      <trkpt lat="42.52858" lon="2.49172">
        <ele>1845.8000488281</ele>
        <time>2023-07-15T14:10:12.000Z</time>
      </trkpt>
      <trkpt lat="42.52856" lon="2.49165">
        <ele>1846.5999755859</ele>
        <time>2023-07-15T14:10:20.000Z</time>
      </trkpt>
      <trkpt lat="42.52856" lon="2.49163">
        <ele>1846.8000488281</ele>
        <time>2023-07-15T14:10:21.000Z</time>
      </trkpt>
      <trkpt lat="42.52855" lon="2.49156">
        <ele>1847.1999511719</ele>
        <time>2023-07-15T14:10:26.000Z</time>
      </trkpt>
      <trkpt lat="42.52854" lon="2.49151">
        <ele>1847.8000488281</ele>
        <time>2023-07-15T14:10:31.000Z</time>
      </trkpt>
      <trkpt lat="42.52854" lon="2.4915">
        <ele>1847.8000488281</ele>
        <time>2023-07-15T14:10:32.000Z</time>
      </trkpt>
      <trkpt lat="42.52854" lon="2.49143">
        <ele>1848.8000488281</ele>
        <time>2023-07-15T14:10:39.000Z</time>
      </trkpt>
      <trkpt lat="42.52854" lon="2.49141">
        <ele>1848.8000488281</ele>
        <time>2023-07-15T14:10:41.000Z</time>
      </trkpt>
      <trkpt lat="42.52853" lon="2.49134">
        <ele>1849.5999755859</ele>
        <time>2023-07-15T14:10:46.000Z</time>
      </trkpt>
      <trkpt lat="42.52853" lon="2.49133">
        <ele>1850</ele>
        <time>2023-07-15T14:10:48.000Z</time>
      </trkpt>
      <trkpt lat="42.52851" lon="2.49129">
        <ele>1850.8000488281</ele>
        <time>2023-07-15T14:10:53.000Z</time>
      </trkpt>
      <trkpt lat="42.5285" lon="2.4913">
        <ele>1851</ele>
        <time>2023-07-15T14:10:54.000Z</time>
      </trkpt>
      <trkpt lat="42.52848" lon="2.49126">
        <ele>1851.8000488281</ele>
        <time>2023-07-15T14:10:59.000Z</time>
      </trkpt>
      <trkpt lat="42.52848" lon="2.49126">
        <ele>1852</ele>
        <time>2023-07-15T14:11:00.000Z</time>
      </trkpt>
      <trkpt lat="42.52846" lon="2.49117">
        <ele>1853</ele>
        <time>2023-07-15T14:11:08.000Z</time>
      </trkpt>
      <trkpt lat="42.52845" lon="2.49114">
        <ele>1853.1999511719</ele>
        <time>2023-07-15T14:11:11.000Z</time>
      </trkpt>
      <trkpt lat="42.52843" lon="2.49111">
        <ele>1853.5999755859</ele>
        <time>2023-07-15T14:11:16.000Z</time>
      </trkpt>
      <trkpt lat="42.52841" lon="2.49108">
        <ele>1854.1999511719</ele>
        <time>2023-07-15T14:11:19.000Z</time>
      </trkpt>
      <trkpt lat="42.5284" lon="2.49101">
        <ele>1854.8000488281</ele>
        <time>2023-07-15T14:11:26.000Z</time>
      </trkpt>
      <trkpt lat="42.52838" lon="2.49095">
        <ele>1855.4000244141</ele>
        <time>2023-07-15T14:11:34.000Z</time>
      </trkpt>
      <trkpt lat="42.52838" lon="2.49095">
        <ele>1855.5999755859</ele>
        <time>2023-07-15T14:11:35.000Z</time>
      </trkpt>
      <trkpt lat="42.52834" lon="2.49086">
        <ele>1855.8000488281</ele>
        <time>2023-07-15T14:11:41.000Z</time>
      </trkpt>
      <trkpt lat="42.52832" lon="2.49088">
        <ele>1855.8000488281</ele>
        <time>2023-07-15T14:11:49.000Z</time>
      </trkpt>
      <trkpt lat="42.52831" lon="2.49086">
        <ele>1855.8000488281</ele>
        <time>2023-07-15T14:11:52.000Z</time>
      </trkpt>
      <trkpt lat="42.5283" lon="2.49086">
        <ele>1855.8000488281</ele>
        <time>2023-07-15T14:11:55.000Z</time>
      </trkpt>
      <trkpt lat="42.52828" lon="2.49087">
        <ele>1856.1999511719</ele>
        <time>2023-07-15T14:12:03.000Z</time>
      </trkpt>
      <trkpt lat="42.5283" lon="2.49087">
        <ele>1856.1999511719</ele>
        <time>2023-07-15T14:12:11.000Z</time>
      </trkpt>
      <trkpt lat="42.5283" lon="2.49088">
        <ele>1856.1999511719</ele>
        <time>2023-07-15T14:12:21.000Z</time>
      </trkpt>
      <trkpt lat="42.52831" lon="2.49088">
        <ele>1856.1999511719</ele>
        <time>2023-07-15T14:12:26.000Z</time>
      </trkpt>
      <trkpt lat="42.52829" lon="2.49084">
        <ele>1855.8000488281</ele>
        <time>2023-07-15T14:12:33.000Z</time>
      </trkpt>
      <trkpt lat="42.52825" lon="2.49075">
        <ele>1854.4000244141</ele>
        <time>2023-07-15T14:12:41.000Z</time>
      </trkpt>
      <trkpt lat="42.52825" lon="2.49073">
        <ele>1854.4000244141</ele>
        <time>2023-07-15T14:12:42.000Z</time>
      </trkpt>
      <trkpt lat="42.52825" lon="2.4907">
        <ele>1854.1999511719</ele>
        <time>2023-07-15T14:12:47.000Z</time>
      </trkpt>
      <trkpt lat="42.52826" lon="2.49067">
        <ele>1854.1999511719</ele>
        <time>2023-07-15T14:12:53.000Z</time>
      </trkpt>
      <trkpt lat="42.52824" lon="2.4906">
        <ele>1854.4000244141</ele>
        <time>2023-07-15T14:12:58.000Z</time>
      </trkpt>
      <trkpt lat="42.52822" lon="2.49057">
        <ele>1854.5999755859</ele>
        <time>2023-07-15T14:13:06.000Z</time>
      </trkpt>
      <trkpt lat="42.5282" lon="2.49054">
        <ele>1855</ele>
        <time>2023-07-15T14:13:12.000Z</time>
      </trkpt>
      <trkpt lat="42.52818" lon="2.49052">
        <ele>1855.5999755859</ele>
        <time>2023-07-15T14:13:15.000Z</time>
      </trkpt>
      <trkpt lat="42.52816" lon="2.49051">
        <ele>1856.8000488281</ele>
        <time>2023-07-15T14:13:17.000Z</time>
      </trkpt>
      <trkpt lat="42.52815" lon="2.4905">
        <ele>1857.8000488281</ele>
        <time>2023-07-15T14:13:20.000Z</time>
      </trkpt>
      <trkpt lat="42.52814" lon="2.4905">
        <ele>1858</ele>
        <time>2023-07-15T14:13:21.000Z</time>
      </trkpt>
      <trkpt lat="42.5281" lon="2.49046">
        <ele>1858.4000244141</ele>
        <time>2023-07-15T14:13:30.000Z</time>
      </trkpt>
      <trkpt lat="42.5281" lon="2.49042">
        <ele>1859</ele>
        <time>2023-07-15T14:13:34.000Z</time>
      </trkpt>
      <trkpt lat="42.5281" lon="2.4904">
        <ele>1859.4000244141</ele>
        <time>2023-07-15T14:13:36.000Z</time>
      </trkpt>
      <trkpt lat="42.52809" lon="2.49034">
        <ele>1859.5999755859</ele>
        <time>2023-07-15T14:13:41.000Z</time>
      </trkpt>
      <trkpt lat="42.52809" lon="2.49031">
        <ele>1860.1999511719</ele>
        <time>2023-07-15T14:13:45.000Z</time>
      </trkpt>
      <trkpt lat="42.52808" lon="2.49029">
        <ele>1860.4000244141</ele>
        <time>2023-07-15T14:13:48.000Z</time>
      </trkpt>
      <trkpt lat="42.52806" lon="2.49024">
        <ele>1861.1999511719</ele>
        <time>2023-07-15T14:13:54.000Z</time>
      </trkpt>
      <trkpt lat="42.52803" lon="2.49021">
        <ele>1862.4000244141</ele>
        <time>2023-07-15T14:14:01.000Z</time>
      </trkpt>
      <trkpt lat="42.52804" lon="2.49019">
        <ele>1862.5999755859</ele>
        <time>2023-07-15T14:14:03.000Z</time>
      </trkpt>
      <trkpt lat="42.52803" lon="2.49017">
        <ele>1863.4000244141</ele>
        <time>2023-07-15T14:14:08.000Z</time>
      </trkpt>
      <trkpt lat="42.52802" lon="2.49013">
        <ele>1864.1999511719</ele>
        <time>2023-07-15T14:14:13.000Z</time>
      </trkpt>
      <trkpt lat="42.52801" lon="2.49009">
        <ele>1864.4000244141</ele>
        <time>2023-07-15T14:14:16.000Z</time>
      </trkpt>
      <trkpt lat="42.52799" lon="2.49004">
        <ele>1865.4000244141</ele>
        <time>2023-07-15T14:14:22.000Z</time>
      </trkpt>
      <trkpt lat="42.52798" lon="2.49003">
        <ele>1865.5999755859</ele>
        <time>2023-07-15T14:14:24.000Z</time>
      </trkpt>
      <trkpt lat="42.52796" lon="2.48998">
        <ele>1866.1999511719</ele>
        <time>2023-07-15T14:14:31.000Z</time>
      </trkpt>
      <trkpt lat="42.52794" lon="2.4899">
        <ele>1866.5999755859</ele>
        <time>2023-07-15T14:14:39.000Z</time>
      </trkpt>
      <trkpt lat="42.52792" lon="2.48984">
        <ele>1867.5999755859</ele>
        <time>2023-07-15T14:14:46.000Z</time>
      </trkpt>
      <trkpt lat="42.52791" lon="2.4898">
        <ele>1868.4000244141</ele>
        <time>2023-07-15T14:14:54.000Z</time>
      </trkpt>
      <trkpt lat="42.5279" lon="2.48978">
        <ele>1868.8000488281</ele>
        <time>2023-07-15T14:14:56.000Z</time>
      </trkpt>
      <trkpt lat="42.52789" lon="2.48975">
        <ele>1869.5999755859</ele>
        <time>2023-07-15T14:15:01.000Z</time>
      </trkpt>
      <trkpt lat="42.52788" lon="2.48973">
        <ele>1869.8000488281</ele>
        <time>2023-07-15T14:15:03.000Z</time>
      </trkpt>
      <trkpt lat="42.52786" lon="2.48969">
        <ele>1870.8000488281</ele>
        <time>2023-07-15T14:15:09.000Z</time>
      </trkpt>
      <trkpt lat="42.52786" lon="2.48969">
        <ele>1871</ele>
        <time>2023-07-15T14:15:10.000Z</time>
      </trkpt>
      <trkpt lat="42.52786" lon="2.48965">
        <ele>1872</ele>
        <time>2023-07-15T14:15:17.000Z</time>
      </trkpt>
      <trkpt lat="42.52785" lon="2.48962">
        <ele>1873</ele>
        <time>2023-07-15T14:15:25.000Z</time>
      </trkpt>
      <trkpt lat="42.52784" lon="2.48962">
        <ele>1873.4000244141</ele>
        <time>2023-07-15T14:15:27.000Z</time>
      </trkpt>
      <trkpt lat="42.52783" lon="2.48959">
        <ele>1874.1999511719</ele>
        <time>2023-07-15T14:15:33.000Z</time>
      </trkpt>
      <trkpt lat="42.52783" lon="2.48959">
        <ele>1874.4000244141</ele>
        <time>2023-07-15T14:15:34.000Z</time>
      </trkpt>
      <trkpt lat="42.52783" lon="2.48955">
        <ele>1875</ele>
        <time>2023-07-15T14:15:40.000Z</time>
      </trkpt>
      <trkpt lat="42.52783" lon="2.48954">
        <ele>1875.1999511719</ele>
        <time>2023-07-15T14:15:41.000Z</time>
      </trkpt>
      <trkpt lat="42.52783" lon="2.4895">
        <ele>1876.4000244141</ele>
        <time>2023-07-15T14:15:48.000Z</time>
      </trkpt>
      <trkpt lat="42.52781" lon="2.48948">
        <ele>1877.5999755859</ele>
        <time>2023-07-15T14:15:55.000Z</time>
      </trkpt>
      <trkpt lat="42.52781" lon="2.48947">
        <ele>1877.8000488281</ele>
        <time>2023-07-15T14:15:56.000Z</time>
      </trkpt>
      <trkpt lat="42.52782" lon="2.48945">
        <ele>1878.5999755859</ele>
        <time>2023-07-15T14:16:02.000Z</time>
      </trkpt>
      <trkpt lat="42.52782" lon="2.48945">
        <ele>1879</ele>
        <time>2023-07-15T14:16:04.000Z</time>
      </trkpt>
      <trkpt lat="42.52782" lon="2.48942">
        <ele>1879.8000488281</ele>
        <time>2023-07-15T14:16:09.000Z</time>
      </trkpt>
      <trkpt lat="42.52781" lon="2.48941">
        <ele>1880.1999511719</ele>
        <time>2023-07-15T14:16:12.000Z</time>
      </trkpt>
      <trkpt lat="42.5278" lon="2.4894">
        <ele>1880.4000244141</ele>
        <time>2023-07-15T14:16:13.000Z</time>
      </trkpt>
      <trkpt lat="42.52777" lon="2.48938">
        <ele>1880.8000488281</ele>
        <time>2023-07-15T14:16:16.000Z</time>
      </trkpt>
      <trkpt lat="42.52777" lon="2.48938">
        <ele>1881.4000244141</ele>
        <time>2023-07-15T14:16:19.000Z</time>
      </trkpt>
      <trkpt lat="42.52774" lon="2.48937">
        <ele>1882</ele>
        <time>2023-07-15T14:16:22.000Z</time>
      </trkpt>
      <trkpt lat="42.52771" lon="2.48933">
        <ele>1882.5999755859</ele>
        <time>2023-07-15T14:16:26.000Z</time>
      </trkpt>
      <trkpt lat="42.5277" lon="2.48932">
        <ele>1883.1999511719</ele>
        <time>2023-07-15T14:16:30.000Z</time>
      </trkpt>
      <trkpt lat="42.52768" lon="2.48931">
        <ele>1884</ele>
        <time>2023-07-15T14:16:34.000Z</time>
      </trkpt>
      <trkpt lat="42.52766" lon="2.4893">
        <ele>1884.1999511719</ele>
        <time>2023-07-15T14:16:36.000Z</time>
      </trkpt>
      <trkpt lat="42.52763" lon="2.48929">
        <ele>1885</ele>
        <time>2023-07-15T14:16:41.000Z</time>
      </trkpt>
      <trkpt lat="42.52762" lon="2.48926">
        <ele>1885.1999511719</ele>
        <time>2023-07-15T14:16:44.000Z</time>
      </trkpt>
      <trkpt lat="42.52763" lon="2.48925">
        <ele>1885.5999755859</ele>
        <time>2023-07-15T14:16:46.000Z</time>
      </trkpt>
      <trkpt lat="42.52765" lon="2.48925">
        <ele>1886</ele>
        <time>2023-07-15T14:16:49.000Z</time>
      </trkpt>
      <trkpt lat="42.52768" lon="2.48924">
        <ele>1886.4000244141</ele>
        <time>2023-07-15T14:16:52.000Z</time>
      </trkpt>
      <trkpt lat="42.5277" lon="2.48923">
        <ele>1887</ele>
        <time>2023-07-15T14:16:56.000Z</time>
      </trkpt>
      <trkpt lat="42.52769" lon="2.48923">
        <ele>1887.4000244141</ele>
        <time>2023-07-15T14:16:59.000Z</time>
      </trkpt>
      <trkpt lat="42.52768" lon="2.48921">
        <ele>1887.8000488281</ele>
        <time>2023-07-15T14:17:03.000Z</time>
      </trkpt>
      <trkpt lat="42.52767" lon="2.48918">
        <ele>1888.5999755859</ele>
        <time>2023-07-15T14:17:07.000Z</time>
      </trkpt>
      <trkpt lat="42.52766" lon="2.48916">
        <ele>1889</ele>
        <time>2023-07-15T14:17:10.000Z</time>
      </trkpt>
      <trkpt lat="42.52767" lon="2.48917">
        <ele>1889.5999755859</ele>
        <time>2023-07-15T14:17:15.000Z</time>
      </trkpt>
      <trkpt lat="42.52767" lon="2.48919">
        <ele>1889.5999755859</ele>
        <time>2023-07-15T14:17:18.000Z</time>
      </trkpt>
      <trkpt lat="42.52766" lon="2.48915">
        <ele>1890</ele>
        <time>2023-07-15T14:17:24.000Z</time>
      </trkpt>
      <trkpt lat="42.52765" lon="2.48911">
        <ele>1890.5999755859</ele>
        <time>2023-07-15T14:17:30.000Z</time>
      </trkpt>
      <trkpt lat="42.52765" lon="2.48909">
        <ele>1890.8000488281</ele>
        <time>2023-07-15T14:17:32.000Z</time>
      </trkpt>
      <trkpt lat="42.52762" lon="2.48908">
        <ele>1891.5999755859</ele>
        <time>2023-07-15T14:17:38.000Z</time>
      </trkpt>
      <trkpt lat="42.5276" lon="2.48906">
        <ele>1892.1999511719</ele>
        <time>2023-07-15T14:17:41.000Z</time>
      </trkpt>
      <trkpt lat="42.5276" lon="2.48906">
        <ele>1892.8000488281</ele>
        <time>2023-07-15T14:17:45.000Z</time>
      </trkpt>
      <trkpt lat="42.52761" lon="2.48906">
        <ele>1893</ele>
        <time>2023-07-15T14:17:47.000Z</time>
      </trkpt>
      <trkpt lat="42.5276" lon="2.48902">
        <ele>1894</ele>
        <time>2023-07-15T14:17:53.000Z</time>
      </trkpt>
      <trkpt lat="42.52759" lon="2.48901">
        <ele>1894.4000244141</ele>
        <time>2023-07-15T14:17:56.000Z</time>
      </trkpt>
      <trkpt lat="42.52758" lon="2.48901">
        <ele>1895.1999511719</ele>
        <time>2023-07-15T14:18:02.000Z</time>
      </trkpt>
      <trkpt lat="42.52758" lon="2.48901">
        <ele>1895.1999511719</ele>
        <time>2023-07-15T14:18:03.000Z</time>
      </trkpt>
      <trkpt lat="42.52758" lon="2.48899">
        <ele>1895.5999755859</ele>
        <time>2023-07-15T14:18:06.000Z</time>
      </trkpt>
      <trkpt lat="42.52756" lon="2.48895">
        <ele>1896.1999511719</ele>
        <time>2023-07-15T14:18:10.000Z</time>
      </trkpt>
      <trkpt lat="42.52753" lon="2.48892">
        <ele>1897.4000244141</ele>
        <time>2023-07-15T14:18:17.000Z</time>
      </trkpt>
      <trkpt lat="42.52753" lon="2.48891">
        <ele>1897.5999755859</ele>
        <time>2023-07-15T14:18:18.000Z</time>
      </trkpt>
      <trkpt lat="42.52751" lon="2.48891">
        <ele>1898.4000244141</ele>
        <time>2023-07-15T14:18:23.000Z</time>
      </trkpt>
      <trkpt lat="42.52749" lon="2.48889">
        <ele>1899.1999511719</ele>
        <time>2023-07-15T14:18:27.000Z</time>
      </trkpt>
      <trkpt lat="42.52748" lon="2.48886">
        <ele>1899.5999755859</ele>
        <time>2023-07-15T14:18:30.000Z</time>
      </trkpt>
      <trkpt lat="42.52749" lon="2.48884">
        <ele>1900.5999755859</ele>
        <time>2023-07-15T14:18:36.000Z</time>
      </trkpt>
      <trkpt lat="42.5275" lon="2.48883">
        <ele>1900.8000488281</ele>
        <time>2023-07-15T14:18:37.000Z</time>
      </trkpt>
      <trkpt lat="42.5275" lon="2.48882">
        <ele>1901.4000244141</ele>
        <time>2023-07-15T14:18:42.000Z</time>
      </trkpt>
      <trkpt lat="42.52749" lon="2.4888">
        <ele>1901.8000488281</ele>
        <time>2023-07-15T14:18:46.000Z</time>
      </trkpt>
      <trkpt lat="42.52749" lon="2.4888">
        <ele>1903.1999511719</ele>
        <time>2023-07-15T14:18:50.000Z</time>
      </trkpt>
      <trkpt lat="42.52747" lon="2.48877">
        <ele>1904</ele>
        <time>2023-07-15T14:18:57.000Z</time>
      </trkpt>
      <trkpt lat="42.52747" lon="2.48876">
        <ele>1904.1999511719</ele>
        <time>2023-07-15T14:18:59.000Z</time>
      </trkpt>
      <trkpt lat="42.52744" lon="2.48874">
        <ele>1905</ele>
        <time>2023-07-15T14:19:06.000Z</time>
      </trkpt>
      <trkpt lat="42.52744" lon="2.48874">
        <ele>1905.1999511719</ele>
        <time>2023-07-15T14:19:07.000Z</time>
      </trkpt>
      <trkpt lat="42.52745" lon="2.48874">
        <ele>1905.5999755859</ele>
        <time>2023-07-15T14:19:14.000Z</time>
      </trkpt>
      <trkpt lat="42.52747" lon="2.48871">
        <ele>1906.1999511719</ele>
        <time>2023-07-15T14:19:18.000Z</time>
      </trkpt>
      <trkpt lat="42.52749" lon="2.48869">
        <ele>1907.1999511719</ele>
        <time>2023-07-15T14:19:22.000Z</time>
      </trkpt>
      <trkpt lat="42.52749" lon="2.48869">
        <ele>1907.4000244141</ele>
        <time>2023-07-15T14:19:23.000Z</time>
      </trkpt>
      <trkpt lat="42.52745" lon="2.48868">
        <ele>1908.4000244141</ele>
        <time>2023-07-15T14:19:28.000Z</time>
      </trkpt>
      <trkpt lat="42.52745" lon="2.48867">
        <ele>1908.5999755859</ele>
        <time>2023-07-15T14:19:29.000Z</time>
      </trkpt>
      <trkpt lat="42.52746" lon="2.48862">
        <ele>1909.5999755859</ele>
        <time>2023-07-15T14:19:33.000Z</time>
      </trkpt>
      <trkpt lat="42.52745" lon="2.4886">
        <ele>1910.1999511719</ele>
        <time>2023-07-15T14:19:36.000Z</time>
      </trkpt>
      <trkpt lat="42.52744" lon="2.4886">
        <ele>1910.5999755859</ele>
        <time>2023-07-15T14:19:39.000Z</time>
      </trkpt>
      <trkpt lat="42.52743" lon="2.4886">
        <ele>1911.1999511719</ele>
        <time>2023-07-15T14:19:43.000Z</time>
      </trkpt>
      <trkpt lat="42.52741" lon="2.48859">
        <ele>1911.5999755859</ele>
        <time>2023-07-15T14:19:47.000Z</time>
      </trkpt>
      <trkpt lat="42.5274" lon="2.48858">
        <ele>1911.8000488281</ele>
        <time>2023-07-15T14:19:49.000Z</time>
      </trkpt>
      <trkpt lat="42.52739" lon="2.48854">
        <ele>1912.8000488281</ele>
        <time>2023-07-15T14:19:56.000Z</time>
      </trkpt>
      <trkpt lat="42.5274" lon="2.48853">
        <ele>1913.1999511719</ele>
        <time>2023-07-15T14:19:58.000Z</time>
      </trkpt>
      <trkpt lat="42.5274" lon="2.48853">
        <ele>1914</ele>
        <time>2023-07-15T14:20:02.000Z</time>
      </trkpt>
      <trkpt lat="42.52741" lon="2.48851">
        <ele>1914.5999755859</ele>
        <time>2023-07-15T14:20:05.000Z</time>
      </trkpt>
      <trkpt lat="42.52742" lon="2.4885">
        <ele>1915</ele>
        <time>2023-07-15T14:20:07.000Z</time>
      </trkpt>
      <trkpt lat="42.52744" lon="2.48848">
        <ele>1916.4000244141</ele>
        <time>2023-07-15T14:20:13.000Z</time>
      </trkpt>
      <trkpt lat="42.52745" lon="2.48846">
        <ele>1917.5999755859</ele>
        <time>2023-07-15T14:20:18.000Z</time>
      </trkpt>
      <trkpt lat="42.52746" lon="2.48845">
        <ele>1918.4000244141</ele>
        <time>2023-07-15T14:20:20.000Z</time>
      </trkpt>
      <trkpt lat="42.52746" lon="2.48844">
        <ele>1918.4000244141</ele>
        <time>2023-07-15T14:20:26.000Z</time>
      </trkpt>
      <trkpt lat="42.52746" lon="2.48843">
        <ele>1918.8000488281</ele>
        <time>2023-07-15T14:20:32.000Z</time>
      </trkpt>
      <trkpt lat="42.52745" lon="2.48842">
        <ele>1919</ele>
        <time>2023-07-15T14:20:35.000Z</time>
      </trkpt>
      <trkpt lat="42.52747" lon="2.48842">
        <ele>1919</ele>
        <time>2023-07-15T14:20:42.000Z</time>
      </trkpt>
      <trkpt lat="42.52748" lon="2.48836">
        <ele>1919.8000488281</ele>
        <time>2023-07-15T14:20:49.000Z</time>
      </trkpt>
      <trkpt lat="42.52747" lon="2.48835">
        <ele>1919.8000488281</ele>
        <time>2023-07-15T14:20:50.000Z</time>
      </trkpt>
      <trkpt lat="42.52744" lon="2.48834">
        <ele>1920.8000488281</ele>
        <time>2023-07-15T14:20:57.000Z</time>
      </trkpt>
      <trkpt lat="42.52744" lon="2.48834">
        <ele>1921</ele>
        <time>2023-07-15T14:20:58.000Z</time>
      </trkpt>
      <trkpt lat="42.52744" lon="2.48834">
        <ele>1921.8000488281</ele>
        <time>2023-07-15T14:21:03.000Z</time>
      </trkpt>
      <trkpt lat="42.52744" lon="2.48834">
        <ele>1923</ele>
        <time>2023-07-15T14:21:06.000Z</time>
      </trkpt>
      <trkpt lat="42.52739" lon="2.48831">
        <ele>1924</ele>
        <time>2023-07-15T14:21:14.000Z</time>
      </trkpt>
      <trkpt lat="42.52738" lon="2.48831">
        <ele>1924.1999511719</ele>
        <time>2023-07-15T14:21:16.000Z</time>
      </trkpt>
      <trkpt lat="42.52737" lon="2.48827">
        <ele>1925.1999511719</ele>
        <time>2023-07-15T14:21:23.000Z</time>
      </trkpt>
      <trkpt lat="42.52736" lon="2.48825">
        <ele>1926.4000244141</ele>
        <time>2023-07-15T14:21:29.000Z</time>
      </trkpt>
      <trkpt lat="42.52736" lon="2.48824">
        <ele>1926.4000244141</ele>
        <time>2023-07-15T14:21:30.000Z</time>
      </trkpt>
      <trkpt lat="42.52729" lon="2.48821">
        <ele>1927.1999511719</ele>
        <time>2023-07-15T14:21:38.000Z</time>
      </trkpt>
      <trkpt lat="42.52729" lon="2.4882">
        <ele>1927.4000244141</ele>
        <time>2023-07-15T14:21:39.000Z</time>
      </trkpt>
      <trkpt lat="42.52728" lon="2.48817">
        <ele>1928.5999755859</ele>
        <time>2023-07-15T14:21:44.000Z</time>
      </trkpt>
      <trkpt lat="42.52728" lon="2.48813">
        <ele>1929.1999511719</ele>
        <time>2023-07-15T14:21:47.000Z</time>
      </trkpt>
      <trkpt lat="42.52728" lon="2.48812">
        <ele>1929.5999755859</ele>
        <time>2023-07-15T14:21:48.000Z</time>
      </trkpt>
      <trkpt lat="42.5273" lon="2.48805">
        <ele>1930.4000244141</ele>
        <time>2023-07-15T14:21:55.000Z</time>
      </trkpt>
      <trkpt lat="42.52731" lon="2.48803">
        <ele>1930.5999755859</ele>
        <time>2023-07-15T14:21:57.000Z</time>
      </trkpt>
      <trkpt lat="42.52733" lon="2.48801">
        <ele>1931.5999755859</ele>
        <time>2023-07-15T14:22:04.000Z</time>
      </trkpt>
      <trkpt lat="42.52733" lon="2.48801">
        <ele>1931.5999755859</ele>
        <time>2023-07-15T14:22:05.000Z</time>
      </trkpt>
      <trkpt lat="42.52736" lon="2.48797">
        <ele>1932.4000244141</ele>
        <time>2023-07-15T14:22:12.000Z</time>
      </trkpt>
      <trkpt lat="42.52737" lon="2.48795">
        <ele>1932.8000488281</ele>
        <time>2023-07-15T14:22:15.000Z</time>
      </trkpt>
      <trkpt lat="42.52735" lon="2.48793">
        <ele>1933.5999755859</ele>
        <time>2023-07-15T14:22:21.000Z</time>
      </trkpt>
      <trkpt lat="42.52735" lon="2.48791">
        <ele>1934</ele>
        <time>2023-07-15T14:22:23.000Z</time>
      </trkpt>
      <trkpt lat="42.52735" lon="2.48788">
        <ele>1934.8000488281</ele>
        <time>2023-07-15T14:22:29.000Z</time>
      </trkpt>
      <trkpt lat="42.52735" lon="2.48788">
        <ele>1935</ele>
        <time>2023-07-15T14:22:30.000Z</time>
      </trkpt>
      <trkpt lat="42.5274" lon="2.48785">
        <ele>1935.8000488281</ele>
        <time>2023-07-15T14:22:36.000Z</time>
      </trkpt>
      <trkpt lat="42.52742" lon="2.48785">
        <ele>1936.1999511719</ele>
        <time>2023-07-15T14:22:39.000Z</time>
      </trkpt>
      <trkpt lat="42.52743" lon="2.48784">
        <ele>1936.1999511719</ele>
        <time>2023-07-15T14:22:45.000Z</time>
      </trkpt>
      <trkpt lat="42.52742" lon="2.48784">
        <ele>1936.4000244141</ele>
        <time>2023-07-15T14:22:53.000Z</time>
      </trkpt>
      <trkpt lat="42.52741" lon="2.48779">
        <ele>1936.8000488281</ele>
        <time>2023-07-15T14:23:01.000Z</time>
      </trkpt>
      <trkpt lat="42.52742" lon="2.48776">
        <ele>1937.4000244141</ele>
        <time>2023-07-15T14:23:06.000Z</time>
      </trkpt>
      <trkpt lat="42.52742" lon="2.48776">
        <ele>1937.8000488281</ele>
        <time>2023-07-15T14:23:08.000Z</time>
      </trkpt>
      <trkpt lat="42.52743" lon="2.48774">
        <ele>1938.5999755859</ele>
        <time>2023-07-15T14:23:13.000Z</time>
      </trkpt>
      <trkpt lat="42.52743" lon="2.48774">
        <ele>1939</ele>
        <time>2023-07-15T14:23:15.000Z</time>
      </trkpt>
      <trkpt lat="42.52743" lon="2.48773">
        <ele>1939.5999755859</ele>
        <time>2023-07-15T14:23:19.000Z</time>
      </trkpt>
      <trkpt lat="42.52742" lon="2.48771">
        <ele>1940.5999755859</ele>
        <time>2023-07-15T14:23:25.000Z</time>
      </trkpt>
      <trkpt lat="42.52743" lon="2.48769">
        <ele>1940.8000488281</ele>
        <time>2023-07-15T14:23:27.000Z</time>
      </trkpt>
      <trkpt lat="42.52746" lon="2.48764">
        <ele>1941.5999755859</ele>
        <time>2023-07-15T14:23:32.000Z</time>
      </trkpt>
      <trkpt lat="42.52747" lon="2.48761">
        <ele>1941.8000488281</ele>
        <time>2023-07-15T14:23:35.000Z</time>
      </trkpt>
      <trkpt lat="42.52747" lon="2.48757">
        <ele>1943</ele>
        <time>2023-07-15T14:23:41.000Z</time>
      </trkpt>
      <trkpt lat="42.52747" lon="2.48755">
        <ele>1944</ele>
        <time>2023-07-15T14:23:45.000Z</time>
      </trkpt>
      <trkpt lat="42.52747" lon="2.48754">
        <ele>1944.5999755859</ele>
        <time>2023-07-15T14:23:48.000Z</time>
      </trkpt>
      <trkpt lat="42.52748" lon="2.48754">
        <ele>1945.1999511719</ele>
        <time>2023-07-15T14:23:51.000Z</time>
      </trkpt>
      <trkpt lat="42.52749" lon="2.48753">
        <ele>1946.1999511719</ele>
        <time>2023-07-15T14:23:56.000Z</time>
      </trkpt>
      <trkpt lat="42.52749" lon="2.48752">
        <ele>1946.4000244141</ele>
        <time>2023-07-15T14:23:58.000Z</time>
      </trkpt>
      <trkpt lat="42.52748" lon="2.48751">
        <ele>1947</ele>
        <time>2023-07-15T14:24:03.000Z</time>
      </trkpt>
      <trkpt lat="42.52748" lon="2.48749">
        <ele>1947.5999755859</ele>
        <time>2023-07-15T14:24:06.000Z</time>
      </trkpt>
      <trkpt lat="42.52747" lon="2.48749">
        <ele>1948.1999511719</ele>
        <time>2023-07-15T14:24:12.000Z</time>
      </trkpt>
      <trkpt lat="42.52746" lon="2.48747">
        <ele>1948.8000488281</ele>
        <time>2023-07-15T14:24:14.000Z</time>
      </trkpt>
      <trkpt lat="42.52743" lon="2.48744">
        <ele>1950</ele>
        <time>2023-07-15T14:24:19.000Z</time>
      </trkpt>
      <trkpt lat="42.52743" lon="2.48743">
        <ele>1950.4000244141</ele>
        <time>2023-07-15T14:24:21.000Z</time>
      </trkpt>
      <trkpt lat="42.5274" lon="2.4874">
        <ele>1950.8000488281</ele>
        <time>2023-07-15T14:24:29.000Z</time>
      </trkpt>
      <trkpt lat="42.52739" lon="2.4874">
        <ele>1951</ele>
        <time>2023-07-15T14:24:31.000Z</time>
      </trkpt>
      <trkpt lat="42.52734" lon="2.48739">
        <ele>1952</ele>
        <time>2023-07-15T14:24:37.000Z</time>
      </trkpt>
      <trkpt lat="42.52734" lon="2.48739">
        <ele>1952.1999511719</ele>
        <time>2023-07-15T14:24:38.000Z</time>
      </trkpt>
      <trkpt lat="42.52731" lon="2.48737">
        <ele>1953</ele>
        <time>2023-07-15T14:24:45.000Z</time>
      </trkpt>
      <trkpt lat="42.5273" lon="2.48737">
        <ele>1953.1999511719</ele>
        <time>2023-07-15T14:24:46.000Z</time>
      </trkpt>
      <trkpt lat="42.52727" lon="2.48736">
        <ele>1954.1999511719</ele>
        <time>2023-07-15T14:24:53.000Z</time>
      </trkpt>
      <trkpt lat="42.52726" lon="2.48736">
        <ele>1954.5999755859</ele>
        <time>2023-07-15T14:24:55.000Z</time>
      </trkpt>
      <trkpt lat="42.52726" lon="2.48735">
        <ele>1955.4000244141</ele>
        <time>2023-07-15T14:24:59.000Z</time>
      </trkpt>
      <trkpt lat="42.52725" lon="2.48734">
        <ele>1955.8000488281</ele>
        <time>2023-07-15T14:25:03.000Z</time>
      </trkpt>
      <trkpt lat="42.52722" lon="2.48731">
        <ele>1956.5999755859</ele>
        <time>2023-07-15T14:25:08.000Z</time>
      </trkpt>
      <trkpt lat="42.52722" lon="2.4873">
        <ele>1957</ele>
        <time>2023-07-15T14:25:10.000Z</time>
      </trkpt>
      <trkpt lat="42.5272" lon="2.48728">
        <ele>1957.5999755859</ele>
        <time>2023-07-15T14:25:14.000Z</time>
      </trkpt>
      <trkpt lat="42.52719" lon="2.48726">
        <ele>1958.1999511719</ele>
        <time>2023-07-15T14:25:18.000Z</time>
      </trkpt>
      <trkpt lat="42.52718" lon="2.48725">
        <ele>1958.5999755859</ele>
        <time>2023-07-15T14:25:22.000Z</time>
      </trkpt>
      <trkpt lat="42.52716" lon="2.48722">
        <ele>1959.8000488281</ele>
        <time>2023-07-15T14:25:28.000Z</time>
      </trkpt>
      <trkpt lat="42.52716" lon="2.48722">
        <ele>1960</ele>
        <time>2023-07-15T14:25:29.000Z</time>
      </trkpt>
      <trkpt lat="42.52712" lon="2.48721">
        <ele>1961.1999511719</ele>
        <time>2023-07-15T14:25:35.000Z</time>
      </trkpt>
      <trkpt lat="42.5271" lon="2.4872">
        <ele>1961.5999755859</ele>
        <time>2023-07-15T14:25:38.000Z</time>
      </trkpt>
      <trkpt lat="42.52711" lon="2.48718">
        <ele>1962.1999511719</ele>
        <time>2023-07-15T14:25:43.000Z</time>
      </trkpt>
      <trkpt lat="42.52712" lon="2.48718">
        <ele>1962.8000488281</ele>
        <time>2023-07-15T14:25:45.000Z</time>
      </trkpt>
      <trkpt lat="42.52713" lon="2.48717">
        <ele>1963.4000244141</ele>
        <time>2023-07-15T14:25:49.000Z</time>
      </trkpt>
      <trkpt lat="42.52716" lon="2.48715">
        <ele>1963.8000488281</ele>
        <time>2023-07-15T14:25:53.000Z</time>
      </trkpt>
      <trkpt lat="42.52718" lon="2.48713">
        <ele>1964.4000244141</ele>
        <time>2023-07-15T14:25:56.000Z</time>
      </trkpt>
      <trkpt lat="42.52721" lon="2.48711">
        <ele>1964.8000488281</ele>
        <time>2023-07-15T14:26:00.000Z</time>
      </trkpt>
      <trkpt lat="42.52725" lon="2.48708">
        <ele>1965</ele>
        <time>2023-07-15T14:26:08.000Z</time>
      </trkpt>
      <trkpt lat="42.52727" lon="2.48707">
        <ele>1965.5999755859</ele>
        <time>2023-07-15T14:26:12.000Z</time>
      </trkpt>
      <trkpt lat="42.52729" lon="2.48705">
        <ele>1966.5999755859</ele>
        <time>2023-07-15T14:26:16.000Z</time>
      </trkpt>
      <trkpt lat="42.5273" lon="2.48704">
        <ele>1967</ele>
        <time>2023-07-15T14:26:18.000Z</time>
      </trkpt>
      <trkpt lat="42.5273" lon="2.48701">
        <ele>1967.4000244141</ele>
        <time>2023-07-15T14:26:24.000Z</time>
      </trkpt>
      <trkpt lat="42.52729" lon="2.487">
        <ele>1967.4000244141</ele>
        <time>2023-07-15T14:26:25.000Z</time>
      </trkpt>
      <trkpt lat="42.52729" lon="2.48698">
        <ele>1967.5999755859</ele>
        <time>2023-07-15T14:26:28.000Z</time>
      </trkpt>
      <trkpt lat="42.52728" lon="2.48696">
        <ele>1968.4000244141</ele>
        <time>2023-07-15T14:26:34.000Z</time>
      </trkpt>
      <trkpt lat="42.52727" lon="2.48695">
        <ele>1968.8000488281</ele>
        <time>2023-07-15T14:26:36.000Z</time>
      </trkpt>
      <trkpt lat="42.52725" lon="2.48695">
        <ele>1969.5999755859</ele>
        <time>2023-07-15T14:26:43.000Z</time>
      </trkpt>
      <trkpt lat="42.52724" lon="2.48695">
        <ele>1970.1999511719</ele>
        <time>2023-07-15T14:26:45.000Z</time>
      </trkpt>
      <trkpt lat="42.52722" lon="2.48689">
        <ele>1971.4000244141</ele>
        <time>2023-07-15T14:26:52.000Z</time>
      </trkpt>
      <trkpt lat="42.5272" lon="2.48687">
        <ele>1972.1999511719</ele>
        <time>2023-07-15T14:26:59.000Z</time>
      </trkpt>
      <trkpt lat="42.5272" lon="2.48688">
        <ele>1972.4000244141</ele>
        <time>2023-07-15T14:27:00.000Z</time>
      </trkpt>
      <trkpt lat="42.52719" lon="2.48686">
        <ele>1973.4000244141</ele>
        <time>2023-07-15T14:27:06.000Z</time>
      </trkpt>
      <trkpt lat="42.52718" lon="2.48685">
        <ele>1973.4000244141</ele>
        <time>2023-07-15T14:27:07.000Z</time>
      </trkpt>
      <trkpt lat="42.52715" lon="2.48681">
        <ele>1974.4000244141</ele>
        <time>2023-07-15T14:27:15.000Z</time>
      </trkpt>
      <trkpt lat="42.52715" lon="2.4868">
        <ele>1974.5999755859</ele>
        <time>2023-07-15T14:27:16.000Z</time>
      </trkpt>
      <trkpt lat="42.52716" lon="2.48677">
        <ele>1975.4000244141</ele>
        <time>2023-07-15T14:27:23.000Z</time>
      </trkpt>
      <trkpt lat="42.52716" lon="2.48677">
        <ele>1975.4000244141</ele>
        <time>2023-07-15T14:27:24.000Z</time>
      </trkpt>
      <trkpt lat="42.52719" lon="2.48673">
        <ele>1976.1999511719</ele>
        <time>2023-07-15T14:27:31.000Z</time>
      </trkpt>
      <trkpt lat="42.5272" lon="2.48673">
        <ele>1976.4000244141</ele>
        <time>2023-07-15T14:27:32.000Z</time>
      </trkpt>
      <trkpt lat="42.5272" lon="2.48673">
        <ele>1977.1999511719</ele>
        <time>2023-07-15T14:27:40.000Z</time>
      </trkpt>
      <trkpt lat="42.52719" lon="2.48673">
        <ele>1977.4000244141</ele>
        <time>2023-07-15T14:27:42.000Z</time>
      </trkpt>
      <trkpt lat="42.52717" lon="2.4867">
        <ele>1978</ele>
        <time>2023-07-15T14:27:48.000Z</time>
      </trkpt>
      <trkpt lat="42.52716" lon="2.48669">
        <ele>1978.5999755859</ele>
        <time>2023-07-15T14:27:52.000Z</time>
      </trkpt>
      <trkpt lat="42.52718" lon="2.48666">
        <ele>1979.8000488281</ele>
        <time>2023-07-15T14:27:57.000Z</time>
      </trkpt>
      <trkpt lat="42.5272" lon="2.4866">
        <ele>1980.8000488281</ele>
        <time>2023-07-15T14:28:05.000Z</time>
      </trkpt>
      <trkpt lat="42.5272" lon="2.4866">
        <ele>1981</ele>
        <time>2023-07-15T14:28:06.000Z</time>
      </trkpt>
      <trkpt lat="42.52718" lon="2.48655">
        <ele>1981.8000488281</ele>
        <time>2023-07-15T14:28:14.000Z</time>
      </trkpt>
      <trkpt lat="42.52718" lon="2.48655">
        <ele>1982.1999511719</ele>
        <time>2023-07-15T14:28:15.000Z</time>
      </trkpt>
      <trkpt lat="42.52717" lon="2.48656">
        <ele>1983</ele>
        <time>2023-07-15T14:28:21.000Z</time>
      </trkpt>
      <trkpt lat="42.52717" lon="2.48656">
        <ele>1983.4000244141</ele>
        <time>2023-07-15T14:28:24.000Z</time>
      </trkpt>
      <trkpt lat="42.52716" lon="2.48655">
        <ele>1984</ele>
        <time>2023-07-15T14:28:29.000Z</time>
      </trkpt>
      <trkpt lat="42.52715" lon="2.48653">
        <ele>1984.5999755859</ele>
        <time>2023-07-15T14:28:34.000Z</time>
      </trkpt>
      <trkpt lat="42.52714" lon="2.48651">
        <ele>1985</ele>
        <time>2023-07-15T14:28:38.000Z</time>
      </trkpt>
      <trkpt lat="42.52713" lon="2.48649">
        <ele>1985.8000488281</ele>
        <time>2023-07-15T14:28:43.000Z</time>
      </trkpt>
      <trkpt lat="42.52713" lon="2.48648">
        <ele>1986.1999511719</ele>
        <time>2023-07-15T14:28:46.000Z</time>
      </trkpt>
      <trkpt lat="42.52713" lon="2.48646">
        <ele>1986.8000488281</ele>
        <time>2023-07-15T14:28:50.000Z</time>
      </trkpt>
      <trkpt lat="42.52711" lon="2.48645">
        <ele>1987.1999511719</ele>
        <time>2023-07-15T14:28:52.000Z</time>
      </trkpt>
      <trkpt lat="42.52709" lon="2.48643">
        <ele>1988</ele>
        <time>2023-07-15T14:28:57.000Z</time>
      </trkpt>
      <trkpt lat="42.52708" lon="2.48642">
        <ele>1988.4000244141</ele>
        <time>2023-07-15T14:29:00.000Z</time>
      </trkpt>
      <trkpt lat="42.52706" lon="2.48643">
        <ele>1989</ele>
        <time>2023-07-15T14:29:05.000Z</time>
      </trkpt>
      <trkpt lat="42.52706" lon="2.48642">
        <ele>1989.4000244141</ele>
        <time>2023-07-15T14:29:09.000Z</time>
      </trkpt>
      <trkpt lat="42.52706" lon="2.48641">
        <ele>1989.4000244141</ele>
        <time>2023-07-15T14:29:12.000Z</time>
      </trkpt>
      <trkpt lat="42.52704" lon="2.4864">
        <ele>1990.4000244141</ele>
        <time>2023-07-15T14:29:19.000Z</time>
      </trkpt>
      <trkpt lat="42.52703" lon="2.48639">
        <ele>1990.8000488281</ele>
        <time>2023-07-15T14:29:21.000Z</time>
      </trkpt>
      <trkpt lat="42.52701" lon="2.48638">
        <ele>1991.8000488281</ele>
        <time>2023-07-15T14:29:27.000Z</time>
      </trkpt>
      <trkpt lat="42.52699" lon="2.48636">
        <ele>1992.1999511719</ele>
        <time>2023-07-15T14:29:30.000Z</time>
      </trkpt>
      <trkpt lat="42.52699" lon="2.48636">
        <ele>1992.8000488281</ele>
        <time>2023-07-15T14:29:34.000Z</time>
      </trkpt>
      <trkpt lat="42.52699" lon="2.48636">
        <ele>1993</ele>
        <time>2023-07-15T14:29:36.000Z</time>
      </trkpt>
      <trkpt lat="42.52699" lon="2.48635">
        <ele>1993</ele>
        <time>2023-07-15T14:29:47.000Z</time>
      </trkpt>
      <trkpt lat="42.52699" lon="2.48636">
        <ele>1993</ele>
        <time>2023-07-15T14:29:57.000Z</time>
      </trkpt>
      <trkpt lat="42.52695" lon="2.48633">
        <ele>1993.1999511719</ele>
        <time>2023-07-15T14:30:03.000Z</time>
      </trkpt>
      <trkpt lat="42.52695" lon="2.48633">
        <ele>1993.8000488281</ele>
        <time>2023-07-15T14:30:06.000Z</time>
      </trkpt>
      <trkpt lat="42.52693" lon="2.48629">
        <ele>1994.8000488281</ele>
        <time>2023-07-15T14:30:11.000Z</time>
      </trkpt>
      <trkpt lat="42.52693" lon="2.48628">
        <ele>1995</ele>
        <time>2023-07-15T14:30:12.000Z</time>
      </trkpt>
      <trkpt lat="42.52692" lon="2.48625">
        <ele>1996</ele>
        <time>2023-07-15T14:30:15.000Z</time>
      </trkpt>
      <trkpt lat="42.5269" lon="2.48623">
        <ele>1997.1999511719</ele>
        <time>2023-07-15T14:30:19.000Z</time>
      </trkpt>
      <trkpt lat="42.52689" lon="2.48622">
        <ele>1997.1999511719</ele>
        <time>2023-07-15T14:30:20.000Z</time>
      </trkpt>
      <trkpt lat="42.52684" lon="2.48619">
        <ele>1997.5999755859</ele>
        <time>2023-07-15T14:30:27.000Z</time>
      </trkpt>
      <trkpt lat="42.52682" lon="2.48618">
        <ele>1998.1999511719</ele>
        <time>2023-07-15T14:30:31.000Z</time>
      </trkpt>
      <trkpt lat="42.52681" lon="2.48616">
        <ele>1998.8000488281</ele>
        <time>2023-07-15T14:30:35.000Z</time>
      </trkpt>
      <trkpt lat="42.5268" lon="2.48614">
        <ele>1999.4000244141</ele>
        <time>2023-07-15T14:30:38.000Z</time>
      </trkpt>
      <trkpt lat="42.52681" lon="2.48612">
        <ele>2000</ele>
        <time>2023-07-15T14:30:43.000Z</time>
      </trkpt>
      <trkpt lat="42.52682" lon="2.48611">
        <ele>2000.4000244141</ele>
        <time>2023-07-15T14:30:46.000Z</time>
      </trkpt>
      <trkpt lat="42.52682" lon="2.48607">
        <ele>2001.1999511719</ele>
        <time>2023-07-15T14:30:53.000Z</time>
      </trkpt>
      <trkpt lat="42.52683" lon="2.48608">
        <ele>2001.4000244141</ele>
        <time>2023-07-15T14:30:54.000Z</time>
      </trkpt>
      <trkpt lat="42.52684" lon="2.48606">
        <ele>2002.1999511719</ele>
        <time>2023-07-15T14:31:00.000Z</time>
      </trkpt>
      <trkpt lat="42.52685" lon="2.48606">
        <ele>2002.5999755859</ele>
        <time>2023-07-15T14:31:02.000Z</time>
      </trkpt>
      <trkpt lat="42.52688" lon="2.48602">
        <ele>2003.5999755859</ele>
        <time>2023-07-15T14:31:09.000Z</time>
      </trkpt>
      <trkpt lat="42.52687" lon="2.48602">
        <ele>2003.8000488281</ele>
        <time>2023-07-15T14:31:10.000Z</time>
      </trkpt>
      <trkpt lat="42.52686" lon="2.486">
        <ele>2004</ele>
        <time>2023-07-15T14:31:13.000Z</time>
      </trkpt>
      <trkpt lat="42.52687" lon="2.486">
        <ele>2004.5999755859</ele>
        <time>2023-07-15T14:31:16.000Z</time>
      </trkpt>
      <trkpt lat="42.52687" lon="2.486">
        <ele>2004.8000488281</ele>
        <time>2023-07-15T14:31:17.000Z</time>
      </trkpt>
      <trkpt lat="42.5269" lon="2.48597">
        <ele>2005.5999755859</ele>
        <time>2023-07-15T14:31:25.000Z</time>
      </trkpt>
      <trkpt lat="42.52691" lon="2.48596">
        <ele>2005.5999755859</ele>
        <time>2023-07-15T14:31:26.000Z</time>
      </trkpt>
      <trkpt lat="42.52694" lon="2.48591">
        <ele>2006.8000488281</ele>
        <time>2023-07-15T14:31:34.000Z</time>
      </trkpt>
      <trkpt lat="42.52694" lon="2.48589">
        <ele>2007.1999511719</ele>
        <time>2023-07-15T14:31:36.000Z</time>
      </trkpt>
      <trkpt lat="42.52694" lon="2.48587">
        <ele>2007.8000488281</ele>
        <time>2023-07-15T14:31:39.000Z</time>
      </trkpt>
      <trkpt lat="42.52694" lon="2.48586">
        <ele>2009</ele>
        <time>2023-07-15T14:31:45.000Z</time>
      </trkpt>
      <trkpt lat="42.52694" lon="2.48585">
        <ele>2010</ele>
        <time>2023-07-15T14:31:51.000Z</time>
      </trkpt>
      <trkpt lat="42.52693" lon="2.48585">
        <ele>2010.1999511719</ele>
        <time>2023-07-15T14:31:53.000Z</time>
      </trkpt>
      <trkpt lat="42.52693" lon="2.48579">
        <ele>2010.4000244141</ele>
        <time>2023-07-15T14:32:00.000Z</time>
      </trkpt>
      <trkpt lat="42.52694" lon="2.48578">
        <ele>2011.1999511719</ele>
        <time>2023-07-15T14:32:05.000Z</time>
      </trkpt>
      <trkpt lat="42.52694" lon="2.48575">
        <ele>2011.5999755859</ele>
        <time>2023-07-15T14:32:07.000Z</time>
      </trkpt>
      <trkpt lat="42.52694" lon="2.48572">
        <ele>2012.4000244141</ele>
        <time>2023-07-15T14:32:13.000Z</time>
      </trkpt>
      <trkpt lat="42.52694" lon="2.48571">
        <ele>2012.5999755859</ele>
        <time>2023-07-15T14:32:15.000Z</time>
      </trkpt>
      <trkpt lat="42.52694" lon="2.48568">
        <ele>2013.4000244141</ele>
        <time>2023-07-15T14:32:19.000Z</time>
      </trkpt>
      <trkpt lat="42.52696" lon="2.48562">
        <ele>2013.8000488281</ele>
        <time>2023-07-15T14:32:25.000Z</time>
      </trkpt>
      <trkpt lat="42.52697" lon="2.48556">
        <ele>2014.5999755859</ele>
        <time>2023-07-15T14:32:32.000Z</time>
      </trkpt>
      <trkpt lat="42.52697" lon="2.48556">
        <ele>2014.8000488281</ele>
        <time>2023-07-15T14:32:33.000Z</time>
      </trkpt>
      <trkpt lat="42.52697" lon="2.48554">
        <ele>2015.5999755859</ele>
        <time>2023-07-15T14:32:37.000Z</time>
      </trkpt>
      <trkpt lat="42.52699" lon="2.4855">
        <ele>2016.4000244141</ele>
        <time>2023-07-15T14:32:44.000Z</time>
      </trkpt>
      <trkpt lat="42.527" lon="2.48549">
        <ele>2016.5999755859</ele>
        <time>2023-07-15T14:32:51.000Z</time>
      </trkpt>
      <trkpt lat="42.52698" lon="2.48547">
        <ele>2016.5999755859</ele>
        <time>2023-07-15T14:32:59.000Z</time>
      </trkpt>
      <trkpt lat="42.52697" lon="2.48547">
        <ele>2016.5999755859</ele>
        <time>2023-07-15T14:33:02.000Z</time>
      </trkpt>
      <trkpt lat="42.52693" lon="2.48547">
        <ele>2016.5999755859</ele>
        <time>2023-07-15T14:33:11.000Z</time>
      </trkpt>
      <trkpt lat="42.52693" lon="2.48546">
        <ele>2017.1999511719</ele>
        <time>2023-07-15T14:33:20.000Z</time>
      </trkpt>
      <trkpt lat="42.52695" lon="2.48546">
        <ele>2017.5999755859</ele>
        <time>2023-07-15T14:33:22.000Z</time>
      </trkpt>
      <trkpt lat="42.52694" lon="2.48543">
        <ele>2018.5999755859</ele>
        <time>2023-07-15T14:33:28.000Z</time>
      </trkpt>
      <trkpt lat="42.52693" lon="2.48542">
        <ele>2019.8000488281</ele>
        <time>2023-07-15T14:33:32.000Z</time>
      </trkpt>
      <trkpt lat="42.52693" lon="2.4854">
        <ele>2020.8000488281</ele>
        <time>2023-07-15T14:33:37.000Z</time>
      </trkpt>
      <trkpt lat="42.52693" lon="2.48541">
        <ele>2020.8000488281</ele>
        <time>2023-07-15T14:33:38.000Z</time>
      </trkpt>
      <trkpt lat="42.52691" lon="2.4854">
        <ele>2022</ele>
        <time>2023-07-15T14:33:45.000Z</time>
      </trkpt>
      <trkpt lat="42.52689" lon="2.48536">
        <ele>2023</ele>
        <time>2023-07-15T14:33:53.000Z</time>
      </trkpt>
      <trkpt lat="42.52688" lon="2.48535">
        <ele>2023.1999511719</ele>
        <time>2023-07-15T14:33:54.000Z</time>
      </trkpt>
      <trkpt lat="42.52686" lon="2.48531">
        <ele>2024.1999511719</ele>
        <time>2023-07-15T14:33:59.000Z</time>
      </trkpt>
      <trkpt lat="42.52685" lon="2.48531">
        <ele>2024.5999755859</ele>
        <time>2023-07-15T14:34:01.000Z</time>
      </trkpt>
      <trkpt lat="42.52685" lon="2.48532">
        <ele>2025.4000244141</ele>
        <time>2023-07-15T14:34:04.000Z</time>
      </trkpt>
      <trkpt lat="42.52685" lon="2.48533">
        <ele>2025.4000244141</ele>
        <time>2023-07-15T14:34:05.000Z</time>
      </trkpt>
      <trkpt lat="42.5268" lon="2.48533">
        <ele>2026.1999511719</ele>
        <time>2023-07-15T14:34:10.000Z</time>
      </trkpt>
      <trkpt lat="42.52678" lon="2.48533">
        <ele>2026.4000244141</ele>
        <time>2023-07-15T14:34:12.000Z</time>
      </trkpt>
      <trkpt lat="42.52677" lon="2.48528">
        <ele>2027.4000244141</ele>
        <time>2023-07-15T14:34:18.000Z</time>
      </trkpt>
      <trkpt lat="42.52676" lon="2.48526">
        <ele>2028.5999755859</ele>
        <time>2023-07-15T14:34:24.000Z</time>
      </trkpt>
      <trkpt lat="42.52676" lon="2.48526">
        <ele>2029</ele>
        <time>2023-07-15T14:34:26.000Z</time>
      </trkpt>
      <trkpt lat="42.52675" lon="2.48524">
        <ele>2029.5999755859</ele>
        <time>2023-07-15T14:34:30.000Z</time>
      </trkpt>
      <trkpt lat="42.52675" lon="2.48524">
        <ele>2030.1999511719</ele>
        <time>2023-07-15T14:34:33.000Z</time>
      </trkpt>
      <trkpt lat="42.52673" lon="2.48523">
        <ele>2030.8000488281</ele>
        <time>2023-07-15T14:34:37.000Z</time>
      </trkpt>
      <trkpt lat="42.5267" lon="2.48524">
        <ele>2031.8000488281</ele>
        <time>2023-07-15T14:34:44.000Z</time>
      </trkpt>
      <trkpt lat="42.5267" lon="2.48524">
        <ele>2032</ele>
        <time>2023-07-15T14:34:55.000Z</time>
      </trkpt>
      <trkpt lat="42.52669" lon="2.48526">
        <ele>2032.8000488281</ele>
        <time>2023-07-15T14:35:02.000Z</time>
      </trkpt>
      <trkpt lat="42.52668" lon="2.48526">
        <ele>2033.1999511719</ele>
        <time>2023-07-15T14:35:04.000Z</time>
      </trkpt>
      <trkpt lat="42.52668" lon="2.48523">
        <ele>2034</ele>
        <time>2023-07-15T14:35:09.000Z</time>
      </trkpt>
      <trkpt lat="42.52667" lon="2.4852">
        <ele>2034.5999755859</ele>
        <time>2023-07-15T14:35:13.000Z</time>
      </trkpt>
      <trkpt lat="42.52667" lon="2.48517">
        <ele>2035</ele>
        <time>2023-07-15T14:35:17.000Z</time>
      </trkpt>
      <trkpt lat="42.52667" lon="2.48516">
        <ele>2035.5999755859</ele>
        <time>2023-07-15T14:35:20.000Z</time>
      </trkpt>
      <trkpt lat="42.52668" lon="2.48516">
        <ele>2036</ele>
        <time>2023-07-15T14:35:22.000Z</time>
      </trkpt>
      <trkpt lat="42.52666" lon="2.4851">
        <ele>2037</ele>
        <time>2023-07-15T14:35:28.000Z</time>
      </trkpt>
      <trkpt lat="42.52666" lon="2.4851">
        <ele>2037.1999511719</ele>
        <time>2023-07-15T14:35:29.000Z</time>
      </trkpt>
      <trkpt lat="42.52658" lon="2.48507">
        <ele>2038.1999511719</ele>
        <time>2023-07-15T14:35:37.000Z</time>
      </trkpt>
      <trkpt lat="42.52657" lon="2.48507">
        <ele>2038.8000488281</ele>
        <time>2023-07-15T14:35:43.000Z</time>
      </trkpt>
      <trkpt lat="42.52653" lon="2.48508">
        <ele>2039.4000244141</ele>
        <time>2023-07-15T14:35:48.000Z</time>
      </trkpt>
      <trkpt lat="42.52649" lon="2.48508">
        <ele>2039.8000488281</ele>
        <time>2023-07-15T14:35:52.000Z</time>
      </trkpt>
      <trkpt lat="42.52643" lon="2.48503">
        <ele>2039.8000488281</ele>
        <time>2023-07-15T14:35:59.000Z</time>
      </trkpt>
      <trkpt lat="42.52643" lon="2.48502">
        <ele>2040.4000244141</ele>
        <time>2023-07-15T14:36:04.000Z</time>
      </trkpt>
      <trkpt lat="42.52641" lon="2.48499">
        <ele>2041</ele>
        <time>2023-07-15T14:36:07.000Z</time>
      </trkpt>
      <trkpt lat="42.52642" lon="2.485">
        <ele>2041.4000244141</ele>
        <time>2023-07-15T14:36:12.000Z</time>
      </trkpt>
      <trkpt lat="42.52642" lon="2.48501">
        <ele>2041.4000244141</ele>
        <time>2023-07-15T14:36:14.000Z</time>
      </trkpt>
      <trkpt lat="42.52639" lon="2.48498">
        <ele>2041.4000244141</ele>
        <time>2023-07-15T14:36:24.000Z</time>
      </trkpt>
      <trkpt lat="42.5264" lon="2.48499">
        <ele>2041.4000244141</ele>
        <time>2023-07-15T14:36:33.000Z</time>
      </trkpt>
      <trkpt lat="42.52636" lon="2.48497">
        <ele>2041.5999755859</ele>
        <time>2023-07-15T14:36:41.000Z</time>
      </trkpt>
      <trkpt lat="42.52631" lon="2.48497">
        <ele>2042.4000244141</ele>
        <time>2023-07-15T14:36:48.000Z</time>
      </trkpt>
      <trkpt lat="42.5263" lon="2.48498">
        <ele>2042.5999755859</ele>
        <time>2023-07-15T14:36:49.000Z</time>
      </trkpt>
      <trkpt lat="42.52626" lon="2.485">
        <ele>2043</ele>
        <time>2023-07-15T14:36:54.000Z</time>
      </trkpt>
      <trkpt lat="42.52621" lon="2.48497">
        <ele>2043.5999755859</ele>
        <time>2023-07-15T14:37:01.000Z</time>
      </trkpt>
      <trkpt lat="42.52623" lon="2.48499">
        <ele>2043.5999755859</ele>
        <time>2023-07-15T14:37:06.000Z</time>
      </trkpt>
      <trkpt lat="42.52624" lon="2.485">
        <ele>2043.5999755859</ele>
        <time>2023-07-15T14:37:08.000Z</time>
      </trkpt>
      <trkpt lat="42.52622" lon="2.48498">
        <ele>2043.5999755859</ele>
        <time>2023-07-15T14:37:16.000Z</time>
      </trkpt>
      <trkpt lat="42.52623" lon="2.48498">
        <ele>2044</ele>
        <time>2023-07-15T14:37:27.000Z</time>
      </trkpt>
      <trkpt lat="42.5262" lon="2.48501">
        <ele>2044</ele>
        <time>2023-07-15T14:37:37.000Z</time>
      </trkpt>
      <trkpt lat="42.52614" lon="2.48501">
        <ele>2044.1999511719</ele>
        <time>2023-07-15T14:37:44.000Z</time>
      </trkpt>
      <trkpt lat="42.52612" lon="2.48499">
        <ele>2044.5999755859</ele>
        <time>2023-07-15T14:37:48.000Z</time>
      </trkpt>
      <trkpt lat="42.5261" lon="2.48499">
        <ele>2045.1999511719</ele>
        <time>2023-07-15T14:37:52.000Z</time>
      </trkpt>
      <trkpt lat="42.52603" lon="2.48497">
        <ele>2045.8000488281</ele>
        <time>2023-07-15T14:37:58.000Z</time>
      </trkpt>
      <trkpt lat="42.52601" lon="2.48497">
        <ele>2045.8000488281</ele>
        <time>2023-07-15T14:38:00.000Z</time>
      </trkpt>
      <trkpt lat="42.52595" lon="2.48493">
        <ele>2046.1999511719</ele>
        <time>2023-07-15T14:38:09.000Z</time>
      </trkpt>
      <trkpt lat="42.52593" lon="2.4849">
        <ele>2046.8000488281</ele>
        <time>2023-07-15T14:38:13.000Z</time>
      </trkpt>
      <trkpt lat="42.52592" lon="2.48488">
        <ele>2047.1999511719</ele>
        <time>2023-07-15T14:38:16.000Z</time>
      </trkpt>
      <trkpt lat="42.5259" lon="2.48487">
        <ele>2047.8000488281</ele>
        <time>2023-07-15T14:38:20.000Z</time>
      </trkpt>
      <trkpt lat="42.52588" lon="2.48485">
        <ele>2047.8000488281</ele>
        <time>2023-07-15T14:38:23.000Z</time>
      </trkpt>
      <trkpt lat="42.52583" lon="2.48482">
        <ele>2047.4000244141</ele>
        <time>2023-07-15T14:38:32.000Z</time>
      </trkpt>
      <trkpt lat="42.52576" lon="2.4848">
        <ele>2047.8000488281</ele>
        <time>2023-07-15T14:38:38.000Z</time>
      </trkpt>
      <trkpt lat="42.52569" lon="2.48477">
        <ele>2048.6000976562</ele>
        <time>2023-07-15T14:38:47.000Z</time>
      </trkpt>
      <trkpt lat="42.52565" lon="2.48476">
        <ele>2049</ele>
        <time>2023-07-15T14:38:51.000Z</time>
      </trkpt>
      <trkpt lat="42.52563" lon="2.48475">
        <ele>2049</ele>
        <time>2023-07-15T14:38:55.000Z</time>
      </trkpt>
      <trkpt lat="42.5256" lon="2.48472">
        <ele>2049.3999023438</ele>
        <time>2023-07-15T14:39:03.000Z</time>
      </trkpt>
      <trkpt lat="42.52559" lon="2.48471">
        <ele>2050</ele>
        <time>2023-07-15T14:39:05.000Z</time>
      </trkpt>
      <trkpt lat="42.52557" lon="2.48469">
        <ele>2050.6000976562</ele>
        <time>2023-07-15T14:39:08.000Z</time>
      </trkpt>
      <trkpt lat="42.52553" lon="2.48467">
        <ele>2051.1999511719</ele>
        <time>2023-07-15T14:39:12.000Z</time>
      </trkpt>
      <trkpt lat="42.52551" lon="2.48467">
        <ele>2051.1999511719</ele>
        <time>2023-07-15T14:39:14.000Z</time>
      </trkpt>
      <trkpt lat="42.52545" lon="2.48462">
        <ele>2052.1999511719</ele>
        <time>2023-07-15T14:39:22.000Z</time>
      </trkpt>
      <trkpt lat="42.52545" lon="2.48462">
        <ele>2052.3999023438</ele>
        <time>2023-07-15T14:39:23.000Z</time>
      </trkpt>
      <trkpt lat="42.52536" lon="2.48459">
        <ele>2052.8000488281</ele>
        <time>2023-07-15T14:39:32.000Z</time>
      </trkpt>
      <trkpt lat="42.52532" lon="2.48458">
        <ele>2053.3999023438</ele>
        <time>2023-07-15T14:39:37.000Z</time>
      </trkpt>
      <trkpt lat="42.52532" lon="2.48456">
        <ele>2053.8000488281</ele>
        <time>2023-07-15T14:39:39.000Z</time>
      </trkpt>
      <trkpt lat="42.52532" lon="2.48452">
        <ele>2054.1999511719</ele>
        <time>2023-07-15T14:39:46.000Z</time>
      </trkpt>
      <trkpt lat="42.52533" lon="2.4845">
        <ele>2054.6000976562</ele>
        <time>2023-07-15T14:39:50.000Z</time>
      </trkpt>
      <trkpt lat="42.52534" lon="2.48448">
        <ele>2055.3999023438</ele>
        <time>2023-07-15T14:39:53.000Z</time>
      </trkpt>
      <trkpt lat="42.52534" lon="2.48447">
        <ele>2055.8000488281</ele>
        <time>2023-07-15T14:39:54.000Z</time>
      </trkpt>
      <trkpt lat="42.52536" lon="2.48447">
        <ele>2056.3999023438</ele>
        <time>2023-07-15T14:39:59.000Z</time>
      </trkpt>
      <trkpt lat="42.52537" lon="2.48447">
        <ele>2056.6000976562</ele>
        <time>2023-07-15T14:40:00.000Z</time>
      </trkpt>
      <trkpt lat="42.52539" lon="2.48446">
        <ele>2056.8000488281</ele>
        <time>2023-07-15T14:40:04.000Z</time>
      </trkpt>
      <trkpt lat="42.5254" lon="2.48444">
        <ele>2057.3999023438</ele>
        <time>2023-07-15T14:40:10.000Z</time>
      </trkpt>
      <trkpt lat="42.52543" lon="2.48444">
        <ele>2057.8000488281</ele>
        <time>2023-07-15T14:40:14.000Z</time>
      </trkpt>
      <trkpt lat="42.52544" lon="2.48444">
        <ele>2058</ele>
        <time>2023-07-15T14:40:18.000Z</time>
      </trkpt>
      <trkpt lat="42.52548" lon="2.48444">
        <ele>2058.1999511719</ele>
        <time>2023-07-15T14:40:27.000Z</time>
      </trkpt>
      <trkpt lat="42.52556" lon="2.48446">
        <ele>2058.6000976562</ele>
        <time>2023-07-15T14:40:34.000Z</time>
      </trkpt>
      <trkpt lat="42.52558" lon="2.48446">
        <ele>2058.8000488281</ele>
        <time>2023-07-15T14:40:36.000Z</time>
      </trkpt>
      <trkpt lat="42.52565" lon="2.48445">
        <ele>2058.8000488281</ele>
        <time>2023-07-15T14:40:43.000Z</time>
      </trkpt>
      <trkpt lat="42.52571" lon="2.48444">
        <ele>2059.3999023438</ele>
        <time>2023-07-15T14:40:50.000Z</time>
      </trkpt>
      <trkpt lat="42.5258" lon="2.48449">
        <ele>2058.6000976562</ele>
        <time>2023-07-15T14:40:59.000Z</time>
      </trkpt>
      <trkpt lat="42.52584" lon="2.48451">
        <ele>2058.1999511719</ele>
        <time>2023-07-15T14:41:05.000Z</time>
      </trkpt>
      <trkpt lat="42.52591" lon="2.48453">
        <ele>2058.3999023438</ele>
        <time>2023-07-15T14:41:11.000Z</time>
      </trkpt>
      <trkpt lat="42.52598" lon="2.48448">
        <ele>2059.1999511719</ele>
        <time>2023-07-15T14:41:20.000Z</time>
      </trkpt>
      <trkpt lat="42.52607" lon="2.48443">
        <ele>2059.8000488281</ele>
        <time>2023-07-15T14:41:30.000Z</time>
      </trkpt>
      <trkpt lat="42.52607" lon="2.48443">
        <ele>2060.1999511719</ele>
        <time>2023-07-15T14:41:36.000Z</time>
      </trkpt>
      <trkpt lat="42.52606" lon="2.48441">
        <ele>2060.1999511719</ele>
        <time>2023-07-15T14:41:38.000Z</time>
      </trkpt>
      <trkpt lat="42.52607" lon="2.48442">
        <ele>2060</ele>
        <time>2023-07-15T14:41:45.000Z</time>
      </trkpt>
      <trkpt lat="42.52614" lon="2.48439">
        <ele>2060.3999023438</ele>
        <time>2023-07-15T14:41:52.000Z</time>
      </trkpt>
      <trkpt lat="42.5262" lon="2.48437">
        <ele>2060.3999023438</ele>
        <time>2023-07-15T14:41:59.000Z</time>
      </trkpt>
      <trkpt lat="42.52621" lon="2.48435">
        <ele>2060.3999023438</ele>
        <time>2023-07-15T14:42:10.000Z</time>
      </trkpt>
      <trkpt lat="42.52622" lon="2.48428">
        <ele>2061</ele>
        <time>2023-07-15T14:42:16.000Z</time>
      </trkpt>
      <trkpt lat="42.52622" lon="2.48427">
        <ele>2061.1999511719</ele>
        <time>2023-07-15T14:42:17.000Z</time>
      </trkpt>
      <trkpt lat="42.52623" lon="2.48422">
        <ele>2062</ele>
        <time>2023-07-15T14:42:22.000Z</time>
      </trkpt>
      <trkpt lat="42.52625" lon="2.48421">
        <ele>2062.3999023438</ele>
        <time>2023-07-15T14:42:24.000Z</time>
      </trkpt>
      <trkpt lat="42.5263" lon="2.48417">
        <ele>2063</ele>
        <time>2023-07-15T14:42:31.000Z</time>
      </trkpt>
      <trkpt lat="42.52632" lon="2.48415">
        <ele>2063.1999511719</ele>
        <time>2023-07-15T14:42:35.000Z</time>
      </trkpt>
      <trkpt lat="42.52635" lon="2.48413">
        <ele>2063.6000976562</ele>
        <time>2023-07-15T14:42:38.000Z</time>
      </trkpt>
      <trkpt lat="42.5264" lon="2.48408">
        <ele>2063.8000488281</ele>
        <time>2023-07-15T14:42:45.000Z</time>
      </trkpt>
      <trkpt lat="42.52643" lon="2.48406">
        <ele>2064.1999511719</ele>
        <time>2023-07-15T14:42:51.000Z</time>
      </trkpt>
      <trkpt lat="42.52644" lon="2.48405">
        <ele>2064.3999023438</ele>
        <time>2023-07-15T14:42:53.000Z</time>
      </trkpt>
      <trkpt lat="42.52651" lon="2.48398">
        <ele>2064.3999023438</ele>
        <time>2023-07-15T14:43:02.000Z</time>
      </trkpt>
      <trkpt lat="42.52657" lon="2.48395">
        <ele>2063.8000488281</ele>
        <time>2023-07-15T14:43:09.000Z</time>
      </trkpt>
      <trkpt lat="42.52659" lon="2.48394">
        <ele>2063.1999511719</ele>
        <time>2023-07-15T14:43:15.000Z</time>
      </trkpt>
      <trkpt lat="42.52662" lon="2.48392">
        <ele>2063.1999511719</ele>
        <time>2023-07-15T14:43:22.000Z</time>
      </trkpt>
      <trkpt lat="42.52665" lon="2.48391">
        <ele>2063.1999511719</ele>
        <time>2023-07-15T14:43:24.000Z</time>
      </trkpt>
      <trkpt lat="42.52667" lon="2.48387">
        <ele>2062.3999023438</ele>
        <time>2023-07-15T14:43:32.000Z</time>
      </trkpt>
      <trkpt lat="42.52671" lon="2.48387">
        <ele>2062</ele>
        <time>2023-07-15T14:43:41.000Z</time>
      </trkpt>
      <trkpt lat="42.52676" lon="2.48386">
        <ele>2061.3999023438</ele>
        <time>2023-07-15T14:43:49.000Z</time>
      </trkpt>
      <trkpt lat="42.52681" lon="2.48382">
        <ele>2061</ele>
        <time>2023-07-15T14:43:56.000Z</time>
      </trkpt>
      <trkpt lat="42.52686" lon="2.48379">
        <ele>2061.1999511719</ele>
        <time>2023-07-15T14:44:04.000Z</time>
      </trkpt>
      <trkpt lat="42.52691" lon="2.48373">
        <ele>2061.6000976562</ele>
        <time>2023-07-15T14:44:10.000Z</time>
      </trkpt>
      <trkpt lat="42.52698" lon="2.48366">
        <ele>2062.8000488281</ele>
        <time>2023-07-15T14:44:19.000Z</time>
      </trkpt>
      <trkpt lat="42.52699" lon="2.48365">
        <ele>2063</ele>
        <time>2023-07-15T14:44:21.000Z</time>
      </trkpt>
      <trkpt lat="42.52703" lon="2.48362">
        <ele>2063.1999511719</ele>
        <time>2023-07-15T14:44:25.000Z</time>
      </trkpt>
      <trkpt lat="42.52708" lon="2.48358">
        <ele>2063.8000488281</ele>
        <time>2023-07-15T14:44:32.000Z</time>
      </trkpt>
      <trkpt lat="42.52709" lon="2.48357">
        <ele>2064</ele>
        <time>2023-07-15T14:44:35.000Z</time>
      </trkpt>
      <trkpt lat="42.52712" lon="2.48354">
        <ele>2065.1999511719</ele>
        <time>2023-07-15T14:44:41.000Z</time>
      </trkpt>
      <trkpt lat="42.52713" lon="2.48354">
        <ele>2065.6000976562</ele>
        <time>2023-07-15T14:44:42.000Z</time>
      </trkpt>
      <trkpt lat="42.52721" lon="2.48349">
        <ele>2065.6000976562</ele>
        <time>2023-07-15T14:44:51.000Z</time>
      </trkpt>
      <trkpt lat="42.52726" lon="2.48348">
        <ele>2065</ele>
        <time>2023-07-15T14:44:58.000Z</time>
      </trkpt>
      <trkpt lat="42.52731" lon="2.48346">
        <ele>2064.1999511719</ele>
        <time>2023-07-15T14:45:02.000Z</time>
      </trkpt>
      <trkpt lat="42.52733" lon="2.48346">
        <ele>2063.8000488281</ele>
        <time>2023-07-15T14:45:04.000Z</time>
      </trkpt>
      <trkpt lat="42.5274" lon="2.48343">
        <ele>2063.6000976562</ele>
        <time>2023-07-15T14:45:13.000Z</time>
      </trkpt>
      <trkpt lat="42.52748" lon="2.48341">
        <ele>2064.8000488281</ele>
        <time>2023-07-15T14:45:21.000Z</time>
      </trkpt>
      <trkpt lat="42.52753" lon="2.48339">
        <ele>2065</ele>
        <time>2023-07-15T14:45:27.000Z</time>
      </trkpt>
      <trkpt lat="42.52755" lon="2.48338">
        <ele>2065.1999511719</ele>
        <time>2023-07-15T14:45:29.000Z</time>
      </trkpt>
      <trkpt lat="42.52759" lon="2.48336">
        <ele>2065.8000488281</ele>
        <time>2023-07-15T14:45:34.000Z</time>
      </trkpt>
      <trkpt lat="42.52761" lon="2.48334">
        <ele>2066.1999511719</ele>
        <time>2023-07-15T14:45:39.000Z</time>
      </trkpt>
      <trkpt lat="42.52762" lon="2.48333">
        <ele>2066.8000488281</ele>
        <time>2023-07-15T14:45:42.000Z</time>
      </trkpt>
      <trkpt lat="42.52766" lon="2.48333">
        <ele>2067.3999023438</ele>
        <time>2023-07-15T14:45:47.000Z</time>
      </trkpt>
      <trkpt lat="42.5277" lon="2.48334">
        <ele>2067.3999023438</ele>
        <time>2023-07-15T14:45:51.000Z</time>
      </trkpt>
      <trkpt lat="42.52774" lon="2.48336">
        <ele>2066.6000976562</ele>
        <time>2023-07-15T14:45:59.000Z</time>
      </trkpt>
      <trkpt lat="42.52779" lon="2.48339">
        <ele>2066.1999511719</ele>
        <time>2023-07-15T14:46:03.000Z</time>
      </trkpt>
      <trkpt lat="42.52782" lon="2.4834">
        <ele>2066</ele>
        <time>2023-07-15T14:46:05.000Z</time>
      </trkpt>
      <trkpt lat="42.52789" lon="2.48339">
        <ele>2066.3999023438</ele>
        <time>2023-07-15T14:46:13.000Z</time>
      </trkpt>
      <trkpt lat="42.52796" lon="2.48341">
        <ele>2066.8000488281</ele>
        <time>2023-07-15T14:46:20.000Z</time>
      </trkpt>
      <trkpt lat="42.528" lon="2.48339">
        <ele>2067.1999511719</ele>
        <time>2023-07-15T14:46:27.000Z</time>
      </trkpt>
      <trkpt lat="42.52802" lon="2.4834">
        <ele>2067.6000976562</ele>
        <time>2023-07-15T14:46:29.000Z</time>
      </trkpt>
      <trkpt lat="42.52807" lon="2.48339">
        <ele>2068.3999023438</ele>
        <time>2023-07-15T14:46:33.000Z</time>
      </trkpt>
      <trkpt lat="42.5281" lon="2.48339">
        <ele>2068.8000488281</ele>
        <time>2023-07-15T14:46:36.000Z</time>
      </trkpt>
      <trkpt lat="42.52816" lon="2.48341">
        <ele>2069</ele>
        <time>2023-07-15T14:46:46.000Z</time>
      </trkpt>
      <trkpt lat="42.52823" lon="2.48346">
        <ele>2068.1999511719</ele>
        <time>2023-07-15T14:46:55.000Z</time>
      </trkpt>
      <trkpt lat="42.52826" lon="2.48348">
        <ele>2069.3999023438</ele>
        <time>2023-07-15T14:47:03.000Z</time>
      </trkpt>
      <trkpt lat="42.52827" lon="2.48348">
        <ele>2069.6000976562</ele>
        <time>2023-07-15T14:47:04.000Z</time>
      </trkpt>
      <trkpt lat="42.52834" lon="2.48351">
        <ele>2069</ele>
        <time>2023-07-15T14:47:13.000Z</time>
      </trkpt>
      <trkpt lat="42.52839" lon="2.48353">
        <ele>2070.1999511719</ele>
        <time>2023-07-15T14:47:21.000Z</time>
      </trkpt>
      <trkpt lat="42.52842" lon="2.48354">
        <ele>2070.6000976562</ele>
        <time>2023-07-15T14:47:24.000Z</time>
      </trkpt>
      <trkpt lat="42.52845" lon="2.48355">
        <ele>2070.8000488281</ele>
        <time>2023-07-15T14:47:28.000Z</time>
      </trkpt>
      <trkpt lat="42.52851" lon="2.48355">
        <ele>2071.3999023438</ele>
        <time>2023-07-15T14:47:36.000Z</time>
      </trkpt>
      <trkpt lat="42.52851" lon="2.48353">
        <ele>2071.3999023438</ele>
        <time>2023-07-15T14:47:44.000Z</time>
      </trkpt>
      <trkpt lat="42.52851" lon="2.48353">
        <ele>2071.6000976562</ele>
        <time>2023-07-15T14:47:49.000Z</time>
      </trkpt>
      <trkpt lat="42.52854" lon="2.48353">
        <ele>2071.6000976562</ele>
        <time>2023-07-15T14:47:52.000Z</time>
      </trkpt>
      <trkpt lat="42.52861" lon="2.48355">
        <ele>2072.6000976562</ele>
        <time>2023-07-15T14:48:01.000Z</time>
      </trkpt>
      <trkpt lat="42.52862" lon="2.48355">
        <ele>2072.6000976562</ele>
        <time>2023-07-15T14:48:02.000Z</time>
      </trkpt>
      <trkpt lat="42.52867" lon="2.48357">
        <ele>2073.8000488281</ele>
        <time>2023-07-15T14:48:09.000Z</time>
      </trkpt>
      <trkpt lat="42.52868" lon="2.48357">
        <ele>2074</ele>
        <time>2023-07-15T14:48:11.000Z</time>
      </trkpt>
      <trkpt lat="42.52871" lon="2.48356">
        <ele>2074.8000488281</ele>
        <time>2023-07-15T14:48:15.000Z</time>
      </trkpt>
      <trkpt lat="42.52874" lon="2.48354">
        <ele>2075</ele>
        <time>2023-07-15T14:48:17.000Z</time>
      </trkpt>
      <trkpt lat="42.52876" lon="2.48354">
        <ele>2075.6000976562</ele>
        <time>2023-07-15T14:48:21.000Z</time>
      </trkpt>
      <trkpt lat="42.52877" lon="2.48354">
        <ele>2075.8000488281</ele>
        <time>2023-07-15T14:48:22.000Z</time>
      </trkpt>
      <trkpt lat="42.52881" lon="2.4835">
        <ele>2076.6000976562</ele>
        <time>2023-07-15T14:48:30.000Z</time>
      </trkpt>
      <trkpt lat="42.52881" lon="2.4835">
        <ele>2076.8000488281</ele>
        <time>2023-07-15T14:48:31.000Z</time>
      </trkpt>
      <trkpt lat="42.52884" lon="2.48348">
        <ele>2077.8000488281</ele>
        <time>2023-07-15T14:48:40.000Z</time>
      </trkpt>
      <trkpt lat="42.52885" lon="2.48348">
        <ele>2077.8000488281</ele>
        <time>2023-07-15T14:48:41.000Z</time>
      </trkpt>
      <trkpt lat="42.52892" lon="2.48349">
        <ele>2078.1999511719</ele>
        <time>2023-07-15T14:48:48.000Z</time>
      </trkpt>
      <trkpt lat="42.52897" lon="2.48348">
        <ele>2078.6000976562</ele>
        <time>2023-07-15T14:48:57.000Z</time>
      </trkpt>
      <trkpt lat="42.52898" lon="2.48347">
        <ele>2078.8000488281</ele>
        <time>2023-07-15T14:48:59.000Z</time>
      </trkpt>
      <trkpt lat="42.52901" lon="2.48347">
        <ele>2079.3999023438</ele>
        <time>2023-07-15T14:49:05.000Z</time>
      </trkpt>
      <trkpt lat="42.52903" lon="2.48346">
        <ele>2080</ele>
        <time>2023-07-15T14:49:08.000Z</time>
      </trkpt>
      <trkpt lat="42.52907" lon="2.48343">
        <ele>2080.8000488281</ele>
        <time>2023-07-15T14:49:14.000Z</time>
      </trkpt>
      <trkpt lat="42.52908" lon="2.48342">
        <ele>2081.1999511719</ele>
        <time>2023-07-15T14:49:17.000Z</time>
      </trkpt>
      <trkpt lat="42.52913" lon="2.48343">
        <ele>2082</ele>
        <time>2023-07-15T14:49:23.000Z</time>
      </trkpt>
      <trkpt lat="42.52914" lon="2.48343">
        <ele>2082.1999511719</ele>
        <time>2023-07-15T14:49:24.000Z</time>
      </trkpt>
      <trkpt lat="42.52918" lon="2.48341">
        <ele>2083.1999511719</ele>
        <time>2023-07-15T14:49:32.000Z</time>
      </trkpt>
      <trkpt lat="42.52927" lon="2.48338">
        <ele>2084</ele>
        <time>2023-07-15T14:49:41.000Z</time>
      </trkpt>
      <trkpt lat="42.52933" lon="2.48338">
        <ele>2084.1999511719</ele>
        <time>2023-07-15T14:49:48.000Z</time>
      </trkpt>
      <trkpt lat="42.52935" lon="2.48336">
        <ele>2084.6000976562</ele>
        <time>2023-07-15T14:49:51.000Z</time>
      </trkpt>
      <trkpt lat="42.52939" lon="2.48332">
        <ele>2085.1999511719</ele>
        <time>2023-07-15T14:49:59.000Z</time>
      </trkpt>
      <trkpt lat="42.52941" lon="2.48331">
        <ele>2085.3999023438</ele>
        <time>2023-07-15T14:50:00.000Z</time>
      </trkpt>
      <trkpt lat="42.5295" lon="2.48328">
        <ele>2086.1999511719</ele>
        <time>2023-07-15T14:50:09.000Z</time>
      </trkpt>
      <trkpt lat="42.52951" lon="2.48327">
        <ele>2086.3999023438</ele>
        <time>2023-07-15T14:50:10.000Z</time>
      </trkpt>
      <trkpt lat="42.52955" lon="2.48322">
        <ele>2087.1999511719</ele>
        <time>2023-07-15T14:50:16.000Z</time>
      </trkpt>
      <trkpt lat="42.52955" lon="2.48321">
        <ele>2087.3999023438</ele>
        <time>2023-07-15T14:50:18.000Z</time>
      </trkpt>
      <trkpt lat="42.52957" lon="2.48319">
        <ele>2088</ele>
        <time>2023-07-15T14:50:22.000Z</time>
      </trkpt>
      <trkpt lat="42.52959" lon="2.48317">
        <ele>2088.6000976562</ele>
        <time>2023-07-15T14:50:25.000Z</time>
      </trkpt>
      <trkpt lat="42.52962" lon="2.48313">
        <ele>2089.3999023438</ele>
        <time>2023-07-15T14:50:31.000Z</time>
      </trkpt>
      <trkpt lat="42.52962" lon="2.48312">
        <ele>2089.6000976562</ele>
        <time>2023-07-15T14:50:32.000Z</time>
      </trkpt>
      <trkpt lat="42.52962" lon="2.48311">
        <ele>2089.8000488281</ele>
        <time>2023-07-15T14:50:34.000Z</time>
      </trkpt>
      <trkpt lat="42.52962" lon="2.48309">
        <ele>2090</ele>
        <time>2023-07-15T14:50:37.000Z</time>
      </trkpt>
      <trkpt lat="42.52965" lon="2.48313">
        <ele>2089.8000488281</ele>
        <time>2023-07-15T14:50:46.000Z</time>
      </trkpt>
      <trkpt lat="42.52964" lon="2.48309">
        <ele>2090.1999511719</ele>
        <time>2023-07-15T14:50:55.000Z</time>
      </trkpt>
      <trkpt lat="42.52966" lon="2.48303">
        <ele>2090.8000488281</ele>
        <time>2023-07-15T14:50:59.000Z</time>
      </trkpt>
      <trkpt lat="42.52967" lon="2.48302">
        <ele>2091.1999511719</ele>
        <time>2023-07-15T14:51:02.000Z</time>
      </trkpt>
      <trkpt lat="42.52966" lon="2.483">
        <ele>2091.8000488281</ele>
        <time>2023-07-15T14:51:06.000Z</time>
      </trkpt>
      <trkpt lat="42.52965" lon="2.48297">
        <ele>2092.1999511719</ele>
        <time>2023-07-15T14:51:10.000Z</time>
      </trkpt>
      <trkpt lat="42.52965" lon="2.48294">
        <ele>2092.8000488281</ele>
        <time>2023-07-15T14:51:14.000Z</time>
      </trkpt>
      <trkpt lat="42.52965" lon="2.48291">
        <ele>2093.1999511719</ele>
        <time>2023-07-15T14:51:17.000Z</time>
      </trkpt>
      <trkpt lat="42.52965" lon="2.48289">
        <ele>2094</ele>
        <time>2023-07-15T14:51:20.000Z</time>
      </trkpt>
      <trkpt lat="42.52964" lon="2.48283">
        <ele>2095</ele>
        <time>2023-07-15T14:51:27.000Z</time>
      </trkpt>
      <trkpt lat="42.52964" lon="2.48281">
        <ele>2095.3999023438</ele>
        <time>2023-07-15T14:51:29.000Z</time>
      </trkpt>
      <trkpt lat="42.52965" lon="2.48278">
        <ele>2096.1999511719</ele>
        <time>2023-07-15T14:51:34.000Z</time>
      </trkpt>
      <trkpt lat="42.52966" lon="2.48276">
        <ele>2096.6000976562</ele>
        <time>2023-07-15T14:51:38.000Z</time>
      </trkpt>
      <trkpt lat="42.52966" lon="2.48273">
        <ele>2097.1999511719</ele>
        <time>2023-07-15T14:51:42.000Z</time>
      </trkpt>
      <trkpt lat="42.52967" lon="2.48267">
        <ele>2097.6000976562</ele>
        <time>2023-07-15T14:51:48.000Z</time>
      </trkpt>
      <trkpt lat="42.52966" lon="2.48265">
        <ele>2097.8000488281</ele>
        <time>2023-07-15T14:51:51.000Z</time>
      </trkpt>
      <trkpt lat="42.52965" lon="2.48264">
        <ele>2098.1999511719</ele>
        <time>2023-07-15T14:51:53.000Z</time>
      </trkpt>
      <trkpt lat="42.52963" lon="2.48265">
        <ele>2098.6000976562</ele>
        <time>2023-07-15T14:51:56.000Z</time>
      </trkpt>
      <trkpt lat="42.52961" lon="2.48266">
        <ele>2099.3999023438</ele>
        <time>2023-07-15T14:52:00.000Z</time>
      </trkpt>
      <trkpt lat="42.5296" lon="2.48269">
        <ele>2099.6000976562</ele>
        <time>2023-07-15T14:52:04.000Z</time>
      </trkpt>
      <trkpt lat="42.52959" lon="2.48272">
        <ele>2099.6000976562</ele>
        <time>2023-07-15T14:52:11.000Z</time>
      </trkpt>
      <trkpt lat="42.52957" lon="2.4827">
        <ele>2099.8000488281</ele>
        <time>2023-07-15T14:52:22.000Z</time>
      </trkpt>
      <trkpt lat="42.5296" lon="2.48272">
        <ele>2099.8000488281</ele>
        <time>2023-07-15T14:52:31.000Z</time>
      </trkpt>
      <trkpt lat="42.52963" lon="2.48274">
        <ele>2099</ele>
        <time>2023-07-15T14:52:40.000Z</time>
      </trkpt>
      <trkpt lat="42.52962" lon="2.48269">
        <ele>2099.3999023438</ele>
        <time>2023-07-15T14:52:47.000Z</time>
      </trkpt>
      <trkpt lat="42.52956" lon="2.48269">
        <ele>2100.3999023438</ele>
        <time>2023-07-15T14:52:53.000Z</time>
      </trkpt>
      <trkpt lat="42.52956" lon="2.48269">
        <ele>2100.6000976562</ele>
        <time>2023-07-15T14:52:54.000Z</time>
      </trkpt>
      <trkpt lat="42.52955" lon="2.48268">
        <ele>2101.3999023438</ele>
        <time>2023-07-15T14:52:59.000Z</time>
      </trkpt>
      <trkpt lat="42.52952" lon="2.48265">
        <ele>2102.3999023438</ele>
        <time>2023-07-15T14:53:03.000Z</time>
      </trkpt>
      <trkpt lat="42.52953" lon="2.48264">
        <ele>2102.6000976562</ele>
        <time>2023-07-15T14:53:05.000Z</time>
      </trkpt>
      <trkpt lat="42.52953" lon="2.48264">
        <ele>2102.6000976562</ele>
        <time>2023-07-15T14:53:09.000Z</time>
      </trkpt>
      <trkpt lat="42.52953" lon="2.48265">
        <ele>2102.8000488281</ele>
        <time>2023-07-15T14:53:17.000Z</time>
      </trkpt>
      <trkpt lat="42.52952" lon="2.48265">
        <ele>2102.6000976562</ele>
        <time>2023-07-15T14:53:29.000Z</time>
      </trkpt>
      <trkpt lat="42.52955" lon="2.4827">
        <ele>2102.8000488281</ele>
        <time>2023-07-15T14:53:38.000Z</time>
      </trkpt>
      <trkpt lat="42.52957" lon="2.48265">
        <ele>2102.8000488281</ele>
        <time>2023-07-15T14:53:45.000Z</time>
      </trkpt>
      <trkpt lat="42.52954" lon="2.48262">
        <ele>2102.8000488281</ele>
        <time>2023-07-15T14:53:54.000Z</time>
      </trkpt>
      <trkpt lat="42.52952" lon="2.48264">
        <ele>2103</ele>
        <time>2023-07-15T14:54:02.000Z</time>
      </trkpt>
      <trkpt lat="42.52951" lon="2.48265">
        <ele>2103</ele>
        <time>2023-07-15T14:54:11.000Z</time>
      </trkpt>
      <trkpt lat="42.5295" lon="2.48265">
        <ele>2103</ele>
        <time>2023-07-15T14:54:20.000Z</time>
      </trkpt>
      <trkpt lat="42.52952" lon="2.48265">
        <ele>2102.8000488281</ele>
        <time>2023-07-15T14:54:28.000Z</time>
      </trkpt>
      <trkpt lat="42.52953" lon="2.48263">
        <ele>2102.6000976562</ele>
        <time>2023-07-15T14:54:37.000Z</time>
      </trkpt>
      <trkpt lat="42.52952" lon="2.48264">
        <ele>2102.6000976562</ele>
        <time>2023-07-15T14:54:45.000Z</time>
      </trkpt>
      <trkpt lat="42.52952" lon="2.48263">
        <ele>2102.6000976562</ele>
        <time>2023-07-15T14:54:55.000Z</time>
      </trkpt>
      <trkpt lat="42.52952" lon="2.48265">
        <ele>2102.3999023438</ele>
        <time>2023-07-15T14:55:05.000Z</time>
      </trkpt>
      <trkpt lat="42.52954" lon="2.48263">
        <ele>2102.6000976562</ele>
        <time>2023-07-15T14:55:14.000Z</time>
      </trkpt>
      <trkpt lat="42.52953" lon="2.48264">
        <ele>2102.1999511719</ele>
        <time>2023-07-15T14:55:24.000Z</time>
      </trkpt>
      <trkpt lat="42.52953" lon="2.48267">
        <ele>2102</ele>
        <time>2023-07-15T14:55:33.000Z</time>
      </trkpt>
      <trkpt lat="42.52952" lon="2.48267">
        <ele>2101.8000488281</ele>
        <time>2023-07-15T14:55:39.000Z</time>
      </trkpt>
      <trkpt lat="42.52953" lon="2.48262">
        <ele>2102.3999023438</ele>
        <time>2023-07-15T14:55:47.000Z</time>
      </trkpt>
      <trkpt lat="42.52956" lon="2.48259">
        <ele>2103.3999023438</ele>
        <time>2023-07-15T14:55:56.000Z</time>
      </trkpt>
      <trkpt lat="42.52955" lon="2.48259">
        <ele>2103.1999511719</ele>
        <time>2023-07-15T14:56:05.000Z</time>
      </trkpt>
      <trkpt lat="42.52952" lon="2.48254">
        <ele>2103.3999023438</ele>
        <time>2023-07-15T14:56:12.000Z</time>
      </trkpt>
      <trkpt lat="42.5295" lon="2.48254">
        <ele>2103.6000976562</ele>
        <time>2023-07-15T14:56:15.000Z</time>
      </trkpt>
      <trkpt lat="42.52947" lon="2.48255">
        <ele>2104.3999023438</ele>
        <time>2023-07-15T14:56:20.000Z</time>
      </trkpt>
      <trkpt lat="42.52946" lon="2.48254">
        <ele>2104.8000488281</ele>
        <time>2023-07-15T14:56:22.000Z</time>
      </trkpt>
      <trkpt lat="42.52946" lon="2.48251">
        <ele>2105.6000976562</ele>
        <time>2023-07-15T14:56:28.000Z</time>
      </trkpt>
      <trkpt lat="42.52947" lon="2.48251">
        <ele>2105.8000488281</ele>
        <time>2023-07-15T14:56:30.000Z</time>
      </trkpt>
      <trkpt lat="42.5295" lon="2.48244">
        <ele>2106.1999511719</ele>
        <time>2023-07-15T14:56:36.000Z</time>
      </trkpt>
      <trkpt lat="42.52952" lon="2.4824">
        <ele>2106.8000488281</ele>
        <time>2023-07-15T14:56:42.000Z</time>
      </trkpt>
      <trkpt lat="42.52952" lon="2.48238">
        <ele>2107</ele>
        <time>2023-07-15T14:56:44.000Z</time>
      </trkpt>
      <trkpt lat="42.52953" lon="2.48233">
        <ele>2107.6000976562</ele>
        <time>2023-07-15T14:56:51.000Z</time>
      </trkpt>
      <trkpt lat="42.52953" lon="2.48231">
        <ele>2107.8000488281</ele>
        <time>2023-07-15T14:56:53.000Z</time>
      </trkpt>
      <trkpt lat="42.52953" lon="2.4823">
        <ele>2108.3999023438</ele>
        <time>2023-07-15T14:57:00.000Z</time>
      </trkpt>
      <trkpt lat="42.52955" lon="2.48227">
        <ele>2108.3999023438</ele>
        <time>2023-07-15T14:57:07.000Z</time>
      </trkpt>
      <trkpt lat="42.52955" lon="2.48229">
        <ele>2108.1999511719</ele>
        <time>2023-07-15T14:57:14.000Z</time>
      </trkpt>
      <trkpt lat="42.52952" lon="2.48226">
        <ele>2108.3999023438</ele>
        <time>2023-07-15T14:57:29.000Z</time>
      </trkpt>
      <trkpt lat="42.52953" lon="2.48232">
        <ele>2108.6000976562</ele>
        <time>2023-07-15T14:57:40.000Z</time>
      </trkpt>
      <trkpt lat="42.52955" lon="2.48229">
        <ele>2108.3999023438</ele>
        <time>2023-07-15T14:57:46.000Z</time>
      </trkpt>
      <trkpt lat="42.52958" lon="2.48224">
        <ele>2109</ele>
        <time>2023-07-15T14:57:52.000Z</time>
      </trkpt>
      <trkpt lat="42.52958" lon="2.48223">
        <ele>2109.1999511719</ele>
        <time>2023-07-15T14:57:53.000Z</time>
      </trkpt>
      <trkpt lat="42.5296" lon="2.48213">
        <ele>2109.6000976562</ele>
        <time>2023-07-15T14:58:02.000Z</time>
      </trkpt>
      <trkpt lat="42.52963" lon="2.48204">
        <ele>2110</ele>
        <time>2023-07-15T14:58:08.000Z</time>
      </trkpt>
      <trkpt lat="42.52965" lon="2.48202">
        <ele>2110.3999023438</ele>
        <time>2023-07-15T14:58:10.000Z</time>
      </trkpt>
      <trkpt lat="42.52966" lon="2.48202">
        <ele>2111.1999511719</ele>
        <time>2023-07-15T14:58:15.000Z</time>
      </trkpt>
      <trkpt lat="42.52966" lon="2.48202">
        <ele>2111.3999023438</ele>
        <time>2023-07-15T14:58:17.000Z</time>
      </trkpt>
      <trkpt lat="42.52965" lon="2.482">
        <ele>2112.1999511719</ele>
        <time>2023-07-15T14:58:21.000Z</time>
      </trkpt>
      <trkpt lat="42.52963" lon="2.48196">
        <ele>2113</ele>
        <time>2023-07-15T14:58:25.000Z</time>
      </trkpt>
      <trkpt lat="42.52962" lon="2.48196">
        <ele>2113.3999023438</ele>
        <time>2023-07-15T14:58:26.000Z</time>
      </trkpt>
      <trkpt lat="42.52962" lon="2.48195">
        <ele>2114.3999023438</ele>
        <time>2023-07-15T14:58:32.000Z</time>
      </trkpt>
      <trkpt lat="42.52963" lon="2.48192">
        <ele>2114.6000976562</ele>
        <time>2023-07-15T14:58:38.000Z</time>
      </trkpt>
      <trkpt lat="42.52961" lon="2.48195">
        <ele>2114.8000488281</ele>
        <time>2023-07-15T14:58:48.000Z</time>
      </trkpt>
      <trkpt lat="42.52963" lon="2.48193">
        <ele>2115</ele>
        <time>2023-07-15T14:59:01.000Z</time>
      </trkpt>
      <trkpt lat="42.52965" lon="2.48194">
        <ele>2115.1999511719</ele>
        <time>2023-07-15T14:59:12.000Z</time>
      </trkpt>
      <trkpt lat="42.52965" lon="2.48192">
        <ele>2115.3999023438</ele>
        <time>2023-07-15T14:59:16.000Z</time>
      </trkpt>
      <trkpt lat="42.52966" lon="2.48191">
        <ele>2115.3999023438</ele>
        <time>2023-07-15T14:59:19.000Z</time>
      </trkpt>
      <trkpt lat="42.52963" lon="2.48192">
        <ele>2115.3999023438</ele>
        <time>2023-07-15T14:59:28.000Z</time>
      </trkpt>
      <trkpt lat="42.52963" lon="2.48193">
        <ele>2115.8000488281</ele>
        <time>2023-07-15T14:59:36.000Z</time>
      </trkpt>
      <trkpt lat="42.52964" lon="2.48191">
        <ele>2116</ele>
        <time>2023-07-15T14:59:44.000Z</time>
      </trkpt>
      <trkpt lat="42.52964" lon="2.48188">
        <ele>2116.3999023438</ele>
        <time>2023-07-15T14:59:48.000Z</time>
      </trkpt>
      <trkpt lat="42.52965" lon="2.48187">
        <ele>2117</ele>
        <time>2023-07-15T14:59:52.000Z</time>
      </trkpt>
      <trkpt lat="42.52965" lon="2.48186">
        <ele>2117.3999023438</ele>
        <time>2023-07-15T14:59:55.000Z</time>
      </trkpt>
      <trkpt lat="42.52963" lon="2.48181">
        <ele>2118</ele>
        <time>2023-07-15T15:00:02.000Z</time>
      </trkpt>
      <trkpt lat="42.52963" lon="2.48178">
        <ele>2118.3999023438</ele>
        <time>2023-07-15T15:00:04.000Z</time>
      </trkpt>
      <trkpt lat="42.52963" lon="2.48176">
        <ele>2119.3999023438</ele>
        <time>2023-07-15T15:00:11.000Z</time>
      </trkpt>
      <trkpt lat="42.52961" lon="2.48175">
        <ele>2119.8000488281</ele>
        <time>2023-07-15T15:00:17.000Z</time>
      </trkpt>
      <trkpt lat="42.52961" lon="2.48172">
        <ele>2120</ele>
        <time>2023-07-15T15:00:26.000Z</time>
      </trkpt>
      <trkpt lat="42.52962" lon="2.48172">
        <ele>2119.6000976562</ele>
        <time>2023-07-15T15:00:34.000Z</time>
      </trkpt>
      <trkpt lat="42.52963" lon="2.4817">
        <ele>2120</ele>
        <time>2023-07-15T15:00:43.000Z</time>
      </trkpt>
      <trkpt lat="42.52961" lon="2.48166">
        <ele>2120.6000976562</ele>
        <time>2023-07-15T15:00:49.000Z</time>
      </trkpt>
      <trkpt lat="42.52961" lon="2.48166">
        <ele>2120.8000488281</ele>
        <time>2023-07-15T15:00:51.000Z</time>
      </trkpt>
      <trkpt lat="42.52963" lon="2.48163">
        <ele>2121.6000976562</ele>
        <time>2023-07-15T15:00:57.000Z</time>
      </trkpt>
      <trkpt lat="42.52963" lon="2.48162">
        <ele>2121.8000488281</ele>
        <time>2023-07-15T15:00:59.000Z</time>
      </trkpt>
      <trkpt lat="42.52964" lon="2.48157">
        <ele>2122.6000976562</ele>
        <time>2023-07-15T15:01:05.000Z</time>
      </trkpt>
      <trkpt lat="42.52965" lon="2.48155">
        <ele>2122.8000488281</ele>
        <time>2023-07-15T15:01:07.000Z</time>
      </trkpt>
      <trkpt lat="42.52963" lon="2.48156">
        <ele>2123.6000976562</ele>
        <time>2023-07-15T15:01:14.000Z</time>
      </trkpt>
      <trkpt lat="42.52962" lon="2.48155">
        <ele>2123.8000488281</ele>
        <time>2023-07-15T15:01:15.000Z</time>
      </trkpt>
      <trkpt lat="42.52961" lon="2.48153">
        <ele>2124.6000976562</ele>
        <time>2023-07-15T15:01:21.000Z</time>
      </trkpt>
      <trkpt lat="42.52962" lon="2.48152">
        <ele>2124.6000976562</ele>
        <time>2023-07-15T15:01:23.000Z</time>
      </trkpt>
      <trkpt lat="42.52962" lon="2.48148">
        <ele>2125.3999023438</ele>
        <time>2023-07-15T15:01:31.000Z</time>
      </trkpt>
      <trkpt lat="42.52962" lon="2.48146">
        <ele>2125.6000976562</ele>
        <time>2023-07-15T15:01:33.000Z</time>
      </trkpt>
      <trkpt lat="42.52962" lon="2.48142">
        <ele>2125.8000488281</ele>
        <time>2023-07-15T15:01:39.000Z</time>
      </trkpt>
      <trkpt lat="42.52961" lon="2.4814">
        <ele>2126.8000488281</ele>
        <time>2023-07-15T15:01:46.000Z</time>
      </trkpt>
      <trkpt lat="42.52961" lon="2.48139">
        <ele>2127</ele>
        <time>2023-07-15T15:01:47.000Z</time>
      </trkpt>
      <trkpt lat="42.52963" lon="2.48135">
        <ele>2127.8000488281</ele>
        <time>2023-07-15T15:01:53.000Z</time>
      </trkpt>
      <trkpt lat="42.52964" lon="2.48134">
        <ele>2128.3999023438</ele>
        <time>2023-07-15T15:01:58.000Z</time>
      </trkpt>
      <trkpt lat="42.52964" lon="2.48129">
        <ele>2129</ele>
        <time>2023-07-15T15:02:02.000Z</time>
      </trkpt>
      <trkpt lat="42.52965" lon="2.48128">
        <ele>2129.1999511719</ele>
        <time>2023-07-15T15:02:06.000Z</time>
      </trkpt>
      <trkpt lat="42.52963" lon="2.48125">
        <ele>2130</ele>
        <time>2023-07-15T15:02:11.000Z</time>
      </trkpt>
      <trkpt lat="42.52962" lon="2.48122">
        <ele>2130.1999511719</ele>
        <time>2023-07-15T15:02:14.000Z</time>
      </trkpt>
      <trkpt lat="42.52963" lon="2.48115">
        <ele>2131</ele>
        <time>2023-07-15T15:02:19.000Z</time>
      </trkpt>
      <trkpt lat="42.52964" lon="2.48112">
        <ele>2131.3999023438</ele>
        <time>2023-07-15T15:02:22.000Z</time>
      </trkpt>
      <trkpt lat="42.52964" lon="2.48109">
        <ele>2132</ele>
        <time>2023-07-15T15:02:27.000Z</time>
      </trkpt>
      <trkpt lat="42.52964" lon="2.48107">
        <ele>2132.1999511719</ele>
        <time>2023-07-15T15:02:30.000Z</time>
      </trkpt>
      <trkpt lat="42.52964" lon="2.48102">
        <ele>2132.6000976562</ele>
        <time>2023-07-15T15:02:36.000Z</time>
      </trkpt>
      <trkpt lat="42.52965" lon="2.48098">
        <ele>2133</ele>
        <time>2023-07-15T15:02:42.000Z</time>
      </trkpt>
      <trkpt lat="42.52965" lon="2.48097">
        <ele>2133.6000976562</ele>
        <time>2023-07-15T15:02:45.000Z</time>
      </trkpt>
      <trkpt lat="42.52965" lon="2.48095">
        <ele>2134</ele>
        <time>2023-07-15T15:02:48.000Z</time>
      </trkpt>
      <trkpt lat="42.52963" lon="2.48091">
        <ele>2134.8000488281</ele>
        <time>2023-07-15T15:02:56.000Z</time>
      </trkpt>
      <trkpt lat="42.52963" lon="2.48087">
        <ele>2135.1999511719</ele>
        <time>2023-07-15T15:02:59.000Z</time>
      </trkpt>
      <trkpt lat="42.52963" lon="2.48083">
        <ele>2136</ele>
        <time>2023-07-15T15:03:04.000Z</time>
      </trkpt>
      <trkpt lat="42.52963" lon="2.48081">
        <ele>2136.1999511719</ele>
        <time>2023-07-15T15:03:06.000Z</time>
      </trkpt>
      <trkpt lat="42.52965" lon="2.48076">
        <ele>2136.8000488281</ele>
        <time>2023-07-15T15:03:13.000Z</time>
      </trkpt>
      <trkpt lat="42.52967" lon="2.48069">
        <ele>2136.8000488281</ele>
        <time>2023-07-15T15:03:21.000Z</time>
      </trkpt>
      <trkpt lat="42.52967" lon="2.48064">
        <ele>2137</ele>
        <time>2023-07-15T15:03:26.000Z</time>
      </trkpt>
      <trkpt lat="42.52964" lon="2.48061">
        <ele>2137</ele>
        <time>2023-07-15T15:03:33.000Z</time>
      </trkpt>
      <trkpt lat="42.52967" lon="2.48058">
        <ele>2136</ele>
        <time>2023-07-15T15:03:41.000Z</time>
      </trkpt>
      <trkpt lat="42.5297" lon="2.48053">
        <ele>2135.6000976562</ele>
        <time>2023-07-15T15:03:47.000Z</time>
      </trkpt>
      <trkpt lat="42.52973" lon="2.48045">
        <ele>2136</ele>
        <time>2023-07-15T15:03:56.000Z</time>
      </trkpt>
      <trkpt lat="42.52974" lon="2.4804">
        <ele>2136.3999023438</ele>
        <time>2023-07-15T15:04:02.000Z</time>
      </trkpt>
      <trkpt lat="42.52977" lon="2.48034">
        <ele>2137.1999511719</ele>
        <time>2023-07-15T15:04:09.000Z</time>
      </trkpt>
      <trkpt lat="42.52979" lon="2.48031">
        <ele>2138.6000976562</ele>
        <time>2023-07-15T15:04:15.000Z</time>
      </trkpt>
      <trkpt lat="42.52981" lon="2.48026">
        <ele>2139</ele>
        <time>2023-07-15T15:04:19.000Z</time>
      </trkpt>
      <trkpt lat="42.52982" lon="2.48023">
        <ele>2139.6000976562</ele>
        <time>2023-07-15T15:04:24.000Z</time>
      </trkpt>
      <trkpt lat="42.52982" lon="2.48022">
        <ele>2140.3999023438</ele>
        <time>2023-07-15T15:04:28.000Z</time>
      </trkpt>
      <trkpt lat="42.52982" lon="2.48021">
        <ele>2140.6000976562</ele>
        <time>2023-07-15T15:04:30.000Z</time>
      </trkpt>
      <trkpt lat="42.52983" lon="2.48016">
        <ele>2141.3999023438</ele>
        <time>2023-07-15T15:04:36.000Z</time>
      </trkpt>
      <trkpt lat="42.52983" lon="2.48015">
        <ele>2141.8000488281</ele>
        <time>2023-07-15T15:04:39.000Z</time>
      </trkpt>
      <trkpt lat="42.52983" lon="2.48013">
        <ele>2142.1999511719</ele>
        <time>2023-07-15T15:04:44.000Z</time>
      </trkpt>
      <trkpt lat="42.52986" lon="2.48009">
        <ele>2142.1999511719</ele>
        <time>2023-07-15T15:04:50.000Z</time>
      </trkpt>
      <trkpt lat="42.5299" lon="2.48003">
        <ele>2143</ele>
        <time>2023-07-15T15:05:00.000Z</time>
      </trkpt>
      <trkpt lat="42.52992" lon="2.47996">
        <ele>2143.6000976562</ele>
        <time>2023-07-15T15:05:08.000Z</time>
      </trkpt>
      <trkpt lat="42.52993" lon="2.47994">
        <ele>2144</ele>
        <time>2023-07-15T15:05:12.000Z</time>
      </trkpt>
      <trkpt lat="42.52995" lon="2.47992">
        <ele>2144.6000976562</ele>
        <time>2023-07-15T15:05:16.000Z</time>
      </trkpt>
      <trkpt lat="42.52997" lon="2.47988">
        <ele>2145.1999511719</ele>
        <time>2023-07-15T15:05:20.000Z</time>
      </trkpt>
      <trkpt lat="42.52998" lon="2.47984">
        <ele>2145.6000976562</ele>
        <time>2023-07-15T15:05:24.000Z</time>
      </trkpt>
      <trkpt lat="42.52999" lon="2.4798">
        <ele>2146.1999511719</ele>
        <time>2023-07-15T15:05:28.000Z</time>
      </trkpt>
      <trkpt lat="42.53" lon="2.47978">
        <ele>2147</ele>
        <time>2023-07-15T15:05:32.000Z</time>
      </trkpt>
      <trkpt lat="42.53" lon="2.47976">
        <ele>2147.3999023438</ele>
        <time>2023-07-15T15:05:35.000Z</time>
      </trkpt>
      <trkpt lat="42.53001" lon="2.47974">
        <ele>2148.1999511719</ele>
        <time>2023-07-15T15:05:40.000Z</time>
      </trkpt>
      <trkpt lat="42.53001" lon="2.47972">
        <ele>2148.6000976562</ele>
        <time>2023-07-15T15:05:43.000Z</time>
      </trkpt>
      <trkpt lat="42.53001" lon="2.4797">
        <ele>2149</ele>
        <time>2023-07-15T15:05:47.000Z</time>
      </trkpt>
      <trkpt lat="42.53003" lon="2.47965">
        <ele>2149.3999023438</ele>
        <time>2023-07-15T15:05:55.000Z</time>
      </trkpt>
      <trkpt lat="42.53004" lon="2.47964">
        <ele>2149.8000488281</ele>
        <time>2023-07-15T15:05:58.000Z</time>
      </trkpt>
      <trkpt lat="42.53005" lon="2.4796">
        <ele>2150.1999511719</ele>
        <time>2023-07-15T15:06:03.000Z</time>
      </trkpt>
      <trkpt lat="42.53005" lon="2.47954">
        <ele>2150.3999023438</ele>
        <time>2023-07-15T15:06:09.000Z</time>
      </trkpt>
      <trkpt lat="42.53006" lon="2.4795">
        <ele>2150.8000488281</ele>
        <time>2023-07-15T15:06:14.000Z</time>
      </trkpt>
      <trkpt lat="42.53007" lon="2.47949">
        <ele>2151.1999511719</ele>
        <time>2023-07-15T15:06:16.000Z</time>
      </trkpt>
      <trkpt lat="42.53009" lon="2.47948">
        <ele>2152</ele>
        <time>2023-07-15T15:06:21.000Z</time>
      </trkpt>
      <trkpt lat="42.5301" lon="2.47949">
        <ele>2152.1999511719</ele>
        <time>2023-07-15T15:06:24.000Z</time>
      </trkpt>
      <trkpt lat="42.53015" lon="2.4794">
        <ele>2152.3999023438</ele>
        <time>2023-07-15T15:06:32.000Z</time>
      </trkpt>
      <trkpt lat="42.53018" lon="2.47935">
        <ele>2152.8000488281</ele>
        <time>2023-07-15T15:06:40.000Z</time>
      </trkpt>
      <trkpt lat="42.53018" lon="2.47931">
        <ele>2153</ele>
        <time>2023-07-15T15:06:47.000Z</time>
      </trkpt>
      <trkpt lat="42.5302" lon="2.47931">
        <ele>2153</ele>
        <time>2023-07-15T15:06:51.000Z</time>
      </trkpt>
      <trkpt lat="42.53023" lon="2.47931">
        <ele>2153</ele>
        <time>2023-07-15T15:06:59.000Z</time>
      </trkpt>
      <trkpt lat="42.53022" lon="2.47929">
        <ele>2153.1999511719</ele>
        <time>2023-07-15T15:07:08.000Z</time>
      </trkpt>
      <trkpt lat="42.53022" lon="2.47932">
        <ele>2153.6000976562</ele>
        <time>2023-07-15T15:07:18.000Z</time>
      </trkpt>
      <trkpt lat="42.53022" lon="2.4793">
        <ele>2154</ele>
        <time>2023-07-15T15:07:25.000Z</time>
      </trkpt>
      <trkpt lat="42.53023" lon="2.47926">
        <ele>2154</ele>
        <time>2023-07-15T15:07:33.000Z</time>
      </trkpt>
      <trkpt lat="42.53024" lon="2.47926">
        <ele>2154</ele>
        <time>2023-07-15T15:07:42.000Z</time>
      </trkpt>
      <trkpt lat="42.5302" lon="2.47926">
        <ele>2154</ele>
        <time>2023-07-15T15:07:50.000Z</time>
      </trkpt>
      <trkpt lat="42.53023" lon="2.47925">
        <ele>2154</ele>
        <time>2023-07-15T15:07:59.000Z</time>
      </trkpt>
      <trkpt lat="42.53025" lon="2.47921">
        <ele>2154.1999511719</ele>
        <time>2023-07-15T15:08:07.000Z</time>
      </trkpt>
      <trkpt lat="42.53029" lon="2.47912">
        <ele>2155.1999511719</ele>
        <time>2023-07-15T15:08:15.000Z</time>
      </trkpt>
      <trkpt lat="42.5303" lon="2.47911">
        <ele>2155.3999023438</ele>
        <time>2023-07-15T15:08:16.000Z</time>
      </trkpt>
      <trkpt lat="42.53032" lon="2.47906">
        <ele>2156.1999511719</ele>
        <time>2023-07-15T15:08:22.000Z</time>
      </trkpt>
      <trkpt lat="42.53033" lon="2.47905">
        <ele>2156.6000976562</ele>
        <time>2023-07-15T15:08:24.000Z</time>
      </trkpt>
      <trkpt lat="42.53035" lon="2.47899">
        <ele>2157.1999511719</ele>
        <time>2023-07-15T15:08:31.000Z</time>
      </trkpt>
      <trkpt lat="42.53037" lon="2.47897">
        <ele>2157.3999023438</ele>
        <time>2023-07-15T15:08:34.000Z</time>
      </trkpt>
      <trkpt lat="42.5304" lon="2.47895">
        <ele>2157.8000488281</ele>
        <time>2023-07-15T15:08:40.000Z</time>
      </trkpt>
      <trkpt lat="42.5305" lon="2.47886">
        <ele>2157.8000488281</ele>
        <time>2023-07-15T15:08:49.000Z</time>
      </trkpt>
      <trkpt lat="42.53053" lon="2.47885">
        <ele>2158</ele>
        <time>2023-07-15T15:08:54.000Z</time>
      </trkpt>
      <trkpt lat="42.53054" lon="2.47882">
        <ele>2158.3999023438</ele>
        <time>2023-07-15T15:09:03.000Z</time>
      </trkpt>
      <trkpt lat="42.53055" lon="2.47877">
        <ele>2159.3999023438</ele>
        <time>2023-07-15T15:09:08.000Z</time>
      </trkpt>
      <trkpt lat="42.53058" lon="2.47873">
        <ele>2159.8000488281</ele>
        <time>2023-07-15T15:09:11.000Z</time>
      </trkpt>
      <trkpt lat="42.5306" lon="2.47866">
        <ele>2160.3999023438</ele>
        <time>2023-07-15T15:09:18.000Z</time>
      </trkpt>
      <trkpt lat="42.53061" lon="2.4786">
        <ele>2160.3999023438</ele>
        <time>2023-07-15T15:09:23.000Z</time>
      </trkpt>
      <trkpt lat="42.53062" lon="2.47858">
        <ele>2160.8000488281</ele>
        <time>2023-07-15T15:09:27.000Z</time>
      </trkpt>
      <trkpt lat="42.53064" lon="2.47853">
        <ele>2161.6000976562</ele>
        <time>2023-07-15T15:09:33.000Z</time>
      </trkpt>
      <trkpt lat="42.53065" lon="2.47849">
        <ele>2161.8000488281</ele>
        <time>2023-07-15T15:09:36.000Z</time>
      </trkpt>
      <trkpt lat="42.53066" lon="2.47844">
        <ele>2162.3999023438</ele>
        <time>2023-07-15T15:09:44.000Z</time>
      </trkpt>
      <trkpt lat="42.53068" lon="2.47839">
        <ele>2162.6000976562</ele>
        <time>2023-07-15T15:09:48.000Z</time>
      </trkpt>
      <trkpt lat="42.5307" lon="2.47835">
        <ele>2163</ele>
        <time>2023-07-15T15:09:52.000Z</time>
      </trkpt>
      <trkpt lat="42.53072" lon="2.4783">
        <ele>2163.3999023438</ele>
        <time>2023-07-15T15:09:58.000Z</time>
      </trkpt>
      <trkpt lat="42.53072" lon="2.47829">
        <ele>2163.6000976562</ele>
        <time>2023-07-15T15:10:01.000Z</time>
      </trkpt>
      <trkpt lat="42.53072" lon="2.47825">
        <ele>2163.8000488281</ele>
        <time>2023-07-15T15:10:04.000Z</time>
      </trkpt>
      <trkpt lat="42.53071" lon="2.47815">
        <ele>2164</ele>
        <time>2023-07-15T15:10:12.000Z</time>
      </trkpt>
      <trkpt lat="42.53071" lon="2.47807">
        <ele>2164.6000976562</ele>
        <time>2023-07-15T15:10:22.000Z</time>
      </trkpt>
      <trkpt lat="42.53072" lon="2.47804">
        <ele>2164.8000488281</ele>
        <time>2023-07-15T15:10:24.000Z</time>
      </trkpt>
      <trkpt lat="42.53073" lon="2.47799">
        <ele>2165</ele>
        <time>2023-07-15T15:10:30.000Z</time>
      </trkpt>
      <trkpt lat="42.53075" lon="2.47791">
        <ele>2165</ele>
        <time>2023-07-15T15:10:37.000Z</time>
      </trkpt>
      <trkpt lat="42.53077" lon="2.47785">
        <ele>2165.1999511719</ele>
        <time>2023-07-15T15:10:44.000Z</time>
      </trkpt>
      <trkpt lat="42.53078" lon="2.4778">
        <ele>2165.3999023438</ele>
        <time>2023-07-15T15:10:51.000Z</time>
      </trkpt>
      <trkpt lat="42.53078" lon="2.47777">
        <ele>2165.3999023438</ele>
        <time>2023-07-15T15:10:58.000Z</time>
      </trkpt>
      <trkpt lat="42.53076" lon="2.47769">
        <ele>2165</ele>
        <time>2023-07-15T15:11:04.000Z</time>
      </trkpt>
      <trkpt lat="42.53074" lon="2.4776">
        <ele>2165.8000488281</ele>
        <time>2023-07-15T15:11:13.000Z</time>
      </trkpt>
      <trkpt lat="42.53075" lon="2.47754">
        <ele>2165.8000488281</ele>
        <time>2023-07-15T15:11:20.000Z</time>
      </trkpt>
      <trkpt lat="42.53077" lon="2.47755">
        <ele>2165.6000976562</ele>
        <time>2023-07-15T15:11:32.000Z</time>
      </trkpt>
      <trkpt lat="42.53076" lon="2.47753">
        <ele>2166</ele>
        <time>2023-07-15T15:11:42.000Z</time>
      </trkpt>
      <trkpt lat="42.53074" lon="2.47746">
        <ele>2166.6000976562</ele>
        <time>2023-07-15T15:11:49.000Z</time>
      </trkpt>
      <trkpt lat="42.53075" lon="2.47743">
        <ele>2166.8000488281</ele>
        <time>2023-07-15T15:11:52.000Z</time>
      </trkpt>
      <trkpt lat="42.53075" lon="2.47737">
        <ele>2167</ele>
        <time>2023-07-15T15:11:56.000Z</time>
      </trkpt>
      <trkpt lat="42.53074" lon="2.47734">
        <ele>2167.1999511719</ele>
        <time>2023-07-15T15:12:03.000Z</time>
      </trkpt>
      <trkpt lat="42.53074" lon="2.47727">
        <ele>2167</ele>
        <time>2023-07-15T15:12:11.000Z</time>
      </trkpt>
      <trkpt lat="42.53074" lon="2.47724">
        <ele>2167.8000488281</ele>
        <time>2023-07-15T15:12:16.000Z</time>
      </trkpt>
      <trkpt lat="42.53073" lon="2.47722">
        <ele>2168.3999023438</ele>
        <time>2023-07-15T15:12:19.000Z</time>
      </trkpt>
      <trkpt lat="42.53073" lon="2.47721">
        <ele>2169</ele>
        <time>2023-07-15T15:12:22.000Z</time>
      </trkpt>
      <trkpt lat="42.53073" lon="2.47718">
        <ele>2169.1999511719</ele>
        <time>2023-07-15T15:12:26.000Z</time>
      </trkpt>
      <trkpt lat="42.53074" lon="2.4771">
        <ele>2169.3999023438</ele>
        <time>2023-07-15T15:12:36.000Z</time>
      </trkpt>
      <trkpt lat="42.53075" lon="2.47705">
        <ele>2169.8000488281</ele>
        <time>2023-07-15T15:12:42.000Z</time>
      </trkpt>
      <trkpt lat="42.53077" lon="2.47701">
        <ele>2170</ele>
        <time>2023-07-15T15:12:48.000Z</time>
      </trkpt>
      <trkpt lat="42.53077" lon="2.47701">
        <ele>2170.1999511719</ele>
        <time>2023-07-15T15:12:50.000Z</time>
      </trkpt>
      <trkpt lat="42.53076" lon="2.47698">
        <ele>2171</ele>
        <time>2023-07-15T15:12:55.000Z</time>
      </trkpt>
      <trkpt lat="42.53075" lon="2.47697">
        <ele>2171.6000976562</ele>
        <time>2023-07-15T15:12:58.000Z</time>
      </trkpt>
      <trkpt lat="42.53075" lon="2.4769">
        <ele>2171.6000976562</ele>
        <time>2023-07-15T15:13:05.000Z</time>
      </trkpt>
      <trkpt lat="42.53074" lon="2.47687">
        <ele>2170.8000488281</ele>
        <time>2023-07-15T15:13:12.000Z</time>
      </trkpt>
      <trkpt lat="42.53072" lon="2.47686">
        <ele>2170.3999023438</ele>
        <time>2023-07-15T15:13:20.000Z</time>
      </trkpt>
      <trkpt lat="42.53071" lon="2.47686">
        <ele>2170</ele>
        <time>2023-07-15T15:13:23.000Z</time>
      </trkpt>
      <trkpt lat="42.53072" lon="2.47683">
        <ele>2169.3999023438</ele>
        <time>2023-07-15T15:13:29.000Z</time>
      </trkpt>
      <trkpt lat="42.53073" lon="2.4768">
        <ele>2169</ele>
        <time>2023-07-15T15:13:37.000Z</time>
      </trkpt>
      <trkpt lat="42.53074" lon="2.47679">
        <ele>2169</ele>
        <time>2023-07-15T15:13:40.000Z</time>
      </trkpt>
      <trkpt lat="42.53073" lon="2.47675">
        <ele>2168.1999511719</ele>
        <time>2023-07-15T15:13:47.000Z</time>
      </trkpt>
      <trkpt lat="42.53072" lon="2.47672">
        <ele>2168.1999511719</ele>
        <time>2023-07-15T15:13:54.000Z</time>
      </trkpt>
      <trkpt lat="42.53071" lon="2.47664">
        <ele>2168.3999023438</ele>
        <time>2023-07-15T15:14:02.000Z</time>
      </trkpt>
      <trkpt lat="42.5307" lon="2.47661">
        <ele>2168</ele>
        <time>2023-07-15T15:14:08.000Z</time>
      </trkpt>
      <trkpt lat="42.5307" lon="2.47661">
        <ele>2167.8000488281</ele>
        <time>2023-07-15T15:14:09.000Z</time>
      </trkpt>
      <trkpt lat="42.5307" lon="2.4766">
        <ele>2167.1999511719</ele>
        <time>2023-07-15T15:14:15.000Z</time>
      </trkpt>
      <trkpt lat="42.53071" lon="2.47659">
        <ele>2166.8000488281</ele>
        <time>2023-07-15T15:14:19.000Z</time>
      </trkpt>
      <trkpt lat="42.53073" lon="2.47657">
        <ele>2166.6000976562</ele>
        <time>2023-07-15T15:14:22.000Z</time>
      </trkpt>
      <trkpt lat="42.53076" lon="2.4765">
        <ele>2165</ele>
        <time>2023-07-15T15:14:31.000Z</time>
      </trkpt>
      <trkpt lat="42.53075" lon="2.47647">
        <ele>2164.3999023438</ele>
        <time>2023-07-15T15:14:34.000Z</time>
      </trkpt>
      <trkpt lat="42.53074" lon="2.47644">
        <ele>2163.6000976562</ele>
        <time>2023-07-15T15:14:40.000Z</time>
      </trkpt>
      <trkpt lat="42.53075" lon="2.47643">
        <ele>2163.3999023438</ele>
        <time>2023-07-15T15:14:42.000Z</time>
      </trkpt>
      <trkpt lat="42.53075" lon="2.47641">
        <ele>2162.1999511719</ele>
        <time>2023-07-15T15:14:48.000Z</time>
      </trkpt>
      <trkpt lat="42.53074" lon="2.47641">
        <ele>2161.1999511719</ele>
        <time>2023-07-15T15:14:56.000Z</time>
      </trkpt>
      <trkpt lat="42.53073" lon="2.47639">
        <ele>2160.6000976562</ele>
        <time>2023-07-15T15:14:59.000Z</time>
      </trkpt>
      <trkpt lat="42.53073" lon="2.47637">
        <ele>2160.1999511719</ele>
        <time>2023-07-15T15:15:01.000Z</time>
      </trkpt>
      <trkpt lat="42.53073" lon="2.47635">
        <ele>2160</ele>
        <time>2023-07-15T15:15:06.000Z</time>
      </trkpt>
      <trkpt lat="42.53075" lon="2.47632">
        <ele>2160</ele>
        <time>2023-07-15T15:15:15.000Z</time>
      </trkpt>
      <trkpt lat="42.53073" lon="2.47633">
        <ele>2159.6000976562</ele>
        <time>2023-07-15T15:15:22.000Z</time>
      </trkpt>
      <trkpt lat="42.53072" lon="2.47634">
        <ele>2159.1999511719</ele>
        <time>2023-07-15T15:15:27.000Z</time>
      </trkpt>
      <trkpt lat="42.53072" lon="2.47636">
        <ele>2159</ele>
        <time>2023-07-15T15:15:31.000Z</time>
      </trkpt>
      <trkpt lat="42.5307" lon="2.47631">
        <ele>2158.6000976562</ele>
        <time>2023-07-15T15:15:37.000Z</time>
      </trkpt>
      <trkpt lat="42.5307" lon="2.4763">
        <ele>2158.1999511719</ele>
        <time>2023-07-15T15:15:39.000Z</time>
      </trkpt>
      <trkpt lat="42.53069" lon="2.47628">
        <ele>2157.6000976562</ele>
        <time>2023-07-15T15:15:44.000Z</time>
      </trkpt>
      <trkpt lat="42.53072" lon="2.47628">
        <ele>2157.1999511719</ele>
        <time>2023-07-15T15:15:52.000Z</time>
      </trkpt>
      <trkpt lat="42.53072" lon="2.47628">
        <ele>2157</ele>
        <time>2023-07-15T15:15:53.000Z</time>
      </trkpt>
      <trkpt lat="42.53075" lon="2.47624">
        <ele>2154.8000488281</ele>
        <time>2023-07-15T15:16:07.000Z</time>
      </trkpt>
      <trkpt lat="42.53075" lon="2.47618">
        <ele>2153.8000488281</ele>
        <time>2023-07-15T15:16:13.000Z</time>
      </trkpt>
      <trkpt lat="42.53075" lon="2.47618">
        <ele>2153.6000976562</ele>
        <time>2023-07-15T15:16:14.000Z</time>
      </trkpt>
      <trkpt lat="42.53073" lon="2.47618">
        <ele>2152.6000976562</ele>
        <time>2023-07-15T15:16:19.000Z</time>
      </trkpt>
      <trkpt lat="42.53073" lon="2.47618">
        <ele>2152.6000976562</ele>
        <time>2023-07-15T15:16:20.000Z</time>
      </trkpt>
      <trkpt lat="42.5307" lon="2.47615">
        <ele>2151.6000976562</ele>
        <time>2023-07-15T15:16:28.000Z</time>
      </trkpt>
      <trkpt lat="42.53071" lon="2.47613">
        <ele>2151.1999511719</ele>
        <time>2023-07-15T15:16:30.000Z</time>
      </trkpt>
      <trkpt lat="42.53069" lon="2.47609">
        <ele>2150.8000488281</ele>
        <time>2023-07-15T15:16:38.000Z</time>
      </trkpt>
      <trkpt lat="42.53067" lon="2.47604">
        <ele>2151</ele>
        <time>2023-07-15T15:16:45.000Z</time>
      </trkpt>
      <trkpt lat="42.53066" lon="2.47599">
        <ele>2150.6000976562</ele>
        <time>2023-07-15T15:16:51.000Z</time>
      </trkpt>
      <trkpt lat="42.53065" lon="2.47598">
        <ele>2150.3999023438</ele>
        <time>2023-07-15T15:16:52.000Z</time>
      </trkpt>
      <trkpt lat="42.53064" lon="2.47595">
        <ele>2149.6000976562</ele>
        <time>2023-07-15T15:16:59.000Z</time>
      </trkpt>
      <trkpt lat="42.53059" lon="2.47594">
        <ele>2149.6000976562</ele>
        <time>2023-07-15T15:17:06.000Z</time>
      </trkpt>
      <trkpt lat="42.53058" lon="2.47596">
        <ele>2150</ele>
        <time>2023-07-15T15:17:28.000Z</time>
      </trkpt>
      <trkpt lat="42.53055" lon="2.47591">
        <ele>2150</ele>
        <time>2023-07-15T15:17:34.000Z</time>
      </trkpt>
      <trkpt lat="42.53054" lon="2.47585">
        <ele>2151.1999511719</ele>
        <time>2023-07-15T15:17:42.000Z</time>
      </trkpt>
      <trkpt lat="42.53054" lon="2.47582">
        <ele>2151.6000976562</ele>
        <time>2023-07-15T15:17:45.000Z</time>
      </trkpt>
      <trkpt lat="42.53054" lon="2.47582">
        <ele>2151.8000488281</ele>
        <time>2023-07-15T15:17:49.000Z</time>
      </trkpt>
      <trkpt lat="42.5305" lon="2.47581">
        <ele>2152</ele>
        <time>2023-07-15T15:17:55.000Z</time>
      </trkpt>
      <trkpt lat="42.53048" lon="2.4758">
        <ele>2152.1999511719</ele>
        <time>2023-07-15T15:18:08.000Z</time>
      </trkpt>
      <trkpt lat="42.53047" lon="2.47581">
        <ele>2152.6000976562</ele>
        <time>2023-07-15T15:18:11.000Z</time>
      </trkpt>
      <trkpt lat="42.53044" lon="2.4758">
        <ele>2153.6000976562</ele>
        <time>2023-07-15T15:18:17.000Z</time>
      </trkpt>
      <trkpt lat="42.53044" lon="2.47578">
        <ele>2153.8000488281</ele>
        <time>2023-07-15T15:18:20.000Z</time>
      </trkpt>
      <trkpt lat="42.53043" lon="2.47576">
        <ele>2154.3999023438</ele>
        <time>2023-07-15T15:18:28.000Z</time>
      </trkpt>
      <trkpt lat="42.53042" lon="2.47575">
        <ele>2154.6000976562</ele>
        <time>2023-07-15T15:18:30.000Z</time>
      </trkpt>
      <trkpt lat="42.53042" lon="2.47574">
        <ele>2155.1999511719</ele>
        <time>2023-07-15T15:18:34.000Z</time>
      </trkpt>
      <trkpt lat="42.53038" lon="2.4757">
        <ele>2155</ele>
        <time>2023-07-15T15:18:44.000Z</time>
      </trkpt>
      <trkpt lat="42.53037" lon="2.4757">
        <ele>2155.1999511719</ele>
        <time>2023-07-15T15:18:50.000Z</time>
      </trkpt>
      <trkpt lat="42.5303" lon="2.47566">
        <ele>2154.1999511719</ele>
        <time>2023-07-15T15:19:01.000Z</time>
      </trkpt>
      <trkpt lat="42.53031" lon="2.47563">
        <ele>2152.8000488281</ele>
        <time>2023-07-15T15:19:13.000Z</time>
      </trkpt>
      <trkpt lat="42.53029" lon="2.47566">
        <ele>2152.6000976562</ele>
        <time>2023-07-15T15:19:17.000Z</time>
      </trkpt>
      <trkpt lat="42.5302" lon="2.47559">
        <ele>2150.6000976562</ele>
        <time>2023-07-15T15:20:06.000Z</time>
      </trkpt>
      <trkpt lat="42.53015" lon="2.47558">
        <ele>2150.6000976562</ele>
        <time>2023-07-15T15:20:14.000Z</time>
      </trkpt>
      <trkpt lat="42.53012" lon="2.47559">
        <ele>2150.6000976562</ele>
        <time>2023-07-15T15:20:24.000Z</time>
      </trkpt>
      <trkpt lat="42.53012" lon="2.47558">
        <ele>2150.3999023438</ele>
        <time>2023-07-15T15:20:25.000Z</time>
      </trkpt>
      <trkpt lat="42.53013" lon="2.47555">
        <ele>2149.8000488281</ele>
        <time>2023-07-15T15:20:30.000Z</time>
      </trkpt>
      <trkpt lat="42.53011" lon="2.47554">
        <ele>2149.6000976562</ele>
        <time>2023-07-15T15:20:36.000Z</time>
      </trkpt>
      <trkpt lat="42.5301" lon="2.47554">
        <ele>2149.3999023438</ele>
        <time>2023-07-15T15:20:37.000Z</time>
      </trkpt>
      <trkpt lat="42.53003" lon="2.4755">
        <ele>2148</ele>
        <time>2023-07-15T15:20:50.000Z</time>
      </trkpt>
      <trkpt lat="42.52996" lon="2.47545">
        <ele>2148.1999511719</ele>
        <time>2023-07-15T15:20:58.000Z</time>
      </trkpt>
      <trkpt lat="42.52993" lon="2.47541">
        <ele>2148.3999023438</ele>
        <time>2023-07-15T15:21:06.000Z</time>
      </trkpt>
      <trkpt lat="42.52987" lon="2.47537">
        <ele>2147.1999511719</ele>
        <time>2023-07-15T15:21:21.000Z</time>
      </trkpt>
      <trkpt lat="42.52983" lon="2.47529">
        <ele>2148.3999023438</ele>
        <time>2023-07-15T15:21:29.000Z</time>
      </trkpt>
      <trkpt lat="42.52981" lon="2.47528">
        <ele>2149</ele>
        <time>2023-07-15T15:21:36.000Z</time>
      </trkpt>
      <trkpt lat="42.52979" lon="2.47529">
        <ele>2149.6000976562</ele>
        <time>2023-07-15T15:21:40.000Z</time>
      </trkpt>
      <trkpt lat="42.52979" lon="2.47528">
        <ele>2149.6000976562</ele>
        <time>2023-07-15T15:21:41.000Z</time>
      </trkpt>
      <trkpt lat="42.52976" lon="2.47524">
        <ele>2150.6000976562</ele>
        <time>2023-07-15T15:21:47.000Z</time>
      </trkpt>
      <trkpt lat="42.52974" lon="2.47523">
        <ele>2151.1999511719</ele>
        <time>2023-07-15T15:21:50.000Z</time>
      </trkpt>
      <trkpt lat="42.52974" lon="2.47518">
        <ele>2151.6000976562</ele>
        <time>2023-07-15T15:21:55.000Z</time>
      </trkpt>
      <trkpt lat="42.52973" lon="2.47518">
        <ele>2151.8000488281</ele>
        <time>2023-07-15T15:21:56.000Z</time>
      </trkpt>
      <trkpt lat="42.5297" lon="2.4752">
        <ele>2152.3999023438</ele>
        <time>2023-07-15T15:22:01.000Z</time>
      </trkpt>
      <trkpt lat="42.52968" lon="2.47519">
        <ele>2152.8000488281</ele>
        <time>2023-07-15T15:22:04.000Z</time>
      </trkpt>
      <trkpt lat="42.52965" lon="2.4752">
        <ele>2153.3999023438</ele>
        <time>2023-07-15T15:22:09.000Z</time>
      </trkpt>
      <trkpt lat="42.52966" lon="2.47519">
        <ele>2153.6000976562</ele>
        <time>2023-07-15T15:22:17.000Z</time>
      </trkpt>
      <trkpt lat="42.52966" lon="2.47516">
        <ele>2154.1999511719</ele>
        <time>2023-07-15T15:22:41.000Z</time>
      </trkpt>
      <trkpt lat="42.52965" lon="2.47512">
        <ele>2155</ele>
        <time>2023-07-15T15:22:47.000Z</time>
      </trkpt>
      <trkpt lat="42.52964" lon="2.47509">
        <ele>2155.3999023438</ele>
        <time>2023-07-15T15:22:49.000Z</time>
      </trkpt>
      <trkpt lat="42.52961" lon="2.47508">
        <ele>2156</ele>
        <time>2023-07-15T15:22:53.000Z</time>
      </trkpt>
      <trkpt lat="42.5296" lon="2.47507">
        <ele>2156.3999023438</ele>
        <time>2023-07-15T15:22:55.000Z</time>
      </trkpt>
      <trkpt lat="42.52957" lon="2.47504">
        <ele>2157</ele>
        <time>2023-07-15T15:22:59.000Z</time>
      </trkpt>
      <trkpt lat="42.52954" lon="2.47502">
        <ele>2157.3999023438</ele>
        <time>2023-07-15T15:23:04.000Z</time>
      </trkpt>
      <trkpt lat="42.52947" lon="2.47495">
        <ele>2158</ele>
        <time>2023-07-15T15:23:12.000Z</time>
      </trkpt>
      <trkpt lat="42.52947" lon="2.47494">
        <ele>2158.1999511719</ele>
        <time>2023-07-15T15:23:13.000Z</time>
      </trkpt>
      <trkpt lat="42.52944" lon="2.47491">
        <ele>2159</ele>
        <time>2023-07-15T15:23:19.000Z</time>
      </trkpt>
      <trkpt lat="42.52944" lon="2.47489">
        <ele>2159.1999511719</ele>
        <time>2023-07-15T15:23:21.000Z</time>
      </trkpt>
      <trkpt lat="42.52943" lon="2.47484">
        <ele>2160</ele>
        <time>2023-07-15T15:23:26.000Z</time>
      </trkpt>
      <trkpt lat="42.52941" lon="2.4748">
        <ele>2160.1999511719</ele>
        <time>2023-07-15T15:23:29.000Z</time>
      </trkpt>
      <trkpt lat="42.5294" lon="2.47476">
        <ele>2160.6000976562</ele>
        <time>2023-07-15T15:23:32.000Z</time>
      </trkpt>
      <trkpt lat="42.52936" lon="2.47468">
        <ele>2161.1999511719</ele>
        <time>2023-07-15T15:23:42.000Z</time>
      </trkpt>
      <trkpt lat="42.52932" lon="2.47466">
        <ele>2161</ele>
        <time>2023-07-15T15:23:49.000Z</time>
      </trkpt>
      <trkpt lat="42.5293" lon="2.47464">
        <ele>2161</ele>
        <time>2023-07-15T15:23:52.000Z</time>
      </trkpt>
      <trkpt lat="42.52929" lon="2.47461">
        <ele>2161</ele>
        <time>2023-07-15T15:23:55.000Z</time>
      </trkpt>
      <trkpt lat="42.52924" lon="2.47453">
        <ele>2161</ele>
        <time>2023-07-15T15:24:03.000Z</time>
      </trkpt>
      <trkpt lat="42.52922" lon="2.47449">
        <ele>2161.1999511719</ele>
        <time>2023-07-15T15:24:07.000Z</time>
      </trkpt>
      <trkpt lat="42.52922" lon="2.47446">
        <ele>2161.8000488281</ele>
        <time>2023-07-15T15:24:11.000Z</time>
      </trkpt>
      <trkpt lat="42.52922" lon="2.47442">
        <ele>2162.3999023438</ele>
        <time>2023-07-15T15:24:15.000Z</time>
      </trkpt>
      <trkpt lat="42.52922" lon="2.47439">
        <ele>2163.1999511719</ele>
        <time>2023-07-15T15:24:20.000Z</time>
      </trkpt>
      <trkpt lat="42.52922" lon="2.47437">
        <ele>2163.6000976562</ele>
        <time>2023-07-15T15:24:22.000Z</time>
      </trkpt>
      <trkpt lat="42.52923" lon="2.47433">
        <ele>2164.1999511719</ele>
        <time>2023-07-15T15:24:28.000Z</time>
      </trkpt>
      <trkpt lat="42.52923" lon="2.47431">
        <ele>2164.8000488281</ele>
        <time>2023-07-15T15:24:31.000Z</time>
      </trkpt>
      <trkpt lat="42.52923" lon="2.4743">
        <ele>2165.3999023438</ele>
        <time>2023-07-15T15:24:35.000Z</time>
      </trkpt>
      <trkpt lat="42.52922" lon="2.47427">
        <ele>2165.8000488281</ele>
        <time>2023-07-15T15:24:39.000Z</time>
      </trkpt>
      <trkpt lat="42.5292" lon="2.47424">
        <ele>2166.6000976562</ele>
        <time>2023-07-15T15:24:44.000Z</time>
      </trkpt>
      <trkpt lat="42.5292" lon="2.47423">
        <ele>2167</ele>
        <time>2023-07-15T15:24:46.000Z</time>
      </trkpt>
      <trkpt lat="42.5292" lon="2.4742">
        <ele>2168</ele>
        <time>2023-07-15T15:24:54.000Z</time>
      </trkpt>
      <trkpt lat="42.52917" lon="2.47414">
        <ele>2169</ele>
        <time>2023-07-15T15:25:03.000Z</time>
      </trkpt>
      <trkpt lat="42.52917" lon="2.47413">
        <ele>2169</ele>
        <time>2023-07-15T15:25:04.000Z</time>
      </trkpt>
      <trkpt lat="42.52916" lon="2.47401">
        <ele>2168.6000976562</ele>
        <time>2023-07-15T15:25:11.000Z</time>
      </trkpt>
      <trkpt lat="42.52916" lon="2.47399">
        <ele>2168.3999023438</ele>
        <time>2023-07-15T15:25:15.000Z</time>
      </trkpt>
      <trkpt lat="42.52916" lon="2.47397">
        <ele>2168.1999511719</ele>
        <time>2023-07-15T15:25:17.000Z</time>
      </trkpt>
      <trkpt lat="42.52916" lon="2.47394">
        <ele>2168</ele>
        <time>2023-07-15T15:25:34.000Z</time>
      </trkpt>
      <trkpt lat="42.52916" lon="2.4739">
        <ele>2168</ele>
        <time>2023-07-15T15:25:37.000Z</time>
      </trkpt>
      <trkpt lat="42.52915" lon="2.47385">
        <ele>2167.6000976562</ele>
        <time>2023-07-15T15:25:41.000Z</time>
      </trkpt>
      <trkpt lat="42.52917" lon="2.47375">
        <ele>2167.6000976562</ele>
        <time>2023-07-15T15:25:49.000Z</time>
      </trkpt>
      <trkpt lat="42.52916" lon="2.47365">
        <ele>2167.8000488281</ele>
        <time>2023-07-15T15:25:57.000Z</time>
      </trkpt>
      <trkpt lat="42.52913" lon="2.47362">
        <ele>2168</ele>
        <time>2023-07-15T15:26:03.000Z</time>
      </trkpt>
      <trkpt lat="42.52912" lon="2.47356">
        <ele>2168.3999023438</ele>
        <time>2023-07-15T15:26:09.000Z</time>
      </trkpt>
      <trkpt lat="42.52916" lon="2.47349">
        <ele>2169</ele>
        <time>2023-07-15T15:26:16.000Z</time>
      </trkpt>
      <trkpt lat="42.52916" lon="2.47349">
        <ele>2169</ele>
        <time>2023-07-15T15:26:17.000Z</time>
      </trkpt>
      <trkpt lat="42.52922" lon="2.47343">
        <ele>2170</ele>
        <time>2023-07-15T15:26:24.000Z</time>
      </trkpt>
      <trkpt lat="42.52924" lon="2.47336">
        <ele>2170.8000488281</ele>
        <time>2023-07-15T15:26:32.000Z</time>
      </trkpt>
      <trkpt lat="42.52924" lon="2.47334">
        <ele>2171</ele>
        <time>2023-07-15T15:26:33.000Z</time>
      </trkpt>
      <trkpt lat="42.52928" lon="2.47326">
        <ele>2171.6000976562</ele>
        <time>2023-07-15T15:26:40.000Z</time>
      </trkpt>
      <trkpt lat="42.52932" lon="2.47318">
        <ele>2172</ele>
        <time>2023-07-15T15:26:47.000Z</time>
      </trkpt>
      <trkpt lat="42.52932" lon="2.47316">
        <ele>2172</ele>
        <time>2023-07-15T15:26:49.000Z</time>
      </trkpt>
      <trkpt lat="42.52933" lon="2.47308">
        <ele>2172.3999023438</ele>
        <time>2023-07-15T15:26:56.000Z</time>
      </trkpt>
      <trkpt lat="42.52935" lon="2.47303">
        <ele>2172</ele>
        <time>2023-07-15T15:27:02.000Z</time>
      </trkpt>
      <trkpt lat="42.52941" lon="2.47291">
        <ele>2171.1999511719</ele>
        <time>2023-07-15T15:27:11.000Z</time>
      </trkpt>
      <trkpt lat="42.52945" lon="2.47282">
        <ele>2171</ele>
        <time>2023-07-15T15:27:17.000Z</time>
      </trkpt>
      <trkpt lat="42.52945" lon="2.47281">
        <ele>2171</ele>
        <time>2023-07-15T15:27:18.000Z</time>
      </trkpt>
      <trkpt lat="42.52946" lon="2.47275">
        <ele>2170.3999023438</ele>
        <time>2023-07-15T15:27:24.000Z</time>
      </trkpt>
      <trkpt lat="42.52947" lon="2.47271">
        <ele>2169.8000488281</ele>
        <time>2023-07-15T15:27:28.000Z</time>
      </trkpt>
      <trkpt lat="42.52949" lon="2.47268">
        <ele>2169.6000976562</ele>
        <time>2023-07-15T15:27:31.000Z</time>
      </trkpt>
      <trkpt lat="42.52953" lon="2.47258">
        <ele>2169.8000488281</ele>
        <time>2023-07-15T15:27:40.000Z</time>
      </trkpt>
      <trkpt lat="42.52956" lon="2.47251">
        <ele>2170.1999511719</ele>
        <time>2023-07-15T15:27:47.000Z</time>
      </trkpt>
      <trkpt lat="42.52958" lon="2.47242">
        <ele>2170.3999023438</ele>
        <time>2023-07-15T15:27:53.000Z</time>
      </trkpt>
      <trkpt lat="42.52959" lon="2.47239">
        <ele>2171</ele>
        <time>2023-07-15T15:27:57.000Z</time>
      </trkpt>
      <trkpt lat="42.52959" lon="2.47238">
        <ele>2171.1999511719</ele>
        <time>2023-07-15T15:27:58.000Z</time>
      </trkpt>
      <trkpt lat="42.52961" lon="2.47231">
        <ele>2172</ele>
        <time>2023-07-15T15:28:04.000Z</time>
      </trkpt>
      <trkpt lat="42.52961" lon="2.47229">
        <ele>2172.1999511719</ele>
        <time>2023-07-15T15:28:06.000Z</time>
      </trkpt>
      <trkpt lat="42.52966" lon="2.47219">
        <ele>2172.8000488281</ele>
        <time>2023-07-15T15:28:13.000Z</time>
      </trkpt>
      <trkpt lat="42.52968" lon="2.47213">
        <ele>2173.1999511719</ele>
        <time>2023-07-15T15:28:18.000Z</time>
      </trkpt>
      <trkpt lat="42.5297" lon="2.4721">
        <ele>2173.3999023438</ele>
        <time>2023-07-15T15:28:21.000Z</time>
      </trkpt>
      <trkpt lat="42.52972" lon="2.47201">
        <ele>2174.1999511719</ele>
        <time>2023-07-15T15:28:27.000Z</time>
      </trkpt>
      <trkpt lat="42.52971" lon="2.47198">
        <ele>2174.8000488281</ele>
        <time>2023-07-15T15:28:31.000Z</time>
      </trkpt>
      <trkpt lat="42.52971" lon="2.47196">
        <ele>2175.1999511719</ele>
        <time>2023-07-15T15:28:34.000Z</time>
      </trkpt>
      <trkpt lat="42.52973" lon="2.47191">
        <ele>2176.1999511719</ele>
        <time>2023-07-15T15:28:41.000Z</time>
      </trkpt>
      <trkpt lat="42.52976" lon="2.47181">
        <ele>2177.1999511719</ele>
        <time>2023-07-15T15:28:52.000Z</time>
      </trkpt>
      <trkpt lat="42.52977" lon="2.4718">
        <ele>2177.1999511719</ele>
        <time>2023-07-15T15:28:53.000Z</time>
      </trkpt>
      <trkpt lat="42.52978" lon="2.47173">
        <ele>2178</ele>
        <time>2023-07-15T15:29:02.000Z</time>
      </trkpt>
      <trkpt lat="42.52979" lon="2.47172">
        <ele>2178.3999023438</ele>
        <time>2023-07-15T15:29:05.000Z</time>
      </trkpt>
      <trkpt lat="42.52982" lon="2.47166">
        <ele>2179.1999511719</ele>
        <time>2023-07-15T15:29:11.000Z</time>
      </trkpt>
      <trkpt lat="42.52985" lon="2.47161">
        <ele>2179.3999023438</ele>
        <time>2023-07-15T15:29:16.000Z</time>
      </trkpt>
      <trkpt lat="42.52986" lon="2.47158">
        <ele>2179.6000976562</ele>
        <time>2023-07-15T15:29:19.000Z</time>
      </trkpt>
      <trkpt lat="42.52991" lon="2.4715">
        <ele>2180.6000976562</ele>
        <time>2023-07-15T15:29:25.000Z</time>
      </trkpt>
      <trkpt lat="42.52992" lon="2.47148">
        <ele>2180.8000488281</ele>
        <time>2023-07-15T15:29:27.000Z</time>
      </trkpt>
      <trkpt lat="42.52999" lon="2.47138">
        <ele>2181.8000488281</ele>
        <time>2023-07-15T15:29:37.000Z</time>
      </trkpt>
      <trkpt lat="42.53003" lon="2.4713">
        <ele>2182.1999511719</ele>
        <time>2023-07-15T15:29:45.000Z</time>
      </trkpt>
      <trkpt lat="42.53005" lon="2.47126">
        <ele>2182.8000488281</ele>
        <time>2023-07-15T15:29:49.000Z</time>
      </trkpt>
      <trkpt lat="42.53006" lon="2.47121">
        <ele>2183.3999023438</ele>
        <time>2023-07-15T15:29:56.000Z</time>
      </trkpt>
      <trkpt lat="42.53007" lon="2.47119">
        <ele>2183.8000488281</ele>
        <time>2023-07-15T15:29:58.000Z</time>
      </trkpt>
      <trkpt lat="42.53008" lon="2.47114">
        <ele>2184.6000976562</ele>
        <time>2023-07-15T15:30:03.000Z</time>
      </trkpt>
      <trkpt lat="42.53008" lon="2.47113">
        <ele>2184.8000488281</ele>
        <time>2023-07-15T15:30:04.000Z</time>
      </trkpt>
      <trkpt lat="42.5301" lon="2.47109">
        <ele>2185.6000976562</ele>
        <time>2023-07-15T15:30:11.000Z</time>
      </trkpt>
      <trkpt lat="42.53012" lon="2.47105">
        <ele>2185.8000488281</ele>
        <time>2023-07-15T15:30:17.000Z</time>
      </trkpt>
      <trkpt lat="42.53013" lon="2.47105">
        <ele>2186</ele>
        <time>2023-07-15T15:30:19.000Z</time>
      </trkpt>
      <trkpt lat="42.53011" lon="2.47097">
        <ele>2185.8000488281</ele>
        <time>2023-07-15T15:30:29.000Z</time>
      </trkpt>
      <trkpt lat="42.53013" lon="2.47098">
        <ele>2185.6000976562</ele>
        <time>2023-07-15T15:30:40.000Z</time>
      </trkpt>
      <trkpt lat="42.5302" lon="2.47092">
        <ele>2184.8000488281</ele>
        <time>2023-07-15T15:31:05.000Z</time>
      </trkpt>
      <trkpt lat="42.53021" lon="2.47087">
        <ele>2184.8000488281</ele>
        <time>2023-07-15T15:31:10.000Z</time>
      </trkpt>
      <trkpt lat="42.53023" lon="2.4708">
        <ele>2185.1999511719</ele>
        <time>2023-07-15T15:31:18.000Z</time>
      </trkpt>
      <trkpt lat="42.53029" lon="2.47073">
        <ele>2185.3999023438</ele>
        <time>2023-07-15T15:31:25.000Z</time>
      </trkpt>
      <trkpt lat="42.53032" lon="2.4707">
        <ele>2185.8000488281</ele>
        <time>2023-07-15T15:31:30.000Z</time>
      </trkpt>
      <trkpt lat="42.53033" lon="2.47069">
        <ele>2186</ele>
        <time>2023-07-15T15:31:31.000Z</time>
      </trkpt>
      <trkpt lat="42.53039" lon="2.47062">
        <ele>2186.1999511719</ele>
        <time>2023-07-15T15:31:38.000Z</time>
      </trkpt>
      <trkpt lat="42.53043" lon="2.47058">
        <ele>2186.3999023438</ele>
        <time>2023-07-15T15:31:44.000Z</time>
      </trkpt>
      <trkpt lat="42.53059" lon="2.47051">
        <ele>2186.6000976562</ele>
        <time>2023-07-15T15:32:02.000Z</time>
      </trkpt>
      <trkpt lat="42.53088" lon="2.47014">
        <ele>2184.3999023438</ele>
        <time>2023-07-15T15:32:45.000Z</time>
      </trkpt>
      <trkpt lat="42.53092" lon="2.47008">
        <ele>2184.1999511719</ele>
        <time>2023-07-15T15:32:51.000Z</time>
      </trkpt>
      <trkpt lat="42.53098" lon="2.46999">
        <ele>2184.1999511719</ele>
        <time>2023-07-15T15:32:59.000Z</time>
      </trkpt>
      <trkpt lat="42.53103" lon="2.46992">
        <ele>2184</ele>
        <time>2023-07-15T15:33:05.000Z</time>
      </trkpt>
      <trkpt lat="42.53108" lon="2.46986">
        <ele>2184</ele>
        <time>2023-07-15T15:33:10.000Z</time>
      </trkpt>
      <trkpt lat="42.5311" lon="2.46983">
        <ele>2184</ele>
        <time>2023-07-15T15:33:16.000Z</time>
      </trkpt>
      <trkpt lat="42.53135" lon="2.46968">
        <ele>2183.8000488281</ele>
        <time>2023-07-15T15:33:40.000Z</time>
      </trkpt>
      <trkpt lat="42.53143" lon="2.46962">
        <ele>2183.6000976562</ele>
        <time>2023-07-15T15:33:50.000Z</time>
      </trkpt>
      <trkpt lat="42.53152" lon="2.46955">
        <ele>2183.1999511719</ele>
        <time>2023-07-15T15:34:00.000Z</time>
      </trkpt>
      <trkpt lat="42.53162" lon="2.46948">
        <ele>2183</ele>
        <time>2023-07-15T15:34:07.000Z</time>
      </trkpt>
      <trkpt lat="42.53171" lon="2.4694">
        <ele>2183</ele>
        <time>2023-07-15T15:34:15.000Z</time>
      </trkpt>
      <trkpt lat="42.53174" lon="2.46932">
        <ele>2182.6000976562</ele>
        <time>2023-07-15T15:34:23.000Z</time>
      </trkpt>
      <trkpt lat="42.53181" lon="2.46921">
        <ele>2181.6000976562</ele>
        <time>2023-07-15T15:34:34.000Z</time>
      </trkpt>
      <trkpt lat="42.53181" lon="2.4692">
        <ele>2181.6000976562</ele>
        <time>2023-07-15T15:34:35.000Z</time>
      </trkpt>
      <trkpt lat="42.53186" lon="2.46914">
        <ele>2181.3999023438</ele>
        <time>2023-07-15T15:34:43.000Z</time>
      </trkpt>
      <trkpt lat="42.53191" lon="2.46905">
        <ele>2181.3999023438</ele>
        <time>2023-07-15T15:34:51.000Z</time>
      </trkpt>
      <trkpt lat="42.53196" lon="2.46898">
        <ele>2180.8000488281</ele>
        <time>2023-07-15T15:34:59.000Z</time>
      </trkpt>
      <trkpt lat="42.532" lon="2.46892">
        <ele>2180.6000976562</ele>
        <time>2023-07-15T15:35:03.000Z</time>
      </trkpt>
      <trkpt lat="42.53201" lon="2.46889">
        <ele>2180.1999511719</ele>
        <time>2023-07-15T15:35:06.000Z</time>
      </trkpt>
      <trkpt lat="42.53205" lon="2.46878">
        <ele>2180.1999511719</ele>
        <time>2023-07-15T15:35:14.000Z</time>
      </trkpt>
      <trkpt lat="42.53207" lon="2.46867">
        <ele>2180.6000976562</ele>
        <time>2023-07-15T15:35:23.000Z</time>
      </trkpt>
      <trkpt lat="42.53206" lon="2.46859">
        <ele>2180.8000488281</ele>
        <time>2023-07-15T15:35:32.000Z</time>
      </trkpt>
      <trkpt lat="42.53205" lon="2.46858">
        <ele>2180.8000488281</ele>
        <time>2023-07-15T15:35:34.000Z</time>
      </trkpt>
      <trkpt lat="42.53205" lon="2.46857">
        <ele>2180.8000488281</ele>
        <time>2023-07-15T15:35:36.000Z</time>
      </trkpt>
      <trkpt lat="42.53204" lon="2.46855">
        <ele>2180.6000976562</ele>
        <time>2023-07-15T15:35:40.000Z</time>
      </trkpt>
      <trkpt lat="42.53203" lon="2.46851">
        <ele>2180.6000976562</ele>
        <time>2023-07-15T15:35:50.000Z</time>
      </trkpt>
      <trkpt lat="42.53205" lon="2.46844">
        <ele>2180.6000976562</ele>
        <time>2023-07-15T15:35:58.000Z</time>
      </trkpt>
      <trkpt lat="42.53208" lon="2.46835">
        <ele>2179.6000976562</ele>
        <time>2023-07-15T15:36:04.000Z</time>
      </trkpt>
      <trkpt lat="42.53209" lon="2.46834">
        <ele>2179.3999023438</ele>
        <time>2023-07-15T15:36:05.000Z</time>
      </trkpt>
      <trkpt lat="42.53212" lon="2.46828">
        <ele>2178.6000976562</ele>
        <time>2023-07-15T15:36:12.000Z</time>
      </trkpt>
      <trkpt lat="42.53213" lon="2.46827">
        <ele>2178.3999023438</ele>
        <time>2023-07-15T15:36:13.000Z</time>
      </trkpt>
      <trkpt lat="42.53214" lon="2.4682">
        <ele>2177.8000488281</ele>
        <time>2023-07-15T15:36:21.000Z</time>
      </trkpt>
      <trkpt lat="42.53215" lon="2.46816">
        <ele>2177.3999023438</ele>
        <time>2023-07-15T15:36:26.000Z</time>
      </trkpt>
      <trkpt lat="42.53216" lon="2.46814">
        <ele>2177.1999511719</ele>
        <time>2023-07-15T15:36:28.000Z</time>
      </trkpt>
      <trkpt lat="42.53216" lon="2.46809">
        <ele>2176.3999023438</ele>
        <time>2023-07-15T15:36:34.000Z</time>
      </trkpt>
      <trkpt lat="42.53217" lon="2.46806">
        <ele>2175.8000488281</ele>
        <time>2023-07-15T15:36:38.000Z</time>
      </trkpt>
      <trkpt lat="42.53221" lon="2.46797">
        <ele>2175.3999023438</ele>
        <time>2023-07-15T15:36:46.000Z</time>
      </trkpt>
      <trkpt lat="42.53222" lon="2.46791">
        <ele>2175.3999023438</ele>
        <time>2023-07-15T15:36:50.000Z</time>
      </trkpt>
      <trkpt lat="42.53223" lon="2.46788">
        <ele>2175.1999511719</ele>
        <time>2023-07-15T15:36:53.000Z</time>
      </trkpt>
      <trkpt lat="42.53226" lon="2.46778">
        <ele>2174.3999023438</ele>
        <time>2023-07-15T15:37:01.000Z</time>
      </trkpt>
      <trkpt lat="42.5323" lon="2.46774">
        <ele>2174.1999511719</ele>
        <time>2023-07-15T15:37:05.000Z</time>
      </trkpt>
      <trkpt lat="42.53233" lon="2.46768">
        <ele>2173.8000488281</ele>
        <time>2023-07-15T15:37:10.000Z</time>
      </trkpt>
      <trkpt lat="42.53236" lon="2.4676">
        <ele>2173.3999023438</ele>
        <time>2023-07-15T15:37:18.000Z</time>
      </trkpt>
      <trkpt lat="42.53236" lon="2.46756">
        <ele>2173.1999511719</ele>
        <time>2023-07-15T15:37:21.000Z</time>
      </trkpt>
      <trkpt lat="42.53238" lon="2.46751">
        <ele>2173.1999511719</ele>
        <time>2023-07-15T15:37:25.000Z</time>
      </trkpt>
      <trkpt lat="42.53241" lon="2.46741">
        <ele>2173.3999023438</ele>
        <time>2023-07-15T15:37:34.000Z</time>
      </trkpt>
      <trkpt lat="42.53248" lon="2.46727">
        <ele>2172.8000488281</ele>
        <time>2023-07-15T15:37:42.000Z</time>
      </trkpt>
      <trkpt lat="42.53249" lon="2.46724">
        <ele>2172.8000488281</ele>
        <time>2023-07-15T15:37:50.000Z</time>
      </trkpt>
      <trkpt lat="42.53251" lon="2.4672">
        <ele>2172.1999511719</ele>
        <time>2023-07-15T15:37:56.000Z</time>
      </trkpt>
      <trkpt lat="42.53251" lon="2.46718">
        <ele>2172</ele>
        <time>2023-07-15T15:37:59.000Z</time>
      </trkpt>
      <trkpt lat="42.53251" lon="2.46712">
        <ele>2171</ele>
        <time>2023-07-15T15:38:06.000Z</time>
      </trkpt>
      <trkpt lat="42.53253" lon="2.46709">
        <ele>2170.6000976562</ele>
        <time>2023-07-15T15:38:16.000Z</time>
      </trkpt>
      <trkpt lat="42.53257" lon="2.46705">
        <ele>2170.3999023438</ele>
        <time>2023-07-15T15:38:23.000Z</time>
      </trkpt>
      <trkpt lat="42.53259" lon="2.46701">
        <ele>2169.8000488281</ele>
        <time>2023-07-15T15:38:27.000Z</time>
      </trkpt>
      <trkpt lat="42.53261" lon="2.467">
        <ele>2169.6000976562</ele>
        <time>2023-07-15T15:38:30.000Z</time>
      </trkpt>
      <trkpt lat="42.53264" lon="2.46699">
        <ele>2168.8000488281</ele>
        <time>2023-07-15T15:38:38.000Z</time>
      </trkpt>
      <trkpt lat="42.53267" lon="2.46696">
        <ele>2167.6000976562</ele>
        <time>2023-07-15T15:38:46.000Z</time>
      </trkpt>
      <trkpt lat="42.53268" lon="2.46695">
        <ele>2167.6000976562</ele>
        <time>2023-07-15T15:38:47.000Z</time>
      </trkpt>
      <trkpt lat="42.53274" lon="2.4669">
        <ele>2166.6000976562</ele>
        <time>2023-07-15T15:38:53.000Z</time>
      </trkpt>
      <trkpt lat="42.53275" lon="2.46689">
        <ele>2166.1999511719</ele>
        <time>2023-07-15T15:38:55.000Z</time>
      </trkpt>
      <trkpt lat="42.53277" lon="2.46687">
        <ele>2165.6000976562</ele>
        <time>2023-07-15T15:38:58.000Z</time>
      </trkpt>
      <trkpt lat="42.53282" lon="2.46684">
        <ele>2165.1999511719</ele>
        <time>2023-07-15T15:39:05.000Z</time>
      </trkpt>
      <trkpt lat="42.53286" lon="2.4668">
        <ele>2164.6000976562</ele>
        <time>2023-07-15T15:39:10.000Z</time>
      </trkpt>
      <trkpt lat="42.5329" lon="2.46677">
        <ele>2164</ele>
        <time>2023-07-15T15:39:13.000Z</time>
      </trkpt>
      <trkpt lat="42.5329" lon="2.46675">
        <ele>2163.3999023438</ele>
        <time>2023-07-15T15:39:16.000Z</time>
      </trkpt>
      <trkpt lat="42.53294" lon="2.46669">
        <ele>2162.8000488281</ele>
        <time>2023-07-15T15:39:22.000Z</time>
      </trkpt>
      <trkpt lat="42.53296" lon="2.46666">
        <ele>2162.1999511719</ele>
        <time>2023-07-15T15:39:25.000Z</time>
      </trkpt>
      <trkpt lat="42.53302" lon="2.4666">
        <ele>2161.3999023438</ele>
        <time>2023-07-15T15:39:31.000Z</time>
      </trkpt>
      <trkpt lat="42.53304" lon="2.46658">
        <ele>2161.1999511719</ele>
        <time>2023-07-15T15:39:34.000Z</time>
      </trkpt>
      <trkpt lat="42.53307" lon="2.46655">
        <ele>2160.6000976562</ele>
        <time>2023-07-15T15:39:38.000Z</time>
      </trkpt>
      <trkpt lat="42.5331" lon="2.46652">
        <ele>2160</ele>
        <time>2023-07-15T15:39:42.000Z</time>
      </trkpt>
      <trkpt lat="42.53311" lon="2.4665">
        <ele>2159.8000488281</ele>
        <time>2023-07-15T15:39:45.000Z</time>
      </trkpt>
      <trkpt lat="42.53311" lon="2.46649">
        <ele>2159.6000976562</ele>
        <time>2023-07-15T15:39:47.000Z</time>
      </trkpt>
      <trkpt lat="42.53312" lon="2.46648">
        <ele>2159.3999023438</ele>
        <time>2023-07-15T15:39:51.000Z</time>
      </trkpt>
      <trkpt lat="42.53312" lon="2.46647">
        <ele>2159.3999023438</ele>
        <time>2023-07-15T15:39:52.000Z</time>
      </trkpt>
      <trkpt lat="42.53315" lon="2.46645">
        <ele>2159</ele>
        <time>2023-07-15T15:39:56.000Z</time>
      </trkpt>
      <trkpt lat="42.53318" lon="2.46642">
        <ele>2158.3999023438</ele>
        <time>2023-07-15T15:40:00.000Z</time>
      </trkpt>
      <trkpt lat="42.53321" lon="2.46639">
        <ele>2158.1999511719</ele>
        <time>2023-07-15T15:40:12.000Z</time>
      </trkpt>
      <trkpt lat="42.53327" lon="2.46632">
        <ele>2158</ele>
        <time>2023-07-15T15:40:20.000Z</time>
      </trkpt>
      <trkpt lat="42.53331" lon="2.46628">
        <ele>2157.8000488281</ele>
        <time>2023-07-15T15:40:23.000Z</time>
      </trkpt>
      <trkpt lat="42.53334" lon="2.46626">
        <ele>2157.3999023438</ele>
        <time>2023-07-15T15:40:28.000Z</time>
      </trkpt>
      <trkpt lat="42.53336" lon="2.4662">
        <ele>2157</ele>
        <time>2023-07-15T15:40:35.000Z</time>
      </trkpt>
      <trkpt lat="42.53341" lon="2.46616">
        <ele>2156.8000488281</ele>
        <time>2023-07-15T15:40:41.000Z</time>
      </trkpt>
      <trkpt lat="42.53344" lon="2.46613">
        <ele>2156.8000488281</ele>
        <time>2023-07-15T15:40:43.000Z</time>
      </trkpt>
      <trkpt lat="42.53351" lon="2.46607">
        <ele>2156.3999023438</ele>
        <time>2023-07-15T15:40:49.000Z</time>
      </trkpt>
      <trkpt lat="42.53359" lon="2.466">
        <ele>2156</ele>
        <time>2023-07-15T15:40:58.000Z</time>
      </trkpt>
      <trkpt lat="42.53359" lon="2.46599">
        <ele>2155.8000488281</ele>
        <time>2023-07-15T15:41:02.000Z</time>
      </trkpt>
      <trkpt lat="42.53361" lon="2.46597">
        <ele>2155.6000976562</ele>
        <time>2023-07-15T15:41:04.000Z</time>
      </trkpt>
      <trkpt lat="42.53367" lon="2.46587">
        <ele>2155.1999511719</ele>
        <time>2023-07-15T15:41:13.000Z</time>
      </trkpt>
      <trkpt lat="42.53373" lon="2.46581">
        <ele>2154.6000976562</ele>
        <time>2023-07-15T15:41:19.000Z</time>
      </trkpt>
      <trkpt lat="42.53376" lon="2.46579">
        <ele>2154.1999511719</ele>
        <time>2023-07-15T15:41:22.000Z</time>
      </trkpt>
      <trkpt lat="42.53387" lon="2.46571">
        <ele>2153.8000488281</ele>
        <time>2023-07-15T15:41:30.000Z</time>
      </trkpt>
      <trkpt lat="42.5339" lon="2.46567">
        <ele>2153.6000976562</ele>
        <time>2023-07-15T15:41:33.000Z</time>
      </trkpt>
      <trkpt lat="42.53394" lon="2.46564">
        <ele>2153.1999511719</ele>
        <time>2023-07-15T15:41:37.000Z</time>
      </trkpt>
      <trkpt lat="42.53395" lon="2.46564">
        <ele>2152.8000488281</ele>
        <time>2023-07-15T15:41:43.000Z</time>
      </trkpt>
      <trkpt lat="42.53396" lon="2.46563">
        <ele>2152.6000976562</ele>
        <time>2023-07-15T15:41:59.000Z</time>
      </trkpt>
      <trkpt lat="42.53398" lon="2.46557">
        <ele>2152.8000488281</ele>
        <time>2023-07-15T15:42:07.000Z</time>
      </trkpt>
      <trkpt lat="42.53403" lon="2.46548">
        <ele>2153</ele>
        <time>2023-07-15T15:42:14.000Z</time>
      </trkpt>
      <trkpt lat="42.53409" lon="2.46542">
        <ele>2152.8000488281</ele>
        <time>2023-07-15T15:42:22.000Z</time>
      </trkpt>
      <trkpt lat="42.53413" lon="2.46534">
        <ele>2152.3999023438</ele>
        <time>2023-07-15T15:42:32.000Z</time>
      </trkpt>
      <trkpt lat="42.53422" lon="2.46527">
        <ele>2152.3999023438</ele>
        <time>2023-07-15T15:42:41.000Z</time>
      </trkpt>
      <trkpt lat="42.53433" lon="2.46529">
        <ele>2151.8000488281</ele>
        <time>2023-07-15T15:42:49.000Z</time>
      </trkpt>
      <trkpt lat="42.53446" lon="2.46531">
        <ele>2151.6000976562</ele>
        <time>2023-07-15T15:42:58.000Z</time>
      </trkpt>
      <trkpt lat="42.53455" lon="2.46524">
        <ele>2152.3999023438</ele>
        <time>2023-07-15T15:43:05.000Z</time>
      </trkpt>
      <trkpt lat="42.53457" lon="2.46519">
        <ele>2153.6000976562</ele>
        <time>2023-07-15T15:43:11.000Z</time>
      </trkpt>
      <trkpt lat="42.53456" lon="2.46513">
        <ele>2154.3999023438</ele>
        <time>2023-07-15T15:43:16.000Z</time>
      </trkpt>
      <trkpt lat="42.53455" lon="2.46507">
        <ele>2154.6000976562</ele>
        <time>2023-07-15T15:43:19.000Z</time>
      </trkpt>
      <trkpt lat="42.53454" lon="2.46506">
        <ele>2154.6000976562</ele>
        <time>2023-07-15T15:43:20.000Z</time>
      </trkpt>
      <trkpt lat="42.53453" lon="2.46497">
        <ele>2154.8000488281</ele>
        <time>2023-07-15T15:43:25.000Z</time>
      </trkpt>
      <trkpt lat="42.53448" lon="2.46491">
        <ele>2154.1999511719</ele>
        <time>2023-07-15T15:43:32.000Z</time>
      </trkpt>
      <trkpt lat="42.53442" lon="2.46489">
        <ele>2154</ele>
        <time>2023-07-15T15:43:39.000Z</time>
      </trkpt>
      <trkpt lat="42.5344" lon="2.4649">
        <ele>2153.6000976562</ele>
        <time>2023-07-15T15:43:43.000Z</time>
      </trkpt>
      <trkpt lat="42.5344" lon="2.46491">
        <ele>2153.6000976562</ele>
        <time>2023-07-15T15:43:44.000Z</time>
      </trkpt>
      <trkpt lat="42.53439" lon="2.46491">
        <ele>2153.6000976562</ele>
        <time>2023-07-15T15:43:46.000Z</time>
      </trkpt>
      <trkpt lat="42.53435" lon="2.46485">
        <ele>2153.6000976562</ele>
        <time>2023-07-15T15:46:57.000Z</time>
      </trkpt>
      <trkpt lat="42.53431" lon="2.46491">
        <ele>2153.6000976562</ele>
        <time>2023-07-15T15:47:02.000Z</time>
      </trkpt>
      <trkpt lat="42.53427" lon="2.46489">
        <ele>2153.6000976562</ele>
        <time>2023-07-15T15:47:07.000Z</time>
      </trkpt>
      <trkpt lat="42.53426" lon="2.46489">
        <ele>2153.6000976562</ele>
        <time>2023-07-15T15:47:12.000Z</time>
      </trkpt>
      <trkpt lat="42.53421" lon="2.46489">
        <ele>2153.3999023438</ele>
        <time>2023-07-15T15:47:17.000Z</time>
      </trkpt>
      <trkpt lat="42.53419" lon="2.46495">
        <ele>2153.3999023438</ele>
        <time>2023-07-15T15:47:23.000Z</time>
      </trkpt>
      <trkpt lat="42.53416" lon="2.46498">
        <ele>2153.6000976562</ele>
        <time>2023-07-15T15:47:31.000Z</time>
      </trkpt>
      <trkpt lat="42.53414" lon="2.46497">
        <ele>2153.8000488281</ele>
        <time>2023-07-15T15:47:33.000Z</time>
      </trkpt>
      <trkpt lat="42.53412" lon="2.46497">
        <ele>2154</ele>
        <time>2023-07-15T15:47:35.000Z</time>
      </trkpt>
      <trkpt lat="42.5341" lon="2.46496">
        <ele>2154.3999023438</ele>
        <time>2023-07-15T15:47:37.000Z</time>
      </trkpt>
      <trkpt lat="42.53409" lon="2.46497">
        <ele>2154.6000976562</ele>
        <time>2023-07-15T15:47:39.000Z</time>
      </trkpt>
      <trkpt lat="42.53407" lon="2.46501">
        <ele>2155</ele>
        <time>2023-07-15T15:47:42.000Z</time>
      </trkpt>
      <trkpt lat="42.53403" lon="2.465">
        <ele>2155.8000488281</ele>
        <time>2023-07-15T15:47:48.000Z</time>
      </trkpt>
      <trkpt lat="42.534" lon="2.465">
        <ele>2156.6000976562</ele>
        <time>2023-07-15T15:47:56.000Z</time>
      </trkpt>
      <trkpt lat="42.53398" lon="2.46504">
        <ele>2156.8000488281</ele>
        <time>2023-07-15T15:47:59.000Z</time>
      </trkpt>
      <trkpt lat="42.53397" lon="2.46507">
        <ele>2157</ele>
        <time>2023-07-15T15:48:02.000Z</time>
      </trkpt>
      <trkpt lat="42.53394" lon="2.46516">
        <ele>2157.3999023438</ele>
        <time>2023-07-15T15:48:11.000Z</time>
      </trkpt>
      <trkpt lat="42.53392" lon="2.46523">
        <ele>2157.1999511719</ele>
        <time>2023-07-15T15:48:18.000Z</time>
      </trkpt>
      <trkpt lat="42.53393" lon="2.46531">
        <ele>2157.6000976562</ele>
        <time>2023-07-15T15:48:24.000Z</time>
      </trkpt>
      <trkpt lat="42.53393" lon="2.46531">
        <ele>2157.6000976562</ele>
        <time>2023-07-15T15:48:29.000Z</time>
      </trkpt>
      <trkpt lat="42.5339" lon="2.46532">
        <ele>2157.6000976562</ele>
        <time>2023-07-15T15:48:31.000Z</time>
      </trkpt>
      <trkpt lat="42.53387" lon="2.46529">
        <ele>2157.6000976562</ele>
        <time>2023-07-15T15:48:38.000Z</time>
      </trkpt>
      <trkpt lat="42.53384" lon="2.46521">
        <ele>2157.1999511719</ele>
        <time>2023-07-15T15:48:46.000Z</time>
      </trkpt>
      <trkpt lat="42.53382" lon="2.46517">
        <ele>2157.1999511719</ele>
        <time>2023-07-15T15:48:54.000Z</time>
      </trkpt>
      <trkpt lat="42.53385" lon="2.46523">
        <ele>2157.3999023438</ele>
        <time>2023-07-15T15:49:02.000Z</time>
      </trkpt>
      <trkpt lat="42.53387" lon="2.46527">
        <ele>2157.3999023438</ele>
        <time>2023-07-15T15:49:07.000Z</time>
      </trkpt>
      <trkpt lat="42.53388" lon="2.46531">
        <ele>2157.3999023438</ele>
        <time>2023-07-15T15:49:12.000Z</time>
      </trkpt>
      <trkpt lat="42.53391" lon="2.46533">
        <ele>2157.3999023438</ele>
        <time>2023-07-15T15:49:19.000Z</time>
      </trkpt>
      <trkpt lat="42.53394" lon="2.46533">
        <ele>2157.3999023438</ele>
        <time>2023-07-15T15:49:25.000Z</time>
      </trkpt>
      <trkpt lat="42.53394" lon="2.46534">
        <ele>2157.1999511719</ele>
        <time>2023-07-15T15:49:31.000Z</time>
      </trkpt>
      <trkpt lat="42.5339" lon="2.46533">
        <ele>2157.6000976562</ele>
        <time>2023-07-15T15:49:39.000Z</time>
      </trkpt>
      <trkpt lat="42.53391" lon="2.46531">
        <ele>2157.6000976562</ele>
        <time>2023-07-15T15:49:51.000Z</time>
      </trkpt>
      <trkpt lat="42.53391" lon="2.4653">
        <ele>2157.8000488281</ele>
        <time>2023-07-15T15:49:58.000Z</time>
      </trkpt>
      <trkpt lat="42.53393" lon="2.46533">
        <ele>2157.8000488281</ele>
        <time>2023-07-15T15:50:06.000Z</time>
      </trkpt>
      <trkpt lat="42.53392" lon="2.46533">
        <ele>2157.8000488281</ele>
        <time>2023-07-15T15:50:12.000Z</time>
      </trkpt>
    </trkseg>
  </trk>
</gpx>